<?xml version="1.0" encoding="UTF-8"?>
<gpx creator="Garmin Connect" version="1.1"
  xsi:schemaLocation="http://www.topografix.com/GPX/1/1 http://www.topografix.com/GPX/11.xsd"
  xmlns:ns3="http://www.garmin.com/xmlschemas/TrackPointExtension/v1"
  xmlns="http://www.topografix.com/GPX/1/1"
  xmlns:xsi="http://www.w3.org/2001/XMLSchema-instance" xmlns:ns2="http://www.garmin.com/xmlschemas/GpxExtensions/v3">
  <metadata>
    <link href="connect.garmin.com">
      <text>Garmin Connect</text>
    </link>
    <time>2026-05-25T11:53:59.000Z</time>
  </metadata>
  <trk>
    <name>Saguache County Hiking</name>
    <type>hiking</type>
    <trkseg>
      <trkpt lat="38.0604104697704315185546875" lon="-106.93327677436172962188720703125">
        <ele>3523.60009765625</ele>
        <time>2026-05-25T11:54:03.000Z</time>
        <extensions>
          <ns3:TrackPointExtension>
            <ns3:hr>84</ns3:hr>
            <ns3:cad>0</ns3:cad>
          </ns3:TrackPointExtension>
        </extensions>
      </trkpt>
      <trkpt lat="38.06040787138044834136962890625" lon="-106.9332855753600597381591796875">
        <ele>3523.39990234375</ele>
        <time>2026-05-25T11:54:08.000Z</time>
        <extensions>
          <ns3:TrackPointExtension>
            <ns3:hr>86</ns3:hr>
            <ns3:cad>0</ns3:cad>
          </ns3:TrackPointExtension>
        </extensions>
      </trkpt>
      <trkpt lat="38.060400076210498809814453125" lon="-106.9333070330321788787841796875">
        <ele>3523.800048828125</ele>
        <time>2026-05-25T11:54:14.000Z</time>
        <extensions>
          <ns3:TrackPointExtension>
            <ns3:hr>86</ns3:hr>
            <ns3:cad>0</ns3:cad>
          </ns3:TrackPointExtension>
        </extensions>
      </trkpt>
      <trkpt lat="38.06038188748061656951904296875" lon="-106.9333231262862682342529296875">
        <ele>3524.199951171875</ele>
        <time>2026-05-25T11:54:16.000Z</time>
        <extensions>
          <ns3:TrackPointExtension>
            <ns3:hr>89</ns3:hr>
            <ns3:cad>48</ns3:cad>
          </ns3:TrackPointExtension>
        </extensions>
      </trkpt>
      <trkpt lat="38.060379959642887115478515625" lon="-106.93332840688526630401611328125">
        <ele>3524.199951171875</ele>
        <time>2026-05-25T11:54:22.000Z</time>
        <extensions>
          <ns3:TrackPointExtension>
            <ns3:hr>87</ns3:hr>
            <ns3:cad>0</ns3:cad>
          </ns3:TrackPointExtension>
        </extensions>
      </trkpt>
      <trkpt lat="38.060379959642887115478515625" lon="-106.93332840688526630401611328125">
        <ele>3523.800048828125</ele>
        <time>2026-05-25T11:54:28.000Z</time>
        <extensions>
          <ns3:TrackPointExtension>
            <ns3:hr>89</ns3:hr>
            <ns3:cad>0</ns3:cad>
          </ns3:TrackPointExtension>
        </extensions>
      </trkpt>
      <trkpt lat="38.060379959642887115478515625" lon="-106.93332840688526630401611328125">
        <ele>3524</ele>
        <time>2026-05-25T11:54:32.000Z</time>
        <extensions>
          <ns3:TrackPointExtension>
            <ns3:hr>91</ns3:hr>
            <ns3:cad>0</ns3:cad>
          </ns3:TrackPointExtension>
        </extensions>
      </trkpt>
      <trkpt lat="38.060379959642887115478515625" lon="-106.93332840688526630401611328125">
        <ele>3523.199951171875</ele>
        <time>2026-05-25T11:54:38.000Z</time>
        <extensions>
          <ns3:TrackPointExtension>
            <ns3:hr>89</ns3:hr>
            <ns3:cad>0</ns3:cad>
          </ns3:TrackPointExtension>
        </extensions>
      </trkpt>
      <trkpt lat="38.0603804625570774078369140625" lon="-106.93332287482917308807373046875">
        <ele>3523</ele>
        <time>2026-05-25T11:54:42.000Z</time>
        <extensions>
          <ns3:TrackPointExtension>
            <ns3:hr>90</ns3:hr>
            <ns3:cad>0</ns3:cad>
          </ns3:TrackPointExtension>
        </extensions>
      </trkpt>
      <trkpt lat="38.0603291653096675872802734375" lon="-106.93332128226757049560546875">
        <ele>3523.800048828125</ele>
        <time>2026-05-25T11:54:48.000Z</time>
        <extensions>
          <ns3:TrackPointExtension>
            <ns3:hr>92</ns3:hr>
            <ns3:cad>0</ns3:cad>
          </ns3:TrackPointExtension>
        </extensions>
      </trkpt>
      <trkpt lat="38.0603201128542423248291015625" lon="-106.93332002498209476470947265625">
        <ele>3523.800048828125</ele>
        <time>2026-05-25T11:54:49.000Z</time>
        <extensions>
          <ns3:TrackPointExtension>
            <ns3:hr>92</ns3:hr>
            <ns3:cad>0</ns3:cad>
          </ns3:TrackPointExtension>
        </extensions>
      </trkpt>
      <trkpt lat="38.06027342565357685089111328125" lon="-106.93333427421748638153076171875">
        <ele>3523.39990234375</ele>
        <time>2026-05-25T11:54:55.000Z</time>
        <extensions>
          <ns3:TrackPointExtension>
            <ns3:hr>91</ns3:hr>
            <ns3:cad>52</ns3:cad>
          </ns3:TrackPointExtension>
        </extensions>
      </trkpt>
      <trkpt lat="38.06026504375040531158447265625" lon="-106.9333398900926113128662109375">
        <ele>3523.60009765625</ele>
        <time>2026-05-25T11:54:56.000Z</time>
        <extensions>
          <ns3:TrackPointExtension>
            <ns3:hr>91</ns3:hr>
            <ns3:cad>52</ns3:cad>
          </ns3:TrackPointExtension>
        </extensions>
      </trkpt>
      <trkpt lat="38.06025716476142406463623046875" lon="-106.933358497917652130126953125">
        <ele>3523.800048828125</ele>
        <time>2026-05-25T11:54:58.000Z</time>
        <extensions>
          <ns3:TrackPointExtension>
            <ns3:hr>92</ns3:hr>
            <ns3:cad>45</ns3:cad>
          </ns3:TrackPointExtension>
        </extensions>
      </trkpt>
      <trkpt lat="38.0602383054792881011962890625" lon="-106.9333683885633945465087890625">
        <ele>3524.199951171875</ele>
        <time>2026-05-25T11:55:00.000Z</time>
        <extensions>
          <ns3:TrackPointExtension>
            <ns3:hr>92</ns3:hr>
            <ns3:cad>43</ns3:cad>
          </ns3:TrackPointExtension>
        </extensions>
      </trkpt>
      <trkpt lat="38.06022564880549907684326171875" lon="-106.9333693943917751312255859375">
        <ele>3524.199951171875</ele>
        <time>2026-05-25T11:55:01.000Z</time>
        <extensions>
          <ns3:TrackPointExtension>
            <ns3:hr>92</ns3:hr>
            <ns3:cad>43</ns3:cad>
          </ns3:TrackPointExtension>
        </extensions>
      </trkpt>
      <trkpt lat="38.06017837487161159515380859375" lon="-106.9333554804325103759765625">
        <ele>3523.800048828125</ele>
        <time>2026-05-25T11:55:07.000Z</time>
        <extensions>
          <ns3:TrackPointExtension>
            <ns3:hr>92</ns3:hr>
            <ns3:cad>48</ns3:cad>
          </ns3:TrackPointExtension>
        </extensions>
      </trkpt>
      <trkpt lat="38.0601742677390575408935546875" lon="-106.933347769081592559814453125">
        <ele>3524</ele>
        <time>2026-05-25T11:55:08.000Z</time>
        <extensions>
          <ns3:TrackPointExtension>
            <ns3:hr>92</ns3:hr>
            <ns3:cad>48</ns3:cad>
          </ns3:TrackPointExtension>
        </extensions>
      </trkpt>
      <trkpt lat="38.06017183698713779449462890625" lon="-106.933277361094951629638671875">
        <ele>3524.39990234375</ele>
        <time>2026-05-25T11:55:14.000Z</time>
        <extensions>
          <ns3:TrackPointExtension>
            <ns3:hr>91</ns3:hr>
            <ns3:cad>43</ns3:cad>
          </ns3:TrackPointExtension>
        </extensions>
      </trkpt>
      <trkpt lat="38.060165382921695709228515625" lon="-106.93327627144753932952880859375">
        <ele>3524.60009765625</ele>
        <time>2026-05-25T11:55:16.000Z</time>
        <extensions>
          <ns3:TrackPointExtension>
            <ns3:hr>93</ns3:hr>
            <ns3:cad>0</ns3:cad>
          </ns3:TrackPointExtension>
        </extensions>
      </trkpt>
      <trkpt lat="38.060165382921695709228515625" lon="-106.93327643908560276031494140625">
        <ele>3524.800048828125</ele>
        <time>2026-05-25T11:55:20.000Z</time>
        <extensions>
          <ns3:TrackPointExtension>
            <ns3:hr>96</ns3:hr>
            <ns3:cad>0</ns3:cad>
          </ns3:TrackPointExtension>
        </extensions>
      </trkpt>
      <trkpt lat="38.06016563437879085540771484375" lon="-106.933276355266571044921875">
        <ele>3524.800048828125</ele>
        <time>2026-05-25T11:55:21.000Z</time>
        <extensions>
          <ns3:TrackPointExtension>
            <ns3:hr>101</ns3:hr>
            <ns3:cad>0</ns3:cad>
          </ns3:TrackPointExtension>
        </extensions>
      </trkpt>
      <trkpt lat="38.0601615272462368011474609375" lon="-106.93327493034303188323974609375">
        <ele>3524.800048828125</ele>
        <time>2026-05-25T11:55:22.000Z</time>
        <extensions>
          <ns3:TrackPointExtension>
            <ns3:hr>101</ns3:hr>
            <ns3:cad>0</ns3:cad>
          </ns3:TrackPointExtension>
        </extensions>
      </trkpt>
      <trkpt lat="38.060165382921695709228515625" lon="-106.93327643908560276031494140625">
        <ele>3525</ele>
        <time>2026-05-25T11:55:26.000Z</time>
        <extensions>
          <ns3:TrackPointExtension>
            <ns3:hr>101</ns3:hr>
            <ns3:cad>0</ns3:cad>
          </ns3:TrackPointExtension>
        </extensions>
      </trkpt>
      <trkpt lat="38.0601652152836322784423828125" lon="-106.93327300250530242919921875">
        <ele>3524.199951171875</ele>
        <time>2026-05-25T11:55:32.000Z</time>
        <extensions>
          <ns3:TrackPointExtension>
            <ns3:hr>101</ns3:hr>
            <ns3:cad>0</ns3:cad>
          </ns3:TrackPointExtension>
        </extensions>
      </trkpt>
      <trkpt lat="38.060165382921695709228515625" lon="-106.93327643908560276031494140625">
        <ele>3524.199951171875</ele>
        <time>2026-05-25T11:55:33.000Z</time>
        <extensions>
          <ns3:TrackPointExtension>
            <ns3:hr>102</ns3:hr>
            <ns3:cad>0</ns3:cad>
          </ns3:TrackPointExtension>
        </extensions>
      </trkpt>
      <trkpt lat="38.060165382921695709228515625" lon="-106.93327643908560276031494140625">
        <ele>3524.60009765625</ele>
        <time>2026-05-25T11:55:39.000Z</time>
        <extensions>
          <ns3:TrackPointExtension>
            <ns3:hr>101</ns3:hr>
            <ns3:cad>0</ns3:cad>
          </ns3:TrackPointExtension>
        </extensions>
      </trkpt>
      <trkpt lat="38.060165382921695709228515625" lon="-106.93327643908560276031494140625">
        <ele>3524.39990234375</ele>
        <time>2026-05-25T11:55:42.000Z</time>
        <extensions>
          <ns3:TrackPointExtension>
            <ns3:hr>99</ns3:hr>
            <ns3:cad>0</ns3:cad>
          </ns3:TrackPointExtension>
        </extensions>
      </trkpt>
      <trkpt lat="38.060169406235218048095703125" lon="-106.93326939828693866729736328125">
        <ele>3524.39990234375</ele>
        <time>2026-05-25T11:55:44.000Z</time>
        <extensions>
          <ns3:TrackPointExtension>
            <ns3:hr>93</ns3:hr>
            <ns3:cad>0</ns3:cad>
          </ns3:TrackPointExtension>
        </extensions>
      </trkpt>
      <trkpt lat="38.060165382921695709228515625" lon="-106.93327643908560276031494140625">
        <ele>3524.39990234375</ele>
        <time>2026-05-25T11:55:45.000Z</time>
        <extensions>
          <ns3:TrackPointExtension>
            <ns3:hr>90</ns3:hr>
            <ns3:cad>0</ns3:cad>
          </ns3:TrackPointExtension>
        </extensions>
      </trkpt>
      <trkpt lat="38.060165382921695709228515625" lon="-106.93327643908560276031494140625">
        <ele>3524.60009765625</ele>
        <time>2026-05-25T11:55:46.000Z</time>
        <extensions>
          <ns3:TrackPointExtension>
            <ns3:hr>90</ns3:hr>
            <ns3:cad>0</ns3:cad>
          </ns3:TrackPointExtension>
        </extensions>
      </trkpt>
      <trkpt lat="38.060165382921695709228515625" lon="-106.93327643908560276031494140625">
        <ele>3525</ele>
        <time>2026-05-25T11:55:49.000Z</time>
        <extensions>
          <ns3:TrackPointExtension>
            <ns3:hr>88</ns3:hr>
            <ns3:cad>0</ns3:cad>
          </ns3:TrackPointExtension>
        </extensions>
      </trkpt>
      <trkpt lat="38.060165382921695709228515625" lon="-106.93327643908560276031494140625">
        <ele>3524.60009765625</ele>
        <time>2026-05-25T11:55:54.000Z</time>
        <extensions>
          <ns3:TrackPointExtension>
            <ns3:hr>92</ns3:hr>
            <ns3:cad>0</ns3:cad>
          </ns3:TrackPointExtension>
        </extensions>
      </trkpt>
      <trkpt lat="38.060165382921695709228515625" lon="-106.93327643908560276031494140625">
        <ele>3524.39990234375</ele>
        <time>2026-05-25T11:55:56.000Z</time>
        <extensions>
          <ns3:TrackPointExtension>
            <ns3:hr>95</ns3:hr>
            <ns3:cad>0</ns3:cad>
          </ns3:TrackPointExtension>
        </extensions>
      </trkpt>
      <trkpt lat="38.060165382921695709228515625" lon="-106.93327643908560276031494140625">
        <ele>3524.39990234375</ele>
        <time>2026-05-25T11:56:01.000Z</time>
        <extensions>
          <ns3:TrackPointExtension>
            <ns3:hr>97</ns3:hr>
            <ns3:cad>0</ns3:cad>
          </ns3:TrackPointExtension>
        </extensions>
      </trkpt>
      <trkpt lat="38.06017770431935787200927734375" lon="-106.93326218985021114349365234375">
        <ele>3524.199951171875</ele>
        <time>2026-05-25T11:56:07.000Z</time>
        <extensions>
          <ns3:TrackPointExtension>
            <ns3:hr>96</ns3:hr>
            <ns3:cad>0</ns3:cad>
          </ns3:TrackPointExtension>
        </extensions>
      </trkpt>
      <trkpt lat="38.06017770431935787200927734375" lon="-106.93326218985021114349365234375">
        <ele>3524.60009765625</ele>
        <time>2026-05-25T11:56:13.000Z</time>
        <extensions>
          <ns3:TrackPointExtension>
            <ns3:hr>97</ns3:hr>
            <ns3:cad>0</ns3:cad>
          </ns3:TrackPointExtension>
        </extensions>
      </trkpt>
      <trkpt lat="38.06017770431935787200927734375" lon="-106.93326218985021114349365234375">
        <ele>3524.60009765625</ele>
        <time>2026-05-25T11:56:16.000Z</time>
        <extensions>
          <ns3:TrackPointExtension>
            <ns3:hr>97</ns3:hr>
            <ns3:cad>0</ns3:cad>
          </ns3:TrackPointExtension>
        </extensions>
      </trkpt>
      <trkpt lat="38.06017770431935787200927734375" lon="-106.93326218985021114349365234375">
        <ele>3524.39990234375</ele>
        <time>2026-05-25T11:56:22.000Z</time>
        <extensions>
          <ns3:TrackPointExtension>
            <ns3:hr>97</ns3:hr>
            <ns3:cad>0</ns3:cad>
          </ns3:TrackPointExtension>
        </extensions>
      </trkpt>
      <trkpt lat="38.06018776260316371917724609375" lon="-106.9332550652325153350830078125">
        <ele>3524.39990234375</ele>
        <time>2026-05-25T11:56:25.000Z</time>
        <extensions>
          <ns3:TrackPointExtension>
            <ns3:hr>98</ns3:hr>
            <ns3:cad>61</ns3:cad>
          </ns3:TrackPointExtension>
        </extensions>
      </trkpt>
      <trkpt lat="38.06019044481217861175537109375" lon="-106.93326353095471858978271484375">
        <ele>3524.60009765625</ele>
        <time>2026-05-25T11:56:31.000Z</time>
        <extensions>
          <ns3:TrackPointExtension>
            <ns3:hr>97</ns3:hr>
            <ns3:cad>0</ns3:cad>
          </ns3:TrackPointExtension>
        </extensions>
      </trkpt>
      <trkpt lat="38.060191534459590911865234375" lon="-106.93326420150697231292724609375">
        <ele>3524</ele>
        <time>2026-05-25T11:56:37.000Z</time>
        <extensions>
          <ns3:TrackPointExtension>
            <ns3:hr>96</ns3:hr>
            <ns3:cad>0</ns3:cad>
          </ns3:TrackPointExtension>
        </extensions>
      </trkpt>
      <trkpt lat="38.060191534459590911865234375" lon="-106.93326420150697231292724609375">
        <ele>3524.199951171875</ele>
        <time>2026-05-25T11:56:41.000Z</time>
        <extensions>
          <ns3:TrackPointExtension>
            <ns3:hr>99</ns3:hr>
            <ns3:cad>0</ns3:cad>
          </ns3:TrackPointExtension>
        </extensions>
      </trkpt>
      <trkpt lat="38.060191534459590911865234375" lon="-106.93326420150697231292724609375">
        <ele>3524.39990234375</ele>
        <time>2026-05-25T11:56:47.000Z</time>
        <extensions>
          <ns3:TrackPointExtension>
            <ns3:hr>98</ns3:hr>
            <ns3:cad>0</ns3:cad>
          </ns3:TrackPointExtension>
        </extensions>
      </trkpt>
      <trkpt lat="38.06020888499915599822998046875" lon="-106.93326738663017749786376953125">
        <ele>3524.800048828125</ele>
        <time>2026-05-25T11:56:52.000Z</time>
        <extensions>
          <ns3:TrackPointExtension>
            <ns3:hr>95</ns3:hr>
            <ns3:cad>0</ns3:cad>
          </ns3:TrackPointExtension>
        </extensions>
      </trkpt>
      <trkpt lat="38.06020670570433139801025390625" lon="-106.933244168758392333984375">
        <ele>3524.39990234375</ele>
        <time>2026-05-25T11:56:54.000Z</time>
        <extensions>
          <ns3:TrackPointExtension>
            <ns3:hr>94</ns3:hr>
            <ns3:cad>0</ns3:cad>
          </ns3:TrackPointExtension>
        </extensions>
      </trkpt>
      <trkpt lat="38.06021424941718578338623046875" lon="-106.93317015655338764190673828125">
        <ele>3524.60009765625</ele>
        <time>2026-05-25T11:57:00.000Z</time>
        <extensions>
          <ns3:TrackPointExtension>
            <ns3:hr>90</ns3:hr>
            <ns3:cad>0</ns3:cad>
          </ns3:TrackPointExtension>
        </extensions>
      </trkpt>
      <trkpt lat="38.06021860800683498382568359375" lon="-106.93314953707158565521240234375">
        <ele>3525.39990234375</ele>
        <time>2026-05-25T11:57:02.000Z</time>
        <extensions>
          <ns3:TrackPointExtension>
            <ns3:hr>87</ns3:hr>
            <ns3:cad>0</ns3:cad>
          </ns3:TrackPointExtension>
        </extensions>
      </trkpt>
      <trkpt lat="38.0602228827774524688720703125" lon="-106.933136880397796630859375">
        <ele>3525.800048828125</ele>
        <time>2026-05-25T11:57:03.000Z</time>
        <extensions>
          <ns3:TrackPointExtension>
            <ns3:hr>86</ns3:hr>
            <ns3:cad>0</ns3:cad>
          </ns3:TrackPointExtension>
        </extensions>
      </trkpt>
      <trkpt lat="38.06023067794740200042724609375" lon="-106.933132521808147430419921875">
        <ele>3526.199951171875</ele>
        <time>2026-05-25T11:57:04.000Z</time>
        <extensions>
          <ns3:TrackPointExtension>
            <ns3:hr>86</ns3:hr>
            <ns3:cad>0</ns3:cad>
          </ns3:TrackPointExtension>
        </extensions>
      </trkpt>
      <trkpt lat="38.06025783531367778778076171875" lon="-106.933106370270252227783203125">
        <ele>3527.199951171875</ele>
        <time>2026-05-25T11:57:07.000Z</time>
        <extensions>
          <ns3:TrackPointExtension>
            <ns3:hr>86</ns3:hr>
            <ns3:cad>50</ns3:cad>
          </ns3:TrackPointExtension>
        </extensions>
      </trkpt>
      <trkpt lat="38.06027074344456195831298828125" lon="-106.93307125009596347808837890625">
        <ele>3528.199951171875</ele>
        <time>2026-05-25T11:57:10.000Z</time>
        <extensions>
          <ns3:TrackPointExtension>
            <ns3:hr>88</ns3:hr>
            <ns3:cad>55</ns3:cad>
          </ns3:TrackPointExtension>
        </extensions>
      </trkpt>
      <trkpt lat="38.060269318521022796630859375" lon="-106.9330334477126598358154296875">
        <ele>3529.199951171875</ele>
        <time>2026-05-25T11:57:15.000Z</time>
        <extensions>
          <ns3:TrackPointExtension>
            <ns3:hr>91</ns3:hr>
            <ns3:cad>55</ns3:cad>
          </ns3:TrackPointExtension>
        </extensions>
      </trkpt>
      <trkpt lat="38.06026772595942020416259765625" lon="-106.93302489817142486572265625">
        <ele>3529.39990234375</ele>
        <time>2026-05-25T11:57:16.000Z</time>
        <extensions>
          <ns3:TrackPointExtension>
            <ns3:hr>91</ns3:hr>
            <ns3:cad>0</ns3:cad>
          </ns3:TrackPointExtension>
        </extensions>
      </trkpt>
      <trkpt lat="38.060274012386798858642578125" lon="-106.93300209939479827880859375">
        <ele>3530</ele>
        <time>2026-05-25T11:57:20.000Z</time>
        <extensions>
          <ns3:TrackPointExtension>
            <ns3:hr>94</ns3:hr>
            <ns3:cad>0</ns3:cad>
          </ns3:TrackPointExtension>
        </extensions>
      </trkpt>
      <trkpt lat="38.06028105318546295166015625" lon="-106.9329871796071529388427734375">
        <ele>3530.39990234375</ele>
        <time>2026-05-25T11:57:22.000Z</time>
        <extensions>
          <ns3:TrackPointExtension>
            <ns3:hr>96</ns3:hr>
            <ns3:cad>0</ns3:cad>
          </ns3:TrackPointExtension>
        </extensions>
      </trkpt>
      <trkpt lat="38.06028884835541248321533203125" lon="-106.93296312354505062103271484375">
        <ele>3531.39990234375</ele>
        <time>2026-05-25T11:57:25.000Z</time>
        <extensions>
          <ns3:TrackPointExtension>
            <ns3:hr>99</ns3:hr>
            <ns3:cad>0</ns3:cad>
          </ns3:TrackPointExtension>
        </extensions>
      </trkpt>
      <trkpt lat="38.06028901599347591400146484375" lon="-106.9329627044498920440673828125">
        <ele>3531.60009765625</ele>
        <time>2026-05-25T11:57:26.000Z</time>
        <extensions>
          <ns3:TrackPointExtension>
            <ns3:hr>100</ns3:hr>
            <ns3:cad>0</ns3:cad>
          </ns3:TrackPointExtension>
        </extensions>
      </trkpt>
      <trkpt lat="38.060321621596813201904296875" lon="-106.93292875774204730987548828125">
        <ele>3532.39990234375</ele>
        <time>2026-05-25T11:57:30.000Z</time>
        <extensions>
          <ns3:TrackPointExtension>
            <ns3:hr>100</ns3:hr>
            <ns3:cad>45</ns3:cad>
          </ns3:TrackPointExtension>
        </extensions>
      </trkpt>
      <trkpt lat="38.060333691537380218505859375" lon="-106.9329174421727657318115234375">
        <ele>3532.60009765625</ele>
        <time>2026-05-25T11:57:31.000Z</time>
        <extensions>
          <ns3:TrackPointExtension>
            <ns3:hr>100</ns3:hr>
            <ns3:cad>0</ns3:cad>
          </ns3:TrackPointExtension>
        </extensions>
      </trkpt>
      <trkpt lat="38.0603670515120029449462890625" lon="-106.93288299255073070526123046875">
        <ele>3532.60009765625</ele>
        <time>2026-05-25T11:57:35.000Z</time>
        <extensions>
          <ns3:TrackPointExtension>
            <ns3:hr>102</ns3:hr>
            <ns3:cad>0</ns3:cad>
          </ns3:TrackPointExtension>
        </extensions>
      </trkpt>
      <trkpt lat="38.06040921248495578765869140625" lon="-106.9328190386295318603515625">
        <ele>3532.60009765625</ele>
        <time>2026-05-25T11:57:40.000Z</time>
        <extensions>
          <ns3:TrackPointExtension>
            <ns3:hr>105</ns3:hr>
            <ns3:cad>0</ns3:cad>
          </ns3:TrackPointExtension>
        </extensions>
      </trkpt>
      <trkpt lat="38.06042714975774288177490234375" lon="-106.93278492428362369537353515625">
        <ele>3532.800048828125</ele>
        <time>2026-05-25T11:57:43.000Z</time>
        <extensions>
          <ns3:TrackPointExtension>
            <ns3:hr>109</ns3:hr>
            <ns3:cad>45</ns3:cad>
          </ns3:TrackPointExtension>
        </extensions>
      </trkpt>
      <trkpt lat="38.06044609285891056060791015625" lon="-106.9327461160719394683837890625">
        <ele>3533.39990234375</ele>
        <time>2026-05-25T11:57:47.000Z</time>
        <extensions>
          <ns3:TrackPointExtension>
            <ns3:hr>111</ns3:hr>
            <ns3:cad>54</ns3:cad>
          </ns3:TrackPointExtension>
        </extensions>
      </trkpt>
      <trkpt lat="38.06045162491500377655029296875" lon="-106.93272407166659832000732421875">
        <ele>3534</ele>
        <time>2026-05-25T11:57:49.000Z</time>
        <extensions>
          <ns3:TrackPointExtension>
            <ns3:hr>111</ns3:hr>
            <ns3:cad>0</ns3:cad>
          </ns3:TrackPointExtension>
        </extensions>
      </trkpt>
      <trkpt lat="38.0604894272983074188232421875" lon="-106.93265341222286224365234375">
        <ele>3534.39990234375</ele>
        <time>2026-05-25T11:57:54.000Z</time>
        <extensions>
          <ns3:TrackPointExtension>
            <ns3:hr>112</ns3:hr>
            <ns3:cad>0</ns3:cad>
          </ns3:TrackPointExtension>
        </extensions>
      </trkpt>
      <trkpt lat="38.060513399541378021240234375" lon="-106.9326076470315456390380859375">
        <ele>3535</ele>
        <time>2026-05-25T11:57:59.000Z</time>
        <extensions>
          <ns3:TrackPointExtension>
            <ns3:hr>111</ns3:hr>
            <ns3:cad>0</ns3:cad>
          </ns3:TrackPointExtension>
        </extensions>
      </trkpt>
      <trkpt lat="38.060522787272930145263671875" lon="-106.93256481550633907318115234375">
        <ele>3535</ele>
        <time>2026-05-25T11:58:01.000Z</time>
        <extensions>
          <ns3:TrackPointExtension>
            <ns3:hr>111</ns3:hr>
            <ns3:cad>0</ns3:cad>
          </ns3:TrackPointExtension>
        </extensions>
      </trkpt>
      <trkpt lat="38.0605424009263515472412109375" lon="-106.932502202689647674560546875">
        <ele>3536</ele>
        <time>2026-05-25T11:58:06.000Z</time>
        <extensions>
          <ns3:TrackPointExtension>
            <ns3:hr>112</ns3:hr>
            <ns3:cad>48</ns3:cad>
          </ns3:TrackPointExtension>
        </extensions>
      </trkpt>
      <trkpt lat="38.06055019609630107879638671875" lon="-106.9324450381100177764892578125">
        <ele>3536.800048828125</ele>
        <time>2026-05-25T11:58:10.000Z</time>
        <extensions>
          <ns3:TrackPointExtension>
            <ns3:hr>111</ns3:hr>
            <ns3:cad>0</ns3:cad>
          </ns3:TrackPointExtension>
        </extensions>
      </trkpt>
      <trkpt lat="38.06053276173770427703857421875" lon="-106.93242969922721385955810546875">
        <ele>3537.199951171875</ele>
        <time>2026-05-25T11:58:11.000Z</time>
        <extensions>
          <ns3:TrackPointExtension>
            <ns3:hr>111</ns3:hr>
            <ns3:cad>0</ns3:cad>
          </ns3:TrackPointExtension>
        </extensions>
      </trkpt>
      <trkpt lat="38.060508035123348236083984375" lon="-106.93243036977946758270263671875">
        <ele>3537.60009765625</ele>
        <time>2026-05-25T11:58:13.000Z</time>
        <extensions>
          <ns3:TrackPointExtension>
            <ns3:hr>111</ns3:hr>
            <ns3:cad>0</ns3:cad>
          </ns3:TrackPointExtension>
        </extensions>
      </trkpt>
      <trkpt lat="38.06049671955406665802001953125" lon="-106.93243439309298992156982421875">
        <ele>3537.60009765625</ele>
        <time>2026-05-25T11:58:14.000Z</time>
        <extensions>
          <ns3:TrackPointExtension>
            <ns3:hr>110</ns3:hr>
            <ns3:cad>45</ns3:cad>
          </ns3:TrackPointExtension>
        </extensions>
      </trkpt>
      <trkpt lat="38.06045246310532093048095703125" lon="-106.9324423559010028839111328125">
        <ele>3538.39990234375</ele>
        <time>2026-05-25T11:58:19.000Z</time>
        <extensions>
          <ns3:TrackPointExtension>
            <ns3:hr>112</ns3:hr>
            <ns3:cad>45</ns3:cad>
          </ns3:TrackPointExtension>
        </extensions>
      </trkpt>
      <trkpt lat="38.06042010895907878875732421875" lon="-106.93246155045926570892333984375">
        <ele>3539.39990234375</ele>
        <time>2026-05-25T11:58:23.000Z</time>
        <extensions>
          <ns3:TrackPointExtension>
            <ns3:hr>113</ns3:hr>
            <ns3:cad>0</ns3:cad>
          </ns3:TrackPointExtension>
        </extensions>
      </trkpt>
      <trkpt lat="38.0603875033557415008544921875" lon="-106.9324966706335544586181640625">
        <ele>3539.800048828125</ele>
        <time>2026-05-25T11:58:27.000Z</time>
        <extensions>
          <ns3:TrackPointExtension>
            <ns3:hr>116</ns3:hr>
            <ns3:cad>0</ns3:cad>
          </ns3:TrackPointExtension>
        </extensions>
      </trkpt>
      <trkpt lat="38.060378618538379669189453125" lon="-106.9325027056038379669189453125">
        <ele>3540</ele>
        <time>2026-05-25T11:58:28.000Z</time>
        <extensions>
          <ns3:TrackPointExtension>
            <ns3:hr>117</ns3:hr>
            <ns3:cad>0</ns3:cad>
          </ns3:TrackPointExtension>
        </extensions>
      </trkpt>
      <trkpt lat="38.06033276952803134918212890625" lon="-106.9325291924178600311279296875">
        <ele>3540</ele>
        <time>2026-05-25T11:58:31.000Z</time>
        <extensions>
          <ns3:TrackPointExtension>
            <ns3:hr>120</ns3:hr>
            <ns3:cad>0</ns3:cad>
          </ns3:TrackPointExtension>
        </extensions>
      </trkpt>
      <trkpt lat="38.06031835265457630157470703125" lon="-106.93254168145358562469482421875">
        <ele>3540.39990234375</ele>
        <time>2026-05-25T11:58:33.000Z</time>
        <extensions>
          <ns3:TrackPointExtension>
            <ns3:hr>121</ns3:hr>
            <ns3:cad>0</ns3:cad>
          </ns3:TrackPointExtension>
        </extensions>
      </trkpt>
      <trkpt lat="38.06030494160950183868408203125" lon="-106.93254947662353515625">
        <ele>3540.39990234375</ele>
        <time>2026-05-25T11:58:34.000Z</time>
        <extensions>
          <ns3:TrackPointExtension>
            <ns3:hr>121</ns3:hr>
            <ns3:cad>0</ns3:cad>
          </ns3:TrackPointExtension>
        </extensions>
      </trkpt>
      <trkpt lat="38.0602835677564144134521484375" lon="-106.93257789127528667449951171875">
        <ele>3541.39990234375</ele>
        <time>2026-05-25T11:58:39.000Z</time>
        <extensions>
          <ns3:TrackPointExtension>
            <ns3:hr>122</ns3:hr>
            <ns3:cad>0</ns3:cad>
          </ns3:TrackPointExtension>
        </extensions>
      </trkpt>
      <trkpt lat="38.06025825440883636474609375" lon="-106.93263036198914051055908203125">
        <ele>3541.800048828125</ele>
        <time>2026-05-25T11:58:43.000Z</time>
        <extensions>
          <ns3:TrackPointExtension>
            <ns3:hr>125</ns3:hr>
            <ns3:cad>49</ns3:cad>
          </ns3:TrackPointExtension>
        </extensions>
      </trkpt>
      <trkpt lat="38.0602423287928104400634765625" lon="-106.93264628760516643524169921875">
        <ele>3541.800048828125</ele>
        <time>2026-05-25T11:58:45.000Z</time>
        <extensions>
          <ns3:TrackPointExtension>
            <ns3:hr>127</ns3:hr>
            <ns3:cad>0</ns3:cad>
          </ns3:TrackPointExtension>
        </extensions>
      </trkpt>
      <trkpt lat="38.060199916362762451171875" lon="-106.93269959650933742523193359375">
        <ele>3541.60009765625</ele>
        <time>2026-05-25T11:58:50.000Z</time>
        <extensions>
          <ns3:TrackPointExtension>
            <ns3:hr>128</ns3:hr>
            <ns3:cad>0</ns3:cad>
          </ns3:TrackPointExtension>
        </extensions>
      </trkpt>
      <trkpt lat="38.0601917020976543426513671875" lon="-106.9327001832425594329833984375">
        <ele>3541.800048828125</ele>
        <time>2026-05-25T11:58:51.000Z</time>
        <extensions>
          <ns3:TrackPointExtension>
            <ns3:hr>128</ns3:hr>
            <ns3:cad>0</ns3:cad>
          </ns3:TrackPointExtension>
        </extensions>
      </trkpt>
      <trkpt lat="38.060185499489307403564453125" lon="-106.9327011890709400177001953125">
        <ele>3542.199951171875</ele>
        <time>2026-05-25T11:58:53.000Z</time>
        <extensions>
          <ns3:TrackPointExtension>
            <ns3:hr>128</ns3:hr>
            <ns3:cad>0</ns3:cad>
          </ns3:TrackPointExtension>
        </extensions>
      </trkpt>
      <trkpt lat="38.06018021889030933380126953125" lon="-106.93269523791968822479248046875">
        <ele>3542.800048828125</ele>
        <time>2026-05-25T11:58:56.000Z</time>
        <extensions>
          <ns3:TrackPointExtension>
            <ns3:hr>127</ns3:hr>
            <ns3:cad>0</ns3:cad>
          </ns3:TrackPointExtension>
        </extensions>
      </trkpt>
      <trkpt lat="38.06019413284957408905029296875" lon="-106.93267646245658397674560546875">
        <ele>3543.199951171875</ele>
        <time>2026-05-25T11:58:58.000Z</time>
        <extensions>
          <ns3:TrackPointExtension>
            <ns3:hr>128</ns3:hr>
            <ns3:cad>43</ns3:cad>
          </ns3:TrackPointExtension>
        </extensions>
      </trkpt>
      <trkpt lat="38.0602007545530796051025390625" lon="-106.93266305141150951385498046875">
        <ele>3543.39990234375</ele>
        <time>2026-05-25T11:58:59.000Z</time>
        <extensions>
          <ns3:TrackPointExtension>
            <ns3:hr>127</ns3:hr>
            <ns3:cad>43</ns3:cad>
          </ns3:TrackPointExtension>
        </extensions>
      </trkpt>
      <trkpt lat="38.06023201905190944671630859375" lon="-106.9325774721801280975341796875">
        <ele>3543.199951171875</ele>
        <time>2026-05-25T11:59:05.000Z</time>
        <extensions>
          <ns3:TrackPointExtension>
            <ns3:hr>126</ns3:hr>
            <ns3:cad>0</ns3:cad>
          </ns3:TrackPointExtension>
        </extensions>
      </trkpt>
      <trkpt lat="38.060253560543060302734375" lon="-106.93253112025558948516845703125">
        <ele>3543.800048828125</ele>
        <time>2026-05-25T11:59:09.000Z</time>
        <extensions>
          <ns3:TrackPointExtension>
            <ns3:hr>123</ns3:hr>
            <ns3:cad>49</ns3:cad>
          </ns3:TrackPointExtension>
        </extensions>
      </trkpt>
      <trkpt lat="38.0602575838565826416015625" lon="-106.93250723183155059814453125">
        <ele>3544.199951171875</ele>
        <time>2026-05-25T11:59:11.000Z</time>
        <extensions>
          <ns3:TrackPointExtension>
            <ns3:hr>123</ns3:hr>
            <ns3:cad>49</ns3:cad>
          </ns3:TrackPointExtension>
        </extensions>
      </trkpt>
      <trkpt lat="38.06025800295174121856689453125" lon="-106.932498179376125335693359375">
        <ele>3544.39990234375</ele>
        <time>2026-05-25T11:59:13.000Z</time>
        <extensions>
          <ns3:TrackPointExtension>
            <ns3:hr>122</ns3:hr>
            <ns3:cad>49</ns3:cad>
          </ns3:TrackPointExtension>
        </extensions>
      </trkpt>
      <trkpt lat="38.06026906706392765045166015625" lon="-106.9324561022222042083740234375">
        <ele>3544.199951171875</ele>
        <time>2026-05-25T11:59:15.000Z</time>
        <extensions>
          <ns3:TrackPointExtension>
            <ns3:hr>119</ns3:hr>
            <ns3:cad>50</ns3:cad>
          </ns3:TrackPointExtension>
        </extensions>
      </trkpt>
      <trkpt lat="38.06027677841484546661376953125" lon="-106.93243087269365787506103515625">
        <ele>3544.39990234375</ele>
        <time>2026-05-25T11:59:17.000Z</time>
        <extensions>
          <ns3:TrackPointExtension>
            <ns3:hr>116</ns3:hr>
            <ns3:cad>47</ns3:cad>
          </ns3:TrackPointExtension>
        </extensions>
      </trkpt>
      <trkpt lat="38.060286082327365875244140625" lon="-106.93240488879382610321044921875">
        <ele>3545</ele>
        <time>2026-05-25T11:59:19.000Z</time>
        <extensions>
          <ns3:TrackPointExtension>
            <ns3:hr>112</ns3:hr>
            <ns3:cad>50</ns3:cad>
          </ns3:TrackPointExtension>
        </extensions>
      </trkpt>
      <trkpt lat="38.060293458402156829833984375" lon="-106.93237245082855224609375">
        <ele>3545.60009765625</ele>
        <time>2026-05-25T11:59:22.000Z</time>
        <extensions>
          <ns3:TrackPointExtension>
            <ns3:hr>113</ns3:hr>
            <ns3:cad>50</ns3:cad>
          </ns3:TrackPointExtension>
        </extensions>
      </trkpt>
      <trkpt lat="38.06030921638011932373046875" lon="-106.93228854797780513763427734375">
        <ele>3546</ele>
        <time>2026-05-25T11:59:28.000Z</time>
        <extensions>
          <ns3:TrackPointExtension>
            <ns3:hr>112</ns3:hr>
            <ns3:cad>0</ns3:cad>
          </ns3:TrackPointExtension>
        </extensions>
      </trkpt>
      <trkpt lat="38.06031784974038600921630859375" lon="-106.93226876668632030487060546875">
        <ele>3546.199951171875</ele>
        <time>2026-05-25T11:59:31.000Z</time>
        <extensions>
          <ns3:TrackPointExtension>
            <ns3:hr>109</ns3:hr>
            <ns3:cad>0</ns3:cad>
          </ns3:TrackPointExtension>
        </extensions>
      </trkpt>
      <trkpt lat="38.0603284947574138641357421875" lon="-106.9322106800973415374755859375">
        <ele>3546.60009765625</ele>
        <time>2026-05-25T11:59:35.000Z</time>
        <extensions>
          <ns3:TrackPointExtension>
            <ns3:hr>107</ns3:hr>
            <ns3:cad>0</ns3:cad>
          </ns3:TrackPointExtension>
        </extensions>
      </trkpt>
      <trkpt lat="38.06031131185591220855712890625" lon="-106.93219584412872791290283203125">
        <ele>3546.60009765625</ele>
        <time>2026-05-25T11:59:36.000Z</time>
        <extensions>
          <ns3:TrackPointExtension>
            <ns3:hr>106</ns3:hr>
            <ns3:cad>0</ns3:cad>
          </ns3:TrackPointExtension>
        </extensions>
      </trkpt>
      <trkpt lat="38.060282059013843536376953125" lon="-106.93219684995710849761962890625">
        <ele>3547.60009765625</ele>
        <time>2026-05-25T11:59:40.000Z</time>
        <extensions>
          <ns3:TrackPointExtension>
            <ns3:hr>103</ns3:hr>
            <ns3:cad>0</ns3:cad>
          </ns3:TrackPointExtension>
        </extensions>
      </trkpt>
      <trkpt lat="38.06027074344456195831298828125" lon="-106.93220204673707485198974609375">
        <ele>3547.60009765625</ele>
        <time>2026-05-25T11:59:42.000Z</time>
        <extensions>
          <ns3:TrackPointExtension>
            <ns3:hr>103</ns3:hr>
            <ns3:cad>0</ns3:cad>
          </ns3:TrackPointExtension>
        </extensions>
      </trkpt>
      <trkpt lat="38.06024207733571529388427734375" lon="-106.9322126917541027069091796875">
        <ele>3547.800048828125</ele>
        <time>2026-05-25T11:59:45.000Z</time>
        <extensions>
          <ns3:TrackPointExtension>
            <ns3:hr>104</ns3:hr>
            <ns3:cad>0</ns3:cad>
          </ns3:TrackPointExtension>
        </extensions>
      </trkpt>
      <trkpt lat="38.0602004192769527435302734375" lon="-106.932227276265621185302734375">
        <ele>3548.60009765625</ele>
        <time>2026-05-25T11:59:49.000Z</time>
        <extensions>
          <ns3:TrackPointExtension>
            <ns3:hr>105</ns3:hr>
            <ns3:cad>0</ns3:cad>
          </ns3:TrackPointExtension>
        </extensions>
      </trkpt>
      <trkpt lat="38.0601849965751171112060546875" lon="-106.93223842419683933258056640625">
        <ele>3549</ele>
        <time>2026-05-25T11:59:51.000Z</time>
        <extensions>
          <ns3:TrackPointExtension>
            <ns3:hr>106</ns3:hr>
            <ns3:cad>0</ns3:cad>
          </ns3:TrackPointExtension>
        </extensions>
      </trkpt>
      <trkpt lat="38.0601786263287067413330078125" lon="-106.932246722280979156494140625">
        <ele>3549.199951171875</ele>
        <time>2026-05-25T11:59:53.000Z</time>
        <extensions>
          <ns3:TrackPointExtension>
            <ns3:hr>110</ns3:hr>
            <ns3:cad>0</ns3:cad>
          </ns3:TrackPointExtension>
        </extensions>
      </trkpt>
      <trkpt lat="38.06013713590800762176513671875" lon="-106.932273544371128082275390625">
        <ele>3548.800048828125</ele>
        <time>2026-05-25T11:59:57.000Z</time>
        <extensions>
          <ns3:TrackPointExtension>
            <ns3:hr>111</ns3:hr>
            <ns3:cad>0</ns3:cad>
          </ns3:TrackPointExtension>
        </extensions>
      </trkpt>
      <trkpt lat="38.0601011775434017181396484375" lon="-106.9322825968265533447265625">
        <ele>3549.199951171875</ele>
        <time>2026-05-25T12:00:03.000Z</time>
        <extensions>
          <ns3:TrackPointExtension>
            <ns3:hr>111</ns3:hr>
            <ns3:cad>0</ns3:cad>
          </ns3:TrackPointExtension>
        </extensions>
      </trkpt>
      <trkpt lat="38.0600810609757900238037109375" lon="-106.93228553049266338348388671875">
        <ele>3550</ele>
        <time>2026-05-25T12:00:06.000Z</time>
        <extensions>
          <ns3:TrackPointExtension>
            <ns3:hr>110</ns3:hr>
            <ns3:cad>17</ns3:cad>
          </ns3:TrackPointExtension>
        </extensions>
      </trkpt>
      <trkpt lat="38.0600679852068424224853515625" lon="-106.93229575641453266143798828125">
        <ele>3550.39990234375</ele>
        <time>2026-05-25T12:00:08.000Z</time>
        <extensions>
          <ns3:TrackPointExtension>
            <ns3:hr>111</ns3:hr>
            <ns3:cad>0</ns3:cad>
          </ns3:TrackPointExtension>
        </extensions>
      </trkpt>
      <trkpt lat="38.06004376150667667388916015625" lon="-106.932301037013530731201171875">
        <ele>3551</ele>
        <time>2026-05-25T12:00:12.000Z</time>
        <extensions>
          <ns3:TrackPointExtension>
            <ns3:hr>110</ns3:hr>
            <ns3:cad>0</ns3:cad>
          </ns3:TrackPointExtension>
        </extensions>
      </trkpt>
      <trkpt lat="38.06002230383455753326416015625" lon="-106.932311765849590301513671875">
        <ele>3551.39990234375</ele>
        <time>2026-05-25T12:00:16.000Z</time>
        <extensions>
          <ns3:TrackPointExtension>
            <ns3:hr>109</ns3:hr>
            <ns3:cad>0</ns3:cad>
          </ns3:TrackPointExtension>
        </extensions>
      </trkpt>
      <trkpt lat="38.05999414063990116119384765625" lon="-106.93233548663556575775146484375">
        <ele>3552</ele>
        <time>2026-05-25T12:00:21.000Z</time>
        <extensions>
          <ns3:TrackPointExtension>
            <ns3:hr>112</ns3:hr>
            <ns3:cad>0</ns3:cad>
          </ns3:TrackPointExtension>
        </extensions>
      </trkpt>
      <trkpt lat="38.05994854308664798736572265625" lon="-106.9323457963764667510986328125">
        <ele>3552.60009765625</ele>
        <time>2026-05-25T12:00:25.000Z</time>
        <extensions>
          <ns3:TrackPointExtension>
            <ns3:hr>112</ns3:hr>
            <ns3:cad>0</ns3:cad>
          </ns3:TrackPointExtension>
        </extensions>
      </trkpt>
      <trkpt lat="38.05991618894040584564208984375" lon="-106.9323820061981678009033203125">
        <ele>3553</ele>
        <time>2026-05-25T12:00:29.000Z</time>
        <extensions>
          <ns3:TrackPointExtension>
            <ns3:hr>113</ns3:hr>
            <ns3:cad>0</ns3:cad>
          </ns3:TrackPointExtension>
        </extensions>
      </trkpt>
      <trkpt lat="38.05986857973039150238037109375" lon="-106.932450234889984130859375">
        <ele>3553</ele>
        <time>2026-05-25T12:00:35.000Z</time>
        <extensions>
          <ns3:TrackPointExtension>
            <ns3:hr>114</ns3:hr>
            <ns3:cad>0</ns3:cad>
          </ns3:TrackPointExtension>
        </extensions>
      </trkpt>
      <trkpt lat="38.0598607845604419708251953125" lon="-106.932453922927379608154296875">
        <ele>3553</ele>
        <time>2026-05-25T12:00:36.000Z</time>
        <extensions>
          <ns3:TrackPointExtension>
            <ns3:hr>117</ns3:hr>
            <ns3:cad>0</ns3:cad>
          </ns3:TrackPointExtension>
        </extensions>
      </trkpt>
      <trkpt lat="38.05985055863857269287109375" lon="-106.9324591197073459625244140625">
        <ele>3553.199951171875</ele>
        <time>2026-05-25T12:00:38.000Z</time>
        <extensions>
          <ns3:TrackPointExtension>
            <ns3:hr>121</ns3:hr>
            <ns3:cad>0</ns3:cad>
          </ns3:TrackPointExtension>
        </extensions>
      </trkpt>
      <trkpt lat="38.05982516147196292877197265625" lon="-106.9324799068272113800048828125">
        <ele>3553.39990234375</ele>
        <time>2026-05-25T12:00:40.000Z</time>
        <extensions>
          <ns3:TrackPointExtension>
            <ns3:hr>124</ns3:hr>
            <ns3:cad>0</ns3:cad>
          </ns3:TrackPointExtension>
        </extensions>
      </trkpt>
      <trkpt lat="38.05980630218982696533203125" lon="-106.9324918091297149658203125">
        <ele>3553.39990234375</ele>
        <time>2026-05-25T12:00:42.000Z</time>
        <extensions>
          <ns3:TrackPointExtension>
            <ns3:hr>124</ns3:hr>
            <ns3:cad>0</ns3:cad>
          </ns3:TrackPointExtension>
        </extensions>
      </trkpt>
      <trkpt lat="38.05980169214308261871337890625" lon="-106.93249558098614215850830078125">
        <ele>3553.60009765625</ele>
        <time>2026-05-25T12:00:43.000Z</time>
        <extensions>
          <ns3:TrackPointExtension>
            <ns3:hr>123</ns3:hr>
            <ns3:cad>0</ns3:cad>
          </ns3:TrackPointExtension>
        </extensions>
      </trkpt>
      <trkpt lat="38.05975508876144886016845703125" lon="-106.93250865675508975982666015625">
        <ele>3553.800048828125</ele>
        <time>2026-05-25T12:00:48.000Z</time>
        <extensions>
          <ns3:TrackPointExtension>
            <ns3:hr>123</ns3:hr>
            <ns3:cad>0</ns3:cad>
          </ns3:TrackPointExtension>
        </extensions>
      </trkpt>
      <trkpt lat="38.0597216449677944183349609375" lon="-106.93254201672971248626708984375">
        <ele>3554.60009765625</ele>
        <time>2026-05-25T12:00:53.000Z</time>
        <extensions>
          <ns3:TrackPointExtension>
            <ns3:hr>120</ns3:hr>
            <ns3:cad>0</ns3:cad>
          </ns3:TrackPointExtension>
        </extensions>
      </trkpt>
      <trkpt lat="38.05970328859984874725341796875" lon="-106.93255173973739147186279296875">
        <ele>3554.800048828125</ele>
        <time>2026-05-25T12:00:55.000Z</time>
        <extensions>
          <ns3:TrackPointExtension>
            <ns3:hr>119</ns3:hr>
            <ns3:cad>0</ns3:cad>
          </ns3:TrackPointExtension>
        </extensions>
      </trkpt>
      <trkpt lat="38.05966003797948360443115234375" lon="-106.932600438594818115234375">
        <ele>3555.39990234375</ele>
        <time>2026-05-25T12:01:01.000Z</time>
        <extensions>
          <ns3:TrackPointExtension>
            <ns3:hr>118</ns3:hr>
            <ns3:cad>0</ns3:cad>
          </ns3:TrackPointExtension>
        </extensions>
      </trkpt>
      <trkpt lat="38.05965073406696319580078125" lon="-106.93261125124990940093994140625">
        <ele>3555.39990234375</ele>
        <time>2026-05-25T12:01:02.000Z</time>
        <extensions>
          <ns3:TrackPointExtension>
            <ns3:hr>118</ns3:hr>
            <ns3:cad>0</ns3:cad>
          </ns3:TrackPointExtension>
        </extensions>
      </trkpt>
      <trkpt lat="38.059584684669971466064453125" lon="-106.93264176137745380401611328125">
        <ele>3555.800048828125</ele>
        <time>2026-05-25T12:01:08.000Z</time>
        <extensions>
          <ns3:TrackPointExtension>
            <ns3:hr>119</ns3:hr>
            <ns3:cad>0</ns3:cad>
          </ns3:TrackPointExtension>
        </extensions>
      </trkpt>
      <trkpt lat="38.05955358780920505523681640625" lon="-106.93263170309364795684814453125">
        <ele>3556.60009765625</ele>
        <time>2026-05-25T12:01:13.000Z</time>
        <extensions>
          <ns3:TrackPointExtension>
            <ns3:hr>121</ns3:hr>
            <ns3:cad>0</ns3:cad>
          </ns3:TrackPointExtension>
        </extensions>
      </trkpt>
      <trkpt lat="38.0595637299120426177978515625" lon="-106.9326245784759521484375">
        <ele>3556.60009765625</ele>
        <time>2026-05-25T12:01:14.000Z</time>
        <extensions>
          <ns3:TrackPointExtension>
            <ns3:hr>121</ns3:hr>
            <ns3:cad>0</ns3:cad>
          </ns3:TrackPointExtension>
        </extensions>
      </trkpt>
      <trkpt lat="38.05957303382456302642822265625" lon="-106.93260806612670421600341796875">
        <ele>3556.60009765625</ele>
        <time>2026-05-25T12:01:16.000Z</time>
        <extensions>
          <ns3:TrackPointExtension>
            <ns3:hr>121</ns3:hr>
            <ns3:cad>0</ns3:cad>
          </ns3:TrackPointExtension>
        </extensions>
      </trkpt>
      <trkpt lat="38.05958258919417858123779296875" lon="-106.9325845129787921905517578125">
        <ele>3556.800048828125</ele>
        <time>2026-05-25T12:01:18.000Z</time>
        <extensions>
          <ns3:TrackPointExtension>
            <ns3:hr>122</ns3:hr>
            <ns3:cad>0</ns3:cad>
          </ns3:TrackPointExtension>
        </extensions>
      </trkpt>
      <trkpt lat="38.0595851875841617584228515625" lon="-106.93256481550633907318115234375">
        <ele>3557.39990234375</ele>
        <time>2026-05-25T12:01:21.000Z</time>
        <extensions>
          <ns3:TrackPointExtension>
            <ns3:hr>123</ns3:hr>
            <ns3:cad>0</ns3:cad>
          </ns3:TrackPointExtension>
        </extensions>
      </trkpt>
      <trkpt lat="38.05961318314075469970703125" lon="-106.93251284770667552947998046875">
        <ele>3557.800048828125</ele>
        <time>2026-05-25T12:01:25.000Z</time>
        <extensions>
          <ns3:TrackPointExtension>
            <ns3:hr>122</ns3:hr>
            <ns3:cad>0</ns3:cad>
          </ns3:TrackPointExtension>
        </extensions>
      </trkpt>
      <trkpt lat="38.0596260912716388702392578125" lon="-106.932488121092319488525390625">
        <ele>3557.800048828125</ele>
        <time>2026-05-25T12:01:27.000Z</time>
        <extensions>
          <ns3:TrackPointExtension>
            <ns3:hr>122</ns3:hr>
            <ns3:cad>0</ns3:cad>
          </ns3:TrackPointExtension>
        </extensions>
      </trkpt>
      <trkpt lat="38.05963086895644664764404296875" lon="-106.93246087990701198577880859375">
        <ele>3558</ele>
        <time>2026-05-25T12:01:30.000Z</time>
        <extensions>
          <ns3:TrackPointExtension>
            <ns3:hr>120</ns3:hr>
            <ns3:cad>0</ns3:cad>
          </ns3:TrackPointExtension>
        </extensions>
      </trkpt>
      <trkpt lat="38.05961762554943561553955078125" lon="-106.93245249800384044647216796875">
        <ele>3557.800048828125</ele>
        <time>2026-05-25T12:01:32.000Z</time>
        <extensions>
          <ns3:TrackPointExtension>
            <ns3:hr>120</ns3:hr>
            <ns3:cad>0</ns3:cad>
          </ns3:TrackPointExtension>
        </extensions>
      </trkpt>
      <trkpt lat="38.0596156977117061614990234375" lon="-106.93244545720517635345458984375">
        <ele>3557.800048828125</ele>
        <time>2026-05-25T12:01:33.000Z</time>
        <extensions>
          <ns3:TrackPointExtension>
            <ns3:hr>121</ns3:hr>
            <ns3:cad>0</ns3:cad>
          </ns3:TrackPointExtension>
        </extensions>
      </trkpt>
      <trkpt lat="38.0596307851374149322509765625" lon="-106.93239667452871799468994140625">
        <ele>3558.800048828125</ele>
        <time>2026-05-25T12:01:38.000Z</time>
        <extensions>
          <ns3:TrackPointExtension>
            <ns3:hr>121</ns3:hr>
            <ns3:cad>44</ns3:cad>
          </ns3:TrackPointExtension>
        </extensions>
      </trkpt>
      <trkpt lat="38.0596338026225566864013671875" lon="-106.93238577805459499359130859375">
        <ele>3559</ele>
        <time>2026-05-25T12:01:40.000Z</time>
        <extensions>
          <ns3:TrackPointExtension>
            <ns3:hr>122</ns3:hr>
            <ns3:cad>0</ns3:cad>
          </ns3:TrackPointExtension>
        </extensions>
      </trkpt>
      <trkpt lat="38.05962014012038707733154296875" lon="-106.932328529655933380126953125">
        <ele>3559.199951171875</ele>
        <time>2026-05-25T12:01:43.000Z</time>
        <extensions>
          <ns3:TrackPointExtension>
            <ns3:hr>122</ns3:hr>
            <ns3:cad>0</ns3:cad>
          </ns3:TrackPointExtension>
        </extensions>
      </trkpt>
      <trkpt lat="38.05960387922823429107666015625" lon="-106.9323065690696239471435546875">
        <ele>3559.199951171875</ele>
        <time>2026-05-25T12:01:46.000Z</time>
        <extensions>
          <ns3:TrackPointExtension>
            <ns3:hr>121</ns3:hr>
            <ns3:cad>0</ns3:cad>
          </ns3:TrackPointExtension>
        </extensions>
      </trkpt>
      <trkpt lat="38.0595838464796543121337890625" lon="-106.9323126040399074554443359375">
        <ele>3559.39990234375</ele>
        <time>2026-05-25T12:01:47.000Z</time>
        <extensions>
          <ns3:TrackPointExtension>
            <ns3:hr>122</ns3:hr>
            <ns3:cad>0</ns3:cad>
          </ns3:TrackPointExtension>
        </extensions>
      </trkpt>
      <trkpt lat="38.05954218842089176177978515625" lon="-106.9323250092566013336181640625">
        <ele>3559.800048828125</ele>
        <time>2026-05-25T12:01:51.000Z</time>
        <extensions>
          <ns3:TrackPointExtension>
            <ns3:hr>121</ns3:hr>
            <ns3:cad>0</ns3:cad>
          </ns3:TrackPointExtension>
        </extensions>
      </trkpt>
      <trkpt lat="38.05954218842089176177978515625" lon="-106.9323250092566013336181640625">
        <ele>3560.199951171875</ele>
        <time>2026-05-25T12:01:52.000Z</time>
        <extensions>
          <ns3:TrackPointExtension>
            <ns3:hr>122</ns3:hr>
            <ns3:cad>0</ns3:cad>
          </ns3:TrackPointExtension>
        </extensions>
      </trkpt>
      <trkpt lat="38.0595038831233978271484375" lon="-106.93234386853873729705810546875">
        <ele>3561.199951171875</ele>
        <time>2026-05-25T12:01:56.000Z</time>
        <extensions>
          <ns3:TrackPointExtension>
            <ns3:hr>122</ns3:hr>
            <ns3:cad>0</ns3:cad>
          </ns3:TrackPointExtension>
        </extensions>
      </trkpt>
      <trkpt lat="38.05949122644960880279541015625" lon="-106.93234621547162532806396484375">
        <ele>3561.39990234375</ele>
        <time>2026-05-25T12:01:58.000Z</time>
        <extensions>
          <ns3:TrackPointExtension>
            <ns3:hr>122</ns3:hr>
            <ns3:cad>0</ns3:cad>
          </ns3:TrackPointExtension>
        </extensions>
      </trkpt>
      <trkpt lat="38.0594448745250701904296875" lon="-106.93235795013606548309326171875">
        <ele>3562.39990234375</ele>
        <time>2026-05-25T12:02:01.000Z</time>
        <extensions>
          <ns3:TrackPointExtension>
            <ns3:hr>124</ns3:hr>
            <ns3:cad>0</ns3:cad>
          </ns3:TrackPointExtension>
        </extensions>
      </trkpt>
      <trkpt lat="38.05943188257515430450439453125" lon="-106.93236063234508037567138671875">
        <ele>3562.39990234375</ele>
        <time>2026-05-25T12:02:03.000Z</time>
        <extensions>
          <ns3:TrackPointExtension>
            <ns3:hr>124</ns3:hr>
            <ns3:cad>0</ns3:cad>
          </ns3:TrackPointExtension>
        </extensions>
      </trkpt>
      <trkpt lat="38.05935896001756191253662109375" lon="-106.93238292820751667022705078125">
        <ele>3562.199951171875</ele>
        <time>2026-05-25T12:02:09.000Z</time>
        <extensions>
          <ns3:TrackPointExtension>
            <ns3:hr>124</ns3:hr>
            <ns3:cad>0</ns3:cad>
          </ns3:TrackPointExtension>
        </extensions>
      </trkpt>
      <trkpt lat="38.05934722535312175750732421875" lon="-106.93241109140217304229736328125">
        <ele>3562.800048828125</ele>
        <time>2026-05-25T12:02:12.000Z</time>
        <extensions>
          <ns3:TrackPointExtension>
            <ns3:hr>123</ns3:hr>
            <ns3:cad>0</ns3:cad>
          </ns3:TrackPointExtension>
        </extensions>
      </trkpt>
      <trkpt lat="38.0593330599367618560791015625" lon="-106.93242081440985202789306640625">
        <ele>3563.199951171875</ele>
        <time>2026-05-25T12:02:14.000Z</time>
        <extensions>
          <ns3:TrackPointExtension>
            <ns3:hr>123</ns3:hr>
            <ns3:cad>0</ns3:cad>
          </ns3:TrackPointExtension>
        </extensions>
      </trkpt>
      <trkpt lat="38.0593330599367618560791015625" lon="-106.93242081440985202789306640625">
        <ele>3563.39990234375</ele>
        <time>2026-05-25T12:02:15.000Z</time>
        <extensions>
          <ns3:TrackPointExtension>
            <ns3:hr>123</ns3:hr>
            <ns3:cad>0</ns3:cad>
          </ns3:TrackPointExtension>
        </extensions>
      </trkpt>
      <trkpt lat="38.05931948125362396240234375" lon="-106.93240857683122158050537109375">
        <ele>3563.60009765625</ele>
        <time>2026-05-25T12:02:16.000Z</time>
        <extensions>
          <ns3:TrackPointExtension>
            <ns3:hr>123</ns3:hr>
            <ns3:cad>43</ns3:cad>
          </ns3:TrackPointExtension>
        </extensions>
      </trkpt>
      <trkpt lat="38.0593062378466129302978515625" lon="-106.93238896317780017852783203125">
        <ele>3563.800048828125</ele>
        <time>2026-05-25T12:02:20.000Z</time>
        <extensions>
          <ns3:TrackPointExtension>
            <ns3:hr>126</ns3:hr>
            <ns3:cad>0</ns3:cad>
          </ns3:TrackPointExtension>
        </extensions>
      </trkpt>
      <trkpt lat="38.05930196307599544525146484375" lon="-106.93237052299082279205322265625">
        <ele>3563.800048828125</ele>
        <time>2026-05-25T12:02:21.000Z</time>
        <extensions>
          <ns3:TrackPointExtension>
            <ns3:hr>127</ns3:hr>
            <ns3:cad>0</ns3:cad>
          </ns3:TrackPointExtension>
        </extensions>
      </trkpt>
      <trkpt lat="38.05928327143192291259765625" lon="-106.932313442230224609375">
        <ele>3564.39990234375</ele>
        <time>2026-05-25T12:02:27.000Z</time>
        <extensions>
          <ns3:TrackPointExtension>
            <ns3:hr>128</ns3:hr>
            <ns3:cad>0</ns3:cad>
          </ns3:TrackPointExtension>
        </extensions>
      </trkpt>
      <trkpt lat="38.0592767335474491119384765625" lon="-106.93229491822421550750732421875">
        <ele>3564.60009765625</ele>
        <time>2026-05-25T12:02:28.000Z</time>
        <extensions>
          <ns3:TrackPointExtension>
            <ns3:hr>128</ns3:hr>
            <ns3:cad>0</ns3:cad>
          </ns3:TrackPointExtension>
        </extensions>
      </trkpt>
      <trkpt lat="38.05927195586264133453369140625" lon="-106.93224781192839145660400390625">
        <ele>3565.199951171875</ele>
        <time>2026-05-25T12:02:33.000Z</time>
        <extensions>
          <ns3:TrackPointExtension>
            <ns3:hr>129</ns3:hr>
            <ns3:cad>0</ns3:cad>
          </ns3:TrackPointExtension>
        </extensions>
      </trkpt>
      <trkpt lat="38.05927011184394359588623046875" lon="-106.9321613945066928863525390625">
        <ele>3565.199951171875</ele>
        <time>2026-05-25T12:02:39.000Z</time>
        <extensions>
          <ns3:TrackPointExtension>
            <ns3:hr>129</ns3:hr>
            <ns3:cad>0</ns3:cad>
          </ns3:TrackPointExtension>
        </extensions>
      </trkpt>
      <trkpt lat="38.05927388370037078857421875" lon="-106.93214605562388896942138671875">
        <ele>3564.800048828125</ele>
        <time>2026-05-25T12:02:45.000Z</time>
        <extensions>
          <ns3:TrackPointExtension>
            <ns3:hr>129</ns3:hr>
            <ns3:cad>0</ns3:cad>
          </ns3:TrackPointExtension>
        </extensions>
      </trkpt>
      <trkpt lat="38.05925644934177398681640625" lon="-106.93206659518182277679443359375">
        <ele>3564.800048828125</ele>
        <time>2026-05-25T12:02:51.000Z</time>
        <extensions>
          <ns3:TrackPointExtension>
            <ns3:hr>128</ns3:hr>
            <ns3:cad>0</ns3:cad>
          </ns3:TrackPointExtension>
        </extensions>
      </trkpt>
      <trkpt lat="38.0592455528676509857177734375" lon="-106.93205368705093860626220703125">
        <ele>3565.199951171875</ele>
        <time>2026-05-25T12:02:52.000Z</time>
        <extensions>
          <ns3:TrackPointExtension>
            <ns3:hr>127</ns3:hr>
            <ns3:cad>49</ns3:cad>
          </ns3:TrackPointExtension>
        </extensions>
      </trkpt>
      <trkpt lat="38.05923742242157459259033203125" lon="-106.93204966373741626739501953125">
        <ele>3565.800048828125</ele>
        <time>2026-05-25T12:02:54.000Z</time>
        <extensions>
          <ns3:TrackPointExtension>
            <ns3:hr>127</ns3:hr>
            <ns3:cad>0</ns3:cad>
          </ns3:TrackPointExtension>
        </extensions>
      </trkpt>
      <trkpt lat="38.0592063255608081817626953125" lon="-106.9320440478622913360595703125">
        <ele>3566.800048828125</ele>
        <time>2026-05-25T12:02:56.000Z</time>
        <extensions>
          <ns3:TrackPointExtension>
            <ns3:hr>127</ns3:hr>
            <ns3:cad>0</ns3:cad>
          </ns3:TrackPointExtension>
        </extensions>
      </trkpt>
      <trkpt lat="38.0591969378292560577392578125" lon="-106.93204781971871852874755859375">
        <ele>3567.39990234375</ele>
        <time>2026-05-25T12:02:58.000Z</time>
        <extensions>
          <ns3:TrackPointExtension>
            <ns3:hr>124</ns3:hr>
            <ns3:cad>0</ns3:cad>
          </ns3:TrackPointExtension>
        </extensions>
      </trkpt>
      <trkpt lat="38.05917791090905666351318359375" lon="-106.93205385468900203704833984375">
        <ele>3567.800048828125</ele>
        <time>2026-05-25T12:03:00.000Z</time>
        <extensions>
          <ns3:TrackPointExtension>
            <ns3:hr>123</ns3:hr>
            <ns3:cad>0</ns3:cad>
          </ns3:TrackPointExtension>
        </extensions>
      </trkpt>
      <trkpt lat="38.0591567046940326690673828125" lon="-106.93207682110369205474853515625">
        <ele>3568.199951171875</ele>
        <time>2026-05-25T12:03:02.000Z</time>
        <extensions>
          <ns3:TrackPointExtension>
            <ns3:hr>121</ns3:hr>
            <ns3:cad>0</ns3:cad>
          </ns3:TrackPointExtension>
        </extensions>
      </trkpt>
      <trkpt lat="38.059139437973499298095703125" lon="-106.9321000389754772186279296875">
        <ele>3568.199951171875</ele>
        <time>2026-05-25T12:03:04.000Z</time>
        <extensions>
          <ns3:TrackPointExtension>
            <ns3:hr>120</ns3:hr>
            <ns3:cad>0</ns3:cad>
          </ns3:TrackPointExtension>
        </extensions>
      </trkpt>
      <trkpt lat="38.05912460200488567352294921875" lon="-106.93211294710636138916015625">
        <ele>3568.39990234375</ele>
        <time>2026-05-25T12:03:06.000Z</time>
        <extensions>
          <ns3:TrackPointExtension>
            <ns3:hr>123</ns3:hr>
            <ns3:cad>0</ns3:cad>
          </ns3:TrackPointExtension>
        </extensions>
      </trkpt>
      <trkpt lat="38.05910901166498661041259765625" lon="-106.93211403675377368927001953125">
        <ele>3568.39990234375</ele>
        <time>2026-05-25T12:03:07.000Z</time>
        <extensions>
          <ns3:TrackPointExtension>
            <ns3:hr>126</ns3:hr>
            <ns3:cad>0</ns3:cad>
          </ns3:TrackPointExtension>
        </extensions>
      </trkpt>
      <trkpt lat="38.05908755399286746978759765625" lon="-106.93212627433240413665771484375">
        <ele>3568.60009765625</ele>
        <time>2026-05-25T12:03:10.000Z</time>
        <extensions>
          <ns3:TrackPointExtension>
            <ns3:hr>128</ns3:hr>
            <ns3:cad>45</ns3:cad>
          </ns3:TrackPointExtension>
        </extensions>
      </trkpt>
      <trkpt lat="38.05902753956615924835205078125" lon="-106.93216617219150066375732421875">
        <ele>3568.800048828125</ele>
        <time>2026-05-25T12:03:16.000Z</time>
        <extensions>
          <ns3:TrackPointExtension>
            <ns3:hr>129</ns3:hr>
            <ns3:cad>50</ns3:cad>
          </ns3:TrackPointExtension>
        </extensions>
      </trkpt>
      <trkpt lat="38.05901831947267055511474609375" lon="-106.93217589519917964935302734375">
        <ele>3569.199951171875</ele>
        <time>2026-05-25T12:03:18.000Z</time>
        <extensions>
          <ns3:TrackPointExtension>
            <ns3:hr>129</ns3:hr>
            <ns3:cad>50</ns3:cad>
          </ns3:TrackPointExtension>
        </extensions>
      </trkpt>
      <trkpt lat="38.05896718986332416534423828125" lon="-106.9322110153734683990478515625">
        <ele>3570</ele>
        <time>2026-05-25T12:03:24.000Z</time>
        <extensions>
          <ns3:TrackPointExtension>
            <ns3:hr>129</ns3:hr>
            <ns3:cad>47</ns3:cad>
          </ns3:TrackPointExtension>
        </extensions>
      </trkpt>
      <trkpt lat="38.058940283954143524169921875" lon="-106.9322334788739681243896484375">
        <ele>3570</ele>
        <time>2026-05-25T12:03:27.000Z</time>
        <extensions>
          <ns3:TrackPointExtension>
            <ns3:hr>130</ns3:hr>
            <ns3:cad>49</ns3:cad>
          </ns3:TrackPointExtension>
        </extensions>
      </trkpt>
      <trkpt lat="38.0588923394680023193359375" lon="-106.93229458294808864593505859375">
        <ele>3570</ele>
        <time>2026-05-25T12:03:33.000Z</time>
        <extensions>
          <ns3:TrackPointExtension>
            <ns3:hr>130</ns3:hr>
            <ns3:cad>49</ns3:cad>
          </ns3:TrackPointExtension>
        </extensions>
      </trkpt>
      <trkpt lat="38.0588841252028942108154296875" lon="-106.93230338394641876220703125">
        <ele>3570.199951171875</ele>
        <time>2026-05-25T12:03:34.000Z</time>
        <extensions>
          <ns3:TrackPointExtension>
            <ns3:hr>130</ns3:hr>
            <ns3:cad>49</ns3:cad>
          </ns3:TrackPointExtension>
        </extensions>
      </trkpt>
      <trkpt lat="38.0588522739708423614501953125" lon="-106.93231989629566669464111328125">
        <ele>3570.60009765625</ele>
        <time>2026-05-25T12:03:38.000Z</time>
        <extensions>
          <ns3:TrackPointExtension>
            <ns3:hr>134</ns3:hr>
            <ns3:cad>52</ns3:cad>
          </ns3:TrackPointExtension>
        </extensions>
      </trkpt>
      <trkpt lat="38.05884297005832195281982421875" lon="-106.93234789185225963592529296875">
        <ele>3570.800048828125</ele>
        <time>2026-05-25T12:03:39.000Z</time>
        <extensions>
          <ns3:TrackPointExtension>
            <ns3:hr>136</ns3:hr>
            <ns3:cad>52</ns3:cad>
          </ns3:TrackPointExtension>
        </extensions>
      </trkpt>
      <trkpt lat="38.0588291399180889129638671875" lon="-106.932368762791156768798828125">
        <ele>3571.39990234375</ele>
        <time>2026-05-25T12:03:41.000Z</time>
        <extensions>
          <ns3:TrackPointExtension>
            <ns3:hr>136</ns3:hr>
            <ns3:cad>51</ns3:cad>
          </ns3:TrackPointExtension>
        </extensions>
      </trkpt>
      <trkpt lat="38.058796115219593048095703125" lon="-106.93238544277846813201904296875">
        <ele>3572</ele>
        <time>2026-05-25T12:03:45.000Z</time>
        <extensions>
          <ns3:TrackPointExtension>
            <ns3:hr>134</ns3:hr>
            <ns3:cad>0</ns3:cad>
          </ns3:TrackPointExtension>
        </extensions>
      </trkpt>
      <trkpt lat="38.05878479965031147003173828125" lon="-106.93239483051002025604248046875">
        <ele>3572.199951171875</ele>
        <time>2026-05-25T12:03:47.000Z</time>
        <extensions>
          <ns3:TrackPointExtension>
            <ns3:hr>133</ns3:hr>
            <ns3:cad>0</ns3:cad>
          </ns3:TrackPointExtension>
        </extensions>
      </trkpt>
      <trkpt lat="38.05876334197819232940673828125" lon="-106.93240388296544551849365234375">
        <ele>3572.60009765625</ele>
        <time>2026-05-25T12:03:50.000Z</time>
        <extensions>
          <ns3:TrackPointExtension>
            <ns3:hr>134</ns3:hr>
            <ns3:cad>0</ns3:cad>
          </ns3:TrackPointExtension>
        </extensions>
      </trkpt>
      <trkpt lat="38.0587526969611644744873046875" lon="-106.93241477943956851959228515625">
        <ele>3572.60009765625</ele>
        <time>2026-05-25T12:03:52.000Z</time>
        <extensions>
          <ns3:TrackPointExtension>
            <ns3:hr>133</ns3:hr>
            <ns3:cad>0</ns3:cad>
          </ns3:TrackPointExtension>
        </extensions>
      </trkpt>
      <trkpt lat="38.05873886682093143463134765625" lon="-106.93244294263422489166259765625">
        <ele>3573</ele>
        <time>2026-05-25T12:03:58.000Z</time>
        <extensions>
          <ns3:TrackPointExtension>
            <ns3:hr>132</ns3:hr>
            <ns3:cad>0</ns3:cad>
          </ns3:TrackPointExtension>
        </extensions>
      </trkpt>
      <trkpt lat="38.0587329156696796417236328125" lon="-106.93245098926126956939697265625">
        <ele>3573.199951171875</ele>
        <time>2026-05-25T12:03:59.000Z</time>
        <extensions>
          <ns3:TrackPointExtension>
            <ns3:hr>131</ns3:hr>
            <ns3:cad>0</ns3:cad>
          </ns3:TrackPointExtension>
        </extensions>
      </trkpt>
      <trkpt lat="38.0587060935795307159423828125" lon="-106.93248099647462368011474609375">
        <ele>3574.199951171875</ele>
        <time>2026-05-25T12:04:02.000Z</time>
        <extensions>
          <ns3:TrackPointExtension>
            <ns3:hr>130</ns3:hr>
            <ns3:cad>51</ns3:cad>
          </ns3:TrackPointExtension>
        </extensions>
      </trkpt>
      <trkpt lat="38.05865555070340633392333984375" lon="-106.9325348921120166778564453125">
        <ele>3575</ele>
        <time>2026-05-25T12:04:07.000Z</time>
        <extensions>
          <ns3:TrackPointExtension>
            <ns3:hr>132</ns3:hr>
            <ns3:cad>0</ns3:cad>
          </ns3:TrackPointExtension>
        </extensions>
      </trkpt>
      <trkpt lat="38.058621101081371307373046875" lon="-106.93256900645792484283447265625">
        <ele>3574.60009765625</ele>
        <time>2026-05-25T12:04:13.000Z</time>
        <extensions>
          <ns3:TrackPointExtension>
            <ns3:hr>127</ns3:hr>
            <ns3:cad>0</ns3:cad>
          </ns3:TrackPointExtension>
        </extensions>
      </trkpt>
      <trkpt lat="38.058601655066013336181640625" lon="-106.93258007057011127471923828125">
        <ele>3574.39990234375</ele>
        <time>2026-05-25T12:04:14.000Z</time>
        <extensions>
          <ns3:TrackPointExtension>
            <ns3:hr>127</ns3:hr>
            <ns3:cad>47</ns3:cad>
          </ns3:TrackPointExtension>
        </extensions>
      </trkpt>
      <trkpt lat="38.05858983658254146575927734375" lon="-106.93258660845458507537841796875">
        <ele>3574.39990234375</ele>
        <time>2026-05-25T12:04:15.000Z</time>
        <extensions>
          <ns3:TrackPointExtension>
            <ns3:hr>127</ns3:hr>
            <ns3:cad>47</ns3:cad>
          </ns3:TrackPointExtension>
        </extensions>
      </trkpt>
      <trkpt lat="38.05855329148471355438232421875" lon="-106.93262583576142787933349609375">
        <ele>3575</ele>
        <time>2026-05-25T12:04:21.000Z</time>
        <extensions>
          <ns3:TrackPointExtension>
            <ns3:hr>128</ns3:hr>
            <ns3:cad>45</ns3:cad>
          </ns3:TrackPointExtension>
        </extensions>
      </trkpt>
      <trkpt lat="38.0585334263741970062255859375" lon="-106.93264670670032501220703125">
        <ele>3575.39990234375</ele>
        <time>2026-05-25T12:04:22.000Z</time>
        <extensions>
          <ns3:TrackPointExtension>
            <ns3:hr>128</ns3:hr>
            <ns3:cad>45</ns3:cad>
          </ns3:TrackPointExtension>
        </extensions>
      </trkpt>
      <trkpt lat="38.05851540528237819671630859375" lon="-106.9327239878475666046142578125">
        <ele>3576</ele>
        <time>2026-05-25T12:04:28.000Z</time>
        <extensions>
          <ns3:TrackPointExtension>
            <ns3:hr>128</ns3:hr>
            <ns3:cad>50</ns3:cad>
          </ns3:TrackPointExtension>
        </extensions>
      </trkpt>
      <trkpt lat="38.05850584991276264190673828125" lon="-106.9327347166836261749267578125">
        <ele>3575.800048828125</ele>
        <time>2026-05-25T12:04:30.000Z</time>
        <extensions>
          <ns3:TrackPointExtension>
            <ns3:hr>128</ns3:hr>
            <ns3:cad>44</ns3:cad>
          </ns3:TrackPointExtension>
        </extensions>
      </trkpt>
      <trkpt lat="38.0584871582686901092529296875" lon="-106.9327528215944766998291015625">
        <ele>3576</ele>
        <time>2026-05-25T12:04:35.000Z</time>
        <extensions>
          <ns3:TrackPointExtension>
            <ns3:hr>128</ns3:hr>
            <ns3:cad>0</ns3:cad>
          </ns3:TrackPointExtension>
        </extensions>
      </trkpt>
      <trkpt lat="38.05846477858722209930419921875" lon="-106.93278081715106964111328125">
        <ele>3576.39990234375</ele>
        <time>2026-05-25T12:04:37.000Z</time>
        <extensions>
          <ns3:TrackPointExtension>
            <ns3:hr>129</ns3:hr>
            <ns3:cad>0</ns3:cad>
          </ns3:TrackPointExtension>
        </extensions>
      </trkpt>
      <trkpt lat="38.058429323136806488037109375" lon="-106.93285382352769374847412109375">
        <ele>3577.39990234375</ele>
        <time>2026-05-25T12:04:43.000Z</time>
        <extensions>
          <ns3:TrackPointExtension>
            <ns3:hr>128</ns3:hr>
            <ns3:cad>50</ns3:cad>
          </ns3:TrackPointExtension>
        </extensions>
      </trkpt>
      <trkpt lat="38.05842823348939418792724609375" lon="-106.93286203779280185699462890625">
        <ele>3577.60009765625</ele>
        <time>2026-05-25T12:04:44.000Z</time>
        <extensions>
          <ns3:TrackPointExtension>
            <ns3:hr>128</ns3:hr>
            <ns3:cad>50</ns3:cad>
          </ns3:TrackPointExtension>
        </extensions>
      </trkpt>
      <trkpt lat="38.0584073625504970550537109375" lon="-106.93291970528662204742431640625">
        <ele>3578</ele>
        <time>2026-05-25T12:04:49.000Z</time>
        <extensions>
          <ns3:TrackPointExtension>
            <ns3:hr>128</ns3:hr>
            <ns3:cad>0</ns3:cad>
          </ns3:TrackPointExtension>
        </extensions>
      </trkpt>
      <trkpt lat="38.05837266147136688232421875" lon="-106.93298868834972381591796875">
        <ele>3578.39990234375</ele>
        <time>2026-05-25T12:04:55.000Z</time>
        <extensions>
          <ns3:TrackPointExtension>
            <ns3:hr>128</ns3:hr>
            <ns3:cad>0</ns3:cad>
          </ns3:TrackPointExtension>
        </extensions>
      </trkpt>
      <trkpt lat="38.0583191849291324615478515625" lon="-106.93302833475172519683837890625">
        <ele>3578.199951171875</ele>
        <time>2026-05-25T12:05:01.000Z</time>
        <extensions>
          <ns3:TrackPointExtension>
            <ns3:hr>128</ns3:hr>
            <ns3:cad>76</ns3:cad>
          </ns3:TrackPointExtension>
        </extensions>
      </trkpt>
      <trkpt lat="38.05829462595283985137939453125" lon="-106.93302221596240997314453125">
        <ele>3578.39990234375</ele>
        <time>2026-05-25T12:05:05.000Z</time>
        <extensions>
          <ns3:TrackPointExtension>
            <ns3:hr>124</ns3:hr>
            <ns3:cad>0</ns3:cad>
          </ns3:TrackPointExtension>
        </extensions>
      </trkpt>
      <trkpt lat="38.05828389711678028106689453125" lon="-106.9330186955630779266357421875">
        <ele>3578.60009765625</ele>
        <time>2026-05-25T12:05:06.000Z</time>
        <extensions>
          <ns3:TrackPointExtension>
            <ns3:hr>124</ns3:hr>
            <ns3:cad>0</ns3:cad>
          </ns3:TrackPointExtension>
        </extensions>
      </trkpt>
      <trkpt lat="38.0582786165177822113037109375" lon="-106.93302045576274394989013671875">
        <ele>3579</ele>
        <time>2026-05-25T12:05:09.000Z</time>
        <extensions>
          <ns3:TrackPointExtension>
            <ns3:hr>125</ns3:hr>
            <ns3:cad>0</ns3:cad>
          </ns3:TrackPointExtension>
        </extensions>
      </trkpt>
      <trkpt lat="38.0582786165177822113037109375" lon="-106.93302045576274394989013671875">
        <ele>3579</ele>
        <time>2026-05-25T12:05:13.000Z</time>
        <extensions>
          <ns3:TrackPointExtension>
            <ns3:hr>128</ns3:hr>
            <ns3:cad>0</ns3:cad>
          </ns3:TrackPointExtension>
        </extensions>
      </trkpt>
      <trkpt lat="38.05826629512012004852294921875" lon="-106.93302129395306110382080078125">
        <ele>3579.39990234375</ele>
        <time>2026-05-25T12:05:17.000Z</time>
        <extensions>
          <ns3:TrackPointExtension>
            <ns3:hr>128</ns3:hr>
            <ns3:cad>0</ns3:cad>
          </ns3:TrackPointExtension>
        </extensions>
      </trkpt>
      <trkpt lat="38.0582432448863983154296875" lon="-106.93303956650197505950927734375">
        <ele>3579.800048828125</ele>
        <time>2026-05-25T12:05:19.000Z</time>
        <extensions>
          <ns3:TrackPointExtension>
            <ns3:hr>128</ns3:hr>
            <ns3:cad>0</ns3:cad>
          </ns3:TrackPointExtension>
        </extensions>
      </trkpt>
      <trkpt lat="38.05821483023464679718017578125" lon="-106.93304476328194141387939453125">
        <ele>3580.39990234375</ele>
        <time>2026-05-25T12:05:22.000Z</time>
        <extensions>
          <ns3:TrackPointExtension>
            <ns3:hr>127</ns3:hr>
            <ns3:cad>0</ns3:cad>
          </ns3:TrackPointExtension>
        </extensions>
      </trkpt>
      <trkpt lat="38.058175183832645416259765625" lon="-106.933059431612491607666015625">
        <ele>3580.39990234375</ele>
        <time>2026-05-25T12:05:28.000Z</time>
        <extensions>
          <ns3:TrackPointExtension>
            <ns3:hr>125</ns3:hr>
            <ns3:cad>0</ns3:cad>
          </ns3:TrackPointExtension>
        </extensions>
      </trkpt>
      <trkpt lat="38.0581542290747165679931640625" lon="-106.933067478239536285400390625">
        <ele>3580.60009765625</ele>
        <time>2026-05-25T12:05:30.000Z</time>
        <extensions>
          <ns3:TrackPointExtension>
            <ns3:hr>124</ns3:hr>
            <ns3:cad>0</ns3:cad>
          </ns3:TrackPointExtension>
        </extensions>
      </trkpt>
      <trkpt lat="38.05814861319959163665771484375" lon="-106.9330736808478832244873046875">
        <ele>3580.800048828125</ele>
        <time>2026-05-25T12:05:31.000Z</time>
        <extensions>
          <ns3:TrackPointExtension>
            <ns3:hr>126</ns3:hr>
            <ns3:cad>0</ns3:cad>
          </ns3:TrackPointExtension>
        </extensions>
      </trkpt>
      <trkpt lat="38.05810846388339996337890625" lon="-106.93307879380881786346435546875">
        <ele>3581.60009765625</ele>
        <time>2026-05-25T12:05:36.000Z</time>
        <extensions>
          <ns3:TrackPointExtension>
            <ns3:hr>127</ns3:hr>
            <ns3:cad>43</ns3:cad>
          </ns3:TrackPointExtension>
        </extensions>
      </trkpt>
      <trkpt lat="38.05808432400226593017578125" lon="-106.93308365531265735626220703125">
        <ele>3581.800048828125</ele>
        <time>2026-05-25T12:05:38.000Z</time>
        <extensions>
          <ns3:TrackPointExtension>
            <ns3:hr>127</ns3:hr>
            <ns3:cad>43</ns3:cad>
          </ns3:TrackPointExtension>
        </extensions>
      </trkpt>
      <trkpt lat="38.05805205367505550384521484375" lon="-106.93308130837976932525634765625">
        <ele>3581.39990234375</ele>
        <time>2026-05-25T12:05:43.000Z</time>
        <extensions>
          <ns3:TrackPointExtension>
            <ns3:hr>130</ns3:hr>
            <ns3:cad>43</ns3:cad>
          </ns3:TrackPointExtension>
        </extensions>
      </trkpt>
      <trkpt lat="38.0580422468483448028564453125" lon="-106.93306437693536281585693359375">
        <ele>3581</ele>
        <time>2026-05-25T12:05:45.000Z</time>
        <extensions>
          <ns3:TrackPointExtension>
            <ns3:hr>130</ns3:hr>
            <ns3:cad>77</ns3:cad>
          </ns3:TrackPointExtension>
        </extensions>
      </trkpt>
      <trkpt lat="38.05801768787205219268798828125" lon="-106.9330389797687530517578125">
        <ele>3582</ele>
        <time>2026-05-25T12:05:49.000Z</time>
        <extensions>
          <ns3:TrackPointExtension>
            <ns3:hr>130</ns3:hr>
            <ns3:cad>0</ns3:cad>
          </ns3:TrackPointExtension>
        </extensions>
      </trkpt>
      <trkpt lat="38.057951219379901885986328125" lon="-106.93303336389362812042236328125">
        <ele>3582.800048828125</ele>
        <time>2026-05-25T12:05:54.000Z</time>
        <extensions>
          <ns3:TrackPointExtension>
            <ns3:hr>130</ns3:hr>
            <ns3:cad>44</ns3:cad>
          </ns3:TrackPointExtension>
        </extensions>
      </trkpt>
      <trkpt lat="38.05794090963900089263916015625" lon="-106.9330347888171672821044921875">
        <ele>3583</ele>
        <time>2026-05-25T12:05:55.000Z</time>
        <extensions>
          <ns3:TrackPointExtension>
            <ns3:hr>130</ns3:hr>
            <ns3:cad>41</ns3:cad>
          </ns3:TrackPointExtension>
        </extensions>
      </trkpt>
      <trkpt lat="38.05789816193282604217529296875" lon="-106.93303956650197505950927734375">
        <ele>3584</ele>
        <time>2026-05-25T12:06:01.000Z</time>
        <extensions>
          <ns3:TrackPointExtension>
            <ns3:hr>129</ns3:hr>
            <ns3:cad>48</ns3:cad>
          </ns3:TrackPointExtension>
        </extensions>
      </trkpt>
      <trkpt lat="38.05788181722164154052734375" lon="-106.93304141052067279815673828125">
        <ele>3584</ele>
        <time>2026-05-25T12:06:02.000Z</time>
        <extensions>
          <ns3:TrackPointExtension>
            <ns3:hr>129</ns3:hr>
            <ns3:cad>48</ns3:cad>
          </ns3:TrackPointExtension>
        </extensions>
      </trkpt>
      <trkpt lat="38.05787402205169200897216796875" lon="-106.933064125478267669677734375">
        <ele>3584.199951171875</ele>
        <time>2026-05-25T12:06:04.000Z</time>
        <extensions>
          <ns3:TrackPointExtension>
            <ns3:hr>128</ns3:hr>
            <ns3:cad>48</ns3:cad>
          </ns3:TrackPointExtension>
        </extensions>
      </trkpt>
      <trkpt lat="38.0578548274934291839599609375" lon="-106.9330897741019725799560546875">
        <ele>3584.60009765625</ele>
        <time>2026-05-25T12:06:08.000Z</time>
        <extensions>
          <ns3:TrackPointExtension>
            <ns3:hr>128</ns3:hr>
            <ns3:cad>0</ns3:cad>
          </ns3:TrackPointExtension>
        </extensions>
      </trkpt>
      <trkpt lat="38.0577860958874225616455078125" lon="-106.9331296719610691070556640625">
        <ele>3585</ele>
        <time>2026-05-25T12:06:14.000Z</time>
        <extensions>
          <ns3:TrackPointExtension>
            <ns3:hr>128</ns3:hr>
            <ns3:cad>0</ns3:cad>
          </ns3:TrackPointExtension>
        </extensions>
      </trkpt>
      <trkpt lat="38.05777478031814098358154296875" lon="-106.933131515979766845703125">
        <ele>3585</ele>
        <time>2026-05-25T12:06:15.000Z</time>
        <extensions>
          <ns3:TrackPointExtension>
            <ns3:hr>128</ns3:hr>
            <ns3:cad>0</ns3:cad>
          </ns3:TrackPointExtension>
        </extensions>
      </trkpt>
      <trkpt lat="38.05776338092982769012451171875" lon="-106.93312020041048526763916015625">
        <ele>3584.800048828125</ele>
        <time>2026-05-25T12:06:21.000Z</time>
        <extensions>
          <ns3:TrackPointExtension>
            <ns3:hr>129</ns3:hr>
            <ns3:cad>0</ns3:cad>
          </ns3:TrackPointExtension>
        </extensions>
      </trkpt>
      <trkpt lat="38.0577602796256542205810546875" lon="-106.93312145769596099853515625">
        <ele>3585.199951171875</ele>
        <time>2026-05-25T12:06:27.000Z</time>
        <extensions>
          <ns3:TrackPointExtension>
            <ns3:hr>127</ns3:hr>
            <ns3:cad>0</ns3:cad>
          </ns3:TrackPointExtension>
        </extensions>
      </trkpt>
      <trkpt lat="38.0577602796256542205810546875" lon="-106.93312145769596099853515625">
        <ele>3585.39990234375</ele>
        <time>2026-05-25T12:06:29.000Z</time>
        <extensions>
          <ns3:TrackPointExtension>
            <ns3:hr>127</ns3:hr>
            <ns3:cad>0</ns3:cad>
          </ns3:TrackPointExtension>
        </extensions>
      </trkpt>
      <trkpt lat="38.0577602796256542205810546875" lon="-106.93312145769596099853515625">
        <ele>3585.199951171875</ele>
        <time>2026-05-25T12:06:35.000Z</time>
        <extensions>
          <ns3:TrackPointExtension>
            <ns3:hr>128</ns3:hr>
            <ns3:cad>0</ns3:cad>
          </ns3:TrackPointExtension>
        </extensions>
      </trkpt>
      <trkpt lat="38.0577602796256542205810546875" lon="-106.93312145769596099853515625">
        <ele>3585.199951171875</ele>
        <time>2026-05-25T12:06:38.000Z</time>
        <extensions>
          <ns3:TrackPointExtension>
            <ns3:hr>129</ns3:hr>
            <ns3:cad>0</ns3:cad>
          </ns3:TrackPointExtension>
        </extensions>
      </trkpt>
      <trkpt lat="38.05776254273951053619384765625" lon="-106.9331233017146587371826171875">
        <ele>3585.199951171875</ele>
        <time>2026-05-25T12:06:44.000Z</time>
        <extensions>
          <ns3:TrackPointExtension>
            <ns3:hr>129</ns3:hr>
            <ns3:cad>0</ns3:cad>
          </ns3:TrackPointExtension>
        </extensions>
      </trkpt>
      <trkpt lat="38.0577602796256542205810546875" lon="-106.93312145769596099853515625">
        <ele>3585.199951171875</ele>
        <time>2026-05-25T12:06:49.000Z</time>
        <extensions>
          <ns3:TrackPointExtension>
            <ns3:hr>128</ns3:hr>
            <ns3:cad>0</ns3:cad>
          </ns3:TrackPointExtension>
        </extensions>
      </trkpt>
      <trkpt lat="38.0577602796256542205810546875" lon="-106.93312145769596099853515625">
        <ele>3584.800048828125</ele>
        <time>2026-05-25T12:06:54.000Z</time>
        <extensions>
          <ns3:TrackPointExtension>
            <ns3:hr>125</ns3:hr>
            <ns3:cad>0</ns3:cad>
          </ns3:TrackPointExtension>
        </extensions>
      </trkpt>
      <trkpt lat="38.0577602796256542205810546875" lon="-106.93312145769596099853515625">
        <ele>3585</ele>
        <time>2026-05-25T12:06:57.000Z</time>
        <extensions>
          <ns3:TrackPointExtension>
            <ns3:hr>125</ns3:hr>
            <ns3:cad>0</ns3:cad>
          </ns3:TrackPointExtension>
        </extensions>
      </trkpt>
      <trkpt lat="38.0577602796256542205810546875" lon="-106.93312145769596099853515625">
        <ele>3584.60009765625</ele>
        <time>2026-05-25T12:07:03.000Z</time>
        <extensions>
          <ns3:TrackPointExtension>
            <ns3:hr>124</ns3:hr>
            <ns3:cad>0</ns3:cad>
          </ns3:TrackPointExtension>
        </extensions>
      </trkpt>
      <trkpt lat="38.0577602796256542205810546875" lon="-106.93312145769596099853515625">
        <ele>3585</ele>
        <time>2026-05-25T12:07:07.000Z</time>
        <extensions>
          <ns3:TrackPointExtension>
            <ns3:hr>124</ns3:hr>
            <ns3:cad>0</ns3:cad>
          </ns3:TrackPointExtension>
        </extensions>
      </trkpt>
      <trkpt lat="38.0577602796256542205810546875" lon="-106.93312145769596099853515625">
        <ele>3585</ele>
        <time>2026-05-25T12:07:10.000Z</time>
        <extensions>
          <ns3:TrackPointExtension>
            <ns3:hr>127</ns3:hr>
            <ns3:cad>0</ns3:cad>
          </ns3:TrackPointExtension>
        </extensions>
      </trkpt>
      <trkpt lat="38.0577602796256542205810546875" lon="-106.93312145769596099853515625">
        <ele>3584.800048828125</ele>
        <time>2026-05-25T12:07:16.000Z</time>
        <extensions>
          <ns3:TrackPointExtension>
            <ns3:hr>128</ns3:hr>
            <ns3:cad>0</ns3:cad>
          </ns3:TrackPointExtension>
        </extensions>
      </trkpt>
      <trkpt lat="38.0577602796256542205810546875" lon="-106.93312145769596099853515625">
        <ele>3585.199951171875</ele>
        <time>2026-05-25T12:07:22.000Z</time>
        <extensions>
          <ns3:TrackPointExtension>
            <ns3:hr>126</ns3:hr>
            <ns3:cad>0</ns3:cad>
          </ns3:TrackPointExtension>
        </extensions>
      </trkpt>
      <trkpt lat="38.0577602796256542205810546875" lon="-106.93312145769596099853515625">
        <ele>3585.199951171875</ele>
        <time>2026-05-25T12:07:23.000Z</time>
        <extensions>
          <ns3:TrackPointExtension>
            <ns3:hr>126</ns3:hr>
            <ns3:cad>0</ns3:cad>
          </ns3:TrackPointExtension>
        </extensions>
      </trkpt>
      <trkpt lat="38.0577632971107959747314453125" lon="-106.93312439136207103729248046875">
        <ele>3585</ele>
        <time>2026-05-25T12:07:29.000Z</time>
        <extensions>
          <ns3:TrackPointExtension>
            <ns3:hr>124</ns3:hr>
            <ns3:cad>51</ns3:cad>
          </ns3:TrackPointExtension>
        </extensions>
      </trkpt>
      <trkpt lat="38.0577639676630496978759765625" lon="-106.93311206996440887451171875">
        <ele>3585.199951171875</ele>
        <time>2026-05-25T12:07:35.000Z</time>
        <extensions>
          <ns3:TrackPointExtension>
            <ns3:hr>123</ns3:hr>
            <ns3:cad>0</ns3:cad>
          </ns3:TrackPointExtension>
        </extensions>
      </trkpt>
      <trkpt lat="38.0577602796256542205810546875" lon="-106.93312145769596099853515625">
        <ele>3585.39990234375</ele>
        <time>2026-05-25T12:07:41.000Z</time>
        <extensions>
          <ns3:TrackPointExtension>
            <ns3:hr>122</ns3:hr>
            <ns3:cad>0</ns3:cad>
          </ns3:TrackPointExtension>
        </extensions>
      </trkpt>
      <trkpt lat="38.0577602796256542205810546875" lon="-106.93312145769596099853515625">
        <ele>3585.39990234375</ele>
        <time>2026-05-25T12:07:47.000Z</time>
        <extensions>
          <ns3:TrackPointExtension>
            <ns3:hr>121</ns3:hr>
            <ns3:cad>0</ns3:cad>
          </ns3:TrackPointExtension>
        </extensions>
      </trkpt>
      <trkpt lat="38.05775483138859272003173828125" lon="-106.933118440210819244384765625">
        <ele>3585.39990234375</ele>
        <time>2026-05-25T12:07:51.000Z</time>
        <extensions>
          <ns3:TrackPointExtension>
            <ns3:hr>123</ns3:hr>
            <ns3:cad>0</ns3:cad>
          </ns3:TrackPointExtension>
        </extensions>
      </trkpt>
      <trkpt lat="38.05775315500795841217041015625" lon="-106.9331169314682483673095703125">
        <ele>3585.60009765625</ele>
        <time>2026-05-25T12:07:57.000Z</time>
        <extensions>
          <ns3:TrackPointExtension>
            <ns3:hr>125</ns3:hr>
            <ns3:cad>0</ns3:cad>
          </ns3:TrackPointExtension>
        </extensions>
      </trkpt>
      <trkpt lat="38.0577602796256542205810546875" lon="-106.93312145769596099853515625">
        <ele>3585.39990234375</ele>
        <time>2026-05-25T12:08:01.000Z</time>
        <extensions>
          <ns3:TrackPointExtension>
            <ns3:hr>125</ns3:hr>
            <ns3:cad>0</ns3:cad>
          </ns3:TrackPointExtension>
        </extensions>
      </trkpt>
      <trkpt lat="38.0577602796256542205810546875" lon="-106.93312145769596099853515625">
        <ele>3585.60009765625</ele>
        <time>2026-05-25T12:08:07.000Z</time>
        <extensions>
          <ns3:TrackPointExtension>
            <ns3:hr>122</ns3:hr>
            <ns3:cad>0</ns3:cad>
          </ns3:TrackPointExtension>
        </extensions>
      </trkpt>
      <trkpt lat="38.0577602796256542205810546875" lon="-106.93312145769596099853515625">
        <ele>3585.60009765625</ele>
        <time>2026-05-25T12:08:10.000Z</time>
        <extensions>
          <ns3:TrackPointExtension>
            <ns3:hr>118</ns3:hr>
            <ns3:cad>0</ns3:cad>
          </ns3:TrackPointExtension>
        </extensions>
      </trkpt>
      <trkpt lat="38.057757429778575897216796875" lon="-106.93312724120914936065673828125">
        <ele>3585.60009765625</ele>
        <time>2026-05-25T12:08:13.000Z</time>
        <extensions>
          <ns3:TrackPointExtension>
            <ns3:hr>115</ns3:hr>
            <ns3:cad>0</ns3:cad>
          </ns3:TrackPointExtension>
        </extensions>
      </trkpt>
      <trkpt lat="38.0577579326927661895751953125" lon="-106.93312908522784709930419921875">
        <ele>3585.60009765625</ele>
        <time>2026-05-25T12:08:14.000Z</time>
        <extensions>
          <ns3:TrackPointExtension>
            <ns3:hr>114</ns3:hr>
            <ns3:cad>0</ns3:cad>
          </ns3:TrackPointExtension>
        </extensions>
      </trkpt>
      <trkpt lat="38.0577562563121318817138671875" lon="-106.9331226311624050140380859375">
        <ele>3585.60009765625</ele>
        <time>2026-05-25T12:08:17.000Z</time>
        <extensions>
          <ns3:TrackPointExtension>
            <ns3:hr>111</ns3:hr>
            <ns3:cad>0</ns3:cad>
          </ns3:TrackPointExtension>
        </extensions>
      </trkpt>
      <trkpt lat="38.0577602796256542205810546875" lon="-106.93312145769596099853515625">
        <ele>3585.800048828125</ele>
        <time>2026-05-25T12:08:21.000Z</time>
        <extensions>
          <ns3:TrackPointExtension>
            <ns3:hr>109</ns3:hr>
            <ns3:cad>0</ns3:cad>
          </ns3:TrackPointExtension>
        </extensions>
      </trkpt>
      <trkpt lat="38.0577602796256542205810546875" lon="-106.93312145769596099853515625">
        <ele>3586</ele>
        <time>2026-05-25T12:08:27.000Z</time>
        <extensions>
          <ns3:TrackPointExtension>
            <ns3:hr>107</ns3:hr>
            <ns3:cad>0</ns3:cad>
          </ns3:TrackPointExtension>
        </extensions>
      </trkpt>
      <trkpt lat="38.0577602796256542205810546875" lon="-106.93312145769596099853515625">
        <ele>3585.800048828125</ele>
        <time>2026-05-25T12:08:30.000Z</time>
        <extensions>
          <ns3:TrackPointExtension>
            <ns3:hr>107</ns3:hr>
            <ns3:cad>0</ns3:cad>
          </ns3:TrackPointExtension>
        </extensions>
      </trkpt>
      <trkpt lat="38.05776103399693965911865234375" lon="-106.93311818875372409820556640625">
        <ele>3585.800048828125</ele>
        <time>2026-05-25T12:08:33.000Z</time>
        <extensions>
          <ns3:TrackPointExtension>
            <ns3:hr>104</ns3:hr>
            <ns3:cad>0</ns3:cad>
          </ns3:TrackPointExtension>
        </extensions>
      </trkpt>
      <trkpt lat="38.0577602796256542205810546875" lon="-106.93312145769596099853515625">
        <ele>3585.800048828125</ele>
        <time>2026-05-25T12:08:35.000Z</time>
        <extensions>
          <ns3:TrackPointExtension>
            <ns3:hr>101</ns3:hr>
            <ns3:cad>0</ns3:cad>
          </ns3:TrackPointExtension>
        </extensions>
      </trkpt>
      <trkpt lat="38.0577602796256542205810546875" lon="-106.93312145769596099853515625">
        <ele>3585.800048828125</ele>
        <time>2026-05-25T12:08:38.000Z</time>
        <extensions>
          <ns3:TrackPointExtension>
            <ns3:hr>101</ns3:hr>
            <ns3:cad>0</ns3:cad>
          </ns3:TrackPointExtension>
        </extensions>
      </trkpt>
      <trkpt lat="38.0577602796256542205810546875" lon="-106.93312145769596099853515625">
        <ele>3585.800048828125</ele>
        <time>2026-05-25T12:08:44.000Z</time>
        <extensions>
          <ns3:TrackPointExtension>
            <ns3:hr>101</ns3:hr>
            <ns3:cad>0</ns3:cad>
          </ns3:TrackPointExtension>
        </extensions>
      </trkpt>
      <trkpt lat="38.0577602796256542205810546875" lon="-106.93312145769596099853515625">
        <ele>3586</ele>
        <time>2026-05-25T12:08:46.000Z</time>
        <extensions>
          <ns3:TrackPointExtension>
            <ns3:hr>101</ns3:hr>
            <ns3:cad>0</ns3:cad>
          </ns3:TrackPointExtension>
        </extensions>
      </trkpt>
      <trkpt lat="38.0577602796256542205810546875" lon="-106.93312145769596099853515625">
        <ele>3585.800048828125</ele>
        <time>2026-05-25T12:08:50.000Z</time>
        <extensions>
          <ns3:TrackPointExtension>
            <ns3:hr>104</ns3:hr>
            <ns3:cad>0</ns3:cad>
          </ns3:TrackPointExtension>
        </extensions>
      </trkpt>
      <trkpt lat="38.0577602796256542205810546875" lon="-106.93312145769596099853515625">
        <ele>3586.199951171875</ele>
        <time>2026-05-25T12:08:55.000Z</time>
        <extensions>
          <ns3:TrackPointExtension>
            <ns3:hr>103</ns3:hr>
            <ns3:cad>0</ns3:cad>
          </ns3:TrackPointExtension>
        </extensions>
      </trkpt>
      <trkpt lat="38.0577602796256542205810546875" lon="-106.93312145769596099853515625">
        <ele>3586.199951171875</ele>
        <time>2026-05-25T12:09:01.000Z</time>
        <extensions>
          <ns3:TrackPointExtension>
            <ns3:hr>102</ns3:hr>
            <ns3:cad>0</ns3:cad>
          </ns3:TrackPointExtension>
        </extensions>
      </trkpt>
      <trkpt lat="38.0577602796256542205810546875" lon="-106.93312145769596099853515625">
        <ele>3586</ele>
        <time>2026-05-25T12:09:04.000Z</time>
        <extensions>
          <ns3:TrackPointExtension>
            <ns3:hr>99</ns3:hr>
            <ns3:cad>0</ns3:cad>
          </ns3:TrackPointExtension>
        </extensions>
      </trkpt>
      <trkpt lat="38.0577602796256542205810546875" lon="-106.93312145769596099853515625">
        <ele>3586</ele>
        <time>2026-05-25T12:09:05.000Z</time>
        <extensions>
          <ns3:TrackPointExtension>
            <ns3:hr>98</ns3:hr>
            <ns3:cad>0</ns3:cad>
          </ns3:TrackPointExtension>
        </extensions>
      </trkpt>
      <trkpt lat="38.0577602796256542205810546875" lon="-106.93312145769596099853515625">
        <ele>3586.199951171875</ele>
        <time>2026-05-25T12:09:10.000Z</time>
        <extensions>
          <ns3:TrackPointExtension>
            <ns3:hr>95</ns3:hr>
            <ns3:cad>0</ns3:cad>
          </ns3:TrackPointExtension>
        </extensions>
      </trkpt>
      <trkpt lat="38.0577602796256542205810546875" lon="-106.93312145769596099853515625">
        <ele>3586.60009765625</ele>
        <time>2026-05-25T12:09:12.000Z</time>
        <extensions>
          <ns3:TrackPointExtension>
            <ns3:hr>96</ns3:hr>
            <ns3:cad>0</ns3:cad>
          </ns3:TrackPointExtension>
        </extensions>
      </trkpt>
      <trkpt lat="38.0577602796256542205810546875" lon="-106.93312145769596099853515625">
        <ele>3585.800048828125</ele>
        <time>2026-05-25T12:09:18.000Z</time>
        <extensions>
          <ns3:TrackPointExtension>
            <ns3:hr>96</ns3:hr>
            <ns3:cad>0</ns3:cad>
          </ns3:TrackPointExtension>
        </extensions>
      </trkpt>
      <trkpt lat="38.05776556022465229034423828125" lon="-106.93309991620481014251708984375">
        <ele>3585.800048828125</ele>
        <time>2026-05-25T12:09:21.000Z</time>
        <extensions>
          <ns3:TrackPointExtension>
            <ns3:hr>99</ns3:hr>
            <ns3:cad>0</ns3:cad>
          </ns3:TrackPointExtension>
        </extensions>
      </trkpt>
      <trkpt lat="38.05776405148208141326904296875" lon="-106.93309790454804897308349609375">
        <ele>3585.39990234375</ele>
        <time>2026-05-25T12:09:27.000Z</time>
        <extensions>
          <ns3:TrackPointExtension>
            <ns3:hr>101</ns3:hr>
            <ns3:cad>0</ns3:cad>
          </ns3:TrackPointExtension>
        </extensions>
      </trkpt>
      <trkpt lat="38.0577646382153034210205078125" lon="-106.9331008382141590118408203125">
        <ele>3585.60009765625</ele>
        <time>2026-05-25T12:09:33.000Z</time>
        <extensions>
          <ns3:TrackPointExtension>
            <ns3:hr>100</ns3:hr>
            <ns3:cad>53</ns3:cad>
          </ns3:TrackPointExtension>
        </extensions>
      </trkpt>
      <trkpt lat="38.0577586032450199127197265625" lon="-106.9331051968038082122802734375">
        <ele>3585.60009765625</ele>
        <time>2026-05-25T12:09:39.000Z</time>
        <extensions>
          <ns3:TrackPointExtension>
            <ns3:hr>100</ns3:hr>
            <ns3:cad>0</ns3:cad>
          </ns3:TrackPointExtension>
        </extensions>
      </trkpt>
      <trkpt lat="38.05775868706405162811279296875" lon="-106.9331172667443752288818359375">
        <ele>3586.199951171875</ele>
        <time>2026-05-25T12:09:43.000Z</time>
        <extensions>
          <ns3:TrackPointExtension>
            <ns3:hr>101</ns3:hr>
            <ns3:cad>0</ns3:cad>
          </ns3:TrackPointExtension>
        </extensions>
      </trkpt>
      <trkpt lat="38.05775902234017848968505859375" lon="-106.933114416897296905517578125">
        <ele>3586.800048828125</ele>
        <time>2026-05-25T12:09:49.000Z</time>
        <extensions>
          <ns3:TrackPointExtension>
            <ns3:hr>102</ns3:hr>
            <ns3:cad>0</ns3:cad>
          </ns3:TrackPointExtension>
        </extensions>
      </trkpt>
      <trkpt lat="38.0577579326927661895751953125" lon="-106.93311114795506000518798828125">
        <ele>3586.60009765625</ele>
        <time>2026-05-25T12:09:51.000Z</time>
        <extensions>
          <ns3:TrackPointExtension>
            <ns3:hr>105</ns3:hr>
            <ns3:cad>0</ns3:cad>
          </ns3:TrackPointExtension>
        </extensions>
      </trkpt>
      <trkpt lat="38.05776405148208141326904296875" lon="-106.93309790454804897308349609375">
        <ele>3586.60009765625</ele>
        <time>2026-05-25T12:09:55.000Z</time>
        <extensions>
          <ns3:TrackPointExtension>
            <ns3:hr>108</ns3:hr>
            <ns3:cad>0</ns3:cad>
          </ns3:TrackPointExtension>
        </extensions>
      </trkpt>
      <trkpt lat="38.05776405148208141326904296875" lon="-106.93309790454804897308349609375">
        <ele>3586.800048828125</ele>
        <time>2026-05-25T12:09:58.000Z</time>
        <extensions>
          <ns3:TrackPointExtension>
            <ns3:hr>111</ns3:hr>
            <ns3:cad>0</ns3:cad>
          </ns3:TrackPointExtension>
        </extensions>
      </trkpt>
      <trkpt lat="38.0577632971107959747314453125" lon="-106.93311232142150402069091796875">
        <ele>3586.800048828125</ele>
        <time>2026-05-25T12:10:01.000Z</time>
        <extensions>
          <ns3:TrackPointExtension>
            <ns3:hr>113</ns3:hr>
            <ns3:cad>0</ns3:cad>
          </ns3:TrackPointExtension>
        </extensions>
      </trkpt>
      <trkpt lat="38.0577294342219829559326171875" lon="-106.9331005029380321502685546875">
        <ele>3586.800048828125</ele>
        <time>2026-05-25T12:10:07.000Z</time>
        <extensions>
          <ns3:TrackPointExtension>
            <ns3:hr>110</ns3:hr>
            <ns3:cad>75</ns3:cad>
          </ns3:TrackPointExtension>
        </extensions>
      </trkpt>
      <trkpt lat="38.05772532708942890167236328125" lon="-106.93311064504086971282958984375">
        <ele>3587.199951171875</ele>
        <time>2026-05-25T12:10:08.000Z</time>
        <extensions>
          <ns3:TrackPointExtension>
            <ns3:hr>109</ns3:hr>
            <ns3:cad>75</ns3:cad>
          </ns3:TrackPointExtension>
        </extensions>
      </trkpt>
      <trkpt lat="38.057706467807292938232421875" lon="-106.93317133001983165740966796875">
        <ele>3588.199951171875</ele>
        <time>2026-05-25T12:10:13.000Z</time>
        <extensions>
          <ns3:TrackPointExtension>
            <ns3:hr>108</ns3:hr>
            <ns3:cad>0</ns3:cad>
          </ns3:TrackPointExtension>
        </extensions>
      </trkpt>
      <trkpt lat="38.057706467807292938232421875" lon="-106.93317133001983165740966796875">
        <ele>3588.199951171875</ele>
        <time>2026-05-25T12:10:14.000Z</time>
        <extensions>
          <ns3:TrackPointExtension>
            <ns3:hr>108</ns3:hr>
            <ns3:cad>0</ns3:cad>
          </ns3:TrackPointExtension>
        </extensions>
      </trkpt>
      <trkpt lat="38.05769062601029872894287109375" lon="-106.93325380794703960418701171875">
        <ele>3588.60009765625</ele>
        <time>2026-05-25T12:10:20.000Z</time>
        <extensions>
          <ns3:TrackPointExtension>
            <ns3:hr>108</ns3:hr>
            <ns3:cad>0</ns3:cad>
          </ns3:TrackPointExtension>
        </extensions>
      </trkpt>
      <trkpt lat="38.0576888658106327056884765625" lon="-106.93325799889862537384033203125">
        <ele>3589</ele>
        <time>2026-05-25T12:10:21.000Z</time>
        <extensions>
          <ns3:TrackPointExtension>
            <ns3:hr>108</ns3:hr>
            <ns3:cad>0</ns3:cad>
          </ns3:TrackPointExtension>
        </extensions>
      </trkpt>
      <trkpt lat="38.05768643505871295928955078125" lon="-106.93326889537274837493896484375">
        <ele>3589.199951171875</ele>
        <time>2026-05-25T12:10:22.000Z</time>
        <extensions>
          <ns3:TrackPointExtension>
            <ns3:hr>108</ns3:hr>
            <ns3:cad>0</ns3:cad>
          </ns3:TrackPointExtension>
        </extensions>
      </trkpt>
      <trkpt lat="38.057663552463054656982421875" lon="-106.93333092145621776580810546875">
        <ele>3589.800048828125</ele>
        <time>2026-05-25T12:10:27.000Z</time>
        <extensions>
          <ns3:TrackPointExtension>
            <ns3:hr>111</ns3:hr>
            <ns3:cad>0</ns3:cad>
          </ns3:TrackPointExtension>
        </extensions>
      </trkpt>
      <trkpt lat="38.05763916112482547760009765625" lon="-106.933373920619487762451171875">
        <ele>3590.199951171875</ele>
        <time>2026-05-25T12:10:31.000Z</time>
        <extensions>
          <ns3:TrackPointExtension>
            <ns3:hr>114</ns3:hr>
            <ns3:cad>45</ns3:cad>
          </ns3:TrackPointExtension>
        </extensions>
      </trkpt>
      <trkpt lat="38.05763916112482547760009765625" lon="-106.933373920619487762451171875">
        <ele>3590.39990234375</ele>
        <time>2026-05-25T12:10:32.000Z</time>
        <extensions>
          <ns3:TrackPointExtension>
            <ns3:hr>115</ns3:hr>
            <ns3:cad>45</ns3:cad>
          </ns3:TrackPointExtension>
        </extensions>
      </trkpt>
      <trkpt lat="38.05762658827006816864013671875" lon="-106.9334064424037933349609375">
        <ele>3590.60009765625</ele>
        <time>2026-05-25T12:10:34.000Z</time>
        <extensions>
          <ns3:TrackPointExtension>
            <ns3:hr>117</ns3:hr>
            <ns3:cad>45</ns3:cad>
          </ns3:TrackPointExtension>
        </extensions>
      </trkpt>
      <trkpt lat="38.05761820636689662933349609375" lon="-106.933431588113307952880859375">
        <ele>3591</ele>
        <time>2026-05-25T12:10:36.000Z</time>
        <extensions>
          <ns3:TrackPointExtension>
            <ns3:hr>123</ns3:hr>
            <ns3:cad>47</ns3:cad>
          </ns3:TrackPointExtension>
        </extensions>
      </trkpt>
      <trkpt lat="38.05761116556823253631591796875" lon="-106.933473162353038787841796875">
        <ele>3591.60009765625</ele>
        <time>2026-05-25T12:10:39.000Z</time>
        <extensions>
          <ns3:TrackPointExtension>
            <ns3:hr>124</ns3:hr>
            <ns3:cad>49</ns3:cad>
          </ns3:TrackPointExtension>
        </extensions>
      </trkpt>
      <trkpt lat="38.05760211311280727386474609375" lon="-106.933501996099948883056640625">
        <ele>3591.800048828125</ele>
        <time>2026-05-25T12:10:42.000Z</time>
        <extensions>
          <ns3:TrackPointExtension>
            <ns3:hr>123</ns3:hr>
            <ns3:cad>0</ns3:cad>
          </ns3:TrackPointExtension>
        </extensions>
      </trkpt>
      <trkpt lat="38.05757931433618068695068359375" lon="-106.93359109573066234588623046875">
        <ele>3591.60009765625</ele>
        <time>2026-05-25T12:10:48.000Z</time>
        <extensions>
          <ns3:TrackPointExtension>
            <ns3:hr>125</ns3:hr>
            <ns3:cad>49</ns3:cad>
          </ns3:TrackPointExtension>
        </extensions>
      </trkpt>
      <trkpt lat="38.05757914669811725616455078125" lon="-106.93360953591763973236083984375">
        <ele>3591.60009765625</ele>
        <time>2026-05-25T12:10:50.000Z</time>
        <extensions>
          <ns3:TrackPointExtension>
            <ns3:hr>124</ns3:hr>
            <ns3:cad>0</ns3:cad>
          </ns3:TrackPointExtension>
        </extensions>
      </trkpt>
      <trkpt lat="38.05756070651113986968994140625" lon="-106.9336614198982715606689453125">
        <ele>3591.199951171875</ele>
        <time>2026-05-25T12:10:54.000Z</time>
        <extensions>
          <ns3:TrackPointExtension>
            <ns3:hr>121</ns3:hr>
            <ns3:cad>0</ns3:cad>
          </ns3:TrackPointExtension>
        </extensions>
      </trkpt>
      <trkpt lat="38.05756372399628162384033203125" lon="-106.93367608822882175445556640625">
        <ele>3591</ele>
        <time>2026-05-25T12:10:56.000Z</time>
        <extensions>
          <ns3:TrackPointExtension>
            <ns3:hr>120</ns3:hr>
            <ns3:cad>48</ns3:cad>
          </ns3:TrackPointExtension>
        </extensions>
      </trkpt>
      <trkpt lat="38.05755416862666606903076171875" lon="-106.93372763693332672119140625">
        <ele>3592</ele>
        <time>2026-05-25T12:11:02.000Z</time>
        <extensions>
          <ns3:TrackPointExtension>
            <ns3:hr>122</ns3:hr>
            <ns3:cad>48</ns3:cad>
          </ns3:TrackPointExtension>
        </extensions>
      </trkpt>
      <trkpt lat="38.05755416862666606903076171875" lon="-106.93372763693332672119140625">
        <ele>3592</ele>
        <time>2026-05-25T12:11:03.000Z</time>
        <extensions>
          <ns3:TrackPointExtension>
            <ns3:hr>123</ns3:hr>
            <ns3:cad>48</ns3:cad>
          </ns3:TrackPointExtension>
        </extensions>
      </trkpt>
      <trkpt lat="38.05754964239895343780517578125" lon="-106.93373459391295909881591796875">
        <ele>3592</ele>
        <time>2026-05-25T12:11:04.000Z</time>
        <extensions>
          <ns3:TrackPointExtension>
            <ns3:hr>122</ns3:hr>
            <ns3:cad>48</ns3:cad>
          </ns3:TrackPointExtension>
        </extensions>
      </trkpt>
      <trkpt lat="38.057541511952877044677734375" lon="-106.93377935327589511871337890625">
        <ele>3592.60009765625</ele>
        <time>2026-05-25T12:11:08.000Z</time>
        <extensions>
          <ns3:TrackPointExtension>
            <ns3:hr>125</ns3:hr>
            <ns3:cad>0</ns3:cad>
          </ns3:TrackPointExtension>
        </extensions>
      </trkpt>
      <trkpt lat="38.05753941647708415985107421875" lon="-106.93379209376871585845947265625">
        <ele>3592.800048828125</ele>
        <time>2026-05-25T12:11:09.000Z</time>
        <extensions>
          <ns3:TrackPointExtension>
            <ns3:hr>128</ns3:hr>
            <ns3:cad>0</ns3:cad>
          </ns3:TrackPointExtension>
        </extensions>
      </trkpt>
      <trkpt lat="38.0575356446206569671630859375" lon="-106.9338076002895832061767578125">
        <ele>3593.199951171875</ele>
        <time>2026-05-25T12:11:10.000Z</time>
        <extensions>
          <ns3:TrackPointExtension>
            <ns3:hr>128</ns3:hr>
            <ns3:cad>0</ns3:cad>
          </ns3:TrackPointExtension>
        </extensions>
      </trkpt>
      <trkpt lat="38.05752701126039028167724609375" lon="-106.9338280521333217620849609375">
        <ele>3593.60009765625</ele>
        <time>2026-05-25T12:11:14.000Z</time>
        <extensions>
          <ns3:TrackPointExtension>
            <ns3:hr>130</ns3:hr>
            <ns3:cad>0</ns3:cad>
          </ns3:TrackPointExtension>
        </extensions>
      </trkpt>
      <trkpt lat="38.05751175619661808013916015625" lon="-106.93387373350560665130615234375">
        <ele>3594.800048828125</ele>
        <time>2026-05-25T12:11:19.000Z</time>
        <extensions>
          <ns3:TrackPointExtension>
            <ns3:hr>130</ns3:hr>
            <ns3:cad>59</ns3:cad>
          </ns3:TrackPointExtension>
        </extensions>
      </trkpt>
      <trkpt lat="38.057506643235683441162109375" lon="-106.93388261832296848297119140625">
        <ele>3595</ele>
        <time>2026-05-25T12:11:20.000Z</time>
        <extensions>
          <ns3:TrackPointExtension>
            <ns3:hr>130</ns3:hr>
            <ns3:cad>59</ns3:cad>
          </ns3:TrackPointExtension>
        </extensions>
      </trkpt>
      <trkpt lat="38.0574667453765869140625" lon="-106.93392100743949413299560546875">
        <ele>3595.39990234375</ele>
        <time>2026-05-25T12:11:26.000Z</time>
        <extensions>
          <ns3:TrackPointExtension>
            <ns3:hr>127</ns3:hr>
            <ns3:cad>44</ns3:cad>
          </ns3:TrackPointExtension>
        </extensions>
      </trkpt>
      <trkpt lat="38.0574561841785907745361328125" lon="-106.9339428842067718505859375">
        <ele>3595.60009765625</ele>
        <time>2026-05-25T12:11:27.000Z</time>
        <extensions>
          <ns3:TrackPointExtension>
            <ns3:hr>126</ns3:hr>
            <ns3:cad>44</ns3:cad>
          </ns3:TrackPointExtension>
        </extensions>
      </trkpt>
      <trkpt lat="38.05744688026607036590576171875" lon="-106.93395721726119518280029296875">
        <ele>3595.800048828125</ele>
        <time>2026-05-25T12:11:29.000Z</time>
        <extensions>
          <ns3:TrackPointExtension>
            <ns3:hr>125</ns3:hr>
            <ns3:cad>45</ns3:cad>
          </ns3:TrackPointExtension>
        </extensions>
      </trkpt>
      <trkpt lat="38.057431876659393310546875" lon="-106.934011280536651611328125">
        <ele>3596.60009765625</ele>
        <time>2026-05-25T12:11:34.000Z</time>
        <extensions>
          <ns3:TrackPointExtension>
            <ns3:hr>125</ns3:hr>
            <ns3:cad>47</ns3:cad>
          </ns3:TrackPointExtension>
        </extensions>
      </trkpt>
      <trkpt lat="38.05741620250046253204345703125" lon="-106.934025026857852935791015625">
        <ele>3597</ele>
        <time>2026-05-25T12:11:38.000Z</time>
        <extensions>
          <ns3:TrackPointExtension>
            <ns3:hr>126</ns3:hr>
            <ns3:cad>0</ns3:cad>
          </ns3:TrackPointExtension>
        </extensions>
      </trkpt>
      <trkpt lat="38.05741511285305023193359375" lon="-106.934033073484897613525390625">
        <ele>3597.199951171875</ele>
        <time>2026-05-25T12:11:39.000Z</time>
        <extensions>
          <ns3:TrackPointExtension>
            <ns3:hr>127</ns3:hr>
            <ns3:cad>0</ns3:cad>
          </ns3:TrackPointExtension>
        </extensions>
      </trkpt>
      <trkpt lat="38.057392649352550506591796875" lon="-106.93406953476369380950927734375">
        <ele>3598.199951171875</ele>
        <time>2026-05-25T12:11:43.000Z</time>
        <extensions>
          <ns3:TrackPointExtension>
            <ns3:hr>128</ns3:hr>
            <ns3:cad>0</ns3:cad>
          </ns3:TrackPointExtension>
        </extensions>
      </trkpt>
      <trkpt lat="38.05737714283168315887451171875" lon="-106.93410339765250682830810546875">
        <ele>3599</ele>
        <time>2026-05-25T12:11:47.000Z</time>
        <extensions>
          <ns3:TrackPointExtension>
            <ns3:hr>129</ns3:hr>
            <ns3:cad>0</ns3:cad>
          </ns3:TrackPointExtension>
        </extensions>
      </trkpt>
      <trkpt lat="38.05736959911882877349853515625" lon="-106.93412217311561107635498046875">
        <ele>3599.199951171875</ele>
        <time>2026-05-25T12:11:49.000Z</time>
        <extensions>
          <ns3:TrackPointExtension>
            <ns3:hr>129</ns3:hr>
            <ns3:cad>0</ns3:cad>
          </ns3:TrackPointExtension>
        </extensions>
      </trkpt>
      <trkpt lat="38.05734512396156787872314453125" lon="-106.9341628253459930419921875">
        <ele>3599.39990234375</ele>
        <time>2026-05-25T12:11:53.000Z</time>
        <extensions>
          <ns3:TrackPointExtension>
            <ns3:hr>131</ns3:hr>
            <ns3:cad>0</ns3:cad>
          </ns3:TrackPointExtension>
        </extensions>
      </trkpt>
      <trkpt lat="38.057335317134857177734375" lon="-106.9341985322535037994384765625">
        <ele>3600.199951171875</ele>
        <time>2026-05-25T12:11:58.000Z</time>
        <extensions>
          <ns3:TrackPointExtension>
            <ns3:hr>129</ns3:hr>
            <ns3:cad>0</ns3:cad>
          </ns3:TrackPointExtension>
        </extensions>
      </trkpt>
      <trkpt lat="38.0573385022580623626708984375" lon="-106.93419995717704296112060546875">
        <ele>3600.39990234375</ele>
        <time>2026-05-25T12:12:02.000Z</time>
        <extensions>
          <ns3:TrackPointExtension>
            <ns3:hr>129</ns3:hr>
            <ns3:cad>0</ns3:cad>
          </ns3:TrackPointExtension>
        </extensions>
      </trkpt>
      <trkpt lat="38.0573385022580623626708984375" lon="-106.93419995717704296112060546875">
        <ele>3600.199951171875</ele>
        <time>2026-05-25T12:12:07.000Z</time>
        <extensions>
          <ns3:TrackPointExtension>
            <ns3:hr>133</ns3:hr>
            <ns3:cad>0</ns3:cad>
          </ns3:TrackPointExtension>
        </extensions>
      </trkpt>
      <trkpt lat="38.05733707733452320098876953125" lon="-106.93422275595366954803466796875">
        <ele>3600.199951171875</ele>
        <time>2026-05-25T12:12:11.000Z</time>
        <extensions>
          <ns3:TrackPointExtension>
            <ns3:hr>135</ns3:hr>
            <ns3:cad>0</ns3:cad>
          </ns3:TrackPointExtension>
        </extensions>
      </trkpt>
      <trkpt lat="38.05732400156557559967041015625" lon="-106.93428394384682178497314453125">
        <ele>3599.60009765625</ele>
        <time>2026-05-25T12:12:17.000Z</time>
        <extensions>
          <ns3:TrackPointExtension>
            <ns3:hr>133</ns3:hr>
            <ns3:cad>50</ns3:cad>
          </ns3:TrackPointExtension>
        </extensions>
      </trkpt>
      <trkpt lat="38.05731981061398983001708984375" lon="-106.93428277038037776947021484375">
        <ele>3599.60009765625</ele>
        <time>2026-05-25T12:12:18.000Z</time>
        <extensions>
          <ns3:TrackPointExtension>
            <ns3:hr>133</ns3:hr>
            <ns3:cad>50</ns3:cad>
          </ns3:TrackPointExtension>
        </extensions>
      </trkpt>
      <trkpt lat="38.05731209926307201385498046875" lon="-106.934285201132297515869140625">
        <ele>3599.60009765625</ele>
        <time>2026-05-25T12:12:19.000Z</time>
        <extensions>
          <ns3:TrackPointExtension>
            <ns3:hr>133</ns3:hr>
            <ns3:cad>0</ns3:cad>
          </ns3:TrackPointExtension>
        </extensions>
      </trkpt>
      <trkpt lat="38.0572841875255107879638671875" lon="-106.93429802544414997100830078125">
        <ele>3601</ele>
        <time>2026-05-25T12:12:25.000Z</time>
        <extensions>
          <ns3:TrackPointExtension>
            <ns3:hr>133</ns3:hr>
            <ns3:cad>0</ns3:cad>
          </ns3:TrackPointExtension>
        </extensions>
      </trkpt>
      <trkpt lat="38.05726113729178905487060546875" lon="-106.93431361578404903411865234375">
        <ele>3601.39990234375</ele>
        <time>2026-05-25T12:12:27.000Z</time>
        <extensions>
          <ns3:TrackPointExtension>
            <ns3:hr>131</ns3:hr>
            <ns3:cad>0</ns3:cad>
          </ns3:TrackPointExtension>
        </extensions>
      </trkpt>
      <trkpt lat="38.057228028774261474609375" lon="-106.9343487359583377838134765625">
        <ele>3602.199951171875</ele>
        <time>2026-05-25T12:12:32.000Z</time>
        <extensions>
          <ns3:TrackPointExtension>
            <ns3:hr>128</ns3:hr>
            <ns3:cad>0</ns3:cad>
          </ns3:TrackPointExtension>
        </extensions>
      </trkpt>
      <trkpt lat="38.05721922777593135833740234375" lon="-106.934369690716266632080078125">
        <ele>3602.199951171875</ele>
        <time>2026-05-25T12:12:33.000Z</time>
        <extensions>
          <ns3:TrackPointExtension>
            <ns3:hr>128</ns3:hr>
            <ns3:cad>0</ns3:cad>
          </ns3:TrackPointExtension>
        </extensions>
      </trkpt>
      <trkpt lat="38.0572013743221759796142578125" lon="-106.93439190275967121124267578125">
        <ele>3602.39990234375</ele>
        <time>2026-05-25T12:12:36.000Z</time>
        <extensions>
          <ns3:TrackPointExtension>
            <ns3:hr>127</ns3:hr>
            <ns3:cad>0</ns3:cad>
          </ns3:TrackPointExtension>
        </extensions>
      </trkpt>
      <trkpt lat="38.0571936629712581634521484375" lon="-106.934405229985713958740234375">
        <ele>3602.60009765625</ele>
        <time>2026-05-25T12:12:37.000Z</time>
        <extensions>
          <ns3:TrackPointExtension>
            <ns3:hr>124</ns3:hr>
            <ns3:cad>0</ns3:cad>
          </ns3:TrackPointExtension>
        </extensions>
      </trkpt>
      <trkpt lat="38.05719106458127498626708984375" lon="-106.93443666212260723114013671875">
        <ele>3602.800048828125</ele>
        <time>2026-05-25T12:12:39.000Z</time>
        <extensions>
          <ns3:TrackPointExtension>
            <ns3:hr>120</ns3:hr>
            <ns3:cad>0</ns3:cad>
          </ns3:TrackPointExtension>
        </extensions>
      </trkpt>
      <trkpt lat="38.05719106458127498626708984375" lon="-106.93443666212260723114013671875">
        <ele>3602.800048828125</ele>
        <time>2026-05-25T12:12:40.000Z</time>
        <extensions>
          <ns3:TrackPointExtension>
            <ns3:hr>119</ns3:hr>
            <ns3:cad>0</ns3:cad>
          </ns3:TrackPointExtension>
        </extensions>
      </trkpt>
      <trkpt lat="38.05719039402902126312255859375" lon="-106.934515871107578277587890625">
        <ele>3602.39990234375</ele>
        <time>2026-05-25T12:12:46.000Z</time>
        <extensions>
          <ns3:TrackPointExtension>
            <ns3:hr>119</ns3:hr>
            <ns3:cad>0</ns3:cad>
          </ns3:TrackPointExtension>
        </extensions>
      </trkpt>
      <trkpt lat="38.057186789810657501220703125" lon="-106.93454076535999774932861328125">
        <ele>3602.39990234375</ele>
        <time>2026-05-25T12:12:47.000Z</time>
        <extensions>
          <ns3:TrackPointExtension>
            <ns3:hr>119</ns3:hr>
            <ns3:cad>0</ns3:cad>
          </ns3:TrackPointExtension>
        </extensions>
      </trkpt>
      <trkpt lat="38.0571918189525604248046875" lon="-106.93460463546216487884521484375">
        <ele>3603.39990234375</ele>
        <time>2026-05-25T12:12:53.000Z</time>
        <extensions>
          <ns3:TrackPointExtension>
            <ns3:hr>122</ns3:hr>
            <ns3:cad>0</ns3:cad>
          </ns3:TrackPointExtension>
        </extensions>
      </trkpt>
      <trkpt lat="38.05719458498060703277587890625" lon="-106.93461402319371700286865234375">
        <ele>3603.39990234375</ele>
        <time>2026-05-25T12:12:54.000Z</time>
        <extensions>
          <ns3:TrackPointExtension>
            <ns3:hr>122</ns3:hr>
            <ns3:cad>0</ns3:cad>
          </ns3:TrackPointExtension>
        </extensions>
      </trkpt>
      <trkpt lat="38.0571945011615753173828125" lon="-106.9346253387629985809326171875">
        <ele>3603.60009765625</ele>
        <time>2026-05-25T12:12:56.000Z</time>
        <extensions>
          <ns3:TrackPointExtension>
            <ns3:hr>122</ns3:hr>
            <ns3:cad>0</ns3:cad>
          </ns3:TrackPointExtension>
        </extensions>
      </trkpt>
      <trkpt lat="38.05721336044371128082275390625" lon="-106.934708319604396820068359375">
        <ele>3603.800048828125</ele>
        <time>2026-05-25T12:13:02.000Z</time>
        <extensions>
          <ns3:TrackPointExtension>
            <ns3:hr>123</ns3:hr>
            <ns3:cad>0</ns3:cad>
          </ns3:TrackPointExtension>
        </extensions>
      </trkpt>
      <trkpt lat="38.05723515339195728302001953125" lon="-106.93477763794362545013427734375">
        <ele>3604.199951171875</ele>
        <time>2026-05-25T12:13:08.000Z</time>
        <extensions>
          <ns3:TrackPointExtension>
            <ns3:hr>124</ns3:hr>
            <ns3:cad>48</ns3:cad>
          </ns3:TrackPointExtension>
        </extensions>
      </trkpt>
      <trkpt lat="38.05723632685840129852294921875" lon="-106.9347889535129070281982421875">
        <ele>3604.39990234375</ele>
        <time>2026-05-25T12:13:09.000Z</time>
        <extensions>
          <ns3:TrackPointExtension>
            <ns3:hr>124</ns3:hr>
            <ns3:cad>48</ns3:cad>
          </ns3:TrackPointExtension>
        </extensions>
      </trkpt>
      <trkpt lat="38.05723682977259159088134765625" lon="-106.93480077199637889862060546875">
        <ele>3604.60009765625</ele>
        <time>2026-05-25T12:13:10.000Z</time>
        <extensions>
          <ns3:TrackPointExtension>
            <ns3:hr>125</ns3:hr>
            <ns3:cad>0</ns3:cad>
          </ns3:TrackPointExtension>
        </extensions>
      </trkpt>
      <trkpt lat="38.05725024081766605377197265625" lon="-106.9348824955523014068603515625">
        <ele>3605.60009765625</ele>
        <time>2026-05-25T12:13:16.000Z</time>
        <extensions>
          <ns3:TrackPointExtension>
            <ns3:hr>124</ns3:hr>
            <ns3:cad>0</ns3:cad>
          </ns3:TrackPointExtension>
        </extensions>
      </trkpt>
      <trkpt lat="38.0572691000998020172119140625" lon="-106.9349244050681591033935546875">
        <ele>3606.39990234375</ele>
        <time>2026-05-25T12:13:20.000Z</time>
        <extensions>
          <ns3:TrackPointExtension>
            <ns3:hr>121</ns3:hr>
            <ns3:cad>0</ns3:cad>
          </ns3:TrackPointExtension>
        </extensions>
      </trkpt>
      <trkpt lat="38.05727371014654636383056640625" lon="-106.934937648475170135498046875">
        <ele>3606.800048828125</ele>
        <time>2026-05-25T12:13:22.000Z</time>
        <extensions>
          <ns3:TrackPointExtension>
            <ns3:hr>121</ns3:hr>
            <ns3:cad>0</ns3:cad>
          </ns3:TrackPointExtension>
        </extensions>
      </trkpt>
      <trkpt lat="38.05728862993419170379638671875" lon="-106.93499925546348094940185546875">
        <ele>3607.199951171875</ele>
        <time>2026-05-25T12:13:28.000Z</time>
        <extensions>
          <ns3:TrackPointExtension>
            <ns3:hr>125</ns3:hr>
            <ns3:cad>0</ns3:cad>
          </ns3:TrackPointExtension>
        </extensions>
      </trkpt>
      <trkpt lat="38.05729164741933345794677734375" lon="-106.93502859212458133697509765625">
        <ele>3607.199951171875</ele>
        <time>2026-05-25T12:13:29.000Z</time>
        <extensions>
          <ns3:TrackPointExtension>
            <ns3:hr>126</ns3:hr>
            <ns3:cad>0</ns3:cad>
          </ns3:TrackPointExtension>
        </extensions>
      </trkpt>
      <trkpt lat="38.05729181505739688873291015625" lon="-106.93508223630487918853759765625">
        <ele>3607.39990234375</ele>
        <time>2026-05-25T12:13:34.000Z</time>
        <extensions>
          <ns3:TrackPointExtension>
            <ns3:hr>127</ns3:hr>
            <ns3:cad>0</ns3:cad>
          </ns3:TrackPointExtension>
        </extensions>
      </trkpt>
      <trkpt lat="38.0572878755629062652587890625" lon="-106.93509480915963649749755859375">
        <ele>3607.800048828125</ele>
        <time>2026-05-25T12:13:36.000Z</time>
        <extensions>
          <ns3:TrackPointExtension>
            <ns3:hr>128</ns3:hr>
            <ns3:cad>0</ns3:cad>
          </ns3:TrackPointExtension>
        </extensions>
      </trkpt>
      <trkpt lat="38.05727521888911724090576171875" lon="-106.93511744029819965362548828125">
        <ele>3608.60009765625</ele>
        <time>2026-05-25T12:13:41.000Z</time>
        <extensions>
          <ns3:TrackPointExtension>
            <ns3:hr>129</ns3:hr>
            <ns3:cad>0</ns3:cad>
          </ns3:TrackPointExtension>
        </extensions>
      </trkpt>
      <trkpt lat="38.0572788231074810028076171875" lon="-106.935116015374660491943359375">
        <ele>3608.60009765625</ele>
        <time>2026-05-25T12:13:46.000Z</time>
        <extensions>
          <ns3:TrackPointExtension>
            <ns3:hr>126</ns3:hr>
            <ns3:cad>0</ns3:cad>
          </ns3:TrackPointExtension>
        </extensions>
      </trkpt>
      <trkpt lat="38.0572788231074810028076171875" lon="-106.935116015374660491943359375">
        <ele>3608.60009765625</ele>
        <time>2026-05-25T12:13:51.000Z</time>
        <extensions>
          <ns3:TrackPointExtension>
            <ns3:hr>128</ns3:hr>
            <ns3:cad>0</ns3:cad>
          </ns3:TrackPointExtension>
        </extensions>
      </trkpt>
      <trkpt lat="38.0572788231074810028076171875" lon="-106.935116015374660491943359375">
        <ele>3608.39990234375</ele>
        <time>2026-05-25T12:13:57.000Z</time>
        <extensions>
          <ns3:TrackPointExtension>
            <ns3:hr>128</ns3:hr>
            <ns3:cad>0</ns3:cad>
          </ns3:TrackPointExtension>
        </extensions>
      </trkpt>
      <trkpt lat="38.0572744645178318023681640625" lon="-106.93512909114360809326171875">
        <ele>3608.800048828125</ele>
        <time>2026-05-25T12:14:03.000Z</time>
        <extensions>
          <ns3:TrackPointExtension>
            <ns3:hr>126</ns3:hr>
            <ns3:cad>0</ns3:cad>
          </ns3:TrackPointExtension>
        </extensions>
      </trkpt>
      <trkpt lat="38.0572798289358615875244140625" lon="-106.93513889797031879425048828125">
        <ele>3609</ele>
        <time>2026-05-25T12:14:05.000Z</time>
        <extensions>
          <ns3:TrackPointExtension>
            <ns3:hr>125</ns3:hr>
            <ns3:cad>0</ns3:cad>
          </ns3:TrackPointExtension>
        </extensions>
      </trkpt>
      <trkpt lat="38.05733464658260345458984375" lon="-106.9351859204471111297607421875">
        <ele>3608.60009765625</ele>
        <time>2026-05-25T12:14:11.000Z</time>
        <extensions>
          <ns3:TrackPointExtension>
            <ns3:hr>124</ns3:hr>
            <ns3:cad>53</ns3:cad>
          </ns3:TrackPointExtension>
        </extensions>
      </trkpt>
      <trkpt lat="38.05734244175255298614501953125" lon="-106.935195140540599822998046875">
        <ele>3608</ele>
        <time>2026-05-25T12:14:13.000Z</time>
        <extensions>
          <ns3:TrackPointExtension>
            <ns3:hr>123</ns3:hr>
            <ns3:cad>55</ns3:cad>
          </ns3:TrackPointExtension>
        </extensions>
      </trkpt>
      <trkpt lat="38.05735149420797824859619140625" lon="-106.93519723601639270782470703125">
        <ele>3607.60009765625</ele>
        <time>2026-05-25T12:14:14.000Z</time>
        <extensions>
          <ns3:TrackPointExtension>
            <ns3:hr>123</ns3:hr>
            <ns3:cad>51</ns3:cad>
          </ns3:TrackPointExtension>
        </extensions>
      </trkpt>
      <trkpt lat="38.05740882642567157745361328125" lon="-106.93523562513291835784912109375">
        <ele>3607.199951171875</ele>
        <time>2026-05-25T12:14:20.000Z</time>
        <extensions>
          <ns3:TrackPointExtension>
            <ns3:hr>122</ns3:hr>
            <ns3:cad>51</ns3:cad>
          </ns3:TrackPointExtension>
        </extensions>
      </trkpt>
      <trkpt lat="38.05741435848176479339599609375" lon="-106.93524735979735851287841796875">
        <ele>3607.199951171875</ele>
        <time>2026-05-25T12:14:22.000Z</time>
        <extensions>
          <ns3:TrackPointExtension>
            <ns3:hr>121</ns3:hr>
            <ns3:cad>40</ns3:cad>
          </ns3:TrackPointExtension>
        </extensions>
      </trkpt>
      <trkpt lat="38.05740999989211559295654296875" lon="-106.93527803756296634674072265625">
        <ele>3607.39990234375</ele>
        <time>2026-05-25T12:14:25.000Z</time>
        <extensions>
          <ns3:TrackPointExtension>
            <ns3:hr>120</ns3:hr>
            <ns3:cad>40</ns3:cad>
          </ns3:TrackPointExtension>
        </extensions>
      </trkpt>
      <trkpt lat="38.0574112571775913238525390625" lon="-106.93529002368450164794921875">
        <ele>3607.800048828125</ele>
        <time>2026-05-25T12:14:27.000Z</time>
        <extensions>
          <ns3:TrackPointExtension>
            <ns3:hr>117</ns3:hr>
            <ns3:cad>40</ns3:cad>
          </ns3:TrackPointExtension>
        </extensions>
      </trkpt>
      <trkpt lat="38.057445622980594635009765625" lon="-106.93533821962773799896240234375">
        <ele>3608.800048828125</ele>
        <time>2026-05-25T12:14:32.000Z</time>
        <extensions>
          <ns3:TrackPointExtension>
            <ns3:hr>115</ns3:hr>
            <ns3:cad>0</ns3:cad>
          </ns3:TrackPointExtension>
        </extensions>
      </trkpt>
      <trkpt lat="38.05746473371982574462890625" lon="-106.93535531871020793914794921875">
        <ele>3609.199951171875</ele>
        <time>2026-05-25T12:14:34.000Z</time>
        <extensions>
          <ns3:TrackPointExtension>
            <ns3:hr>115</ns3:hr>
            <ns3:cad>0</ns3:cad>
          </ns3:TrackPointExtension>
        </extensions>
      </trkpt>
      <trkpt lat="38.0575104989111423492431640625" lon="-106.935378871858119964599609375">
        <ele>3609.60009765625</ele>
        <time>2026-05-25T12:14:39.000Z</time>
        <extensions>
          <ns3:TrackPointExtension>
            <ns3:hr>115</ns3:hr>
            <ns3:cad>0</ns3:cad>
          </ns3:TrackPointExtension>
        </extensions>
      </trkpt>
      <trkpt lat="38.05754981003701686859130859375" lon="-106.93540829233825206756591796875">
        <ele>3609.800048828125</ele>
        <time>2026-05-25T12:14:43.000Z</time>
        <extensions>
          <ns3:TrackPointExtension>
            <ns3:hr>115</ns3:hr>
            <ns3:cad>0</ns3:cad>
          </ns3:TrackPointExtension>
        </extensions>
      </trkpt>
      <trkpt lat="38.05756540037691593170166015625" lon="-106.9354135729372501373291015625">
        <ele>3610</ele>
        <time>2026-05-25T12:14:45.000Z</time>
        <extensions>
          <ns3:TrackPointExtension>
            <ns3:hr>115</ns3:hr>
            <ns3:cad>0</ns3:cad>
          </ns3:TrackPointExtension>
        </extensions>
      </trkpt>
      <trkpt lat="38.0576157756149768829345703125" lon="-106.93542455323040485382080078125">
        <ele>3610.199951171875</ele>
        <time>2026-05-25T12:14:50.000Z</time>
        <extensions>
          <ns3:TrackPointExtension>
            <ns3:hr>118</ns3:hr>
            <ns3:cad>46</ns3:cad>
          </ns3:TrackPointExtension>
        </extensions>
      </trkpt>
      <trkpt lat="38.0576402507722377777099609375" lon="-106.93543209694325923919677734375">
        <ele>3610</ele>
        <time>2026-05-25T12:14:52.000Z</time>
        <extensions>
          <ns3:TrackPointExtension>
            <ns3:hr>118</ns3:hr>
            <ns3:cad>46</ns3:cad>
          </ns3:TrackPointExtension>
        </extensions>
      </trkpt>
      <trkpt lat="38.057679645717144012451171875" lon="-106.9354457594454288482666015625">
        <ele>3611</ele>
        <time>2026-05-25T12:14:56.000Z</time>
        <extensions>
          <ns3:TrackPointExtension>
            <ns3:hr>122</ns3:hr>
            <ns3:cad>46</ns3:cad>
          </ns3:TrackPointExtension>
        </extensions>
      </trkpt>
      <trkpt lat="38.05768744088709354400634765625" lon="-106.93544802255928516387939453125">
        <ele>3611.199951171875</ele>
        <time>2026-05-25T12:14:57.000Z</time>
        <extensions>
          <ns3:TrackPointExtension>
            <ns3:hr>122</ns3:hr>
            <ns3:cad>46</ns3:cad>
          </ns3:TrackPointExtension>
        </extensions>
      </trkpt>
      <trkpt lat="38.0577126704156398773193359375" lon="-106.93545422516763210296630859375">
        <ele>3611.60009765625</ele>
        <time>2026-05-25T12:14:59.000Z</time>
        <extensions>
          <ns3:TrackPointExtension>
            <ns3:hr>118</ns3:hr>
            <ns3:cad>44</ns3:cad>
          </ns3:TrackPointExtension>
        </extensions>
      </trkpt>
      <trkpt lat="38.05774770677089691162109375" lon="-106.93547652103006839752197265625">
        <ele>3611.800048828125</ele>
        <time>2026-05-25T12:15:03.000Z</time>
        <extensions>
          <ns3:TrackPointExtension>
            <ns3:hr>118</ns3:hr>
            <ns3:cad>44</ns3:cad>
          </ns3:TrackPointExtension>
        </extensions>
      </trkpt>
      <trkpt lat="38.05774770677089691162109375" lon="-106.93547652103006839752197265625">
        <ele>3611.800048828125</ele>
        <time>2026-05-25T12:15:04.000Z</time>
        <extensions>
          <ns3:TrackPointExtension>
            <ns3:hr>117</ns3:hr>
            <ns3:cad>44</ns3:cad>
          </ns3:TrackPointExtension>
        </extensions>
      </trkpt>
      <trkpt lat="38.05777947418391704559326171875" lon="-106.9354958832263946533203125">
        <ele>3612</ele>
        <time>2026-05-25T12:15:07.000Z</time>
        <extensions>
          <ns3:TrackPointExtension>
            <ns3:hr>117</ns3:hr>
            <ns3:cad>52</ns3:cad>
          </ns3:TrackPointExtension>
        </extensions>
      </trkpt>
      <trkpt lat="38.05780612863600254058837890625" lon="-106.9355054385960102081298828125">
        <ele>3612.60009765625</ele>
        <time>2026-05-25T12:15:10.000Z</time>
        <extensions>
          <ns3:TrackPointExtension>
            <ns3:hr>117</ns3:hr>
            <ns3:cad>0</ns3:cad>
          </ns3:TrackPointExtension>
        </extensions>
      </trkpt>
      <trkpt lat="38.05784384720027446746826171875" lon="-106.93552480079233646392822265625">
        <ele>3613</ele>
        <time>2026-05-25T12:15:14.000Z</time>
        <extensions>
          <ns3:TrackPointExtension>
            <ns3:hr>117</ns3:hr>
            <ns3:cad>0</ns3:cad>
          </ns3:TrackPointExtension>
        </extensions>
      </trkpt>
      <trkpt lat="38.057854659855365753173828125" lon="-106.93552798591554164886474609375">
        <ele>3613.199951171875</ele>
        <time>2026-05-25T12:15:15.000Z</time>
        <extensions>
          <ns3:TrackPointExtension>
            <ns3:hr>117</ns3:hr>
            <ns3:cad>0</ns3:cad>
          </ns3:TrackPointExtension>
        </extensions>
      </trkpt>
      <trkpt lat="38.05786999873816967010498046875" lon="-106.9355275668203830718994140625">
        <ele>3613.199951171875</ele>
        <time>2026-05-25T12:15:17.000Z</time>
        <extensions>
          <ns3:TrackPointExtension>
            <ns3:hr>120</ns3:hr>
            <ns3:cad>0</ns3:cad>
          </ns3:TrackPointExtension>
        </extensions>
      </trkpt>
      <trkpt lat="38.05790050886571407318115234375" lon="-106.93552815355360507965087890625">
        <ele>3613.199951171875</ele>
        <time>2026-05-25T12:15:19.000Z</time>
        <extensions>
          <ns3:TrackPointExtension>
            <ns3:hr>124</ns3:hr>
            <ns3:cad>0</ns3:cad>
          </ns3:TrackPointExtension>
        </extensions>
      </trkpt>
      <trkpt lat="38.05793940089643001556396484375" lon="-106.9355473481118679046630859375">
        <ele>3613.800048828125</ele>
        <time>2026-05-25T12:15:23.000Z</time>
        <extensions>
          <ns3:TrackPointExtension>
            <ns3:hr>124</ns3:hr>
            <ns3:cad>0</ns3:cad>
          </ns3:TrackPointExtension>
        </extensions>
      </trkpt>
      <trkpt lat="38.05794996209442615509033203125" lon="-106.93554642610251903533935546875">
        <ele>3614.199951171875</ele>
        <time>2026-05-25T12:15:24.000Z</time>
        <extensions>
          <ns3:TrackPointExtension>
            <ns3:hr>124</ns3:hr>
            <ns3:cad>49</ns3:cad>
          </ns3:TrackPointExtension>
        </extensions>
      </trkpt>
      <trkpt lat="38.0580036900937557220458984375" lon="-106.9355393014848232269287109375">
        <ele>3614.39990234375</ele>
        <time>2026-05-25T12:15:29.000Z</time>
        <extensions>
          <ns3:TrackPointExtension>
            <ns3:hr>122</ns3:hr>
            <ns3:cad>0</ns3:cad>
          </ns3:TrackPointExtension>
        </extensions>
      </trkpt>
      <trkpt lat="38.0580667220056056976318359375" lon="-106.935541145503520965576171875">
        <ele>3614.800048828125</ele>
        <time>2026-05-25T12:15:35.000Z</time>
        <extensions>
          <ns3:TrackPointExtension>
            <ns3:hr>122</ns3:hr>
            <ns3:cad>0</ns3:cad>
          </ns3:TrackPointExtension>
        </extensions>
      </trkpt>
      <trkpt lat="38.05807921104133129119873046875" lon="-106.93554458208382129669189453125">
        <ele>3615</ele>
        <time>2026-05-25T12:15:36.000Z</time>
        <extensions>
          <ns3:TrackPointExtension>
            <ns3:hr>122</ns3:hr>
            <ns3:cad>0</ns3:cad>
          </ns3:TrackPointExtension>
        </extensions>
      </trkpt>
      <trkpt lat="38.05807921104133129119873046875" lon="-106.93554458208382129669189453125">
        <ele>3615.199951171875</ele>
        <time>2026-05-25T12:15:37.000Z</time>
        <extensions>
          <ns3:TrackPointExtension>
            <ns3:hr>122</ns3:hr>
            <ns3:cad>0</ns3:cad>
          </ns3:TrackPointExtension>
        </extensions>
      </trkpt>
      <trkpt lat="38.058106116950511932373046875" lon="-106.93554676137864589691162109375">
        <ele>3616.199951171875</ele>
        <time>2026-05-25T12:15:40.000Z</time>
        <extensions>
          <ns3:TrackPointExtension>
            <ns3:hr>121</ns3:hr>
            <ns3:cad>49</ns3:cad>
          </ns3:TrackPointExtension>
        </extensions>
      </trkpt>
      <trkpt lat="38.05813989602029323577880859375" lon="-106.9355577416718006134033203125">
        <ele>3616.60009765625</ele>
        <time>2026-05-25T12:15:42.000Z</time>
        <extensions>
          <ns3:TrackPointExtension>
            <ns3:hr>121</ns3:hr>
            <ns3:cad>48</ns3:cad>
          </ns3:TrackPointExtension>
        </extensions>
      </trkpt>
      <trkpt lat="38.05819236673414707183837890625" lon="-106.93554827012121677398681640625">
        <ele>3616.60009765625</ele>
        <time>2026-05-25T12:15:47.000Z</time>
        <extensions>
          <ns3:TrackPointExtension>
            <ns3:hr>124</ns3:hr>
            <ns3:cad>0</ns3:cad>
          </ns3:TrackPointExtension>
        </extensions>
      </trkpt>
      <trkpt lat="38.0582122318446636199951171875" lon="-106.93553955294191837310791015625">
        <ele>3616.60009765625</ele>
        <time>2026-05-25T12:15:49.000Z</time>
        <extensions>
          <ns3:TrackPointExtension>
            <ns3:hr>125</ns3:hr>
            <ns3:cad>0</ns3:cad>
          </ns3:TrackPointExtension>
        </extensions>
      </trkpt>
      <trkpt lat="38.0582541413605213165283203125" lon="-106.93551742471754550933837890625">
        <ele>3617.39990234375</ele>
        <time>2026-05-25T12:15:53.000Z</time>
        <extensions>
          <ns3:TrackPointExtension>
            <ns3:hr>127</ns3:hr>
            <ns3:cad>47</ns3:cad>
          </ns3:TrackPointExtension>
        </extensions>
      </trkpt>
      <trkpt lat="38.058270402252674102783203125" lon="-106.93550317548215389251708984375">
        <ele>3618.199951171875</ele>
        <time>2026-05-25T12:15:56.000Z</time>
        <extensions>
          <ns3:TrackPointExtension>
            <ns3:hr>127</ns3:hr>
            <ns3:cad>0</ns3:cad>
          </ns3:TrackPointExtension>
        </extensions>
      </trkpt>
      <trkpt lat="38.05828683078289031982421875" lon="-106.93549881689250469207763671875">
        <ele>3618.60009765625</ele>
        <time>2026-05-25T12:15:57.000Z</time>
        <extensions>
          <ns3:TrackPointExtension>
            <ns3:hr>126</ns3:hr>
            <ns3:cad>0</ns3:cad>
          </ns3:TrackPointExtension>
        </extensions>
      </trkpt>
      <trkpt lat="38.0583349429070949554443359375" lon="-106.93554257042706012725830078125">
        <ele>3618.800048828125</ele>
        <time>2026-05-25T12:16:03.000Z</time>
        <extensions>
          <ns3:TrackPointExtension>
            <ns3:hr>124</ns3:hr>
            <ns3:cad>0</ns3:cad>
          </ns3:TrackPointExtension>
        </extensions>
      </trkpt>
      <trkpt lat="38.0583550594747066497802734375" lon="-106.93557241000235080718994140625">
        <ele>3619</ele>
        <time>2026-05-25T12:16:06.000Z</time>
        <extensions>
          <ns3:TrackPointExtension>
            <ns3:hr>128</ns3:hr>
            <ns3:cad>0</ns3:cad>
          </ns3:TrackPointExtension>
        </extensions>
      </trkpt>
      <trkpt lat="38.0583674646914005279541015625" lon="-106.93559051491320133209228515625">
        <ele>3619</ele>
        <time>2026-05-25T12:16:08.000Z</time>
        <extensions>
          <ns3:TrackPointExtension>
            <ns3:hr>129</ns3:hr>
            <ns3:cad>0</ns3:cad>
          </ns3:TrackPointExtension>
        </extensions>
      </trkpt>
      <trkpt lat="38.05838716216385364532470703125" lon="-106.935620941221714019775390625">
        <ele>3619.60009765625</ele>
        <time>2026-05-25T12:16:12.000Z</time>
        <extensions>
          <ns3:TrackPointExtension>
            <ns3:hr>130</ns3:hr>
            <ns3:cad>0</ns3:cad>
          </ns3:TrackPointExtension>
        </extensions>
      </trkpt>
      <trkpt lat="38.05840618908405303955078125" lon="-106.93567316047847270965576171875">
        <ele>3620.39990234375</ele>
        <time>2026-05-25T12:16:15.000Z</time>
        <extensions>
          <ns3:TrackPointExtension>
            <ns3:hr>129</ns3:hr>
            <ns3:cad>0</ns3:cad>
          </ns3:TrackPointExtension>
        </extensions>
      </trkpt>
      <trkpt lat="38.058411218225955963134765625" lon="-106.93571389652788639068603515625">
        <ele>3620.60009765625</ele>
        <time>2026-05-25T12:16:18.000Z</time>
        <extensions>
          <ns3:TrackPointExtension>
            <ns3:hr>129</ns3:hr>
            <ns3:cad>0</ns3:cad>
          </ns3:TrackPointExtension>
        </extensions>
      </trkpt>
      <trkpt lat="38.05842052213847637176513671875" lon="-106.9358011521399021148681640625">
        <ele>3621.39990234375</ele>
        <time>2026-05-25T12:16:24.000Z</time>
        <extensions>
          <ns3:TrackPointExtension>
            <ns3:hr>127</ns3:hr>
            <ns3:cad>0</ns3:cad>
          </ns3:TrackPointExtension>
        </extensions>
      </trkpt>
      <trkpt lat="38.05842990987002849578857421875" lon="-106.935836859047412872314453125">
        <ele>3621.60009765625</ele>
        <time>2026-05-25T12:16:27.000Z</time>
        <extensions>
          <ns3:TrackPointExtension>
            <ns3:hr>127</ns3:hr>
            <ns3:cad>0</ns3:cad>
          </ns3:TrackPointExtension>
        </extensions>
      </trkpt>
      <trkpt lat="38.0584294907748699188232421875" lon="-106.93589025177061557769775390625">
        <ele>3621.800048828125</ele>
        <time>2026-05-25T12:16:31.000Z</time>
        <extensions>
          <ns3:TrackPointExtension>
            <ns3:hr>127</ns3:hr>
            <ns3:cad>52</ns3:cad>
          </ns3:TrackPointExtension>
        </extensions>
      </trkpt>
      <trkpt lat="38.0584553070366382598876953125" lon="-106.9359604083001613616943359375">
        <ele>3622</ele>
        <time>2026-05-25T12:16:36.000Z</time>
        <extensions>
          <ns3:TrackPointExtension>
            <ns3:hr>128</ns3:hr>
            <ns3:cad>47</ns3:cad>
          </ns3:TrackPointExtension>
        </extensions>
      </trkpt>
      <trkpt lat="38.05845941416919231414794921875" lon="-106.93597608245909214019775390625">
        <ele>3622.199951171875</ele>
        <time>2026-05-25T12:16:37.000Z</time>
        <extensions>
          <ns3:TrackPointExtension>
            <ns3:hr>127</ns3:hr>
            <ns3:cad>47</ns3:cad>
          </ns3:TrackPointExtension>
        </extensions>
      </trkpt>
      <trkpt lat="38.05846645496785640716552734375" lon="-106.93602721206843852996826171875">
        <ele>3622.39990234375</ele>
        <time>2026-05-25T12:16:42.000Z</time>
        <extensions>
          <ns3:TrackPointExtension>
            <ns3:hr>129</ns3:hr>
            <ns3:cad>0</ns3:cad>
          </ns3:TrackPointExtension>
        </extensions>
      </trkpt>
      <trkpt lat="38.05846645496785640716552734375" lon="-106.93602721206843852996826171875">
        <ele>3622.39990234375</ele>
        <time>2026-05-25T12:16:43.000Z</time>
        <extensions>
          <ns3:TrackPointExtension>
            <ns3:hr>129</ns3:hr>
            <ns3:cad>0</ns3:cad>
          </ns3:TrackPointExtension>
        </extensions>
      </trkpt>
      <trkpt lat="38.05846645496785640716552734375" lon="-106.9360671937465667724609375">
        <ele>3622.800048828125</ele>
        <time>2026-05-25T12:16:45.000Z</time>
        <extensions>
          <ns3:TrackPointExtension>
            <ns3:hr>128</ns3:hr>
            <ns3:cad>16</ns3:cad>
          </ns3:TrackPointExtension>
        </extensions>
      </trkpt>
      <trkpt lat="38.05847064591944217681884765625" lon="-106.93613617680966854095458984375">
        <ele>3623.39990234375</ele>
        <time>2026-05-25T12:16:50.000Z</time>
        <extensions>
          <ns3:TrackPointExtension>
            <ns3:hr>127</ns3:hr>
            <ns3:cad>51</ns3:cad>
          </ns3:TrackPointExtension>
        </extensions>
      </trkpt>
      <trkpt lat="38.05847852490842342376708984375" lon="-106.93620641715824604034423828125">
        <ele>3623.39990234375</ele>
        <time>2026-05-25T12:16:56.000Z</time>
        <extensions>
          <ns3:TrackPointExtension>
            <ns3:hr>125</ns3:hr>
            <ns3:cad>51</ns3:cad>
          </ns3:TrackPointExtension>
        </extensions>
      </trkpt>
      <trkpt lat="38.0584727413952350616455078125" lon="-106.936228461563587188720703125">
        <ele>3623.60009765625</ele>
        <time>2026-05-25T12:16:58.000Z</time>
        <extensions>
          <ns3:TrackPointExtension>
            <ns3:hr>125</ns3:hr>
            <ns3:cad>0</ns3:cad>
          </ns3:TrackPointExtension>
        </extensions>
      </trkpt>
      <trkpt lat="38.058464862406253814697265625" lon="-106.936253942549228668212890625">
        <ele>3623.800048828125</ele>
        <time>2026-05-25T12:16:59.000Z</time>
        <extensions>
          <ns3:TrackPointExtension>
            <ns3:hr>125</ns3:hr>
            <ns3:cad>0</ns3:cad>
          </ns3:TrackPointExtension>
        </extensions>
      </trkpt>
      <trkpt lat="38.05846293456852436065673828125" lon="-106.93630716763436794281005859375">
        <ele>3624.39990234375</ele>
        <time>2026-05-25T12:17:04.000Z</time>
        <extensions>
          <ns3:TrackPointExtension>
            <ns3:hr>124</ns3:hr>
            <ns3:cad>48</ns3:cad>
          </ns3:TrackPointExtension>
        </extensions>
      </trkpt>
      <trkpt lat="38.0584801174700260162353515625" lon="-106.9363691098988056182861328125">
        <ele>3624.39990234375</ele>
        <time>2026-05-25T12:17:10.000Z</time>
        <extensions>
          <ns3:TrackPointExtension>
            <ns3:hr>123</ns3:hr>
            <ns3:cad>45</ns3:cad>
          </ns3:TrackPointExtension>
        </extensions>
      </trkpt>
      <trkpt lat="38.05848590098321437835693359375" lon="-106.93637941963970661163330078125">
        <ele>3624.39990234375</ele>
        <time>2026-05-25T12:17:11.000Z</time>
        <extensions>
          <ns3:TrackPointExtension>
            <ns3:hr>123</ns3:hr>
            <ns3:cad>0</ns3:cad>
          </ns3:TrackPointExtension>
        </extensions>
      </trkpt>
      <trkpt lat="38.05848523043096065521240234375" lon="-106.93639148958027362823486328125">
        <ele>3624.800048828125</ele>
        <time>2026-05-25T12:17:12.000Z</time>
        <extensions>
          <ns3:TrackPointExtension>
            <ns3:hr>124</ns3:hr>
            <ns3:cad>0</ns3:cad>
          </ns3:TrackPointExtension>
        </extensions>
      </trkpt>
      <trkpt lat="38.05847701616585254669189453125" lon="-106.9364297948777675628662109375">
        <ele>3625.60009765625</ele>
        <time>2026-05-25T12:17:18.000Z</time>
        <extensions>
          <ns3:TrackPointExtension>
            <ns3:hr>124</ns3:hr>
            <ns3:cad>0</ns3:cad>
          </ns3:TrackPointExtension>
        </extensions>
      </trkpt>
      <trkpt lat="38.05847785435616970062255859375" lon="-106.93643189035356044769287109375">
        <ele>3625.800048828125</ele>
        <time>2026-05-25T12:17:20.000Z</time>
        <extensions>
          <ns3:TrackPointExtension>
            <ns3:hr>125</ns3:hr>
            <ns3:cad>0</ns3:cad>
          </ns3:TrackPointExtension>
        </extensions>
      </trkpt>
      <trkpt lat="38.05849193595349788665771484375" lon="-106.936441026628017425537109375">
        <ele>3626.39990234375</ele>
        <time>2026-05-25T12:17:25.000Z</time>
        <extensions>
          <ns3:TrackPointExtension>
            <ns3:hr>126</ns3:hr>
            <ns3:cad>0</ns3:cad>
          </ns3:TrackPointExtension>
        </extensions>
      </trkpt>
      <trkpt lat="38.05851808749139308929443359375" lon="-106.93646860308945178985595703125">
        <ele>3626</ele>
        <time>2026-05-25T12:17:31.000Z</time>
        <extensions>
          <ns3:TrackPointExtension>
            <ns3:hr>126</ns3:hr>
            <ns3:cad>0</ns3:cad>
          </ns3:TrackPointExtension>
        </extensions>
      </trkpt>
      <trkpt lat="38.05854490958154201507568359375" lon="-106.93652643822133541107177734375">
        <ele>3627</ele>
        <time>2026-05-25T12:17:37.000Z</time>
        <extensions>
          <ns3:TrackPointExtension>
            <ns3:hr>126</ns3:hr>
            <ns3:cad>0</ns3:cad>
          </ns3:TrackPointExtension>
        </extensions>
      </trkpt>
      <trkpt lat="38.05854926817119121551513671875" lon="-106.9365367479622364044189453125">
        <ele>3627</ele>
        <time>2026-05-25T12:17:38.000Z</time>
        <extensions>
          <ns3:TrackPointExtension>
            <ns3:hr>126</ns3:hr>
            <ns3:cad>0</ns3:cad>
          </ns3:TrackPointExtension>
        </extensions>
      </trkpt>
      <trkpt lat="38.05857139639556407928466796875" lon="-106.93661830388009548187255859375">
        <ele>3627.39990234375</ele>
        <time>2026-05-25T12:17:43.000Z</time>
        <extensions>
          <ns3:TrackPointExtension>
            <ns3:hr>124</ns3:hr>
            <ns3:cad>0</ns3:cad>
          </ns3:TrackPointExtension>
        </extensions>
      </trkpt>
      <trkpt lat="38.05859603919088840484619140625" lon="-106.9366544298827648162841796875">
        <ele>3628</ele>
        <time>2026-05-25T12:17:47.000Z</time>
        <extensions>
          <ns3:TrackPointExtension>
            <ns3:hr>124</ns3:hr>
            <ns3:cad>0</ns3:cad>
          </ns3:TrackPointExtension>
        </extensions>
      </trkpt>
      <trkpt lat="38.058611042797565460205078125" lon="-106.93668049760162830352783203125">
        <ele>3628.199951171875</ele>
        <time>2026-05-25T12:17:49.000Z</time>
        <extensions>
          <ns3:TrackPointExtension>
            <ns3:hr>123</ns3:hr>
            <ns3:cad>0</ns3:cad>
          </ns3:TrackPointExtension>
        </extensions>
      </trkpt>
      <trkpt lat="38.058633171021938323974609375" lon="-106.93673573434352874755859375">
        <ele>3628.60009765625</ele>
        <time>2026-05-25T12:17:53.000Z</time>
        <extensions>
          <ns3:TrackPointExtension>
            <ns3:hr>126</ns3:hr>
            <ns3:cad>55</ns3:cad>
          </ns3:TrackPointExtension>
        </extensions>
      </trkpt>
      <trkpt lat="38.058644235134124755859375" lon="-106.93676381371915340423583984375">
        <ele>3628.60009765625</ele>
        <time>2026-05-25T12:17:56.000Z</time>
        <extensions>
          <ns3:TrackPointExtension>
            <ns3:hr>128</ns3:hr>
            <ns3:cad>55</ns3:cad>
          </ns3:TrackPointExtension>
        </extensions>
      </trkpt>
      <trkpt lat="38.05866636335849761962890625" lon="-106.93679683841764926910400390625">
        <ele>3629</ele>
        <time>2026-05-25T12:18:00.000Z</time>
        <extensions>
          <ns3:TrackPointExtension>
            <ns3:hr>129</ns3:hr>
            <ns3:cad>50</ns3:cad>
          </ns3:TrackPointExtension>
        </extensions>
      </trkpt>
      <trkpt lat="38.058690838515758514404296875" lon="-106.93684092722833156585693359375">
        <ele>3629</ele>
        <time>2026-05-25T12:18:03.000Z</time>
        <extensions>
          <ns3:TrackPointExtension>
            <ns3:hr>129</ns3:hr>
            <ns3:cad>0</ns3:cad>
          </ns3:TrackPointExtension>
        </extensions>
      </trkpt>
      <trkpt lat="38.05870114825665950775146484375" lon="-106.93689121864736080169677734375">
        <ele>3629.39990234375</ele>
        <time>2026-05-25T12:18:08.000Z</time>
        <extensions>
          <ns3:TrackPointExtension>
            <ns3:hr>124</ns3:hr>
            <ns3:cad>51</ns3:cad>
          </ns3:TrackPointExtension>
        </extensions>
      </trkpt>
      <trkpt lat="38.05870584212243556976318359375" lon="-106.93692340515553951263427734375">
        <ele>3629.800048828125</ele>
        <time>2026-05-25T12:18:10.000Z</time>
        <extensions>
          <ns3:TrackPointExtension>
            <ns3:hr>121</ns3:hr>
            <ns3:cad>50</ns3:cad>
          </ns3:TrackPointExtension>
        </extensions>
      </trkpt>
      <trkpt lat="38.0587081052362918853759765625" lon="-106.9369310326874256134033203125">
        <ele>3630.199951171875</ele>
        <time>2026-05-25T12:18:12.000Z</time>
        <extensions>
          <ns3:TrackPointExtension>
            <ns3:hr>119</ns3:hr>
            <ns3:cad>0</ns3:cad>
          </ns3:TrackPointExtension>
        </extensions>
      </trkpt>
      <trkpt lat="38.05872143246233463287353515625" lon="-106.9369967468082904815673828125">
        <ele>3630.800048828125</ele>
        <time>2026-05-25T12:18:17.000Z</time>
        <extensions>
          <ns3:TrackPointExtension>
            <ns3:hr>118</ns3:hr>
            <ns3:cad>0</ns3:cad>
          </ns3:TrackPointExtension>
        </extensions>
      </trkpt>
      <trkpt lat="38.058729059994220733642578125" lon="-106.9370383210480213165283203125">
        <ele>3631</ele>
        <time>2026-05-25T12:18:20.000Z</time>
        <extensions>
          <ns3:TrackPointExtension>
            <ns3:hr>120</ns3:hr>
            <ns3:cad>0</ns3:cad>
          </ns3:TrackPointExtension>
        </extensions>
      </trkpt>
      <trkpt lat="38.05873182602226734161376953125" lon="-106.9370809011161327362060546875">
        <ele>3631</ele>
        <time>2026-05-25T12:18:22.000Z</time>
        <extensions>
          <ns3:TrackPointExtension>
            <ns3:hr>122</ns3:hr>
            <ns3:cad>0</ns3:cad>
          </ns3:TrackPointExtension>
        </extensions>
      </trkpt>
      <trkpt lat="38.05872830562293529510498046875" lon="-106.93711082451045513153076171875">
        <ele>3631.199951171875</ele>
        <time>2026-05-25T12:18:24.000Z</time>
        <extensions>
          <ns3:TrackPointExtension>
            <ns3:hr>123</ns3:hr>
            <ns3:cad>51</ns3:cad>
          </ns3:TrackPointExtension>
        </extensions>
      </trkpt>
      <trkpt lat="38.058712296187877655029296875" lon="-106.93717561662197113037109375">
        <ele>3631.800048828125</ele>
        <time>2026-05-25T12:18:30.000Z</time>
        <extensions>
          <ns3:TrackPointExtension>
            <ns3:hr>129</ns3:hr>
            <ns3:cad>52</ns3:cad>
          </ns3:TrackPointExtension>
        </extensions>
      </trkpt>
      <trkpt lat="38.0586930178105831146240234375" lon="-106.93720285780727863311767578125">
        <ele>3631.800048828125</ele>
        <time>2026-05-25T12:18:32.000Z</time>
        <extensions>
          <ns3:TrackPointExtension>
            <ns3:hr>132</ns3:hr>
            <ns3:cad>51</ns3:cad>
          </ns3:TrackPointExtension>
        </extensions>
      </trkpt>
      <trkpt lat="38.05864800699055194854736328125" lon="-106.937229931354522705078125">
        <ele>3631.800048828125</ele>
        <time>2026-05-25T12:18:37.000Z</time>
        <extensions>
          <ns3:TrackPointExtension>
            <ns3:hr>133</ns3:hr>
            <ns3:cad>51</ns3:cad>
          </ns3:TrackPointExtension>
        </extensions>
      </trkpt>
      <trkpt lat="38.05860576219856739044189453125" lon="-106.93728215061128139495849609375">
        <ele>3632.199951171875</ele>
        <time>2026-05-25T12:18:42.000Z</time>
        <extensions>
          <ns3:TrackPointExtension>
            <ns3:hr>132</ns3:hr>
            <ns3:cad>52</ns3:cad>
          </ns3:TrackPointExtension>
        </extensions>
      </trkpt>
      <trkpt lat="38.058602996170520782470703125" lon="-106.93729321472346782684326171875">
        <ele>3632.39990234375</ele>
        <time>2026-05-25T12:18:43.000Z</time>
        <extensions>
          <ns3:TrackPointExtension>
            <ns3:hr>132</ns3:hr>
            <ns3:cad>52</ns3:cad>
          </ns3:TrackPointExtension>
        </extensions>
      </trkpt>
      <trkpt lat="38.058600313961505889892578125" lon="-106.9373098947107791900634765625">
        <ele>3632.800048828125</ele>
        <time>2026-05-25T12:18:48.000Z</time>
        <extensions>
          <ns3:TrackPointExtension>
            <ns3:hr>129</ns3:hr>
            <ns3:cad>0</ns3:cad>
          </ns3:TrackPointExtension>
        </extensions>
      </trkpt>
      <trkpt lat="38.058600313961505889892578125" lon="-106.9373098947107791900634765625">
        <ele>3632.800048828125</ele>
        <time>2026-05-25T12:18:49.000Z</time>
        <extensions>
          <ns3:TrackPointExtension>
            <ns3:hr>129</ns3:hr>
            <ns3:cad>0</ns3:cad>
          </ns3:TrackPointExtension>
        </extensions>
      </trkpt>
      <trkpt lat="38.0585760064423084259033203125" lon="-106.93740569986402988433837890625">
        <ele>3633.199951171875</ele>
        <time>2026-05-25T12:18:55.000Z</time>
        <extensions>
          <ns3:TrackPointExtension>
            <ns3:hr>129</ns3:hr>
            <ns3:cad>49</ns3:cad>
          </ns3:TrackPointExtension>
        </extensions>
      </trkpt>
      <trkpt lat="38.05857692845165729522705078125" lon="-106.93742866627871990203857421875">
        <ele>3633.39990234375</ele>
        <time>2026-05-25T12:18:57.000Z</time>
        <extensions>
          <ns3:TrackPointExtension>
            <ns3:hr>128</ns3:hr>
            <ns3:cad>49</ns3:cad>
          </ns3:TrackPointExtension>
        </extensions>
      </trkpt>
      <trkpt lat="38.05856854654848575592041015625" lon="-106.9374725036323070526123046875">
        <ele>3633.60009765625</ele>
        <time>2026-05-25T12:19:00.000Z</time>
        <extensions>
          <ns3:TrackPointExtension>
            <ns3:hr>125</ns3:hr>
            <ns3:cad>0</ns3:cad>
          </ns3:TrackPointExtension>
        </extensions>
      </trkpt>
      <trkpt lat="38.058566115796566009521484375" lon="-106.9374835677444934844970703125">
        <ele>3634</ele>
        <time>2026-05-25T12:19:02.000Z</time>
        <extensions>
          <ns3:TrackPointExtension>
            <ns3:hr>124</ns3:hr>
            <ns3:cad>0</ns3:cad>
          </ns3:TrackPointExtension>
        </extensions>
      </trkpt>
      <trkpt lat="38.058553375303745269775390625" lon="-106.93753193132579326629638671875">
        <ele>3634.39990234375</ele>
        <time>2026-05-25T12:19:05.000Z</time>
        <extensions>
          <ns3:TrackPointExtension>
            <ns3:hr>124</ns3:hr>
            <ns3:cad>0</ns3:cad>
          </ns3:TrackPointExtension>
        </extensions>
      </trkpt>
      <trkpt lat="38.05854574777185916900634765625" lon="-106.93756051361560821533203125">
        <ele>3634.199951171875</ele>
        <time>2026-05-25T12:19:08.000Z</time>
        <extensions>
          <ns3:TrackPointExtension>
            <ns3:hr>124</ns3:hr>
            <ns3:cad>0</ns3:cad>
          </ns3:TrackPointExtension>
        </extensions>
      </trkpt>
      <trkpt lat="38.0585351027548313140869140625" lon="-106.937584988772869110107421875">
        <ele>3634</ele>
        <time>2026-05-25T12:19:14.000Z</time>
        <extensions>
          <ns3:TrackPointExtension>
            <ns3:hr>123</ns3:hr>
            <ns3:cad>0</ns3:cad>
          </ns3:TrackPointExtension>
        </extensions>
      </trkpt>
      <trkpt lat="38.05852822959423065185546875" lon="-106.9375928677618503570556640625">
        <ele>3634.39990234375</ele>
        <time>2026-05-25T12:19:16.000Z</time>
        <extensions>
          <ns3:TrackPointExtension>
            <ns3:hr>122</ns3:hr>
            <ns3:cad>0</ns3:cad>
          </ns3:TrackPointExtension>
        </extensions>
      </trkpt>
      <trkpt lat="38.0585015751421451568603515625" lon="-106.9376845657825469970703125">
        <ele>3635.39990234375</ele>
        <time>2026-05-25T12:19:22.000Z</time>
        <extensions>
          <ns3:TrackPointExtension>
            <ns3:hr>120</ns3:hr>
            <ns3:cad>0</ns3:cad>
          </ns3:TrackPointExtension>
        </extensions>
      </trkpt>
      <trkpt lat="38.05849461816251277923583984375" lon="-106.93769772537052631378173828125">
        <ele>3635.60009765625</ele>
        <time>2026-05-25T12:19:23.000Z</time>
        <extensions>
          <ns3:TrackPointExtension>
            <ns3:hr>120</ns3:hr>
            <ns3:cad>0</ns3:cad>
          </ns3:TrackPointExtension>
        </extensions>
      </trkpt>
      <trkpt lat="38.05848774500191211700439453125" lon="-106.93772555328905582427978515625">
        <ele>3635.800048828125</ele>
        <time>2026-05-25T12:19:26.000Z</time>
        <extensions>
          <ns3:TrackPointExtension>
            <ns3:hr>123</ns3:hr>
            <ns3:cad>0</ns3:cad>
          </ns3:TrackPointExtension>
        </extensions>
      </trkpt>
      <trkpt lat="38.0584576539695262908935546875" lon="-106.93780702538788318634033203125">
        <ele>3636.199951171875</ele>
        <time>2026-05-25T12:19:31.000Z</time>
        <extensions>
          <ns3:TrackPointExtension>
            <ns3:hr>126</ns3:hr>
            <ns3:cad>0</ns3:cad>
          </ns3:TrackPointExtension>
        </extensions>
      </trkpt>
      <trkpt lat="38.05845270864665508270263671875" lon="-106.9378171674907207489013671875">
        <ele>3636.199951171875</ele>
        <time>2026-05-25T12:19:32.000Z</time>
        <extensions>
          <ns3:TrackPointExtension>
            <ns3:hr>126</ns3:hr>
            <ns3:cad>51</ns3:cad>
          </ns3:TrackPointExtension>
        </extensions>
      </trkpt>
      <trkpt lat="38.058436699211597442626953125" lon="-106.93787022493779659271240234375">
        <ele>3636.39990234375</ele>
        <time>2026-05-25T12:19:37.000Z</time>
        <extensions>
          <ns3:TrackPointExtension>
            <ns3:hr>126</ns3:hr>
            <ns3:cad>0</ns3:cad>
          </ns3:TrackPointExtension>
        </extensions>
      </trkpt>
      <trkpt lat="38.05842387489974498748779296875" lon="-106.93789981305599212646484375">
        <ele>3636.39990234375</ele>
        <time>2026-05-25T12:19:38.000Z</time>
        <extensions>
          <ns3:TrackPointExtension>
            <ns3:hr>126</ns3:hr>
            <ns3:cad>0</ns3:cad>
          </ns3:TrackPointExtension>
        </extensions>
      </trkpt>
      <trkpt lat="38.05840308777987957000732421875" lon="-106.93798438645899295806884765625">
        <ele>3636.39990234375</ele>
        <time>2026-05-25T12:19:44.000Z</time>
        <extensions>
          <ns3:TrackPointExtension>
            <ns3:hr>128</ns3:hr>
            <ns3:cad>0</ns3:cad>
          </ns3:TrackPointExtension>
        </extensions>
      </trkpt>
      <trkpt lat="38.05840551853179931640625" lon="-106.93800366483628749847412109375">
        <ele>3636.60009765625</ele>
        <time>2026-05-25T12:19:45.000Z</time>
        <extensions>
          <ns3:TrackPointExtension>
            <ns3:hr>128</ns3:hr>
            <ns3:cad>0</ns3:cad>
          </ns3:TrackPointExtension>
        </extensions>
      </trkpt>
      <trkpt lat="38.05841180495917797088623046875" lon="-106.9380753301084041595458984375">
        <ele>3637.60009765625</ele>
        <time>2026-05-25T12:19:50.000Z</time>
        <extensions>
          <ns3:TrackPointExtension>
            <ns3:hr>128</ns3:hr>
            <ns3:cad>49</ns3:cad>
          </ns3:TrackPointExtension>
        </extensions>
      </trkpt>
      <trkpt lat="38.058410547673702239990234375" lon="-106.938102655112743377685546875">
        <ele>3637.800048828125</ele>
        <time>2026-05-25T12:19:52.000Z</time>
        <extensions>
          <ns3:TrackPointExtension>
            <ns3:hr>128</ns3:hr>
            <ns3:cad>0</ns3:cad>
          </ns3:TrackPointExtension>
        </extensions>
      </trkpt>
      <trkpt lat="38.058403842151165008544921875" lon="-106.9381618313491344451904296875">
        <ele>3638.60009765625</ele>
        <time>2026-05-25T12:19:57.000Z</time>
        <extensions>
          <ns3:TrackPointExtension>
            <ns3:hr>127</ns3:hr>
            <ns3:cad>0</ns3:cad>
          </ns3:TrackPointExtension>
        </extensions>
      </trkpt>
      <trkpt lat="38.05838917382061481475830078125" lon="-106.93818454630672931671142578125">
        <ele>3638.800048828125</ele>
        <time>2026-05-25T12:19:59.000Z</time>
        <extensions>
          <ns3:TrackPointExtension>
            <ns3:hr>127</ns3:hr>
            <ns3:cad>0</ns3:cad>
          </ns3:TrackPointExtension>
        </extensions>
      </trkpt>
      <trkpt lat="38.058326058089733123779296875" lon="-106.93821304477751255035400390625">
        <ele>3639.39990234375</ele>
        <time>2026-05-25T12:20:05.000Z</time>
        <extensions>
          <ns3:TrackPointExtension>
            <ns3:hr>127</ns3:hr>
            <ns3:cad>50</ns3:cad>
          </ns3:TrackPointExtension>
        </extensions>
      </trkpt>
      <trkpt lat="38.05830636061728000640869140625" lon="-106.93820181302726268768310546875">
        <ele>3639.800048828125</ele>
        <time>2026-05-25T12:20:07.000Z</time>
        <extensions>
          <ns3:TrackPointExtension>
            <ns3:hr>128</ns3:hr>
            <ns3:cad>0</ns3:cad>
          </ns3:TrackPointExtension>
        </extensions>
      </trkpt>
      <trkpt lat="38.058296553790569305419921875" lon="-106.93818890489637851715087890625">
        <ele>3639.800048828125</ele>
        <time>2026-05-25T12:20:08.000Z</time>
        <extensions>
          <ns3:TrackPointExtension>
            <ns3:hr>127</ns3:hr>
            <ns3:cad>0</ns3:cad>
          </ns3:TrackPointExtension>
        </extensions>
      </trkpt>
      <trkpt lat="38.05823897011578083038330078125" lon="-106.93817398510873317718505859375">
        <ele>3640</ele>
        <time>2026-05-25T12:20:13.000Z</time>
        <extensions>
          <ns3:TrackPointExtension>
            <ns3:hr>125</ns3:hr>
            <ns3:cad>0</ns3:cad>
          </ns3:TrackPointExtension>
        </extensions>
      </trkpt>
      <trkpt lat="38.05819555185735225677490234375" lon="-106.93815353326499462127685546875">
        <ele>3640.60009765625</ele>
        <time>2026-05-25T12:20:17.000Z</time>
        <extensions>
          <ns3:TrackPointExtension>
            <ns3:hr>122</ns3:hr>
            <ns3:cad>51</ns3:cad>
          </ns3:TrackPointExtension>
        </extensions>
      </trkpt>
      <trkpt lat="38.05815733037889003753662109375" lon="-106.938145570456981658935546875">
        <ele>3640.800048828125</ele>
        <time>2026-05-25T12:20:20.000Z</time>
        <extensions>
          <ns3:TrackPointExtension>
            <ns3:hr>121</ns3:hr>
            <ns3:cad>0</ns3:cad>
          </ns3:TrackPointExtension>
        </extensions>
      </trkpt>
      <trkpt lat="38.0580922029912471771240234375" lon="-106.938177086412906646728515625">
        <ele>3640.60009765625</ele>
        <time>2026-05-25T12:20:26.000Z</time>
        <extensions>
          <ns3:TrackPointExtension>
            <ns3:hr>122</ns3:hr>
            <ns3:cad>52</ns3:cad>
          </ns3:TrackPointExtension>
        </extensions>
      </trkpt>
      <trkpt lat="38.05807803757488727569580078125" lon="-106.9381826184689998626708984375">
        <ele>3640.800048828125</ele>
        <time>2026-05-25T12:20:28.000Z</time>
        <extensions>
          <ns3:TrackPointExtension>
            <ns3:hr>123</ns3:hr>
            <ns3:cad>51</ns3:cad>
          </ns3:TrackPointExtension>
        </extensions>
      </trkpt>
      <trkpt lat="38.05801936425268650054931640625" lon="-106.938193179666996002197265625">
        <ele>3641.199951171875</ele>
        <time>2026-05-25T12:20:34.000Z</time>
        <extensions>
          <ns3:TrackPointExtension>
            <ns3:hr>122</ns3:hr>
            <ns3:cad>52</ns3:cad>
          </ns3:TrackPointExtension>
        </extensions>
      </trkpt>
      <trkpt lat="38.0579487048089504241943359375" lon="-106.93824556656181812286376953125">
        <ele>3641.60009765625</ele>
        <time>2026-05-25T12:20:40.000Z</time>
        <extensions>
          <ns3:TrackPointExtension>
            <ns3:hr>122</ns3:hr>
            <ns3:cad>0</ns3:cad>
          </ns3:TrackPointExtension>
        </extensions>
      </trkpt>
      <trkpt lat="38.05793940089643001556396484375" lon="-106.9382567144930362701416015625">
        <ele>3641.39990234375</ele>
        <time>2026-05-25T12:20:41.000Z</time>
        <extensions>
          <ns3:TrackPointExtension>
            <ns3:hr>123</ns3:hr>
            <ns3:cad>0</ns3:cad>
          </ns3:TrackPointExtension>
        </extensions>
      </trkpt>
      <trkpt lat="38.057904951274394989013671875" lon="-106.93828512914478778839111328125">
        <ele>3641.199951171875</ele>
        <time>2026-05-25T12:20:47.000Z</time>
        <extensions>
          <ns3:TrackPointExtension>
            <ns3:hr>123</ns3:hr>
            <ns3:cad>0</ns3:cad>
          </ns3:TrackPointExtension>
        </extensions>
      </trkpt>
      <trkpt lat="38.05788642726838588714599609375" lon="-106.93830323405563831329345703125">
        <ele>3641.800048828125</ele>
        <time>2026-05-25T12:20:50.000Z</time>
        <extensions>
          <ns3:TrackPointExtension>
            <ns3:hr>123</ns3:hr>
            <ns3:cad>0</ns3:cad>
          </ns3:TrackPointExtension>
        </extensions>
      </trkpt>
      <trkpt lat="38.05787779390811920166015625" lon="-106.938309855759143829345703125">
        <ele>3642</ele>
        <time>2026-05-25T12:20:51.000Z</time>
        <extensions>
          <ns3:TrackPointExtension>
            <ns3:hr>126</ns3:hr>
            <ns3:cad>0</ns3:cad>
          </ns3:TrackPointExtension>
        </extensions>
      </trkpt>
      <trkpt lat="38.0578692443668842315673828125" lon="-106.93831949494779109954833984375">
        <ele>3642.199951171875</ele>
        <time>2026-05-25T12:20:52.000Z</time>
        <extensions>
          <ns3:TrackPointExtension>
            <ns3:hr>131</ns3:hr>
            <ns3:cad>0</ns3:cad>
          </ns3:TrackPointExtension>
        </extensions>
      </trkpt>
      <trkpt lat="38.0578650534152984619140625" lon="-106.9383261166512966156005859375">
        <ele>3642.199951171875</ele>
        <time>2026-05-25T12:20:54.000Z</time>
        <extensions>
          <ns3:TrackPointExtension>
            <ns3:hr>134</ns3:hr>
            <ns3:cad>0</ns3:cad>
          </ns3:TrackPointExtension>
        </extensions>
      </trkpt>
      <trkpt lat="38.0578578449785709381103515625" lon="-106.93833701312541961669921875">
        <ele>3642.199951171875</ele>
        <time>2026-05-25T12:20:55.000Z</time>
        <extensions>
          <ns3:TrackPointExtension>
            <ns3:hr>134</ns3:hr>
            <ns3:cad>0</ns3:cad>
          </ns3:TrackPointExtension>
        </extensions>
      </trkpt>
      <trkpt lat="38.05781668983399868011474609375" lon="-106.93837431259453296661376953125">
        <ele>3642.800048828125</ele>
        <time>2026-05-25T12:21:01.000Z</time>
        <extensions>
          <ns3:TrackPointExtension>
            <ns3:hr>133</ns3:hr>
            <ns3:cad>0</ns3:cad>
          </ns3:TrackPointExtension>
        </extensions>
      </trkpt>
      <trkpt lat="38.05780830793082714080810546875" lon="-106.93837716244161128997802734375">
        <ele>3642.800048828125</ele>
        <time>2026-05-25T12:21:02.000Z</time>
        <extensions>
          <ns3:TrackPointExtension>
            <ns3:hr>132</ns3:hr>
            <ns3:cad>0</ns3:cad>
          </ns3:TrackPointExtension>
        </extensions>
      </trkpt>
      <trkpt lat="38.05778718553483486175537109375" lon="-106.93839074112474918365478515625">
        <ele>3643.199951171875</ele>
        <time>2026-05-25T12:21:05.000Z</time>
        <extensions>
          <ns3:TrackPointExtension>
            <ns3:hr>129</ns3:hr>
            <ns3:cad>51</ns3:cad>
          </ns3:TrackPointExtension>
        </extensions>
      </trkpt>
      <trkpt lat="38.057760111987590789794921875" lon="-106.9384060800075531005859375">
        <ele>3644.199951171875</ele>
        <time>2026-05-25T12:21:08.000Z</time>
        <extensions>
          <ns3:TrackPointExtension>
            <ns3:hr>126</ns3:hr>
            <ns3:cad>51</ns3:cad>
          </ns3:TrackPointExtension>
        </extensions>
      </trkpt>
      <trkpt lat="38.05775684304535388946533203125" lon="-106.93840934894979000091552734375">
        <ele>3644.199951171875</ele>
        <time>2026-05-25T12:21:10.000Z</time>
        <extensions>
          <ns3:TrackPointExtension>
            <ns3:hr>125</ns3:hr>
            <ns3:cad>0</ns3:cad>
          </ns3:TrackPointExtension>
        </extensions>
      </trkpt>
      <trkpt lat="38.05775684304535388946533203125" lon="-106.93840951658785343170166015625">
        <ele>3644</ele>
        <time>2026-05-25T12:21:16.000Z</time>
        <extensions>
          <ns3:TrackPointExtension>
            <ns3:hr>125</ns3:hr>
            <ns3:cad>0</ns3:cad>
          </ns3:TrackPointExtension>
        </extensions>
      </trkpt>
      <trkpt lat="38.05775684304535388946533203125" lon="-106.93840951658785343170166015625">
        <ele>3644.199951171875</ele>
        <time>2026-05-25T12:21:22.000Z</time>
        <extensions>
          <ns3:TrackPointExtension>
            <ns3:hr>126</ns3:hr>
            <ns3:cad>0</ns3:cad>
          </ns3:TrackPointExtension>
        </extensions>
      </trkpt>
      <trkpt lat="38.05775684304535388946533203125" lon="-106.93840951658785343170166015625">
        <ele>3644.199951171875</ele>
        <time>2026-05-25T12:21:24.000Z</time>
        <extensions>
          <ns3:TrackPointExtension>
            <ns3:hr>126</ns3:hr>
            <ns3:cad>0</ns3:cad>
          </ns3:TrackPointExtension>
        </extensions>
      </trkpt>
      <trkpt lat="38.05770353414118289947509765625" lon="-106.9383985362946987152099609375">
        <ele>3644.199951171875</ele>
        <time>2026-05-25T12:21:30.000Z</time>
        <extensions>
          <ns3:TrackPointExtension>
            <ns3:hr>128</ns3:hr>
            <ns3:cad>50</ns3:cad>
          </ns3:TrackPointExtension>
        </extensions>
      </trkpt>
      <trkpt lat="38.05763698183000087738037109375" lon="-106.93838688544929027557373046875">
        <ele>3644.800048828125</ele>
        <time>2026-05-25T12:21:36.000Z</time>
        <extensions>
          <ns3:TrackPointExtension>
            <ns3:hr>127</ns3:hr>
            <ns3:cad>53</ns3:cad>
          </ns3:TrackPointExtension>
        </extensions>
      </trkpt>
      <trkpt lat="38.05758853442966938018798828125" lon="-106.938376240432262420654296875">
        <ele>3645.199951171875</ele>
        <time>2026-05-25T12:21:39.000Z</time>
        <extensions>
          <ns3:TrackPointExtension>
            <ns3:hr>128</ns3:hr>
            <ns3:cad>53</ns3:cad>
          </ns3:TrackPointExtension>
        </extensions>
      </trkpt>
      <trkpt lat="38.0575753748416900634765625" lon="-106.9383765757083892822265625">
        <ele>3645.199951171875</ele>
        <time>2026-05-25T12:21:40.000Z</time>
        <extensions>
          <ns3:TrackPointExtension>
            <ns3:hr>129</ns3:hr>
            <ns3:cad>53</ns3:cad>
          </ns3:TrackPointExtension>
        </extensions>
      </trkpt>
      <trkpt lat="38.057534135878086090087890625" lon="-106.938390992581844329833984375">
        <ele>3646</ele>
        <time>2026-05-25T12:21:44.000Z</time>
        <extensions>
          <ns3:TrackPointExtension>
            <ns3:hr>129</ns3:hr>
            <ns3:cad>49</ns3:cad>
          </ns3:TrackPointExtension>
        </extensions>
      </trkpt>
      <trkpt lat="38.05752952583134174346923828125" lon="-106.93840867839753627777099609375">
        <ele>3646.199951171875</ele>
        <time>2026-05-25T12:21:45.000Z</time>
        <extensions>
          <ns3:TrackPointExtension>
            <ns3:hr>128</ns3:hr>
            <ns3:cad>50</ns3:cad>
          </ns3:TrackPointExtension>
        </extensions>
      </trkpt>
      <trkpt lat="38.05752952583134174346923828125" lon="-106.93840867839753627777099609375">
        <ele>3646.39990234375</ele>
        <time>2026-05-25T12:21:46.000Z</time>
        <extensions>
          <ns3:TrackPointExtension>
            <ns3:hr>127</ns3:hr>
            <ns3:cad>50</ns3:cad>
          </ns3:TrackPointExtension>
        </extensions>
      </trkpt>
      <trkpt lat="38.05750253610312938690185546875" lon="-106.93848109804093837738037109375">
        <ele>3647.199951171875</ele>
        <time>2026-05-25T12:21:51.000Z</time>
        <extensions>
          <ns3:TrackPointExtension>
            <ns3:hr>126</ns3:hr>
            <ns3:cad>0</ns3:cad>
          </ns3:TrackPointExtension>
        </extensions>
      </trkpt>
      <trkpt lat="38.05750069208443164825439453125" lon="-106.9384779967367649078369140625">
        <ele>3647.39990234375</ele>
        <time>2026-05-25T12:21:53.000Z</time>
        <extensions>
          <ns3:TrackPointExtension>
            <ns3:hr>127</ns3:hr>
            <ns3:cad>0</ns3:cad>
          </ns3:TrackPointExtension>
        </extensions>
      </trkpt>
      <trkpt lat="38.057484515011310577392578125" lon="-106.938485540449619293212890625">
        <ele>3647.60009765625</ele>
        <time>2026-05-25T12:21:54.000Z</time>
        <extensions>
          <ns3:TrackPointExtension>
            <ns3:hr>127</ns3:hr>
            <ns3:cad>0</ns3:cad>
          </ns3:TrackPointExtension>
        </extensions>
      </trkpt>
      <trkpt lat="38.05747470818459987640380859375" lon="-106.93848864175379276275634765625">
        <ele>3648</ele>
        <time>2026-05-25T12:21:56.000Z</time>
        <extensions>
          <ns3:TrackPointExtension>
            <ns3:hr>127</ns3:hr>
            <ns3:cad>0</ns3:cad>
          </ns3:TrackPointExtension>
        </extensions>
      </trkpt>
      <trkpt lat="38.05746297352015972137451171875" lon="-106.93849149160087108612060546875">
        <ele>3648.39990234375</ele>
        <time>2026-05-25T12:21:58.000Z</time>
        <extensions>
          <ns3:TrackPointExtension>
            <ns3:hr>127</ns3:hr>
            <ns3:cad>0</ns3:cad>
          </ns3:TrackPointExtension>
        </extensions>
      </trkpt>
      <trkpt lat="38.0574380792677402496337890625" lon="-106.93850490264594554901123046875">
        <ele>3649.199951171875</ele>
        <time>2026-05-25T12:22:01.000Z</time>
        <extensions>
          <ns3:TrackPointExtension>
            <ns3:hr>127</ns3:hr>
            <ns3:cad>0</ns3:cad>
          </ns3:TrackPointExtension>
        </extensions>
      </trkpt>
      <trkpt lat="38.05742709897458553314208984375" lon="-106.93851982243359088897705078125">
        <ele>3649.60009765625</ele>
        <time>2026-05-25T12:22:03.000Z</time>
        <extensions>
          <ns3:TrackPointExtension>
            <ns3:hr>127</ns3:hr>
            <ns3:cad>0</ns3:cad>
          </ns3:TrackPointExtension>
        </extensions>
      </trkpt>
      <trkpt lat="38.0574058927595615386962890625" lon="-106.9385530985891819000244140625">
        <ele>3650.199951171875</ele>
        <time>2026-05-25T12:22:07.000Z</time>
        <extensions>
          <ns3:TrackPointExtension>
            <ns3:hr>127</ns3:hr>
            <ns3:cad>47</ns3:cad>
          </ns3:TrackPointExtension>
        </extensions>
      </trkpt>
      <trkpt lat="38.0573876202106475830078125" lon="-106.9385758973658084869384765625">
        <ele>3650.60009765625</ele>
        <time>2026-05-25T12:22:10.000Z</time>
        <extensions>
          <ns3:TrackPointExtension>
            <ns3:hr>127</ns3:hr>
            <ns3:cad>0</ns3:cad>
          </ns3:TrackPointExtension>
        </extensions>
      </trkpt>
      <trkpt lat="38.0573706887662410736083984375" lon="-106.9386054016649723052978515625">
        <ele>3651.199951171875</ele>
        <time>2026-05-25T12:22:13.000Z</time>
        <extensions>
          <ns3:TrackPointExtension>
            <ns3:hr>127</ns3:hr>
            <ns3:cad>0</ns3:cad>
          </ns3:TrackPointExtension>
        </extensions>
      </trkpt>
      <trkpt lat="38.05735484696924686431884765625" lon="-106.9386188127100467681884765625">
        <ele>3651.800048828125</ele>
        <time>2026-05-25T12:22:17.000Z</time>
        <extensions>
          <ns3:TrackPointExtension>
            <ns3:hr>129</ns3:hr>
            <ns3:cad>0</ns3:cad>
          </ns3:TrackPointExtension>
        </extensions>
      </trkpt>
      <trkpt lat="38.05731184780597686767578125" lon="-106.93865644745528697967529296875">
        <ele>3652.60009765625</ele>
        <time>2026-05-25T12:22:22.000Z</time>
        <extensions>
          <ns3:TrackPointExtension>
            <ns3:hr>131</ns3:hr>
            <ns3:cad>0</ns3:cad>
          </ns3:TrackPointExtension>
        </extensions>
      </trkpt>
      <trkpt lat="38.057304136455059051513671875" lon="-106.938671953976154327392578125">
        <ele>3652.800048828125</ele>
        <time>2026-05-25T12:22:24.000Z</time>
        <extensions>
          <ns3:TrackPointExtension>
            <ns3:hr>132</ns3:hr>
            <ns3:cad>0</ns3:cad>
          </ns3:TrackPointExtension>
        </extensions>
      </trkpt>
      <trkpt lat="38.05728125385940074920654296875" lon="-106.9387043081223964691162109375">
        <ele>3653.39990234375</ele>
        <time>2026-05-25T12:22:28.000Z</time>
        <extensions>
          <ns3:TrackPointExtension>
            <ns3:hr>132</ns3:hr>
            <ns3:cad>0</ns3:cad>
          </ns3:TrackPointExtension>
        </extensions>
      </trkpt>
      <trkpt lat="38.05727706290781497955322265625" lon="-106.938713528215885162353515625">
        <ele>3653.800048828125</ele>
        <time>2026-05-25T12:22:30.000Z</time>
        <extensions>
          <ns3:TrackPointExtension>
            <ns3:hr>133</ns3:hr>
            <ns3:cad>0</ns3:cad>
          </ns3:TrackPointExtension>
        </extensions>
      </trkpt>
      <trkpt lat="38.057255186140537261962890625" lon="-106.93878091871738433837890625">
        <ele>3654.800048828125</ele>
        <time>2026-05-25T12:22:36.000Z</time>
        <extensions>
          <ns3:TrackPointExtension>
            <ns3:hr>135</ns3:hr>
            <ns3:cad>0</ns3:cad>
          </ns3:TrackPointExtension>
        </extensions>
      </trkpt>
      <trkpt lat="38.057251833379268646240234375" lon="-106.93880044855177402496337890625">
        <ele>3655</ele>
        <time>2026-05-25T12:22:38.000Z</time>
        <extensions>
          <ns3:TrackPointExtension>
            <ns3:hr>135</ns3:hr>
            <ns3:cad>0</ns3:cad>
          </ns3:TrackPointExtension>
        </extensions>
      </trkpt>
      <trkpt lat="38.05722660385072231292724609375" lon="-106.93882919847965240478515625">
        <ele>3655.60009765625</ele>
        <time>2026-05-25T12:22:43.000Z</time>
        <extensions>
          <ns3:TrackPointExtension>
            <ns3:hr>136</ns3:hr>
            <ns3:cad>71</ns3:cad>
          </ns3:TrackPointExtension>
        </extensions>
      </trkpt>
      <trkpt lat="38.0572188086807727813720703125" lon="-106.93883850239217281341552734375">
        <ele>3656</ele>
        <time>2026-05-25T12:22:45.000Z</time>
        <extensions>
          <ns3:TrackPointExtension>
            <ns3:hr>137</ns3:hr>
            <ns3:cad>66</ns3:cad>
          </ns3:TrackPointExtension>
        </extensions>
      </trkpt>
      <trkpt lat="38.0571836046874523162841796875" lon="-106.93885761313140392303466796875">
        <ele>3656</ele>
        <time>2026-05-25T12:22:49.000Z</time>
        <extensions>
          <ns3:TrackPointExtension>
            <ns3:hr>140</ns3:hr>
            <ns3:cad>0</ns3:cad>
          </ns3:TrackPointExtension>
        </extensions>
      </trkpt>
      <trkpt lat="38.0571383424103260040283203125" lon="-106.93890706636011600494384765625">
        <ele>3656.800048828125</ele>
        <time>2026-05-25T12:22:55.000Z</time>
        <extensions>
          <ns3:TrackPointExtension>
            <ns3:hr>141</ns3:hr>
            <ns3:cad>77</ns3:cad>
          </ns3:TrackPointExtension>
        </extensions>
      </trkpt>
      <trkpt lat="38.05713079869747161865234375" lon="-106.93891695700585842132568359375">
        <ele>3657</ele>
        <time>2026-05-25T12:22:56.000Z</time>
        <extensions>
          <ns3:TrackPointExtension>
            <ns3:hr>141</ns3:hr>
            <ns3:cad>43</ns3:cad>
          </ns3:TrackPointExtension>
        </extensions>
      </trkpt>
      <trkpt lat="38.05712585337460041046142578125" lon="-106.938926093280315399169921875">
        <ele>3657</ele>
        <time>2026-05-25T12:22:57.000Z</time>
        <extensions>
          <ns3:TrackPointExtension>
            <ns3:hr>141</ns3:hr>
            <ns3:cad>43</ns3:cad>
          </ns3:TrackPointExtension>
        </extensions>
      </trkpt>
      <trkpt lat="38.0571128614246845245361328125" lon="-106.93894143216311931610107421875">
        <ele>3657.60009765625</ele>
        <time>2026-05-25T12:23:00.000Z</time>
        <extensions>
          <ns3:TrackPointExtension>
            <ns3:hr>137</ns3:hr>
            <ns3:cad>43</ns3:cad>
          </ns3:TrackPointExtension>
        </extensions>
      </trkpt>
      <trkpt lat="38.05707086808979511260986328125" lon="-106.93896104581654071807861328125">
        <ele>3657.800048828125</ele>
        <time>2026-05-25T12:23:04.000Z</time>
        <extensions>
          <ns3:TrackPointExtension>
            <ns3:hr>135</ns3:hr>
            <ns3:cad>43</ns3:cad>
          </ns3:TrackPointExtension>
        </extensions>
      </trkpt>
      <trkpt lat="38.05705301463603973388671875" lon="-106.9389701820909976959228515625">
        <ele>3658.199951171875</ele>
        <time>2026-05-25T12:23:06.000Z</time>
        <extensions>
          <ns3:TrackPointExtension>
            <ns3:hr>136</ns3:hr>
            <ns3:cad>43</ns3:cad>
          </ns3:TrackPointExtension>
        </extensions>
      </trkpt>
      <trkpt lat="38.05702074430882930755615234375" lon="-106.93896641023457050323486328125">
        <ele>3658.39990234375</ele>
        <time>2026-05-25T12:23:10.000Z</time>
        <extensions>
          <ns3:TrackPointExtension>
            <ns3:hr>136</ns3:hr>
            <ns3:cad>0</ns3:cad>
          </ns3:TrackPointExtension>
        </extensions>
      </trkpt>
      <trkpt lat="38.05700984783470630645751953125" lon="-106.93895702250301837921142578125">
        <ele>3658.39990234375</ele>
        <time>2026-05-25T12:23:11.000Z</time>
        <extensions>
          <ns3:TrackPointExtension>
            <ns3:hr>136</ns3:hr>
            <ns3:cad>45</ns3:cad>
          </ns3:TrackPointExtension>
        </extensions>
      </trkpt>
      <trkpt lat="38.05695972405374050140380859375" lon="-106.93893774412572383880615234375">
        <ele>3659</ele>
        <time>2026-05-25T12:23:17.000Z</time>
        <extensions>
          <ns3:TrackPointExtension>
            <ns3:hr>136</ns3:hr>
            <ns3:cad>49</ns3:cad>
          </ns3:TrackPointExtension>
        </extensions>
      </trkpt>
      <trkpt lat="38.05693424306809902191162109375" lon="-106.9389249198138713836669921875">
        <ele>3659</ele>
        <time>2026-05-25T12:23:19.000Z</time>
        <extensions>
          <ns3:TrackPointExtension>
            <ns3:hr>136</ns3:hr>
            <ns3:cad>47</ns3:cad>
          </ns3:TrackPointExtension>
        </extensions>
      </trkpt>
      <trkpt lat="38.05691446177661418914794921875" lon="-106.93891997449100017547607421875">
        <ele>3659.199951171875</ele>
        <time>2026-05-25T12:23:21.000Z</time>
        <extensions>
          <ns3:TrackPointExtension>
            <ns3:hr>138</ns3:hr>
            <ns3:cad>47</ns3:cad>
          </ns3:TrackPointExtension>
        </extensions>
      </trkpt>
      <trkpt lat="38.05689183063805103302001953125" lon="-106.938918717205524444580078125">
        <ele>3659.60009765625</ele>
        <time>2026-05-25T12:23:24.000Z</time>
        <extensions>
          <ns3:TrackPointExtension>
            <ns3:hr>141</ns3:hr>
            <ns3:cad>47</ns3:cad>
          </ns3:TrackPointExtension>
        </extensions>
      </trkpt>
      <trkpt lat="38.05686400271952152252197265625" lon="-106.93892173469066619873046875">
        <ele>3659.60009765625</ele>
        <time>2026-05-25T12:23:26.000Z</time>
        <extensions>
          <ns3:TrackPointExtension>
            <ns3:hr>142</ns3:hr>
            <ns3:cad>49</ns3:cad>
          </ns3:TrackPointExtension>
        </extensions>
      </trkpt>
      <trkpt lat="38.056821338832378387451171875" lon="-106.93897311575710773468017578125">
        <ele>3660.199951171875</ele>
        <time>2026-05-25T12:23:32.000Z</time>
        <extensions>
          <ns3:TrackPointExtension>
            <ns3:hr>142</ns3:hr>
            <ns3:cad>0</ns3:cad>
          </ns3:TrackPointExtension>
        </extensions>
      </trkpt>
      <trkpt lat="38.05677750147879123687744140625" lon="-106.93900354206562042236328125">
        <ele>3661.199951171875</ele>
        <time>2026-05-25T12:23:38.000Z</time>
        <extensions>
          <ns3:TrackPointExtension>
            <ns3:hr>141</ns3:hr>
            <ns3:cad>0</ns3:cad>
          </ns3:TrackPointExtension>
        </extensions>
      </trkpt>
      <trkpt lat="38.056770376861095428466796875" lon="-106.9390037097036838531494140625">
        <ele>3661.199951171875</ele>
        <time>2026-05-25T12:23:39.000Z</time>
        <extensions>
          <ns3:TrackPointExtension>
            <ns3:hr>140</ns3:hr>
            <ns3:cad>0</ns3:cad>
          </ns3:TrackPointExtension>
        </extensions>
      </trkpt>
      <trkpt lat="38.05675084702670574188232421875" lon="-106.93900731392204761505126953125">
        <ele>3661.199951171875</ele>
        <time>2026-05-25T12:23:40.000Z</time>
        <extensions>
          <ns3:TrackPointExtension>
            <ns3:hr>139</ns3:hr>
            <ns3:cad>0</ns3:cad>
          </ns3:TrackPointExtension>
        </extensions>
      </trkpt>
      <trkpt lat="38.0567142181098461151123046875" lon="-106.93900764919817447662353515625">
        <ele>3661.39990234375</ele>
        <time>2026-05-25T12:23:44.000Z</time>
        <extensions>
          <ns3:TrackPointExtension>
            <ns3:hr>138</ns3:hr>
            <ns3:cad>0</ns3:cad>
          </ns3:TrackPointExtension>
        </extensions>
      </trkpt>
      <trkpt lat="38.056659065186977386474609375" lon="-106.93903916515409946441650390625">
        <ele>3662</ele>
        <time>2026-05-25T12:23:50.000Z</time>
        <extensions>
          <ns3:TrackPointExtension>
            <ns3:hr>138</ns3:hr>
            <ns3:cad>0</ns3:cad>
          </ns3:TrackPointExtension>
        </extensions>
      </trkpt>
      <trkpt lat="38.056659065186977386474609375" lon="-106.93903916515409946441650390625">
        <ele>3662.199951171875</ele>
        <time>2026-05-25T12:23:51.000Z</time>
        <extensions>
          <ns3:TrackPointExtension>
            <ns3:hr>138</ns3:hr>
            <ns3:cad>46</ns3:cad>
          </ns3:TrackPointExtension>
        </extensions>
      </trkpt>
      <trkpt lat="38.0566488392651081085205078125" lon="-106.939044781029224395751953125">
        <ele>3662.199951171875</ele>
        <time>2026-05-25T12:23:52.000Z</time>
        <extensions>
          <ns3:TrackPointExtension>
            <ns3:hr>138</ns3:hr>
            <ns3:cad>46</ns3:cad>
          </ns3:TrackPointExtension>
        </extensions>
      </trkpt>
      <trkpt lat="38.05661807768046855926513671875" lon="-106.93910739384591579437255859375">
        <ele>3662.800048828125</ele>
        <time>2026-05-25T12:23:58.000Z</time>
        <extensions>
          <ns3:TrackPointExtension>
            <ns3:hr>136</ns3:hr>
            <ns3:cad>0</ns3:cad>
          </ns3:TrackPointExtension>
        </extensions>
      </trkpt>
      <trkpt lat="38.056593351066112518310546875" lon="-106.93911217153072357177734375">
        <ele>3663</ele>
        <time>2026-05-25T12:24:00.000Z</time>
        <extensions>
          <ns3:TrackPointExtension>
            <ns3:hr>136</ns3:hr>
            <ns3:cad>0</ns3:cad>
          </ns3:TrackPointExtension>
        </extensions>
      </trkpt>
      <trkpt lat="38.05656619369983673095703125" lon="-106.93913773633539676666259765625">
        <ele>3663.199951171875</ele>
        <time>2026-05-25T12:24:03.000Z</time>
        <extensions>
          <ns3:TrackPointExtension>
            <ns3:hr>136</ns3:hr>
            <ns3:cad>0</ns3:cad>
          </ns3:TrackPointExtension>
        </extensions>
      </trkpt>
      <trkpt lat="38.05655135773122310638427734375" lon="-106.93914142437279224395751953125">
        <ele>3663.39990234375</ele>
        <time>2026-05-25T12:24:05.000Z</time>
        <extensions>
          <ns3:TrackPointExtension>
            <ns3:hr>135</ns3:hr>
            <ns3:cad>0</ns3:cad>
          </ns3:TrackPointExtension>
        </extensions>
      </trkpt>
      <trkpt lat="38.0565402098000049591064453125" lon="-106.9391408376395702362060546875">
        <ele>3663.800048828125</ele>
        <time>2026-05-25T12:24:07.000Z</time>
        <extensions>
          <ns3:TrackPointExtension>
            <ns3:hr>132</ns3:hr>
            <ns3:cad>47</ns3:cad>
          </ns3:TrackPointExtension>
        </extensions>
      </trkpt>
      <trkpt lat="38.0565338395535945892333984375" lon="-106.93913941271603107452392578125">
        <ele>3663.800048828125</ele>
        <time>2026-05-25T12:24:08.000Z</time>
        <extensions>
          <ns3:TrackPointExtension>
            <ns3:hr>129</ns3:hr>
            <ns3:cad>47</ns3:cad>
          </ns3:TrackPointExtension>
        </extensions>
      </trkpt>
      <trkpt lat="38.0565257929265499114990234375" lon="-106.93914293311536312103271484375">
        <ele>3664</ele>
        <time>2026-05-25T12:24:09.000Z</time>
        <extensions>
          <ns3:TrackPointExtension>
            <ns3:hr>127</ns3:hr>
            <ns3:cad>47</ns3:cad>
          </ns3:TrackPointExtension>
        </extensions>
      </trkpt>
      <trkpt lat="38.05647340603172779083251953125" lon="-106.939166150987148284912109375">
        <ele>3664.39990234375</ele>
        <time>2026-05-25T12:24:15.000Z</time>
        <extensions>
          <ns3:TrackPointExtension>
            <ns3:hr>127</ns3:hr>
            <ns3:cad>46</ns3:cad>
          </ns3:TrackPointExtension>
        </extensions>
      </trkpt>
      <trkpt lat="38.05645731277763843536376953125" lon="-106.9391817413270473480224609375">
        <ele>3664.60009765625</ele>
        <time>2026-05-25T12:24:16.000Z</time>
        <extensions>
          <ns3:TrackPointExtension>
            <ns3:hr>127</ns3:hr>
            <ns3:cad>46</ns3:cad>
          </ns3:TrackPointExtension>
        </extensions>
      </trkpt>
      <trkpt lat="38.056445829570293426513671875" lon="-106.93921954371035099029541015625">
        <ele>3665.199951171875</ele>
        <time>2026-05-25T12:24:20.000Z</time>
        <extensions>
          <ns3:TrackPointExtension>
            <ns3:hr>126</ns3:hr>
            <ns3:cad>0</ns3:cad>
          </ns3:TrackPointExtension>
        </extensions>
      </trkpt>
      <trkpt lat="38.05644339881837368011474609375" lon="-106.93924904800951480865478515625">
        <ele>3665.199951171875</ele>
        <time>2026-05-25T12:24:22.000Z</time>
        <extensions>
          <ns3:TrackPointExtension>
            <ns3:hr>126</ns3:hr>
            <ns3:cad>0</ns3:cad>
          </ns3:TrackPointExtension>
        </extensions>
      </trkpt>
      <trkpt lat="38.05643836967647075653076171875" lon="-106.939271427690982818603515625">
        <ele>3665.60009765625</ele>
        <time>2026-05-25T12:24:25.000Z</time>
        <extensions>
          <ns3:TrackPointExtension>
            <ns3:hr>126</ns3:hr>
            <ns3:cad>0</ns3:cad>
          </ns3:TrackPointExtension>
        </extensions>
      </trkpt>
      <trkpt lat="38.05640794336795806884765625" lon="-106.9393155165016651153564453125">
        <ele>3666.60009765625</ele>
        <time>2026-05-25T12:24:31.000Z</time>
        <extensions>
          <ns3:TrackPointExtension>
            <ns3:hr>126</ns3:hr>
            <ns3:cad>46</ns3:cad>
          </ns3:TrackPointExtension>
        </extensions>
      </trkpt>
      <trkpt lat="38.05640199221670627593994140625" lon="-106.93932473659515380859375">
        <ele>3666.800048828125</ele>
        <time>2026-05-25T12:24:32.000Z</time>
        <extensions>
          <ns3:TrackPointExtension>
            <ns3:hr>126</ns3:hr>
            <ns3:cad>46</ns3:cad>
          </ns3:TrackPointExtension>
        </extensions>
      </trkpt>
      <trkpt lat="38.05639495141804218292236328125" lon="-106.93935885094106197357177734375">
        <ele>3667</ele>
        <time>2026-05-25T12:24:34.000Z</time>
        <extensions>
          <ns3:TrackPointExtension>
            <ns3:hr>126</ns3:hr>
            <ns3:cad>44</ns3:cad>
          </ns3:TrackPointExtension>
        </extensions>
      </trkpt>
      <trkpt lat="38.05638589896261692047119140625" lon="-106.93939070217311382293701171875">
        <ele>3667.199951171875</ele>
        <time>2026-05-25T12:24:39.000Z</time>
        <extensions>
          <ns3:TrackPointExtension>
            <ns3:hr>126</ns3:hr>
            <ns3:cad>44</ns3:cad>
          </ns3:TrackPointExtension>
        </extensions>
      </trkpt>
      <trkpt lat="38.0563799478113651275634765625" lon="-106.93940545432269573211669921875">
        <ele>3667.800048828125</ele>
        <time>2026-05-25T12:24:42.000Z</time>
        <extensions>
          <ns3:TrackPointExtension>
            <ns3:hr>126</ns3:hr>
            <ns3:cad>44</ns3:cad>
          </ns3:TrackPointExtension>
        </extensions>
      </trkpt>
      <trkpt lat="38.0563725717365741729736328125" lon="-106.93941257894039154052734375">
        <ele>3668.199951171875</ele>
        <time>2026-05-25T12:24:48.000Z</time>
        <extensions>
          <ns3:TrackPointExtension>
            <ns3:hr>124</ns3:hr>
            <ns3:cad>0</ns3:cad>
          </ns3:TrackPointExtension>
        </extensions>
      </trkpt>
      <trkpt lat="38.05633678101003170013427734375" lon="-106.939433701336383819580078125">
        <ele>3667.60009765625</ele>
        <time>2026-05-25T12:24:54.000Z</time>
        <extensions>
          <ns3:TrackPointExtension>
            <ns3:hr>123</ns3:hr>
            <ns3:cad>50</ns3:cad>
          </ns3:TrackPointExtension>
        </extensions>
      </trkpt>
      <trkpt lat="38.0563120543956756591796875" lon="-106.9394546560943126678466796875">
        <ele>3668.39990234375</ele>
        <time>2026-05-25T12:25:00.000Z</time>
        <extensions>
          <ns3:TrackPointExtension>
            <ns3:hr>121</ns3:hr>
            <ns3:cad>0</ns3:cad>
          </ns3:TrackPointExtension>
        </extensions>
      </trkpt>
      <trkpt lat="38.056285567581653594970703125" lon="-106.939485333859920501708984375">
        <ele>3668.800048828125</ele>
        <time>2026-05-25T12:25:03.000Z</time>
        <extensions>
          <ns3:TrackPointExtension>
            <ns3:hr>121</ns3:hr>
            <ns3:cad>0</ns3:cad>
          </ns3:TrackPointExtension>
        </extensions>
      </trkpt>
      <trkpt lat="38.0562693066895008087158203125" lon="-106.93951877765357494354248046875">
        <ele>3669.199951171875</ele>
        <time>2026-05-25T12:25:06.000Z</time>
        <extensions>
          <ns3:TrackPointExtension>
            <ns3:hr>121</ns3:hr>
            <ns3:cad>47</ns3:cad>
          </ns3:TrackPointExtension>
        </extensions>
      </trkpt>
      <trkpt lat="38.056236617267131805419921875" lon="-106.9395418278872966766357421875">
        <ele>3669.800048828125</ele>
        <time>2026-05-25T12:25:11.000Z</time>
        <extensions>
          <ns3:TrackPointExtension>
            <ns3:hr>122</ns3:hr>
            <ns3:cad>0</ns3:cad>
          </ns3:TrackPointExtension>
        </extensions>
      </trkpt>
      <trkpt lat="38.05621993727982044219970703125" lon="-106.93954325281083583831787109375">
        <ele>3670</ele>
        <time>2026-05-25T12:25:13.000Z</time>
        <extensions>
          <ns3:TrackPointExtension>
            <ns3:hr>122</ns3:hr>
            <ns3:cad>0</ns3:cad>
          </ns3:TrackPointExtension>
        </extensions>
      </trkpt>
      <trkpt lat="38.056162856519222259521484375" lon="-106.9395773671567440032958984375">
        <ele>3671</ele>
        <time>2026-05-25T12:25:19.000Z</time>
        <extensions>
          <ns3:TrackPointExtension>
            <ns3:hr>119</ns3:hr>
            <ns3:cad>48</ns3:cad>
          </ns3:TrackPointExtension>
        </extensions>
      </trkpt>
      <trkpt lat="38.05613863281905651092529296875" lon="-106.93959337659180164337158203125">
        <ele>3671.39990234375</ele>
        <time>2026-05-25T12:25:22.000Z</time>
        <extensions>
          <ns3:TrackPointExtension>
            <ns3:hr>119</ns3:hr>
            <ns3:cad>0</ns3:cad>
          </ns3:TrackPointExtension>
        </extensions>
      </trkpt>
      <trkpt lat="38.05610753595829010009765625" lon="-106.93963193334639072418212890625">
        <ele>3671.39990234375</ele>
        <time>2026-05-25T12:25:27.000Z</time>
        <extensions>
          <ns3:TrackPointExtension>
            <ns3:hr>120</ns3:hr>
            <ns3:cad>0</ns3:cad>
          </ns3:TrackPointExtension>
        </extensions>
      </trkpt>
      <trkpt lat="38.056090436875820159912109375" lon="-106.93963964469730854034423828125">
        <ele>3671.60009765625</ele>
        <time>2026-05-25T12:25:29.000Z</time>
        <extensions>
          <ns3:TrackPointExtension>
            <ns3:hr>122</ns3:hr>
            <ns3:cad>0</ns3:cad>
          </ns3:TrackPointExtension>
        </extensions>
      </trkpt>
      <trkpt lat="38.05608448572456836700439453125" lon="-106.93963897414505481719970703125">
        <ele>3672</ele>
        <time>2026-05-25T12:25:31.000Z</time>
        <extensions>
          <ns3:TrackPointExtension>
            <ns3:hr>123</ns3:hr>
            <ns3:cad>0</ns3:cad>
          </ns3:TrackPointExtension>
        </extensions>
      </trkpt>
      <trkpt lat="38.05605900473892688751220703125" lon="-106.93962983787059783935546875">
        <ele>3672.60009765625</ele>
        <time>2026-05-25T12:25:34.000Z</time>
        <extensions>
          <ns3:TrackPointExtension>
            <ns3:hr>124</ns3:hr>
            <ns3:cad>0</ns3:cad>
          </ns3:TrackPointExtension>
        </extensions>
      </trkpt>
      <trkpt lat="38.0560255609452724456787109375" lon="-106.9396626949310302734375">
        <ele>3672.800048828125</ele>
        <time>2026-05-25T12:25:39.000Z</time>
        <extensions>
          <ns3:TrackPointExtension>
            <ns3:hr>123</ns3:hr>
            <ns3:cad>41</ns3:cad>
          </ns3:TrackPointExtension>
        </extensions>
      </trkpt>
      <trkpt lat="38.0560020916163921356201171875" lon="-106.93967753089964389801025390625">
        <ele>3673</ele>
        <time>2026-05-25T12:25:42.000Z</time>
        <extensions>
          <ns3:TrackPointExtension>
            <ns3:hr>123</ns3:hr>
            <ns3:cad>41</ns3:cad>
          </ns3:TrackPointExtension>
        </extensions>
      </trkpt>
      <trkpt lat="38.05598239414393901824951171875" lon="-106.939690522849559783935546875">
        <ele>3673.800048828125</ele>
        <time>2026-05-25T12:25:46.000Z</time>
        <extensions>
          <ns3:TrackPointExtension>
            <ns3:hr>123</ns3:hr>
            <ns3:cad>0</ns3:cad>
          </ns3:TrackPointExtension>
        </extensions>
      </trkpt>
      <trkpt lat="38.05596244521439075469970703125" lon="-106.93968138657510280609130859375">
        <ele>3674</ele>
        <time>2026-05-25T12:25:49.000Z</time>
        <extensions>
          <ns3:TrackPointExtension>
            <ns3:hr>124</ns3:hr>
            <ns3:cad>0</ns3:cad>
          </ns3:TrackPointExtension>
        </extensions>
      </trkpt>
      <trkpt lat="38.0559454299509525299072265625" lon="-106.93969680927693843841552734375">
        <ele>3674</ele>
        <time>2026-05-25T12:25:52.000Z</time>
        <extensions>
          <ns3:TrackPointExtension>
            <ns3:hr>124</ns3:hr>
            <ns3:cad>0</ns3:cad>
          </ns3:TrackPointExtension>
        </extensions>
      </trkpt>
      <trkpt lat="38.055908381938934326171875" lon="-106.93970619700849056243896484375">
        <ele>3675.199951171875</ele>
        <time>2026-05-25T12:25:58.000Z</time>
        <extensions>
          <ns3:TrackPointExtension>
            <ns3:hr>125</ns3:hr>
            <ns3:cad>0</ns3:cad>
          </ns3:TrackPointExtension>
        </extensions>
      </trkpt>
      <trkpt lat="38.0559031851589679718017578125" lon="-106.9397121481597423553466796875">
        <ele>3675.60009765625</ele>
        <time>2026-05-25T12:25:59.000Z</time>
        <extensions>
          <ns3:TrackPointExtension>
            <ns3:hr>125</ns3:hr>
            <ns3:cad>0</ns3:cad>
          </ns3:TrackPointExtension>
        </extensions>
      </trkpt>
      <trkpt lat="38.05585565976798534393310546875" lon="-106.939745843410491943359375">
        <ele>3676</ele>
        <time>2026-05-25T12:26:05.000Z</time>
        <extensions>
          <ns3:TrackPointExtension>
            <ns3:hr>125</ns3:hr>
            <ns3:cad>0</ns3:cad>
          </ns3:TrackPointExtension>
        </extensions>
      </trkpt>
      <trkpt lat="38.05585046298801898956298828125" lon="-106.93974777124822139739990234375">
        <ele>3676.39990234375</ele>
        <time>2026-05-25T12:26:07.000Z</time>
        <extensions>
          <ns3:TrackPointExtension>
            <ns3:hr>126</ns3:hr>
            <ns3:cad>40</ns3:cad>
          </ns3:TrackPointExtension>
        </extensions>
      </trkpt>
      <trkpt lat="38.0558193661272525787353515625" lon="-106.9397272355854511260986328125">
        <ele>3677</ele>
        <time>2026-05-25T12:26:13.000Z</time>
        <extensions>
          <ns3:TrackPointExtension>
            <ns3:hr>127</ns3:hr>
            <ns3:cad>75</ns3:cad>
          </ns3:TrackPointExtension>
        </extensions>
      </trkpt>
      <trkpt lat="38.0558096431195735931396484375" lon="-106.9397212006151676177978515625">
        <ele>3677</ele>
        <time>2026-05-25T12:26:14.000Z</time>
        <extensions>
          <ns3:TrackPointExtension>
            <ns3:hr>127</ns3:hr>
            <ns3:cad>75</ns3:cad>
          </ns3:TrackPointExtension>
        </extensions>
      </trkpt>
      <trkpt lat="38.055761195719242095947265625" lon="-106.9397336058318614959716796875">
        <ele>3677</ele>
        <time>2026-05-25T12:26:19.000Z</time>
        <extensions>
          <ns3:TrackPointExtension>
            <ns3:hr>128</ns3:hr>
            <ns3:cad>44</ns3:cad>
          </ns3:TrackPointExtension>
        </extensions>
      </trkpt>
      <trkpt lat="38.0557563342154026031494140625" lon="-106.939733438193798065185546875">
        <ele>3677</ele>
        <time>2026-05-25T12:26:25.000Z</time>
        <extensions>
          <ns3:TrackPointExtension>
            <ns3:hr>126</ns3:hr>
            <ns3:cad>0</ns3:cad>
          </ns3:TrackPointExtension>
        </extensions>
      </trkpt>
      <trkpt lat="38.0557509697973728179931640625" lon="-106.93973620422184467315673828125">
        <ele>3676.800048828125</ele>
        <time>2026-05-25T12:26:29.000Z</time>
        <extensions>
          <ns3:TrackPointExtension>
            <ns3:hr>127</ns3:hr>
            <ns3:cad>0</ns3:cad>
          </ns3:TrackPointExtension>
        </extensions>
      </trkpt>
      <trkpt lat="38.05573630146682262420654296875" lon="-106.939740814268589019775390625">
        <ele>3677.60009765625</ele>
        <time>2026-05-25T12:26:32.000Z</time>
        <extensions>
          <ns3:TrackPointExtension>
            <ns3:hr>126</ns3:hr>
            <ns3:cad>0</ns3:cad>
          </ns3:TrackPointExtension>
        </extensions>
      </trkpt>
      <trkpt lat="38.055734373629093170166015625" lon="-106.93975984118878841400146484375">
        <ele>3677.39990234375</ele>
        <time>2026-05-25T12:26:36.000Z</time>
        <extensions>
          <ns3:TrackPointExtension>
            <ns3:hr>127</ns3:hr>
            <ns3:cad>0</ns3:cad>
          </ns3:TrackPointExtension>
        </extensions>
      </trkpt>
      <trkpt lat="38.055711574852466583251953125" lon="-106.9397906027734279632568359375">
        <ele>3677.800048828125</ele>
        <time>2026-05-25T12:26:42.000Z</time>
        <extensions>
          <ns3:TrackPointExtension>
            <ns3:hr>126</ns3:hr>
            <ns3:cad>46</ns3:cad>
          </ns3:TrackPointExtension>
        </extensions>
      </trkpt>
      <trkpt lat="38.0556939728558063507080078125" lon="-106.9397902674973011016845703125">
        <ele>3678.39990234375</ele>
        <time>2026-05-25T12:26:44.000Z</time>
        <extensions>
          <ns3:TrackPointExtension>
            <ns3:hr>126</ns3:hr>
            <ns3:cad>46</ns3:cad>
          </ns3:TrackPointExtension>
        </extensions>
      </trkpt>
      <trkpt lat="38.05567461065948009490966796875" lon="-106.93979940377175807952880859375">
        <ele>3678.60009765625</ele>
        <time>2026-05-25T12:26:45.000Z</time>
        <extensions>
          <ns3:TrackPointExtension>
            <ns3:hr>126</ns3:hr>
            <ns3:cad>0</ns3:cad>
          </ns3:TrackPointExtension>
        </extensions>
      </trkpt>
      <trkpt lat="38.05567192845046520233154296875" lon="-106.939815580844879150390625">
        <ele>3678.60009765625</ele>
        <time>2026-05-25T12:26:46.000Z</time>
        <extensions>
          <ns3:TrackPointExtension>
            <ns3:hr>126</ns3:hr>
            <ns3:cad>0</ns3:cad>
          </ns3:TrackPointExtension>
        </extensions>
      </trkpt>
      <trkpt lat="38.0556674860417842864990234375" lon="-106.939854137599468231201171875">
        <ele>3679</ele>
        <time>2026-05-25T12:26:49.000Z</time>
        <extensions>
          <ns3:TrackPointExtension>
            <ns3:hr>125</ns3:hr>
            <ns3:cad>0</ns3:cad>
          </ns3:TrackPointExtension>
        </extensions>
      </trkpt>
      <trkpt lat="38.055637814104557037353515625" lon="-106.939874589443206787109375">
        <ele>3679.60009765625</ele>
        <time>2026-05-25T12:26:53.000Z</time>
        <extensions>
          <ns3:TrackPointExtension>
            <ns3:hr>124</ns3:hr>
            <ns3:cad>0</ns3:cad>
          </ns3:TrackPointExtension>
        </extensions>
      </trkpt>
      <trkpt lat="38.05561945773661136627197265625" lon="-106.9398828037083148956298828125">
        <ele>3679.60009765625</ele>
        <time>2026-05-25T12:26:55.000Z</time>
        <extensions>
          <ns3:TrackPointExtension>
            <ns3:hr>122</ns3:hr>
            <ns3:cad>0</ns3:cad>
          </ns3:TrackPointExtension>
        </extensions>
      </trkpt>
      <trkpt lat="38.05558006279170513153076171875" lon="-106.93988825194537639617919921875">
        <ele>3680.60009765625</ele>
        <time>2026-05-25T12:27:01.000Z</time>
        <extensions>
          <ns3:TrackPointExtension>
            <ns3:hr>120</ns3:hr>
            <ns3:cad>0</ns3:cad>
          </ns3:TrackPointExtension>
        </extensions>
      </trkpt>
      <trkpt lat="38.0555736087262630462646484375" lon="-106.93989512510597705841064453125">
        <ele>3680.800048828125</ele>
        <time>2026-05-25T12:27:02.000Z</time>
        <extensions>
          <ns3:TrackPointExtension>
            <ns3:hr>121</ns3:hr>
            <ns3:cad>0</ns3:cad>
          </ns3:TrackPointExtension>
        </extensions>
      </trkpt>
      <trkpt lat="38.0555125884711742401123046875" lon="-106.93992353975772857666015625">
        <ele>3681.199951171875</ele>
        <time>2026-05-25T12:27:08.000Z</time>
        <extensions>
          <ns3:TrackPointExtension>
            <ns3:hr>120</ns3:hr>
            <ns3:cad>44</ns3:cad>
          </ns3:TrackPointExtension>
        </extensions>
      </trkpt>
      <trkpt lat="38.05549557320773601531982421875" lon="-106.93993628025054931640625">
        <ele>3682</ele>
        <time>2026-05-25T12:27:12.000Z</time>
        <extensions>
          <ns3:TrackPointExtension>
            <ns3:hr>122</ns3:hr>
            <ns3:cad>0</ns3:cad>
          </ns3:TrackPointExtension>
        </extensions>
      </trkpt>
      <trkpt lat="38.05546891875565052032470703125" lon="-106.939974166452884674072265625">
        <ele>3682.60009765625</ele>
        <time>2026-05-25T12:27:16.000Z</time>
        <extensions>
          <ns3:TrackPointExtension>
            <ns3:hr>121</ns3:hr>
            <ns3:cad>0</ns3:cad>
          </ns3:TrackPointExtension>
        </extensions>
      </trkpt>
      <trkpt lat="38.05545282550156116485595703125" lon="-106.9400182552635669708251953125">
        <ele>3682.60009765625</ele>
        <time>2026-05-25T12:27:21.000Z</time>
        <extensions>
          <ns3:TrackPointExtension>
            <ns3:hr>122</ns3:hr>
            <ns3:cad>46</ns3:cad>
          </ns3:TrackPointExtension>
        </extensions>
      </trkpt>
      <trkpt lat="38.05544964037835597991943359375" lon="-106.94002814590930938720703125">
        <ele>3683</ele>
        <time>2026-05-25T12:27:23.000Z</time>
        <extensions>
          <ns3:TrackPointExtension>
            <ns3:hr>120</ns3:hr>
            <ns3:cad>46</ns3:cad>
          </ns3:TrackPointExtension>
        </extensions>
      </trkpt>
      <trkpt lat="38.055398762226104736328125" lon="-106.9400571472942829132080078125">
        <ele>3683.60009765625</ele>
        <time>2026-05-25T12:27:29.000Z</time>
        <extensions>
          <ns3:TrackPointExtension>
            <ns3:hr>121</ns3:hr>
            <ns3:cad>49</ns3:cad>
          </ns3:TrackPointExtension>
        </extensions>
      </trkpt>
      <trkpt lat="38.05539415217936038970947265625" lon="-106.94005790166556835174560546875">
        <ele>3683.60009765625</ele>
        <time>2026-05-25T12:27:30.000Z</time>
        <extensions>
          <ns3:TrackPointExtension>
            <ns3:hr>121</ns3:hr>
            <ns3:cad>49</ns3:cad>
          </ns3:TrackPointExtension>
        </extensions>
      </trkpt>
      <trkpt lat="38.05536925792694091796875" lon="-106.94006896577775478363037109375">
        <ele>3684.199951171875</ele>
        <time>2026-05-25T12:27:34.000Z</time>
        <extensions>
          <ns3:TrackPointExtension>
            <ns3:hr>120</ns3:hr>
            <ns3:cad>44</ns3:cad>
          </ns3:TrackPointExtension>
        </extensions>
      </trkpt>
      <trkpt lat="38.05535106919705867767333984375" lon="-106.9400936923921108245849609375">
        <ele>3684.39990234375</ele>
        <time>2026-05-25T12:27:37.000Z</time>
        <extensions>
          <ns3:TrackPointExtension>
            <ns3:hr>120</ns3:hr>
            <ns3:cad>0</ns3:cad>
          </ns3:TrackPointExtension>
        </extensions>
      </trkpt>
      <trkpt lat="38.0553184635937213897705078125" lon="-106.94012512452900409698486328125">
        <ele>3685.39990234375</ele>
        <time>2026-05-25T12:27:41.000Z</time>
        <extensions>
          <ns3:TrackPointExtension>
            <ns3:hr>121</ns3:hr>
            <ns3:cad>0</ns3:cad>
          </ns3:TrackPointExtension>
        </extensions>
      </trkpt>
      <trkpt lat="38.0552980117499828338623046875" lon="-106.9401439838111400604248046875">
        <ele>3686.199951171875</ele>
        <time>2026-05-25T12:27:44.000Z</time>
        <extensions>
          <ns3:TrackPointExtension>
            <ns3:hr>124</ns3:hr>
            <ns3:cad>0</ns3:cad>
          </ns3:TrackPointExtension>
        </extensions>
      </trkpt>
      <trkpt lat="38.0552980117499828338623046875" lon="-106.9401439838111400604248046875">
        <ele>3686.199951171875</ele>
        <time>2026-05-25T12:27:45.000Z</time>
        <extensions>
          <ns3:TrackPointExtension>
            <ns3:hr>125</ns3:hr>
            <ns3:cad>45</ns3:cad>
          </ns3:TrackPointExtension>
        </extensions>
      </trkpt>
      <trkpt lat="38.055281750857830047607421875" lon="-106.9401557184755802154541015625">
        <ele>3686.39990234375</ele>
        <time>2026-05-25T12:27:47.000Z</time>
        <extensions>
          <ns3:TrackPointExtension>
            <ns3:hr>126</ns3:hr>
            <ns3:cad>45</ns3:cad>
          </ns3:TrackPointExtension>
        </extensions>
      </trkpt>
      <trkpt lat="38.05528049357235431671142578125" lon="-106.94016896188259124755859375">
        <ele>3686.39990234375</ele>
        <time>2026-05-25T12:27:48.000Z</time>
        <extensions>
          <ns3:TrackPointExtension>
            <ns3:hr>126</ns3:hr>
            <ns3:cad>0</ns3:cad>
          </ns3:TrackPointExtension>
        </extensions>
      </trkpt>
      <trkpt lat="38.05526792071759700775146484375" lon="-106.94020383059978485107421875">
        <ele>3686.800048828125</ele>
        <time>2026-05-25T12:27:51.000Z</time>
        <extensions>
          <ns3:TrackPointExtension>
            <ns3:hr>127</ns3:hr>
            <ns3:cad>0</ns3:cad>
          </ns3:TrackPointExtension>
        </extensions>
      </trkpt>
      <trkpt lat="38.05525098927319049835205078125" lon="-106.94021313451230525970458984375">
        <ele>3687.39990234375</ele>
        <time>2026-05-25T12:27:55.000Z</time>
        <extensions>
          <ns3:TrackPointExtension>
            <ns3:hr>128</ns3:hr>
            <ns3:cad>0</ns3:cad>
          </ns3:TrackPointExtension>
        </extensions>
      </trkpt>
      <trkpt lat="38.0552430264651775360107421875" lon="-106.9402133859694004058837890625">
        <ele>3687.800048828125</ele>
        <time>2026-05-25T12:27:56.000Z</time>
        <extensions>
          <ns3:TrackPointExtension>
            <ns3:hr>127</ns3:hr>
            <ns3:cad>0</ns3:cad>
          </ns3:TrackPointExtension>
        </extensions>
      </trkpt>
      <trkpt lat="38.055210001766681671142578125" lon="-106.9402361847460269927978515625">
        <ele>3688.199951171875</ele>
        <time>2026-05-25T12:28:00.000Z</time>
        <extensions>
          <ns3:TrackPointExtension>
            <ns3:hr>130</ns3:hr>
            <ns3:cad>41</ns3:cad>
          </ns3:TrackPointExtension>
        </extensions>
      </trkpt>
      <trkpt lat="38.05517689324915409088134765625" lon="-106.9402568042278289794921875">
        <ele>3688.39990234375</ele>
        <time>2026-05-25T12:28:04.000Z</time>
        <extensions>
          <ns3:TrackPointExtension>
            <ns3:hr>132</ns3:hr>
            <ns3:cad>45</ns3:cad>
          </ns3:TrackPointExtension>
        </extensions>
      </trkpt>
      <trkpt lat="38.05517102591693401336669921875" lon="-106.940263845026493072509765625">
        <ele>3688.60009765625</ele>
        <time>2026-05-25T12:28:06.000Z</time>
        <extensions>
          <ns3:TrackPointExtension>
            <ns3:hr>132</ns3:hr>
            <ns3:cad>0</ns3:cad>
          </ns3:TrackPointExtension>
        </extensions>
      </trkpt>
      <trkpt lat="38.0551169626414775848388671875" lon="-106.9402804411947727203369140625">
        <ele>3689.199951171875</ele>
        <time>2026-05-25T12:28:12.000Z</time>
        <extensions>
          <ns3:TrackPointExtension>
            <ns3:hr>132</ns3:hr>
            <ns3:cad>44</ns3:cad>
          </ns3:TrackPointExtension>
        </extensions>
      </trkpt>
      <trkpt lat="38.0551055632531642913818359375" lon="-106.94030432961881160736083984375">
        <ele>3689.39990234375</ele>
        <time>2026-05-25T12:28:14.000Z</time>
        <extensions>
          <ns3:TrackPointExtension>
            <ns3:hr>130</ns3:hr>
            <ns3:cad>43</ns3:cad>
          </ns3:TrackPointExtension>
        </extensions>
      </trkpt>
      <trkpt lat="38.0550991930067539215087890625" lon="-106.94033031351864337921142578125">
        <ele>3689.800048828125</ele>
        <time>2026-05-25T12:28:16.000Z</time>
        <extensions>
          <ns3:TrackPointExtension>
            <ns3:hr>130</ns3:hr>
            <ns3:cad>43</ns3:cad>
          </ns3:TrackPointExtension>
        </extensions>
      </trkpt>
      <trkpt lat="38.05509843863546848297119140625" lon="-106.940351687371730804443359375">
        <ele>3690</ele>
        <time>2026-05-25T12:28:19.000Z</time>
        <extensions>
          <ns3:TrackPointExtension>
            <ns3:hr>130</ns3:hr>
            <ns3:cad>43</ns3:cad>
          </ns3:TrackPointExtension>
        </extensions>
      </trkpt>
      <trkpt lat="38.05509206838905811309814453125" lon="-106.94038622081279754638671875">
        <ele>3690.39990234375</ele>
        <time>2026-05-25T12:28:22.000Z</time>
        <extensions>
          <ns3:TrackPointExtension>
            <ns3:hr>127</ns3:hr>
            <ns3:cad>0</ns3:cad>
          </ns3:TrackPointExtension>
        </extensions>
      </trkpt>
      <trkpt lat="38.0550844408571720123291015625" lon="-106.94038781337440013885498046875">
        <ele>3690.60009765625</ele>
        <time>2026-05-25T12:28:24.000Z</time>
        <extensions>
          <ns3:TrackPointExtension>
            <ns3:hr>126</ns3:hr>
            <ns3:cad>0</ns3:cad>
          </ns3:TrackPointExtension>
        </extensions>
      </trkpt>
      <trkpt lat="38.05506415665149688720703125" lon="-106.94039653055369853973388671875">
        <ele>3690.800048828125</ele>
        <time>2026-05-25T12:28:26.000Z</time>
        <extensions>
          <ns3:TrackPointExtension>
            <ns3:hr>125</ns3:hr>
            <ns3:cad>0</ns3:cad>
          </ns3:TrackPointExtension>
        </extensions>
      </trkpt>
      <trkpt lat="38.0550261028110980987548828125" lon="-106.9404360093176364898681640625">
        <ele>3691.60009765625</ele>
        <time>2026-05-25T12:28:32.000Z</time>
        <extensions>
          <ns3:TrackPointExtension>
            <ns3:hr>127</ns3:hr>
            <ns3:cad>44</ns3:cad>
          </ns3:TrackPointExtension>
        </extensions>
      </trkpt>
      <trkpt lat="38.0550234206020832061767578125" lon="-106.94044849835336208343505859375">
        <ele>3691.800048828125</ele>
        <time>2026-05-25T12:28:33.000Z</time>
        <extensions>
          <ns3:TrackPointExtension>
            <ns3:hr>128</ns3:hr>
            <ns3:cad>44</ns3:cad>
          </ns3:TrackPointExtension>
        </extensions>
      </trkpt>
      <trkpt lat="38.05501579307019710540771484375" lon="-106.940469704568386077880859375">
        <ele>3692.39990234375</ele>
        <time>2026-05-25T12:28:39.000Z</time>
        <extensions>
          <ns3:TrackPointExtension>
            <ns3:hr>130</ns3:hr>
            <ns3:cad>0</ns3:cad>
          </ns3:TrackPointExtension>
        </extensions>
      </trkpt>
      <trkpt lat="38.05501529015600681304931640625" lon="-106.9404660165309906005859375">
        <ele>3692.60009765625</ele>
        <time>2026-05-25T12:28:42.000Z</time>
        <extensions>
          <ns3:TrackPointExtension>
            <ns3:hr>129</ns3:hr>
            <ns3:cad>0</ns3:cad>
          </ns3:TrackPointExtension>
        </extensions>
      </trkpt>
      <trkpt lat="38.05498008616268634796142578125" lon="-106.94047146476805210113525390625">
        <ele>3693</ele>
        <time>2026-05-25T12:28:48.000Z</time>
        <extensions>
          <ns3:TrackPointExtension>
            <ns3:hr>130</ns3:hr>
            <ns3:cad>0</ns3:cad>
          </ns3:TrackPointExtension>
        </extensions>
      </trkpt>
      <trkpt lat="38.054969944059848785400390625" lon="-106.9404722191393375396728515625">
        <ele>3693</ele>
        <time>2026-05-25T12:28:49.000Z</time>
        <extensions>
          <ns3:TrackPointExtension>
            <ns3:hr>129</ns3:hr>
            <ns3:cad>0</ns3:cad>
          </ns3:TrackPointExtension>
        </extensions>
      </trkpt>
      <trkpt lat="38.05492308922111988067626953125" lon="-106.94050985388457775115966796875">
        <ele>3694</ele>
        <time>2026-05-25T12:28:54.000Z</time>
        <extensions>
          <ns3:TrackPointExtension>
            <ns3:hr>127</ns3:hr>
            <ns3:cad>46</ns3:cad>
          </ns3:TrackPointExtension>
        </extensions>
      </trkpt>
      <trkpt lat="38.05491252802312374114990234375" lon="-106.94052167236804962158203125">
        <ele>3694.60009765625</ele>
        <time>2026-05-25T12:28:56.000Z</time>
        <extensions>
          <ns3:TrackPointExtension>
            <ns3:hr>126</ns3:hr>
            <ns3:cad>46</ns3:cad>
          </ns3:TrackPointExtension>
        </extensions>
      </trkpt>
      <trkpt lat="38.054910264909267425537109375" lon="-106.94052527658641338348388671875">
        <ele>3694.60009765625</ele>
        <time>2026-05-25T12:28:58.000Z</time>
        <extensions>
          <ns3:TrackPointExtension>
            <ns3:hr>123</ns3:hr>
            <ns3:cad>45</ns3:cad>
          </ns3:TrackPointExtension>
        </extensions>
      </trkpt>
      <trkpt lat="38.05489257909357547760009765625" lon="-106.9405298866331577301025390625">
        <ele>3693.800048828125</ele>
        <time>2026-05-25T12:29:03.000Z</time>
        <extensions>
          <ns3:TrackPointExtension>
            <ns3:hr>121</ns3:hr>
            <ns3:cad>0</ns3:cad>
          </ns3:TrackPointExtension>
        </extensions>
      </trkpt>
      <trkpt lat="38.05484714917838573455810546875" lon="-106.940560899674892425537109375">
        <ele>3695</ele>
        <time>2026-05-25T12:29:09.000Z</time>
        <extensions>
          <ns3:TrackPointExtension>
            <ns3:hr>122</ns3:hr>
            <ns3:cad>0</ns3:cad>
          </ns3:TrackPointExtension>
        </extensions>
      </trkpt>
      <trkpt lat="38.05483750998973846435546875" lon="-106.94058160297572612762451171875">
        <ele>3695.199951171875</ele>
        <time>2026-05-25T12:29:11.000Z</time>
        <extensions>
          <ns3:TrackPointExtension>
            <ns3:hr>122</ns3:hr>
            <ns3:cad>0</ns3:cad>
          </ns3:TrackPointExtension>
        </extensions>
      </trkpt>
      <trkpt lat="38.0548172257840633392333984375" lon="-106.94061554968357086181640625">
        <ele>3695.60009765625</ele>
        <time>2026-05-25T12:29:17.000Z</time>
        <extensions>
          <ns3:TrackPointExtension>
            <ns3:hr>120</ns3:hr>
            <ns3:cad>0</ns3:cad>
          </ns3:TrackPointExtension>
        </extensions>
      </trkpt>
      <trkpt lat="38.054809011518955230712890625" lon="-106.94062619470059871673583984375">
        <ele>3695.39990234375</ele>
        <time>2026-05-25T12:29:18.000Z</time>
        <extensions>
          <ns3:TrackPointExtension>
            <ns3:hr>121</ns3:hr>
            <ns3:cad>0</ns3:cad>
          </ns3:TrackPointExtension>
        </extensions>
      </trkpt>
      <trkpt lat="38.0547877214848995208740234375" lon="-106.9406536035239696502685546875">
        <ele>3696.39990234375</ele>
        <time>2026-05-25T12:29:23.000Z</time>
        <extensions>
          <ns3:TrackPointExtension>
            <ns3:hr>122</ns3:hr>
            <ns3:cad>48</ns3:cad>
          </ns3:TrackPointExtension>
        </extensions>
      </trkpt>
      <trkpt lat="38.054764084517955780029296875" lon="-106.9406710378825664520263671875">
        <ele>3697</ele>
        <time>2026-05-25T12:29:25.000Z</time>
        <extensions>
          <ns3:TrackPointExtension>
            <ns3:hr>122</ns3:hr>
            <ns3:cad>49</ns3:cad>
          </ns3:TrackPointExtension>
        </extensions>
      </trkpt>
      <trkpt lat="38.05473483167588710784912109375" lon="-106.94068470038473606109619140625">
        <ele>3697.39990234375</ele>
        <time>2026-05-25T12:29:28.000Z</time>
        <extensions>
          <ns3:TrackPointExtension>
            <ns3:hr>122</ns3:hr>
            <ns3:cad>46</ns3:cad>
          </ns3:TrackPointExtension>
        </extensions>
      </trkpt>
      <trkpt lat="38.05471722967922687530517578125" lon="-106.94068989716470241546630859375">
        <ele>3697.800048828125</ele>
        <time>2026-05-25T12:29:31.000Z</time>
        <extensions>
          <ns3:TrackPointExtension>
            <ns3:hr>123</ns3:hr>
            <ns3:cad>46</ns3:cad>
          </ns3:TrackPointExtension>
        </extensions>
      </trkpt>
      <trkpt lat="38.05469610728323459625244140625" lon="-106.9407166354358196258544921875">
        <ele>3698.60009765625</ele>
        <time>2026-05-25T12:29:35.000Z</time>
        <extensions>
          <ns3:TrackPointExtension>
            <ns3:hr>124</ns3:hr>
            <ns3:cad>46</ns3:cad>
          </ns3:TrackPointExtension>
        </extensions>
      </trkpt>
      <trkpt lat="38.0546670220792293548583984375" lon="-106.94072476588189601898193359375">
        <ele>3698.800048828125</ele>
        <time>2026-05-25T12:29:38.000Z</time>
        <extensions>
          <ns3:TrackPointExtension>
            <ns3:hr>124</ns3:hr>
            <ns3:cad>46</ns3:cad>
          </ns3:TrackPointExtension>
        </extensions>
      </trkpt>
      <trkpt lat="38.05461823940277099609375" lon="-106.940714456140995025634765625">
        <ele>3699.39990234375</ele>
        <time>2026-05-25T12:29:44.000Z</time>
        <extensions>
          <ns3:TrackPointExtension>
            <ns3:hr>124</ns3:hr>
            <ns3:cad>0</ns3:cad>
          </ns3:TrackPointExtension>
        </extensions>
      </trkpt>
      <trkpt lat="38.0546106956899166107177734375" lon="-106.94071453996002674102783203125">
        <ele>3699.60009765625</ele>
        <time>2026-05-25T12:29:45.000Z</time>
        <extensions>
          <ns3:TrackPointExtension>
            <ns3:hr>124</ns3:hr>
            <ns3:cad>0</ns3:cad>
          </ns3:TrackPointExtension>
        </extensions>
      </trkpt>
      <trkpt lat="38.0545664392411708831787109375" lon="-106.9407327286899089813232421875">
        <ele>3700.39990234375</ele>
        <time>2026-05-25T12:29:51.000Z</time>
        <extensions>
          <ns3:TrackPointExtension>
            <ns3:hr>124</ns3:hr>
            <ns3:cad>0</ns3:cad>
          </ns3:TrackPointExtension>
        </extensions>
      </trkpt>
      <trkpt lat="38.0545483343303203582763671875" lon="-106.940737925469875335693359375">
        <ele>3700.800048828125</ele>
        <time>2026-05-25T12:29:53.000Z</time>
        <extensions>
          <ns3:TrackPointExtension>
            <ns3:hr>125</ns3:hr>
            <ns3:cad>0</ns3:cad>
          </ns3:TrackPointExtension>
        </extensions>
      </trkpt>
      <trkpt lat="38.05451564490795135498046875" lon="-106.9407354108989238739013671875">
        <ele>3701.39990234375</ele>
        <time>2026-05-25T12:29:57.000Z</time>
        <extensions>
          <ns3:TrackPointExtension>
            <ns3:hr>125</ns3:hr>
            <ns3:cad>0</ns3:cad>
          </ns3:TrackPointExtension>
        </extensions>
      </trkpt>
      <trkpt lat="38.0544648505747318267822265625" lon="-106.9407503306865692138671875">
        <ele>3701.800048828125</ele>
        <time>2026-05-25T12:30:03.000Z</time>
        <extensions>
          <ns3:TrackPointExtension>
            <ns3:hr>125</ns3:hr>
            <ns3:cad>0</ns3:cad>
          </ns3:TrackPointExtension>
        </extensions>
      </trkpt>
      <trkpt lat="38.0544559657573699951171875" lon="-106.940756030380725860595703125">
        <ele>3702.199951171875</ele>
        <time>2026-05-25T12:30:05.000Z</time>
        <extensions>
          <ns3:TrackPointExtension>
            <ns3:hr>125</ns3:hr>
            <ns3:cad>0</ns3:cad>
          </ns3:TrackPointExtension>
        </extensions>
      </trkpt>
      <trkpt lat="38.0544175766408443450927734375" lon="-106.94078008644282817840576171875">
        <ele>3703</ele>
        <time>2026-05-25T12:30:10.000Z</time>
        <extensions>
          <ns3:TrackPointExtension>
            <ns3:hr>125</ns3:hr>
            <ns3:cad>0</ns3:cad>
          </ns3:TrackPointExtension>
        </extensions>
      </trkpt>
      <trkpt lat="38.05441363714635372161865234375" lon="-106.940784193575382232666015625">
        <ele>3703.199951171875</ele>
        <time>2026-05-25T12:30:11.000Z</time>
        <extensions>
          <ns3:TrackPointExtension>
            <ns3:hr>124</ns3:hr>
            <ns3:cad>0</ns3:cad>
          </ns3:TrackPointExtension>
        </extensions>
      </trkpt>
      <trkpt lat="38.05438153445720672607421875" lon="-106.94078293628990650177001953125">
        <ele>3704</ele>
        <time>2026-05-25T12:30:14.000Z</time>
        <extensions>
          <ns3:TrackPointExtension>
            <ns3:hr>123</ns3:hr>
            <ns3:cad>0</ns3:cad>
          </ns3:TrackPointExtension>
        </extensions>
      </trkpt>
      <trkpt lat="38.0543692968785762786865234375" lon="-106.940787546336650848388671875">
        <ele>3704.39990234375</ele>
        <time>2026-05-25T12:30:17.000Z</time>
        <extensions>
          <ns3:TrackPointExtension>
            <ns3:hr>122</ns3:hr>
            <ns3:cad>19</ns3:cad>
          </ns3:TrackPointExtension>
        </extensions>
      </trkpt>
      <trkpt lat="38.05434909649193286895751953125" lon="-106.9408101774752140045166015625">
        <ele>3704.800048828125</ele>
        <time>2026-05-25T12:30:19.000Z</time>
        <extensions>
          <ns3:TrackPointExtension>
            <ns3:hr>126</ns3:hr>
            <ns3:cad>0</ns3:cad>
          </ns3:TrackPointExtension>
        </extensions>
      </trkpt>
      <trkpt lat="38.054347001016139984130859375" lon="-106.94082216359674930572509765625">
        <ele>3705</ele>
        <time>2026-05-25T12:30:21.000Z</time>
        <extensions>
          <ns3:TrackPointExtension>
            <ns3:hr>127</ns3:hr>
            <ns3:cad>44</ns3:cad>
          </ns3:TrackPointExtension>
        </extensions>
      </trkpt>
      <trkpt lat="38.05433434434235095977783203125" lon="-106.940840519964694976806640625">
        <ele>3705.199951171875</ele>
        <time>2026-05-25T12:30:23.000Z</time>
        <extensions>
          <ns3:TrackPointExtension>
            <ns3:hr>130</ns3:hr>
            <ns3:cad>44</ns3:cad>
          </ns3:TrackPointExtension>
        </extensions>
      </trkpt>
      <trkpt lat="38.0543263815343379974365234375" lon="-106.940847896039485931396484375">
        <ele>3705.199951171875</ele>
        <time>2026-05-25T12:30:24.000Z</time>
        <extensions>
          <ns3:TrackPointExtension>
            <ns3:hr>131</ns3:hr>
            <ns3:cad>0</ns3:cad>
          </ns3:TrackPointExtension>
        </extensions>
      </trkpt>
      <trkpt lat="38.054314143955707550048828125" lon="-106.94090682081878185272216796875">
        <ele>3706.199951171875</ele>
        <time>2026-05-25T12:30:30.000Z</time>
        <extensions>
          <ns3:TrackPointExtension>
            <ns3:hr>130</ns3:hr>
            <ns3:cad>0</ns3:cad>
          </ns3:TrackPointExtension>
        </extensions>
      </trkpt>
      <trkpt lat="38.054285980761051177978515625" lon="-106.94095610640943050384521484375">
        <ele>3706.60009765625</ele>
        <time>2026-05-25T12:30:35.000Z</time>
        <extensions>
          <ns3:TrackPointExtension>
            <ns3:hr>131</ns3:hr>
            <ns3:cad>0</ns3:cad>
          </ns3:TrackPointExtension>
        </extensions>
      </trkpt>
      <trkpt lat="38.05427701212465763092041015625" lon="-106.9409660808742046356201171875">
        <ele>3706.60009765625</ele>
        <time>2026-05-25T12:30:37.000Z</time>
        <extensions>
          <ns3:TrackPointExtension>
            <ns3:hr>130</ns3:hr>
            <ns3:cad>0</ns3:cad>
          </ns3:TrackPointExtension>
        </extensions>
      </trkpt>
      <trkpt lat="38.0542720668017864227294921875" lon="-106.94097136147320270538330078125">
        <ele>3707.199951171875</ele>
        <time>2026-05-25T12:30:39.000Z</time>
        <extensions>
          <ns3:TrackPointExtension>
            <ns3:hr>128</ns3:hr>
            <ns3:cad>0</ns3:cad>
          </ns3:TrackPointExtension>
        </extensions>
      </trkpt>
      <trkpt lat="38.054248429834842681884765625" lon="-106.94098611362278461456298828125">
        <ele>3707.60009765625</ele>
        <time>2026-05-25T12:30:42.000Z</time>
        <extensions>
          <ns3:TrackPointExtension>
            <ns3:hr>125</ns3:hr>
            <ns3:cad>0</ns3:cad>
          </ns3:TrackPointExtension>
        </extensions>
      </trkpt>
      <trkpt lat="38.05423242039978504180908203125" lon="-106.94100120104849338531494140625">
        <ele>3707.60009765625</ele>
        <time>2026-05-25T12:30:46.000Z</time>
        <extensions>
          <ns3:TrackPointExtension>
            <ns3:hr>125</ns3:hr>
            <ns3:cad>0</ns3:cad>
          </ns3:TrackPointExtension>
        </extensions>
      </trkpt>
      <trkpt lat="38.05419780313968658447265625" lon="-106.9410131871700286865234375">
        <ele>3708.199951171875</ele>
        <time>2026-05-25T12:30:50.000Z</time>
        <extensions>
          <ns3:TrackPointExtension>
            <ns3:hr>124</ns3:hr>
            <ns3:cad>0</ns3:cad>
          </ns3:TrackPointExtension>
        </extensions>
      </trkpt>
      <trkpt lat="38.0541738308966159820556640625" lon="-106.9410265982151031494140625">
        <ele>3709.199951171875</ele>
        <time>2026-05-25T12:30:53.000Z</time>
        <extensions>
          <ns3:TrackPointExtension>
            <ns3:hr>126</ns3:hr>
            <ns3:cad>0</ns3:cad>
          </ns3:TrackPointExtension>
        </extensions>
      </trkpt>
      <trkpt lat="38.05416620336472988128662109375" lon="-106.9410254247486591339111328125">
        <ele>3709.60009765625</ele>
        <time>2026-05-25T12:30:54.000Z</time>
        <extensions>
          <ns3:TrackPointExtension>
            <ns3:hr>127</ns3:hr>
            <ns3:cad>0</ns3:cad>
          </ns3:TrackPointExtension>
        </extensions>
      </trkpt>
      <trkpt lat="38.05416083894670009613037109375" lon="-106.9410265982151031494140625">
        <ele>3709.800048828125</ele>
        <time>2026-05-25T12:30:56.000Z</time>
        <extensions>
          <ns3:TrackPointExtension>
            <ns3:hr>130</ns3:hr>
            <ns3:cad>0</ns3:cad>
          </ns3:TrackPointExtension>
        </extensions>
      </trkpt>
      <trkpt lat="38.0541446618735790252685546875" lon="-106.9410334713757038116455078125">
        <ele>3710</ele>
        <time>2026-05-25T12:30:58.000Z</time>
        <extensions>
          <ns3:TrackPointExtension>
            <ns3:hr>133</ns3:hr>
            <ns3:cad>0</ns3:cad>
          </ns3:TrackPointExtension>
        </extensions>
      </trkpt>
      <trkpt lat="38.0541359446942806243896484375" lon="-106.94104026071727275848388671875">
        <ele>3710</ele>
        <time>2026-05-25T12:30:59.000Z</time>
        <extensions>
          <ns3:TrackPointExtension>
            <ns3:hr>134</ns3:hr>
            <ns3:cad>0</ns3:cad>
          </ns3:TrackPointExtension>
        </extensions>
      </trkpt>
      <trkpt lat="38.0540957115590572357177734375" lon="-106.94107797928154468536376953125">
        <ele>3710.199951171875</ele>
        <time>2026-05-25T12:31:05.000Z</time>
        <extensions>
          <ns3:TrackPointExtension>
            <ns3:hr>135</ns3:hr>
            <ns3:cad>43</ns3:cad>
          </ns3:TrackPointExtension>
        </extensions>
      </trkpt>
      <trkpt lat="38.05408774875104427337646484375" lon="-106.9410864450037479400634765625">
        <ele>3710.800048828125</ele>
        <time>2026-05-25T12:31:07.000Z</time>
        <extensions>
          <ns3:TrackPointExtension>
            <ns3:hr>135</ns3:hr>
            <ns3:cad>43</ns3:cad>
          </ns3:TrackPointExtension>
        </extensions>
      </trkpt>
      <trkpt lat="38.05406235158443450927734375" lon="-106.94110094569623470306396484375">
        <ele>3711.60009765625</ele>
        <time>2026-05-25T12:31:10.000Z</time>
        <extensions>
          <ns3:TrackPointExtension>
            <ns3:hr>135</ns3:hr>
            <ns3:cad>0</ns3:cad>
          </ns3:TrackPointExtension>
        </extensions>
      </trkpt>
      <trkpt lat="38.05405966937541961669921875" lon="-106.94110773503780364990234375">
        <ele>3711.800048828125</ele>
        <time>2026-05-25T12:31:11.000Z</time>
        <extensions>
          <ns3:TrackPointExtension>
            <ns3:hr>135</ns3:hr>
            <ns3:cad>0</ns3:cad>
          </ns3:TrackPointExtension>
        </extensions>
      </trkpt>
      <trkpt lat="38.0540092103183269500732421875" lon="-106.94113497622311115264892578125">
        <ele>3712.60009765625</ele>
        <time>2026-05-25T12:31:17.000Z</time>
        <extensions>
          <ns3:TrackPointExtension>
            <ns3:hr>137</ns3:hr>
            <ns3:cad>0</ns3:cad>
          </ns3:TrackPointExtension>
        </extensions>
      </trkpt>
      <trkpt lat="38.05399923585355281829833984375" lon="-106.941138915717601776123046875">
        <ele>3712.800048828125</ele>
        <time>2026-05-25T12:31:20.000Z</time>
        <extensions>
          <ns3:TrackPointExtension>
            <ns3:hr>137</ns3:hr>
            <ns3:cad>0</ns3:cad>
          </ns3:TrackPointExtension>
        </extensions>
      </trkpt>
      <trkpt lat="38.0539642833173274993896484375" lon="-106.94114972837269306182861328125">
        <ele>3713.39990234375</ele>
        <time>2026-05-25T12:31:23.000Z</time>
        <extensions>
          <ns3:TrackPointExtension>
            <ns3:hr>136</ns3:hr>
            <ns3:cad>0</ns3:cad>
          </ns3:TrackPointExtension>
        </extensions>
      </trkpt>
      <trkpt lat="38.053937293589115142822265625" lon="-106.94118308834731578826904296875">
        <ele>3714</ele>
        <time>2026-05-25T12:31:27.000Z</time>
        <extensions>
          <ns3:TrackPointExtension>
            <ns3:hr>137</ns3:hr>
            <ns3:cad>0</ns3:cad>
          </ns3:TrackPointExtension>
        </extensions>
      </trkpt>
      <trkpt lat="38.05393016897141933441162109375" lon="-106.9412047974765300750732421875">
        <ele>3714.199951171875</ele>
        <time>2026-05-25T12:31:29.000Z</time>
        <extensions>
          <ns3:TrackPointExtension>
            <ns3:hr>136</ns3:hr>
            <ns3:cad>0</ns3:cad>
          </ns3:TrackPointExtension>
        </extensions>
      </trkpt>
      <trkpt lat="38.053900413215160369873046875" lon="-106.94123924709856510162353515625">
        <ele>3714.800048828125</ele>
        <time>2026-05-25T12:31:35.000Z</time>
        <extensions>
          <ns3:TrackPointExtension>
            <ns3:hr>134</ns3:hr>
            <ns3:cad>0</ns3:cad>
          </ns3:TrackPointExtension>
        </extensions>
      </trkpt>
      <trkpt lat="38.05388138629496097564697265625" lon="-106.9412520714104175567626953125">
        <ele>3715</ele>
        <time>2026-05-25T12:31:37.000Z</time>
        <extensions>
          <ns3:TrackPointExtension>
            <ns3:hr>133</ns3:hr>
            <ns3:cad>0</ns3:cad>
          </ns3:TrackPointExtension>
        </extensions>
      </trkpt>
      <trkpt lat="38.05386730469763278961181640625" lon="-106.941254250705242156982421875">
        <ele>3715</ele>
        <time>2026-05-25T12:31:38.000Z</time>
        <extensions>
          <ns3:TrackPointExtension>
            <ns3:hr>133</ns3:hr>
            <ns3:cad>0</ns3:cad>
          </ns3:TrackPointExtension>
        </extensions>
      </trkpt>
      <trkpt lat="38.05384266190230846405029296875" lon="-106.9412594474852085113525390625">
        <ele>3716.199951171875</ele>
        <time>2026-05-25T12:31:42.000Z</time>
        <extensions>
          <ns3:TrackPointExtension>
            <ns3:hr>133</ns3:hr>
            <ns3:cad>0</ns3:cad>
          </ns3:TrackPointExtension>
        </extensions>
      </trkpt>
      <trkpt lat="38.053805865347385406494140625" lon="-106.94128752686083316802978515625">
        <ele>3716.60009765625</ele>
        <time>2026-05-25T12:31:46.000Z</time>
        <extensions>
          <ns3:TrackPointExtension>
            <ns3:hr>132</ns3:hr>
            <ns3:cad>41</ns3:cad>
          </ns3:TrackPointExtension>
        </extensions>
      </trkpt>
      <trkpt lat="38.05377376265823841094970703125" lon="-106.94131853990256786346435546875">
        <ele>3717</ele>
        <time>2026-05-25T12:31:52.000Z</time>
        <extensions>
          <ns3:TrackPointExtension>
            <ns3:hr>131</ns3:hr>
            <ns3:cad>43</ns3:cad>
          </ns3:TrackPointExtension>
        </extensions>
      </trkpt>
      <trkpt lat="38.053762950003147125244140625" lon="-106.94133245386183261871337890625">
        <ele>3717.199951171875</ele>
        <time>2026-05-25T12:31:54.000Z</time>
        <extensions>
          <ns3:TrackPointExtension>
            <ns3:hr>131</ns3:hr>
            <ns3:cad>0</ns3:cad>
          </ns3:TrackPointExtension>
        </extensions>
      </trkpt>
      <trkpt lat="38.05373269133269786834716796875" lon="-106.9413667358458042144775390625">
        <ele>3717.60009765625</ele>
        <time>2026-05-25T12:31:59.000Z</time>
        <extensions>
          <ns3:TrackPointExtension>
            <ns3:hr>128</ns3:hr>
            <ns3:cad>0</ns3:cad>
          </ns3:TrackPointExtension>
        </extensions>
      </trkpt>
      <trkpt lat="38.05372481234371662139892578125" lon="-106.94136916659772396087646484375">
        <ele>3717.800048828125</ele>
        <time>2026-05-25T12:32:00.000Z</time>
        <extensions>
          <ns3:TrackPointExtension>
            <ns3:hr>127</ns3:hr>
            <ns3:cad>0</ns3:cad>
          </ns3:TrackPointExtension>
        </extensions>
      </trkpt>
      <trkpt lat="38.05371056310832500457763671875" lon="-106.94138257764279842376708984375">
        <ele>3718.60009765625</ele>
        <time>2026-05-25T12:32:03.000Z</time>
        <extensions>
          <ns3:TrackPointExtension>
            <ns3:hr>125</ns3:hr>
            <ns3:cad>0</ns3:cad>
          </ns3:TrackPointExtension>
        </extensions>
      </trkpt>
      <trkpt lat="38.05365457199513912200927734375" lon="-106.9414270855486392974853515625">
        <ele>3719.199951171875</ele>
        <time>2026-05-25T12:32:09.000Z</time>
        <extensions>
          <ns3:TrackPointExtension>
            <ns3:hr>124</ns3:hr>
            <ns3:cad>45</ns3:cad>
          </ns3:TrackPointExtension>
        </extensions>
      </trkpt>
      <trkpt lat="38.05363680236041545867919921875" lon="-106.94144208915531635284423828125">
        <ele>3719.60009765625</ele>
        <time>2026-05-25T12:32:12.000Z</time>
        <extensions>
          <ns3:TrackPointExtension>
            <ns3:hr>125</ns3:hr>
            <ns3:cad>45</ns3:cad>
          </ns3:TrackPointExtension>
        </extensions>
      </trkpt>
      <trkpt lat="38.05361785925924777984619140625" lon="-106.94146086461842060089111328125">
        <ele>3720</ele>
        <time>2026-05-25T12:32:15.000Z</time>
        <extensions>
          <ns3:TrackPointExtension>
            <ns3:hr>128</ns3:hr>
            <ns3:cad>46</ns3:cad>
          </ns3:TrackPointExtension>
        </extensions>
      </trkpt>
      <trkpt lat="38.05359723977744579315185546875" lon="-106.94148123264312744140625">
        <ele>3720.199951171875</ele>
        <time>2026-05-25T12:32:17.000Z</time>
        <extensions>
          <ns3:TrackPointExtension>
            <ns3:hr>129</ns3:hr>
            <ns3:cad>43</ns3:cad>
          </ns3:TrackPointExtension>
        </extensions>
      </trkpt>
      <trkpt lat="38.0535869300365447998046875" lon="-106.94148835726082324981689453125">
        <ele>3720.60009765625</ele>
        <time>2026-05-25T12:32:19.000Z</time>
        <extensions>
          <ns3:TrackPointExtension>
            <ns3:hr>133</ns3:hr>
            <ns3:cad>43</ns3:cad>
          </ns3:TrackPointExtension>
        </extensions>
      </trkpt>
      <trkpt lat="38.05358315818011760711669921875" lon="-106.9414881058037281036376953125">
        <ele>3720.60009765625</ele>
        <time>2026-05-25T12:32:20.000Z</time>
        <extensions>
          <ns3:TrackPointExtension>
            <ns3:hr>133</ns3:hr>
            <ns3:cad>43</ns3:cad>
          </ns3:TrackPointExtension>
        </extensions>
      </trkpt>
      <trkpt lat="38.0535589344799518585205078125" lon="-106.94149799644947052001953125">
        <ele>3721.199951171875</ele>
        <time>2026-05-25T12:32:23.000Z</time>
        <extensions>
          <ns3:TrackPointExtension>
            <ns3:hr>134</ns3:hr>
            <ns3:cad>0</ns3:cad>
          </ns3:TrackPointExtension>
        </extensions>
      </trkpt>
      <trkpt lat="38.05354443378746509552001953125" lon="-106.94151098839938640594482421875">
        <ele>3721.800048828125</ele>
        <time>2026-05-25T12:32:26.000Z</time>
        <extensions>
          <ns3:TrackPointExtension>
            <ns3:hr>131</ns3:hr>
            <ns3:cad>0</ns3:cad>
          </ns3:TrackPointExtension>
        </extensions>
      </trkpt>
      <trkpt lat="38.053510151803493499755859375" lon="-106.9415125809609889984130859375">
        <ele>3722.39990234375</ele>
        <time>2026-05-25T12:32:30.000Z</time>
        <extensions>
          <ns3:TrackPointExtension>
            <ns3:hr>128</ns3:hr>
            <ns3:cad>0</ns3:cad>
          </ns3:TrackPointExtension>
        </extensions>
      </trkpt>
      <trkpt lat="38.05349162779748439788818359375" lon="-106.9415166042745113372802734375">
        <ele>3722.800048828125</ele>
        <time>2026-05-25T12:32:32.000Z</time>
        <extensions>
          <ns3:TrackPointExtension>
            <ns3:hr>128</ns3:hr>
            <ns3:cad>0</ns3:cad>
          </ns3:TrackPointExtension>
        </extensions>
      </trkpt>
      <trkpt lat="38.05347134359180927276611328125" lon="-106.94155390374362468719482421875">
        <ele>3723</ele>
        <time>2026-05-25T12:32:36.000Z</time>
        <extensions>
          <ns3:TrackPointExtension>
            <ns3:hr>127</ns3:hr>
            <ns3:cad>0</ns3:cad>
          </ns3:TrackPointExtension>
        </extensions>
      </trkpt>
      <trkpt lat="38.053434379398822784423828125" lon="-106.9415737688541412353515625">
        <ele>3723.60009765625</ele>
        <time>2026-05-25T12:32:42.000Z</time>
        <extensions>
          <ns3:TrackPointExtension>
            <ns3:hr>129</ns3:hr>
            <ns3:cad>0</ns3:cad>
          </ns3:TrackPointExtension>
        </extensions>
      </trkpt>
      <trkpt lat="38.053434379398822784423828125" lon="-106.9415737688541412353515625">
        <ele>3723.199951171875</ele>
        <time>2026-05-25T12:32:48.000Z</time>
        <extensions>
          <ns3:TrackPointExtension>
            <ns3:hr>130</ns3:hr>
            <ns3:cad>0</ns3:cad>
          </ns3:TrackPointExtension>
        </extensions>
      </trkpt>
      <trkpt lat="38.053434379398822784423828125" lon="-106.9415737688541412353515625">
        <ele>3723.199951171875</ele>
        <time>2026-05-25T12:32:49.000Z</time>
        <extensions>
          <ns3:TrackPointExtension>
            <ns3:hr>133</ns3:hr>
            <ns3:cad>0</ns3:cad>
          </ns3:TrackPointExtension>
        </extensions>
      </trkpt>
      <trkpt lat="38.053434379398822784423828125" lon="-106.9415737688541412353515625">
        <ele>3723.39990234375</ele>
        <time>2026-05-25T12:32:55.000Z</time>
        <extensions>
          <ns3:TrackPointExtension>
            <ns3:hr>133</ns3:hr>
            <ns3:cad>0</ns3:cad>
          </ns3:TrackPointExtension>
        </extensions>
      </trkpt>
      <trkpt lat="38.053434379398822784423828125" lon="-106.9415737688541412353515625">
        <ele>3723.39990234375</ele>
        <time>2026-05-25T12:32:56.000Z</time>
        <extensions>
          <ns3:TrackPointExtension>
            <ns3:hr>133</ns3:hr>
            <ns3:cad>0</ns3:cad>
          </ns3:TrackPointExtension>
        </extensions>
      </trkpt>
      <trkpt lat="38.053434379398822784423828125" lon="-106.9415737688541412353515625">
        <ele>3723.60009765625</ele>
        <time>2026-05-25T12:33:02.000Z</time>
        <extensions>
          <ns3:TrackPointExtension>
            <ns3:hr>132</ns3:hr>
            <ns3:cad>0</ns3:cad>
          </ns3:TrackPointExtension>
        </extensions>
      </trkpt>
      <trkpt lat="38.05344100110232830047607421875" lon="-106.9415732659399509429931640625">
        <ele>3723.60009765625</ele>
        <time>2026-05-25T12:33:05.000Z</time>
        <extensions>
          <ns3:TrackPointExtension>
            <ns3:hr>131</ns3:hr>
            <ns3:cad>0</ns3:cad>
          </ns3:TrackPointExtension>
        </extensions>
      </trkpt>
      <trkpt lat="38.053434379398822784423828125" lon="-106.9415737688541412353515625">
        <ele>3723.39990234375</ele>
        <time>2026-05-25T12:33:10.000Z</time>
        <extensions>
          <ns3:TrackPointExtension>
            <ns3:hr>128</ns3:hr>
            <ns3:cad>0</ns3:cad>
          </ns3:TrackPointExtension>
        </extensions>
      </trkpt>
      <trkpt lat="38.053434379398822784423828125" lon="-106.9415737688541412353515625">
        <ele>3723</ele>
        <time>2026-05-25T12:33:13.000Z</time>
        <extensions>
          <ns3:TrackPointExtension>
            <ns3:hr>125</ns3:hr>
            <ns3:cad>0</ns3:cad>
          </ns3:TrackPointExtension>
        </extensions>
      </trkpt>
      <trkpt lat="38.0534137599170207977294921875" lon="-106.9415866769850254058837890625">
        <ele>3723.39990234375</ele>
        <time>2026-05-25T12:33:19.000Z</time>
        <extensions>
          <ns3:TrackPointExtension>
            <ns3:hr>124</ns3:hr>
            <ns3:cad>0</ns3:cad>
          </ns3:TrackPointExtension>
        </extensions>
      </trkpt>
      <trkpt lat="38.0534117482602596282958984375" lon="-106.9415871798992156982421875">
        <ele>3723.60009765625</ele>
        <time>2026-05-25T12:33:23.000Z</time>
        <extensions>
          <ns3:TrackPointExtension>
            <ns3:hr>121</ns3:hr>
            <ns3:cad>0</ns3:cad>
          </ns3:TrackPointExtension>
        </extensions>
      </trkpt>
      <trkpt lat="38.0534117482602596282958984375" lon="-106.9415871798992156982421875">
        <ele>3723.800048828125</ele>
        <time>2026-05-25T12:33:24.000Z</time>
        <extensions>
          <ns3:TrackPointExtension>
            <ns3:hr>121</ns3:hr>
            <ns3:cad>0</ns3:cad>
          </ns3:TrackPointExtension>
        </extensions>
      </trkpt>
      <trkpt lat="38.0534117482602596282958984375" lon="-106.9415871798992156982421875">
        <ele>3724</ele>
        <time>2026-05-25T12:33:28.000Z</time>
        <extensions>
          <ns3:TrackPointExtension>
            <ns3:hr>118</ns3:hr>
            <ns3:cad>0</ns3:cad>
          </ns3:TrackPointExtension>
        </extensions>
      </trkpt>
      <trkpt lat="38.0534117482602596282958984375" lon="-106.9415871798992156982421875">
        <ele>3724</ele>
        <time>2026-05-25T12:33:34.000Z</time>
        <extensions>
          <ns3:TrackPointExtension>
            <ns3:hr>118</ns3:hr>
            <ns3:cad>0</ns3:cad>
          </ns3:TrackPointExtension>
        </extensions>
      </trkpt>
      <trkpt lat="38.0534117482602596282958984375" lon="-106.9415871798992156982421875">
        <ele>3724.39990234375</ele>
        <time>2026-05-25T12:33:39.000Z</time>
        <extensions>
          <ns3:TrackPointExtension>
            <ns3:hr>116</ns3:hr>
            <ns3:cad>0</ns3:cad>
          </ns3:TrackPointExtension>
        </extensions>
      </trkpt>
      <trkpt lat="38.0534117482602596282958984375" lon="-106.9415871798992156982421875">
        <ele>3724.199951171875</ele>
        <time>2026-05-25T12:33:45.000Z</time>
        <extensions>
          <ns3:TrackPointExtension>
            <ns3:hr>116</ns3:hr>
            <ns3:cad>0</ns3:cad>
          </ns3:TrackPointExtension>
        </extensions>
      </trkpt>
      <trkpt lat="38.0534157715737819671630859375" lon="-106.94158759899437427520751953125">
        <ele>3724.60009765625</ele>
        <time>2026-05-25T12:33:48.000Z</time>
        <extensions>
          <ns3:TrackPointExtension>
            <ns3:hr>115</ns3:hr>
            <ns3:cad>0</ns3:cad>
          </ns3:TrackPointExtension>
        </extensions>
      </trkpt>
      <trkpt lat="38.0534157715737819671630859375" lon="-106.94158759899437427520751953125">
        <ele>3724.800048828125</ele>
        <time>2026-05-25T12:33:49.000Z</time>
        <extensions>
          <ns3:TrackPointExtension>
            <ns3:hr>115</ns3:hr>
            <ns3:cad>0</ns3:cad>
          </ns3:TrackPointExtension>
        </extensions>
      </trkpt>
      <trkpt lat="38.053413927555084228515625" lon="-106.9415910355746746063232421875">
        <ele>3725</ele>
        <time>2026-05-25T12:33:53.000Z</time>
        <extensions>
          <ns3:TrackPointExtension>
            <ns3:hr>118</ns3:hr>
            <ns3:cad>0</ns3:cad>
          </ns3:TrackPointExtension>
        </extensions>
      </trkpt>
      <trkpt lat="38.0534208007156848907470703125" lon="-106.9415970705449581146240234375">
        <ele>3724.60009765625</ele>
        <time>2026-05-25T12:33:55.000Z</time>
        <extensions>
          <ns3:TrackPointExtension>
            <ns3:hr>118</ns3:hr>
            <ns3:cad>0</ns3:cad>
          </ns3:TrackPointExtension>
        </extensions>
      </trkpt>
      <trkpt lat="38.0534174479544162750244140625" lon="-106.94160251878201961517333984375">
        <ele>3724.39990234375</ele>
        <time>2026-05-25T12:34:00.000Z</time>
        <extensions>
          <ns3:TrackPointExtension>
            <ns3:hr>114</ns3:hr>
            <ns3:cad>0</ns3:cad>
          </ns3:TrackPointExtension>
        </extensions>
      </trkpt>
      <trkpt lat="38.05342490784823894500732421875" lon="-106.94159648381173610687255859375">
        <ele>3724.39990234375</ele>
        <time>2026-05-25T12:34:01.000Z</time>
        <extensions>
          <ns3:TrackPointExtension>
            <ns3:hr>110</ns3:hr>
            <ns3:cad>0</ns3:cad>
          </ns3:TrackPointExtension>
        </extensions>
      </trkpt>
      <trkpt lat="38.05343060754239559173583984375" lon="-106.94159832783043384552001953125">
        <ele>3724.39990234375</ele>
        <time>2026-05-25T12:34:02.000Z</time>
        <extensions>
          <ns3:TrackPointExtension>
            <ns3:hr>108</ns3:hr>
            <ns3:cad>0</ns3:cad>
          </ns3:TrackPointExtension>
        </extensions>
      </trkpt>
      <trkpt lat="38.0534315295517444610595703125" lon="-106.9415984116494655609130859375">
        <ele>3724.60009765625</ele>
        <time>2026-05-25T12:34:08.000Z</time>
        <extensions>
          <ns3:TrackPointExtension>
            <ns3:hr>109</ns3:hr>
            <ns3:cad>0</ns3:cad>
          </ns3:TrackPointExtension>
        </extensions>
      </trkpt>
      <trkpt lat="38.0534315295517444610595703125" lon="-106.9415984116494655609130859375">
        <ele>3724.800048828125</ele>
        <time>2026-05-25T12:34:14.000Z</time>
        <extensions>
          <ns3:TrackPointExtension>
            <ns3:hr>109</ns3:hr>
            <ns3:cad>0</ns3:cad>
          </ns3:TrackPointExtension>
        </extensions>
      </trkpt>
      <trkpt lat="38.0534315295517444610595703125" lon="-106.9415984116494655609130859375">
        <ele>3724.60009765625</ele>
        <time>2026-05-25T12:34:15.000Z</time>
        <extensions>
          <ns3:TrackPointExtension>
            <ns3:hr>109</ns3:hr>
            <ns3:cad>0</ns3:cad>
          </ns3:TrackPointExtension>
        </extensions>
      </trkpt>
      <trkpt lat="38.0534315295517444610595703125" lon="-106.9415984116494655609130859375">
        <ele>3725.199951171875</ele>
        <time>2026-05-25T12:34:20.000Z</time>
        <extensions>
          <ns3:TrackPointExtension>
            <ns3:hr>106</ns3:hr>
            <ns3:cad>0</ns3:cad>
          </ns3:TrackPointExtension>
        </extensions>
      </trkpt>
      <trkpt lat="38.0534315295517444610595703125" lon="-106.9415984116494655609130859375">
        <ele>3724.39990234375</ele>
        <time>2026-05-25T12:34:25.000Z</time>
        <extensions>
          <ns3:TrackPointExtension>
            <ns3:hr>108</ns3:hr>
            <ns3:cad>0</ns3:cad>
          </ns3:TrackPointExtension>
        </extensions>
      </trkpt>
      <trkpt lat="38.053436391055583953857421875" lon="-106.9416014291346073150634765625">
        <ele>3724.800048828125</ele>
        <time>2026-05-25T12:34:31.000Z</time>
        <extensions>
          <ns3:TrackPointExtension>
            <ns3:hr>109</ns3:hr>
            <ns3:cad>0</ns3:cad>
          </ns3:TrackPointExtension>
        </extensions>
      </trkpt>
      <trkpt lat="38.0534315295517444610595703125" lon="-106.9415984116494655609130859375">
        <ele>3724.800048828125</ele>
        <time>2026-05-25T12:34:37.000Z</time>
        <extensions>
          <ns3:TrackPointExtension>
            <ns3:hr>109</ns3:hr>
            <ns3:cad>0</ns3:cad>
          </ns3:TrackPointExtension>
        </extensions>
      </trkpt>
      <trkpt lat="38.0534315295517444610595703125" lon="-106.9415984116494655609130859375">
        <ele>3724.199951171875</ele>
        <time>2026-05-25T12:34:43.000Z</time>
        <extensions>
          <ns3:TrackPointExtension>
            <ns3:hr>109</ns3:hr>
            <ns3:cad>0</ns3:cad>
          </ns3:TrackPointExtension>
        </extensions>
      </trkpt>
      <trkpt lat="38.0534315295517444610595703125" lon="-106.9415984116494655609130859375">
        <ele>3724.39990234375</ele>
        <time>2026-05-25T12:34:49.000Z</time>
        <extensions>
          <ns3:TrackPointExtension>
            <ns3:hr>109</ns3:hr>
            <ns3:cad>0</ns3:cad>
          </ns3:TrackPointExtension>
        </extensions>
      </trkpt>
      <trkpt lat="38.0534315295517444610595703125" lon="-106.9415984116494655609130859375">
        <ele>3724.39990234375</ele>
        <time>2026-05-25T12:34:50.000Z</time>
        <extensions>
          <ns3:TrackPointExtension>
            <ns3:hr>110</ns3:hr>
            <ns3:cad>0</ns3:cad>
          </ns3:TrackPointExtension>
        </extensions>
      </trkpt>
      <trkpt lat="38.0534315295517444610595703125" lon="-106.9415984116494655609130859375">
        <ele>3724.800048828125</ele>
        <time>2026-05-25T12:34:56.000Z</time>
        <extensions>
          <ns3:TrackPointExtension>
            <ns3:hr>110</ns3:hr>
            <ns3:cad>0</ns3:cad>
          </ns3:TrackPointExtension>
        </extensions>
      </trkpt>
      <trkpt lat="38.05340663529932498931884765625" lon="-106.94161257706582546234130859375">
        <ele>3724.800048828125</ele>
        <time>2026-05-25T12:35:00.000Z</time>
        <extensions>
          <ns3:TrackPointExtension>
            <ns3:hr>110</ns3:hr>
            <ns3:cad>0</ns3:cad>
          </ns3:TrackPointExtension>
        </extensions>
      </trkpt>
      <trkpt lat="38.0533661507070064544677734375" lon="-106.94164258427917957305908203125">
        <ele>3725.800048828125</ele>
        <time>2026-05-25T12:35:06.000Z</time>
        <extensions>
          <ns3:TrackPointExtension>
            <ns3:hr>108</ns3:hr>
            <ns3:cad>0</ns3:cad>
          </ns3:TrackPointExtension>
        </extensions>
      </trkpt>
      <trkpt lat="38.05336137302219867706298828125" lon="-106.94164493121206760406494140625">
        <ele>3726.199951171875</ele>
        <time>2026-05-25T12:35:07.000Z</time>
        <extensions>
          <ns3:TrackPointExtension>
            <ns3:hr>108</ns3:hr>
            <ns3:cad>0</ns3:cad>
          </ns3:TrackPointExtension>
        </extensions>
      </trkpt>
      <trkpt lat="38.053322732448577880859375" lon="-106.941675357520580291748046875">
        <ele>3727</ele>
        <time>2026-05-25T12:35:12.000Z</time>
        <extensions>
          <ns3:TrackPointExtension>
            <ns3:hr>109</ns3:hr>
            <ns3:cad>0</ns3:cad>
          </ns3:TrackPointExtension>
        </extensions>
      </trkpt>
      <trkpt lat="38.05331141687929630279541015625" lon="-106.94168365560472011566162109375">
        <ele>3727.39990234375</ele>
        <time>2026-05-25T12:35:13.000Z</time>
        <extensions>
          <ns3:TrackPointExtension>
            <ns3:hr>109</ns3:hr>
            <ns3:cad>0</ns3:cad>
          </ns3:TrackPointExtension>
        </extensions>
      </trkpt>
      <trkpt lat="38.05330085568130016326904296875" lon="-106.9416812248528003692626953125">
        <ele>3727.800048828125</ele>
        <time>2026-05-25T12:35:14.000Z</time>
        <extensions>
          <ns3:TrackPointExtension>
            <ns3:hr>109</ns3:hr>
            <ns3:cad>0</ns3:cad>
          </ns3:TrackPointExtension>
        </extensions>
      </trkpt>
      <trkpt lat="38.05325844325125217437744140625" lon="-106.9416959770023822784423828125">
        <ele>3728.39990234375</ele>
        <time>2026-05-25T12:35:19.000Z</time>
        <extensions>
          <ns3:TrackPointExtension>
            <ns3:hr>111</ns3:hr>
            <ns3:cad>0</ns3:cad>
          </ns3:TrackPointExtension>
        </extensions>
      </trkpt>
      <trkpt lat="38.053233213722705841064453125" lon="-106.94172539748251438140869140625">
        <ele>3728.39990234375</ele>
        <time>2026-05-25T12:35:21.000Z</time>
        <extensions>
          <ns3:TrackPointExtension>
            <ns3:hr>112</ns3:hr>
            <ns3:cad>49</ns3:cad>
          </ns3:TrackPointExtension>
        </extensions>
      </trkpt>
      <trkpt lat="38.053209744393825531005859375" lon="-106.94174618460237979888916015625">
        <ele>3729</ele>
        <time>2026-05-25T12:35:24.000Z</time>
        <extensions>
          <ns3:TrackPointExtension>
            <ns3:hr>115</ns3:hr>
            <ns3:cad>0</ns3:cad>
          </ns3:TrackPointExtension>
        </extensions>
      </trkpt>
      <trkpt lat="38.05320345796644687652587890625" lon="-106.941752135753631591796875">
        <ele>3729</ele>
        <time>2026-05-25T12:35:25.000Z</time>
        <extensions>
          <ns3:TrackPointExtension>
            <ns3:hr>115</ns3:hr>
            <ns3:cad>51</ns3:cad>
          </ns3:TrackPointExtension>
        </extensions>
      </trkpt>
      <trkpt lat="38.05318753235042095184326171875" lon="-106.94176018238067626953125">
        <ele>3728.800048828125</ele>
        <time>2026-05-25T12:35:28.000Z</time>
        <extensions>
          <ns3:TrackPointExtension>
            <ns3:hr>118</ns3:hr>
            <ns3:cad>53</ns3:cad>
          </ns3:TrackPointExtension>
        </extensions>
      </trkpt>
      <trkpt lat="38.053164817392826080322265625" lon="-106.94178658537566661834716796875">
        <ele>3729.39990234375</ele>
        <time>2026-05-25T12:35:31.000Z</time>
        <extensions>
          <ns3:TrackPointExtension>
            <ns3:hr>121</ns3:hr>
            <ns3:cad>47</ns3:cad>
          </ns3:TrackPointExtension>
        </extensions>
      </trkpt>
      <trkpt lat="38.053156770765781402587890625" lon="-106.94179044105112552642822265625">
        <ele>3729.800048828125</ele>
        <time>2026-05-25T12:35:32.000Z</time>
        <extensions>
          <ns3:TrackPointExtension>
            <ns3:hr>121</ns3:hr>
            <ns3:cad>47</ns3:cad>
          </ns3:TrackPointExtension>
        </extensions>
      </trkpt>
      <trkpt lat="38.053141348063945770263671875" lon="-106.94180049933493137359619140625">
        <ele>3730.800048828125</ele>
        <time>2026-05-25T12:35:36.000Z</time>
        <extensions>
          <ns3:TrackPointExtension>
            <ns3:hr>122</ns3:hr>
            <ns3:cad>0</ns3:cad>
          </ns3:TrackPointExtension>
        </extensions>
      </trkpt>
      <trkpt lat="38.0531053058803081512451171875" lon="-106.941821873188018798828125">
        <ele>3731.60009765625</ele>
        <time>2026-05-25T12:35:39.000Z</time>
        <extensions>
          <ns3:TrackPointExtension>
            <ns3:hr>123</ns3:hr>
            <ns3:cad>0</ns3:cad>
          </ns3:TrackPointExtension>
        </extensions>
      </trkpt>
      <trkpt lat="38.0530895479023456573486328125" lon="-106.94182966835796833038330078125">
        <ele>3731.800048828125</ele>
        <time>2026-05-25T12:35:41.000Z</time>
        <extensions>
          <ns3:TrackPointExtension>
            <ns3:hr>122</ns3:hr>
            <ns3:cad>0</ns3:cad>
          </ns3:TrackPointExtension>
        </extensions>
      </trkpt>
      <trkpt lat="38.05306247435510158538818359375" lon="-106.94185313768684864044189453125">
        <ele>3732.39990234375</ele>
        <time>2026-05-25T12:35:46.000Z</time>
        <extensions>
          <ns3:TrackPointExtension>
            <ns3:hr>119</ns3:hr>
            <ns3:cad>47</ns3:cad>
          </ns3:TrackPointExtension>
        </extensions>
      </trkpt>
      <trkpt lat="38.053038083016872406005859375" lon="-106.9418661296367645263671875">
        <ele>3733</ele>
        <time>2026-05-25T12:35:49.000Z</time>
        <extensions>
          <ns3:TrackPointExtension>
            <ns3:hr>120</ns3:hr>
            <ns3:cad>0</ns3:cad>
          </ns3:TrackPointExtension>
        </extensions>
      </trkpt>
      <trkpt lat="38.05302056483924388885498046875" lon="-106.941865794360637664794921875">
        <ele>3733</ele>
        <time>2026-05-25T12:35:51.000Z</time>
        <extensions>
          <ns3:TrackPointExtension>
            <ns3:hr>121</ns3:hr>
            <ns3:cad>49</ns3:cad>
          </ns3:TrackPointExtension>
        </extensions>
      </trkpt>
      <trkpt lat="38.0530107580125331878662109375" lon="-106.9418636150658130645751953125">
        <ele>3733</ele>
        <time>2026-05-25T12:35:52.000Z</time>
        <extensions>
          <ns3:TrackPointExtension>
            <ns3:hr>121</ns3:hr>
            <ns3:cad>49</ns3:cad>
          </ns3:TrackPointExtension>
        </extensions>
      </trkpt>
      <trkpt lat="38.052979744970798492431640625" lon="-106.94187710992991924285888671875">
        <ele>3733.60009765625</ele>
        <time>2026-05-25T12:35:56.000Z</time>
        <extensions>
          <ns3:TrackPointExtension>
            <ns3:hr>119</ns3:hr>
            <ns3:cad>0</ns3:cad>
          </ns3:TrackPointExtension>
        </extensions>
      </trkpt>
      <trkpt lat="38.0529700219631195068359375" lon="-106.94188549183309078216552734375">
        <ele>3734.199951171875</ele>
        <time>2026-05-25T12:35:58.000Z</time>
        <extensions>
          <ns3:TrackPointExtension>
            <ns3:hr>120</ns3:hr>
            <ns3:cad>0</ns3:cad>
          </ns3:TrackPointExtension>
        </extensions>
      </trkpt>
      <trkpt lat="38.0529480613768100738525390625" lon="-106.94191373884677886962890625">
        <ele>3734.60009765625</ele>
        <time>2026-05-25T12:36:00.000Z</time>
        <extensions>
          <ns3:TrackPointExtension>
            <ns3:hr>123</ns3:hr>
            <ns3:cad>0</ns3:cad>
          </ns3:TrackPointExtension>
        </extensions>
      </trkpt>
      <trkpt lat="38.05292953737080097198486328125" lon="-106.94192153401672840118408203125">
        <ele>3735.199951171875</ele>
        <time>2026-05-25T12:36:04.000Z</time>
        <extensions>
          <ns3:TrackPointExtension>
            <ns3:hr>124</ns3:hr>
            <ns3:cad>48</ns3:cad>
          </ns3:TrackPointExtension>
        </extensions>
      </trkpt>
      <trkpt lat="38.05291512049734592437744140625" lon="-106.9419293291866779327392578125">
        <ele>3735.39990234375</ele>
        <time>2026-05-25T12:36:05.000Z</time>
        <extensions>
          <ns3:TrackPointExtension>
            <ns3:hr>124</ns3:hr>
            <ns3:cad>48</ns3:cad>
          </ns3:TrackPointExtension>
        </extensions>
      </trkpt>
      <trkpt lat="38.05289651267230510711669921875" lon="-106.9419410638511180877685546875">
        <ele>3735.800048828125</ele>
        <time>2026-05-25T12:36:08.000Z</time>
        <extensions>
          <ns3:TrackPointExtension>
            <ns3:hr>128</ns3:hr>
            <ns3:cad>0</ns3:cad>
          </ns3:TrackPointExtension>
        </extensions>
      </trkpt>
      <trkpt lat="38.0528836883604526519775390625" lon="-106.9419457577168941497802734375">
        <ele>3736</ele>
        <time>2026-05-25T12:36:10.000Z</time>
        <extensions>
          <ns3:TrackPointExtension>
            <ns3:hr>131</ns3:hr>
            <ns3:cad>0</ns3:cad>
          </ns3:TrackPointExtension>
        </extensions>
      </trkpt>
      <trkpt lat="38.05287052877247333526611328125" lon="-106.94195137359201908111572265625">
        <ele>3736.199951171875</ele>
        <time>2026-05-25T12:36:12.000Z</time>
        <extensions>
          <ns3:TrackPointExtension>
            <ns3:hr>132</ns3:hr>
            <ns3:cad>0</ns3:cad>
          </ns3:TrackPointExtension>
        </extensions>
      </trkpt>
      <trkpt lat="38.05286206305027008056640625" lon="-106.9419504515826702117919921875">
        <ele>3736.60009765625</ele>
        <time>2026-05-25T12:36:13.000Z</time>
        <extensions>
          <ns3:TrackPointExtension>
            <ns3:hr>133</ns3:hr>
            <ns3:cad>0</ns3:cad>
          </ns3:TrackPointExtension>
        </extensions>
      </trkpt>
      <trkpt lat="38.05284253321588039398193359375" lon="-106.94196201860904693603515625">
        <ele>3737.800048828125</ele>
        <time>2026-05-25T12:36:16.000Z</time>
        <extensions>
          <ns3:TrackPointExtension>
            <ns3:hr>134</ns3:hr>
            <ns3:cad>44</ns3:cad>
          </ns3:TrackPointExtension>
        </extensions>
      </trkpt>
      <trkpt lat="38.052830882370471954345703125" lon="-106.94195791147649288177490234375">
        <ele>3738.199951171875</ele>
        <time>2026-05-25T12:36:19.000Z</time>
        <extensions>
          <ns3:TrackPointExtension>
            <ns3:hr>132</ns3:hr>
            <ns3:cad>44</ns3:cad>
          </ns3:TrackPointExtension>
        </extensions>
      </trkpt>
      <trkpt lat="38.052826859056949615478515625" lon="-106.94195573218166828155517578125">
        <ele>3738.199951171875</ele>
        <time>2026-05-25T12:36:20.000Z</time>
        <extensions>
          <ns3:TrackPointExtension>
            <ns3:hr>129</ns3:hr>
            <ns3:cad>44</ns3:cad>
          </ns3:TrackPointExtension>
        </extensions>
      </trkpt>
      <trkpt lat="38.05280481465160846710205078125" lon="-106.9419465959072113037109375">
        <ele>3738.39990234375</ele>
        <time>2026-05-25T12:36:22.000Z</time>
        <extensions>
          <ns3:TrackPointExtension>
            <ns3:hr>124</ns3:hr>
            <ns3:cad>44</ns3:cad>
          </ns3:TrackPointExtension>
        </extensions>
      </trkpt>
      <trkpt lat="38.05279341526329517364501953125" lon="-106.94194399751722812652587890625">
        <ele>3739</ele>
        <time>2026-05-25T12:36:25.000Z</time>
        <extensions>
          <ns3:TrackPointExtension>
            <ns3:hr>123</ns3:hr>
            <ns3:cad>0</ns3:cad>
          </ns3:TrackPointExtension>
        </extensions>
      </trkpt>
      <trkpt lat="38.05278352461755275726318359375" lon="-106.9419417344033718109130859375">
        <ele>3739.199951171875</ele>
        <time>2026-05-25T12:36:26.000Z</time>
        <extensions>
          <ns3:TrackPointExtension>
            <ns3:hr>123</ns3:hr>
            <ns3:cad>0</ns3:cad>
          </ns3:TrackPointExtension>
        </extensions>
      </trkpt>
      <trkpt lat="38.05271864868700504302978515625" lon="-106.941926479339599609375">
        <ele>3739.60009765625</ele>
        <time>2026-05-25T12:36:32.000Z</time>
        <extensions>
          <ns3:TrackPointExtension>
            <ns3:hr>124</ns3:hr>
            <ns3:cad>44</ns3:cad>
          </ns3:TrackPointExtension>
        </extensions>
      </trkpt>
      <trkpt lat="38.052700124680995941162109375" lon="-106.94192119874060153961181640625">
        <ele>3740</ele>
        <time>2026-05-25T12:36:35.000Z</time>
        <extensions>
          <ns3:TrackPointExtension>
            <ns3:hr>124</ns3:hr>
            <ns3:cad>0</ns3:cad>
          </ns3:TrackPointExtension>
        </extensions>
      </trkpt>
      <trkpt lat="38.052700124680995941162109375" lon="-106.94192119874060153961181640625">
        <ele>3740</ele>
        <time>2026-05-25T12:36:36.000Z</time>
        <extensions>
          <ns3:TrackPointExtension>
            <ns3:hr>124</ns3:hr>
            <ns3:cad>0</ns3:cad>
          </ns3:TrackPointExtension>
        </extensions>
      </trkpt>
      <trkpt lat="38.052665926516056060791015625" lon="-106.94190342910587787628173828125">
        <ele>3741.199951171875</ele>
        <time>2026-05-25T12:36:40.000Z</time>
        <extensions>
          <ns3:TrackPointExtension>
            <ns3:hr>124</ns3:hr>
            <ns3:cad>0</ns3:cad>
          </ns3:TrackPointExtension>
        </extensions>
      </trkpt>
      <trkpt lat="38.052619993686676025390625" lon="-106.94192170165479183197021484375">
        <ele>3741.39990234375</ele>
        <time>2026-05-25T12:36:45.000Z</time>
        <extensions>
          <ns3:TrackPointExtension>
            <ns3:hr>124</ns3:hr>
            <ns3:cad>45</ns3:cad>
          </ns3:TrackPointExtension>
        </extensions>
      </trkpt>
      <trkpt lat="38.0525846220552921295166015625" lon="-106.94194517098367214202880859375">
        <ele>3742.199951171875</ele>
        <time>2026-05-25T12:36:51.000Z</time>
        <extensions>
          <ns3:TrackPointExtension>
            <ns3:hr>123</ns3:hr>
            <ns3:cad>0</ns3:cad>
          </ns3:TrackPointExtension>
        </extensions>
      </trkpt>
      <trkpt lat="38.05257079191505908966064453125" lon="-106.9419573247432708740234375">
        <ele>3742.800048828125</ele>
        <time>2026-05-25T12:36:54.000Z</time>
        <extensions>
          <ns3:TrackPointExtension>
            <ns3:hr>114</ns3:hr>
            <ns3:cad>0</ns3:cad>
          </ns3:TrackPointExtension>
        </extensions>
      </trkpt>
      <trkpt lat="38.0525634996592998504638671875" lon="-106.9419692270457744598388671875">
        <ele>3743</ele>
        <time>2026-05-25T12:36:56.000Z</time>
        <extensions>
          <ns3:TrackPointExtension>
            <ns3:hr>111</ns3:hr>
            <ns3:cad>0</ns3:cad>
          </ns3:TrackPointExtension>
        </extensions>
      </trkpt>
      <trkpt lat="38.052556626498699188232421875" lon="-106.9419769383966922760009765625">
        <ele>3743.199951171875</ele>
        <time>2026-05-25T12:36:57.000Z</time>
        <extensions>
          <ns3:TrackPointExtension>
            <ns3:hr>111</ns3:hr>
            <ns3:cad>0</ns3:cad>
          </ns3:TrackPointExtension>
        </extensions>
      </trkpt>
      <trkpt lat="38.05255285464227199554443359375" lon="-106.94198020733892917633056640625">
        <ele>3743.39990234375</ele>
        <time>2026-05-25T12:36:59.000Z</time>
        <extensions>
          <ns3:TrackPointExtension>
            <ns3:hr>111</ns3:hr>
            <ns3:cad>0</ns3:cad>
          </ns3:TrackPointExtension>
        </extensions>
      </trkpt>
      <trkpt lat="38.05250843055546283721923828125" lon="-106.94200895726680755615234375">
        <ele>3744.39990234375</ele>
        <time>2026-05-25T12:37:04.000Z</time>
        <extensions>
          <ns3:TrackPointExtension>
            <ns3:hr>111</ns3:hr>
            <ns3:cad>0</ns3:cad>
          </ns3:TrackPointExtension>
        </extensions>
      </trkpt>
      <trkpt lat="38.052504993975162506103515625" lon="-106.942011974751949310302734375">
        <ele>3744.60009765625</ele>
        <time>2026-05-25T12:37:05.000Z</time>
        <extensions>
          <ns3:TrackPointExtension>
            <ns3:hr>110</ns3:hr>
            <ns3:cad>0</ns3:cad>
          </ns3:TrackPointExtension>
        </extensions>
      </trkpt>
      <trkpt lat="38.0524894036352634429931640625" lon="-106.94203468970954418182373046875">
        <ele>3744.800048828125</ele>
        <time>2026-05-25T12:37:08.000Z</time>
        <extensions>
          <ns3:TrackPointExtension>
            <ns3:hr>111</ns3:hr>
            <ns3:cad>0</ns3:cad>
          </ns3:TrackPointExtension>
        </extensions>
      </trkpt>
      <trkpt lat="38.052462749183177947998046875" lon="-106.94206335581839084625244140625">
        <ele>3745.60009765625</ele>
        <time>2026-05-25T12:37:13.000Z</time>
        <extensions>
          <ns3:TrackPointExtension>
            <ns3:hr>111</ns3:hr>
            <ns3:cad>0</ns3:cad>
          </ns3:TrackPointExtension>
        </extensions>
      </trkpt>
      <trkpt lat="38.0524515174329280853271484375" lon="-106.94207006134092807769775390625">
        <ele>3745.800048828125</ele>
        <time>2026-05-25T12:37:14.000Z</time>
        <extensions>
          <ns3:TrackPointExtension>
            <ns3:hr>111</ns3:hr>
            <ns3:cad>0</ns3:cad>
          </ns3:TrackPointExtension>
        </extensions>
      </trkpt>
      <trkpt lat="38.05242880247533321380615234375" lon="-106.9420875795185565948486328125">
        <ele>3746.800048828125</ele>
        <time>2026-05-25T12:37:18.000Z</time>
        <extensions>
          <ns3:TrackPointExtension>
            <ns3:hr>114</ns3:hr>
            <ns3:cad>0</ns3:cad>
          </ns3:TrackPointExtension>
        </extensions>
      </trkpt>
      <trkpt lat="38.052415810525417327880859375" lon="-106.9420989789068698883056640625">
        <ele>3746.800048828125</ele>
        <time>2026-05-25T12:37:20.000Z</time>
        <extensions>
          <ns3:TrackPointExtension>
            <ns3:hr>116</ns3:hr>
            <ns3:cad>0</ns3:cad>
          </ns3:TrackPointExtension>
        </extensions>
      </trkpt>
      <trkpt lat="38.05241740308701992034912109375" lon="-106.9420983083546161651611328125">
        <ele>3746.199951171875</ele>
        <time>2026-05-25T12:37:24.000Z</time>
        <extensions>
          <ns3:TrackPointExtension>
            <ns3:hr>119</ns3:hr>
            <ns3:cad>0</ns3:cad>
          </ns3:TrackPointExtension>
        </extensions>
      </trkpt>
      <trkpt lat="38.05241740308701992034912109375" lon="-106.9420983083546161651611328125">
        <ele>3746</ele>
        <time>2026-05-25T12:37:26.000Z</time>
        <extensions>
          <ns3:TrackPointExtension>
            <ns3:hr>119</ns3:hr>
            <ns3:cad>0</ns3:cad>
          </ns3:TrackPointExtension>
        </extensions>
      </trkpt>
      <trkpt lat="38.05239980109035968780517578125" lon="-106.94211867637932300567626953125">
        <ele>3746.199951171875</ele>
        <time>2026-05-25T12:37:30.000Z</time>
        <extensions>
          <ns3:TrackPointExtension>
            <ns3:hr>122</ns3:hr>
            <ns3:cad>0</ns3:cad>
          </ns3:TrackPointExtension>
        </extensions>
      </trkpt>
      <trkpt lat="38.05238421075046062469482421875" lon="-106.94213544018566608428955078125">
        <ele>3746.60009765625</ele>
        <time>2026-05-25T12:37:32.000Z</time>
        <extensions>
          <ns3:TrackPointExtension>
            <ns3:hr>127</ns3:hr>
            <ns3:cad>0</ns3:cad>
          </ns3:TrackPointExtension>
        </extensions>
      </trkpt>
      <trkpt lat="38.0523801036179065704345703125" lon="-106.94213963113725185394287109375">
        <ele>3746.60009765625</ele>
        <time>2026-05-25T12:37:33.000Z</time>
        <extensions>
          <ns3:TrackPointExtension>
            <ns3:hr>127</ns3:hr>
            <ns3:cad>0</ns3:cad>
          </ns3:TrackPointExtension>
        </extensions>
      </trkpt>
      <trkpt lat="38.05234246887266635894775390625" lon="-106.94217014126479625701904296875">
        <ele>3747.60009765625</ele>
        <time>2026-05-25T12:37:38.000Z</time>
        <extensions>
          <ns3:TrackPointExtension>
            <ns3:hr>126</ns3:hr>
            <ns3:cad>46</ns3:cad>
          </ns3:TrackPointExtension>
        </extensions>
      </trkpt>
      <trkpt lat="38.052316568791866302490234375" lon="-106.94219260476529598236083984375">
        <ele>3747.800048828125</ele>
        <time>2026-05-25T12:37:43.000Z</time>
        <extensions>
          <ns3:TrackPointExtension>
            <ns3:hr>127</ns3:hr>
            <ns3:cad>43</ns3:cad>
          </ns3:TrackPointExtension>
        </extensions>
      </trkpt>
      <trkpt lat="38.052310533821582794189453125" lon="-106.94218858145177364349365234375">
        <ele>3748.199951171875</ele>
        <time>2026-05-25T12:37:44.000Z</time>
        <extensions>
          <ns3:TrackPointExtension>
            <ns3:hr>127</ns3:hr>
            <ns3:cad>43</ns3:cad>
          </ns3:TrackPointExtension>
        </extensions>
      </trkpt>
      <trkpt lat="38.0522905848920345306396484375" lon="-106.94218858145177364349365234375">
        <ele>3748.800048828125</ele>
        <time>2026-05-25T12:37:46.000Z</time>
        <extensions>
          <ns3:TrackPointExtension>
            <ns3:hr>127</ns3:hr>
            <ns3:cad>45</ns3:cad>
          </ns3:TrackPointExtension>
        </extensions>
      </trkpt>
      <trkpt lat="38.052278347313404083251953125" lon="-106.94219126366078853607177734375">
        <ele>3749</ele>
        <time>2026-05-25T12:37:47.000Z</time>
        <extensions>
          <ns3:TrackPointExtension>
            <ns3:hr>128</ns3:hr>
            <ns3:cad>43</ns3:cad>
          </ns3:TrackPointExtension>
        </extensions>
      </trkpt>
      <trkpt lat="38.05226183496415615081787109375" lon="-106.94222479127347469329833984375">
        <ele>3749.199951171875</ele>
        <time>2026-05-25T12:37:51.000Z</time>
        <extensions>
          <ns3:TrackPointExtension>
            <ns3:hr>127</ns3:hr>
            <ns3:cad>43</ns3:cad>
          </ns3:TrackPointExtension>
        </extensions>
      </trkpt>
      <trkpt lat="38.05222512222826480865478515625" lon="-106.94224524311721324920654296875">
        <ele>3750</ele>
        <time>2026-05-25T12:37:55.000Z</time>
        <extensions>
          <ns3:TrackPointExtension>
            <ns3:hr>128</ns3:hr>
            <ns3:cad>0</ns3:cad>
          </ns3:TrackPointExtension>
        </extensions>
      </trkpt>
      <trkpt lat="38.05219125933945178985595703125" lon="-106.9422625936567783355712890625">
        <ele>3751.199951171875</ele>
        <time>2026-05-25T12:37:59.000Z</time>
        <extensions>
          <ns3:TrackPointExtension>
            <ns3:hr>131</ns3:hr>
            <ns3:cad>0</ns3:cad>
          </ns3:TrackPointExtension>
        </extensions>
      </trkpt>
      <trkpt lat="38.052184469997882843017578125" lon="-106.9422642700374126434326171875">
        <ele>3751.39990234375</ele>
        <time>2026-05-25T12:38:00.000Z</time>
        <extensions>
          <ns3:TrackPointExtension>
            <ns3:hr>131</ns3:hr>
            <ns3:cad>0</ns3:cad>
          </ns3:TrackPointExtension>
        </extensions>
      </trkpt>
      <trkpt lat="38.0521782673895359039306640625" lon="-106.9422749988734722137451171875">
        <ele>3751.60009765625</ele>
        <time>2026-05-25T12:38:02.000Z</time>
        <extensions>
          <ns3:TrackPointExtension>
            <ns3:hr>131</ns3:hr>
            <ns3:cad>0</ns3:cad>
          </ns3:TrackPointExtension>
        </extensions>
      </trkpt>
      <trkpt lat="38.05214348249137401580810546875" lon="-106.94229771383106708526611328125">
        <ele>3750.800048828125</ele>
        <time>2026-05-25T12:38:07.000Z</time>
        <extensions>
          <ns3:TrackPointExtension>
            <ns3:hr>130</ns3:hr>
            <ns3:cad>0</ns3:cad>
          </ns3:TrackPointExtension>
        </extensions>
      </trkpt>
      <trkpt lat="38.0521138943731784820556640625" lon="-106.94233207963407039642333984375">
        <ele>3751.60009765625</ele>
        <time>2026-05-25T12:38:11.000Z</time>
        <extensions>
          <ns3:TrackPointExtension>
            <ns3:hr>128</ns3:hr>
            <ns3:cad>0</ns3:cad>
          </ns3:TrackPointExtension>
        </extensions>
      </trkpt>
      <trkpt lat="38.052100650966167449951171875" lon="-106.94235320203006267547607421875">
        <ele>3752.199951171875</ele>
        <time>2026-05-25T12:38:15.000Z</time>
        <extensions>
          <ns3:TrackPointExtension>
            <ns3:hr>128</ns3:hr>
            <ns3:cad>0</ns3:cad>
          </ns3:TrackPointExtension>
        </extensions>
      </trkpt>
      <trkpt lat="38.0520904250442981719970703125" lon="-106.94236426614224910736083984375">
        <ele>3752.39990234375</ele>
        <time>2026-05-25T12:38:17.000Z</time>
        <extensions>
          <ns3:TrackPointExtension>
            <ns3:hr>130</ns3:hr>
            <ns3:cad>0</ns3:cad>
          </ns3:TrackPointExtension>
        </extensions>
      </trkpt>
      <trkpt lat="38.0520267225801944732666015625" lon="-106.94239477626979351043701171875">
        <ele>3753</ele>
        <time>2026-05-25T12:38:23.000Z</time>
        <extensions>
          <ns3:TrackPointExtension>
            <ns3:hr>131</ns3:hr>
            <ns3:cad>44</ns3:cad>
          </ns3:TrackPointExtension>
        </extensions>
      </trkpt>
      <trkpt lat="38.05200467817485332489013671875" lon="-106.94241254590451717376708984375">
        <ele>3753.199951171875</ele>
        <time>2026-05-25T12:38:25.000Z</time>
        <extensions>
          <ns3:TrackPointExtension>
            <ns3:hr>131</ns3:hr>
            <ns3:cad>44</ns3:cad>
          </ns3:TrackPointExtension>
        </extensions>
      </trkpt>
      <trkpt lat="38.0519854836165904998779296875" lon="-106.9424481689929962158203125">
        <ele>3753.39990234375</ele>
        <time>2026-05-25T12:38:28.000Z</time>
        <extensions>
          <ns3:TrackPointExtension>
            <ns3:hr>129</ns3:hr>
            <ns3:cad>0</ns3:cad>
          </ns3:TrackPointExtension>
        </extensions>
      </trkpt>
      <trkpt lat="38.0519734136760234832763671875" lon="-106.9424696266651153564453125">
        <ele>3753.60009765625</ele>
        <time>2026-05-25T12:38:30.000Z</time>
        <extensions>
          <ns3:TrackPointExtension>
            <ns3:hr>128</ns3:hr>
            <ns3:cad>0</ns3:cad>
          </ns3:TrackPointExtension>
        </extensions>
      </trkpt>
      <trkpt lat="38.05195170454680919647216796875" lon="-106.9425179064273834228515625">
        <ele>3754.60009765625</ele>
        <time>2026-05-25T12:38:34.000Z</time>
        <extensions>
          <ns3:TrackPointExtension>
            <ns3:hr>129</ns3:hr>
            <ns3:cad>0</ns3:cad>
          </ns3:TrackPointExtension>
        </extensions>
      </trkpt>
      <trkpt lat="38.05193058215081691741943359375" lon="-106.94255738519132137298583984375">
        <ele>3754.60009765625</ele>
        <time>2026-05-25T12:38:40.000Z</time>
        <extensions>
          <ns3:TrackPointExtension>
            <ns3:hr>130</ns3:hr>
            <ns3:cad>0</ns3:cad>
          </ns3:TrackPointExtension>
        </extensions>
      </trkpt>
      <trkpt lat="38.0519123934209346771240234375" lon="-106.942567192018032073974609375">
        <ele>3755</ele>
        <time>2026-05-25T12:38:42.000Z</time>
        <extensions>
          <ns3:TrackPointExtension>
            <ns3:hr>129</ns3:hr>
            <ns3:cad>49</ns3:cad>
          </ns3:TrackPointExtension>
        </extensions>
      </trkpt>
      <trkpt lat="38.0518989823758602142333984375" lon="-106.94258831441402435302734375">
        <ele>3755.60009765625</ele>
        <time>2026-05-25T12:38:45.000Z</time>
        <extensions>
          <ns3:TrackPointExtension>
            <ns3:hr>129</ns3:hr>
            <ns3:cad>49</ns3:cad>
          </ns3:TrackPointExtension>
        </extensions>
      </trkpt>
      <trkpt lat="38.05189319886267185211181640625" lon="-106.94259476847946643829345703125">
        <ele>3756</ele>
        <time>2026-05-25T12:38:47.000Z</time>
        <extensions>
          <ns3:TrackPointExtension>
            <ns3:hr>129</ns3:hr>
            <ns3:cad>0</ns3:cad>
          </ns3:TrackPointExtension>
        </extensions>
      </trkpt>
      <trkpt lat="38.05185564793646335601806640625" lon="-106.9426226802170276641845703125">
        <ele>3756.800048828125</ele>
        <time>2026-05-25T12:38:53.000Z</time>
        <extensions>
          <ns3:TrackPointExtension>
            <ns3:hr>128</ns3:hr>
            <ns3:cad>0</ns3:cad>
          </ns3:TrackPointExtension>
        </extensions>
      </trkpt>
      <trkpt lat="38.0518480204045772552490234375" lon="-106.94263550452888011932373046875">
        <ele>3757</ele>
        <time>2026-05-25T12:38:54.000Z</time>
        <extensions>
          <ns3:TrackPointExtension>
            <ns3:hr>127</ns3:hr>
            <ns3:cad>0</ns3:cad>
          </ns3:TrackPointExtension>
        </extensions>
      </trkpt>
      <trkpt lat="38.05183075368404388427734375" lon="-106.9426458142697811126708984375">
        <ele>3757</ele>
        <time>2026-05-25T12:38:58.000Z</time>
        <extensions>
          <ns3:TrackPointExtension>
            <ns3:hr>124</ns3:hr>
            <ns3:cad>73</ns3:cad>
          </ns3:TrackPointExtension>
        </extensions>
      </trkpt>
      <trkpt lat="38.05178691633045673370361328125" lon="-106.9426360912621021270751953125">
        <ele>3757.60009765625</ele>
        <time>2026-05-25T12:39:02.000Z</time>
        <extensions>
          <ns3:TrackPointExtension>
            <ns3:hr>125</ns3:hr>
            <ns3:cad>0</ns3:cad>
          </ns3:TrackPointExtension>
        </extensions>
      </trkpt>
      <trkpt lat="38.0517791211605072021484375" lon="-106.94263382814824581146240234375">
        <ele>3757.800048828125</ele>
        <time>2026-05-25T12:39:03.000Z</time>
        <extensions>
          <ns3:TrackPointExtension>
            <ns3:hr>125</ns3:hr>
            <ns3:cad>0</ns3:cad>
          </ns3:TrackPointExtension>
        </extensions>
      </trkpt>
      <trkpt lat="38.0517370440065860748291015625" lon="-106.9426226802170276641845703125">
        <ele>3758.800048828125</ele>
        <time>2026-05-25T12:39:09.000Z</time>
        <extensions>
          <ns3:TrackPointExtension>
            <ns3:hr>127</ns3:hr>
            <ns3:cad>0</ns3:cad>
          </ns3:TrackPointExtension>
        </extensions>
      </trkpt>
      <trkpt lat="38.05173042230308055877685546875" lon="-106.94262879900634288787841796875">
        <ele>3758.800048828125</ele>
        <time>2026-05-25T12:39:10.000Z</time>
        <extensions>
          <ns3:TrackPointExtension>
            <ns3:hr>127</ns3:hr>
            <ns3:cad>0</ns3:cad>
          </ns3:TrackPointExtension>
        </extensions>
      </trkpt>
      <trkpt lat="38.05170645006000995635986328125" lon="-106.94263701327145099639892578125">
        <ele>3759.199951171875</ele>
        <time>2026-05-25T12:39:12.000Z</time>
        <extensions>
          <ns3:TrackPointExtension>
            <ns3:hr>124</ns3:hr>
            <ns3:cad>0</ns3:cad>
          </ns3:TrackPointExtension>
        </extensions>
      </trkpt>
      <trkpt lat="38.05169186554849147796630859375" lon="-106.942658722400665283203125">
        <ele>3759.800048828125</ele>
        <time>2026-05-25T12:39:16.000Z</time>
        <extensions>
          <ns3:TrackPointExtension>
            <ns3:hr>123</ns3:hr>
            <ns3:cad>0</ns3:cad>
          </ns3:TrackPointExtension>
        </extensions>
      </trkpt>
      <trkpt lat="38.051672168076038360595703125" lon="-106.94267339073121547698974609375">
        <ele>3760</ele>
        <time>2026-05-25T12:39:19.000Z</time>
        <extensions>
          <ns3:TrackPointExtension>
            <ns3:hr>127</ns3:hr>
            <ns3:cad>0</ns3:cad>
          </ns3:TrackPointExtension>
        </extensions>
      </trkpt>
      <trkpt lat="38.0516549013555049896240234375" lon="-106.94269736297428607940673828125">
        <ele>3760.39990234375</ele>
        <time>2026-05-25T12:39:23.000Z</time>
        <extensions>
          <ns3:TrackPointExtension>
            <ns3:hr>128</ns3:hr>
            <ns3:cad>0</ns3:cad>
          </ns3:TrackPointExtension>
        </extensions>
      </trkpt>
      <trkpt lat="38.05164635181427001953125" lon="-106.94271429441869258880615234375">
        <ele>3761</ele>
        <time>2026-05-25T12:39:26.000Z</time>
        <extensions>
          <ns3:TrackPointExtension>
            <ns3:hr>128</ns3:hr>
            <ns3:cad>0</ns3:cad>
          </ns3:TrackPointExtension>
        </extensions>
      </trkpt>
      <trkpt lat="38.051648698747158050537109375" lon="-106.94272351451218128204345703125">
        <ele>3761.39990234375</ele>
        <time>2026-05-25T12:39:29.000Z</time>
        <extensions>
          <ns3:TrackPointExtension>
            <ns3:hr>128</ns3:hr>
            <ns3:cad>0</ns3:cad>
          </ns3:TrackPointExtension>
        </extensions>
      </trkpt>
      <trkpt lat="38.05163386277854442596435546875" lon="-106.94270507432520389556884765625">
        <ele>3761</ele>
        <time>2026-05-25T12:39:35.000Z</time>
        <extensions>
          <ns3:TrackPointExtension>
            <ns3:hr>129</ns3:hr>
            <ns3:cad>0</ns3:cad>
          </ns3:TrackPointExtension>
        </extensions>
      </trkpt>
      <trkpt lat="38.05160653777420520782470703125" lon="-106.94267825223505496978759765625">
        <ele>3762.199951171875</ele>
        <time>2026-05-25T12:39:39.000Z</time>
        <extensions>
          <ns3:TrackPointExtension>
            <ns3:hr>126</ns3:hr>
            <ns3:cad>0</ns3:cad>
          </ns3:TrackPointExtension>
        </extensions>
      </trkpt>
      <trkpt lat="38.05156965740025043487548828125" lon="-106.94268177263438701629638671875">
        <ele>3762.39990234375</ele>
        <time>2026-05-25T12:39:42.000Z</time>
        <extensions>
          <ns3:TrackPointExtension>
            <ns3:hr>123</ns3:hr>
            <ns3:cad>0</ns3:cad>
          </ns3:TrackPointExtension>
        </extensions>
      </trkpt>
      <trkpt lat="38.051549457013607025146484375" lon="-106.94270859472453594207763671875">
        <ele>3763</ele>
        <time>2026-05-25T12:39:46.000Z</time>
        <extensions>
          <ns3:TrackPointExtension>
            <ns3:hr>120</ns3:hr>
            <ns3:cad>0</ns3:cad>
          </ns3:TrackPointExtension>
        </extensions>
      </trkpt>
      <trkpt lat="38.05154618807137012481689453125" lon="-106.9427190721035003662109375">
        <ele>3763.199951171875</ele>
        <time>2026-05-25T12:39:47.000Z</time>
        <extensions>
          <ns3:TrackPointExtension>
            <ns3:hr>119</ns3:hr>
            <ns3:cad>53</ns3:cad>
          </ns3:TrackPointExtension>
        </extensions>
      </trkpt>
      <trkpt lat="38.05154233239591121673583984375" lon="-106.9427309744060039520263671875">
        <ele>3763.39990234375</ele>
        <time>2026-05-25T12:39:48.000Z</time>
        <extensions>
          <ns3:TrackPointExtension>
            <ns3:hr>118</ns3:hr>
            <ns3:cad>53</ns3:cad>
          </ns3:TrackPointExtension>
        </extensions>
      </trkpt>
      <trkpt lat="38.05150193162262439727783203125" lon="-106.94276534020900726318359375">
        <ele>3764</ele>
        <time>2026-05-25T12:39:54.000Z</time>
        <extensions>
          <ns3:TrackPointExtension>
            <ns3:hr>116</ns3:hr>
            <ns3:cad>0</ns3:cad>
          </ns3:TrackPointExtension>
        </extensions>
      </trkpt>
      <trkpt lat="38.05149254389107227325439453125" lon="-106.9427671842277050018310546875">
        <ele>3764.39990234375</ele>
        <time>2026-05-25T12:39:55.000Z</time>
        <extensions>
          <ns3:TrackPointExtension>
            <ns3:hr>115</ns3:hr>
            <ns3:cad>0</ns3:cad>
          </ns3:TrackPointExtension>
        </extensions>
      </trkpt>
      <trkpt lat="38.05145465768873691558837890625" lon="-106.942787468433380126953125">
        <ele>3765</ele>
        <time>2026-05-25T12:40:01.000Z</time>
        <extensions>
          <ns3:TrackPointExtension>
            <ns3:hr>113</ns3:hr>
            <ns3:cad>43</ns3:cad>
          </ns3:TrackPointExtension>
        </extensions>
      </trkpt>
      <trkpt lat="38.05143806152045726776123046875" lon="-106.94279140792787075042724609375">
        <ele>3765.199951171875</ele>
        <time>2026-05-25T12:40:02.000Z</time>
        <extensions>
          <ns3:TrackPointExtension>
            <ns3:hr>113</ns3:hr>
            <ns3:cad>43</ns3:cad>
          </ns3:TrackPointExtension>
        </extensions>
      </trkpt>
      <trkpt lat="38.05142565630376338958740234375" lon="-106.94279174320399761199951171875">
        <ele>3765.39990234375</ele>
        <time>2026-05-25T12:40:04.000Z</time>
        <extensions>
          <ns3:TrackPointExtension>
            <ns3:hr>113</ns3:hr>
            <ns3:cad>0</ns3:cad>
          </ns3:TrackPointExtension>
        </extensions>
      </trkpt>
      <trkpt lat="38.0514036118984222412109375" lon="-106.942787468433380126953125">
        <ele>3766.199951171875</ele>
        <time>2026-05-25T12:40:09.000Z</time>
        <extensions>
          <ns3:TrackPointExtension>
            <ns3:hr>113</ns3:hr>
            <ns3:cad>42</ns3:cad>
          </ns3:TrackPointExtension>
        </extensions>
      </trkpt>
      <trkpt lat="38.05138374678790569305419921875" lon="-106.94280020892620086669921875">
        <ele>3766.60009765625</ele>
        <time>2026-05-25T12:40:10.000Z</time>
        <extensions>
          <ns3:TrackPointExtension>
            <ns3:hr>113</ns3:hr>
            <ns3:cad>42</ns3:cad>
          </ns3:TrackPointExtension>
        </extensions>
      </trkpt>
      <trkpt lat="38.051383495330810546875" lon="-106.94282778538763523101806640625">
        <ele>3767</ele>
        <time>2026-05-25T12:40:14.000Z</time>
        <extensions>
          <ns3:TrackPointExtension>
            <ns3:hr>114</ns3:hr>
            <ns3:cad>0</ns3:cad>
          </ns3:TrackPointExtension>
        </extensions>
      </trkpt>
      <trkpt lat="38.05135709233582019805908203125" lon="-106.9428650848567485809326171875">
        <ele>3767.199951171875</ele>
        <time>2026-05-25T12:40:20.000Z</time>
        <extensions>
          <ns3:TrackPointExtension>
            <ns3:hr>114</ns3:hr>
            <ns3:cad>0</ns3:cad>
          </ns3:TrackPointExtension>
        </extensions>
      </trkpt>
      <trkpt lat="38.05135055445134639739990234375" lon="-106.94286902435123920440673828125">
        <ele>3767.800048828125</ele>
        <time>2026-05-25T12:40:22.000Z</time>
        <extensions>
          <ns3:TrackPointExtension>
            <ns3:hr>113</ns3:hr>
            <ns3:cad>0</ns3:cad>
          </ns3:TrackPointExtension>
        </extensions>
      </trkpt>
      <trkpt lat="38.051337897777557373046875" lon="-106.9428691081702709197998046875">
        <ele>3768.199951171875</ele>
        <time>2026-05-25T12:40:24.000Z</time>
        <extensions>
          <ns3:TrackPointExtension>
            <ns3:hr>116</ns3:hr>
            <ns3:cad>0</ns3:cad>
          </ns3:TrackPointExtension>
        </extensions>
      </trkpt>
      <trkpt lat="38.05132515728473663330078125" lon="-106.94287237711250782012939453125">
        <ele>3768.60009765625</ele>
        <time>2026-05-25T12:40:26.000Z</time>
        <extensions>
          <ns3:TrackPointExtension>
            <ns3:hr>113</ns3:hr>
            <ns3:cad>57</ns3:cad>
          </ns3:TrackPointExtension>
        </extensions>
      </trkpt>
      <trkpt lat="38.05131384171545505523681640625" lon="-106.9428751431405544281005859375">
        <ele>3769</ele>
        <time>2026-05-25T12:40:28.000Z</time>
        <extensions>
          <ns3:TrackPointExtension>
            <ns3:hr>113</ns3:hr>
            <ns3:cad>0</ns3:cad>
          </ns3:TrackPointExtension>
        </extensions>
      </trkpt>
      <trkpt lat="38.05129271931946277618408203125" lon="-106.94288981147110462188720703125">
        <ele>3769.199951171875</ele>
        <time>2026-05-25T12:40:33.000Z</time>
        <extensions>
          <ns3:TrackPointExtension>
            <ns3:hr>113</ns3:hr>
            <ns3:cad>0</ns3:cad>
          </ns3:TrackPointExtension>
        </extensions>
      </trkpt>
      <trkpt lat="38.05127344094216823577880859375" lon="-106.94289785809814929962158203125">
        <ele>3770.199951171875</ele>
        <time>2026-05-25T12:40:38.000Z</time>
        <extensions>
          <ns3:TrackPointExtension>
            <ns3:hr>115</ns3:hr>
            <ns3:cad>0</ns3:cad>
          </ns3:TrackPointExtension>
        </extensions>
      </trkpt>
      <trkpt lat="38.05125483311712741851806640625" lon="-106.94290976040065288543701171875">
        <ele>3770.60009765625</ele>
        <time>2026-05-25T12:40:41.000Z</time>
        <extensions>
          <ns3:TrackPointExtension>
            <ns3:hr>118</ns3:hr>
            <ns3:cad>0</ns3:cad>
          </ns3:TrackPointExtension>
        </extensions>
      </trkpt>
      <trkpt lat="38.0512388236820697784423828125" lon="-106.9429190643131732940673828125">
        <ele>3771</ele>
        <time>2026-05-25T12:40:44.000Z</time>
        <extensions>
          <ns3:TrackPointExtension>
            <ns3:hr>118</ns3:hr>
            <ns3:cad>0</ns3:cad>
          </ns3:TrackPointExtension>
        </extensions>
      </trkpt>
      <trkpt lat="38.05121946148574352264404296875" lon="-106.9429282844066619873046875">
        <ele>3771.199951171875</ele>
        <time>2026-05-25T12:40:45.000Z</time>
        <extensions>
          <ns3:TrackPointExtension>
            <ns3:hr>118</ns3:hr>
            <ns3:cad>0</ns3:cad>
          </ns3:TrackPointExtension>
        </extensions>
      </trkpt>
      <trkpt lat="38.05119431577622890472412109375" lon="-106.9429368339478969573974609375">
        <ele>3771.800048828125</ele>
        <time>2026-05-25T12:40:48.000Z</time>
        <extensions>
          <ns3:TrackPointExtension>
            <ns3:hr>118</ns3:hr>
            <ns3:cad>0</ns3:cad>
          </ns3:TrackPointExtension>
        </extensions>
      </trkpt>
      <trkpt lat="38.0511784739792346954345703125" lon="-106.94294773042201995849609375">
        <ele>3772.199951171875</ele>
        <time>2026-05-25T12:40:51.000Z</time>
        <extensions>
          <ns3:TrackPointExtension>
            <ns3:hr>121</ns3:hr>
            <ns3:cad>0</ns3:cad>
          </ns3:TrackPointExtension>
        </extensions>
      </trkpt>
      <trkpt lat="38.0511707626283168792724609375" lon="-106.94295041263103485107421875">
        <ele>3772.39990234375</ele>
        <time>2026-05-25T12:40:52.000Z</time>
        <extensions>
          <ns3:TrackPointExtension>
            <ns3:hr>122</ns3:hr>
            <ns3:cad>0</ns3:cad>
          </ns3:TrackPointExtension>
        </extensions>
      </trkpt>
      <trkpt lat="38.051159866154193878173828125" lon="-106.94295577704906463623046875">
        <ele>3772.39990234375</ele>
        <time>2026-05-25T12:40:54.000Z</time>
        <extensions>
          <ns3:TrackPointExtension>
            <ns3:hr>123</ns3:hr>
            <ns3:cad>0</ns3:cad>
          </ns3:TrackPointExtension>
        </extensions>
      </trkpt>
      <trkpt lat="38.051134049892425537109375" lon="-106.94298100657761096954345703125">
        <ele>3773</ele>
        <time>2026-05-25T12:40:59.000Z</time>
        <extensions>
          <ns3:TrackPointExtension>
            <ns3:hr>125</ns3:hr>
            <ns3:cad>0</ns3:cad>
          </ns3:TrackPointExtension>
        </extensions>
      </trkpt>
      <trkpt lat="38.051110915839672088623046875" lon="-106.942999362945556640625">
        <ele>3773.39990234375</ele>
        <time>2026-05-25T12:41:02.000Z</time>
        <extensions>
          <ns3:TrackPointExtension>
            <ns3:hr>127</ns3:hr>
            <ns3:cad>0</ns3:cad>
          </ns3:TrackPointExtension>
        </extensions>
      </trkpt>
      <trkpt lat="38.05109406821429729461669921875" lon="-106.94301000796258449554443359375">
        <ele>3773.60009765625</ele>
        <time>2026-05-25T12:41:04.000Z</time>
        <extensions>
          <ns3:TrackPointExtension>
            <ns3:hr>127</ns3:hr>
            <ns3:cad>0</ns3:cad>
          </ns3:TrackPointExtension>
        </extensions>
      </trkpt>
      <trkpt lat="38.051066659390926361083984375" lon="-106.94302015006542205810546875">
        <ele>3774.199951171875</ele>
        <time>2026-05-25T12:41:09.000Z</time>
        <extensions>
          <ns3:TrackPointExtension>
            <ns3:hr>129</ns3:hr>
            <ns3:cad>75</ns3:cad>
          </ns3:TrackPointExtension>
        </extensions>
      </trkpt>
      <trkpt lat="38.0510480515658855438232421875" lon="-106.94302844814956188201904296875">
        <ele>3774.39990234375</ele>
        <time>2026-05-25T12:41:10.000Z</time>
        <extensions>
          <ns3:TrackPointExtension>
            <ns3:hr>129</ns3:hr>
            <ns3:cad>75</ns3:cad>
          </ns3:TrackPointExtension>
        </extensions>
      </trkpt>
      <trkpt lat="38.05103757418692111968994140625" lon="-106.94303431548178195953369140625">
        <ele>3774.800048828125</ele>
        <time>2026-05-25T12:41:16.000Z</time>
        <extensions>
          <ns3:TrackPointExtension>
            <ns3:hr>129</ns3:hr>
            <ns3:cad>0</ns3:cad>
          </ns3:TrackPointExtension>
        </extensions>
      </trkpt>
      <trkpt lat="38.05103757418692111968994140625" lon="-106.94303431548178195953369140625">
        <ele>3774.39990234375</ele>
        <time>2026-05-25T12:41:21.000Z</time>
        <extensions>
          <ns3:TrackPointExtension>
            <ns3:hr>126</ns3:hr>
            <ns3:cad>0</ns3:cad>
          </ns3:TrackPointExtension>
        </extensions>
      </trkpt>
      <trkpt lat="38.05103757418692111968994140625" lon="-106.94303431548178195953369140625">
        <ele>3774.800048828125</ele>
        <time>2026-05-25T12:41:27.000Z</time>
        <extensions>
          <ns3:TrackPointExtension>
            <ns3:hr>128</ns3:hr>
            <ns3:cad>0</ns3:cad>
          </ns3:TrackPointExtension>
        </extensions>
      </trkpt>
      <trkpt lat="38.05103757418692111968994140625" lon="-106.94303431548178195953369140625">
        <ele>3775</ele>
        <time>2026-05-25T12:41:31.000Z</time>
        <extensions>
          <ns3:TrackPointExtension>
            <ns3:hr>126</ns3:hr>
            <ns3:cad>0</ns3:cad>
          </ns3:TrackPointExtension>
        </extensions>
      </trkpt>
      <trkpt lat="38.05103757418692111968994140625" lon="-106.94303431548178195953369140625">
        <ele>3775</ele>
        <time>2026-05-25T12:41:37.000Z</time>
        <extensions>
          <ns3:TrackPointExtension>
            <ns3:hr>125</ns3:hr>
            <ns3:cad>0</ns3:cad>
          </ns3:TrackPointExtension>
        </extensions>
      </trkpt>
      <trkpt lat="38.051037825644016265869140625" lon="-106.9430384226143360137939453125">
        <ele>3775.199951171875</ele>
        <time>2026-05-25T12:41:39.000Z</time>
        <extensions>
          <ns3:TrackPointExtension>
            <ns3:hr>122</ns3:hr>
            <ns3:cad>0</ns3:cad>
          </ns3:TrackPointExtension>
        </extensions>
      </trkpt>
      <trkpt lat="38.051033802330493927001953125" lon="-106.943044625222682952880859375">
        <ele>3775</ele>
        <time>2026-05-25T12:41:42.000Z</time>
        <extensions>
          <ns3:TrackPointExtension>
            <ns3:hr>119</ns3:hr>
            <ns3:cad>0</ns3:cad>
          </ns3:TrackPointExtension>
        </extensions>
      </trkpt>
      <trkpt lat="38.05102701298892498016357421875" lon="-106.9430471397936344146728515625">
        <ele>3775</ele>
        <time>2026-05-25T12:41:43.000Z</time>
        <extensions>
          <ns3:TrackPointExtension>
            <ns3:hr>119</ns3:hr>
            <ns3:cad>0</ns3:cad>
          </ns3:TrackPointExtension>
        </extensions>
      </trkpt>
      <trkpt lat="38.05100069381296634674072265625" lon="-106.943074129521846771240234375">
        <ele>3775.39990234375</ele>
        <time>2026-05-25T12:41:47.000Z</time>
        <extensions>
          <ns3:TrackPointExtension>
            <ns3:hr>118</ns3:hr>
            <ns3:cad>41</ns3:cad>
          </ns3:TrackPointExtension>
        </extensions>
      </trkpt>
      <trkpt lat="38.05098996497690677642822265625" lon="-106.94310070015490055084228515625">
        <ele>3775.800048828125</ele>
        <time>2026-05-25T12:41:49.000Z</time>
        <extensions>
          <ns3:TrackPointExtension>
            <ns3:hr>118</ns3:hr>
            <ns3:cad>41</ns3:cad>
          </ns3:TrackPointExtension>
        </extensions>
      </trkpt>
      <trkpt lat="38.05094696581363677978515625" lon="-106.94310732185840606689453125">
        <ele>3776.39990234375</ele>
        <time>2026-05-25T12:41:54.000Z</time>
        <extensions>
          <ns3:TrackPointExtension>
            <ns3:hr>117</ns3:hr>
            <ns3:cad>47</ns3:cad>
          </ns3:TrackPointExtension>
        </extensions>
      </trkpt>
      <trkpt lat="38.05094696581363677978515625" lon="-106.94310732185840606689453125">
        <ele>3776.60009765625</ele>
        <time>2026-05-25T12:41:55.000Z</time>
        <extensions>
          <ns3:TrackPointExtension>
            <ns3:hr>118</ns3:hr>
            <ns3:cad>47</ns3:cad>
          </ns3:TrackPointExtension>
        </extensions>
      </trkpt>
      <trkpt lat="38.050911426544189453125" lon="-106.943115033209323883056640625">
        <ele>3777.60009765625</ele>
        <time>2026-05-25T12:41:59.000Z</time>
        <extensions>
          <ns3:TrackPointExtension>
            <ns3:hr>118</ns3:hr>
            <ns3:cad>0</ns3:cad>
          </ns3:TrackPointExtension>
        </extensions>
      </trkpt>
      <trkpt lat="38.05088669992983341217041015625" lon="-106.9431348145008087158203125">
        <ele>3777.800048828125</ele>
        <time>2026-05-25T12:42:01.000Z</time>
        <extensions>
          <ns3:TrackPointExtension>
            <ns3:hr>120</ns3:hr>
            <ns3:cad>46</ns3:cad>
          </ns3:TrackPointExtension>
        </extensions>
      </trkpt>
      <trkpt lat="38.05086105130612850189208984375" lon="-106.94316859357059001922607421875">
        <ele>3778.39990234375</ele>
        <time>2026-05-25T12:42:05.000Z</time>
        <extensions>
          <ns3:TrackPointExtension>
            <ns3:hr>117</ns3:hr>
            <ns3:cad>0</ns3:cad>
          </ns3:TrackPointExtension>
        </extensions>
      </trkpt>
      <trkpt lat="38.05085803382098674774169921875" lon="-106.94321955554187297821044921875">
        <ele>3778.39990234375</ele>
        <time>2026-05-25T12:42:07.000Z</time>
        <extensions>
          <ns3:TrackPointExtension>
            <ns3:hr>115</ns3:hr>
            <ns3:cad>0</ns3:cad>
          </ns3:TrackPointExtension>
        </extensions>
      </trkpt>
      <trkpt lat="38.050851412117481231689453125" lon="-106.94325509481132030487060546875">
        <ele>3778</ele>
        <time>2026-05-25T12:42:11.000Z</time>
        <extensions>
          <ns3:TrackPointExtension>
            <ns3:hr>114</ns3:hr>
            <ns3:cad>0</ns3:cad>
          </ns3:TrackPointExtension>
        </extensions>
      </trkpt>
      <trkpt lat="38.0508431978523731231689453125" lon="-106.9432640634477138519287109375">
        <ele>3778.39990234375</ele>
        <time>2026-05-25T12:42:13.000Z</time>
        <extensions>
          <ns3:TrackPointExtension>
            <ns3:hr>115</ns3:hr>
            <ns3:cad>0</ns3:cad>
          </ns3:TrackPointExtension>
        </extensions>
      </trkpt>
      <trkpt lat="38.05083573795855045318603515625" lon="-106.9432727806270122528076171875">
        <ele>3778.60009765625</ele>
        <time>2026-05-25T12:42:14.000Z</time>
        <extensions>
          <ns3:TrackPointExtension>
            <ns3:hr>116</ns3:hr>
            <ns3:cad>0</ns3:cad>
          </ns3:TrackPointExtension>
        </extensions>
      </trkpt>
      <trkpt lat="38.05080413818359375" lon="-106.94330270402133464813232421875">
        <ele>3779.60009765625</ele>
        <time>2026-05-25T12:42:19.000Z</time>
        <extensions>
          <ns3:TrackPointExtension>
            <ns3:hr>117</ns3:hr>
            <ns3:cad>0</ns3:cad>
          </ns3:TrackPointExtension>
        </extensions>
      </trkpt>
      <trkpt lat="38.05078377015888690948486328125" lon="-106.94330957718193531036376953125">
        <ele>3779.800048828125</ele>
        <time>2026-05-25T12:42:21.000Z</time>
        <extensions>
          <ns3:TrackPointExtension>
            <ns3:hr>117</ns3:hr>
            <ns3:cad>0</ns3:cad>
          </ns3:TrackPointExtension>
        </extensions>
      </trkpt>
      <trkpt lat="38.05075644515454769134521484375" lon="-106.9433240778744220733642578125">
        <ele>3780.199951171875</ele>
        <time>2026-05-25T12:42:24.000Z</time>
        <extensions>
          <ns3:TrackPointExtension>
            <ns3:hr>117</ns3:hr>
            <ns3:cad>0</ns3:cad>
          </ns3:TrackPointExtension>
        </extensions>
      </trkpt>
      <trkpt lat="38.0507013760507106781005859375" lon="-106.94334830157458782196044921875">
        <ele>3780.800048828125</ele>
        <time>2026-05-25T12:42:30.000Z</time>
        <extensions>
          <ns3:TrackPointExtension>
            <ns3:hr>117</ns3:hr>
            <ns3:cad>45</ns3:cad>
          </ns3:TrackPointExtension>
        </extensions>
      </trkpt>
      <trkpt lat="38.0506520904600620269775390625" lon="-106.9433788955211639404296875">
        <ele>3781.60009765625</ele>
        <time>2026-05-25T12:42:36.000Z</time>
        <extensions>
          <ns3:TrackPointExtension>
            <ns3:hr>115</ns3:hr>
            <ns3:cad>46</ns3:cad>
          </ns3:TrackPointExtension>
        </extensions>
      </trkpt>
      <trkpt lat="38.0506440438330173492431640625" lon="-106.94338467903435230255126953125">
        <ele>3781.800048828125</ele>
        <time>2026-05-25T12:42:37.000Z</time>
        <extensions>
          <ns3:TrackPointExtension>
            <ns3:hr>115</ns3:hr>
            <ns3:cad>46</ns3:cad>
          </ns3:TrackPointExtension>
        </extensions>
      </trkpt>
      <trkpt lat="38.05063742212951183319091796875" lon="-106.94339004345238208770751953125">
        <ele>3782.199951171875</ele>
        <time>2026-05-25T12:42:39.000Z</time>
        <extensions>
          <ns3:TrackPointExtension>
            <ns3:hr>115</ns3:hr>
            <ns3:cad>46</ns3:cad>
          </ns3:TrackPointExtension>
        </extensions>
      </trkpt>
      <trkpt lat="38.0506058223545551300048828125" lon="-106.94341443479061126708984375">
        <ele>3782.60009765625</ele>
        <time>2026-05-25T12:42:43.000Z</time>
        <extensions>
          <ns3:TrackPointExtension>
            <ns3:hr>116</ns3:hr>
            <ns3:cad>0</ns3:cad>
          </ns3:TrackPointExtension>
        </extensions>
      </trkpt>
      <trkpt lat="38.05057606659829616546630859375" lon="-106.94342809729278087615966796875">
        <ele>3782.800048828125</ele>
        <time>2026-05-25T12:42:46.000Z</time>
        <extensions>
          <ns3:TrackPointExtension>
            <ns3:hr>117</ns3:hr>
            <ns3:cad>0</ns3:cad>
          </ns3:TrackPointExtension>
        </extensions>
      </trkpt>
      <trkpt lat="38.05056667886674404144287109375" lon="-106.94343362934887409210205078125">
        <ele>3783.199951171875</ele>
        <time>2026-05-25T12:42:49.000Z</time>
        <extensions>
          <ns3:TrackPointExtension>
            <ns3:hr>118</ns3:hr>
            <ns3:cad>0</ns3:cad>
          </ns3:TrackPointExtension>
        </extensions>
      </trkpt>
      <trkpt lat="38.05056265555322170257568359375" lon="-106.9434370659291744232177734375">
        <ele>3783.60009765625</ele>
        <time>2026-05-25T12:42:55.000Z</time>
        <extensions>
          <ns3:TrackPointExtension>
            <ns3:hr>120</ns3:hr>
            <ns3:cad>0</ns3:cad>
          </ns3:TrackPointExtension>
        </extensions>
      </trkpt>
      <trkpt lat="38.05056265555322170257568359375" lon="-106.9434370659291744232177734375">
        <ele>3783.60009765625</ele>
        <time>2026-05-25T12:42:56.000Z</time>
        <extensions>
          <ns3:TrackPointExtension>
            <ns3:hr>121</ns3:hr>
            <ns3:cad>0</ns3:cad>
          </ns3:TrackPointExtension>
        </extensions>
      </trkpt>
      <trkpt lat="38.05056265555322170257568359375" lon="-106.9434370659291744232177734375">
        <ele>3783.60009765625</ele>
        <time>2026-05-25T12:43:02.000Z</time>
        <extensions>
          <ns3:TrackPointExtension>
            <ns3:hr>122</ns3:hr>
            <ns3:cad>0</ns3:cad>
          </ns3:TrackPointExtension>
        </extensions>
      </trkpt>
      <trkpt lat="38.05056265555322170257568359375" lon="-106.9434370659291744232177734375">
        <ele>3783.60009765625</ele>
        <time>2026-05-25T12:43:08.000Z</time>
        <extensions>
          <ns3:TrackPointExtension>
            <ns3:hr>120</ns3:hr>
            <ns3:cad>0</ns3:cad>
          </ns3:TrackPointExtension>
        </extensions>
      </trkpt>
      <trkpt lat="38.0505441315472126007080078125" lon="-106.94344636984169483184814453125">
        <ele>3783.60009765625</ele>
        <time>2026-05-25T12:43:14.000Z</time>
        <extensions>
          <ns3:TrackPointExtension>
            <ns3:hr>119</ns3:hr>
            <ns3:cad>0</ns3:cad>
          </ns3:TrackPointExtension>
        </extensions>
      </trkpt>
      <trkpt lat="38.0505179800093173980712890625" lon="-106.943465732038021087646484375">
        <ele>3784</ele>
        <time>2026-05-25T12:43:18.000Z</time>
        <extensions>
          <ns3:TrackPointExtension>
            <ns3:hr>119</ns3:hr>
            <ns3:cad>0</ns3:cad>
          </ns3:TrackPointExtension>
        </extensions>
      </trkpt>
      <trkpt lat="38.05049945600330829620361328125" lon="-106.94346648640930652618408203125">
        <ele>3784.39990234375</ele>
        <time>2026-05-25T12:43:20.000Z</time>
        <extensions>
          <ns3:TrackPointExtension>
            <ns3:hr>118</ns3:hr>
            <ns3:cad>43</ns3:cad>
          </ns3:TrackPointExtension>
        </extensions>
      </trkpt>
      <trkpt lat="38.050463497638702392578125" lon="-106.94348056800663471221923828125">
        <ele>3785</ele>
        <time>2026-05-25T12:43:24.000Z</time>
        <extensions>
          <ns3:TrackPointExtension>
            <ns3:hr>118</ns3:hr>
            <ns3:cad>50</ns3:cad>
          </ns3:TrackPointExtension>
        </extensions>
      </trkpt>
      <trkpt lat="38.05044011212885379791259765625" lon="-106.943512000143527984619140625">
        <ele>3786</ele>
        <time>2026-05-25T12:43:28.000Z</time>
        <extensions>
          <ns3:TrackPointExtension>
            <ns3:hr>118</ns3:hr>
            <ns3:cad>0</ns3:cad>
          </ns3:TrackPointExtension>
        </extensions>
      </trkpt>
      <trkpt lat="38.05043726228177547454833984375" lon="-106.943519376218318939208984375">
        <ele>3786.199951171875</ele>
        <time>2026-05-25T12:43:29.000Z</time>
        <extensions>
          <ns3:TrackPointExtension>
            <ns3:hr>119</ns3:hr>
            <ns3:cad>0</ns3:cad>
          </ns3:TrackPointExtension>
        </extensions>
      </trkpt>
      <trkpt lat="38.0504318140447139739990234375" lon="-106.94351526908576488494873046875">
        <ele>3786.199951171875</ele>
        <time>2026-05-25T12:43:35.000Z</time>
        <extensions>
          <ns3:TrackPointExtension>
            <ns3:hr>118</ns3:hr>
            <ns3:cad>0</ns3:cad>
          </ns3:TrackPointExtension>
        </extensions>
      </trkpt>
      <trkpt lat="38.0504318140447139739990234375" lon="-106.94351526908576488494873046875">
        <ele>3786.199951171875</ele>
        <time>2026-05-25T12:43:36.000Z</time>
        <extensions>
          <ns3:TrackPointExtension>
            <ns3:hr>118</ns3:hr>
            <ns3:cad>0</ns3:cad>
          </ns3:TrackPointExtension>
        </extensions>
      </trkpt>
      <trkpt lat="38.0504318140447139739990234375" lon="-106.94351526908576488494873046875">
        <ele>3786.199951171875</ele>
        <time>2026-05-25T12:43:42.000Z</time>
        <extensions>
          <ns3:TrackPointExtension>
            <ns3:hr>117</ns3:hr>
            <ns3:cad>0</ns3:cad>
          </ns3:TrackPointExtension>
        </extensions>
      </trkpt>
      <trkpt lat="38.0504318140447139739990234375" lon="-106.94351526908576488494873046875">
        <ele>3786.199951171875</ele>
        <time>2026-05-25T12:43:48.000Z</time>
        <extensions>
          <ns3:TrackPointExtension>
            <ns3:hr>119</ns3:hr>
            <ns3:cad>0</ns3:cad>
          </ns3:TrackPointExtension>
        </extensions>
      </trkpt>
      <trkpt lat="38.0504318140447139739990234375" lon="-106.94351526908576488494873046875">
        <ele>3786.39990234375</ele>
        <time>2026-05-25T12:43:54.000Z</time>
        <extensions>
          <ns3:TrackPointExtension>
            <ns3:hr>120</ns3:hr>
            <ns3:cad>0</ns3:cad>
          </ns3:TrackPointExtension>
        </extensions>
      </trkpt>
      <trkpt lat="38.0504318140447139739990234375" lon="-106.94351526908576488494873046875">
        <ele>3786.199951171875</ele>
        <time>2026-05-25T12:43:55.000Z</time>
        <extensions>
          <ns3:TrackPointExtension>
            <ns3:hr>120</ns3:hr>
            <ns3:cad>0</ns3:cad>
          </ns3:TrackPointExtension>
        </extensions>
      </trkpt>
      <trkpt lat="38.0504318140447139739990234375" lon="-106.94351526908576488494873046875">
        <ele>3786.39990234375</ele>
        <time>2026-05-25T12:44:01.000Z</time>
        <extensions>
          <ns3:TrackPointExtension>
            <ns3:hr>118</ns3:hr>
            <ns3:cad>0</ns3:cad>
          </ns3:TrackPointExtension>
        </extensions>
      </trkpt>
      <trkpt lat="38.050425611436367034912109375" lon="-106.94355617277324199676513671875">
        <ele>3786.199951171875</ele>
        <time>2026-05-25T12:44:06.000Z</time>
        <extensions>
          <ns3:TrackPointExtension>
            <ns3:hr>116</ns3:hr>
            <ns3:cad>0</ns3:cad>
          </ns3:TrackPointExtension>
        </extensions>
      </trkpt>
      <trkpt lat="38.05038194172084331512451171875" lon="-106.94359405897557735443115234375">
        <ele>3787</ele>
        <time>2026-05-25T12:44:12.000Z</time>
        <extensions>
          <ns3:TrackPointExtension>
            <ns3:hr>115</ns3:hr>
            <ns3:cad>47</ns3:cad>
          </ns3:TrackPointExtension>
        </extensions>
      </trkpt>
      <trkpt lat="38.05036953650414943695068359375" lon="-106.9436000101268291473388671875">
        <ele>3787.199951171875</ele>
        <time>2026-05-25T12:44:13.000Z</time>
        <extensions>
          <ns3:TrackPointExtension>
            <ns3:hr>116</ns3:hr>
            <ns3:cad>47</ns3:cad>
          </ns3:TrackPointExtension>
        </extensions>
      </trkpt>
      <trkpt lat="38.05036316625773906707763671875" lon="-106.94360755383968353271484375">
        <ele>3787.39990234375</ele>
        <time>2026-05-25T12:44:14.000Z</time>
        <extensions>
          <ns3:TrackPointExtension>
            <ns3:hr>116</ns3:hr>
            <ns3:cad>48</ns3:cad>
          </ns3:TrackPointExtension>
        </extensions>
      </trkpt>
      <trkpt lat="38.05032670497894287109375" lon="-106.94363513030111789703369140625">
        <ele>3788.60009765625</ele>
        <time>2026-05-25T12:44:19.000Z</time>
        <extensions>
          <ns3:TrackPointExtension>
            <ns3:hr>116</ns3:hr>
            <ns3:cad>48</ns3:cad>
          </ns3:TrackPointExtension>
        </extensions>
      </trkpt>
      <trkpt lat="38.05029493756592273712158203125" lon="-106.94365675561130046844482421875">
        <ele>3788.60009765625</ele>
        <time>2026-05-25T12:44:22.000Z</time>
        <extensions>
          <ns3:TrackPointExtension>
            <ns3:hr>116</ns3:hr>
            <ns3:cad>46</ns3:cad>
          </ns3:TrackPointExtension>
        </extensions>
      </trkpt>
      <trkpt lat="38.0502487532794475555419921875" lon="-106.9437160156667232513427734375">
        <ele>3789.199951171875</ele>
        <time>2026-05-25T12:44:28.000Z</time>
        <extensions>
          <ns3:TrackPointExtension>
            <ns3:hr>117</ns3:hr>
            <ns3:cad>0</ns3:cad>
          </ns3:TrackPointExtension>
        </extensions>
      </trkpt>
      <trkpt lat="38.05024565197527408599853515625" lon="-106.9437260739505290985107421875">
        <ele>3789</ele>
        <time>2026-05-25T12:44:30.000Z</time>
        <extensions>
          <ns3:TrackPointExtension>
            <ns3:hr>116</ns3:hr>
            <ns3:cad>45</ns3:cad>
          </ns3:TrackPointExtension>
        </extensions>
      </trkpt>
      <trkpt lat="38.05020458064973354339599609375" lon="-106.94375080056488513946533203125">
        <ele>3789.60009765625</ele>
        <time>2026-05-25T12:44:36.000Z</time>
        <extensions>
          <ns3:TrackPointExtension>
            <ns3:hr>114</ns3:hr>
            <ns3:cad>0</ns3:cad>
          </ns3:TrackPointExtension>
        </extensions>
      </trkpt>
      <trkpt lat="38.050194941461086273193359375" lon="-106.9437559135258197784423828125">
        <ele>3789.800048828125</ele>
        <time>2026-05-25T12:44:37.000Z</time>
        <extensions>
          <ns3:TrackPointExtension>
            <ns3:hr>113</ns3:hr>
            <ns3:cad>0</ns3:cad>
          </ns3:TrackPointExtension>
        </extensions>
      </trkpt>
      <trkpt lat="38.05017692036926746368408203125" lon="-106.9437569193542003631591796875">
        <ele>3790.800048828125</ele>
        <time>2026-05-25T12:44:40.000Z</time>
        <extensions>
          <ns3:TrackPointExtension>
            <ns3:hr>113</ns3:hr>
            <ns3:cad>47</ns3:cad>
          </ns3:TrackPointExtension>
        </extensions>
      </trkpt>
      <trkpt lat="38.050169460475444793701171875" lon="-106.94376035593450069427490234375">
        <ele>3791.199951171875</ele>
        <time>2026-05-25T12:44:43.000Z</time>
        <extensions>
          <ns3:TrackPointExtension>
            <ns3:hr>113</ns3:hr>
            <ns3:cad>0</ns3:cad>
          </ns3:TrackPointExtension>
        </extensions>
      </trkpt>
      <trkpt lat="38.0501568876206874847412109375" lon="-106.9437699951231479644775390625">
        <ele>3790.800048828125</ele>
        <time>2026-05-25T12:44:49.000Z</time>
        <extensions>
          <ns3:TrackPointExtension>
            <ns3:hr>113</ns3:hr>
            <ns3:cad>0</ns3:cad>
          </ns3:TrackPointExtension>
        </extensions>
      </trkpt>
      <trkpt lat="38.05011707358062267303466796875" lon="-106.943836547434329986572265625">
        <ele>3790.60009765625</ele>
        <time>2026-05-25T12:44:55.000Z</time>
        <extensions>
          <ns3:TrackPointExtension>
            <ns3:hr>113</ns3:hr>
            <ns3:cad>48</ns3:cad>
          </ns3:TrackPointExtension>
        </extensions>
      </trkpt>
      <trkpt lat="38.0500938557088375091552734375" lon="-106.943860687315464019775390625">
        <ele>3792</ele>
        <time>2026-05-25T12:44:59.000Z</time>
        <extensions>
          <ns3:TrackPointExtension>
            <ns3:hr>115</ns3:hr>
            <ns3:cad>48</ns3:cad>
          </ns3:TrackPointExtension>
        </extensions>
      </trkpt>
      <trkpt lat="38.05008220486342906951904296875" lon="-106.94388273172080516815185546875">
        <ele>3792.199951171875</ele>
        <time>2026-05-25T12:45:01.000Z</time>
        <extensions>
          <ns3:TrackPointExtension>
            <ns3:hr>117</ns3:hr>
            <ns3:cad>48</ns3:cad>
          </ns3:TrackPointExtension>
        </extensions>
      </trkpt>
      <trkpt lat="38.05004817433655261993408203125" lon="-106.943927071988582611083984375">
        <ele>3793</ele>
        <time>2026-05-25T12:45:07.000Z</time>
        <extensions>
          <ns3:TrackPointExtension>
            <ns3:hr>117</ns3:hr>
            <ns3:cad>0</ns3:cad>
          </ns3:TrackPointExtension>
        </extensions>
      </trkpt>
      <trkpt lat="38.05002990178763866424560546875" lon="-106.94394509308040142059326171875">
        <ele>3793.199951171875</ele>
        <time>2026-05-25T12:45:08.000Z</time>
        <extensions>
          <ns3:TrackPointExtension>
            <ns3:hr>118</ns3:hr>
            <ns3:cad>0</ns3:cad>
          </ns3:TrackPointExtension>
        </extensions>
      </trkpt>
      <trkpt lat="38.0499993078410625457763671875" lon="-106.9440003298223018646240234375">
        <ele>3794.199951171875</ele>
        <time>2026-05-25T12:45:13.000Z</time>
        <extensions>
          <ns3:TrackPointExtension>
            <ns3:hr>119</ns3:hr>
            <ns3:cad>0</ns3:cad>
          </ns3:TrackPointExtension>
        </extensions>
      </trkpt>
      <trkpt lat="38.04998128674924373626708984375" lon="-106.9440187700092792510986328125">
        <ele>3794.39990234375</ele>
        <time>2026-05-25T12:45:16.000Z</time>
        <extensions>
          <ns3:TrackPointExtension>
            <ns3:hr>120</ns3:hr>
            <ns3:cad>0</ns3:cad>
          </ns3:TrackPointExtension>
        </extensions>
      </trkpt>
      <trkpt lat="38.0499708093702793121337890625" lon="-106.94403360597789287567138671875">
        <ele>3794.800048828125</ele>
        <time>2026-05-25T12:45:19.000Z</time>
        <extensions>
          <ns3:TrackPointExtension>
            <ns3:hr>121</ns3:hr>
            <ns3:cad>0</ns3:cad>
          </ns3:TrackPointExtension>
        </extensions>
      </trkpt>
      <trkpt lat="38.04994122125208377838134765625" lon="-106.9440566562116146087646484375">
        <ele>3795.199951171875</ele>
        <time>2026-05-25T12:45:22.000Z</time>
        <extensions>
          <ns3:TrackPointExtension>
            <ns3:hr>124</ns3:hr>
            <ns3:cad>0</ns3:cad>
          </ns3:TrackPointExtension>
        </extensions>
      </trkpt>
      <trkpt lat="38.04993350990116596221923828125" lon="-106.94405606947839260101318359375">
        <ele>3795.199951171875</ele>
        <time>2026-05-25T12:45:25.000Z</time>
        <extensions>
          <ns3:TrackPointExtension>
            <ns3:hr>125</ns3:hr>
            <ns3:cad>0</ns3:cad>
          </ns3:TrackPointExtension>
        </extensions>
      </trkpt>
      <trkpt lat="38.049931414425373077392578125" lon="-106.9440563209354877471923828125">
        <ele>3795.39990234375</ele>
        <time>2026-05-25T12:45:26.000Z</time>
        <extensions>
          <ns3:TrackPointExtension>
            <ns3:hr>125</ns3:hr>
            <ns3:cad>0</ns3:cad>
          </ns3:TrackPointExtension>
        </extensions>
      </trkpt>
      <trkpt lat="38.04993233643472194671630859375" lon="-106.9440576620399951934814453125">
        <ele>3796.39990234375</ele>
        <time>2026-05-25T12:45:32.000Z</time>
        <extensions>
          <ns3:TrackPointExtension>
            <ns3:hr>126</ns3:hr>
            <ns3:cad>0</ns3:cad>
          </ns3:TrackPointExtension>
        </extensions>
      </trkpt>
      <trkpt lat="38.04993233643472194671630859375" lon="-106.9440576620399951934814453125">
        <ele>3796.39990234375</ele>
        <time>2026-05-25T12:45:37.000Z</time>
        <extensions>
          <ns3:TrackPointExtension>
            <ns3:hr>126</ns3:hr>
            <ns3:cad>0</ns3:cad>
          </ns3:TrackPointExtension>
        </extensions>
      </trkpt>
      <trkpt lat="38.04993233643472194671630859375" lon="-106.9440576620399951934814453125">
        <ele>3796.199951171875</ele>
        <time>2026-05-25T12:45:43.000Z</time>
        <extensions>
          <ns3:TrackPointExtension>
            <ns3:hr>126</ns3:hr>
            <ns3:cad>0</ns3:cad>
          </ns3:TrackPointExtension>
        </extensions>
      </trkpt>
      <trkpt lat="38.0499288998544216156005859375" lon="-106.94405556656420230865478515625">
        <ele>3796.199951171875</ele>
        <time>2026-05-25T12:45:49.000Z</time>
        <extensions>
          <ns3:TrackPointExtension>
            <ns3:hr>125</ns3:hr>
            <ns3:cad>0</ns3:cad>
          </ns3:TrackPointExtension>
        </extensions>
      </trkpt>
      <trkpt lat="38.0499288998544216156005859375" lon="-106.94405556656420230865478515625">
        <ele>3796.199951171875</ele>
        <time>2026-05-25T12:45:50.000Z</time>
        <extensions>
          <ns3:TrackPointExtension>
            <ns3:hr>125</ns3:hr>
            <ns3:cad>0</ns3:cad>
          </ns3:TrackPointExtension>
        </extensions>
      </trkpt>
      <trkpt lat="38.0499148182570934295654296875" lon="-106.94404299370944499969482421875">
        <ele>3796.60009765625</ele>
        <time>2026-05-25T12:45:52.000Z</time>
        <extensions>
          <ns3:TrackPointExtension>
            <ns3:hr>124</ns3:hr>
            <ns3:cad>47</ns3:cad>
          </ns3:TrackPointExtension>
        </extensions>
      </trkpt>
      <trkpt lat="38.04990450851619243621826171875" lon="-106.94400544278323650360107421875">
        <ele>3797.199951171875</ele>
        <time>2026-05-25T12:45:55.000Z</time>
        <extensions>
          <ns3:TrackPointExtension>
            <ns3:hr>124</ns3:hr>
            <ns3:cad>42</ns3:cad>
          </ns3:TrackPointExtension>
        </extensions>
      </trkpt>
      <trkpt lat="38.04988305084407329559326171875" lon="-106.94394693709909915924072265625">
        <ele>3797.39990234375</ele>
        <time>2026-05-25T12:46:01.000Z</time>
        <extensions>
          <ns3:TrackPointExtension>
            <ns3:hr>123</ns3:hr>
            <ns3:cad>48</ns3:cad>
          </ns3:TrackPointExtension>
        </extensions>
      </trkpt>
      <trkpt lat="38.049839548766613006591796875" lon="-106.94390452466905117034912109375">
        <ele>3797.60009765625</ele>
        <time>2026-05-25T12:46:05.000Z</time>
        <extensions>
          <ns3:TrackPointExtension>
            <ns3:hr>121</ns3:hr>
            <ns3:cad>0</ns3:cad>
          </ns3:TrackPointExtension>
        </extensions>
      </trkpt>
      <trkpt lat="38.0498318374156951904296875" lon="-106.9439007528126239776611328125">
        <ele>3797.60009765625</ele>
        <time>2026-05-25T12:46:06.000Z</time>
        <extensions>
          <ns3:TrackPointExtension>
            <ns3:hr>118</ns3:hr>
            <ns3:cad>0</ns3:cad>
          </ns3:TrackPointExtension>
        </extensions>
      </trkpt>
      <trkpt lat="38.0498185940086841583251953125" lon="-106.9439044408500194549560546875">
        <ele>3797.60009765625</ele>
        <time>2026-05-25T12:46:08.000Z</time>
        <extensions>
          <ns3:TrackPointExtension>
            <ns3:hr>117</ns3:hr>
            <ns3:cad>0</ns3:cad>
          </ns3:TrackPointExtension>
        </extensions>
      </trkpt>
      <trkpt lat="38.0498055182397365570068359375" lon="-106.94390921853482723236083984375">
        <ele>3798</ele>
        <time>2026-05-25T12:46:14.000Z</time>
        <extensions>
          <ns3:TrackPointExtension>
            <ns3:hr>118</ns3:hr>
            <ns3:cad>0</ns3:cad>
          </ns3:TrackPointExtension>
        </extensions>
      </trkpt>
      <trkpt lat="38.0498055182397365570068359375" lon="-106.94390921853482723236083984375">
        <ele>3798.199951171875</ele>
        <time>2026-05-25T12:46:15.000Z</time>
        <extensions>
          <ns3:TrackPointExtension>
            <ns3:hr>117</ns3:hr>
            <ns3:cad>0</ns3:cad>
          </ns3:TrackPointExtension>
        </extensions>
      </trkpt>
      <trkpt lat="38.0497897602617740631103515625" lon="-106.94391064345836639404296875">
        <ele>3798.199951171875</ele>
        <time>2026-05-25T12:46:21.000Z</time>
        <extensions>
          <ns3:TrackPointExtension>
            <ns3:hr>118</ns3:hr>
            <ns3:cad>0</ns3:cad>
          </ns3:TrackPointExtension>
        </extensions>
      </trkpt>
      <trkpt lat="38.049777857959270477294921875" lon="-106.943884827196598052978515625">
        <ele>3798.800048828125</ele>
        <time>2026-05-25T12:46:24.000Z</time>
        <extensions>
          <ns3:TrackPointExtension>
            <ns3:hr>119</ns3:hr>
            <ns3:cad>0</ns3:cad>
          </ns3:TrackPointExtension>
        </extensions>
      </trkpt>
      <trkpt lat="38.04977207444608211517333984375" lon="-106.9438779540359973907470703125">
        <ele>3799</ele>
        <time>2026-05-25T12:46:26.000Z</time>
        <extensions>
          <ns3:TrackPointExtension>
            <ns3:hr>119</ns3:hr>
            <ns3:cad>0</ns3:cad>
          </ns3:TrackPointExtension>
        </extensions>
      </trkpt>
      <trkpt lat="38.0497468449175357818603515625" lon="-106.94385406561195850372314453125">
        <ele>3799.199951171875</ele>
        <time>2026-05-25T12:46:32.000Z</time>
        <extensions>
          <ns3:TrackPointExtension>
            <ns3:hr>120</ns3:hr>
            <ns3:cad>0</ns3:cad>
          </ns3:TrackPointExtension>
        </extensions>
      </trkpt>
      <trkpt lat="38.04973184131085872650146484375" lon="-106.9438377209007740020751953125">
        <ele>3799.199951171875</ele>
        <time>2026-05-25T12:46:38.000Z</time>
        <extensions>
          <ns3:TrackPointExtension>
            <ns3:hr>120</ns3:hr>
            <ns3:cad>0</ns3:cad>
          </ns3:TrackPointExtension>
        </extensions>
      </trkpt>
      <trkpt lat="38.04973184131085872650146484375" lon="-106.9438377209007740020751953125">
        <ele>3799.199951171875</ele>
        <time>2026-05-25T12:46:39.000Z</time>
        <extensions>
          <ns3:TrackPointExtension>
            <ns3:hr>120</ns3:hr>
            <ns3:cad>0</ns3:cad>
          </ns3:TrackPointExtension>
        </extensions>
      </trkpt>
      <trkpt lat="38.04970568977296352386474609375" lon="-106.94381634704768657684326171875">
        <ele>3799.800048828125</ele>
        <time>2026-05-25T12:46:44.000Z</time>
        <extensions>
          <ns3:TrackPointExtension>
            <ns3:hr>120</ns3:hr>
            <ns3:cad>0</ns3:cad>
          </ns3:TrackPointExtension>
        </extensions>
      </trkpt>
      <trkpt lat="38.049692697823047637939453125" lon="-106.9438053667545318603515625">
        <ele>3800</ele>
        <time>2026-05-25T12:46:46.000Z</time>
        <extensions>
          <ns3:TrackPointExtension>
            <ns3:hr>120</ns3:hr>
            <ns3:cad>0</ns3:cad>
          </ns3:TrackPointExtension>
        </extensions>
      </trkpt>
      <trkpt lat="38.0496864952147006988525390625" lon="-106.943806707859039306640625">
        <ele>3800.39990234375</ele>
        <time>2026-05-25T12:46:52.000Z</time>
        <extensions>
          <ns3:TrackPointExtension>
            <ns3:hr>119</ns3:hr>
            <ns3:cad>0</ns3:cad>
          </ns3:TrackPointExtension>
        </extensions>
      </trkpt>
      <trkpt lat="38.0496864952147006988525390625" lon="-106.943806707859039306640625">
        <ele>3800.199951171875</ele>
        <time>2026-05-25T12:46:53.000Z</time>
        <extensions>
          <ns3:TrackPointExtension>
            <ns3:hr>120</ns3:hr>
            <ns3:cad>0</ns3:cad>
          </ns3:TrackPointExtension>
        </extensions>
      </trkpt>
      <trkpt lat="38.04969982244074344635009765625" lon="-106.94382925517857074737548828125">
        <ele>3800</ele>
        <time>2026-05-25T12:46:59.000Z</time>
        <extensions>
          <ns3:TrackPointExtension>
            <ns3:hr>120</ns3:hr>
            <ns3:cad>0</ns3:cad>
          </ns3:TrackPointExtension>
        </extensions>
      </trkpt>
      <trkpt lat="38.0497220344841480255126953125" lon="-106.9437978230416774749755859375">
        <ele>3799.60009765625</ele>
        <time>2026-05-25T12:47:05.000Z</time>
        <extensions>
          <ns3:TrackPointExtension>
            <ns3:hr>119</ns3:hr>
            <ns3:cad>0</ns3:cad>
          </ns3:TrackPointExtension>
        </extensions>
      </trkpt>
      <trkpt lat="38.049722872674465179443359375" lon="-106.94378793239593505859375">
        <ele>3799.39990234375</ele>
        <time>2026-05-25T12:47:06.000Z</time>
        <extensions>
          <ns3:TrackPointExtension>
            <ns3:hr>118</ns3:hr>
            <ns3:cad>0</ns3:cad>
          </ns3:TrackPointExtension>
        </extensions>
      </trkpt>
      <trkpt lat="38.0497196875512599945068359375" lon="-106.94377963431179523468017578125">
        <ele>3799.39990234375</ele>
        <time>2026-05-25T12:47:12.000Z</time>
        <extensions>
          <ns3:TrackPointExtension>
            <ns3:hr>118</ns3:hr>
            <ns3:cad>0</ns3:cad>
          </ns3:TrackPointExtension>
        </extensions>
      </trkpt>
      <trkpt lat="38.0497196875512599945068359375" lon="-106.94377963431179523468017578125">
        <ele>3799.199951171875</ele>
        <time>2026-05-25T12:47:14.000Z</time>
        <extensions>
          <ns3:TrackPointExtension>
            <ns3:hr>117</ns3:hr>
            <ns3:cad>0</ns3:cad>
          </ns3:TrackPointExtension>
        </extensions>
      </trkpt>
      <trkpt lat="38.049723543226718902587890625" lon="-106.94377996958792209625244140625">
        <ele>3799.199951171875</ele>
        <time>2026-05-25T12:47:20.000Z</time>
        <extensions>
          <ns3:TrackPointExtension>
            <ns3:hr>116</ns3:hr>
            <ns3:cad>0</ns3:cad>
          </ns3:TrackPointExtension>
        </extensions>
      </trkpt>
      <trkpt lat="38.04970904253423213958740234375" lon="-106.94380008615553379058837890625">
        <ele>3799.199951171875</ele>
        <time>2026-05-25T12:47:24.000Z</time>
        <extensions>
          <ns3:TrackPointExtension>
            <ns3:hr>114</ns3:hr>
            <ns3:cad>0</ns3:cad>
          </ns3:TrackPointExtension>
        </extensions>
      </trkpt>
      <trkpt lat="38.049706779420375823974609375" lon="-106.94378818385303020477294921875">
        <ele>3799.60009765625</ele>
        <time>2026-05-25T12:47:30.000Z</time>
        <extensions>
          <ns3:TrackPointExtension>
            <ns3:hr>113</ns3:hr>
            <ns3:cad>0</ns3:cad>
          </ns3:TrackPointExtension>
        </extensions>
      </trkpt>
      <trkpt lat="38.0497069470584392547607421875" lon="-106.94378818385303020477294921875">
        <ele>3799.39990234375</ele>
        <time>2026-05-25T12:47:32.000Z</time>
        <extensions>
          <ns3:TrackPointExtension>
            <ns3:hr>112</ns3:hr>
            <ns3:cad>0</ns3:cad>
          </ns3:TrackPointExtension>
        </extensions>
      </trkpt>
      <trkpt lat="38.04969931952655315399169921875" lon="-106.94378466345369815826416015625">
        <ele>3799.800048828125</ele>
        <time>2026-05-25T12:47:38.000Z</time>
        <extensions>
          <ns3:TrackPointExtension>
            <ns3:hr>111</ns3:hr>
            <ns3:cad>0</ns3:cad>
          </ns3:TrackPointExtension>
        </extensions>
      </trkpt>
      <trkpt lat="38.04969211108982563018798828125" lon="-106.94378055632114410400390625">
        <ele>3800.60009765625</ele>
        <time>2026-05-25T12:47:41.000Z</time>
        <extensions>
          <ns3:TrackPointExtension>
            <ns3:hr>111</ns3:hr>
            <ns3:cad>0</ns3:cad>
          </ns3:TrackPointExtension>
        </extensions>
      </trkpt>
      <trkpt lat="38.049690686166286468505859375" lon="-106.94377695210278034210205078125">
        <ele>3801</ele>
        <time>2026-05-25T12:47:42.000Z</time>
        <extensions>
          <ns3:TrackPointExtension>
            <ns3:hr>112</ns3:hr>
            <ns3:cad>0</ns3:cad>
          </ns3:TrackPointExtension>
        </extensions>
      </trkpt>
      <trkpt lat="38.04967953823506832122802734375" lon="-106.94376043975353240966796875">
        <ele>3801</ele>
        <time>2026-05-25T12:47:48.000Z</time>
        <extensions>
          <ns3:TrackPointExtension>
            <ns3:hr>109</ns3:hr>
            <ns3:cad>0</ns3:cad>
          </ns3:TrackPointExtension>
        </extensions>
      </trkpt>
      <trkpt lat="38.04967702366411685943603515625" lon="-106.94375297985970973968505859375">
        <ele>3801</ele>
        <time>2026-05-25T12:47:51.000Z</time>
        <extensions>
          <ns3:TrackPointExtension>
            <ns3:hr>109</ns3:hr>
            <ns3:cad>0</ns3:cad>
          </ns3:TrackPointExtension>
        </extensions>
      </trkpt>
      <trkpt lat="38.04967199452221393585205078125" lon="-106.94373093545436859130859375">
        <ele>3800.60009765625</ele>
        <time>2026-05-25T12:47:57.000Z</time>
        <extensions>
          <ns3:TrackPointExtension>
            <ns3:hr>110</ns3:hr>
            <ns3:cad>50</ns3:cad>
          </ns3:TrackPointExtension>
        </extensions>
      </trkpt>
      <trkpt lat="38.04966160096228122711181640625" lon="-106.94370813667774200439453125">
        <ele>3801</ele>
        <time>2026-05-25T12:48:01.000Z</time>
        <extensions>
          <ns3:TrackPointExtension>
            <ns3:hr>109</ns3:hr>
            <ns3:cad>0</ns3:cad>
          </ns3:TrackPointExtension>
        </extensions>
      </trkpt>
      <trkpt lat="38.04966160096228122711181640625" lon="-106.94370813667774200439453125">
        <ele>3801.199951171875</ele>
        <time>2026-05-25T12:48:02.000Z</time>
        <extensions>
          <ns3:TrackPointExtension>
            <ns3:hr>104</ns3:hr>
            <ns3:cad>0</ns3:cad>
          </ns3:TrackPointExtension>
        </extensions>
      </trkpt>
      <trkpt lat="38.0496465973556041717529296875" lon="-106.94369631819427013397216796875">
        <ele>3801.199951171875</ele>
        <time>2026-05-25T12:48:03.000Z</time>
        <extensions>
          <ns3:TrackPointExtension>
            <ns3:hr>100</ns3:hr>
            <ns3:cad>0</ns3:cad>
          </ns3:TrackPointExtension>
        </extensions>
      </trkpt>
      <trkpt lat="38.04963964037597179412841796875" lon="-106.94369363598525524139404296875">
        <ele>3801.199951171875</ele>
        <time>2026-05-25T12:48:04.000Z</time>
        <extensions>
          <ns3:TrackPointExtension>
            <ns3:hr>97</ns3:hr>
            <ns3:cad>0</ns3:cad>
          </ns3:TrackPointExtension>
        </extensions>
      </trkpt>
      <trkpt lat="38.0496306717395782470703125" lon="-106.943692378699779510498046875">
        <ele>3801</ele>
        <time>2026-05-25T12:48:09.000Z</time>
        <extensions>
          <ns3:TrackPointExtension>
            <ns3:hr>95</ns3:hr>
            <ns3:cad>42</ns3:cad>
          </ns3:TrackPointExtension>
        </extensions>
      </trkpt>
      <trkpt lat="38.04960720241069793701171875" lon="-106.943656839430332183837890625">
        <ele>3801.800048828125</ele>
        <time>2026-05-25T12:48:15.000Z</time>
        <extensions>
          <ns3:TrackPointExtension>
            <ns3:hr>94</ns3:hr>
            <ns3:cad>65</ns3:cad>
          </ns3:TrackPointExtension>
        </extensions>
      </trkpt>
      <trkpt lat="38.04957811720669269561767578125" lon="-106.9436328671872615814208984375">
        <ele>3802.199951171875</ele>
        <time>2026-05-25T12:48:17.000Z</time>
        <extensions>
          <ns3:TrackPointExtension>
            <ns3:hr>95</ns3:hr>
            <ns3:cad>0</ns3:cad>
          </ns3:TrackPointExtension>
        </extensions>
      </trkpt>
      <trkpt lat="38.04952883161604404449462890625" lon="-106.9436157681047916412353515625">
        <ele>3803</ele>
        <time>2026-05-25T12:48:22.000Z</time>
        <extensions>
          <ns3:TrackPointExtension>
            <ns3:hr>97</ns3:hr>
            <ns3:cad>0</ns3:cad>
          </ns3:TrackPointExtension>
        </extensions>
      </trkpt>
      <trkpt lat="38.04952296428382396697998046875" lon="-106.9436097331345081329345703125">
        <ele>3803.199951171875</ele>
        <time>2026-05-25T12:48:24.000Z</time>
        <extensions>
          <ns3:TrackPointExtension>
            <ns3:hr>99</ns3:hr>
            <ns3:cad>79</ns3:cad>
          </ns3:TrackPointExtension>
        </extensions>
      </trkpt>
      <trkpt lat="38.04951726458966732025146484375" lon="-106.94359154440462589263916015625">
        <ele>3803.39990234375</ele>
        <time>2026-05-25T12:48:25.000Z</time>
        <extensions>
          <ns3:TrackPointExtension>
            <ns3:hr>99</ns3:hr>
            <ns3:cad>79</ns3:cad>
          </ns3:TrackPointExtension>
        </extensions>
      </trkpt>
      <trkpt lat="38.04950259625911712646484375" lon="-106.94357025437057018280029296875">
        <ele>3803.39990234375</ele>
        <time>2026-05-25T12:48:28.000Z</time>
        <extensions>
          <ns3:TrackPointExtension>
            <ns3:hr>103</ns3:hr>
            <ns3:cad>0</ns3:cad>
          </ns3:TrackPointExtension>
        </extensions>
      </trkpt>
      <trkpt lat="38.049496226012706756591796875" lon="-106.9435664825141429901123046875">
        <ele>3803.199951171875</ele>
        <time>2026-05-25T12:48:30.000Z</time>
        <extensions>
          <ns3:TrackPointExtension>
            <ns3:hr>107</ns3:hr>
            <ns3:cad>77</ns3:cad>
          </ns3:TrackPointExtension>
        </extensions>
      </trkpt>
      <trkpt lat="38.04947686381638050079345703125" lon="-106.9435440190136432647705078125">
        <ele>3803.199951171875</ele>
        <time>2026-05-25T12:48:32.000Z</time>
        <extensions>
          <ns3:TrackPointExtension>
            <ns3:hr>110</ns3:hr>
            <ns3:cad>77</ns3:cad>
          </ns3:TrackPointExtension>
        </extensions>
      </trkpt>
      <trkpt lat="38.04946362040936946868896484375" lon="-106.943484507501125335693359375">
        <ele>3803.39990234375</ele>
        <time>2026-05-25T12:48:37.000Z</time>
        <extensions>
          <ns3:TrackPointExtension>
            <ns3:hr>113</ns3:hr>
            <ns3:cad>0</ns3:cad>
          </ns3:TrackPointExtension>
        </extensions>
      </trkpt>
      <trkpt lat="38.0494563281536102294921875" lon="-106.943471096456050872802734375">
        <ele>3803.199951171875</ele>
        <time>2026-05-25T12:48:38.000Z</time>
        <extensions>
          <ns3:TrackPointExtension>
            <ns3:hr>113</ns3:hr>
            <ns3:cad>0</ns3:cad>
          </ns3:TrackPointExtension>
        </extensions>
      </trkpt>
      <trkpt lat="38.0494283325970172882080078125" lon="-106.943461038172245025634765625">
        <ele>3803.199951171875</ele>
        <time>2026-05-25T12:48:41.000Z</time>
        <extensions>
          <ns3:TrackPointExtension>
            <ns3:hr>117</ns3:hr>
            <ns3:cad>0</ns3:cad>
          </ns3:TrackPointExtension>
        </extensions>
      </trkpt>
      <trkpt lat="38.049414418637752532958984375" lon="-106.9434700906276702880859375">
        <ele>3803.39990234375</ele>
        <time>2026-05-25T12:48:43.000Z</time>
        <extensions>
          <ns3:TrackPointExtension>
            <ns3:hr>119</ns3:hr>
            <ns3:cad>0</ns3:cad>
          </ns3:TrackPointExtension>
        </extensions>
      </trkpt>
      <trkpt lat="38.0494058690965175628662109375" lon="-106.94347302429378032684326171875">
        <ele>3803.39990234375</ele>
        <time>2026-05-25T12:48:44.000Z</time>
        <extensions>
          <ns3:TrackPointExtension>
            <ns3:hr>119</ns3:hr>
            <ns3:cad>0</ns3:cad>
          </ns3:TrackPointExtension>
        </extensions>
      </trkpt>
      <trkpt lat="38.04938717745244503021240234375" lon="-106.94349221885204315185546875">
        <ele>3803.800048828125</ele>
        <time>2026-05-25T12:48:50.000Z</time>
        <extensions>
          <ns3:TrackPointExtension>
            <ns3:hr>119</ns3:hr>
            <ns3:cad>0</ns3:cad>
          </ns3:TrackPointExtension>
        </extensions>
      </trkpt>
      <trkpt lat="38.0493834055960178375244140625" lon="-106.943499259650707244873046875">
        <ele>3803.60009765625</ele>
        <time>2026-05-25T12:48:51.000Z</time>
        <extensions>
          <ns3:TrackPointExtension>
            <ns3:hr>119</ns3:hr>
            <ns3:cad>0</ns3:cad>
          </ns3:TrackPointExtension>
        </extensions>
      </trkpt>
      <trkpt lat="38.04937376640737056732177734375" lon="-106.9435074739158153533935546875">
        <ele>3804</ele>
        <time>2026-05-25T12:48:57.000Z</time>
        <extensions>
          <ns3:TrackPointExtension>
            <ns3:hr>119</ns3:hr>
            <ns3:cad>0</ns3:cad>
          </ns3:TrackPointExtension>
        </extensions>
      </trkpt>
      <trkpt lat="38.04937376640737056732177734375" lon="-106.9435074739158153533935546875">
        <ele>3804</ele>
        <time>2026-05-25T12:48:59.000Z</time>
        <extensions>
          <ns3:TrackPointExtension>
            <ns3:hr>118</ns3:hr>
            <ns3:cad>0</ns3:cad>
          </ns3:TrackPointExtension>
        </extensions>
      </trkpt>
      <trkpt lat="38.04936848580837249755859375" lon="-106.94355835206806659698486328125">
        <ele>3804</ele>
        <time>2026-05-25T12:49:05.000Z</time>
        <extensions>
          <ns3:TrackPointExtension>
            <ns3:hr>115</ns3:hr>
            <ns3:cad>0</ns3:cad>
          </ns3:TrackPointExtension>
        </extensions>
      </trkpt>
      <trkpt lat="38.04937183856964111328125" lon="-106.943615265190601348876953125">
        <ele>3803.800048828125</ele>
        <time>2026-05-25T12:49:10.000Z</time>
        <extensions>
          <ns3:TrackPointExtension>
            <ns3:hr>114</ns3:hr>
            <ns3:cad>0</ns3:cad>
          </ns3:TrackPointExtension>
        </extensions>
      </trkpt>
      <trkpt lat="38.049351386725902557373046875" lon="-106.94362725131213665008544921875">
        <ele>3804.39990234375</ele>
        <time>2026-05-25T12:49:14.000Z</time>
        <extensions>
          <ns3:TrackPointExtension>
            <ns3:hr>114</ns3:hr>
            <ns3:cad>0</ns3:cad>
          </ns3:TrackPointExtension>
        </extensions>
      </trkpt>
      <trkpt lat="38.0493334494531154632568359375" lon="-106.94363663904368877410888671875">
        <ele>3804.60009765625</ele>
        <time>2026-05-25T12:49:17.000Z</time>
        <extensions>
          <ns3:TrackPointExtension>
            <ns3:hr>113</ns3:hr>
            <ns3:cad>0</ns3:cad>
          </ns3:TrackPointExtension>
        </extensions>
      </trkpt>
      <trkpt lat="38.04931844584643840789794921875" lon="-106.9436509720981121063232421875">
        <ele>3805.199951171875</ele>
        <time>2026-05-25T12:49:23.000Z</time>
        <extensions>
          <ns3:TrackPointExtension>
            <ns3:hr>114</ns3:hr>
            <ns3:cad>77</ns3:cad>
          </ns3:TrackPointExtension>
        </extensions>
      </trkpt>
      <trkpt lat="38.04931727237999439239501953125" lon="-106.943653486669063568115234375">
        <ele>3805.39990234375</ele>
        <time>2026-05-25T12:49:24.000Z</time>
        <extensions>
          <ns3:TrackPointExtension>
            <ns3:hr>114</ns3:hr>
            <ns3:cad>0</ns3:cad>
          </ns3:TrackPointExtension>
        </extensions>
      </trkpt>
      <trkpt lat="38.04930721409618854522705078125" lon="-106.94365859962999820709228515625">
        <ele>3805.60009765625</ele>
        <time>2026-05-25T12:49:26.000Z</time>
        <extensions>
          <ns3:TrackPointExtension>
            <ns3:hr>114</ns3:hr>
            <ns3:cad>0</ns3:cad>
          </ns3:TrackPointExtension>
        </extensions>
      </trkpt>
      <trkpt lat="38.049264885485172271728515625" lon="-106.94366388022899627685546875">
        <ele>3806.199951171875</ele>
        <time>2026-05-25T12:49:31.000Z</time>
        <extensions>
          <ns3:TrackPointExtension>
            <ns3:hr>118</ns3:hr>
            <ns3:cad>0</ns3:cad>
          </ns3:TrackPointExtension>
        </extensions>
      </trkpt>
      <trkpt lat="38.04924309253692626953125" lon="-106.94366362877190113067626953125">
        <ele>3806.199951171875</ele>
        <time>2026-05-25T12:49:33.000Z</time>
        <extensions>
          <ns3:TrackPointExtension>
            <ns3:hr>118</ns3:hr>
            <ns3:cad>0</ns3:cad>
          </ns3:TrackPointExtension>
        </extensions>
      </trkpt>
      <trkpt lat="38.04922540672123432159423828125" lon="-106.94365390576422214508056640625">
        <ele>3806.60009765625</ele>
        <time>2026-05-25T12:49:36.000Z</time>
        <extensions>
          <ns3:TrackPointExtension>
            <ns3:hr>116</ns3:hr>
            <ns3:cad>0</ns3:cad>
          </ns3:TrackPointExtension>
        </extensions>
      </trkpt>
      <trkpt lat="38.0492150969803333282470703125" lon="-106.94364502094686031341552734375">
        <ele>3807.199951171875</ele>
        <time>2026-05-25T12:49:38.000Z</time>
        <extensions>
          <ns3:TrackPointExtension>
            <ns3:hr>112</ns3:hr>
            <ns3:cad>0</ns3:cad>
          </ns3:TrackPointExtension>
        </extensions>
      </trkpt>
      <trkpt lat="38.04921249859035015106201171875" lon="-106.9436355493962764739990234375">
        <ele>3807.39990234375</ele>
        <time>2026-05-25T12:49:39.000Z</time>
        <extensions>
          <ns3:TrackPointExtension>
            <ns3:hr>107</ns3:hr>
            <ns3:cad>0</ns3:cad>
          </ns3:TrackPointExtension>
        </extensions>
      </trkpt>
      <trkpt lat="38.04919305257499217987060546875" lon="-106.94361451081931591033935546875">
        <ele>3807.60009765625</ele>
        <time>2026-05-25T12:49:41.000Z</time>
        <extensions>
          <ns3:TrackPointExtension>
            <ns3:hr>105</ns3:hr>
            <ns3:cad>0</ns3:cad>
          </ns3:TrackPointExtension>
        </extensions>
      </trkpt>
      <trkpt lat="38.04916287772357463836669921875" lon="-106.9435567595064640045166015625">
        <ele>3808.39990234375</ele>
        <time>2026-05-25T12:49:47.000Z</time>
        <extensions>
          <ns3:TrackPointExtension>
            <ns3:hr>105</ns3:hr>
            <ns3:cad>0</ns3:cad>
          </ns3:TrackPointExtension>
        </extensions>
      </trkpt>
      <trkpt lat="38.04914158768951892852783203125" lon="-106.9435175321996212005615234375">
        <ele>3808.39990234375</ele>
        <time>2026-05-25T12:49:51.000Z</time>
        <extensions>
          <ns3:TrackPointExtension>
            <ns3:hr>108</ns3:hr>
            <ns3:cad>0</ns3:cad>
          </ns3:TrackPointExtension>
        </extensions>
      </trkpt>
      <trkpt lat="38.0491379834711551666259765625" lon="-106.94351459853351116180419921875">
        <ele>3808.800048828125</ele>
        <time>2026-05-25T12:49:53.000Z</time>
        <extensions>
          <ns3:TrackPointExtension>
            <ns3:hr>110</ns3:hr>
            <ns3:cad>0</ns3:cad>
          </ns3:TrackPointExtension>
        </extensions>
      </trkpt>
      <trkpt lat="38.04912348277866840362548828125" lon="-106.9435041211545467376708984375">
        <ele>3809</ele>
        <time>2026-05-25T12:49:54.000Z</time>
        <extensions>
          <ns3:TrackPointExtension>
            <ns3:hr>110</ns3:hr>
            <ns3:cad>0</ns3:cad>
          </ns3:TrackPointExtension>
        </extensions>
      </trkpt>
      <trkpt lat="38.04912130348384380340576171875" lon="-106.94348341785371303558349609375">
        <ele>3809.60009765625</ele>
        <time>2026-05-25T12:49:59.000Z</time>
        <extensions>
          <ns3:TrackPointExtension>
            <ns3:hr>112</ns3:hr>
            <ns3:cad>0</ns3:cad>
          </ns3:TrackPointExtension>
        </extensions>
      </trkpt>
      <trkpt lat="38.04911811836063861846923828125" lon="-106.9434622116386890411376953125">
        <ele>3809.800048828125</ele>
        <time>2026-05-25T12:50:01.000Z</time>
        <extensions>
          <ns3:TrackPointExtension>
            <ns3:hr>111</ns3:hr>
            <ns3:cad>0</ns3:cad>
          </ns3:TrackPointExtension>
        </extensions>
      </trkpt>
      <trkpt lat="38.04910990409553050994873046875" lon="-106.9434343837201595306396484375">
        <ele>3809.800048828125</ele>
        <time>2026-05-25T12:50:02.000Z</time>
        <extensions>
          <ns3:TrackPointExtension>
            <ns3:hr>112</ns3:hr>
            <ns3:cad>0</ns3:cad>
          </ns3:TrackPointExtension>
        </extensions>
      </trkpt>
      <trkpt lat="38.049093894660472869873046875" lon="-106.94341485388576984405517578125">
        <ele>3810.39990234375</ele>
        <time>2026-05-25T12:50:05.000Z</time>
        <extensions>
          <ns3:TrackPointExtension>
            <ns3:hr>115</ns3:hr>
            <ns3:cad>48</ns3:cad>
          </ns3:TrackPointExtension>
        </extensions>
      </trkpt>
      <trkpt lat="38.04907805286347866058349609375" lon="-106.94340798072516918182373046875">
        <ele>3810.60009765625</ele>
        <time>2026-05-25T12:50:06.000Z</time>
        <extensions>
          <ns3:TrackPointExtension>
            <ns3:hr>117</ns3:hr>
            <ns3:cad>61</ns3:cad>
          </ns3:TrackPointExtension>
        </extensions>
      </trkpt>
      <trkpt lat="38.0490615405142307281494140625" lon="-106.94340479560196399688720703125">
        <ele>3811</ele>
        <time>2026-05-25T12:50:09.000Z</time>
        <extensions>
          <ns3:TrackPointExtension>
            <ns3:hr>118</ns3:hr>
            <ns3:cad>61</ns3:cad>
          </ns3:TrackPointExtension>
        </extensions>
      </trkpt>
      <trkpt lat="38.049019463360309600830078125" lon="-106.943398006260395050048828125">
        <ele>3812</ele>
        <time>2026-05-25T12:50:14.000Z</time>
        <extensions>
          <ns3:TrackPointExtension>
            <ns3:hr>118</ns3:hr>
            <ns3:cad>0</ns3:cad>
          </ns3:TrackPointExtension>
        </extensions>
      </trkpt>
      <trkpt lat="38.04901837371289730072021484375" lon="-106.9433924742043018341064453125">
        <ele>3812.60009765625</ele>
        <time>2026-05-25T12:50:17.000Z</time>
        <extensions>
          <ns3:TrackPointExtension>
            <ns3:hr>122</ns3:hr>
            <ns3:cad>0</ns3:cad>
          </ns3:TrackPointExtension>
        </extensions>
      </trkpt>
      <trkpt lat="38.049018122255802154541015625" lon="-106.9433907978236675262451171875">
        <ele>3812.39990234375</ele>
        <time>2026-05-25T12:50:20.000Z</time>
        <extensions>
          <ns3:TrackPointExtension>
            <ns3:hr>124</ns3:hr>
            <ns3:cad>0</ns3:cad>
          </ns3:TrackPointExtension>
        </extensions>
      </trkpt>
      <trkpt lat="38.049018122255802154541015625" lon="-106.9433907978236675262451171875">
        <ele>3812.60009765625</ele>
        <time>2026-05-25T12:50:26.000Z</time>
        <extensions>
          <ns3:TrackPointExtension>
            <ns3:hr>125</ns3:hr>
            <ns3:cad>0</ns3:cad>
          </ns3:TrackPointExtension>
        </extensions>
      </trkpt>
      <trkpt lat="38.04900881834328174591064453125" lon="-106.94339239038527011871337890625">
        <ele>3813.199951171875</ele>
        <time>2026-05-25T12:50:31.000Z</time>
        <extensions>
          <ns3:TrackPointExtension>
            <ns3:hr>123</ns3:hr>
            <ns3:cad>0</ns3:cad>
          </ns3:TrackPointExtension>
        </extensions>
      </trkpt>
      <trkpt lat="38.04897629655897617340087890625" lon="-106.94340194575488567352294921875">
        <ele>3813.800048828125</ele>
        <time>2026-05-25T12:50:33.000Z</time>
        <extensions>
          <ns3:TrackPointExtension>
            <ns3:hr>122</ns3:hr>
            <ns3:cad>0</ns3:cad>
          </ns3:TrackPointExtension>
        </extensions>
      </trkpt>
      <trkpt lat="38.04894645698368549346923828125" lon="-106.94342826493084430694580078125">
        <ele>3813.800048828125</ele>
        <time>2026-05-25T12:50:39.000Z</time>
        <extensions>
          <ns3:TrackPointExtension>
            <ns3:hr>121</ns3:hr>
            <ns3:cad>0</ns3:cad>
          </ns3:TrackPointExtension>
        </extensions>
      </trkpt>
      <trkpt lat="38.04894645698368549346923828125" lon="-106.94342826493084430694580078125">
        <ele>3813.60009765625</ele>
        <time>2026-05-25T12:50:40.000Z</time>
        <extensions>
          <ns3:TrackPointExtension>
            <ns3:hr>121</ns3:hr>
            <ns3:cad>0</ns3:cad>
          </ns3:TrackPointExtension>
        </extensions>
      </trkpt>
      <trkpt lat="38.04894645698368549346923828125" lon="-106.94342826493084430694580078125">
        <ele>3813.60009765625</ele>
        <time>2026-05-25T12:50:46.000Z</time>
        <extensions>
          <ns3:TrackPointExtension>
            <ns3:hr>122</ns3:hr>
            <ns3:cad>0</ns3:cad>
          </ns3:TrackPointExtension>
        </extensions>
      </trkpt>
      <trkpt lat="38.04894645698368549346923828125" lon="-106.94342826493084430694580078125">
        <ele>3813.800048828125</ele>
        <time>2026-05-25T12:50:52.000Z</time>
        <extensions>
          <ns3:TrackPointExtension>
            <ns3:hr>122</ns3:hr>
            <ns3:cad>0</ns3:cad>
          </ns3:TrackPointExtension>
        </extensions>
      </trkpt>
      <trkpt lat="38.04895064793527126312255859375" lon="-106.94341502152383327484130859375">
        <ele>3813.199951171875</ele>
        <time>2026-05-25T12:50:57.000Z</time>
        <extensions>
          <ns3:TrackPointExtension>
            <ns3:hr>119</ns3:hr>
            <ns3:cad>0</ns3:cad>
          </ns3:TrackPointExtension>
        </extensions>
      </trkpt>
      <trkpt lat="38.0489555932581424713134765625" lon="-106.94340848363935947418212890625">
        <ele>3813.199951171875</ele>
        <time>2026-05-25T12:50:59.000Z</time>
        <extensions>
          <ns3:TrackPointExtension>
            <ns3:hr>115</ns3:hr>
            <ns3:cad>0</ns3:cad>
          </ns3:TrackPointExtension>
        </extensions>
      </trkpt>
      <trkpt lat="38.048935644328594207763671875" lon="-106.9434030354022979736328125">
        <ele>3814.199951171875</ele>
        <time>2026-05-25T12:51:04.000Z</time>
        <extensions>
          <ns3:TrackPointExtension>
            <ns3:hr>115</ns3:hr>
            <ns3:cad>0</ns3:cad>
          </ns3:TrackPointExtension>
        </extensions>
      </trkpt>
      <trkpt lat="38.048914186656475067138671875" lon="-106.94340278394520282745361328125">
        <ele>3814.60009765625</ele>
        <time>2026-05-25T12:51:06.000Z</time>
        <extensions>
          <ns3:TrackPointExtension>
            <ns3:hr>115</ns3:hr>
            <ns3:cad>0</ns3:cad>
          </ns3:TrackPointExtension>
        </extensions>
      </trkpt>
      <trkpt lat="38.04887420497834682464599609375" lon="-106.94342088885605335235595703125">
        <ele>3815.39990234375</ele>
        <time>2026-05-25T12:51:09.000Z</time>
        <extensions>
          <ns3:TrackPointExtension>
            <ns3:hr>115</ns3:hr>
            <ns3:cad>0</ns3:cad>
          </ns3:TrackPointExtension>
        </extensions>
      </trkpt>
      <trkpt lat="38.04883564822375774383544921875" lon="-106.94341535679996013641357421875">
        <ele>3816.39990234375</ele>
        <time>2026-05-25T12:51:14.000Z</time>
        <extensions>
          <ns3:TrackPointExtension>
            <ns3:hr>115</ns3:hr>
            <ns3:cad>45</ns3:cad>
          </ns3:TrackPointExtension>
        </extensions>
      </trkpt>
      <trkpt lat="38.04882810451090335845947265625" lon="-106.94341175258159637451171875">
        <ele>3816.39990234375</ele>
        <time>2026-05-25T12:51:15.000Z</time>
        <extensions>
          <ns3:TrackPointExtension>
            <ns3:hr>115</ns3:hr>
            <ns3:cad>45</ns3:cad>
          </ns3:TrackPointExtension>
        </extensions>
      </trkpt>
      <trkpt lat="38.04879474453628063201904296875" lon="-106.9433787278831005096435546875">
        <ele>3817.199951171875</ele>
        <time>2026-05-25T12:51:20.000Z</time>
        <extensions>
          <ns3:TrackPointExtension>
            <ns3:hr>118</ns3:hr>
            <ns3:cad>0</ns3:cad>
          </ns3:TrackPointExtension>
        </extensions>
      </trkpt>
      <trkpt lat="38.048784434795379638671875" lon="-106.9433710165321826934814453125">
        <ele>3817.39990234375</ele>
        <time>2026-05-25T12:51:21.000Z</time>
        <extensions>
          <ns3:TrackPointExtension>
            <ns3:hr>119</ns3:hr>
            <ns3:cad>0</ns3:cad>
          </ns3:TrackPointExtension>
        </extensions>
      </trkpt>
      <trkpt lat="38.04876557551324367523193359375" lon="-106.94336221553385257720947265625">
        <ele>3817.60009765625</ele>
        <time>2026-05-25T12:51:23.000Z</time>
        <extensions>
          <ns3:TrackPointExtension>
            <ns3:hr>121</ns3:hr>
            <ns3:cad>0</ns3:cad>
          </ns3:TrackPointExtension>
        </extensions>
      </trkpt>
      <trkpt lat="38.04873573593795299530029296875" lon="-106.94335014559328556060791015625">
        <ele>3818.39990234375</ele>
        <time>2026-05-25T12:51:28.000Z</time>
        <extensions>
          <ns3:TrackPointExtension>
            <ns3:hr>122</ns3:hr>
            <ns3:cad>0</ns3:cad>
          </ns3:TrackPointExtension>
        </extensions>
      </trkpt>
      <trkpt lat="38.0487058125436305999755859375" lon="-106.94335333071649074554443359375">
        <ele>3818.60009765625</ele>
        <time>2026-05-25T12:51:32.000Z</time>
        <extensions>
          <ns3:TrackPointExtension>
            <ns3:hr>124</ns3:hr>
            <ns3:cad>0</ns3:cad>
          </ns3:TrackPointExtension>
        </extensions>
      </trkpt>
      <trkpt lat="38.04869592189788818359375" lon="-106.94334880448877811431884765625">
        <ele>3819</ele>
        <time>2026-05-25T12:51:34.000Z</time>
        <extensions>
          <ns3:TrackPointExtension>
            <ns3:hr>129</ns3:hr>
            <ns3:cad>0</ns3:cad>
          </ns3:TrackPointExtension>
        </extensions>
      </trkpt>
      <trkpt lat="38.0486843548715114593505859375" lon="-106.94334964267909526824951171875">
        <ele>3819.199951171875</ele>
        <time>2026-05-25T12:51:35.000Z</time>
        <extensions>
          <ns3:TrackPointExtension>
            <ns3:hr>131</ns3:hr>
            <ns3:cad>0</ns3:cad>
          </ns3:TrackPointExtension>
        </extensions>
      </trkpt>
      <trkpt lat="38.04868049919605255126953125" lon="-106.94335014559328556060791015625">
        <ele>3819.800048828125</ele>
        <time>2026-05-25T12:51:37.000Z</time>
        <extensions>
          <ns3:TrackPointExtension>
            <ns3:hr>132</ns3:hr>
            <ns3:cad>0</ns3:cad>
          </ns3:TrackPointExtension>
        </extensions>
      </trkpt>
      <trkpt lat="38.04865300655364990234375" lon="-106.94334746338427066802978515625">
        <ele>3820.800048828125</ele>
        <time>2026-05-25T12:51:41.000Z</time>
        <extensions>
          <ns3:TrackPointExtension>
            <ns3:hr>133</ns3:hr>
            <ns3:cad>0</ns3:cad>
          </ns3:TrackPointExtension>
        </extensions>
      </trkpt>
      <trkpt lat="38.04863196797668933868408203125" lon="-106.94333530962467193603515625">
        <ele>3821.800048828125</ele>
        <time>2026-05-25T12:51:45.000Z</time>
        <extensions>
          <ns3:TrackPointExtension>
            <ns3:hr>136</ns3:hr>
            <ns3:cad>0</ns3:cad>
          </ns3:TrackPointExtension>
        </extensions>
      </trkpt>
      <trkpt lat="38.0486275255680084228515625" lon="-106.94333438761532306671142578125">
        <ele>3822</ele>
        <time>2026-05-25T12:51:46.000Z</time>
        <extensions>
          <ns3:TrackPointExtension>
            <ns3:hr>137</ns3:hr>
            <ns3:cad>0</ns3:cad>
          </ns3:TrackPointExtension>
        </extensions>
      </trkpt>
      <trkpt lat="38.04861838929355144500732421875" lon="-106.943334639072418212890625">
        <ele>3822.199951171875</ele>
        <time>2026-05-25T12:51:48.000Z</time>
        <extensions>
          <ns3:TrackPointExtension>
            <ns3:hr>137</ns3:hr>
            <ns3:cad>0</ns3:cad>
          </ns3:TrackPointExtension>
        </extensions>
      </trkpt>
      <trkpt lat="38.048587627708911895751953125" lon="-106.94334360770881175994873046875">
        <ele>3822.800048828125</ele>
        <time>2026-05-25T12:51:53.000Z</time>
        <extensions>
          <ns3:TrackPointExtension>
            <ns3:hr>140</ns3:hr>
            <ns3:cad>0</ns3:cad>
          </ns3:TrackPointExtension>
        </extensions>
      </trkpt>
      <trkpt lat="38.048587627708911895751953125" lon="-106.94334360770881175994873046875">
        <ele>3822.800048828125</ele>
        <time>2026-05-25T12:51:54.000Z</time>
        <extensions>
          <ns3:TrackPointExtension>
            <ns3:hr>141</ns3:hr>
            <ns3:cad>0</ns3:cad>
          </ns3:TrackPointExtension>
        </extensions>
      </trkpt>
      <trkpt lat="38.04857983253896236419677734375" lon="-106.94334427826106548309326171875">
        <ele>3823.199951171875</ele>
        <time>2026-05-25T12:51:55.000Z</time>
        <extensions>
          <ns3:TrackPointExtension>
            <ns3:hr>142</ns3:hr>
            <ns3:cad>0</ns3:cad>
          </ns3:TrackPointExtension>
        </extensions>
      </trkpt>
      <trkpt lat="38.0485613085329532623291015625" lon="-106.9433599524199962615966796875">
        <ele>3823.60009765625</ele>
        <time>2026-05-25T12:52:00.000Z</time>
        <extensions>
          <ns3:TrackPointExtension>
            <ns3:hr>138</ns3:hr>
            <ns3:cad>0</ns3:cad>
          </ns3:TrackPointExtension>
        </extensions>
      </trkpt>
      <trkpt lat="38.04855334572494029998779296875" lon="-106.94336271844804286956787109375">
        <ele>3823.800048828125</ele>
        <time>2026-05-25T12:52:01.000Z</time>
        <extensions>
          <ns3:TrackPointExtension>
            <ns3:hr>136</ns3:hr>
            <ns3:cad>0</ns3:cad>
          </ns3:TrackPointExtension>
        </extensions>
      </trkpt>
      <trkpt lat="38.04854110814630985260009765625" lon="-106.94336338900029659271240234375">
        <ele>3824.199951171875</ele>
        <time>2026-05-25T12:52:03.000Z</time>
        <extensions>
          <ns3:TrackPointExtension>
            <ns3:hr>134</ns3:hr>
            <ns3:cad>0</ns3:cad>
          </ns3:TrackPointExtension>
        </extensions>
      </trkpt>
      <trkpt lat="38.0485328100621700286865234375" lon="-106.9433622993528842926025390625">
        <ele>3824.800048828125</ele>
        <time>2026-05-25T12:52:05.000Z</time>
        <extensions>
          <ns3:TrackPointExtension>
            <ns3:hr>131</ns3:hr>
            <ns3:cad>0</ns3:cad>
          </ns3:TrackPointExtension>
        </extensions>
      </trkpt>
      <trkpt lat="38.0485175549983978271484375" lon="-106.9433522410690784454345703125">
        <ele>3825.199951171875</ele>
        <time>2026-05-25T12:52:07.000Z</time>
        <extensions>
          <ns3:TrackPointExtension>
            <ns3:hr>127</ns3:hr>
            <ns3:cad>0</ns3:cad>
          </ns3:TrackPointExtension>
        </extensions>
      </trkpt>
      <trkpt lat="38.0485150404274463653564453125" lon="-106.94334830157458782196044921875">
        <ele>3825.39990234375</ele>
        <time>2026-05-25T12:52:08.000Z</time>
        <extensions>
          <ns3:TrackPointExtension>
            <ns3:hr>124</ns3:hr>
            <ns3:cad>0</ns3:cad>
          </ns3:TrackPointExtension>
        </extensions>
      </trkpt>
      <trkpt lat="38.04850875400006771087646484375" lon="-106.94334209896624088287353515625">
        <ele>3825.60009765625</ele>
        <time>2026-05-25T12:52:09.000Z</time>
        <extensions>
          <ns3:TrackPointExtension>
            <ns3:hr>122</ns3:hr>
            <ns3:cad>0</ns3:cad>
          </ns3:TrackPointExtension>
        </extensions>
      </trkpt>
      <trkpt lat="38.048497773706912994384765625" lon="-106.9433361478149890899658203125">
        <ele>3826</ele>
        <time>2026-05-25T12:52:11.000Z</time>
        <extensions>
          <ns3:TrackPointExtension>
            <ns3:hr>119</ns3:hr>
            <ns3:cad>0</ns3:cad>
          </ns3:TrackPointExtension>
        </extensions>
      </trkpt>
      <trkpt lat="38.04848335683345794677734375" lon="-106.94332650862634181976318359375">
        <ele>3826</ele>
        <time>2026-05-25T12:52:14.000Z</time>
        <extensions>
          <ns3:TrackPointExtension>
            <ns3:hr>117</ns3:hr>
            <ns3:cad>0</ns3:cad>
          </ns3:TrackPointExtension>
        </extensions>
      </trkpt>
      <trkpt lat="38.04846416227519512176513671875" lon="-106.94331812672317028045654296875">
        <ele>3826.39990234375</ele>
        <time>2026-05-25T12:52:17.000Z</time>
        <extensions>
          <ns3:TrackPointExtension>
            <ns3:hr>120</ns3:hr>
            <ns3:cad>0</ns3:cad>
          </ns3:TrackPointExtension>
        </extensions>
      </trkpt>
      <trkpt lat="38.0484597198665142059326171875" lon="-106.94331527687609195709228515625">
        <ele>3826.800048828125</ele>
        <time>2026-05-25T12:52:18.000Z</time>
        <extensions>
          <ns3:TrackPointExtension>
            <ns3:hr>121</ns3:hr>
            <ns3:cad>0</ns3:cad>
          </ns3:TrackPointExtension>
        </extensions>
      </trkpt>
      <trkpt lat="38.04845259524881839752197265625" lon="-106.943306140601634979248046875">
        <ele>3827.39990234375</ele>
        <time>2026-05-25T12:52:20.000Z</time>
        <extensions>
          <ns3:TrackPointExtension>
            <ns3:hr>125</ns3:hr>
            <ns3:cad>0</ns3:cad>
          </ns3:TrackPointExtension>
        </extensions>
      </trkpt>
      <trkpt lat="38.0484516732394695281982421875" lon="-106.94330672733485698699951171875">
        <ele>3827.60009765625</ele>
        <time>2026-05-25T12:52:21.000Z</time>
        <extensions>
          <ns3:TrackPointExtension>
            <ns3:hr>127</ns3:hr>
            <ns3:cad>0</ns3:cad>
          </ns3:TrackPointExtension>
        </extensions>
      </trkpt>
      <trkpt lat="38.048446141183376312255859375" lon="-106.94331075064837932586669921875">
        <ele>3827.800048828125</ele>
        <time>2026-05-25T12:52:22.000Z</time>
        <extensions>
          <ns3:TrackPointExtension>
            <ns3:hr>127</ns3:hr>
            <ns3:cad>0</ns3:cad>
          </ns3:TrackPointExtension>
        </extensions>
      </trkpt>
      <trkpt lat="38.04841873236000537872314453125" lon="-106.94330521859228610992431640625">
        <ele>3828.39990234375</ele>
        <time>2026-05-25T12:52:28.000Z</time>
        <extensions>
          <ns3:TrackPointExtension>
            <ns3:hr>128</ns3:hr>
            <ns3:cad>0</ns3:cad>
          </ns3:TrackPointExtension>
        </extensions>
      </trkpt>
      <trkpt lat="38.04841152392327785491943359375" lon="-106.94330035708844661712646484375">
        <ele>3828.60009765625</ele>
        <time>2026-05-25T12:52:29.000Z</time>
        <extensions>
          <ns3:TrackPointExtension>
            <ns3:hr>128</ns3:hr>
            <ns3:cad>0</ns3:cad>
          </ns3:TrackPointExtension>
        </extensions>
      </trkpt>
      <trkpt lat="38.04839744232594966888427734375" lon="-106.943292059004306793212890625">
        <ele>3828.800048828125</ele>
        <time>2026-05-25T12:52:30.000Z</time>
        <extensions>
          <ns3:TrackPointExtension>
            <ns3:hr>127</ns3:hr>
            <ns3:cad>0</ns3:cad>
          </ns3:TrackPointExtension>
        </extensions>
      </trkpt>
      <trkpt lat="38.048384450376033782958984375" lon="-106.9432694278657436370849609375">
        <ele>3829.800048828125</ele>
        <time>2026-05-25T12:52:36.000Z</time>
        <extensions>
          <ns3:TrackPointExtension>
            <ns3:hr>126</ns3:hr>
            <ns3:cad>0</ns3:cad>
          </ns3:TrackPointExtension>
        </extensions>
      </trkpt>
      <trkpt lat="38.04838336072862148284912109375" lon="-106.94326397962868213653564453125">
        <ele>3829.800048828125</ele>
        <time>2026-05-25T12:52:37.000Z</time>
        <extensions>
          <ns3:TrackPointExtension>
            <ns3:hr>127</ns3:hr>
            <ns3:cad>0</ns3:cad>
          </ns3:TrackPointExtension>
        </extensions>
      </trkpt>
      <trkpt lat="38.0483789183199405670166015625" lon="-106.943259201943874359130859375">
        <ele>3830</ele>
        <time>2026-05-25T12:52:38.000Z</time>
        <extensions>
          <ns3:TrackPointExtension>
            <ns3:hr>126</ns3:hr>
            <ns3:cad>0</ns3:cad>
          </ns3:TrackPointExtension>
        </extensions>
      </trkpt>
      <trkpt lat="38.04835435934364795684814453125" lon="-106.9432372413575649261474609375">
        <ele>3831</ele>
        <time>2026-05-25T12:52:43.000Z</time>
        <extensions>
          <ns3:TrackPointExtension>
            <ns3:hr>127</ns3:hr>
            <ns3:cad>0</ns3:cad>
          </ns3:TrackPointExtension>
        </extensions>
      </trkpt>
      <trkpt lat="38.04834631271660327911376953125" lon="-106.94323313422501087188720703125">
        <ele>3831.39990234375</ele>
        <time>2026-05-25T12:52:44.000Z</time>
        <extensions>
          <ns3:TrackPointExtension>
            <ns3:hr>126</ns3:hr>
            <ns3:cad>0</ns3:cad>
          </ns3:TrackPointExtension>
        </extensions>
      </trkpt>
      <trkpt lat="38.04832753725349903106689453125" lon="-106.94321854971349239349365234375">
        <ele>3832</ele>
        <time>2026-05-25T12:52:47.000Z</time>
        <extensions>
          <ns3:TrackPointExtension>
            <ns3:hr>126</ns3:hr>
            <ns3:cad>0</ns3:cad>
          </ns3:TrackPointExtension>
        </extensions>
      </trkpt>
      <trkpt lat="38.0483105219900608062744140625" lon="-106.94320966489613056182861328125">
        <ele>3832.199951171875</ele>
        <time>2026-05-25T12:52:50.000Z</time>
        <extensions>
          <ns3:TrackPointExtension>
            <ns3:hr>125</ns3:hr>
            <ns3:cad>0</ns3:cad>
          </ns3:TrackPointExtension>
        </extensions>
      </trkpt>
      <trkpt lat="38.04828277789056301116943359375" lon="-106.94320228882133960723876953125">
        <ele>3832.60009765625</ele>
        <time>2026-05-25T12:52:54.000Z</time>
        <extensions>
          <ns3:TrackPointExtension>
            <ns3:hr>128</ns3:hr>
            <ns3:cad>0</ns3:cad>
          </ns3:TrackPointExtension>
        </extensions>
      </trkpt>
      <trkpt lat="38.04827154614031314849853515625" lon="-106.94320078007876873016357421875">
        <ele>3833</ele>
        <time>2026-05-25T12:52:57.000Z</time>
        <extensions>
          <ns3:TrackPointExtension>
            <ns3:hr>129</ns3:hr>
            <ns3:cad>0</ns3:cad>
          </ns3:TrackPointExtension>
        </extensions>
      </trkpt>
      <trkpt lat="38.04826802574098110198974609375" lon="-106.94319583475589752197265625">
        <ele>3833</ele>
        <time>2026-05-25T12:52:58.000Z</time>
        <extensions>
          <ns3:TrackPointExtension>
            <ns3:hr>129</ns3:hr>
            <ns3:cad>0</ns3:cad>
          </ns3:TrackPointExtension>
        </extensions>
      </trkpt>
      <trkpt lat="38.04823986254632472991943359375" lon="-106.94317060522735118865966796875">
        <ele>3833.800048828125</ele>
        <time>2026-05-25T12:53:04.000Z</time>
        <extensions>
          <ns3:TrackPointExtension>
            <ns3:hr>127</ns3:hr>
            <ns3:cad>0</ns3:cad>
          </ns3:TrackPointExtension>
        </extensions>
      </trkpt>
      <trkpt lat="38.0482300557196140289306640625" lon="-106.943164654076099395751953125">
        <ele>3834</ele>
        <time>2026-05-25T12:53:05.000Z</time>
        <extensions>
          <ns3:TrackPointExtension>
            <ns3:hr>127</ns3:hr>
            <ns3:cad>0</ns3:cad>
          </ns3:TrackPointExtension>
        </extensions>
      </trkpt>
      <trkpt lat="38.048216812312602996826171875" lon="-106.9431561045348644256591796875">
        <ele>3834.199951171875</ele>
        <time>2026-05-25T12:53:06.000Z</time>
        <extensions>
          <ns3:TrackPointExtension>
            <ns3:hr>126</ns3:hr>
            <ns3:cad>0</ns3:cad>
          </ns3:TrackPointExtension>
        </extensions>
      </trkpt>
      <trkpt lat="38.0481822788715362548828125" lon="-106.943157948553562164306640625">
        <ele>3835</ele>
        <time>2026-05-25T12:53:12.000Z</time>
        <extensions>
          <ns3:TrackPointExtension>
            <ns3:hr>128</ns3:hr>
            <ns3:cad>0</ns3:cad>
          </ns3:TrackPointExtension>
        </extensions>
      </trkpt>
      <trkpt lat="38.04818219505250453948974609375" lon="-106.94315669126808643341064453125">
        <ele>3835</ele>
        <time>2026-05-25T12:53:13.000Z</time>
        <extensions>
          <ns3:TrackPointExtension>
            <ns3:hr>129</ns3:hr>
            <ns3:cad>0</ns3:cad>
          </ns3:TrackPointExtension>
        </extensions>
      </trkpt>
      <trkpt lat="38.048173896968364715576171875" lon="-106.94314696826040744781494140625">
        <ele>3835.199951171875</ele>
        <time>2026-05-25T12:53:16.000Z</time>
        <extensions>
          <ns3:TrackPointExtension>
            <ns3:hr>130</ns3:hr>
            <ns3:cad>0</ns3:cad>
          </ns3:TrackPointExtension>
        </extensions>
      </trkpt>
      <trkpt lat="38.04815000854432582855224609375" lon="-106.9431215710937976837158203125">
        <ele>3836.39990234375</ele>
        <time>2026-05-25T12:53:21.000Z</time>
        <extensions>
          <ns3:TrackPointExtension>
            <ns3:hr>130</ns3:hr>
            <ns3:cad>0</ns3:cad>
          </ns3:TrackPointExtension>
        </extensions>
      </trkpt>
      <trkpt lat="38.048121929168701171875" lon="-106.9431091658771038055419921875">
        <ele>3837.199951171875</ele>
        <time>2026-05-25T12:53:27.000Z</time>
        <extensions>
          <ns3:TrackPointExtension>
            <ns3:hr>129</ns3:hr>
            <ns3:cad>0</ns3:cad>
          </ns3:TrackPointExtension>
        </extensions>
      </trkpt>
      <trkpt lat="38.048097454011440277099609375" lon="-106.94310941733419895172119140625">
        <ele>3837.60009765625</ele>
        <time>2026-05-25T12:53:31.000Z</time>
        <extensions>
          <ns3:TrackPointExtension>
            <ns3:hr>132</ns3:hr>
            <ns3:cad>0</ns3:cad>
          </ns3:TrackPointExtension>
        </extensions>
      </trkpt>
      <trkpt lat="38.0480667762458324432373046875" lon="-106.9431048072874546051025390625">
        <ele>3838</ele>
        <time>2026-05-25T12:53:35.000Z</time>
        <extensions>
          <ns3:TrackPointExtension>
            <ns3:hr>124</ns3:hr>
            <ns3:cad>0</ns3:cad>
          </ns3:TrackPointExtension>
        </extensions>
      </trkpt>
      <trkpt lat="38.048011623322963714599609375" lon="-106.94310924969613552093505859375">
        <ele>3839</ele>
        <time>2026-05-25T12:53:40.000Z</time>
        <extensions>
          <ns3:TrackPointExtension>
            <ns3:hr>123</ns3:hr>
            <ns3:cad>57</ns3:cad>
          </ns3:TrackPointExtension>
        </extensions>
      </trkpt>
      <trkpt lat="38.04800416342914104461669921875" lon="-106.9431106746196746826171875">
        <ele>3839.199951171875</ele>
        <time>2026-05-25T12:53:42.000Z</time>
        <extensions>
          <ns3:TrackPointExtension>
            <ns3:hr>124</ns3:hr>
            <ns3:cad>0</ns3:cad>
          </ns3:TrackPointExtension>
        </extensions>
      </trkpt>
      <trkpt lat="38.04797633551061153411865234375" lon="-106.9430957548320293426513671875">
        <ele>3839.800048828125</ele>
        <time>2026-05-25T12:53:48.000Z</time>
        <extensions>
          <ns3:TrackPointExtension>
            <ns3:hr>126</ns3:hr>
            <ns3:cad>0</ns3:cad>
          </ns3:TrackPointExtension>
        </extensions>
      </trkpt>
      <trkpt lat="38.0479658581316471099853515625" lon="-106.943098604679107666015625">
        <ele>3840</ele>
        <time>2026-05-25T12:53:49.000Z</time>
        <extensions>
          <ns3:TrackPointExtension>
            <ns3:hr>126</ns3:hr>
            <ns3:cad>0</ns3:cad>
          </ns3:TrackPointExtension>
        </extensions>
      </trkpt>
      <trkpt lat="38.0479507707059383392333984375" lon="-106.94311763159930706024169921875">
        <ele>3840.39990234375</ele>
        <time>2026-05-25T12:53:53.000Z</time>
        <extensions>
          <ns3:TrackPointExtension>
            <ns3:hr>127</ns3:hr>
            <ns3:cad>0</ns3:cad>
          </ns3:TrackPointExtension>
        </extensions>
      </trkpt>
      <trkpt lat="38.047941215336322784423828125" lon="-106.9431098364293575286865234375">
        <ele>3840.199951171875</ele>
        <time>2026-05-25T12:53:56.000Z</time>
        <extensions>
          <ns3:TrackPointExtension>
            <ns3:hr>130</ns3:hr>
            <ns3:cad>0</ns3:cad>
          </ns3:TrackPointExtension>
        </extensions>
      </trkpt>
      <trkpt lat="38.047941215336322784423828125" lon="-106.9431098364293575286865234375">
        <ele>3840.800048828125</ele>
        <time>2026-05-25T12:53:59.000Z</time>
        <extensions>
          <ns3:TrackPointExtension>
            <ns3:hr>129</ns3:hr>
            <ns3:cad>0</ns3:cad>
          </ns3:TrackPointExtension>
        </extensions>
      </trkpt>
      <trkpt lat="38.04793090559542179107666015625" lon="-106.94310572929680347442626953125">
        <ele>3840.800048828125</ele>
        <time>2026-05-25T12:54:05.000Z</time>
        <extensions>
          <ns3:TrackPointExtension>
            <ns3:hr>129</ns3:hr>
            <ns3:cad>0</ns3:cad>
          </ns3:TrackPointExtension>
        </extensions>
      </trkpt>
      <trkpt lat="38.04792000912129878997802734375" lon="-106.94309080950915813446044921875">
        <ele>3840.800048828125</ele>
        <time>2026-05-25T12:54:06.000Z</time>
        <extensions>
          <ns3:TrackPointExtension>
            <ns3:hr>128</ns3:hr>
            <ns3:cad>0</ns3:cad>
          </ns3:TrackPointExtension>
        </extensions>
      </trkpt>
      <trkpt lat="38.0479058437049388885498046875" lon="-106.94308460690081119537353515625">
        <ele>3841</ele>
        <time>2026-05-25T12:54:08.000Z</time>
        <extensions>
          <ns3:TrackPointExtension>
            <ns3:hr>127</ns3:hr>
            <ns3:cad>0</ns3:cad>
          </ns3:TrackPointExtension>
        </extensions>
      </trkpt>
      <trkpt lat="38.04787910543382167816162109375" lon="-106.94307572208344936370849609375">
        <ele>3842</ele>
        <time>2026-05-25T12:54:13.000Z</time>
        <extensions>
          <ns3:TrackPointExtension>
            <ns3:hr>129</ns3:hr>
            <ns3:cad>0</ns3:cad>
          </ns3:TrackPointExtension>
        </extensions>
      </trkpt>
      <trkpt lat="38.04787910543382167816162109375" lon="-106.94307572208344936370849609375">
        <ele>3842.199951171875</ele>
        <time>2026-05-25T12:54:14.000Z</time>
        <extensions>
          <ns3:TrackPointExtension>
            <ns3:hr>129</ns3:hr>
            <ns3:cad>0</ns3:cad>
          </ns3:TrackPointExtension>
        </extensions>
      </trkpt>
      <trkpt lat="38.047817163169384002685546875" lon="-106.94309818558394908905029296875">
        <ele>3842.39990234375</ele>
        <time>2026-05-25T12:54:20.000Z</time>
        <extensions>
          <ns3:TrackPointExtension>
            <ns3:hr>128</ns3:hr>
            <ns3:cad>0</ns3:cad>
          </ns3:TrackPointExtension>
        </extensions>
      </trkpt>
      <trkpt lat="38.04779662750661373138427734375" lon="-106.94310958497226238250732421875">
        <ele>3842.39990234375</ele>
        <time>2026-05-25T12:54:23.000Z</time>
        <extensions>
          <ns3:TrackPointExtension>
            <ns3:hr>125</ns3:hr>
            <ns3:cad>0</ns3:cad>
          </ns3:TrackPointExtension>
        </extensions>
      </trkpt>
      <trkpt lat="38.04776662029325962066650390625" lon="-106.94313506595790386199951171875">
        <ele>3842.60009765625</ele>
        <time>2026-05-25T12:54:27.000Z</time>
        <extensions>
          <ns3:TrackPointExtension>
            <ns3:hr>122</ns3:hr>
            <ns3:cad>0</ns3:cad>
          </ns3:TrackPointExtension>
        </extensions>
      </trkpt>
      <trkpt lat="38.0477532930672168731689453125" lon="-106.94315635599195957183837890625">
        <ele>3843.199951171875</ele>
        <time>2026-05-25T12:54:29.000Z</time>
        <extensions>
          <ns3:TrackPointExtension>
            <ns3:hr>121</ns3:hr>
            <ns3:cad>0</ns3:cad>
          </ns3:TrackPointExtension>
        </extensions>
      </trkpt>
      <trkpt lat="38.047749437391757965087890625" lon="-106.9431638158857822418212890625">
        <ele>3843.39990234375</ele>
        <time>2026-05-25T12:54:30.000Z</time>
        <extensions>
          <ns3:TrackPointExtension>
            <ns3:hr>121</ns3:hr>
            <ns3:cad>0</ns3:cad>
          </ns3:TrackPointExtension>
        </extensions>
      </trkpt>
      <trkpt lat="38.0477144010365009307861328125" lon="-106.94316767156124114990234375">
        <ele>3844</ele>
        <time>2026-05-25T12:54:35.000Z</time>
        <extensions>
          <ns3:TrackPointExtension>
            <ns3:hr>120</ns3:hr>
            <ns3:cad>0</ns3:cad>
          </ns3:TrackPointExtension>
        </extensions>
      </trkpt>
      <trkpt lat="38.04770073853433132171630859375" lon="-106.94316557608544826507568359375">
        <ele>3844.199951171875</ele>
        <time>2026-05-25T12:54:36.000Z</time>
        <extensions>
          <ns3:TrackPointExtension>
            <ns3:hr>121</ns3:hr>
            <ns3:cad>0</ns3:cad>
          </ns3:TrackPointExtension>
        </extensions>
      </trkpt>
      <trkpt lat="38.04767978377640247344970703125" lon="-106.9431616365909576416015625">
        <ele>3844.39990234375</ele>
        <time>2026-05-25T12:54:39.000Z</time>
        <extensions>
          <ns3:TrackPointExtension>
            <ns3:hr>124</ns3:hr>
            <ns3:cad>0</ns3:cad>
          </ns3:TrackPointExtension>
        </extensions>
      </trkpt>
      <trkpt lat="38.04765748791396617889404296875" lon="-106.9431611336767673492431640625">
        <ele>3844.39990234375</ele>
        <time>2026-05-25T12:54:41.000Z</time>
        <extensions>
          <ns3:TrackPointExtension>
            <ns3:hr>128</ns3:hr>
            <ns3:cad>79</ns3:cad>
          </ns3:TrackPointExtension>
        </extensions>
      </trkpt>
      <trkpt lat="38.0476480163633823394775390625" lon="-106.94315987639129161834716796875">
        <ele>3844.39990234375</ele>
        <time>2026-05-25T12:54:42.000Z</time>
        <extensions>
          <ns3:TrackPointExtension>
            <ns3:hr>129</ns3:hr>
            <ns3:cad>79</ns3:cad>
          </ns3:TrackPointExtension>
        </extensions>
      </trkpt>
      <trkpt lat="38.0476071126759052276611328125" lon="-106.94314596243202686309814453125">
        <ele>3843.800048828125</ele>
        <time>2026-05-25T12:54:48.000Z</time>
        <extensions>
          <ns3:TrackPointExtension>
            <ns3:hr>131</ns3:hr>
            <ns3:cad>0</ns3:cad>
          </ns3:TrackPointExtension>
        </extensions>
      </trkpt>
      <trkpt lat="38.0476034246385097503662109375" lon="-106.9431420229375362396240234375">
        <ele>3844.199951171875</ele>
        <time>2026-05-25T12:54:50.000Z</time>
        <extensions>
          <ns3:TrackPointExtension>
            <ns3:hr>129</ns3:hr>
            <ns3:cad>0</ns3:cad>
          </ns3:TrackPointExtension>
        </extensions>
      </trkpt>
      <trkpt lat="38.04759831167757511138916015625" lon="-106.94314730353653430938720703125">
        <ele>3844.800048828125</ele>
        <time>2026-05-25T12:54:52.000Z</time>
        <extensions>
          <ns3:TrackPointExtension>
            <ns3:hr>128</ns3:hr>
            <ns3:cad>0</ns3:cad>
          </ns3:TrackPointExtension>
        </extensions>
      </trkpt>
      <trkpt lat="38.04759277962148189544677734375" lon="-106.9431589543819427490234375">
        <ele>3845.199951171875</ele>
        <time>2026-05-25T12:54:54.000Z</time>
        <extensions>
          <ns3:TrackPointExtension>
            <ns3:hr>127</ns3:hr>
            <ns3:cad>0</ns3:cad>
          </ns3:TrackPointExtension>
        </extensions>
      </trkpt>
      <trkpt lat="38.04758557118475437164306640625" lon="-106.94315501488745212554931640625">
        <ele>3845</ele>
        <time>2026-05-25T12:54:56.000Z</time>
        <extensions>
          <ns3:TrackPointExtension>
            <ns3:hr>127</ns3:hr>
            <ns3:cad>0</ns3:cad>
          </ns3:TrackPointExtension>
        </extensions>
      </trkpt>
      <trkpt lat="38.04756411351263523101806640625" lon="-106.9431584514677524566650390625">
        <ele>3844.800048828125</ele>
        <time>2026-05-25T12:55:02.000Z</time>
        <extensions>
          <ns3:TrackPointExtension>
            <ns3:hr>128</ns3:hr>
            <ns3:cad>0</ns3:cad>
          </ns3:TrackPointExtension>
        </extensions>
      </trkpt>
      <trkpt lat="38.04755439050495624542236328125" lon="-106.943159289658069610595703125">
        <ele>3844.800048828125</ele>
        <time>2026-05-25T12:55:03.000Z</time>
        <extensions>
          <ns3:TrackPointExtension>
            <ns3:hr>127</ns3:hr>
            <ns3:cad>0</ns3:cad>
          </ns3:TrackPointExtension>
        </extensions>
      </trkpt>
      <trkpt lat="38.0475125648081302642822265625" lon="-106.943170689046382904052734375">
        <ele>3845.60009765625</ele>
        <time>2026-05-25T12:55:08.000Z</time>
        <extensions>
          <ns3:TrackPointExtension>
            <ns3:hr>126</ns3:hr>
            <ns3:cad>0</ns3:cad>
          </ns3:TrackPointExtension>
        </extensions>
      </trkpt>
      <trkpt lat="38.0474817194044589996337890625" lon="-106.9431711919605731964111328125">
        <ele>3846.199951171875</ele>
        <time>2026-05-25T12:55:11.000Z</time>
        <extensions>
          <ns3:TrackPointExtension>
            <ns3:hr>126</ns3:hr>
            <ns3:cad>0</ns3:cad>
          </ns3:TrackPointExtension>
        </extensions>
      </trkpt>
      <trkpt lat="38.0474740080535411834716796875" lon="-106.9431715272367000579833984375">
        <ele>3846.60009765625</ele>
        <time>2026-05-25T12:55:13.000Z</time>
        <extensions>
          <ns3:TrackPointExtension>
            <ns3:hr>126</ns3:hr>
            <ns3:cad>0</ns3:cad>
          </ns3:TrackPointExtension>
        </extensions>
      </trkpt>
      <trkpt lat="38.047438301146030426025390625" lon="-106.943152248859405517578125">
        <ele>3847</ele>
        <time>2026-05-25T12:55:18.000Z</time>
        <extensions>
          <ns3:TrackPointExtension>
            <ns3:hr>122</ns3:hr>
            <ns3:cad>0</ns3:cad>
          </ns3:TrackPointExtension>
        </extensions>
      </trkpt>
      <trkpt lat="38.04743167944252490997314453125" lon="-106.9431482255458831787109375">
        <ele>3847</ele>
        <time>2026-05-25T12:55:19.000Z</time>
        <extensions>
          <ns3:TrackPointExtension>
            <ns3:hr>118</ns3:hr>
            <ns3:cad>0</ns3:cad>
          </ns3:TrackPointExtension>
        </extensions>
      </trkpt>
      <trkpt lat="38.04740376770496368408203125" lon="-106.94314143620431423187255859375">
        <ele>3847.60009765625</ele>
        <time>2026-05-25T12:55:23.000Z</time>
        <extensions>
          <ns3:TrackPointExtension>
            <ns3:hr>115</ns3:hr>
            <ns3:cad>64</ns3:cad>
          </ns3:TrackPointExtension>
        </extensions>
      </trkpt>
      <trkpt lat="38.04738239385187625885009765625" lon="-106.943128444254398345947265625">
        <ele>3848</ele>
        <time>2026-05-25T12:55:26.000Z</time>
        <extensions>
          <ns3:TrackPointExtension>
            <ns3:hr>114</ns3:hr>
            <ns3:cad>44</ns3:cad>
          </ns3:TrackPointExtension>
        </extensions>
      </trkpt>
      <trkpt lat="38.04736563004553318023681640625" lon="-106.9431416876614093780517578125">
        <ele>3848.39990234375</ele>
        <time>2026-05-25T12:55:28.000Z</time>
        <extensions>
          <ns3:TrackPointExtension>
            <ns3:hr>113</ns3:hr>
            <ns3:cad>44</ns3:cad>
          </ns3:TrackPointExtension>
        </extensions>
      </trkpt>
      <trkpt lat="38.04735808633267879486083984375" lon="-106.94314830936491489410400390625">
        <ele>3848.800048828125</ele>
        <time>2026-05-25T12:55:30.000Z</time>
        <extensions>
          <ns3:TrackPointExtension>
            <ns3:hr>113</ns3:hr>
            <ns3:cad>44</ns3:cad>
          </ns3:TrackPointExtension>
        </extensions>
      </trkpt>
      <trkpt lat="38.04734970442950725555419921875" lon="-106.943152248859405517578125">
        <ele>3849.199951171875</ele>
        <time>2026-05-25T12:55:33.000Z</time>
        <extensions>
          <ns3:TrackPointExtension>
            <ns3:hr>110</ns3:hr>
            <ns3:cad>0</ns3:cad>
          </ns3:TrackPointExtension>
        </extensions>
      </trkpt>
      <trkpt lat="38.047335036098957061767578125" lon="-106.94314755499362945556640625">
        <ele>3849.39990234375</ele>
        <time>2026-05-25T12:55:34.000Z</time>
        <extensions>
          <ns3:TrackPointExtension>
            <ns3:hr>109</ns3:hr>
            <ns3:cad>0</ns3:cad>
          </ns3:TrackPointExtension>
        </extensions>
      </trkpt>
      <trkpt lat="38.04731131531298160552978515625" lon="-106.943152584135532379150390625">
        <ele>3849.60009765625</ele>
        <time>2026-05-25T12:55:38.000Z</time>
        <extensions>
          <ns3:TrackPointExtension>
            <ns3:hr>109</ns3:hr>
            <ns3:cad>0</ns3:cad>
          </ns3:TrackPointExtension>
        </extensions>
      </trkpt>
      <trkpt lat="38.04730813018977642059326171875" lon="-106.94315400905907154083251953125">
        <ele>3849.800048828125</ele>
        <time>2026-05-25T12:55:39.000Z</time>
        <extensions>
          <ns3:TrackPointExtension>
            <ns3:hr>110</ns3:hr>
            <ns3:cad>0</ns3:cad>
          </ns3:TrackPointExtension>
        </extensions>
      </trkpt>
      <trkpt lat="38.04729958064854145050048828125" lon="-106.94315157830715179443359375">
        <ele>3850.39990234375</ele>
        <time>2026-05-25T12:55:43.000Z</time>
        <extensions>
          <ns3:TrackPointExtension>
            <ns3:hr>113</ns3:hr>
            <ns3:cad>0</ns3:cad>
          </ns3:TrackPointExtension>
        </extensions>
      </trkpt>
      <trkpt lat="38.04728633724153041839599609375" lon="-106.94313657470047473907470703125">
        <ele>3850.800048828125</ele>
        <time>2026-05-25T12:55:45.000Z</time>
        <extensions>
          <ns3:TrackPointExtension>
            <ns3:hr>114</ns3:hr>
            <ns3:cad>0</ns3:cad>
          </ns3:TrackPointExtension>
        </extensions>
      </trkpt>
      <trkpt lat="38.04728097282350063323974609375" lon="-106.94313221611082553863525390625">
        <ele>3851</ele>
        <time>2026-05-25T12:55:46.000Z</time>
        <extensions>
          <ns3:TrackPointExtension>
            <ns3:hr>115</ns3:hr>
            <ns3:cad>0</ns3:cad>
          </ns3:TrackPointExtension>
        </extensions>
      </trkpt>
      <trkpt lat="38.0472704954445362091064453125" lon="-106.94312316365540027618408203125">
        <ele>3851.39990234375</ele>
        <time>2026-05-25T12:55:48.000Z</time>
        <extensions>
          <ns3:TrackPointExtension>
            <ns3:hr>119</ns3:hr>
            <ns3:cad>0</ns3:cad>
          </ns3:TrackPointExtension>
        </extensions>
      </trkpt>
      <trkpt lat="38.047250211238861083984375" lon="-106.943111680448055267333984375">
        <ele>3852.199951171875</ele>
        <time>2026-05-25T12:55:51.000Z</time>
        <extensions>
          <ns3:TrackPointExtension>
            <ns3:hr>120</ns3:hr>
            <ns3:cad>0</ns3:cad>
          </ns3:TrackPointExtension>
        </extensions>
      </trkpt>
      <trkpt lat="38.0472426675260066986083984375" lon="-106.9431081600487232208251953125">
        <ele>3852.800048828125</ele>
        <time>2026-05-25T12:55:53.000Z</time>
        <extensions>
          <ns3:TrackPointExtension>
            <ns3:hr>120</ns3:hr>
            <ns3:cad>0</ns3:cad>
          </ns3:TrackPointExtension>
        </extensions>
      </trkpt>
      <trkpt lat="38.04720930755138397216796875" lon="-106.94309030659496784210205078125">
        <ele>3853.199951171875</ele>
        <time>2026-05-25T12:55:56.000Z</time>
        <extensions>
          <ns3:TrackPointExtension>
            <ns3:hr>121</ns3:hr>
            <ns3:cad>0</ns3:cad>
          </ns3:TrackPointExtension>
        </extensions>
      </trkpt>
      <trkpt lat="38.0471782945096492767333984375" lon="-106.94307639263570308685302734375">
        <ele>3853.199951171875</ele>
        <time>2026-05-25T12:55:59.000Z</time>
        <extensions>
          <ns3:TrackPointExtension>
            <ns3:hr>121</ns3:hr>
            <ns3:cad>0</ns3:cad>
          </ns3:TrackPointExtension>
        </extensions>
      </trkpt>
      <trkpt lat="38.0471625365316867828369140625" lon="-106.94307035766541957855224609375">
        <ele>3853</ele>
        <time>2026-05-25T12:56:03.000Z</time>
        <extensions>
          <ns3:TrackPointExtension>
            <ns3:hr>118</ns3:hr>
            <ns3:cad>0</ns3:cad>
          </ns3:TrackPointExtension>
        </extensions>
      </trkpt>
      <trkpt lat="38.0471283383667469024658203125" lon="-106.94306868128478527069091796875">
        <ele>3854.39990234375</ele>
        <time>2026-05-25T12:56:08.000Z</time>
        <extensions>
          <ns3:TrackPointExtension>
            <ns3:hr>117</ns3:hr>
            <ns3:cad>0</ns3:cad>
          </ns3:TrackPointExtension>
        </extensions>
      </trkpt>
      <trkpt lat="38.0471159331500530242919921875" lon="-106.94306566379964351654052734375">
        <ele>3854.800048828125</ele>
        <time>2026-05-25T12:56:11.000Z</time>
        <extensions>
          <ns3:TrackPointExtension>
            <ns3:hr>120</ns3:hr>
            <ns3:cad>0</ns3:cad>
          </ns3:TrackPointExtension>
        </extensions>
      </trkpt>
      <trkpt lat="38.0471055395901203155517578125" lon="-106.94305493496358394622802734375">
        <ele>3855.39990234375</ele>
        <time>2026-05-25T12:56:15.000Z</time>
        <extensions>
          <ns3:TrackPointExtension>
            <ns3:hr>124</ns3:hr>
            <ns3:cad>0</ns3:cad>
          </ns3:TrackPointExtension>
        </extensions>
      </trkpt>
      <trkpt lat="38.04708869196474552154541015625" lon="-106.94304621778428554534912109375">
        <ele>3855.60009765625</ele>
        <time>2026-05-25T12:56:16.000Z</time>
        <extensions>
          <ns3:TrackPointExtension>
            <ns3:hr>125</ns3:hr>
            <ns3:cad>0</ns3:cad>
          </ns3:TrackPointExtension>
        </extensions>
      </trkpt>
      <trkpt lat="38.04708450101315975189208984375" lon="-106.9430468045175075531005859375">
        <ele>3855.800048828125</ele>
        <time>2026-05-25T12:56:17.000Z</time>
        <extensions>
          <ns3:TrackPointExtension>
            <ns3:hr>125</ns3:hr>
            <ns3:cad>0</ns3:cad>
          </ns3:TrackPointExtension>
        </extensions>
      </trkpt>
      <trkpt lat="38.0470653064548969268798828125" lon="-106.94305007345974445343017578125">
        <ele>3856.60009765625</ele>
        <time>2026-05-25T12:56:21.000Z</time>
        <extensions>
          <ns3:TrackPointExtension>
            <ns3:hr>127</ns3:hr>
            <ns3:cad>0</ns3:cad>
          </ns3:TrackPointExtension>
        </extensions>
      </trkpt>
      <trkpt lat="38.04705834947526454925537109375" lon="-106.9430461339652538299560546875">
        <ele>3856.60009765625</ele>
        <time>2026-05-25T12:56:22.000Z</time>
        <extensions>
          <ns3:TrackPointExtension>
            <ns3:hr>126</ns3:hr>
            <ns3:cad>0</ns3:cad>
          </ns3:TrackPointExtension>
        </extensions>
      </trkpt>
      <trkpt lat="38.04704359732568264007568359375" lon="-106.9430421106517314910888671875">
        <ele>3856.800048828125</ele>
        <time>2026-05-25T12:56:25.000Z</time>
        <extensions>
          <ns3:TrackPointExtension>
            <ns3:hr>123</ns3:hr>
            <ns3:cad>0</ns3:cad>
          </ns3:TrackPointExtension>
        </extensions>
      </trkpt>
      <trkpt lat="38.04701476357877254486083984375" lon="-106.94302492775022983551025390625">
        <ele>3857.60009765625</ele>
        <time>2026-05-25T12:56:29.000Z</time>
        <extensions>
          <ns3:TrackPointExtension>
            <ns3:hr>124</ns3:hr>
            <ns3:cad>0</ns3:cad>
          </ns3:TrackPointExtension>
        </extensions>
      </trkpt>
      <trkpt lat="38.04700956679880619049072265625" lon="-106.94301989860832691192626953125">
        <ele>3857.800048828125</ele>
        <time>2026-05-25T12:56:30.000Z</time>
        <extensions>
          <ns3:TrackPointExtension>
            <ns3:hr>124</ns3:hr>
            <ns3:cad>79</ns3:cad>
          </ns3:TrackPointExtension>
        </extensions>
      </trkpt>
      <trkpt lat="38.046981990337371826171875" lon="-106.9429985247552394866943359375">
        <ele>3858.39990234375</ele>
        <time>2026-05-25T12:56:34.000Z</time>
        <extensions>
          <ns3:TrackPointExtension>
            <ns3:hr>125</ns3:hr>
            <ns3:cad>0</ns3:cad>
          </ns3:TrackPointExtension>
        </extensions>
      </trkpt>
      <trkpt lat="38.04696816019713878631591796875" lon="-106.94298402406275272369384765625">
        <ele>3859.199951171875</ele>
        <time>2026-05-25T12:56:38.000Z</time>
        <extensions>
          <ns3:TrackPointExtension>
            <ns3:hr>124</ns3:hr>
            <ns3:cad>0</ns3:cad>
          </ns3:TrackPointExtension>
        </extensions>
      </trkpt>
      <trkpt lat="38.04695558734238147735595703125" lon="-106.94297983311116695404052734375">
        <ele>3859.800048828125</ele>
        <time>2026-05-25T12:56:40.000Z</time>
        <extensions>
          <ns3:TrackPointExtension>
            <ns3:hr>124</ns3:hr>
            <ns3:cad>0</ns3:cad>
          </ns3:TrackPointExtension>
        </extensions>
      </trkpt>
      <trkpt lat="38.04694854654371738433837890625" lon="-106.94297916255891323089599609375">
        <ele>3860.199951171875</ele>
        <time>2026-05-25T12:56:41.000Z</time>
        <extensions>
          <ns3:TrackPointExtension>
            <ns3:hr>124</ns3:hr>
            <ns3:cad>0</ns3:cad>
          </ns3:TrackPointExtension>
        </extensions>
      </trkpt>
      <trkpt lat="38.0469415895640850067138671875" lon="-106.94297832436859607696533203125">
        <ele>3860.199951171875</ele>
        <time>2026-05-25T12:56:47.000Z</time>
        <extensions>
          <ns3:TrackPointExtension>
            <ns3:hr>122</ns3:hr>
            <ns3:cad>0</ns3:cad>
          </ns3:TrackPointExtension>
        </extensions>
      </trkpt>
      <trkpt lat="38.0469368956983089447021484375" lon="-106.942975558340549468994140625">
        <ele>3860.199951171875</ele>
        <time>2026-05-25T12:56:48.000Z</time>
        <extensions>
          <ns3:TrackPointExtension>
            <ns3:hr>122</ns3:hr>
            <ns3:cad>0</ns3:cad>
          </ns3:TrackPointExtension>
        </extensions>
      </trkpt>
      <trkpt lat="38.04692239500582218170166015625" lon="-106.9429609738290309906005859375">
        <ele>3861.199951171875</ele>
        <time>2026-05-25T12:56:51.000Z</time>
        <extensions>
          <ns3:TrackPointExtension>
            <ns3:hr>123</ns3:hr>
            <ns3:cad>0</ns3:cad>
          </ns3:TrackPointExtension>
        </extensions>
      </trkpt>
      <trkpt lat="38.0469197966158390045166015625" lon="-106.94295502267777919769287109375">
        <ele>3862</ele>
        <time>2026-05-25T12:56:53.000Z</time>
        <extensions>
          <ns3:TrackPointExtension>
            <ns3:hr>127</ns3:hr>
            <ns3:cad>0</ns3:cad>
          </ns3:TrackPointExtension>
        </extensions>
      </trkpt>
      <trkpt lat="38.0469197966158390045166015625" lon="-106.94295502267777919769287109375">
        <ele>3862.39990234375</ele>
        <time>2026-05-25T12:56:54.000Z</time>
        <extensions>
          <ns3:TrackPointExtension>
            <ns3:hr>130</ns3:hr>
            <ns3:cad>0</ns3:cad>
          </ns3:TrackPointExtension>
        </extensions>
      </trkpt>
      <trkpt lat="38.0469127558171749114990234375" lon="-106.942948400974273681640625">
        <ele>3862.60009765625</ele>
        <time>2026-05-25T12:56:55.000Z</time>
        <extensions>
          <ns3:TrackPointExtension>
            <ns3:hr>130</ns3:hr>
            <ns3:cad>0</ns3:cad>
          </ns3:TrackPointExtension>
        </extensions>
      </trkpt>
      <trkpt lat="38.0469037033617496490478515625" lon="-106.942945383489131927490234375">
        <ele>3862.800048828125</ele>
        <time>2026-05-25T12:56:57.000Z</time>
        <extensions>
          <ns3:TrackPointExtension>
            <ns3:hr>133</ns3:hr>
            <ns3:cad>0</ns3:cad>
          </ns3:TrackPointExtension>
        </extensions>
      </trkpt>
      <trkpt lat="38.04688886739313602447509765625" lon="-106.94294127635657787322998046875">
        <ele>3863.199951171875</ele>
        <time>2026-05-25T12:57:00.000Z</time>
        <extensions>
          <ns3:TrackPointExtension>
            <ns3:hr>135</ns3:hr>
            <ns3:cad>0</ns3:cad>
          </ns3:TrackPointExtension>
        </extensions>
      </trkpt>
      <trkpt lat="38.04687269032001495361328125" lon="-106.94293540902435779571533203125">
        <ele>3863.39990234375</ele>
        <time>2026-05-25T12:57:03.000Z</time>
        <extensions>
          <ns3:TrackPointExtension>
            <ns3:hr>135</ns3:hr>
            <ns3:cad>0</ns3:cad>
          </ns3:TrackPointExtension>
        </extensions>
      </trkpt>
      <trkpt lat="38.046854250133037567138671875" lon="-106.94293498992919921875">
        <ele>3863.60009765625</ele>
        <time>2026-05-25T12:57:07.000Z</time>
        <extensions>
          <ns3:TrackPointExtension>
            <ns3:hr>137</ns3:hr>
            <ns3:cad>0</ns3:cad>
          </ns3:TrackPointExtension>
        </extensions>
      </trkpt>
      <trkpt lat="38.04683513939380645751953125" lon="-106.9429160468280315399169921875">
        <ele>3864.39990234375</ele>
        <time>2026-05-25T12:57:12.000Z</time>
        <extensions>
          <ns3:TrackPointExtension>
            <ns3:hr>136</ns3:hr>
            <ns3:cad>0</ns3:cad>
          </ns3:TrackPointExtension>
        </extensions>
      </trkpt>
      <trkpt lat="38.04683136753737926483154296875" lon="-106.9429133646190166473388671875">
        <ele>3864.60009765625</ele>
        <time>2026-05-25T12:57:13.000Z</time>
        <extensions>
          <ns3:TrackPointExtension>
            <ns3:hr>137</ns3:hr>
            <ns3:cad>0</ns3:cad>
          </ns3:TrackPointExtension>
        </extensions>
      </trkpt>
      <trkpt lat="38.04682038724422454833984375" lon="-106.94289953447878360748291015625">
        <ele>3865</ele>
        <time>2026-05-25T12:57:17.000Z</time>
        <extensions>
          <ns3:TrackPointExtension>
            <ns3:hr>133</ns3:hr>
            <ns3:cad>0</ns3:cad>
          </ns3:TrackPointExtension>
        </extensions>
      </trkpt>
      <trkpt lat="38.04681477136909961700439453125" lon="-106.94289769046008586883544921875">
        <ele>3865.199951171875</ele>
        <time>2026-05-25T12:57:18.000Z</time>
        <extensions>
          <ns3:TrackPointExtension>
            <ns3:hr>130</ns3:hr>
            <ns3:cad>0</ns3:cad>
          </ns3:TrackPointExtension>
        </extensions>
      </trkpt>
      <trkpt lat="38.04681678302586078643798828125" lon="-106.94290204904973506927490234375">
        <ele>3865.199951171875</ele>
        <time>2026-05-25T12:57:19.000Z</time>
        <extensions>
          <ns3:TrackPointExtension>
            <ns3:hr>127</ns3:hr>
            <ns3:cad>0</ns3:cad>
          </ns3:TrackPointExtension>
        </extensions>
      </trkpt>
      <trkpt lat="38.04682172834873199462890625" lon="-106.94290506653487682342529296875">
        <ele>3865.39990234375</ele>
        <time>2026-05-25T12:57:20.000Z</time>
        <extensions>
          <ns3:TrackPointExtension>
            <ns3:hr>126</ns3:hr>
            <ns3:cad>0</ns3:cad>
          </ns3:TrackPointExtension>
        </extensions>
      </trkpt>
      <trkpt lat="38.0468235723674297332763671875" lon="-106.94290573708713054656982421875">
        <ele>3865.60009765625</ele>
        <time>2026-05-25T12:57:21.000Z</time>
        <extensions>
          <ns3:TrackPointExtension>
            <ns3:hr>126</ns3:hr>
            <ns3:cad>0</ns3:cad>
          </ns3:TrackPointExtension>
        </extensions>
      </trkpt>
      <trkpt lat="38.04682348854839801788330078125" lon="-106.94290573708713054656982421875">
        <ele>3865.39990234375</ele>
        <time>2026-05-25T12:57:25.000Z</time>
        <extensions>
          <ns3:TrackPointExtension>
            <ns3:hr>123</ns3:hr>
            <ns3:cad>0</ns3:cad>
          </ns3:TrackPointExtension>
        </extensions>
      </trkpt>
      <trkpt lat="38.04682348854839801788330078125" lon="-106.94290573708713054656982421875">
        <ele>3865.39990234375</ele>
        <time>2026-05-25T12:57:31.000Z</time>
        <extensions>
          <ns3:TrackPointExtension>
            <ns3:hr>121</ns3:hr>
            <ns3:cad>0</ns3:cad>
          </ns3:TrackPointExtension>
        </extensions>
      </trkpt>
      <trkpt lat="38.0468212254345417022705078125" lon="-106.9429043121635913848876953125">
        <ele>3865.199951171875</ele>
        <time>2026-05-25T12:57:35.000Z</time>
        <extensions>
          <ns3:TrackPointExtension>
            <ns3:hr>124</ns3:hr>
            <ns3:cad>0</ns3:cad>
          </ns3:TrackPointExtension>
        </extensions>
      </trkpt>
      <trkpt lat="38.0467917211353778839111328125" lon="-106.94288897328078746795654296875">
        <ele>3866</ele>
        <time>2026-05-25T12:57:39.000Z</time>
        <extensions>
          <ns3:TrackPointExtension>
            <ns3:hr>123</ns3:hr>
            <ns3:cad>0</ns3:cad>
          </ns3:TrackPointExtension>
        </extensions>
      </trkpt>
      <trkpt lat="38.04677135311067104339599609375" lon="-106.94287288002669811248779296875">
        <ele>3866.60009765625</ele>
        <time>2026-05-25T12:57:43.000Z</time>
        <extensions>
          <ns3:TrackPointExtension>
            <ns3:hr>122</ns3:hr>
            <ns3:cad>0</ns3:cad>
          </ns3:TrackPointExtension>
        </extensions>
      </trkpt>
      <trkpt lat="38.04676431231200695037841796875" lon="-106.94287355057895183563232421875">
        <ele>3867</ele>
        <time>2026-05-25T12:57:46.000Z</time>
        <extensions>
          <ns3:TrackPointExtension>
            <ns3:hr>122</ns3:hr>
            <ns3:cad>0</ns3:cad>
          </ns3:TrackPointExtension>
        </extensions>
      </trkpt>
      <trkpt lat="38.04674126207828521728515625" lon="-106.942866258323192596435546875">
        <ele>3867.60009765625</ele>
        <time>2026-05-25T12:57:49.000Z</time>
        <extensions>
          <ns3:TrackPointExtension>
            <ns3:hr>123</ns3:hr>
            <ns3:cad>0</ns3:cad>
          </ns3:TrackPointExtension>
        </extensions>
      </trkpt>
      <trkpt lat="38.0467333830893039703369140625" lon="-106.94286189973354339599609375">
        <ele>3867.800048828125</ele>
        <time>2026-05-25T12:57:52.000Z</time>
        <extensions>
          <ns3:TrackPointExtension>
            <ns3:hr>125</ns3:hr>
            <ns3:cad>0</ns3:cad>
          </ns3:TrackPointExtension>
        </extensions>
      </trkpt>
      <trkpt lat="38.04670748300850391387939453125" lon="-106.9428506679832935333251953125">
        <ele>3868.39990234375</ele>
        <time>2026-05-25T12:57:58.000Z</time>
        <extensions>
          <ns3:TrackPointExtension>
            <ns3:hr>129</ns3:hr>
            <ns3:cad>0</ns3:cad>
          </ns3:TrackPointExtension>
        </extensions>
      </trkpt>
      <trkpt lat="38.04670781828463077545166015625" lon="-106.9428478181362152099609375">
        <ele>3868.60009765625</ele>
        <time>2026-05-25T12:57:59.000Z</time>
        <extensions>
          <ns3:TrackPointExtension>
            <ns3:hr>130</ns3:hr>
            <ns3:cad>0</ns3:cad>
          </ns3:TrackPointExtension>
        </extensions>
      </trkpt>
      <trkpt lat="38.04670144803822040557861328125" lon="-106.942837424576282501220703125">
        <ele>3869</ele>
        <time>2026-05-25T12:58:00.000Z</time>
        <extensions>
          <ns3:TrackPointExtension>
            <ns3:hr>131</ns3:hr>
            <ns3:cad>0</ns3:cad>
          </ns3:TrackPointExtension>
        </extensions>
      </trkpt>
      <trkpt lat="38.04668493568897247314453125" lon="-106.942821331322193145751953125">
        <ele>3870.199951171875</ele>
        <time>2026-05-25T12:58:03.000Z</time>
        <extensions>
          <ns3:TrackPointExtension>
            <ns3:hr>130</ns3:hr>
            <ns3:cad>0</ns3:cad>
          </ns3:TrackPointExtension>
        </extensions>
      </trkpt>
      <trkpt lat="38.046669848263263702392578125" lon="-106.94280817173421382904052734375">
        <ele>3870.60009765625</ele>
        <time>2026-05-25T12:58:05.000Z</time>
        <extensions>
          <ns3:TrackPointExtension>
            <ns3:hr>132</ns3:hr>
            <ns3:cad>0</ns3:cad>
          </ns3:TrackPointExtension>
        </extensions>
      </trkpt>
      <trkpt lat="38.04663824848830699920654296875" lon="-106.94278805516660213470458984375">
        <ele>3871.199951171875</ele>
        <time>2026-05-25T12:58:11.000Z</time>
        <extensions>
          <ns3:TrackPointExtension>
            <ns3:hr>133</ns3:hr>
            <ns3:cad>0</ns3:cad>
          </ns3:TrackPointExtension>
        </extensions>
      </trkpt>
      <trkpt lat="38.04663539864122867584228515625" lon="-106.94278889335691928863525390625">
        <ele>3871.800048828125</ele>
        <time>2026-05-25T12:58:13.000Z</time>
        <extensions>
          <ns3:TrackPointExtension>
            <ns3:hr>133</ns3:hr>
            <ns3:cad>0</ns3:cad>
          </ns3:TrackPointExtension>
        </extensions>
      </trkpt>
      <trkpt lat="38.04662031121551990509033203125" lon="-106.94278151728212833404541015625">
        <ele>3872.39990234375</ele>
        <time>2026-05-25T12:58:16.000Z</time>
        <extensions>
          <ns3:TrackPointExtension>
            <ns3:hr>132</ns3:hr>
            <ns3:cad>0</ns3:cad>
          </ns3:TrackPointExtension>
        </extensions>
      </trkpt>
      <trkpt lat="38.0466036312282085418701171875" lon="-106.942763663828372955322265625">
        <ele>3873</ele>
        <time>2026-05-25T12:58:19.000Z</time>
        <extensions>
          <ns3:TrackPointExtension>
            <ns3:hr>131</ns3:hr>
            <ns3:cad>0</ns3:cad>
          </ns3:TrackPointExtension>
        </extensions>
      </trkpt>
      <trkpt lat="38.0465902201831340789794921875" lon="-106.94276290945708751678466796875">
        <ele>3873.60009765625</ele>
        <time>2026-05-25T12:58:22.000Z</time>
        <extensions>
          <ns3:TrackPointExtension>
            <ns3:hr>126</ns3:hr>
            <ns3:cad>0</ns3:cad>
          </ns3:TrackPointExtension>
        </extensions>
      </trkpt>
      <trkpt lat="38.0465902201831340789794921875" lon="-106.94276290945708751678466796875">
        <ele>3873.800048828125</ele>
        <time>2026-05-25T12:58:23.000Z</time>
        <extensions>
          <ns3:TrackPointExtension>
            <ns3:hr>123</ns3:hr>
            <ns3:cad>0</ns3:cad>
          </ns3:TrackPointExtension>
        </extensions>
      </trkpt>
      <trkpt lat="38.04658460430800914764404296875" lon="-106.94276173599064350128173828125">
        <ele>3874</ele>
        <time>2026-05-25T12:58:24.000Z</time>
        <extensions>
          <ns3:TrackPointExtension>
            <ns3:hr>120</ns3:hr>
            <ns3:cad>0</ns3:cad>
          </ns3:TrackPointExtension>
        </extensions>
      </trkpt>
      <trkpt lat="38.046570606529712677001953125" lon="-106.942755281925201416015625">
        <ele>3874.60009765625</ele>
        <time>2026-05-25T12:58:27.000Z</time>
        <extensions>
          <ns3:TrackPointExtension>
            <ns3:hr>117</ns3:hr>
            <ns3:cad>0</ns3:cad>
          </ns3:TrackPointExtension>
        </extensions>
      </trkpt>
      <trkpt lat="38.0465690977871417999267578125" lon="-106.94275335408747196197509765625">
        <ele>3874.800048828125</ele>
        <time>2026-05-25T12:58:28.000Z</time>
        <extensions>
          <ns3:TrackPointExtension>
            <ns3:hr>117</ns3:hr>
            <ns3:cad>0</ns3:cad>
          </ns3:TrackPointExtension>
        </extensions>
      </trkpt>
      <trkpt lat="38.046542443335056304931640625" lon="-106.9427430443465709686279296875">
        <ele>3875.39990234375</ele>
        <time>2026-05-25T12:58:34.000Z</time>
        <extensions>
          <ns3:TrackPointExtension>
            <ns3:hr>117</ns3:hr>
            <ns3:cad>0</ns3:cad>
          </ns3:TrackPointExtension>
        </extensions>
      </trkpt>
      <trkpt lat="38.04653481580317020416259765625" lon="-106.94273659028112888336181640625">
        <ele>3875.800048828125</ele>
        <time>2026-05-25T12:58:36.000Z</time>
        <extensions>
          <ns3:TrackPointExtension>
            <ns3:hr>118</ns3:hr>
            <ns3:cad>0</ns3:cad>
          </ns3:TrackPointExtension>
        </extensions>
      </trkpt>
      <trkpt lat="38.04652190767228603363037109375" lon="-106.9427313096821308135986328125">
        <ele>3876.39990234375</ele>
        <time>2026-05-25T12:58:38.000Z</time>
        <extensions>
          <ns3:TrackPointExtension>
            <ns3:hr>122</ns3:hr>
            <ns3:cad>0</ns3:cad>
          </ns3:TrackPointExtension>
        </extensions>
      </trkpt>
      <trkpt lat="38.04651587270200252532958984375" lon="-106.9427282921969890594482421875">
        <ele>3876.800048828125</ele>
        <time>2026-05-25T12:58:40.000Z</time>
        <extensions>
          <ns3:TrackPointExtension>
            <ns3:hr>124</ns3:hr>
            <ns3:cad>0</ns3:cad>
          </ns3:TrackPointExtension>
        </extensions>
      </trkpt>
      <trkpt lat="38.04650514386594295501708984375" lon="-106.94272510707378387451171875">
        <ele>3876.800048828125</ele>
        <time>2026-05-25T12:58:43.000Z</time>
        <extensions>
          <ns3:TrackPointExtension>
            <ns3:hr>124</ns3:hr>
            <ns3:cad>0</ns3:cad>
          </ns3:TrackPointExtension>
        </extensions>
      </trkpt>
      <trkpt lat="38.04645569063723087310791015625" lon="-106.9427128694951534271240234375">
        <ele>3877.800048828125</ele>
        <time>2026-05-25T12:58:49.000Z</time>
        <extensions>
          <ns3:TrackPointExtension>
            <ns3:hr>124</ns3:hr>
            <ns3:cad>0</ns3:cad>
          </ns3:TrackPointExtension>
        </extensions>
      </trkpt>
      <trkpt lat="38.0464467220008373260498046875" lon="-106.94271194748580455780029296875">
        <ele>3878</ele>
        <time>2026-05-25T12:58:50.000Z</time>
        <extensions>
          <ns3:TrackPointExtension>
            <ns3:hr>123</ns3:hr>
            <ns3:cad>0</ns3:cad>
          </ns3:TrackPointExtension>
        </extensions>
      </trkpt>
      <trkpt lat="38.0464021302759647369384765625" lon="-106.94270876236259937286376953125">
        <ele>3878.800048828125</ele>
        <time>2026-05-25T12:58:56.000Z</time>
        <extensions>
          <ns3:TrackPointExtension>
            <ns3:hr>122</ns3:hr>
            <ns3:cad>0</ns3:cad>
          </ns3:TrackPointExtension>
        </extensions>
      </trkpt>
      <trkpt lat="38.0463927425444126129150390625" lon="-106.94271840155124664306640625">
        <ele>3879</ele>
        <time>2026-05-25T12:58:59.000Z</time>
        <extensions>
          <ns3:TrackPointExtension>
            <ns3:hr>120</ns3:hr>
            <ns3:cad>0</ns3:cad>
          </ns3:TrackPointExtension>
        </extensions>
      </trkpt>
      <trkpt lat="38.04637790657579898834228515625" lon="-106.9427217543125152587890625">
        <ele>3879</ele>
        <time>2026-05-25T12:59:02.000Z</time>
        <extensions>
          <ns3:TrackPointExtension>
            <ns3:hr>116</ns3:hr>
            <ns3:cad>0</ns3:cad>
          </ns3:TrackPointExtension>
        </extensions>
      </trkpt>
      <trkpt lat="38.0463729612529277801513671875" lon="-106.94272183813154697418212890625">
        <ele>3879.199951171875</ele>
        <time>2026-05-25T12:59:04.000Z</time>
        <extensions>
          <ns3:TrackPointExtension>
            <ns3:hr>115</ns3:hr>
            <ns3:cad>0</ns3:cad>
          </ns3:TrackPointExtension>
        </extensions>
      </trkpt>
      <trkpt lat="38.0463568679988384246826171875" lon="-106.9427002966403961181640625">
        <ele>3880</ele>
        <time>2026-05-25T12:59:07.000Z</time>
        <extensions>
          <ns3:TrackPointExtension>
            <ns3:hr>115</ns3:hr>
            <ns3:cad>0</ns3:cad>
          </ns3:TrackPointExtension>
        </extensions>
      </trkpt>
      <trkpt lat="38.04634588770568370819091796875" lon="-106.9426924176514148712158203125">
        <ele>3880.60009765625</ele>
        <time>2026-05-25T12:59:09.000Z</time>
        <extensions>
          <ns3:TrackPointExtension>
            <ns3:hr>115</ns3:hr>
            <ns3:cad>0</ns3:cad>
          </ns3:TrackPointExtension>
        </extensions>
      </trkpt>
      <trkpt lat="38.04631889797747135162353515625" lon="-106.9426894001662731170654296875">
        <ele>3881</ele>
        <time>2026-05-25T12:59:12.000Z</time>
        <extensions>
          <ns3:TrackPointExtension>
            <ns3:hr>114</ns3:hr>
            <ns3:cad>0</ns3:cad>
          </ns3:TrackPointExtension>
        </extensions>
      </trkpt>
      <trkpt lat="38.04629928432404994964599609375" lon="-106.9426842033863067626953125">
        <ele>3881.39990234375</ele>
        <time>2026-05-25T12:59:16.000Z</time>
        <extensions>
          <ns3:TrackPointExtension>
            <ns3:hr>116</ns3:hr>
            <ns3:cad>0</ns3:cad>
          </ns3:TrackPointExtension>
        </extensions>
      </trkpt>
      <trkpt lat="38.0462618172168731689453125" lon="-106.9426773302257061004638671875">
        <ele>3881.800048828125</ele>
        <time>2026-05-25T12:59:21.000Z</time>
        <extensions>
          <ns3:TrackPointExtension>
            <ns3:hr>119</ns3:hr>
            <ns3:cad>0</ns3:cad>
          </ns3:TrackPointExtension>
        </extensions>
      </trkpt>
      <trkpt lat="38.04625771008431911468505859375" lon="-106.942677162587642669677734375">
        <ele>3882</ele>
        <time>2026-05-25T12:59:22.000Z</time>
        <extensions>
          <ns3:TrackPointExtension>
            <ns3:hr>119</ns3:hr>
            <ns3:cad>79</ns3:cad>
          </ns3:TrackPointExtension>
        </extensions>
      </trkpt>
      <trkpt lat="38.04625771008431911468505859375" lon="-106.942677162587642669677734375">
        <ele>3882.199951171875</ele>
        <time>2026-05-25T12:59:23.000Z</time>
        <extensions>
          <ns3:TrackPointExtension>
            <ns3:hr>119</ns3:hr>
            <ns3:cad>79</ns3:cad>
          </ns3:TrackPointExtension>
        </extensions>
      </trkpt>
      <trkpt lat="38.04623524658381938934326171875" lon="-106.942672468721866607666015625">
        <ele>3882.800048828125</ele>
        <time>2026-05-25T12:59:28.000Z</time>
        <extensions>
          <ns3:TrackPointExtension>
            <ns3:hr>124</ns3:hr>
            <ns3:cad>79</ns3:cad>
          </ns3:TrackPointExtension>
        </extensions>
      </trkpt>
      <trkpt lat="38.04621613584458827972412109375" lon="-106.942660398781299591064453125">
        <ele>3883.39990234375</ele>
        <time>2026-05-25T12:59:30.000Z</time>
        <extensions>
          <ns3:TrackPointExtension>
            <ns3:hr>127</ns3:hr>
            <ns3:cad>0</ns3:cad>
          </ns3:TrackPointExtension>
        </extensions>
      </trkpt>
      <trkpt lat="38.04620909504592418670654296875" lon="-106.94265897385776042938232421875">
        <ele>3883.60009765625</ele>
        <time>2026-05-25T12:59:33.000Z</time>
        <extensions>
          <ns3:TrackPointExtension>
            <ns3:hr>129</ns3:hr>
            <ns3:cad>0</ns3:cad>
          </ns3:TrackPointExtension>
        </extensions>
      </trkpt>
      <trkpt lat="38.04617154411971569061279296875" lon="-106.94264640100300312042236328125">
        <ele>3884.39990234375</ele>
        <time>2026-05-25T12:59:39.000Z</time>
        <extensions>
          <ns3:TrackPointExtension>
            <ns3:hr>128</ns3:hr>
            <ns3:cad>0</ns3:cad>
          </ns3:TrackPointExtension>
        </extensions>
      </trkpt>
      <trkpt lat="38.04615528322756290435791015625" lon="-106.94263659417629241943359375">
        <ele>3885.199951171875</ele>
        <time>2026-05-25T12:59:44.000Z</time>
        <extensions>
          <ns3:TrackPointExtension>
            <ns3:hr>129</ns3:hr>
            <ns3:cad>0</ns3:cad>
          </ns3:TrackPointExtension>
        </extensions>
      </trkpt>
      <trkpt lat="38.04615117609500885009765625" lon="-106.94263366051018238067626953125">
        <ele>3885.39990234375</ele>
        <time>2026-05-25T12:59:45.000Z</time>
        <extensions>
          <ns3:TrackPointExtension>
            <ns3:hr>128</ns3:hr>
            <ns3:cad>0</ns3:cad>
          </ns3:TrackPointExtension>
        </extensions>
      </trkpt>
      <trkpt lat="38.046137429773807525634765625" lon="-106.942608095705509185791015625">
        <ele>3886</ele>
        <time>2026-05-25T12:59:50.000Z</time>
        <extensions>
          <ns3:TrackPointExtension>
            <ns3:hr>127</ns3:hr>
            <ns3:cad>0</ns3:cad>
          </ns3:TrackPointExtension>
        </extensions>
      </trkpt>
      <trkpt lat="38.0461228452622890472412109375" lon="-106.94258990697562694549560546875">
        <ele>3886.60009765625</ele>
        <time>2026-05-25T12:59:54.000Z</time>
        <extensions>
          <ns3:TrackPointExtension>
            <ns3:hr>125</ns3:hr>
            <ns3:cad>0</ns3:cad>
          </ns3:TrackPointExtension>
        </extensions>
      </trkpt>
      <trkpt lat="38.0461131222546100616455078125" lon="-106.9425821118056774139404296875">
        <ele>3887.39990234375</ele>
        <time>2026-05-25T12:59:57.000Z</time>
        <extensions>
          <ns3:TrackPointExtension>
            <ns3:hr>125</ns3:hr>
            <ns3:cad>0</ns3:cad>
          </ns3:TrackPointExtension>
        </extensions>
      </trkpt>
      <trkpt lat="38.04610691964626312255859375" lon="-106.9425784237682819366455078125">
        <ele>3887.60009765625</ele>
        <time>2026-05-25T12:59:58.000Z</time>
        <extensions>
          <ns3:TrackPointExtension>
            <ns3:hr>125</ns3:hr>
            <ns3:cad>0</ns3:cad>
          </ns3:TrackPointExtension>
        </extensions>
      </trkpt>
      <trkpt lat="38.04605972953140735626220703125" lon="-106.94256794638931751251220703125">
        <ele>3888.800048828125</ele>
        <time>2026-05-25T13:00:03.000Z</time>
        <extensions>
          <ns3:TrackPointExtension>
            <ns3:hr>127</ns3:hr>
            <ns3:cad>0</ns3:cad>
          </ns3:TrackPointExtension>
        </extensions>
      </trkpt>
      <trkpt lat="38.046056292951107025146484375" lon="-106.94256844930350780487060546875">
        <ele>3889</ele>
        <time>2026-05-25T13:00:04.000Z</time>
        <extensions>
          <ns3:TrackPointExtension>
            <ns3:hr>127</ns3:hr>
            <ns3:cad>0</ns3:cad>
          </ns3:TrackPointExtension>
        </extensions>
      </trkpt>
      <trkpt lat="38.04602083750069141387939453125" lon="-106.9425720535218715667724609375">
        <ele>3890</ele>
        <time>2026-05-25T13:00:09.000Z</time>
        <extensions>
          <ns3:TrackPointExtension>
            <ns3:hr>128</ns3:hr>
            <ns3:cad>0</ns3:cad>
          </ns3:TrackPointExtension>
        </extensions>
      </trkpt>
      <trkpt lat="38.0460177361965179443359375" lon="-106.94257213734090328216552734375">
        <ele>3890</ele>
        <time>2026-05-25T13:00:10.000Z</time>
        <extensions>
          <ns3:TrackPointExtension>
            <ns3:hr>129</ns3:hr>
            <ns3:cad>45</ns3:cad>
          </ns3:TrackPointExtension>
        </extensions>
      </trkpt>
      <trkpt lat="38.0459971167147159576416015625" lon="-106.94257213734090328216552734375">
        <ele>3890.800048828125</ele>
        <time>2026-05-25T13:00:16.000Z</time>
        <extensions>
          <ns3:TrackPointExtension>
            <ns3:hr>129</ns3:hr>
            <ns3:cad>0</ns3:cad>
          </ns3:TrackPointExtension>
        </extensions>
      </trkpt>
      <trkpt lat="38.04599619470536708831787109375" lon="-106.94257666356861591339111328125">
        <ele>3891</ele>
        <time>2026-05-25T13:00:18.000Z</time>
        <extensions>
          <ns3:TrackPointExtension>
            <ns3:hr>130</ns3:hr>
            <ns3:cad>0</ns3:cad>
          </ns3:TrackPointExtension>
        </extensions>
      </trkpt>
      <trkpt lat="38.04598881863057613372802734375" lon="-106.94256995804607868194580078125">
        <ele>3891.39990234375</ele>
        <time>2026-05-25T13:00:21.000Z</time>
        <extensions>
          <ns3:TrackPointExtension>
            <ns3:hr>132</ns3:hr>
            <ns3:cad>0</ns3:cad>
          </ns3:TrackPointExtension>
        </extensions>
      </trkpt>
      <trkpt lat="38.04598043672740459442138671875" lon="-106.942560486495494842529296875">
        <ele>3892</ele>
        <time>2026-05-25T13:00:26.000Z</time>
        <extensions>
          <ns3:TrackPointExtension>
            <ns3:hr>134</ns3:hr>
            <ns3:cad>0</ns3:cad>
          </ns3:TrackPointExtension>
        </extensions>
      </trkpt>
      <trkpt lat="38.0459739826619625091552734375" lon="-106.9425559602677822113037109375">
        <ele>3892.199951171875</ele>
        <time>2026-05-25T13:00:27.000Z</time>
        <extensions>
          <ns3:TrackPointExtension>
            <ns3:hr>134</ns3:hr>
            <ns3:cad>0</ns3:cad>
          </ns3:TrackPointExtension>
        </extensions>
      </trkpt>
      <trkpt lat="38.04595545865595340728759765625" lon="-106.9425288029015064239501953125">
        <ele>3892.800048828125</ele>
        <time>2026-05-25T13:00:31.000Z</time>
        <extensions>
          <ns3:TrackPointExtension>
            <ns3:hr>137</ns3:hr>
            <ns3:cad>0</ns3:cad>
          </ns3:TrackPointExtension>
        </extensions>
      </trkpt>
      <trkpt lat="38.04593852721154689788818359375" lon="-106.942511536180973052978515625">
        <ele>3893</ele>
        <time>2026-05-25T13:00:34.000Z</time>
        <extensions>
          <ns3:TrackPointExtension>
            <ns3:hr>138</ns3:hr>
            <ns3:cad>0</ns3:cad>
          </ns3:TrackPointExtension>
        </extensions>
      </trkpt>
      <trkpt lat="38.0459039099514484405517578125" lon="-106.9424966163933277130126953125">
        <ele>3894.199951171875</ele>
        <time>2026-05-25T13:00:40.000Z</time>
        <extensions>
          <ns3:TrackPointExtension>
            <ns3:hr>138</ns3:hr>
            <ns3:cad>0</ns3:cad>
          </ns3:TrackPointExtension>
        </extensions>
      </trkpt>
      <trkpt lat="38.0459039099514484405517578125" lon="-106.9424966163933277130126953125">
        <ele>3894.39990234375</ele>
        <time>2026-05-25T13:00:41.000Z</time>
        <extensions>
          <ns3:TrackPointExtension>
            <ns3:hr>139</ns3:hr>
            <ns3:cad>0</ns3:cad>
          </ns3:TrackPointExtension>
        </extensions>
      </trkpt>
      <trkpt lat="38.045882284641265869140625" lon="-106.94250726141035556793212890625">
        <ele>3895.199951171875</ele>
        <time>2026-05-25T13:00:45.000Z</time>
        <extensions>
          <ns3:TrackPointExtension>
            <ns3:hr>136</ns3:hr>
            <ns3:cad>0</ns3:cad>
          </ns3:TrackPointExtension>
        </extensions>
      </trkpt>
      <trkpt lat="38.04586417973041534423828125" lon="-106.942510195076465606689453125">
        <ele>3895.60009765625</ele>
        <time>2026-05-25T13:00:48.000Z</time>
        <extensions>
          <ns3:TrackPointExtension>
            <ns3:hr>133</ns3:hr>
            <ns3:cad>0</ns3:cad>
          </ns3:TrackPointExtension>
        </extensions>
      </trkpt>
      <trkpt lat="38.04585940204560756683349609375" lon="-106.94251078180968761444091796875">
        <ele>3896</ele>
        <time>2026-05-25T13:00:50.000Z</time>
        <extensions>
          <ns3:TrackPointExtension>
            <ns3:hr>130</ns3:hr>
            <ns3:cad>0</ns3:cad>
          </ns3:TrackPointExtension>
        </extensions>
      </trkpt>
      <trkpt lat="38.04585772566497325897216796875" lon="-106.94251078180968761444091796875">
        <ele>3896.199951171875</ele>
        <time>2026-05-25T13:00:52.000Z</time>
        <extensions>
          <ns3:TrackPointExtension>
            <ns3:hr>129</ns3:hr>
            <ns3:cad>0</ns3:cad>
          </ns3:TrackPointExtension>
        </extensions>
      </trkpt>
      <trkpt lat="38.04586694575846195220947265625" lon="-106.9424999691545963287353515625">
        <ele>3896.800048828125</ele>
        <time>2026-05-25T13:00:55.000Z</time>
        <extensions>
          <ns3:TrackPointExtension>
            <ns3:hr>127</ns3:hr>
            <ns3:cad>0</ns3:cad>
          </ns3:TrackPointExtension>
        </extensions>
      </trkpt>
      <trkpt lat="38.04586359299719333648681640625" lon="-106.94246786646544933319091796875">
        <ele>3897.199951171875</ele>
        <time>2026-05-25T13:01:00.000Z</time>
        <extensions>
          <ns3:TrackPointExtension>
            <ns3:hr>127</ns3:hr>
            <ns3:cad>0</ns3:cad>
          </ns3:TrackPointExtension>
        </extensions>
      </trkpt>
      <trkpt lat="38.0458589829504489898681640625" lon="-106.94243920035660266876220703125">
        <ele>3897.60009765625</ele>
        <time>2026-05-25T13:01:03.000Z</time>
        <extensions>
          <ns3:TrackPointExtension>
            <ns3:hr>128</ns3:hr>
            <ns3:cad>0</ns3:cad>
          </ns3:TrackPointExtension>
        </extensions>
      </trkpt>
      <trkpt lat="38.045834340155124664306640625" lon="-106.942415647208690643310546875">
        <ele>3898.39990234375</ele>
        <time>2026-05-25T13:01:07.000Z</time>
        <extensions>
          <ns3:TrackPointExtension>
            <ns3:hr>129</ns3:hr>
            <ns3:cad>0</ns3:cad>
          </ns3:TrackPointExtension>
        </extensions>
      </trkpt>
      <trkpt lat="38.045834340155124664306640625" lon="-106.942415647208690643310546875">
        <ele>3898.60009765625</ele>
        <time>2026-05-25T13:01:08.000Z</time>
        <extensions>
          <ns3:TrackPointExtension>
            <ns3:hr>129</ns3:hr>
            <ns3:cad>0</ns3:cad>
          </ns3:TrackPointExtension>
        </extensions>
      </trkpt>
      <trkpt lat="38.0457845516502857208251953125" lon="-106.942394189536571502685546875">
        <ele>3899.199951171875</ele>
        <time>2026-05-25T13:01:14.000Z</time>
        <extensions>
          <ns3:TrackPointExtension>
            <ns3:hr>129</ns3:hr>
            <ns3:cad>0</ns3:cad>
          </ns3:TrackPointExtension>
        </extensions>
      </trkpt>
      <trkpt lat="38.0457845516502857208251953125" lon="-106.942394189536571502685546875">
        <ele>3899.199951171875</ele>
        <time>2026-05-25T13:01:15.000Z</time>
        <extensions>
          <ns3:TrackPointExtension>
            <ns3:hr>128</ns3:hr>
            <ns3:cad>0</ns3:cad>
          </ns3:TrackPointExtension>
        </extensions>
      </trkpt>
      <trkpt lat="38.04577776230871677398681640625" lon="-106.94239226169884204864501953125">
        <ele>3899.60009765625</ele>
        <time>2026-05-25T13:01:17.000Z</time>
        <extensions>
          <ns3:TrackPointExtension>
            <ns3:hr>128</ns3:hr>
            <ns3:cad>0</ns3:cad>
          </ns3:TrackPointExtension>
        </extensions>
      </trkpt>
      <trkpt lat="38.045739121735095977783203125" lon="-106.9423811137676239013671875">
        <ele>3900.199951171875</ele>
        <time>2026-05-25T13:01:21.000Z</time>
        <extensions>
          <ns3:TrackPointExtension>
            <ns3:hr>126</ns3:hr>
            <ns3:cad>0</ns3:cad>
          </ns3:TrackPointExtension>
        </extensions>
      </trkpt>
      <trkpt lat="38.04573719389736652374267578125" lon="-106.9423832930624485015869140625">
        <ele>3900</ele>
        <time>2026-05-25T13:01:27.000Z</time>
        <extensions>
          <ns3:TrackPointExtension>
            <ns3:hr>124</ns3:hr>
            <ns3:cad>0</ns3:cad>
          </ns3:TrackPointExtension>
        </extensions>
      </trkpt>
      <trkpt lat="38.04573719389736652374267578125" lon="-106.9423832930624485015869140625">
        <ele>3899.800048828125</ele>
        <time>2026-05-25T13:01:33.000Z</time>
        <extensions>
          <ns3:TrackPointExtension>
            <ns3:hr>125</ns3:hr>
            <ns3:cad>0</ns3:cad>
          </ns3:TrackPointExtension>
        </extensions>
      </trkpt>
      <trkpt lat="38.04573719389736652374267578125" lon="-106.9423832930624485015869140625">
        <ele>3899.60009765625</ele>
        <time>2026-05-25T13:01:39.000Z</time>
        <extensions>
          <ns3:TrackPointExtension>
            <ns3:hr>124</ns3:hr>
            <ns3:cad>0</ns3:cad>
          </ns3:TrackPointExtension>
        </extensions>
      </trkpt>
      <trkpt lat="38.0457280576229095458984375" lon="-106.94236627779901027679443359375">
        <ele>3900.60009765625</ele>
        <time>2026-05-25T13:01:45.000Z</time>
        <extensions>
          <ns3:TrackPointExtension>
            <ns3:hr>123</ns3:hr>
            <ns3:cad>0</ns3:cad>
          </ns3:TrackPointExtension>
        </extensions>
      </trkpt>
      <trkpt lat="38.04571925662457942962646484375" lon="-106.942362673580646514892578125">
        <ele>3901</ele>
        <time>2026-05-25T13:01:46.000Z</time>
        <extensions>
          <ns3:TrackPointExtension>
            <ns3:hr>123</ns3:hr>
            <ns3:cad>0</ns3:cad>
          </ns3:TrackPointExtension>
        </extensions>
      </trkpt>
      <trkpt lat="38.0456886626780033111572265625" lon="-106.94235504604876041412353515625">
        <ele>3902</ele>
        <time>2026-05-25T13:01:50.000Z</time>
        <extensions>
          <ns3:TrackPointExtension>
            <ns3:hr>122</ns3:hr>
            <ns3:cad>0</ns3:cad>
          </ns3:TrackPointExtension>
        </extensions>
      </trkpt>
      <trkpt lat="38.04567533545196056365966796875" lon="-106.9423534534871578216552734375">
        <ele>3902.39990234375</ele>
        <time>2026-05-25T13:01:52.000Z</time>
        <extensions>
          <ns3:TrackPointExtension>
            <ns3:hr>122</ns3:hr>
            <ns3:cad>0</ns3:cad>
          </ns3:TrackPointExtension>
        </extensions>
      </trkpt>
      <trkpt lat="38.0456547997891902923583984375" lon="-106.94233895279467105865478515625">
        <ele>3902.60009765625</ele>
        <time>2026-05-25T13:01:58.000Z</time>
        <extensions>
          <ns3:TrackPointExtension>
            <ns3:hr>125</ns3:hr>
            <ns3:cad>0</ns3:cad>
          </ns3:TrackPointExtension>
        </extensions>
      </trkpt>
      <trkpt lat="38.04565471597015857696533203125" lon="-106.94233912043273448944091796875">
        <ele>3903</ele>
        <time>2026-05-25T13:01:59.000Z</time>
        <extensions>
          <ns3:TrackPointExtension>
            <ns3:hr>126</ns3:hr>
            <ns3:cad>0</ns3:cad>
          </ns3:TrackPointExtension>
        </extensions>
      </trkpt>
      <trkpt lat="38.04564289748668670654296875" lon="-106.9423363544046878814697265625">
        <ele>3903</ele>
        <time>2026-05-25T13:02:00.000Z</time>
        <extensions>
          <ns3:TrackPointExtension>
            <ns3:hr>128</ns3:hr>
            <ns3:cad>0</ns3:cad>
          </ns3:TrackPointExtension>
        </extensions>
      </trkpt>
      <trkpt lat="38.0456132255494594573974609375" lon="-106.9423326663672924041748046875">
        <ele>3903.60009765625</ele>
        <time>2026-05-25T13:02:03.000Z</time>
        <extensions>
          <ns3:TrackPointExtension>
            <ns3:hr>131</ns3:hr>
            <ns3:cad>0</ns3:cad>
          </ns3:TrackPointExtension>
        </extensions>
      </trkpt>
      <trkpt lat="38.04560928605496883392333984375" lon="-106.9423276372253894805908203125">
        <ele>3904</ele>
        <time>2026-05-25T13:02:05.000Z</time>
        <extensions>
          <ns3:TrackPointExtension>
            <ns3:hr>132</ns3:hr>
            <ns3:cad>0</ns3:cad>
          </ns3:TrackPointExtension>
        </extensions>
      </trkpt>
      <trkpt lat="38.04560559801757335662841796875" lon="-106.9423234462738037109375">
        <ele>3904</ele>
        <time>2026-05-25T13:02:06.000Z</time>
        <extensions>
          <ns3:TrackPointExtension>
            <ns3:hr>132</ns3:hr>
            <ns3:cad>0</ns3:cad>
          </ns3:TrackPointExtension>
        </extensions>
      </trkpt>
      <trkpt lat="38.04554633796215057373046875" lon="-106.94230291061103343963623046875">
        <ele>3904.800048828125</ele>
        <time>2026-05-25T13:02:12.000Z</time>
        <extensions>
          <ns3:TrackPointExtension>
            <ns3:hr>134</ns3:hr>
            <ns3:cad>0</ns3:cad>
          </ns3:TrackPointExtension>
        </extensions>
      </trkpt>
      <trkpt lat="38.0455250479280948638916015625" lon="-106.94230274297297000885009765625">
        <ele>3905.199951171875</ele>
        <time>2026-05-25T13:02:15.000Z</time>
        <extensions>
          <ns3:TrackPointExtension>
            <ns3:hr>135</ns3:hr>
            <ns3:cad>40</ns3:cad>
          </ns3:TrackPointExtension>
        </extensions>
      </trkpt>
      <trkpt lat="38.04551909677684307098388671875" lon="-106.94230735301971435546875">
        <ele>3905.60009765625</ele>
        <time>2026-05-25T13:02:17.000Z</time>
        <extensions>
          <ns3:TrackPointExtension>
            <ns3:hr>136</ns3:hr>
            <ns3:cad>40</ns3:cad>
          </ns3:TrackPointExtension>
        </extensions>
      </trkpt>
      <trkpt lat="38.04549965076148509979248046875" lon="-106.94230123423039913177490234375">
        <ele>3906.199951171875</ele>
        <time>2026-05-25T13:02:21.000Z</time>
        <extensions>
          <ns3:TrackPointExtension>
            <ns3:hr>137</ns3:hr>
            <ns3:cad>0</ns3:cad>
          </ns3:TrackPointExtension>
        </extensions>
      </trkpt>
      <trkpt lat="38.0454968847334384918212890625" lon="-106.9422981329262256622314453125">
        <ele>3906.60009765625</ele>
        <time>2026-05-25T13:02:23.000Z</time>
        <extensions>
          <ns3:TrackPointExtension>
            <ns3:hr>137</ns3:hr>
            <ns3:cad>0</ns3:cad>
          </ns3:TrackPointExtension>
        </extensions>
      </trkpt>
      <trkpt lat="38.04547903127968311309814453125" lon="-106.94229821674525737762451171875">
        <ele>3907.39990234375</ele>
        <time>2026-05-25T13:02:26.000Z</time>
        <extensions>
          <ns3:TrackPointExtension>
            <ns3:hr>137</ns3:hr>
            <ns3:cad>0</ns3:cad>
          </ns3:TrackPointExtension>
        </extensions>
      </trkpt>
      <trkpt lat="38.0454720743000507354736328125" lon="-106.94230056367814540863037109375">
        <ele>3907.800048828125</ele>
        <time>2026-05-25T13:02:28.000Z</time>
        <extensions>
          <ns3:TrackPointExtension>
            <ns3:hr>132</ns3:hr>
            <ns3:cad>0</ns3:cad>
          </ns3:TrackPointExtension>
        </extensions>
      </trkpt>
      <trkpt lat="38.04546763189136981964111328125" lon="-106.9423004798591136932373046875">
        <ele>3908</ele>
        <time>2026-05-25T13:02:29.000Z</time>
        <extensions>
          <ns3:TrackPointExtension>
            <ns3:hr>127</ns3:hr>
            <ns3:cad>0</ns3:cad>
          </ns3:TrackPointExtension>
        </extensions>
      </trkpt>
      <trkpt lat="38.0454663746058940887451171875" lon="-106.94230056367814540863037109375">
        <ele>3908.199951171875</ele>
        <time>2026-05-25T13:02:30.000Z</time>
        <extensions>
          <ns3:TrackPointExtension>
            <ns3:hr>122</ns3:hr>
            <ns3:cad>0</ns3:cad>
          </ns3:TrackPointExtension>
        </extensions>
      </trkpt>
      <trkpt lat="38.04546344093978404998779296875" lon="-106.9422974623739719390869140625">
        <ele>3908.39990234375</ele>
        <time>2026-05-25T13:02:31.000Z</time>
        <extensions>
          <ns3:TrackPointExtension>
            <ns3:hr>119</ns3:hr>
            <ns3:cad>0</ns3:cad>
          </ns3:TrackPointExtension>
        </extensions>
      </trkpt>
      <trkpt lat="38.045462183654308319091796875" lon="-106.94229687564074993133544921875">
        <ele>3908.60009765625</ele>
        <time>2026-05-25T13:02:32.000Z</time>
        <extensions>
          <ns3:TrackPointExtension>
            <ns3:hr>118</ns3:hr>
            <ns3:cad>0</ns3:cad>
          </ns3:TrackPointExtension>
        </extensions>
      </trkpt>
      <trkpt lat="38.04544575512409210205078125" lon="-106.942295618355274200439453125">
        <ele>3909.60009765625</ele>
        <time>2026-05-25T13:02:38.000Z</time>
        <extensions>
          <ns3:TrackPointExtension>
            <ns3:hr>118</ns3:hr>
            <ns3:cad>0</ns3:cad>
          </ns3:TrackPointExtension>
        </extensions>
      </trkpt>
      <trkpt lat="38.04544433020055294036865234375" lon="-106.94229536689817905426025390625">
        <ele>3910.199951171875</ele>
        <time>2026-05-25T13:02:40.000Z</time>
        <extensions>
          <ns3:TrackPointExtension>
            <ns3:hr>117</ns3:hr>
            <ns3:cad>0</ns3:cad>
          </ns3:TrackPointExtension>
        </extensions>
      </trkpt>
      <trkpt lat="38.0454365350306034088134765625" lon="-106.94228614680469036102294921875">
        <ele>3910.60009765625</ele>
        <time>2026-05-25T13:02:42.000Z</time>
        <extensions>
          <ns3:TrackPointExtension>
            <ns3:hr>117</ns3:hr>
            <ns3:cad>0</ns3:cad>
          </ns3:TrackPointExtension>
        </extensions>
      </trkpt>
      <trkpt lat="38.045410551130771636962890625" lon="-106.94227793253958225250244140625">
        <ele>3911</ele>
        <time>2026-05-25T13:02:45.000Z</time>
        <extensions>
          <ns3:TrackPointExtension>
            <ns3:hr>118</ns3:hr>
            <ns3:cad>0</ns3:cad>
          </ns3:TrackPointExtension>
        </extensions>
      </trkpt>
      <trkpt lat="38.0454043485224246978759765625" lon="-106.9422760047018527984619140625">
        <ele>3911</ele>
        <time>2026-05-25T13:02:46.000Z</time>
        <extensions>
          <ns3:TrackPointExtension>
            <ns3:hr>121</ns3:hr>
            <ns3:cad>0</ns3:cad>
          </ns3:TrackPointExtension>
        </extensions>
      </trkpt>
      <trkpt lat="38.04539454169571399688720703125" lon="-106.94227407686412334442138671875">
        <ele>3911</ele>
        <time>2026-05-25T13:02:49.000Z</time>
        <extensions>
          <ns3:TrackPointExtension>
            <ns3:hr>124</ns3:hr>
            <ns3:cad>0</ns3:cad>
          </ns3:TrackPointExtension>
        </extensions>
      </trkpt>
      <trkpt lat="38.04538817144930362701416015625" lon="-106.942264102399349212646484375">
        <ele>3911</ele>
        <time>2026-05-25T13:02:51.000Z</time>
        <extensions>
          <ns3:TrackPointExtension>
            <ns3:hr>126</ns3:hr>
            <ns3:cad>0</ns3:cad>
          </ns3:TrackPointExtension>
        </extensions>
      </trkpt>
      <trkpt lat="38.045378029346466064453125" lon="-106.94225362502038478851318359375">
        <ele>3911.800048828125</ele>
        <time>2026-05-25T13:02:54.000Z</time>
        <extensions>
          <ns3:TrackPointExtension>
            <ns3:hr>126</ns3:hr>
            <ns3:cad>0</ns3:cad>
          </ns3:TrackPointExtension>
        </extensions>
      </trkpt>
      <trkpt lat="38.04536872543394565582275390625" lon="-106.9422434829175472259521484375">
        <ele>3912.39990234375</ele>
        <time>2026-05-25T13:02:56.000Z</time>
        <extensions>
          <ns3:TrackPointExtension>
            <ns3:hr>125</ns3:hr>
            <ns3:cad>0</ns3:cad>
          </ns3:TrackPointExtension>
        </extensions>
      </trkpt>
      <trkpt lat="38.04534927941858768463134765625" lon="-106.9422206841409206390380859375">
        <ele>3912.800048828125</ele>
        <time>2026-05-25T13:02:59.000Z</time>
        <extensions>
          <ns3:TrackPointExtension>
            <ns3:hr>124</ns3:hr>
            <ns3:cad>0</ns3:cad>
          </ns3:TrackPointExtension>
        </extensions>
      </trkpt>
      <trkpt lat="38.045329749584197998046875" lon="-106.94221280515193939208984375">
        <ele>3913</ele>
        <time>2026-05-25T13:03:02.000Z</time>
        <extensions>
          <ns3:TrackPointExtension>
            <ns3:hr>120</ns3:hr>
            <ns3:cad>0</ns3:cad>
          </ns3:TrackPointExtension>
        </extensions>
      </trkpt>
      <trkpt lat="38.04531021974980831146240234375" lon="-106.94219897501170635223388671875">
        <ele>3913.800048828125</ele>
        <time>2026-05-25T13:03:08.000Z</time>
        <extensions>
          <ns3:TrackPointExtension>
            <ns3:hr>117</ns3:hr>
            <ns3:cad>0</ns3:cad>
          </ns3:TrackPointExtension>
        </extensions>
      </trkpt>
      <trkpt lat="38.04530317895114421844482421875" lon="-106.94219939410686492919921875">
        <ele>3914</ele>
        <time>2026-05-25T13:03:09.000Z</time>
        <extensions>
          <ns3:TrackPointExtension>
            <ns3:hr>118</ns3:hr>
            <ns3:cad>0</ns3:cad>
          </ns3:TrackPointExtension>
        </extensions>
      </trkpt>
      <trkpt lat="38.0452920310199260711669921875" lon="-106.942198388278484344482421875">
        <ele>3914.39990234375</ele>
        <time>2026-05-25T13:03:12.000Z</time>
        <extensions>
          <ns3:TrackPointExtension>
            <ns3:hr>121</ns3:hr>
            <ns3:cad>0</ns3:cad>
          </ns3:TrackPointExtension>
        </extensions>
      </trkpt>
      <trkpt lat="38.04528079926967620849609375" lon="-106.9422042556107044219970703125">
        <ele>3915.199951171875</ele>
        <time>2026-05-25T13:03:15.000Z</time>
        <extensions>
          <ns3:TrackPointExtension>
            <ns3:hr>123</ns3:hr>
            <ns3:cad>0</ns3:cad>
          </ns3:TrackPointExtension>
        </extensions>
      </trkpt>
      <trkpt lat="38.04527417756617069244384765625" lon="-106.942198388278484344482421875">
        <ele>3915.39990234375</ele>
        <time>2026-05-25T13:03:17.000Z</time>
        <extensions>
          <ns3:TrackPointExtension>
            <ns3:hr>124</ns3:hr>
            <ns3:cad>0</ns3:cad>
          </ns3:TrackPointExtension>
        </extensions>
      </trkpt>
      <trkpt lat="38.045246936380863189697265625" lon="-106.9421987235546112060546875">
        <ele>3916.39990234375</ele>
        <time>2026-05-25T13:03:22.000Z</time>
        <extensions>
          <ns3:TrackPointExtension>
            <ns3:hr>124</ns3:hr>
            <ns3:cad>0</ns3:cad>
          </ns3:TrackPointExtension>
        </extensions>
      </trkpt>
      <trkpt lat="38.045214749872684478759765625" lon="-106.9421948678791522979736328125">
        <ele>3917.60009765625</ele>
        <time>2026-05-25T13:03:28.000Z</time>
        <extensions>
          <ns3:TrackPointExtension>
            <ns3:hr>122</ns3:hr>
            <ns3:cad>0</ns3:cad>
          </ns3:TrackPointExtension>
        </extensions>
      </trkpt>
      <trkpt lat="38.04520008154213428497314453125" lon="-106.94219126366078853607177734375">
        <ele>3918.39990234375</ele>
        <time>2026-05-25T13:03:32.000Z</time>
        <extensions>
          <ns3:TrackPointExtension>
            <ns3:hr>119</ns3:hr>
            <ns3:cad>0</ns3:cad>
          </ns3:TrackPointExtension>
        </extensions>
      </trkpt>
      <trkpt lat="38.04517510347068309783935546875" lon="-106.9421861506998538970947265625">
        <ele>3918.60009765625</ele>
        <time>2026-05-25T13:03:33.000Z</time>
        <extensions>
          <ns3:TrackPointExtension>
            <ns3:hr>119</ns3:hr>
            <ns3:cad>0</ns3:cad>
          </ns3:TrackPointExtension>
        </extensions>
      </trkpt>
      <trkpt lat="38.04515515454113483428955078125" lon="-106.9421901740133762359619140625">
        <ele>3919</ele>
        <time>2026-05-25T13:03:35.000Z</time>
        <extensions>
          <ns3:TrackPointExtension>
            <ns3:hr>118</ns3:hr>
            <ns3:cad>0</ns3:cad>
          </ns3:TrackPointExtension>
        </extensions>
      </trkpt>
      <trkpt lat="38.04514911957085132598876953125" lon="-106.94219159893691539764404296875">
        <ele>3919.199951171875</ele>
        <time>2026-05-25T13:03:40.000Z</time>
        <extensions>
          <ns3:TrackPointExtension>
            <ns3:hr>117</ns3:hr>
            <ns3:cad>0</ns3:cad>
          </ns3:TrackPointExtension>
        </extensions>
      </trkpt>
      <trkpt lat="38.04513721726834774017333984375" lon="-106.9421764276921749114990234375">
        <ele>3919.39990234375</ele>
        <time>2026-05-25T13:03:43.000Z</time>
        <extensions>
          <ns3:TrackPointExtension>
            <ns3:hr>120</ns3:hr>
            <ns3:cad>0</ns3:cad>
          </ns3:TrackPointExtension>
        </extensions>
      </trkpt>
      <trkpt lat="38.04513487033545970916748046875" lon="-106.94217525422573089599609375">
        <ele>3919.800048828125</ele>
        <time>2026-05-25T13:03:45.000Z</time>
        <extensions>
          <ns3:TrackPointExtension>
            <ns3:hr>123</ns3:hr>
            <ns3:cad>0</ns3:cad>
          </ns3:TrackPointExtension>
        </extensions>
      </trkpt>
      <trkpt lat="38.04512715898454189300537109375" lon="-106.9421744160354137420654296875">
        <ele>3920.199951171875</ele>
        <time>2026-05-25T13:03:47.000Z</time>
        <extensions>
          <ns3:TrackPointExtension>
            <ns3:hr>124</ns3:hr>
            <ns3:cad>71</ns3:cad>
          </ns3:TrackPointExtension>
        </extensions>
      </trkpt>
      <trkpt lat="38.04511827416718006134033203125" lon="-106.9421693868935108184814453125">
        <ele>3920.800048828125</ele>
        <time>2026-05-25T13:03:51.000Z</time>
        <extensions>
          <ns3:TrackPointExtension>
            <ns3:hr>125</ns3:hr>
            <ns3:cad>0</ns3:cad>
          </ns3:TrackPointExtension>
        </extensions>
      </trkpt>
      <trkpt lat="38.045092038810253143310546875" lon="-106.94216880016028881072998046875">
        <ele>3921.39990234375</ele>
        <time>2026-05-25T13:03:55.000Z</time>
        <extensions>
          <ns3:TrackPointExtension>
            <ns3:hr>121</ns3:hr>
            <ns3:cad>0</ns3:cad>
          </ns3:TrackPointExtension>
        </extensions>
      </trkpt>
      <trkpt lat="38.045075945556163787841796875" lon="-106.94217114709317684173583984375">
        <ele>3922</ele>
        <time>2026-05-25T13:03:57.000Z</time>
        <extensions>
          <ns3:TrackPointExtension>
            <ns3:hr>120</ns3:hr>
            <ns3:cad>0</ns3:cad>
          </ns3:TrackPointExtension>
        </extensions>
      </trkpt>
      <trkpt lat="38.04504484869539737701416015625" lon="-106.94218464195728302001953125">
        <ele>3923</ele>
        <time>2026-05-25T13:04:03.000Z</time>
        <extensions>
          <ns3:TrackPointExtension>
            <ns3:hr>117</ns3:hr>
            <ns3:cad>0</ns3:cad>
          </ns3:TrackPointExtension>
        </extensions>
      </trkpt>
      <trkpt lat="38.04504518397152423858642578125" lon="-106.94218003191053867340087890625">
        <ele>3923.199951171875</ele>
        <time>2026-05-25T13:04:05.000Z</time>
        <extensions>
          <ns3:TrackPointExtension>
            <ns3:hr>116</ns3:hr>
            <ns3:cad>0</ns3:cad>
          </ns3:TrackPointExtension>
        </extensions>
      </trkpt>
      <trkpt lat="38.045029006898403167724609375" lon="-106.942178942263126373291015625">
        <ele>3923.60009765625</ele>
        <time>2026-05-25T13:04:10.000Z</time>
        <extensions>
          <ns3:TrackPointExtension>
            <ns3:hr>116</ns3:hr>
            <ns3:cad>0</ns3:cad>
          </ns3:TrackPointExtension>
        </extensions>
      </trkpt>
      <trkpt lat="38.0450150929391384124755859375" lon="-106.94216779433190822601318359375">
        <ele>3924</ele>
        <time>2026-05-25T13:04:14.000Z</time>
        <extensions>
          <ns3:TrackPointExtension>
            <ns3:hr>118</ns3:hr>
            <ns3:cad>0</ns3:cad>
          </ns3:TrackPointExtension>
        </extensions>
      </trkpt>
      <trkpt lat="38.045000843703746795654296875" lon="-106.94216913543641567230224609375">
        <ele>3924.60009765625</ele>
        <time>2026-05-25T13:04:17.000Z</time>
        <extensions>
          <ns3:TrackPointExtension>
            <ns3:hr>118</ns3:hr>
            <ns3:cad>0</ns3:cad>
          </ns3:TrackPointExtension>
        </extensions>
      </trkpt>
      <trkpt lat="38.0449996702373027801513671875" lon="-106.942168883979320526123046875">
        <ele>3925.199951171875</ele>
        <time>2026-05-25T13:04:19.000Z</time>
        <extensions>
          <ns3:TrackPointExtension>
            <ns3:hr>116</ns3:hr>
            <ns3:cad>0</ns3:cad>
          </ns3:TrackPointExtension>
        </extensions>
      </trkpt>
      <trkpt lat="38.04498684592545032501220703125" lon="-106.94216695614159107208251953125">
        <ele>3925.60009765625</ele>
        <time>2026-05-25T13:04:23.000Z</time>
        <extensions>
          <ns3:TrackPointExtension>
            <ns3:hr>115</ns3:hr>
            <ns3:cad>0</ns3:cad>
          </ns3:TrackPointExtension>
        </extensions>
      </trkpt>
      <trkpt lat="38.04495918564498424530029296875" lon="-106.94217064417898654937744140625">
        <ele>3926.39990234375</ele>
        <time>2026-05-25T13:04:28.000Z</time>
        <extensions>
          <ns3:TrackPointExtension>
            <ns3:hr>114</ns3:hr>
            <ns3:cad>0</ns3:cad>
          </ns3:TrackPointExtension>
        </extensions>
      </trkpt>
      <trkpt lat="38.04494895972311496734619140625" lon="-106.94216393865644931793212890625">
        <ele>3926.800048828125</ele>
        <time>2026-05-25T13:04:31.000Z</time>
        <extensions>
          <ns3:TrackPointExtension>
            <ns3:hr>114</ns3:hr>
            <ns3:cad>0</ns3:cad>
          </ns3:TrackPointExtension>
        </extensions>
      </trkpt>
      <trkpt lat="38.04494158364832401275634765625" lon="-106.94215924479067325592041015625">
        <ele>3927.60009765625</ele>
        <time>2026-05-25T13:04:34.000Z</time>
        <extensions>
          <ns3:TrackPointExtension>
            <ns3:hr>114</ns3:hr>
            <ns3:cad>0</ns3:cad>
          </ns3:TrackPointExtension>
        </extensions>
      </trkpt>
      <trkpt lat="38.0449094809591770172119140625" lon="-106.9421355240046977996826171875">
        <ele>3928.199951171875</ele>
        <time>2026-05-25T13:04:38.000Z</time>
        <extensions>
          <ns3:TrackPointExtension>
            <ns3:hr>115</ns3:hr>
            <ns3:cad>0</ns3:cad>
          </ns3:TrackPointExtension>
        </extensions>
      </trkpt>
      <trkpt lat="38.04488810710608959197998046875" lon="-106.9421231187880039215087890625">
        <ele>3928.800048828125</ele>
        <time>2026-05-25T13:04:42.000Z</time>
        <extensions>
          <ns3:TrackPointExtension>
            <ns3:hr>117</ns3:hr>
            <ns3:cad>0</ns3:cad>
          </ns3:TrackPointExtension>
        </extensions>
      </trkpt>
      <trkpt lat="38.04486245848238468170166015625" lon="-106.9421288184821605682373046875">
        <ele>3929.800048828125</ele>
        <time>2026-05-25T13:04:46.000Z</time>
        <extensions>
          <ns3:TrackPointExtension>
            <ns3:hr>119</ns3:hr>
            <ns3:cad>0</ns3:cad>
          </ns3:TrackPointExtension>
        </extensions>
      </trkpt>
      <trkpt lat="38.0448370613157749176025390625" lon="-106.94212856702506542205810546875">
        <ele>3930.39990234375</ele>
        <time>2026-05-25T13:04:52.000Z</time>
        <extensions>
          <ns3:TrackPointExtension>
            <ns3:hr>121</ns3:hr>
            <ns3:cad>0</ns3:cad>
          </ns3:TrackPointExtension>
        </extensions>
      </trkpt>
      <trkpt lat="38.04483563639223575592041015625" lon="-106.9421308301389217376708984375">
        <ele>3930.39990234375</ele>
        <time>2026-05-25T13:04:53.000Z</time>
        <extensions>
          <ns3:TrackPointExtension>
            <ns3:hr>122</ns3:hr>
            <ns3:cad>0</ns3:cad>
          </ns3:TrackPointExtension>
        </extensions>
      </trkpt>
      <trkpt lat="38.04482256062328815460205078125" lon="-106.94213678129017353057861328125">
        <ele>3931</ele>
        <time>2026-05-25T13:04:56.000Z</time>
        <extensions>
          <ns3:TrackPointExtension>
            <ns3:hr>124</ns3:hr>
            <ns3:cad>51</ns3:cad>
          </ns3:TrackPointExtension>
        </extensions>
      </trkpt>
      <trkpt lat="38.04481484927237033843994140625" lon="-106.94213326089084148406982421875">
        <ele>3931.39990234375</ele>
        <time>2026-05-25T13:05:00.000Z</time>
        <extensions>
          <ns3:TrackPointExtension>
            <ns3:hr>127</ns3:hr>
            <ns3:cad>0</ns3:cad>
          </ns3:TrackPointExtension>
        </extensions>
      </trkpt>
      <trkpt lat="38.04480931721627712249755859375" lon="-106.94213979877531528472900390625">
        <ele>3931.800048828125</ele>
        <time>2026-05-25T13:05:06.000Z</time>
        <extensions>
          <ns3:TrackPointExtension>
            <ns3:hr>129</ns3:hr>
            <ns3:cad>0</ns3:cad>
          </ns3:TrackPointExtension>
        </extensions>
      </trkpt>
      <trkpt lat="38.04481015540659427642822265625" lon="-106.942141056060791015625">
        <ele>3931.60009765625</ele>
        <time>2026-05-25T13:05:11.000Z</time>
        <extensions>
          <ns3:TrackPointExtension>
            <ns3:hr>130</ns3:hr>
            <ns3:cad>0</ns3:cad>
          </ns3:TrackPointExtension>
        </extensions>
      </trkpt>
      <trkpt lat="38.0447998456656932830810546875" lon="-106.94213929586112499237060546875">
        <ele>3932</ele>
        <time>2026-05-25T13:05:13.000Z</time>
        <extensions>
          <ns3:TrackPointExtension>
            <ns3:hr>130</ns3:hr>
            <ns3:cad>0</ns3:cad>
          </ns3:TrackPointExtension>
        </extensions>
      </trkpt>
      <trkpt lat="38.04477361030876636505126953125" lon="-106.94212873466312885284423828125">
        <ele>3932.60009765625</ele>
        <time>2026-05-25T13:05:17.000Z</time>
        <extensions>
          <ns3:TrackPointExtension>
            <ns3:hr>129</ns3:hr>
            <ns3:cad>0</ns3:cad>
          </ns3:TrackPointExtension>
        </extensions>
      </trkpt>
      <trkpt lat="38.04476690478622913360595703125" lon="-106.94212471134960651397705078125">
        <ele>3932.800048828125</ele>
        <time>2026-05-25T13:05:18.000Z</time>
        <extensions>
          <ns3:TrackPointExtension>
            <ns3:hr>126</ns3:hr>
            <ns3:cad>0</ns3:cad>
          </ns3:TrackPointExtension>
        </extensions>
      </trkpt>
      <trkpt lat="38.04476581513881683349609375" lon="-106.94212622009217739105224609375">
        <ele>3933</ele>
        <time>2026-05-25T13:05:20.000Z</time>
        <extensions>
          <ns3:TrackPointExtension>
            <ns3:hr>123</ns3:hr>
            <ns3:cad>0</ns3:cad>
          </ns3:TrackPointExtension>
        </extensions>
      </trkpt>
      <trkpt lat="38.04476120509207248687744140625" lon="-106.94212236441671848297119140625">
        <ele>3933.800048828125</ele>
        <time>2026-05-25T13:05:23.000Z</time>
        <extensions>
          <ns3:TrackPointExtension>
            <ns3:hr>123</ns3:hr>
            <ns3:cad>0</ns3:cad>
          </ns3:TrackPointExtension>
        </extensions>
      </trkpt>
      <trkpt lat="38.04476506076753139495849609375" lon="-106.94212337024509906768798828125">
        <ele>3934.199951171875</ele>
        <time>2026-05-25T13:05:26.000Z</time>
        <extensions>
          <ns3:TrackPointExtension>
            <ns3:hr>124</ns3:hr>
            <ns3:cad>0</ns3:cad>
          </ns3:TrackPointExtension>
        </extensions>
      </trkpt>
      <trkpt lat="38.04476237855851650238037109375" lon="-106.94211624562740325927734375">
        <ele>3934.60009765625</ele>
        <time>2026-05-25T13:05:29.000Z</time>
        <extensions>
          <ns3:TrackPointExtension>
            <ns3:hr>130</ns3:hr>
            <ns3:cad>0</ns3:cad>
          </ns3:TrackPointExtension>
        </extensions>
      </trkpt>
      <trkpt lat="38.04476237855851650238037109375" lon="-106.94211624562740325927734375">
        <ele>3934.800048828125</ele>
        <time>2026-05-25T13:05:30.000Z</time>
        <extensions>
          <ns3:TrackPointExtension>
            <ns3:hr>130</ns3:hr>
            <ns3:cad>0</ns3:cad>
          </ns3:TrackPointExtension>
        </extensions>
      </trkpt>
      <trkpt lat="38.0447552539408206939697265625" lon="-106.9421016611158847808837890625">
        <ele>3935.39990234375</ele>
        <time>2026-05-25T13:05:32.000Z</time>
        <extensions>
          <ns3:TrackPointExtension>
            <ns3:hr>131</ns3:hr>
            <ns3:cad>0</ns3:cad>
          </ns3:TrackPointExtension>
        </extensions>
      </trkpt>
      <trkpt lat="38.044728599488735198974609375" lon="-106.94206930696964263916015625">
        <ele>3936.39990234375</ele>
        <time>2026-05-25T13:05:36.000Z</time>
        <extensions>
          <ns3:TrackPointExtension>
            <ns3:hr>131</ns3:hr>
            <ns3:cad>0</ns3:cad>
          </ns3:TrackPointExtension>
        </extensions>
      </trkpt>
      <trkpt lat="38.04472289979457855224609375" lon="-106.94206184707581996917724609375">
        <ele>3936.39990234375</ele>
        <time>2026-05-25T13:05:37.000Z</time>
        <extensions>
          <ns3:TrackPointExtension>
            <ns3:hr>131</ns3:hr>
            <ns3:cad>0</ns3:cad>
          </ns3:TrackPointExtension>
        </extensions>
      </trkpt>
      <trkpt lat="38.0447183735668659210205078125" lon="-106.9420574046671390533447265625">
        <ele>3936.800048828125</ele>
        <time>2026-05-25T13:05:40.000Z</time>
        <extensions>
          <ns3:TrackPointExtension>
            <ns3:hr>134</ns3:hr>
            <ns3:cad>0</ns3:cad>
          </ns3:TrackPointExtension>
        </extensions>
      </trkpt>
      <trkpt lat="38.04469884373247623443603515625" lon="-106.94205187261104583740234375">
        <ele>3937.199951171875</ele>
        <time>2026-05-25T13:05:42.000Z</time>
        <extensions>
          <ns3:TrackPointExtension>
            <ns3:hr>135</ns3:hr>
            <ns3:cad>0</ns3:cad>
          </ns3:TrackPointExtension>
        </extensions>
      </trkpt>
      <trkpt lat="38.04467604495584964752197265625" lon="-106.9420470111072063446044921875">
        <ele>3937.39990234375</ele>
        <time>2026-05-25T13:05:48.000Z</time>
        <extensions>
          <ns3:TrackPointExtension>
            <ns3:hr>131</ns3:hr>
            <ns3:cad>0</ns3:cad>
          </ns3:TrackPointExtension>
        </extensions>
      </trkpt>
      <trkpt lat="38.0446704290807247161865234375" lon="-106.9420500285923480987548828125">
        <ele>3937.800048828125</ele>
        <time>2026-05-25T13:05:49.000Z</time>
        <extensions>
          <ns3:TrackPointExtension>
            <ns3:hr>131</ns3:hr>
            <ns3:cad>0</ns3:cad>
          </ns3:TrackPointExtension>
        </extensions>
      </trkpt>
      <trkpt lat="38.04466766305267810821533203125" lon="-106.942046172916889190673828125">
        <ele>3938.60009765625</ele>
        <time>2026-05-25T13:05:53.000Z</time>
        <extensions>
          <ns3:TrackPointExtension>
            <ns3:hr>130</ns3:hr>
            <ns3:cad>0</ns3:cad>
          </ns3:TrackPointExtension>
        </extensions>
      </trkpt>
      <trkpt lat="38.04464000277221202850341796875" lon="-106.9420404732227325439453125">
        <ele>3939.199951171875</ele>
        <time>2026-05-25T13:05:58.000Z</time>
        <extensions>
          <ns3:TrackPointExtension>
            <ns3:hr>131</ns3:hr>
            <ns3:cad>0</ns3:cad>
          </ns3:TrackPointExtension>
        </extensions>
      </trkpt>
      <trkpt lat="38.04463782347738742828369140625" lon="-106.9420325942337512969970703125">
        <ele>3939.60009765625</ele>
        <time>2026-05-25T13:06:00.000Z</time>
        <extensions>
          <ns3:TrackPointExtension>
            <ns3:hr>130</ns3:hr>
            <ns3:cad>0</ns3:cad>
          </ns3:TrackPointExtension>
        </extensions>
      </trkpt>
      <trkpt lat="38.04462365806102752685546875" lon="-106.942016668617725372314453125">
        <ele>3940</ele>
        <time>2026-05-25T13:06:03.000Z</time>
        <extensions>
          <ns3:TrackPointExtension>
            <ns3:hr>127</ns3:hr>
            <ns3:cad>0</ns3:cad>
          </ns3:TrackPointExtension>
        </extensions>
      </trkpt>
      <trkpt lat="38.04462365806102752685546875" lon="-106.942016668617725372314453125">
        <ele>3940.199951171875</ele>
        <time>2026-05-25T13:06:04.000Z</time>
        <extensions>
          <ns3:TrackPointExtension>
            <ns3:hr>126</ns3:hr>
            <ns3:cad>0</ns3:cad>
          </ns3:TrackPointExtension>
        </extensions>
      </trkpt>
      <trkpt lat="38.0446151085197925567626953125" lon="-106.9420067779719829559326171875">
        <ele>3940.60009765625</ele>
        <time>2026-05-25T13:06:07.000Z</time>
        <extensions>
          <ns3:TrackPointExtension>
            <ns3:hr>123</ns3:hr>
            <ns3:cad>0</ns3:cad>
          </ns3:TrackPointExtension>
        </extensions>
      </trkpt>
      <trkpt lat="38.044610917568206787109375" lon="-106.942001245915889739990234375">
        <ele>3940.800048828125</ele>
        <time>2026-05-25T13:06:08.000Z</time>
        <extensions>
          <ns3:TrackPointExtension>
            <ns3:hr>123</ns3:hr>
            <ns3:cad>0</ns3:cad>
          </ns3:TrackPointExtension>
        </extensions>
      </trkpt>
      <trkpt lat="38.04459591396152973175048828125" lon="-106.94197132252156734466552734375">
        <ele>3941.39990234375</ele>
        <time>2026-05-25T13:06:13.000Z</time>
        <extensions>
          <ns3:TrackPointExtension>
            <ns3:hr>126</ns3:hr>
            <ns3:cad>0</ns3:cad>
          </ns3:TrackPointExtension>
        </extensions>
      </trkpt>
      <trkpt lat="38.04459591396152973175048828125" lon="-106.94197132252156734466552734375">
        <ele>3941.60009765625</ele>
        <time>2026-05-25T13:06:14.000Z</time>
        <extensions>
          <ns3:TrackPointExtension>
            <ns3:hr>128</ns3:hr>
            <ns3:cad>0</ns3:cad>
          </ns3:TrackPointExtension>
        </extensions>
      </trkpt>
      <trkpt lat="38.04458686150610446929931640625" lon="-106.9419527985155582427978515625">
        <ele>3941.800048828125</ele>
        <time>2026-05-25T13:06:15.000Z</time>
        <extensions>
          <ns3:TrackPointExtension>
            <ns3:hr>132</ns3:hr>
            <ns3:cad>0</ns3:cad>
          </ns3:TrackPointExtension>
        </extensions>
      </trkpt>
      <trkpt lat="38.0445822514593601226806640625" lon="-106.94194701500236988067626953125">
        <ele>3942</ele>
        <time>2026-05-25T13:06:16.000Z</time>
        <extensions>
          <ns3:TrackPointExtension>
            <ns3:hr>133</ns3:hr>
            <ns3:cad>0</ns3:cad>
          </ns3:TrackPointExtension>
        </extensions>
      </trkpt>
      <trkpt lat="38.044570349156856536865234375" lon="-106.941938214004039764404296875">
        <ele>3942.800048828125</ele>
        <time>2026-05-25T13:06:20.000Z</time>
        <extensions>
          <ns3:TrackPointExtension>
            <ns3:hr>134</ns3:hr>
            <ns3:cad>0</ns3:cad>
          </ns3:TrackPointExtension>
        </extensions>
      </trkpt>
      <trkpt lat="38.04454981349408626556396484375" lon="-106.94191181100904941558837890625">
        <ele>3943.60009765625</ele>
        <time>2026-05-25T13:06:25.000Z</time>
        <extensions>
          <ns3:TrackPointExtension>
            <ns3:hr>132</ns3:hr>
            <ns3:cad>0</ns3:cad>
          </ns3:TrackPointExtension>
        </extensions>
      </trkpt>
      <trkpt lat="38.04452768526971340179443359375" lon="-106.9418914429843425750732421875">
        <ele>3943.800048828125</ele>
        <time>2026-05-25T13:06:30.000Z</time>
        <extensions>
          <ns3:TrackPointExtension>
            <ns3:hr>132</ns3:hr>
            <ns3:cad>0</ns3:cad>
          </ns3:TrackPointExtension>
        </extensions>
      </trkpt>
      <trkpt lat="38.0445138551294803619384765625" lon="-106.94187912158668041229248046875">
        <ele>3944.199951171875</ele>
        <time>2026-05-25T13:06:32.000Z</time>
        <extensions>
          <ns3:TrackPointExtension>
            <ns3:hr>132</ns3:hr>
            <ns3:cad>0</ns3:cad>
          </ns3:TrackPointExtension>
        </extensions>
      </trkpt>
      <trkpt lat="38.04448728449642658233642578125" lon="-106.941864788532257080078125">
        <ele>3944.800048828125</ele>
        <time>2026-05-25T13:06:37.000Z</time>
        <extensions>
          <ns3:TrackPointExtension>
            <ns3:hr>131</ns3:hr>
            <ns3:cad>0</ns3:cad>
          </ns3:TrackPointExtension>
        </extensions>
      </trkpt>
      <trkpt lat="38.04448225535452365875244140625" lon="-106.94186009466648101806640625">
        <ele>3945</ele>
        <time>2026-05-25T13:06:39.000Z</time>
        <extensions>
          <ns3:TrackPointExtension>
            <ns3:hr>130</ns3:hr>
            <ns3:cad>0</ns3:cad>
          </ns3:TrackPointExtension>
        </extensions>
      </trkpt>
      <trkpt lat="38.04444587789475917816162109375" lon="-106.94183327257633209228515625">
        <ele>3945.800048828125</ele>
        <time>2026-05-25T13:06:45.000Z</time>
        <extensions>
          <ns3:TrackPointExtension>
            <ns3:hr>130</ns3:hr>
            <ns3:cad>0</ns3:cad>
          </ns3:TrackPointExtension>
        </extensions>
      </trkpt>
      <trkpt lat="38.0444421060383319854736328125" lon="-106.94183335639536380767822265625">
        <ele>3945.800048828125</ele>
        <time>2026-05-25T13:06:46.000Z</time>
        <extensions>
          <ns3:TrackPointExtension>
            <ns3:hr>130</ns3:hr>
            <ns3:cad>0</ns3:cad>
          </ns3:TrackPointExtension>
        </extensions>
      </trkpt>
      <trkpt lat="38.04445241577923297882080078125" lon="-106.94183184765279293060302734375">
        <ele>3946.199951171875</ele>
        <time>2026-05-25T13:06:51.000Z</time>
        <extensions>
          <ns3:TrackPointExtension>
            <ns3:hr>132</ns3:hr>
            <ns3:cad>0</ns3:cad>
          </ns3:TrackPointExtension>
        </extensions>
      </trkpt>
      <trkpt lat="38.0444421060383319854736328125" lon="-106.94183302111923694610595703125">
        <ele>3945.60009765625</ele>
        <time>2026-05-25T13:06:57.000Z</time>
        <extensions>
          <ns3:TrackPointExtension>
            <ns3:hr>128</ns3:hr>
            <ns3:cad>0</ns3:cad>
          </ns3:TrackPointExtension>
        </extensions>
      </trkpt>
      <trkpt lat="38.0444421060383319854736328125" lon="-106.94183302111923694610595703125">
        <ele>3945.199951171875</ele>
        <time>2026-05-25T13:07:03.000Z</time>
        <extensions>
          <ns3:TrackPointExtension>
            <ns3:hr>127</ns3:hr>
            <ns3:cad>0</ns3:cad>
          </ns3:TrackPointExtension>
        </extensions>
      </trkpt>
      <trkpt lat="38.0444421060383319854736328125" lon="-106.94183302111923694610595703125">
        <ele>3945.39990234375</ele>
        <time>2026-05-25T13:07:06.000Z</time>
        <extensions>
          <ns3:TrackPointExtension>
            <ns3:hr>127</ns3:hr>
            <ns3:cad>0</ns3:cad>
          </ns3:TrackPointExtension>
        </extensions>
      </trkpt>
      <trkpt lat="38.0444421060383319854736328125" lon="-106.94183302111923694610595703125">
        <ele>3945</ele>
        <time>2026-05-25T13:07:12.000Z</time>
        <extensions>
          <ns3:TrackPointExtension>
            <ns3:hr>127</ns3:hr>
            <ns3:cad>0</ns3:cad>
          </ns3:TrackPointExtension>
        </extensions>
      </trkpt>
      <trkpt lat="38.0444421060383319854736328125" lon="-106.94183302111923694610595703125">
        <ele>3945.199951171875</ele>
        <time>2026-05-25T13:07:13.000Z</time>
        <extensions>
          <ns3:TrackPointExtension>
            <ns3:hr>124</ns3:hr>
            <ns3:cad>0</ns3:cad>
          </ns3:TrackPointExtension>
        </extensions>
      </trkpt>
      <trkpt lat="38.04445375688374042510986328125" lon="-106.94182715378701686859130859375">
        <ele>3945.60009765625</ele>
        <time>2026-05-25T13:07:14.000Z</time>
        <extensions>
          <ns3:TrackPointExtension>
            <ns3:hr>119</ns3:hr>
            <ns3:cad>0</ns3:cad>
          </ns3:TrackPointExtension>
        </extensions>
      </trkpt>
      <trkpt lat="38.04445375688374042510986328125" lon="-106.94182522594928741455078125">
        <ele>3945.800048828125</ele>
        <time>2026-05-25T13:07:15.000Z</time>
        <extensions>
          <ns3:TrackPointExtension>
            <ns3:hr>114</ns3:hr>
            <ns3:cad>0</ns3:cad>
          </ns3:TrackPointExtension>
        </extensions>
      </trkpt>
      <trkpt lat="38.0444421060383319854736328125" lon="-106.94183302111923694610595703125">
        <ele>3945.800048828125</ele>
        <time>2026-05-25T13:07:19.000Z</time>
        <extensions>
          <ns3:TrackPointExtension>
            <ns3:hr>111</ns3:hr>
            <ns3:cad>0</ns3:cad>
          </ns3:TrackPointExtension>
        </extensions>
      </trkpt>
      <trkpt lat="38.0444421060383319854736328125" lon="-106.94183302111923694610595703125">
        <ele>3945.60009765625</ele>
        <time>2026-05-25T13:07:22.000Z</time>
        <extensions>
          <ns3:TrackPointExtension>
            <ns3:hr>109</ns3:hr>
            <ns3:cad>0</ns3:cad>
          </ns3:TrackPointExtension>
        </extensions>
      </trkpt>
      <trkpt lat="38.0444421060383319854736328125" lon="-106.94183302111923694610595703125">
        <ele>3945.60009765625</ele>
        <time>2026-05-25T13:07:28.000Z</time>
        <extensions>
          <ns3:TrackPointExtension>
            <ns3:hr>110</ns3:hr>
            <ns3:cad>0</ns3:cad>
          </ns3:TrackPointExtension>
        </extensions>
      </trkpt>
      <trkpt lat="38.0444421060383319854736328125" lon="-106.94183302111923694610595703125">
        <ele>3946</ele>
        <time>2026-05-25T13:07:33.000Z</time>
        <extensions>
          <ns3:TrackPointExtension>
            <ns3:hr>107</ns3:hr>
            <ns3:cad>0</ns3:cad>
          </ns3:TrackPointExtension>
        </extensions>
      </trkpt>
      <trkpt lat="38.0444565229117870330810546875" lon="-106.94182983599603176116943359375">
        <ele>3945.800048828125</ele>
        <time>2026-05-25T13:07:36.000Z</time>
        <extensions>
          <ns3:TrackPointExtension>
            <ns3:hr>108</ns3:hr>
            <ns3:cad>0</ns3:cad>
          </ns3:TrackPointExtension>
        </extensions>
      </trkpt>
      <trkpt lat="38.0444565229117870330810546875" lon="-106.94182983599603176116943359375">
        <ele>3945.39990234375</ele>
        <time>2026-05-25T13:07:42.000Z</time>
        <extensions>
          <ns3:TrackPointExtension>
            <ns3:hr>111</ns3:hr>
            <ns3:cad>0</ns3:cad>
          </ns3:TrackPointExtension>
        </extensions>
      </trkpt>
      <trkpt lat="38.04446297697722911834716796875" lon="-106.941828243434429168701171875">
        <ele>3945.60009765625</ele>
        <time>2026-05-25T13:07:48.000Z</time>
        <extensions>
          <ns3:TrackPointExtension>
            <ns3:hr>110</ns3:hr>
            <ns3:cad>0</ns3:cad>
          </ns3:TrackPointExtension>
        </extensions>
      </trkpt>
      <trkpt lat="38.04444470442831516265869140625" lon="-106.941810809075832366943359375">
        <ele>3947</ele>
        <time>2026-05-25T13:07:54.000Z</time>
        <extensions>
          <ns3:TrackPointExtension>
            <ns3:hr>111</ns3:hr>
            <ns3:cad>0</ns3:cad>
          </ns3:TrackPointExtension>
        </extensions>
      </trkpt>
      <trkpt lat="38.0444233305752277374267578125" lon="-106.9417870044708251953125">
        <ele>3948</ele>
        <time>2026-05-25T13:07:59.000Z</time>
        <extensions>
          <ns3:TrackPointExtension>
            <ns3:hr>112</ns3:hr>
            <ns3:cad>0</ns3:cad>
          </ns3:TrackPointExtension>
        </extensions>
      </trkpt>
      <trkpt lat="38.04439558647572994232177734375" lon="-106.94178608246147632598876953125">
        <ele>3948.39990234375</ele>
        <time>2026-05-25T13:08:01.000Z</time>
        <extensions>
          <ns3:TrackPointExtension>
            <ns3:hr>112</ns3:hr>
            <ns3:cad>0</ns3:cad>
          </ns3:TrackPointExtension>
        </extensions>
      </trkpt>
      <trkpt lat="38.04436323232948780059814453125" lon="-106.94176353514194488525390625">
        <ele>3949</ele>
        <time>2026-05-25T13:08:05.000Z</time>
        <extensions>
          <ns3:TrackPointExtension>
            <ns3:hr>110</ns3:hr>
            <ns3:cad>0</ns3:cad>
          </ns3:TrackPointExtension>
        </extensions>
      </trkpt>
      <trkpt lat="38.044357784092426300048828125" lon="-106.941753141582012176513671875">
        <ele>3949.199951171875</ele>
        <time>2026-05-25T13:08:06.000Z</time>
        <extensions>
          <ns3:TrackPointExtension>
            <ns3:hr>110</ns3:hr>
            <ns3:cad>0</ns3:cad>
          </ns3:TrackPointExtension>
        </extensions>
      </trkpt>
      <trkpt lat="38.04435065947473049163818359375" lon="-106.94174417294561862945556640625">
        <ele>3949.199951171875</ele>
        <time>2026-05-25T13:08:07.000Z</time>
        <extensions>
          <ns3:TrackPointExtension>
            <ns3:hr>111</ns3:hr>
            <ns3:cad>0</ns3:cad>
          </ns3:TrackPointExtension>
        </extensions>
      </trkpt>
      <trkpt lat="38.0443234182894229888916015625" lon="-106.941712908446788787841796875">
        <ele>3950.199951171875</ele>
        <time>2026-05-25T13:08:13.000Z</time>
        <extensions>
          <ns3:TrackPointExtension>
            <ns3:hr>113</ns3:hr>
            <ns3:cad>0</ns3:cad>
          </ns3:TrackPointExtension>
        </extensions>
      </trkpt>
      <trkpt lat="38.04431394673883914947509765625" lon="-106.94170025177299976348876953125">
        <ele>3951</ele>
        <time>2026-05-25T13:08:17.000Z</time>
        <extensions>
          <ns3:TrackPointExtension>
            <ns3:hr>116</ns3:hr>
            <ns3:cad>0</ns3:cad>
          </ns3:TrackPointExtension>
        </extensions>
      </trkpt>
      <trkpt lat="38.04430120624601840972900390625" lon="-106.94169924594461917877197265625">
        <ele>3951.199951171875</ele>
        <time>2026-05-25T13:08:19.000Z</time>
        <extensions>
          <ns3:TrackPointExtension>
            <ns3:hr>117</ns3:hr>
            <ns3:cad>0</ns3:cad>
          </ns3:TrackPointExtension>
        </extensions>
      </trkpt>
      <trkpt lat="38.04430020041763782501220703125" lon="-106.94169941358268260955810546875">
        <ele>3951.199951171875</ele>
        <time>2026-05-25T13:08:21.000Z</time>
        <extensions>
          <ns3:TrackPointExtension>
            <ns3:hr>117</ns3:hr>
            <ns3:cad>0</ns3:cad>
          </ns3:TrackPointExtension>
        </extensions>
      </trkpt>
      <trkpt lat="38.0442751385271549224853515625" lon="-106.94167946465313434600830078125">
        <ele>3951.800048828125</ele>
        <time>2026-05-25T13:08:25.000Z</time>
        <extensions>
          <ns3:TrackPointExtension>
            <ns3:hr>116</ns3:hr>
            <ns3:cad>0</ns3:cad>
          </ns3:TrackPointExtension>
        </extensions>
      </trkpt>
      <trkpt lat="38.044260554015636444091796875" lon="-106.9416730105876922607421875">
        <ele>3952.39990234375</ele>
        <time>2026-05-25T13:08:27.000Z</time>
        <extensions>
          <ns3:TrackPointExtension>
            <ns3:hr>117</ns3:hr>
            <ns3:cad>0</ns3:cad>
          </ns3:TrackPointExtension>
        </extensions>
      </trkpt>
      <trkpt lat="38.04424068890511989593505859375" lon="-106.9416569173336029052734375">
        <ele>3953</ele>
        <time>2026-05-25T13:08:30.000Z</time>
        <extensions>
          <ns3:TrackPointExtension>
            <ns3:hr>120</ns3:hr>
            <ns3:cad>0</ns3:cad>
          </ns3:TrackPointExtension>
        </extensions>
      </trkpt>
      <trkpt lat="38.044229708611965179443359375" lon="-106.94165029563009738922119140625">
        <ele>3953.39990234375</ele>
        <time>2026-05-25T13:08:32.000Z</time>
        <extensions>
          <ns3:TrackPointExtension>
            <ns3:hr>119</ns3:hr>
            <ns3:cad>0</ns3:cad>
          </ns3:TrackPointExtension>
        </extensions>
      </trkpt>
      <trkpt lat="38.04421135224401950836181640625" lon="-106.9416450150310993194580078125">
        <ele>3953.800048828125</ele>
        <time>2026-05-25T13:08:34.000Z</time>
        <extensions>
          <ns3:TrackPointExtension>
            <ns3:hr>118</ns3:hr>
            <ns3:cad>0</ns3:cad>
          </ns3:TrackPointExtension>
        </extensions>
      </trkpt>
      <trkpt lat="38.0441993661224842071533203125" lon="-106.94164493121206760406494140625">
        <ele>3953.800048828125</ele>
        <time>2026-05-25T13:08:40.000Z</time>
        <extensions>
          <ns3:TrackPointExtension>
            <ns3:hr>118</ns3:hr>
            <ns3:cad>0</ns3:cad>
          </ns3:TrackPointExtension>
        </extensions>
      </trkpt>
      <trkpt lat="38.04417799226939678192138671875" lon="-106.941624395549297332763671875">
        <ele>3954.60009765625</ele>
        <time>2026-05-25T13:08:46.000Z</time>
        <extensions>
          <ns3:TrackPointExtension>
            <ns3:hr>118</ns3:hr>
            <ns3:cad>0</ns3:cad>
          </ns3:TrackPointExtension>
        </extensions>
      </trkpt>
      <trkpt lat="38.04417346604168415069580078125" lon="-106.94162062369287014007568359375">
        <ele>3954.800048828125</ele>
        <time>2026-05-25T13:08:47.000Z</time>
        <extensions>
          <ns3:TrackPointExtension>
            <ns3:hr>118</ns3:hr>
            <ns3:cad>0</ns3:cad>
          </ns3:TrackPointExtension>
        </extensions>
      </trkpt>
      <trkpt lat="38.04414932616055011749267578125" lon="-106.94160151295363903045654296875">
        <ele>3955.800048828125</ele>
        <time>2026-05-25T13:08:53.000Z</time>
        <extensions>
          <ns3:TrackPointExtension>
            <ns3:hr>118</ns3:hr>
            <ns3:cad>0</ns3:cad>
          </ns3:TrackPointExtension>
        </extensions>
      </trkpt>
      <trkpt lat="38.044097609817981719970703125" lon="-106.94157351739704608917236328125">
        <ele>3956.800048828125</ele>
        <time>2026-05-25T13:08:59.000Z</time>
        <extensions>
          <ns3:TrackPointExtension>
            <ns3:hr>118</ns3:hr>
            <ns3:cad>0</ns3:cad>
          </ns3:TrackPointExtension>
        </extensions>
      </trkpt>
      <trkpt lat="38.04409283213317394256591796875" lon="-106.94157217629253864288330078125">
        <ele>3957</ele>
        <time>2026-05-25T13:09:01.000Z</time>
        <extensions>
          <ns3:TrackPointExtension>
            <ns3:hr>119</ns3:hr>
            <ns3:cad>0</ns3:cad>
          </ns3:TrackPointExtension>
        </extensions>
      </trkpt>
      <trkpt lat="38.0440598912537097930908203125" lon="-106.9415682367980480194091796875">
        <ele>3957.199951171875</ele>
        <time>2026-05-25T13:09:06.000Z</time>
        <extensions>
          <ns3:TrackPointExtension>
            <ns3:hr>118</ns3:hr>
            <ns3:cad>0</ns3:cad>
          </ns3:TrackPointExtension>
        </extensions>
      </trkpt>
      <trkpt lat="38.044050671160221099853515625" lon="-106.94156278856098651885986328125">
        <ele>3958</ele>
        <time>2026-05-25T13:09:10.000Z</time>
        <extensions>
          <ns3:TrackPointExtension>
            <ns3:hr>120</ns3:hr>
            <ns3:cad>18</ns3:cad>
          </ns3:TrackPointExtension>
        </extensions>
      </trkpt>
      <trkpt lat="38.04403399117290973663330078125" lon="-106.9415554963052272796630859375">
        <ele>3958.800048828125</ele>
        <time>2026-05-25T13:09:14.000Z</time>
        <extensions>
          <ns3:TrackPointExtension>
            <ns3:hr>119</ns3:hr>
            <ns3:cad>0</ns3:cad>
          </ns3:TrackPointExtension>
        </extensions>
      </trkpt>
      <trkpt lat="38.04403365589678287506103515625" lon="-106.94155842997133731842041015625">
        <ele>3959</ele>
        <time>2026-05-25T13:09:15.000Z</time>
        <extensions>
          <ns3:TrackPointExtension>
            <ns3:hr>118</ns3:hr>
            <ns3:cad>0</ns3:cad>
          </ns3:TrackPointExtension>
        </extensions>
      </trkpt>
      <trkpt lat="38.04401504807174205780029296875" lon="-106.94155004806816577911376953125">
        <ele>3960</ele>
        <time>2026-05-25T13:09:20.000Z</time>
        <extensions>
          <ns3:TrackPointExtension>
            <ns3:hr>116</ns3:hr>
            <ns3:cad>0</ns3:cad>
          </ns3:TrackPointExtension>
        </extensions>
      </trkpt>
      <trkpt lat="38.0440126173198223114013671875" lon="-106.94155029952526092529296875">
        <ele>3960.199951171875</ele>
        <time>2026-05-25T13:09:21.000Z</time>
        <extensions>
          <ns3:TrackPointExtension>
            <ns3:hr>116</ns3:hr>
            <ns3:cad>0</ns3:cad>
          </ns3:TrackPointExtension>
        </extensions>
      </trkpt>
      <trkpt lat="38.0440049059689044952392578125" lon="-106.94153948687016963958740234375">
        <ele>3961</ele>
        <time>2026-05-25T13:09:27.000Z</time>
        <extensions>
          <ns3:TrackPointExtension>
            <ns3:hr>116</ns3:hr>
            <ns3:cad>0</ns3:cad>
          </ns3:TrackPointExtension>
        </extensions>
      </trkpt>
      <trkpt lat="38.04400213994085788726806640625" lon="-106.941539235413074493408203125">
        <ele>3961.199951171875</ele>
        <time>2026-05-25T13:09:28.000Z</time>
        <extensions>
          <ns3:TrackPointExtension>
            <ns3:hr>115</ns3:hr>
            <ns3:cad>0</ns3:cad>
          </ns3:TrackPointExtension>
        </extensions>
      </trkpt>
      <trkpt lat="38.04398202337324619293212890625" lon="-106.94151216186583042144775390625">
        <ele>3962.199951171875</ele>
        <time>2026-05-25T13:09:33.000Z</time>
        <extensions>
          <ns3:TrackPointExtension>
            <ns3:hr>114</ns3:hr>
            <ns3:cad>0</ns3:cad>
          </ns3:TrackPointExtension>
        </extensions>
      </trkpt>
      <trkpt lat="38.0439738929271697998046875" lon="-106.941499002277851104736328125">
        <ele>3962.39990234375</ele>
        <time>2026-05-25T13:09:35.000Z</time>
        <extensions>
          <ns3:TrackPointExtension>
            <ns3:hr>117</ns3:hr>
            <ns3:cad>0</ns3:cad>
          </ns3:TrackPointExtension>
        </extensions>
      </trkpt>
      <trkpt lat="38.0439492501318454742431640625" lon="-106.94148383103311061859130859375">
        <ele>3962.800048828125</ele>
        <time>2026-05-25T13:09:38.000Z</time>
        <extensions>
          <ns3:TrackPointExtension>
            <ns3:hr>120</ns3:hr>
            <ns3:cad>0</ns3:cad>
          </ns3:TrackPointExtension>
        </extensions>
      </trkpt>
      <trkpt lat="38.04394396953284740447998046875" lon="-106.9414820708334445953369140625">
        <ele>3962.800048828125</ele>
        <time>2026-05-25T13:09:39.000Z</time>
        <extensions>
          <ns3:TrackPointExtension>
            <ns3:hr>120</ns3:hr>
            <ns3:cad>0</ns3:cad>
          </ns3:TrackPointExtension>
        </extensions>
      </trkpt>
      <trkpt lat="38.04391899146139621734619140625" lon="-106.9414713419973850250244140625">
        <ele>3963.60009765625</ele>
        <time>2026-05-25T13:09:42.000Z</time>
        <extensions>
          <ns3:TrackPointExtension>
            <ns3:hr>120</ns3:hr>
            <ns3:cad>0</ns3:cad>
          </ns3:TrackPointExtension>
        </extensions>
      </trkpt>
      <trkpt lat="38.0439113639295101165771484375" lon="-106.9414740242063999176025390625">
        <ele>3964.199951171875</ele>
        <time>2026-05-25T13:09:45.000Z</time>
        <extensions>
          <ns3:TrackPointExtension>
            <ns3:hr>121</ns3:hr>
            <ns3:cad>0</ns3:cad>
          </ns3:TrackPointExtension>
        </extensions>
      </trkpt>
      <trkpt lat="38.043908178806304931640625" lon="-106.94147896952927112579345703125">
        <ele>3964.800048828125</ele>
        <time>2026-05-25T13:09:49.000Z</time>
        <extensions>
          <ns3:TrackPointExtension>
            <ns3:hr>123</ns3:hr>
            <ns3:cad>0</ns3:cad>
          </ns3:TrackPointExtension>
        </extensions>
      </trkpt>
      <trkpt lat="38.0439148843288421630859375" lon="-106.94148886017501354217529296875">
        <ele>3965</ele>
        <time>2026-05-25T13:09:51.000Z</time>
        <extensions>
          <ns3:TrackPointExtension>
            <ns3:hr>123</ns3:hr>
            <ns3:cad>0</ns3:cad>
          </ns3:TrackPointExtension>
        </extensions>
      </trkpt>
      <trkpt lat="38.0439167283475399017333984375" lon="-106.94148994982242584228515625">
        <ele>3964.800048828125</ele>
        <time>2026-05-25T13:09:54.000Z</time>
        <extensions>
          <ns3:TrackPointExtension>
            <ns3:hr>126</ns3:hr>
            <ns3:cad>0</ns3:cad>
          </ns3:TrackPointExtension>
        </extensions>
      </trkpt>
      <trkpt lat="38.04391362704336643218994140625" lon="-106.94146019406616687774658203125">
        <ele>3965</ele>
        <time>2026-05-25T13:09:59.000Z</time>
        <extensions>
          <ns3:TrackPointExtension>
            <ns3:hr>127</ns3:hr>
            <ns3:cad>0</ns3:cad>
          </ns3:TrackPointExtension>
        </extensions>
      </trkpt>
      <trkpt lat="38.04390692152082920074462890625" lon="-106.94143764674663543701171875">
        <ele>3965.39990234375</ele>
        <time>2026-05-25T13:10:02.000Z</time>
        <extensions>
          <ns3:TrackPointExtension>
            <ns3:hr>130</ns3:hr>
            <ns3:cad>0</ns3:cad>
          </ns3:TrackPointExtension>
        </extensions>
      </trkpt>
      <trkpt lat="38.04390055127441883087158203125" lon="-106.941405124962329864501953125">
        <ele>3966</ele>
        <time>2026-05-25T13:10:04.000Z</time>
        <extensions>
          <ns3:TrackPointExtension>
            <ns3:hr>131</ns3:hr>
            <ns3:cad>0</ns3:cad>
          </ns3:TrackPointExtension>
        </extensions>
      </trkpt>
      <trkpt lat="38.043891750276088714599609375" lon="-106.941379643976688385009765625">
        <ele>3966.60009765625</ele>
        <time>2026-05-25T13:10:07.000Z</time>
        <extensions>
          <ns3:TrackPointExtension>
            <ns3:hr>133</ns3:hr>
            <ns3:cad>0</ns3:cad>
          </ns3:TrackPointExtension>
        </extensions>
      </trkpt>
      <trkpt lat="38.0438821949064731597900390625" lon="-106.94136732257902622222900390625">
        <ele>3966.800048828125</ele>
        <time>2026-05-25T13:10:08.000Z</time>
        <extensions>
          <ns3:TrackPointExtension>
            <ns3:hr>134</ns3:hr>
            <ns3:cad>0</ns3:cad>
          </ns3:TrackPointExtension>
        </extensions>
      </trkpt>
      <trkpt lat="38.04387356154620647430419921875" lon="-106.941361539065837860107421875">
        <ele>3967</ele>
        <time>2026-05-25T13:10:10.000Z</time>
        <extensions>
          <ns3:TrackPointExtension>
            <ns3:hr>135</ns3:hr>
            <ns3:cad>0</ns3:cad>
          </ns3:TrackPointExtension>
        </extensions>
      </trkpt>
      <trkpt lat="38.043843470513820648193359375" lon="-106.94134167395532131195068359375">
        <ele>3967.199951171875</ele>
        <time>2026-05-25T13:10:13.000Z</time>
        <extensions>
          <ns3:TrackPointExtension>
            <ns3:hr>135</ns3:hr>
            <ns3:cad>0</ns3:cad>
          </ns3:TrackPointExtension>
        </extensions>
      </trkpt>
      <trkpt lat="38.043827377259731292724609375" lon="-106.9413323700428009033203125">
        <ele>3968</ele>
        <time>2026-05-25T13:10:18.000Z</time>
        <extensions>
          <ns3:TrackPointExtension>
            <ns3:hr>134</ns3:hr>
            <ns3:cad>73</ns3:cad>
          </ns3:TrackPointExtension>
        </extensions>
      </trkpt>
      <trkpt lat="38.04381765425205230712890625" lon="-106.94132491014897823333740234375">
        <ele>3968</ele>
        <time>2026-05-25T13:10:21.000Z</time>
        <extensions>
          <ns3:TrackPointExtension>
            <ns3:hr>133</ns3:hr>
            <ns3:cad>0</ns3:cad>
          </ns3:TrackPointExtension>
        </extensions>
      </trkpt>
      <trkpt lat="38.04380667395889759063720703125" lon="-106.94131560623645782470703125">
        <ele>3969.199951171875</ele>
        <time>2026-05-25T13:10:26.000Z</time>
        <extensions>
          <ns3:TrackPointExtension>
            <ns3:hr>131</ns3:hr>
            <ns3:cad>0</ns3:cad>
          </ns3:TrackPointExtension>
        </extensions>
      </trkpt>
      <trkpt lat="38.04380281828343868255615234375" lon="-106.94131158292293548583984375">
        <ele>3969.199951171875</ele>
        <time>2026-05-25T13:10:27.000Z</time>
        <extensions>
          <ns3:TrackPointExtension>
            <ns3:hr>131</ns3:hr>
            <ns3:cad>0</ns3:cad>
          </ns3:TrackPointExtension>
        </extensions>
      </trkpt>
      <trkpt lat="38.04373048245906829833984375" lon="-106.941297166049480438232421875">
        <ele>3970</ele>
        <time>2026-05-25T13:10:33.000Z</time>
        <extensions>
          <ns3:TrackPointExtension>
            <ns3:hr>128</ns3:hr>
            <ns3:cad>0</ns3:cad>
          </ns3:TrackPointExtension>
        </extensions>
      </trkpt>
      <trkpt lat="38.04372780025005340576171875" lon="-106.9412929750978946685791015625">
        <ele>3970.199951171875</ele>
        <time>2026-05-25T13:10:34.000Z</time>
        <extensions>
          <ns3:TrackPointExtension>
            <ns3:hr>128</ns3:hr>
            <ns3:cad>0</ns3:cad>
          </ns3:TrackPointExtension>
        </extensions>
      </trkpt>
      <trkpt lat="38.04373609833419322967529296875" lon="-106.941289789974689483642578125">
        <ele>3970</ele>
        <time>2026-05-25T13:10:38.000Z</time>
        <extensions>
          <ns3:TrackPointExtension>
            <ns3:hr>127</ns3:hr>
            <ns3:cad>0</ns3:cad>
          </ns3:TrackPointExtension>
        </extensions>
      </trkpt>
      <trkpt lat="38.04373609833419322967529296875" lon="-106.941289789974689483642578125">
        <ele>3969.60009765625</ele>
        <time>2026-05-25T13:10:44.000Z</time>
        <extensions>
          <ns3:TrackPointExtension>
            <ns3:hr>125</ns3:hr>
            <ns3:cad>0</ns3:cad>
          </ns3:TrackPointExtension>
        </extensions>
      </trkpt>
      <trkpt lat="38.0437209270894527435302734375" lon="-106.94129691459238529205322265625">
        <ele>3970</ele>
        <time>2026-05-25T13:10:49.000Z</time>
        <extensions>
          <ns3:TrackPointExtension>
            <ns3:hr>124</ns3:hr>
            <ns3:cad>0</ns3:cad>
          </ns3:TrackPointExtension>
        </extensions>
      </trkpt>
      <trkpt lat="38.0437021516263484954833984375" lon="-106.9412996806204319000244140625">
        <ele>3971</ele>
        <time>2026-05-25T13:10:52.000Z</time>
        <extensions>
          <ns3:TrackPointExtension>
            <ns3:hr>120</ns3:hr>
            <ns3:cad>0</ns3:cad>
          </ns3:TrackPointExtension>
        </extensions>
      </trkpt>
      <trkpt lat="38.0437021516263484954833984375" lon="-106.9412996806204319000244140625">
        <ele>3971.39990234375</ele>
        <time>2026-05-25T13:10:53.000Z</time>
        <extensions>
          <ns3:TrackPointExtension>
            <ns3:hr>120</ns3:hr>
            <ns3:cad>0</ns3:cad>
          </ns3:TrackPointExtension>
        </extensions>
      </trkpt>
      <trkpt lat="38.04367088712751865386962890625" lon="-106.94129691459238529205322265625">
        <ele>3972.199951171875</ele>
        <time>2026-05-25T13:10:57.000Z</time>
        <extensions>
          <ns3:TrackPointExtension>
            <ns3:hr>120</ns3:hr>
            <ns3:cad>0</ns3:cad>
          </ns3:TrackPointExtension>
        </extensions>
      </trkpt>
      <trkpt lat="38.043655715882778167724609375" lon="-106.94129808805882930755615234375">
        <ele>3972.60009765625</ele>
        <time>2026-05-25T13:11:00.000Z</time>
        <extensions>
          <ns3:TrackPointExtension>
            <ns3:hr>120</ns3:hr>
            <ns3:cad>0</ns3:cad>
          </ns3:TrackPointExtension>
        </extensions>
      </trkpt>
      <trkpt lat="38.04363283328711986541748046875" lon="-106.94125835783779621124267578125">
        <ele>3973</ele>
        <time>2026-05-25T13:11:05.000Z</time>
        <extensions>
          <ns3:TrackPointExtension>
            <ns3:hr>118</ns3:hr>
            <ns3:cad>0</ns3:cad>
          </ns3:TrackPointExtension>
        </extensions>
      </trkpt>
      <trkpt lat="38.0435930192470550537109375" lon="-106.9412503950297832489013671875">
        <ele>3973.39990234375</ele>
        <time>2026-05-25T13:11:11.000Z</time>
        <extensions>
          <ns3:TrackPointExtension>
            <ns3:hr>117</ns3:hr>
            <ns3:cad>0</ns3:cad>
          </ns3:TrackPointExtension>
        </extensions>
      </trkpt>
      <trkpt lat="38.04358254186809062957763671875" lon="-106.94124863483011722564697265625">
        <ele>3973.39990234375</ele>
        <time>2026-05-25T13:11:12.000Z</time>
        <extensions>
          <ns3:TrackPointExtension>
            <ns3:hr>118</ns3:hr>
            <ns3:cad>0</ns3:cad>
          </ns3:TrackPointExtension>
        </extensions>
      </trkpt>
      <trkpt lat="38.0435777641832828521728515625" lon="-106.94124989211559295654296875">
        <ele>3973.800048828125</ele>
        <time>2026-05-25T13:11:14.000Z</time>
        <extensions>
          <ns3:TrackPointExtension>
            <ns3:hr>117</ns3:hr>
            <ns3:cad>0</ns3:cad>
          </ns3:TrackPointExtension>
        </extensions>
      </trkpt>
      <trkpt lat="38.04354004561901092529296875" lon="-106.94125592708587646484375">
        <ele>3975</ele>
        <time>2026-05-25T13:11:18.000Z</time>
        <extensions>
          <ns3:TrackPointExtension>
            <ns3:hr>117</ns3:hr>
            <ns3:cad>0</ns3:cad>
          </ns3:TrackPointExtension>
        </extensions>
      </trkpt>
      <trkpt lat="38.04352453909814357757568359375" lon="-106.9412658177316188812255859375">
        <ele>3975.39990234375</ele>
        <time>2026-05-25T13:11:21.000Z</time>
        <extensions>
          <ns3:TrackPointExtension>
            <ns3:hr>117</ns3:hr>
            <ns3:cad>0</ns3:cad>
          </ns3:TrackPointExtension>
        </extensions>
      </trkpt>
      <trkpt lat="38.0435013212263584136962890625" lon="-106.9412839226424694061279296875">
        <ele>3976</ele>
        <time>2026-05-25T13:11:27.000Z</time>
        <extensions>
          <ns3:TrackPointExtension>
            <ns3:hr>115</ns3:hr>
            <ns3:cad>0</ns3:cad>
          </ns3:TrackPointExtension>
        </extensions>
      </trkpt>
      <trkpt lat="38.04346184246242046356201171875" lon="-106.94130261428654193878173828125">
        <ele>3976.800048828125</ele>
        <time>2026-05-25T13:11:33.000Z</time>
        <extensions>
          <ns3:TrackPointExtension>
            <ns3:hr>114</ns3:hr>
            <ns3:cad>0</ns3:cad>
          </ns3:TrackPointExtension>
        </extensions>
      </trkpt>
      <trkpt lat="38.04342932067811489105224609375" lon="-106.94133530370891094207763671875">
        <ele>3977</ele>
        <time>2026-05-25T13:11:38.000Z</time>
        <extensions>
          <ns3:TrackPointExtension>
            <ns3:hr>116</ns3:hr>
            <ns3:cad>0</ns3:cad>
          </ns3:TrackPointExtension>
        </extensions>
      </trkpt>
      <trkpt lat="38.0434245429933071136474609375" lon="-106.94133463315665721893310546875">
        <ele>3977.199951171875</ele>
        <time>2026-05-25T13:11:39.000Z</time>
        <extensions>
          <ns3:TrackPointExtension>
            <ns3:hr>116</ns3:hr>
            <ns3:cad>0</ns3:cad>
          </ns3:TrackPointExtension>
        </extensions>
      </trkpt>
      <trkpt lat="38.0434020794928073883056640625" lon="-106.9413261674344539642333984375">
        <ele>3978</ele>
        <time>2026-05-25T13:11:45.000Z</time>
        <extensions>
          <ns3:TrackPointExtension>
            <ns3:hr>118</ns3:hr>
            <ns3:cad>0</ns3:cad>
          </ns3:TrackPointExtension>
        </extensions>
      </trkpt>
      <trkpt lat="38.04339562542736530303955078125" lon="-106.94132457487285137176513671875">
        <ele>3978.199951171875</ele>
        <time>2026-05-25T13:11:46.000Z</time>
        <extensions>
          <ns3:TrackPointExtension>
            <ns3:hr>119</ns3:hr>
            <ns3:cad>0</ns3:cad>
          </ns3:TrackPointExtension>
        </extensions>
      </trkpt>
      <trkpt lat="38.0433672107756137847900390625" lon="-106.9413308613002300262451171875">
        <ele>3979.39990234375</ele>
        <time>2026-05-25T13:11:50.000Z</time>
        <extensions>
          <ns3:TrackPointExtension>
            <ns3:hr>120</ns3:hr>
            <ns3:cad>0</ns3:cad>
          </ns3:TrackPointExtension>
        </extensions>
      </trkpt>
      <trkpt lat="38.043371737003326416015625" lon="-106.94133228622376918792724609375">
        <ele>3979.199951171875</ele>
        <time>2026-05-25T13:11:56.000Z</time>
        <extensions>
          <ns3:TrackPointExtension>
            <ns3:hr>119</ns3:hr>
            <ns3:cad>0</ns3:cad>
          </ns3:TrackPointExtension>
        </extensions>
      </trkpt>
      <trkpt lat="38.043371737003326416015625" lon="-106.94133228622376918792724609375">
        <ele>3978.800048828125</ele>
        <time>2026-05-25T13:11:59.000Z</time>
        <extensions>
          <ns3:TrackPointExtension>
            <ns3:hr>118</ns3:hr>
            <ns3:cad>0</ns3:cad>
          </ns3:TrackPointExtension>
        </extensions>
      </trkpt>
      <trkpt lat="38.043371737003326416015625" lon="-106.94133228622376918792724609375">
        <ele>3979</ele>
        <time>2026-05-25T13:12:05.000Z</time>
        <extensions>
          <ns3:TrackPointExtension>
            <ns3:hr>119</ns3:hr>
            <ns3:cad>0</ns3:cad>
          </ns3:TrackPointExtension>
        </extensions>
      </trkpt>
      <trkpt lat="38.043371737003326416015625" lon="-106.94133228622376918792724609375">
        <ele>3979</ele>
        <time>2026-05-25T13:12:11.000Z</time>
        <extensions>
          <ns3:TrackPointExtension>
            <ns3:hr>119</ns3:hr>
            <ns3:cad>0</ns3:cad>
          </ns3:TrackPointExtension>
        </extensions>
      </trkpt>
      <trkpt lat="38.043371737003326416015625" lon="-106.94133228622376918792724609375">
        <ele>3979</ele>
        <time>2026-05-25T13:12:17.000Z</time>
        <extensions>
          <ns3:TrackPointExtension>
            <ns3:hr>119</ns3:hr>
            <ns3:cad>0</ns3:cad>
          </ns3:TrackPointExtension>
        </extensions>
      </trkpt>
      <trkpt lat="38.043371737003326416015625" lon="-106.94133228622376918792724609375">
        <ele>3979</ele>
        <time>2026-05-25T13:12:19.000Z</time>
        <extensions>
          <ns3:TrackPointExtension>
            <ns3:hr>115</ns3:hr>
            <ns3:cad>0</ns3:cad>
          </ns3:TrackPointExtension>
        </extensions>
      </trkpt>
      <trkpt lat="38.043371737003326416015625" lon="-106.94133228622376918792724609375">
        <ele>3978.800048828125</ele>
        <time>2026-05-25T13:12:20.000Z</time>
        <extensions>
          <ns3:TrackPointExtension>
            <ns3:hr>112</ns3:hr>
            <ns3:cad>0</ns3:cad>
          </ns3:TrackPointExtension>
        </extensions>
      </trkpt>
      <trkpt lat="38.04335975088179111480712890625" lon="-106.9413305260241031646728515625">
        <ele>3979.199951171875</ele>
        <time>2026-05-25T13:12:26.000Z</time>
        <extensions>
          <ns3:TrackPointExtension>
            <ns3:hr>110</ns3:hr>
            <ns3:cad>0</ns3:cad>
          </ns3:TrackPointExtension>
        </extensions>
      </trkpt>
      <trkpt lat="38.04335354827344417572021484375" lon="-106.9413254968822002410888671875">
        <ele>3979.800048828125</ele>
        <time>2026-05-25T13:12:29.000Z</time>
        <extensions>
          <ns3:TrackPointExtension>
            <ns3:hr>113</ns3:hr>
            <ns3:cad>0</ns3:cad>
          </ns3:TrackPointExtension>
        </extensions>
      </trkpt>
      <trkpt lat="38.04333795793354511260986328125" lon="-106.941305212676525115966796875">
        <ele>3980.39990234375</ele>
        <time>2026-05-25T13:12:32.000Z</time>
        <extensions>
          <ns3:TrackPointExtension>
            <ns3:hr>113</ns3:hr>
            <ns3:cad>0</ns3:cad>
          </ns3:TrackPointExtension>
        </extensions>
      </trkpt>
      <trkpt lat="38.0433303304016590118408203125" lon="-106.9412975013256072998046875">
        <ele>3980.39990234375</ele>
        <time>2026-05-25T13:12:33.000Z</time>
        <extensions>
          <ns3:TrackPointExtension>
            <ns3:hr>112</ns3:hr>
            <ns3:cad>0</ns3:cad>
          </ns3:TrackPointExtension>
        </extensions>
      </trkpt>
      <trkpt lat="38.04327995516359806060791015625" lon="-106.94127294234931468963623046875">
        <ele>3981.39990234375</ele>
        <time>2026-05-25T13:12:39.000Z</time>
        <extensions>
          <ns3:TrackPointExtension>
            <ns3:hr>111</ns3:hr>
            <ns3:cad>0</ns3:cad>
          </ns3:TrackPointExtension>
        </extensions>
      </trkpt>
      <trkpt lat="38.04327316582202911376953125" lon="-106.94127512164413928985595703125">
        <ele>3981.39990234375</ele>
        <time>2026-05-25T13:12:40.000Z</time>
        <extensions>
          <ns3:TrackPointExtension>
            <ns3:hr>112</ns3:hr>
            <ns3:cad>0</ns3:cad>
          </ns3:TrackPointExtension>
        </extensions>
      </trkpt>
      <trkpt lat="38.04327090270817279815673828125" lon="-106.9412862695753574371337890625">
        <ele>3981.60009765625</ele>
        <time>2026-05-25T13:12:41.000Z</time>
        <extensions>
          <ns3:TrackPointExtension>
            <ns3:hr>112</ns3:hr>
            <ns3:cad>0</ns3:cad>
          </ns3:TrackPointExtension>
        </extensions>
      </trkpt>
      <trkpt lat="38.0432535521686077117919921875" lon="-106.94128182716667652130126953125">
        <ele>3982.60009765625</ele>
        <time>2026-05-25T13:12:45.000Z</time>
        <extensions>
          <ns3:TrackPointExtension>
            <ns3:hr>113</ns3:hr>
            <ns3:cad>0</ns3:cad>
          </ns3:TrackPointExtension>
        </extensions>
      </trkpt>
      <trkpt lat="38.04324525408446788787841796875" lon="-106.94127981550991535186767578125">
        <ele>3983</ele>
        <time>2026-05-25T13:12:47.000Z</time>
        <extensions>
          <ns3:TrackPointExtension>
            <ns3:hr>113</ns3:hr>
            <ns3:cad>0</ns3:cad>
          </ns3:TrackPointExtension>
        </extensions>
      </trkpt>
      <trkpt lat="38.04322798736393451690673828125" lon="-106.94127411581575870513916015625">
        <ele>3983.800048828125</ele>
        <time>2026-05-25T13:12:52.000Z</time>
        <extensions>
          <ns3:TrackPointExtension>
            <ns3:hr>114</ns3:hr>
            <ns3:cad>0</ns3:cad>
          </ns3:TrackPointExtension>
        </extensions>
      </trkpt>
      <trkpt lat="38.04321373812854290008544921875" lon="-106.94125601090490818023681640625">
        <ele>3984.39990234375</ele>
        <time>2026-05-25T13:12:56.000Z</time>
        <extensions>
          <ns3:TrackPointExtension>
            <ns3:hr>115</ns3:hr>
            <ns3:cad>0</ns3:cad>
          </ns3:TrackPointExtension>
        </extensions>
      </trkpt>
      <trkpt lat="38.04320284165441989898681640625" lon="-106.9412366487085819244384765625">
        <ele>3984.39990234375</ele>
        <time>2026-05-25T13:12:59.000Z</time>
        <extensions>
          <ns3:TrackPointExtension>
            <ns3:hr>119</ns3:hr>
            <ns3:cad>0</ns3:cad>
          </ns3:TrackPointExtension>
        </extensions>
      </trkpt>
      <trkpt lat="38.04318725131452083587646484375" lon="-106.94120320491492748260498046875">
        <ele>3984.39990234375</ele>
        <time>2026-05-25T13:13:01.000Z</time>
        <extensions>
          <ns3:TrackPointExtension>
            <ns3:hr>121</ns3:hr>
            <ns3:cad>0</ns3:cad>
          </ns3:TrackPointExtension>
        </extensions>
      </trkpt>
      <trkpt lat="38.04317736066877841949462890625" lon="-106.94117881357669830322265625">
        <ele>3984.800048828125</ele>
        <time>2026-05-25T13:13:04.000Z</time>
        <extensions>
          <ns3:TrackPointExtension>
            <ns3:hr>121</ns3:hr>
            <ns3:cad>0</ns3:cad>
          </ns3:TrackPointExtension>
        </extensions>
      </trkpt>
      <trkpt lat="38.04316529072821140289306640625" lon="-106.94115526042878627777099609375">
        <ele>3985.39990234375</ele>
        <time>2026-05-25T13:13:07.000Z</time>
        <extensions>
          <ns3:TrackPointExtension>
            <ns3:hr>121</ns3:hr>
            <ns3:cad>0</ns3:cad>
          </ns3:TrackPointExtension>
        </extensions>
      </trkpt>
      <trkpt lat="38.0431502871215343475341796875" lon="-106.9411260075867176055908203125">
        <ele>3985.800048828125</ele>
        <time>2026-05-25T13:13:10.000Z</time>
        <extensions>
          <ns3:TrackPointExtension>
            <ns3:hr>121</ns3:hr>
            <ns3:cad>0</ns3:cad>
          </ns3:TrackPointExtension>
        </extensions>
      </trkpt>
      <trkpt lat="38.0431424081325531005859375" lon="-106.9410867802798748016357421875">
        <ele>3986.39990234375</ele>
        <time>2026-05-25T13:13:13.000Z</time>
        <extensions>
          <ns3:TrackPointExtension>
            <ns3:hr>119</ns3:hr>
            <ns3:cad>0</ns3:cad>
          </ns3:TrackPointExtension>
        </extensions>
      </trkpt>
      <trkpt lat="38.04313528351485729217529296875" lon="-106.94104998372495174407958984375">
        <ele>3987</ele>
        <time>2026-05-25T13:13:17.000Z</time>
        <extensions>
          <ns3:TrackPointExtension>
            <ns3:hr>116</ns3:hr>
            <ns3:cad>0</ns3:cad>
          </ns3:TrackPointExtension>
        </extensions>
      </trkpt>
      <trkpt lat="38.04313528351485729217529296875" lon="-106.94104998372495174407958984375">
        <ele>3987.199951171875</ele>
        <time>2026-05-25T13:13:18.000Z</time>
        <extensions>
          <ns3:TrackPointExtension>
            <ns3:hr>116</ns3:hr>
            <ns3:cad>0</ns3:cad>
          </ns3:TrackPointExtension>
        </extensions>
      </trkpt>
      <trkpt lat="38.04310913197696208953857421875" lon="-106.94098779000341892242431640625">
        <ele>3988</ele>
        <time>2026-05-25T13:13:24.000Z</time>
        <extensions>
          <ns3:TrackPointExtension>
            <ns3:hr>116</ns3:hr>
            <ns3:cad>0</ns3:cad>
          </ns3:TrackPointExtension>
        </extensions>
      </trkpt>
      <trkpt lat="38.04309437982738018035888671875" lon="-106.9409530051052570343017578125">
        <ele>3989.199951171875</ele>
        <time>2026-05-25T13:13:28.000Z</time>
        <extensions>
          <ns3:TrackPointExtension>
            <ns3:hr>117</ns3:hr>
            <ns3:cad>0</ns3:cad>
          </ns3:TrackPointExtension>
        </extensions>
      </trkpt>
      <trkpt lat="38.04308130405843257904052734375" lon="-106.94093649275600910186767578125">
        <ele>3989.39990234375</ele>
        <time>2026-05-25T13:13:31.000Z</time>
        <extensions>
          <ns3:TrackPointExtension>
            <ns3:hr>120</ns3:hr>
            <ns3:cad>0</ns3:cad>
          </ns3:TrackPointExtension>
        </extensions>
      </trkpt>
      <trkpt lat="38.0430503748357295989990234375" lon="-106.94089793600142002105712890625">
        <ele>3990.199951171875</ele>
        <time>2026-05-25T13:13:36.000Z</time>
        <extensions>
          <ns3:TrackPointExtension>
            <ns3:hr>122</ns3:hr>
            <ns3:cad>0</ns3:cad>
          </ns3:TrackPointExtension>
        </extensions>
      </trkpt>
      <trkpt lat="38.04303805343806743621826171875" lon="-106.94089181721210479736328125">
        <ele>3990.39990234375</ele>
        <time>2026-05-25T13:13:37.000Z</time>
        <extensions>
          <ns3:TrackPointExtension>
            <ns3:hr>122</ns3:hr>
            <ns3:cad>0</ns3:cad>
          </ns3:TrackPointExtension>
        </extensions>
      </trkpt>
      <trkpt lat="38.0429906956851482391357421875" lon="-106.9408738799393177032470703125">
        <ele>3991.199951171875</ele>
        <time>2026-05-25T13:13:42.000Z</time>
        <extensions>
          <ns3:TrackPointExtension>
            <ns3:hr>123</ns3:hr>
            <ns3:cad>0</ns3:cad>
          </ns3:TrackPointExtension>
        </extensions>
      </trkpt>
      <trkpt lat="38.0429725907742977142333984375" lon="-106.94087949581444263458251953125">
        <ele>3992.199951171875</ele>
        <time>2026-05-25T13:13:47.000Z</time>
        <extensions>
          <ns3:TrackPointExtension>
            <ns3:hr>123</ns3:hr>
            <ns3:cad>0</ns3:cad>
          </ns3:TrackPointExtension>
        </extensions>
      </trkpt>
      <trkpt lat="38.0429752729833126068115234375" lon="-106.940883100032806396484375">
        <ele>3992.39990234375</ele>
        <time>2026-05-25T13:13:49.000Z</time>
        <extensions>
          <ns3:TrackPointExtension>
            <ns3:hr>121</ns3:hr>
            <ns3:cad>0</ns3:cad>
          </ns3:TrackPointExtension>
        </extensions>
      </trkpt>
      <trkpt lat="38.04296739399433135986328125" lon="-106.94090229459106922149658203125">
        <ele>3992.60009765625</ele>
        <time>2026-05-25T13:13:53.000Z</time>
        <extensions>
          <ns3:TrackPointExtension>
            <ns3:hr>117</ns3:hr>
            <ns3:cad>0</ns3:cad>
          </ns3:TrackPointExtension>
        </extensions>
      </trkpt>
      <trkpt lat="38.04296093992888927459716796875" lon="-106.94090296514332294464111328125">
        <ele>3992.800048828125</ele>
        <time>2026-05-25T13:13:54.000Z</time>
        <extensions>
          <ns3:TrackPointExtension>
            <ns3:hr>115</ns3:hr>
            <ns3:cad>0</ns3:cad>
          </ns3:TrackPointExtension>
        </extensions>
      </trkpt>
      <trkpt lat="38.04295456968247890472412109375" lon="-106.94090900011360645294189453125">
        <ele>3993.39990234375</ele>
        <time>2026-05-25T13:13:56.000Z</time>
        <extensions>
          <ns3:TrackPointExtension>
            <ns3:hr>113</ns3:hr>
            <ns3:cad>0</ns3:cad>
          </ns3:TrackPointExtension>
        </extensions>
      </trkpt>
      <trkpt lat="38.0429471097886562347412109375" lon="-106.94089726544916629791259765625">
        <ele>3993.800048828125</ele>
        <time>2026-05-25T13:13:58.000Z</time>
        <extensions>
          <ns3:TrackPointExtension>
            <ns3:hr>111</ns3:hr>
            <ns3:cad>0</ns3:cad>
          </ns3:TrackPointExtension>
        </extensions>
      </trkpt>
      <trkpt lat="38.0429430864751338958740234375" lon="-106.9408939965069293975830078125">
        <ele>3994.199951171875</ele>
        <time>2026-05-25T13:14:01.000Z</time>
        <extensions>
          <ns3:TrackPointExtension>
            <ns3:hr>111</ns3:hr>
            <ns3:cad>0</ns3:cad>
          </ns3:TrackPointExtension>
        </extensions>
      </trkpt>
      <trkpt lat="38.04293093271553516387939453125" lon="-106.940886117517948150634765625">
        <ele>3994.39990234375</ele>
        <time>2026-05-25T13:14:02.000Z</time>
        <extensions>
          <ns3:TrackPointExtension>
            <ns3:hr>110</ns3:hr>
            <ns3:cad>0</ns3:cad>
          </ns3:TrackPointExtension>
        </extensions>
      </trkpt>
      <trkpt lat="38.0429015122354030609130859375" lon="-106.9408665038645267486572265625">
        <ele>3995.39990234375</ele>
        <time>2026-05-25T13:14:06.000Z</time>
        <extensions>
          <ns3:TrackPointExtension>
            <ns3:hr>110</ns3:hr>
            <ns3:cad>0</ns3:cad>
          </ns3:TrackPointExtension>
        </extensions>
      </trkpt>
      <trkpt lat="38.0428884364664554595947265625" lon="-106.9408601336181163787841796875">
        <ele>3995.60009765625</ele>
        <time>2026-05-25T13:14:07.000Z</time>
        <extensions>
          <ns3:TrackPointExtension>
            <ns3:hr>110</ns3:hr>
            <ns3:cad>0</ns3:cad>
          </ns3:TrackPointExtension>
        </extensions>
      </trkpt>
      <trkpt lat="38.042856417596340179443359375" lon="-106.94083808921277523040771484375">
        <ele>3996</ele>
        <time>2026-05-25T13:14:12.000Z</time>
        <extensions>
          <ns3:TrackPointExtension>
            <ns3:hr>111</ns3:hr>
            <ns3:cad>0</ns3:cad>
          </ns3:TrackPointExtension>
        </extensions>
      </trkpt>
      <trkpt lat="38.042838312685489654541015625" lon="-106.94082501344382762908935546875">
        <ele>3996.39990234375</ele>
        <time>2026-05-25T13:14:15.000Z</time>
        <extensions>
          <ns3:TrackPointExtension>
            <ns3:hr>114</ns3:hr>
            <ns3:cad>57</ns3:cad>
          </ns3:TrackPointExtension>
        </extensions>
      </trkpt>
      <trkpt lat="38.0428287573158740997314453125" lon="-106.940823756158351898193359375">
        <ele>3996.60009765625</ele>
        <time>2026-05-25T13:14:17.000Z</time>
        <extensions>
          <ns3:TrackPointExtension>
            <ns3:hr>115</ns3:hr>
            <ns3:cad>0</ns3:cad>
          </ns3:TrackPointExtension>
        </extensions>
      </trkpt>
      <trkpt lat="38.042813837528228759765625" lon="-106.94082065485417842864990234375">
        <ele>3997</ele>
        <time>2026-05-25T13:14:19.000Z</time>
        <extensions>
          <ns3:TrackPointExtension>
            <ns3:hr>116</ns3:hr>
            <ns3:cad>0</ns3:cad>
          </ns3:TrackPointExtension>
        </extensions>
      </trkpt>
      <trkpt lat="38.042787350714206695556640625" lon="-106.94080791436135768890380859375">
        <ele>3997.60009765625</ele>
        <time>2026-05-25T13:14:23.000Z</time>
        <extensions>
          <ns3:TrackPointExtension>
            <ns3:hr>116</ns3:hr>
            <ns3:cad>0</ns3:cad>
          </ns3:TrackPointExtension>
        </extensions>
      </trkpt>
      <trkpt lat="38.04278072901070117950439453125" lon="-106.94080741144716739654541015625">
        <ele>3998</ele>
        <time>2026-05-25T13:14:25.000Z</time>
        <extensions>
          <ns3:TrackPointExtension>
            <ns3:hr>118</ns3:hr>
            <ns3:cad>0</ns3:cad>
          </ns3:TrackPointExtension>
        </extensions>
      </trkpt>
      <trkpt lat="38.0427714250981807708740234375" lon="-106.9407991133630275726318359375">
        <ele>3998.39990234375</ele>
        <time>2026-05-25T13:14:27.000Z</time>
        <extensions>
          <ns3:TrackPointExtension>
            <ns3:hr>122</ns3:hr>
            <ns3:cad>0</ns3:cad>
          </ns3:TrackPointExtension>
        </extensions>
      </trkpt>
      <trkpt lat="38.04276614449918270111083984375" lon="-106.9407927431166172027587890625">
        <ele>3998.60009765625</ele>
        <time>2026-05-25T13:14:28.000Z</time>
        <extensions>
          <ns3:TrackPointExtension>
            <ns3:hr>125</ns3:hr>
            <ns3:cad>0</ns3:cad>
          </ns3:TrackPointExtension>
        </extensions>
      </trkpt>
      <trkpt lat="38.04276044480502605438232421875" lon="-106.940791569650173187255859375">
        <ele>3998.60009765625</ele>
        <time>2026-05-25T13:14:29.000Z</time>
        <extensions>
          <ns3:TrackPointExtension>
            <ns3:hr>128</ns3:hr>
            <ns3:cad>0</ns3:cad>
          </ns3:TrackPointExtension>
        </extensions>
      </trkpt>
      <trkpt lat="38.0427588522434234619140625" lon="-106.94079349748790264129638671875">
        <ele>3998.800048828125</ele>
        <time>2026-05-25T13:14:30.000Z</time>
        <extensions>
          <ns3:TrackPointExtension>
            <ns3:hr>130</ns3:hr>
            <ns3:cad>0</ns3:cad>
          </ns3:TrackPointExtension>
        </extensions>
      </trkpt>
      <trkpt lat="38.0427588522434234619140625" lon="-106.94079349748790264129638671875">
        <ele>3998.800048828125</ele>
        <time>2026-05-25T13:14:31.000Z</time>
        <extensions>
          <ns3:TrackPointExtension>
            <ns3:hr>131</ns3:hr>
            <ns3:cad>0</ns3:cad>
          </ns3:TrackPointExtension>
        </extensions>
      </trkpt>
      <trkpt lat="38.042752481997013092041015625" lon="-106.940776146948337554931640625">
        <ele>4000</ele>
        <time>2026-05-25T13:14:37.000Z</time>
        <extensions>
          <ns3:TrackPointExtension>
            <ns3:hr>128</ns3:hr>
            <ns3:cad>0</ns3:cad>
          </ns3:TrackPointExtension>
        </extensions>
      </trkpt>
      <trkpt lat="38.04273881949484348297119140625" lon="-106.940766759216785430908203125">
        <ele>4000.60009765625</ele>
        <time>2026-05-25T13:14:39.000Z</time>
        <extensions>
          <ns3:TrackPointExtension>
            <ns3:hr>124</ns3:hr>
            <ns3:cad>0</ns3:cad>
          </ns3:TrackPointExtension>
        </extensions>
      </trkpt>
      <trkpt lat="38.04271585308015346527099609375" lon="-106.94075427018105983734130859375">
        <ele>4000.800048828125</ele>
        <time>2026-05-25T13:14:42.000Z</time>
        <extensions>
          <ns3:TrackPointExtension>
            <ns3:hr>120</ns3:hr>
            <ns3:cad>0</ns3:cad>
          </ns3:TrackPointExtension>
        </extensions>
      </trkpt>
      <trkpt lat="38.04268953390419483184814453125" lon="-106.94074957631528377532958984375">
        <ele>4001.199951171875</ele>
        <time>2026-05-25T13:14:44.000Z</time>
        <extensions>
          <ns3:TrackPointExtension>
            <ns3:hr>120</ns3:hr>
            <ns3:cad>51</ns3:cad>
          </ns3:TrackPointExtension>
        </extensions>
      </trkpt>
      <trkpt lat="38.04267997853457927703857421875" lon="-106.94074756465852260589599609375">
        <ele>4001.60009765625</ele>
        <time>2026-05-25T13:14:46.000Z</time>
        <extensions>
          <ns3:TrackPointExtension>
            <ns3:hr>117</ns3:hr>
            <ns3:cad>51</ns3:cad>
          </ns3:TrackPointExtension>
        </extensions>
      </trkpt>
      <trkpt lat="38.04264913313090801239013671875" lon="-106.9407551921904087066650390625">
        <ele>4002.199951171875</ele>
        <time>2026-05-25T13:14:49.000Z</time>
        <extensions>
          <ns3:TrackPointExtension>
            <ns3:hr>116</ns3:hr>
            <ns3:cad>0</ns3:cad>
          </ns3:TrackPointExtension>
        </extensions>
      </trkpt>
      <trkpt lat="38.04264276288449764251708984375" lon="-106.94075929932296276092529296875">
        <ele>4002.39990234375</ele>
        <time>2026-05-25T13:14:51.000Z</time>
        <extensions>
          <ns3:TrackPointExtension>
            <ns3:hr>116</ns3:hr>
            <ns3:cad>0</ns3:cad>
          </ns3:TrackPointExtension>
        </extensions>
      </trkpt>
      <trkpt lat="38.04262532852590084075927734375" lon="-106.940751336514949798583984375">
        <ele>4003.199951171875</ele>
        <time>2026-05-25T13:14:57.000Z</time>
        <extensions>
          <ns3:TrackPointExtension>
            <ns3:hr>117</ns3:hr>
            <ns3:cad>0</ns3:cad>
          </ns3:TrackPointExtension>
        </extensions>
      </trkpt>
      <trkpt lat="38.04262650199234485626220703125" lon="-106.9407478161156177520751953125">
        <ele>4003.199951171875</ele>
        <time>2026-05-25T13:14:58.000Z</time>
        <extensions>
          <ns3:TrackPointExtension>
            <ns3:hr>117</ns3:hr>
            <ns3:cad>0</ns3:cad>
          </ns3:TrackPointExtension>
        </extensions>
      </trkpt>
      <trkpt lat="38.04262599907815456390380859375" lon="-106.9407390989363193511962890625">
        <ele>4003.60009765625</ele>
        <time>2026-05-25T13:15:00.000Z</time>
        <extensions>
          <ns3:TrackPointExtension>
            <ns3:hr>120</ns3:hr>
            <ns3:cad>0</ns3:cad>
          </ns3:TrackPointExtension>
        </extensions>
      </trkpt>
      <trkpt lat="38.042616359889507293701171875" lon="-106.9407344050705432891845703125">
        <ele>4004.199951171875</ele>
        <time>2026-05-25T13:15:04.000Z</time>
        <extensions>
          <ns3:TrackPointExtension>
            <ns3:hr>122</ns3:hr>
            <ns3:cad>0</ns3:cad>
          </ns3:TrackPointExtension>
        </extensions>
      </trkpt>
      <trkpt lat="38.0426151864230632781982421875" lon="-106.94072912447154521942138671875">
        <ele>4004.39990234375</ele>
        <time>2026-05-25T13:15:05.000Z</time>
        <extensions>
          <ns3:TrackPointExtension>
            <ns3:hr>123</ns3:hr>
            <ns3:cad>0</ns3:cad>
          </ns3:TrackPointExtension>
        </extensions>
      </trkpt>
      <trkpt lat="38.04259322583675384521484375" lon="-106.9406940042972564697265625">
        <ele>4005.199951171875</ele>
        <time>2026-05-25T13:15:10.000Z</time>
        <extensions>
          <ns3:TrackPointExtension>
            <ns3:hr>122</ns3:hr>
            <ns3:cad>0</ns3:cad>
          </ns3:TrackPointExtension>
        </extensions>
      </trkpt>
      <trkpt lat="38.04256414063274860382080078125" lon="-106.94067833013832569122314453125">
        <ele>4005.39990234375</ele>
        <time>2026-05-25T13:15:12.000Z</time>
        <extensions>
          <ns3:TrackPointExtension>
            <ns3:hr>122</ns3:hr>
            <ns3:cad>0</ns3:cad>
          </ns3:TrackPointExtension>
        </extensions>
      </trkpt>
      <trkpt lat="38.0425424315035343170166015625" lon="-106.9406884722411632537841796875">
        <ele>4006</ele>
        <time>2026-05-25T13:15:16.000Z</time>
        <extensions>
          <ns3:TrackPointExtension>
            <ns3:hr>119</ns3:hr>
            <ns3:cad>0</ns3:cad>
          </ns3:TrackPointExtension>
        </extensions>
      </trkpt>
      <trkpt lat="38.04253849200904369354248046875" lon="-106.94068838842213153839111328125">
        <ele>4006.199951171875</ele>
        <time>2026-05-25T13:15:17.000Z</time>
        <extensions>
          <ns3:TrackPointExtension>
            <ns3:hr>118</ns3:hr>
            <ns3:cad>0</ns3:cad>
          </ns3:TrackPointExtension>
        </extensions>
      </trkpt>
      <trkpt lat="38.04252843372523784637451171875" lon="-106.9406874664127826690673828125">
        <ele>4006.39990234375</ele>
        <time>2026-05-25T13:15:20.000Z</time>
        <extensions>
          <ns3:TrackPointExtension>
            <ns3:hr>115</ns3:hr>
            <ns3:cad>0</ns3:cad>
          </ns3:TrackPointExtension>
        </extensions>
      </trkpt>
      <trkpt lat="38.04251653142273426055908203125" lon="-106.940680928528308868408203125">
        <ele>4006.39990234375</ele>
        <time>2026-05-25T13:15:21.000Z</time>
        <extensions>
          <ns3:TrackPointExtension>
            <ns3:hr>114</ns3:hr>
            <ns3:cad>0</ns3:cad>
          </ns3:TrackPointExtension>
        </extensions>
      </trkpt>
      <trkpt lat="38.04248970933258533477783203125" lon="-106.94067279808223247528076171875">
        <ele>4006.800048828125</ele>
        <time>2026-05-25T13:15:24.000Z</time>
        <extensions>
          <ns3:TrackPointExtension>
            <ns3:hr>112</ns3:hr>
            <ns3:cad>0</ns3:cad>
          </ns3:TrackPointExtension>
        </extensions>
      </trkpt>
      <trkpt lat="38.0424606241285800933837890625" lon="-106.9406666792929172515869140625">
        <ele>4007.60009765625</ele>
        <time>2026-05-25T13:15:30.000Z</time>
        <extensions>
          <ns3:TrackPointExtension>
            <ns3:hr>113</ns3:hr>
            <ns3:cad>0</ns3:cad>
          </ns3:TrackPointExtension>
        </extensions>
      </trkpt>
      <trkpt lat="38.0424606241285800933837890625" lon="-106.9406666792929172515869140625">
        <ele>4007.800048828125</ele>
        <time>2026-05-25T13:15:31.000Z</time>
        <extensions>
          <ns3:TrackPointExtension>
            <ns3:hr>113</ns3:hr>
            <ns3:cad>0</ns3:cad>
          </ns3:TrackPointExtension>
        </extensions>
      </trkpt>
      <trkpt lat="38.0424291081726551055908203125" lon="-106.940642036497592926025390625">
        <ele>4008.60009765625</ele>
        <time>2026-05-25T13:15:36.000Z</time>
        <extensions>
          <ns3:TrackPointExtension>
            <ns3:hr>111</ns3:hr>
            <ns3:cad>0</ns3:cad>
          </ns3:TrackPointExtension>
        </extensions>
      </trkpt>
      <trkpt lat="38.04242181591689586639404296875" lon="-106.940640024840831756591796875">
        <ele>4008.800048828125</ele>
        <time>2026-05-25T13:15:37.000Z</time>
        <extensions>
          <ns3:TrackPointExtension>
            <ns3:hr>111</ns3:hr>
            <ns3:cad>0</ns3:cad>
          </ns3:TrackPointExtension>
        </extensions>
      </trkpt>
      <trkpt lat="38.04238133132457733154296875" lon="-106.94063709117472171783447265625">
        <ele>4009.800048828125</ele>
        <time>2026-05-25T13:15:43.000Z</time>
        <extensions>
          <ns3:TrackPointExtension>
            <ns3:hr>113</ns3:hr>
            <ns3:cad>0</ns3:cad>
          </ns3:TrackPointExtension>
        </extensions>
      </trkpt>
      <trkpt lat="38.04235341958701610565185546875" lon="-106.94062686525285243988037109375">
        <ele>4010.60009765625</ele>
        <time>2026-05-25T13:15:49.000Z</time>
        <extensions>
          <ns3:TrackPointExtension>
            <ns3:hr>113</ns3:hr>
            <ns3:cad>0</ns3:cad>
          </ns3:TrackPointExtension>
        </extensions>
      </trkpt>
      <trkpt lat="38.04234688170254230499267578125" lon="-106.94062803871929645538330078125">
        <ele>4010.800048828125</ele>
        <time>2026-05-25T13:15:51.000Z</time>
        <extensions>
          <ns3:TrackPointExtension>
            <ns3:hr>112</ns3:hr>
            <ns3:cad>0</ns3:cad>
          </ns3:TrackPointExtension>
        </extensions>
      </trkpt>
      <trkpt lat="38.0423296988010406494140625" lon="-106.94060976617038249969482421875">
        <ele>4012</ele>
        <time>2026-05-25T13:15:56.000Z</time>
        <extensions>
          <ns3:TrackPointExtension>
            <ns3:hr>114</ns3:hr>
            <ns3:cad>0</ns3:cad>
          </ns3:TrackPointExtension>
        </extensions>
      </trkpt>
      <trkpt lat="38.04231804795563220977783203125" lon="-106.94058428518474102020263671875">
        <ele>4012.60009765625</ele>
        <time>2026-05-25T13:16:00.000Z</time>
        <extensions>
          <ns3:TrackPointExtension>
            <ns3:hr>111</ns3:hr>
            <ns3:cad>0</ns3:cad>
          </ns3:TrackPointExtension>
        </extensions>
      </trkpt>
      <trkpt lat="38.04229994304478168487548828125" lon="-106.940566264092922210693359375">
        <ele>4012.800048828125</ele>
        <time>2026-05-25T13:16:02.000Z</time>
        <extensions>
          <ns3:TrackPointExtension>
            <ns3:hr>108</ns3:hr>
            <ns3:cad>0</ns3:cad>
          </ns3:TrackPointExtension>
        </extensions>
      </trkpt>
      <trkpt lat="38.04229994304478168487548828125" lon="-106.940566264092922210693359375">
        <ele>4012.800048828125</ele>
        <time>2026-05-25T13:16:03.000Z</time>
        <extensions>
          <ns3:TrackPointExtension>
            <ns3:hr>108</ns3:hr>
            <ns3:cad>0</ns3:cad>
          </ns3:TrackPointExtension>
        </extensions>
      </trkpt>
      <trkpt lat="38.04228770546615123748779296875" lon="-106.9405483268201351165771484375">
        <ele>4013</ele>
        <time>2026-05-25T13:16:04.000Z</time>
        <extensions>
          <ns3:TrackPointExtension>
            <ns3:hr>108</ns3:hr>
            <ns3:cad>0</ns3:cad>
          </ns3:TrackPointExtension>
        </extensions>
      </trkpt>
      <trkpt lat="38.0422685109078884124755859375" lon="-106.9405449740588665008544921875">
        <ele>4013.39990234375</ele>
        <time>2026-05-25T13:16:08.000Z</time>
        <extensions>
          <ns3:TrackPointExtension>
            <ns3:hr>108</ns3:hr>
            <ns3:cad>0</ns3:cad>
          </ns3:TrackPointExtension>
        </extensions>
      </trkpt>
      <trkpt lat="38.04224479012191295623779296875" lon="-106.9405459798872470855712890625">
        <ele>4014</ele>
        <time>2026-05-25T13:16:13.000Z</time>
        <extensions>
          <ns3:TrackPointExtension>
            <ns3:hr>111</ns3:hr>
            <ns3:cad>0</ns3:cad>
          </ns3:TrackPointExtension>
        </extensions>
      </trkpt>
      <trkpt lat="38.04223657585680484771728515625" lon="-106.94054371677339076995849609375">
        <ele>4014.39990234375</ele>
        <time>2026-05-25T13:16:15.000Z</time>
        <extensions>
          <ns3:TrackPointExtension>
            <ns3:hr>111</ns3:hr>
            <ns3:cad>0</ns3:cad>
          </ns3:TrackPointExtension>
        </extensions>
      </trkpt>
      <trkpt lat="38.0422192253172397613525390625" lon="-106.9405345804989337921142578125">
        <ele>4015</ele>
        <time>2026-05-25T13:16:20.000Z</time>
        <extensions>
          <ns3:TrackPointExtension>
            <ns3:hr>112</ns3:hr>
            <ns3:cad>0</ns3:cad>
          </ns3:TrackPointExtension>
        </extensions>
      </trkpt>
      <trkpt lat="38.04221981205046176910400390625" lon="-106.940528713166713714599609375">
        <ele>4015.199951171875</ele>
        <time>2026-05-25T13:16:23.000Z</time>
        <extensions>
          <ns3:TrackPointExtension>
            <ns3:hr>111</ns3:hr>
            <ns3:cad>0</ns3:cad>
          </ns3:TrackPointExtension>
        </extensions>
      </trkpt>
      <trkpt lat="38.042216040194034576416015625" lon="-106.94049912504851818084716796875">
        <ele>4016.199951171875</ele>
        <time>2026-05-25T13:16:27.000Z</time>
        <extensions>
          <ns3:TrackPointExtension>
            <ns3:hr>111</ns3:hr>
            <ns3:cad>0</ns3:cad>
          </ns3:TrackPointExtension>
        </extensions>
      </trkpt>
      <trkpt lat="38.04220053367316722869873046875" lon="-106.9404839538037776947021484375">
        <ele>4016.800048828125</ele>
        <time>2026-05-25T13:16:30.000Z</time>
        <extensions>
          <ns3:TrackPointExtension>
            <ns3:hr>111</ns3:hr>
            <ns3:cad>0</ns3:cad>
          </ns3:TrackPointExtension>
        </extensions>
      </trkpt>
      <trkpt lat="38.0421875417232513427734375" lon="-106.94047951139509677886962890625">
        <ele>4017.39990234375</ele>
        <time>2026-05-25T13:16:32.000Z</time>
        <extensions>
          <ns3:TrackPointExtension>
            <ns3:hr>112</ns3:hr>
            <ns3:cad>0</ns3:cad>
          </ns3:TrackPointExtension>
        </extensions>
      </trkpt>
      <trkpt lat="38.0421642400324344635009765625" lon="-106.9404863007366657257080078125">
        <ele>4018.60009765625</ele>
        <time>2026-05-25T13:16:37.000Z</time>
        <extensions>
          <ns3:TrackPointExtension>
            <ns3:hr>110</ns3:hr>
            <ns3:cad>0</ns3:cad>
          </ns3:TrackPointExtension>
        </extensions>
      </trkpt>
      <trkpt lat="38.0421605519950389862060546875" lon="-106.94048604927957057952880859375">
        <ele>4018.60009765625</ele>
        <time>2026-05-25T13:16:38.000Z</time>
        <extensions>
          <ns3:TrackPointExtension>
            <ns3:hr>109</ns3:hr>
            <ns3:cad>0</ns3:cad>
          </ns3:TrackPointExtension>
        </extensions>
      </trkpt>
      <trkpt lat="38.04214932024478912353515625" lon="-106.94048680365085601806640625">
        <ele>4019</ele>
        <time>2026-05-25T13:16:44.000Z</time>
        <extensions>
          <ns3:TrackPointExtension>
            <ns3:hr>107</ns3:hr>
            <ns3:cad>0</ns3:cad>
          </ns3:TrackPointExtension>
        </extensions>
      </trkpt>
      <trkpt lat="38.042144961655139923095703125" lon="-106.94048420526087284088134765625">
        <ele>4019</ele>
        <time>2026-05-25T13:16:45.000Z</time>
        <extensions>
          <ns3:TrackPointExtension>
            <ns3:hr>106</ns3:hr>
            <ns3:cad>0</ns3:cad>
          </ns3:TrackPointExtension>
        </extensions>
      </trkpt>
      <trkpt lat="38.04213331080973148345947265625" lon="-106.94048001430928707122802734375">
        <ele>4019.800048828125</ele>
        <time>2026-05-25T13:16:48.000Z</time>
        <extensions>
          <ns3:TrackPointExtension>
            <ns3:hr>105</ns3:hr>
            <ns3:cad>0</ns3:cad>
          </ns3:TrackPointExtension>
        </extensions>
      </trkpt>
      <trkpt lat="38.0421260185539722442626953125" lon="-106.9404740631580352783203125">
        <ele>4021</ele>
        <time>2026-05-25T13:16:51.000Z</time>
        <extensions>
          <ns3:TrackPointExtension>
            <ns3:hr>105</ns3:hr>
            <ns3:cad>0</ns3:cad>
          </ns3:TrackPointExtension>
        </extensions>
      </trkpt>
      <trkpt lat="38.0421122722327709197998046875" lon="-106.94047741591930389404296875">
        <ele>4021.800048828125</ele>
        <time>2026-05-25T13:16:55.000Z</time>
        <extensions>
          <ns3:TrackPointExtension>
            <ns3:hr>106</ns3:hr>
            <ns3:cad>0</ns3:cad>
          </ns3:TrackPointExtension>
        </extensions>
      </trkpt>
      <trkpt lat="38.04208251647651195526123046875" lon="-106.9404718838632106781005859375">
        <ele>4022</ele>
        <time>2026-05-25T13:16:57.000Z</time>
        <extensions>
          <ns3:TrackPointExtension>
            <ns3:hr>107</ns3:hr>
            <ns3:cad>0</ns3:cad>
          </ns3:TrackPointExtension>
        </extensions>
      </trkpt>
      <trkpt lat="38.04207731969654560089111328125" lon="-106.94047498516738414764404296875">
        <ele>4022.60009765625</ele>
        <time>2026-05-25T13:17:00.000Z</time>
        <extensions>
          <ns3:TrackPointExtension>
            <ns3:hr>109</ns3:hr>
            <ns3:cad>0</ns3:cad>
          </ns3:TrackPointExtension>
        </extensions>
      </trkpt>
      <trkpt lat="38.04206709377467632293701171875" lon="-106.94046895019710063934326171875">
        <ele>4023</ele>
        <time>2026-05-25T13:17:03.000Z</time>
        <extensions>
          <ns3:TrackPointExtension>
            <ns3:hr>113</ns3:hr>
            <ns3:cad>0</ns3:cad>
          </ns3:TrackPointExtension>
        </extensions>
      </trkpt>
      <trkpt lat="38.04206239990890026092529296875" lon="-106.94047045893967151641845703125">
        <ele>4023.199951171875</ele>
        <time>2026-05-25T13:17:04.000Z</time>
        <extensions>
          <ns3:TrackPointExtension>
            <ns3:hr>115</ns3:hr>
            <ns3:cad>0</ns3:cad>
          </ns3:TrackPointExtension>
        </extensions>
      </trkpt>
      <trkpt lat="38.04203792475163936614990234375" lon="-106.9404782541096210479736328125">
        <ele>4023.39990234375</ele>
        <time>2026-05-25T13:17:09.000Z</time>
        <extensions>
          <ns3:TrackPointExtension>
            <ns3:hr>116</ns3:hr>
            <ns3:cad>0</ns3:cad>
          </ns3:TrackPointExtension>
        </extensions>
      </trkpt>
      <trkpt lat="38.0420304648578166961669921875" lon="-106.94048143923282623291015625">
        <ele>4024.199951171875</ele>
        <time>2026-05-25T13:17:13.000Z</time>
        <extensions>
          <ns3:TrackPointExtension>
            <ns3:hr>117</ns3:hr>
            <ns3:cad>0</ns3:cad>
          </ns3:TrackPointExtension>
        </extensions>
      </trkpt>
      <trkpt lat="38.04202635772526264190673828125" lon="-106.9404816068708896636962890625">
        <ele>4024.199951171875</ele>
        <time>2026-05-25T13:17:14.000Z</time>
        <extensions>
          <ns3:TrackPointExtension>
            <ns3:hr>117</ns3:hr>
            <ns3:cad>71</ns3:cad>
          </ns3:TrackPointExtension>
        </extensions>
      </trkpt>
      <trkpt lat="38.04199777543544769287109375" lon="-106.94049350917339324951171875">
        <ele>4024.60009765625</ele>
        <time>2026-05-25T13:17:19.000Z</time>
        <extensions>
          <ns3:TrackPointExtension>
            <ns3:hr>117</ns3:hr>
            <ns3:cad>0</ns3:cad>
          </ns3:TrackPointExtension>
        </extensions>
      </trkpt>
      <trkpt lat="38.04196885786950588226318359375" lon="-106.94051169790327548980712890625">
        <ele>4024.800048828125</ele>
        <time>2026-05-25T13:17:23.000Z</time>
        <extensions>
          <ns3:TrackPointExtension>
            <ns3:hr>120</ns3:hr>
            <ns3:cad>0</ns3:cad>
          </ns3:TrackPointExtension>
        </extensions>
      </trkpt>
      <trkpt lat="38.04195754230022430419921875" lon="-106.94051940925419330596923828125">
        <ele>4025.199951171875</ele>
        <time>2026-05-25T13:17:25.000Z</time>
        <extensions>
          <ns3:TrackPointExtension>
            <ns3:hr>121</ns3:hr>
            <ns3:cad>0</ns3:cad>
          </ns3:TrackPointExtension>
        </extensions>
      </trkpt>
      <trkpt lat="38.04193717427551746368408203125" lon="-106.94052360020577907562255859375">
        <ele>4025.800048828125</ele>
        <time>2026-05-25T13:17:29.000Z</time>
        <extensions>
          <ns3:TrackPointExtension>
            <ns3:hr>120</ns3:hr>
            <ns3:cad>0</ns3:cad>
          </ns3:TrackPointExtension>
        </extensions>
      </trkpt>
      <trkpt lat="38.04191906936466693878173828125" lon="-106.94052443839609622955322265625">
        <ele>4026.39990234375</ele>
        <time>2026-05-25T13:17:32.000Z</time>
        <extensions>
          <ns3:TrackPointExtension>
            <ns3:hr>121</ns3:hr>
            <ns3:cad>0</ns3:cad>
          </ns3:TrackPointExtension>
        </extensions>
      </trkpt>
      <trkpt lat="38.0419097654521465301513671875" lon="-106.9405292160809040069580078125">
        <ele>4026.60009765625</ele>
        <time>2026-05-25T13:17:33.000Z</time>
        <extensions>
          <ns3:TrackPointExtension>
            <ns3:hr>121</ns3:hr>
            <ns3:cad>0</ns3:cad>
          </ns3:TrackPointExtension>
        </extensions>
      </trkpt>
      <trkpt lat="38.041890822350978851318359375" lon="-106.94053818471729755401611328125">
        <ele>4026.800048828125</ele>
        <time>2026-05-25T13:17:37.000Z</time>
        <extensions>
          <ns3:TrackPointExtension>
            <ns3:hr>117</ns3:hr>
            <ns3:cad>0</ns3:cad>
          </ns3:TrackPointExtension>
        </extensions>
      </trkpt>
      <trkpt lat="38.04188470356166362762451171875" lon="-106.9405453093349933624267578125">
        <ele>4026.800048828125</ele>
        <time>2026-05-25T13:17:38.000Z</time>
        <extensions>
          <ns3:TrackPointExtension>
            <ns3:hr>117</ns3:hr>
            <ns3:cad>0</ns3:cad>
          </ns3:TrackPointExtension>
        </extensions>
      </trkpt>
      <trkpt lat="38.04185570217669010162353515625" lon="-106.94055712781846523284912109375">
        <ele>4027.60009765625</ele>
        <time>2026-05-25T13:17:43.000Z</time>
        <extensions>
          <ns3:TrackPointExtension>
            <ns3:hr>118</ns3:hr>
            <ns3:cad>0</ns3:cad>
          </ns3:TrackPointExtension>
        </extensions>
      </trkpt>
      <trkpt lat="38.04182267747819423675537109375" lon="-106.9405687786638736724853515625">
        <ele>4028.199951171875</ele>
        <time>2026-05-25T13:17:48.000Z</time>
        <extensions>
          <ns3:TrackPointExtension>
            <ns3:hr>120</ns3:hr>
            <ns3:cad>0</ns3:cad>
          </ns3:TrackPointExtension>
        </extensions>
      </trkpt>
      <trkpt lat="38.04180339910089969635009765625" lon="-106.9405704550445079803466796875">
        <ele>4028.60009765625</ele>
        <time>2026-05-25T13:17:52.000Z</time>
        <extensions>
          <ns3:TrackPointExtension>
            <ns3:hr>119</ns3:hr>
            <ns3:cad>0</ns3:cad>
          </ns3:TrackPointExtension>
        </extensions>
      </trkpt>
      <trkpt lat="38.04179032333195209503173828125" lon="-106.94056928157806396484375">
        <ele>4029.199951171875</ele>
        <time>2026-05-25T13:17:54.000Z</time>
        <extensions>
          <ns3:TrackPointExtension>
            <ns3:hr>118</ns3:hr>
            <ns3:cad>0</ns3:cad>
          </ns3:TrackPointExtension>
        </extensions>
      </trkpt>
      <trkpt lat="38.04176853038370609283447265625" lon="-106.940561234951019287109375">
        <ele>4029.800048828125</ele>
        <time>2026-05-25T13:17:57.000Z</time>
        <extensions>
          <ns3:TrackPointExtension>
            <ns3:hr>119</ns3:hr>
            <ns3:cad>0</ns3:cad>
          </ns3:TrackPointExtension>
        </extensions>
      </trkpt>
      <trkpt lat="38.0417562089860439300537109375" lon="-106.9405697844922542572021484375">
        <ele>4030</ele>
        <time>2026-05-25T13:18:00.000Z</time>
        <extensions>
          <ns3:TrackPointExtension>
            <ns3:hr>118</ns3:hr>
            <ns3:cad>0</ns3:cad>
          </ns3:TrackPointExtension>
        </extensions>
      </trkpt>
      <trkpt lat="38.0417374335229396820068359375" lon="-106.9405821897089481353759765625">
        <ele>4030.199951171875</ele>
        <time>2026-05-25T13:18:02.000Z</time>
        <extensions>
          <ns3:TrackPointExtension>
            <ns3:hr>115</ns3:hr>
            <ns3:cad>0</ns3:cad>
          </ns3:TrackPointExtension>
        </extensions>
      </trkpt>
      <trkpt lat="38.0417156405746936798095703125" lon="-106.9405862130224704742431640625">
        <ele>4031</ele>
        <time>2026-05-25T13:18:05.000Z</time>
        <extensions>
          <ns3:TrackPointExtension>
            <ns3:hr>113</ns3:hr>
            <ns3:cad>0</ns3:cad>
          </ns3:TrackPointExtension>
        </extensions>
      </trkpt>
      <trkpt lat="38.0416935123503208160400390625" lon="-106.94057959131896495819091796875">
        <ele>4031.800048828125</ele>
        <time>2026-05-25T13:18:09.000Z</time>
        <extensions>
          <ns3:TrackPointExtension>
            <ns3:hr>113</ns3:hr>
            <ns3:cad>45</ns3:cad>
          </ns3:TrackPointExtension>
        </extensions>
      </trkpt>
      <trkpt lat="38.04166845045983791351318359375" lon="-106.94057238288223743438720703125">
        <ele>4032</ele>
        <time>2026-05-25T13:18:13.000Z</time>
        <extensions>
          <ns3:TrackPointExtension>
            <ns3:hr>113</ns3:hr>
            <ns3:cad>0</ns3:cad>
          </ns3:TrackPointExtension>
        </extensions>
      </trkpt>
      <trkpt lat="38.0416539497673511505126953125" lon="-106.9405654259026050567626953125">
        <ele>4032.60009765625</ele>
        <time>2026-05-25T13:18:16.000Z</time>
        <extensions>
          <ns3:TrackPointExtension>
            <ns3:hr>117</ns3:hr>
            <ns3:cad>0</ns3:cad>
          </ns3:TrackPointExtension>
        </extensions>
      </trkpt>
      <trkpt lat="38.0416385270655155181884765625" lon="-106.9405590556561946868896484375">
        <ele>4033</ele>
        <time>2026-05-25T13:18:19.000Z</time>
        <extensions>
          <ns3:TrackPointExtension>
            <ns3:hr>121</ns3:hr>
            <ns3:cad>0</ns3:cad>
          </ns3:TrackPointExtension>
        </extensions>
      </trkpt>
      <trkpt lat="38.0416365154087543487548828125" lon="-106.94055855274200439453125">
        <ele>4033.199951171875</ele>
        <time>2026-05-25T13:18:20.000Z</time>
        <extensions>
          <ns3:TrackPointExtension>
            <ns3:hr>122</ns3:hr>
            <ns3:cad>0</ns3:cad>
          </ns3:TrackPointExtension>
        </extensions>
      </trkpt>
      <trkpt lat="38.04162251763045787811279296875" lon="-106.94055126048624515533447265625">
        <ele>4033.39990234375</ele>
        <time>2026-05-25T13:18:26.000Z</time>
        <extensions>
          <ns3:TrackPointExtension>
            <ns3:hr>124</ns3:hr>
            <ns3:cad>0</ns3:cad>
          </ns3:TrackPointExtension>
        </extensions>
      </trkpt>
      <trkpt lat="38.0416174046695232391357421875" lon="-106.9405489973723888397216796875">
        <ele>4033.39990234375</ele>
        <time>2026-05-25T13:18:27.000Z</time>
        <extensions>
          <ns3:TrackPointExtension>
            <ns3:hr>124</ns3:hr>
            <ns3:cad>0</ns3:cad>
          </ns3:TrackPointExtension>
        </extensions>
      </trkpt>
      <trkpt lat="38.0415966175496578216552734375" lon="-106.94054790772497653961181640625">
        <ele>4034.199951171875</ele>
        <time>2026-05-25T13:18:31.000Z</time>
        <extensions>
          <ns3:TrackPointExtension>
            <ns3:hr>123</ns3:hr>
            <ns3:cad>0</ns3:cad>
          </ns3:TrackPointExtension>
        </extensions>
      </trkpt>
      <trkpt lat="38.0415875650942325592041015625" lon="-106.94055293686687946319580078125">
        <ele>4034.39990234375</ele>
        <time>2026-05-25T13:18:32.000Z</time>
        <extensions>
          <ns3:TrackPointExtension>
            <ns3:hr>123</ns3:hr>
            <ns3:cad>0</ns3:cad>
          </ns3:TrackPointExtension>
        </extensions>
      </trkpt>
      <trkpt lat="38.0415570549666881561279296875" lon="-106.94058026187121868133544921875">
        <ele>4034.800048828125</ele>
        <time>2026-05-25T13:18:37.000Z</time>
        <extensions>
          <ns3:TrackPointExtension>
            <ns3:hr>120</ns3:hr>
            <ns3:cad>0</ns3:cad>
          </ns3:TrackPointExtension>
        </extensions>
      </trkpt>
      <trkpt lat="38.04155378602445125579833984375" lon="-106.94057808257639408111572265625">
        <ele>4034.800048828125</ele>
        <time>2026-05-25T13:18:38.000Z</time>
        <extensions>
          <ns3:TrackPointExtension>
            <ns3:hr>120</ns3:hr>
            <ns3:cad>0</ns3:cad>
          </ns3:TrackPointExtension>
        </extensions>
      </trkpt>
      <trkpt lat="38.04154339246451854705810546875" lon="-106.94058126769959926605224609375">
        <ele>4035.39990234375</ele>
        <time>2026-05-25T13:18:41.000Z</time>
        <extensions>
          <ns3:TrackPointExtension>
            <ns3:hr>118</ns3:hr>
            <ns3:cad>0</ns3:cad>
          </ns3:TrackPointExtension>
        </extensions>
      </trkpt>
      <trkpt lat="38.04153651930391788482666015625" lon="-106.94058361463248729705810546875">
        <ele>4036</ele>
        <time>2026-05-25T13:18:43.000Z</time>
        <extensions>
          <ns3:TrackPointExtension>
            <ns3:hr>117</ns3:hr>
            <ns3:cad>0</ns3:cad>
          </ns3:TrackPointExtension>
        </extensions>
      </trkpt>
      <trkpt lat="38.0415362678468227386474609375" lon="-106.94058394990861415863037109375">
        <ele>4036.60009765625</ele>
        <time>2026-05-25T13:18:45.000Z</time>
        <extensions>
          <ns3:TrackPointExtension>
            <ns3:hr>116</ns3:hr>
            <ns3:cad>0</ns3:cad>
          </ns3:TrackPointExtension>
        </extensions>
      </trkpt>
      <trkpt lat="38.04151573218405246734619140625" lon="-106.94060892798006534576416015625">
        <ele>4037</ele>
        <time>2026-05-25T13:18:50.000Z</time>
        <extensions>
          <ns3:TrackPointExtension>
            <ns3:hr>116</ns3:hr>
            <ns3:cad>0</ns3:cad>
          </ns3:TrackPointExtension>
        </extensions>
      </trkpt>
      <trkpt lat="38.041471056640148162841796875" lon="-106.9406442157924175262451171875">
        <ele>4037.60009765625</ele>
        <time>2026-05-25T13:18:54.000Z</time>
        <extensions>
          <ns3:TrackPointExtension>
            <ns3:hr>113</ns3:hr>
            <ns3:cad>0</ns3:cad>
          </ns3:TrackPointExtension>
        </extensions>
      </trkpt>
      <trkpt lat="38.04140844382345676422119140625" lon="-106.94065972231328487396240234375">
        <ele>4038.800048828125</ele>
        <time>2026-05-25T13:18:58.000Z</time>
        <extensions>
          <ns3:TrackPointExtension>
            <ns3:hr>111</ns3:hr>
            <ns3:cad>0</ns3:cad>
          </ns3:TrackPointExtension>
        </extensions>
      </trkpt>
      <trkpt lat="38.0413520336151123046875" lon="-106.940684951841831207275390625">
        <ele>4039.60009765625</ele>
        <time>2026-05-25T13:19:03.000Z</time>
        <extensions>
          <ns3:TrackPointExtension>
            <ns3:hr>116</ns3:hr>
            <ns3:cad>0</ns3:cad>
          </ns3:TrackPointExtension>
        </extensions>
      </trkpt>
      <trkpt lat="38.0413391254842281341552734375" lon="-106.94069425575435161590576171875">
        <ele>4039.800048828125</ele>
        <time>2026-05-25T13:19:04.000Z</time>
        <extensions>
          <ns3:TrackPointExtension>
            <ns3:hr>117</ns3:hr>
            <ns3:cad>57</ns3:cad>
          </ns3:TrackPointExtension>
        </extensions>
      </trkpt>
      <trkpt lat="38.04130936972796916961669921875" lon="-106.94072342477738857269287109375">
        <ele>4040.199951171875</ele>
        <time>2026-05-25T13:19:08.000Z</time>
        <extensions>
          <ns3:TrackPointExtension>
            <ns3:hr>118</ns3:hr>
            <ns3:cad>0</ns3:cad>
          </ns3:TrackPointExtension>
        </extensions>
      </trkpt>
      <trkpt lat="38.04129545576870441436767578125" lon="-106.94072979502379894256591796875">
        <ele>4040.60009765625</ele>
        <time>2026-05-25T13:19:10.000Z</time>
        <extensions>
          <ns3:TrackPointExtension>
            <ns3:hr>117</ns3:hr>
            <ns3:cad>0</ns3:cad>
          </ns3:TrackPointExtension>
        </extensions>
      </trkpt>
      <trkpt lat="38.041271232068538665771484375" lon="-106.9407394342124462127685546875">
        <ele>4041.199951171875</ele>
        <time>2026-05-25T13:19:13.000Z</time>
        <extensions>
          <ns3:TrackPointExtension>
            <ns3:hr>116</ns3:hr>
            <ns3:cad>40</ns3:cad>
          </ns3:TrackPointExtension>
        </extensions>
      </trkpt>
      <trkpt lat="38.0412616766989231109619140625" lon="-106.94074220024049282073974609375">
        <ele>4041.39990234375</ele>
        <time>2026-05-25T13:19:14.000Z</time>
        <extensions>
          <ns3:TrackPointExtension>
            <ns3:hr>115</ns3:hr>
            <ns3:cad>40</ns3:cad>
          </ns3:TrackPointExtension>
        </extensions>
      </trkpt>
      <trkpt lat="38.0412291549146175384521484375" lon="-106.94075359962880611419677734375">
        <ele>4042</ele>
        <time>2026-05-25T13:19:20.000Z</time>
        <extensions>
          <ns3:TrackPointExtension>
            <ns3:hr>114</ns3:hr>
            <ns3:cad>70</ns3:cad>
          </ns3:TrackPointExtension>
        </extensions>
      </trkpt>
      <trkpt lat="38.04121331311762332916259765625" lon="-106.94076466374099254608154296875">
        <ele>4042.199951171875</ele>
        <time>2026-05-25T13:19:22.000Z</time>
        <extensions>
          <ns3:TrackPointExtension>
            <ns3:hr>113</ns3:hr>
            <ns3:cad>0</ns3:cad>
          </ns3:TrackPointExtension>
        </extensions>
      </trkpt>
      <trkpt lat="38.0411708168685436248779296875" lon="-106.94079299457371234893798828125">
        <ele>4042.800048828125</ele>
        <time>2026-05-25T13:19:28.000Z</time>
        <extensions>
          <ns3:TrackPointExtension>
            <ns3:hr>112</ns3:hr>
            <ns3:cad>0</ns3:cad>
          </ns3:TrackPointExtension>
        </extensions>
      </trkpt>
      <trkpt lat="38.04115782491862773895263671875" lon="-106.94079936482012271881103515625">
        <ele>4043.39990234375</ele>
        <time>2026-05-25T13:19:31.000Z</time>
        <extensions>
          <ns3:TrackPointExtension>
            <ns3:hr>112</ns3:hr>
            <ns3:cad>0</ns3:cad>
          </ns3:TrackPointExtension>
        </extensions>
      </trkpt>
      <trkpt lat="38.0411205254495143890380859375" lon="-106.94082132540643215179443359375">
        <ele>4043.60009765625</ele>
        <time>2026-05-25T13:19:36.000Z</time>
        <extensions>
          <ns3:TrackPointExtension>
            <ns3:hr>111</ns3:hr>
            <ns3:cad>77</ns3:cad>
          </ns3:TrackPointExtension>
        </extensions>
      </trkpt>
      <trkpt lat="38.041104935109615325927734375" lon="-106.94081746973097324371337890625">
        <ele>4043.60009765625</ele>
        <time>2026-05-25T13:19:37.000Z</time>
        <extensions>
          <ns3:TrackPointExtension>
            <ns3:hr>111</ns3:hr>
            <ns3:cad>77</ns3:cad>
          </ns3:TrackPointExtension>
        </extensions>
      </trkpt>
      <trkpt lat="38.0410876683890819549560546875" lon="-106.9408165477216243743896484375">
        <ele>4044</ele>
        <time>2026-05-25T13:19:39.000Z</time>
        <extensions>
          <ns3:TrackPointExtension>
            <ns3:hr>115</ns3:hr>
            <ns3:cad>0</ns3:cad>
          </ns3:TrackPointExtension>
        </extensions>
      </trkpt>
      <trkpt lat="38.04108506999909877777099609375" lon="-106.940814368426799774169921875">
        <ele>4044</ele>
        <time>2026-05-25T13:19:41.000Z</time>
        <extensions>
          <ns3:TrackPointExtension>
            <ns3:hr>116</ns3:hr>
            <ns3:cad>0</ns3:cad>
          </ns3:TrackPointExtension>
        </extensions>
      </trkpt>
      <trkpt lat="38.04106042720377445220947265625" lon="-106.9408098421990871429443359375">
        <ele>4044.39990234375</ele>
        <time>2026-05-25T13:19:44.000Z</time>
        <extensions>
          <ns3:TrackPointExtension>
            <ns3:hr>117</ns3:hr>
            <ns3:cad>0</ns3:cad>
          </ns3:TrackPointExtension>
        </extensions>
      </trkpt>
      <trkpt lat="38.04103561677038669586181640625" lon="-106.94082316942512989044189453125">
        <ele>4045.39990234375</ele>
        <time>2026-05-25T13:19:49.000Z</time>
        <extensions>
          <ns3:TrackPointExtension>
            <ns3:hr>115</ns3:hr>
            <ns3:cad>41</ns3:cad>
          </ns3:TrackPointExtension>
        </extensions>
      </trkpt>
      <trkpt lat="38.0410048551857471466064453125" lon="-106.94083104841411113739013671875">
        <ele>4045.60009765625</ele>
        <time>2026-05-25T13:19:54.000Z</time>
        <extensions>
          <ns3:TrackPointExtension>
            <ns3:hr>115</ns3:hr>
            <ns3:cad>0</ns3:cad>
          </ns3:TrackPointExtension>
        </extensions>
      </trkpt>
      <trkpt lat="38.0409859120845794677734375" lon="-106.94083423353731632232666015625">
        <ele>4046.60009765625</ele>
        <time>2026-05-25T13:19:59.000Z</time>
        <extensions>
          <ns3:TrackPointExtension>
            <ns3:hr>116</ns3:hr>
            <ns3:cad>0</ns3:cad>
          </ns3:TrackPointExtension>
        </extensions>
      </trkpt>
      <trkpt lat="38.0409686453640460968017578125" lon="-106.94083306007087230682373046875">
        <ele>4047</ele>
        <time>2026-05-25T13:20:02.000Z</time>
        <extensions>
          <ns3:TrackPointExtension>
            <ns3:hr>114</ns3:hr>
            <ns3:cad>0</ns3:cad>
          </ns3:TrackPointExtension>
        </extensions>
      </trkpt>
      <trkpt lat="38.04095749743282794952392578125" lon="-106.94083909504115581512451171875">
        <ele>4047.60009765625</ele>
        <time>2026-05-25T13:20:05.000Z</time>
        <extensions>
          <ns3:TrackPointExtension>
            <ns3:hr>113</ns3:hr>
            <ns3:cad>43</ns3:cad>
          </ns3:TrackPointExtension>
        </extensions>
      </trkpt>
      <trkpt lat="38.04091407917439937591552734375" lon="-106.94084697403013706207275390625">
        <ele>4048.39990234375</ele>
        <time>2026-05-25T13:20:11.000Z</time>
        <extensions>
          <ns3:TrackPointExtension>
            <ns3:hr>115</ns3:hr>
            <ns3:cad>0</ns3:cad>
          </ns3:TrackPointExtension>
        </extensions>
      </trkpt>
      <trkpt lat="38.04091156460344791412353515625" lon="-106.94084756076335906982421875">
        <ele>4048.60009765625</ele>
        <time>2026-05-25T13:20:12.000Z</time>
        <extensions>
          <ns3:TrackPointExtension>
            <ns3:hr>116</ns3:hr>
            <ns3:cad>0</ns3:cad>
          </ns3:TrackPointExtension>
        </extensions>
      </trkpt>
      <trkpt lat="38.0408834852278232574462890625" lon="-106.9408415257930755615234375">
        <ele>4049.39990234375</ele>
        <time>2026-05-25T13:20:17.000Z</time>
        <extensions>
          <ns3:TrackPointExtension>
            <ns3:hr>118</ns3:hr>
            <ns3:cad>50</ns3:cad>
          </ns3:TrackPointExtension>
        </extensions>
      </trkpt>
      <trkpt lat="38.040862865746021270751953125" lon="-106.94083993323147296905517578125">
        <ele>4049.60009765625</ele>
        <time>2026-05-25T13:20:21.000Z</time>
        <extensions>
          <ns3:TrackPointExtension>
            <ns3:hr>119</ns3:hr>
            <ns3:cad>0</ns3:cad>
          </ns3:TrackPointExtension>
        </extensions>
      </trkpt>
      <trkpt lat="38.0408533103764057159423828125" lon="-106.9408400170505046844482421875">
        <ele>4050.199951171875</ele>
        <time>2026-05-25T13:20:24.000Z</time>
        <extensions>
          <ns3:TrackPointExtension>
            <ns3:hr>118</ns3:hr>
            <ns3:cad>0</ns3:cad>
          </ns3:TrackPointExtension>
        </extensions>
      </trkpt>
      <trkpt lat="38.0408412404358386993408203125" lon="-106.940827779471874237060546875">
        <ele>4050.800048828125</ele>
        <time>2026-05-25T13:20:28.000Z</time>
        <extensions>
          <ns3:TrackPointExtension>
            <ns3:hr>118</ns3:hr>
            <ns3:cad>0</ns3:cad>
          </ns3:TrackPointExtension>
        </extensions>
      </trkpt>
      <trkpt lat="38.0408372171223163604736328125" lon="-106.9408266060054302215576171875">
        <ele>4051.39990234375</ele>
        <time>2026-05-25T13:20:31.000Z</time>
        <extensions>
          <ns3:TrackPointExtension>
            <ns3:hr>118</ns3:hr>
            <ns3:cad>0</ns3:cad>
          </ns3:TrackPointExtension>
        </extensions>
      </trkpt>
      <trkpt lat="38.04081265814602375030517578125" lon="-106.940815709531307220458984375">
        <ele>4051.800048828125</ele>
        <time>2026-05-25T13:20:35.000Z</time>
        <extensions>
          <ns3:TrackPointExtension>
            <ns3:hr>121</ns3:hr>
            <ns3:cad>0</ns3:cad>
          </ns3:TrackPointExtension>
        </extensions>
      </trkpt>
      <trkpt lat="38.04079874418675899505615234375" lon="-106.94081109948456287384033203125">
        <ele>4052</ele>
        <time>2026-05-25T13:20:37.000Z</time>
        <extensions>
          <ns3:TrackPointExtension>
            <ns3:hr>125</ns3:hr>
            <ns3:cad>0</ns3:cad>
          </ns3:TrackPointExtension>
        </extensions>
      </trkpt>
      <trkpt lat="38.040797822177410125732421875" lon="-106.94081361405551433563232421875">
        <ele>4052.199951171875</ele>
        <time>2026-05-25T13:20:38.000Z</time>
        <extensions>
          <ns3:TrackPointExtension>
            <ns3:hr>128</ns3:hr>
            <ns3:cad>0</ns3:cad>
          </ns3:TrackPointExtension>
        </extensions>
      </trkpt>
      <trkpt lat="38.04078801535069942474365234375" lon="-106.9408165477216243743896484375">
        <ele>4052.199951171875</ele>
        <time>2026-05-25T13:20:39.000Z</time>
        <extensions>
          <ns3:TrackPointExtension>
            <ns3:hr>128</ns3:hr>
            <ns3:cad>0</ns3:cad>
          </ns3:TrackPointExtension>
        </extensions>
      </trkpt>
      <trkpt lat="38.04077443666756153106689453125" lon="-106.9408145360648632049560546875">
        <ele>4052.800048828125</ele>
        <time>2026-05-25T13:20:42.000Z</time>
        <extensions>
          <ns3:TrackPointExtension>
            <ns3:hr>130</ns3:hr>
            <ns3:cad>0</ns3:cad>
          </ns3:TrackPointExtension>
        </extensions>
      </trkpt>
      <trkpt lat="38.040780387818813323974609375" lon="-106.94081629626452922821044921875">
        <ele>4053</ele>
        <time>2026-05-25T13:20:43.000Z</time>
        <extensions>
          <ns3:TrackPointExtension>
            <ns3:hr>130</ns3:hr>
            <ns3:cad>0</ns3:cad>
          </ns3:TrackPointExtension>
        </extensions>
      </trkpt>
      <trkpt lat="38.0407825671136379241943359375" lon="-106.9408135302364826202392578125">
        <ele>4053.60009765625</ele>
        <time>2026-05-25T13:20:49.000Z</time>
        <extensions>
          <ns3:TrackPointExtension>
            <ns3:hr>130</ns3:hr>
            <ns3:cad>0</ns3:cad>
          </ns3:TrackPointExtension>
        </extensions>
      </trkpt>
      <trkpt lat="38.04078231565654277801513671875" lon="-106.940813362598419189453125">
        <ele>4053</ele>
        <time>2026-05-25T13:20:55.000Z</time>
        <extensions>
          <ns3:TrackPointExtension>
            <ns3:hr>129</ns3:hr>
            <ns3:cad>0</ns3:cad>
          </ns3:TrackPointExtension>
        </extensions>
      </trkpt>
      <trkpt lat="38.04078231565654277801513671875" lon="-106.940813362598419189453125">
        <ele>4052.199951171875</ele>
        <time>2026-05-25T13:21:00.000Z</time>
        <extensions>
          <ns3:TrackPointExtension>
            <ns3:hr>128</ns3:hr>
            <ns3:cad>0</ns3:cad>
          </ns3:TrackPointExtension>
        </extensions>
      </trkpt>
      <trkpt lat="38.04078231565654277801513671875" lon="-106.940813362598419189453125">
        <ele>4052.60009765625</ele>
        <time>2026-05-25T13:21:06.000Z</time>
        <extensions>
          <ns3:TrackPointExtension>
            <ns3:hr>127</ns3:hr>
            <ns3:cad>0</ns3:cad>
          </ns3:TrackPointExtension>
        </extensions>
      </trkpt>
      <trkpt lat="38.04078231565654277801513671875" lon="-106.940813362598419189453125">
        <ele>4052.39990234375</ele>
        <time>2026-05-25T13:21:08.000Z</time>
        <extensions>
          <ns3:TrackPointExtension>
            <ns3:hr>128</ns3:hr>
            <ns3:cad>0</ns3:cad>
          </ns3:TrackPointExtension>
        </extensions>
      </trkpt>
      <trkpt lat="38.04077929817140102386474609375" lon="-106.9408095069229602813720703125">
        <ele>4052.800048828125</ele>
        <time>2026-05-25T13:21:10.000Z</time>
        <extensions>
          <ns3:TrackPointExtension>
            <ns3:hr>131</ns3:hr>
            <ns3:cad>0</ns3:cad>
          </ns3:TrackPointExtension>
        </extensions>
      </trkpt>
      <trkpt lat="38.04075465537607669830322265625" lon="-106.940802969038486480712890625">
        <ele>4053.39990234375</ele>
        <time>2026-05-25T13:21:14.000Z</time>
        <extensions>
          <ns3:TrackPointExtension>
            <ns3:hr>133</ns3:hr>
            <ns3:cad>0</ns3:cad>
          </ns3:TrackPointExtension>
        </extensions>
      </trkpt>
      <trkpt lat="38.040709979832172393798828125" lon="-106.94078964181244373321533203125">
        <ele>4054.199951171875</ele>
        <time>2026-05-25T13:21:19.000Z</time>
        <extensions>
          <ns3:TrackPointExtension>
            <ns3:hr>130</ns3:hr>
            <ns3:cad>0</ns3:cad>
          </ns3:TrackPointExtension>
        </extensions>
      </trkpt>
      <trkpt lat="38.04070302285254001617431640625" lon="-106.94079458713531494140625">
        <ele>4054.60009765625</ele>
        <time>2026-05-25T13:21:21.000Z</time>
        <extensions>
          <ns3:TrackPointExtension>
            <ns3:hr>128</ns3:hr>
            <ns3:cad>0</ns3:cad>
          </ns3:TrackPointExtension>
        </extensions>
      </trkpt>
      <trkpt lat="38.04068374447524547576904296875" lon="-106.9408039748668670654296875">
        <ele>4055.199951171875</ele>
        <time>2026-05-25T13:21:25.000Z</time>
        <extensions>
          <ns3:TrackPointExtension>
            <ns3:hr>133</ns3:hr>
            <ns3:cad>0</ns3:cad>
          </ns3:TrackPointExtension>
        </extensions>
      </trkpt>
      <trkpt lat="38.04068039171397686004638671875" lon="-106.94080774672329425811767578125">
        <ele>4055.60009765625</ele>
        <time>2026-05-25T13:21:26.000Z</time>
        <extensions>
          <ns3:TrackPointExtension>
            <ns3:hr>134</ns3:hr>
            <ns3:cad>0</ns3:cad>
          </ns3:TrackPointExtension>
        </extensions>
      </trkpt>
      <trkpt lat="38.04065541364252567291259765625" lon="-106.940817050635814666748046875">
        <ele>4056</ele>
        <time>2026-05-25T13:21:28.000Z</time>
        <extensions>
          <ns3:TrackPointExtension>
            <ns3:hr>135</ns3:hr>
            <ns3:cad>0</ns3:cad>
          </ns3:TrackPointExtension>
        </extensions>
      </trkpt>
      <trkpt lat="38.04061249829828739166259765625" lon="-106.94082266651093959808349609375">
        <ele>4056.199951171875</ele>
        <time>2026-05-25T13:21:34.000Z</time>
        <extensions>
          <ns3:TrackPointExtension>
            <ns3:hr>137</ns3:hr>
            <ns3:cad>44</ns3:cad>
          </ns3:TrackPointExtension>
        </extensions>
      </trkpt>
      <trkpt lat="38.04061249829828739166259765625" lon="-106.94082266651093959808349609375">
        <ele>4056.199951171875</ele>
        <time>2026-05-25T13:21:35.000Z</time>
        <extensions>
          <ns3:TrackPointExtension>
            <ns3:hr>137</ns3:hr>
            <ns3:cad>0</ns3:cad>
          </ns3:TrackPointExtension>
        </extensions>
      </trkpt>
      <trkpt lat="38.0405887775123119354248046875" lon="-106.9408269412815570831298828125">
        <ele>4056.800048828125</ele>
        <time>2026-05-25T13:21:37.000Z</time>
        <extensions>
          <ns3:TrackPointExtension>
            <ns3:hr>137</ns3:hr>
            <ns3:cad>44</ns3:cad>
          </ns3:TrackPointExtension>
        </extensions>
      </trkpt>
      <trkpt lat="38.0405795574188232421875" lon="-106.94083272479474544525146484375">
        <ele>4058.199951171875</ele>
        <time>2026-05-25T13:21:40.000Z</time>
        <extensions>
          <ns3:TrackPointExtension>
            <ns3:hr>138</ns3:hr>
            <ns3:cad>44</ns3:cad>
          </ns3:TrackPointExtension>
        </extensions>
      </trkpt>
      <trkpt lat="38.04056706838309764862060546875" lon="-106.940840184688568115234375">
        <ele>4058.39990234375</ele>
        <time>2026-05-25T13:21:42.000Z</time>
        <extensions>
          <ns3:TrackPointExtension>
            <ns3:hr>137</ns3:hr>
            <ns3:cad>44</ns3:cad>
          </ns3:TrackPointExtension>
        </extensions>
      </trkpt>
      <trkpt lat="38.04052616469562053680419921875" lon="-106.9408571161329746246337890625">
        <ele>4059</ele>
        <time>2026-05-25T13:21:48.000Z</time>
        <extensions>
          <ns3:TrackPointExtension>
            <ns3:hr>140</ns3:hr>
            <ns3:cad>0</ns3:cad>
          </ns3:TrackPointExtension>
        </extensions>
      </trkpt>
      <trkpt lat="38.04051895625889301300048828125" lon="-106.94085954688489437103271484375">
        <ele>4059.199951171875</ele>
        <time>2026-05-25T13:21:49.000Z</time>
        <extensions>
          <ns3:TrackPointExtension>
            <ns3:hr>140</ns3:hr>
            <ns3:cad>0</ns3:cad>
          </ns3:TrackPointExtension>
        </extensions>
      </trkpt>
      <trkpt lat="38.04049012251198291778564453125" lon="-106.9408624805510044097900390625">
        <ele>4059.60009765625</ele>
        <time>2026-05-25T13:21:54.000Z</time>
        <extensions>
          <ns3:TrackPointExtension>
            <ns3:hr>140</ns3:hr>
            <ns3:cad>0</ns3:cad>
          </ns3:TrackPointExtension>
        </extensions>
      </trkpt>
      <trkpt lat="38.0404841713607311248779296875" lon="-106.94086574949324131011962890625">
        <ele>4061</ele>
        <time>2026-05-25T13:21:56.000Z</time>
        <extensions>
          <ns3:TrackPointExtension>
            <ns3:hr>140</ns3:hr>
            <ns3:cad>0</ns3:cad>
          </ns3:TrackPointExtension>
        </extensions>
      </trkpt>
      <trkpt lat="38.0404801480472087860107421875" lon="-106.9408678449690341949462890625">
        <ele>4061.60009765625</ele>
        <time>2026-05-25T13:21:57.000Z</time>
        <extensions>
          <ns3:TrackPointExtension>
            <ns3:hr>140</ns3:hr>
            <ns3:cad>0</ns3:cad>
          </ns3:TrackPointExtension>
        </extensions>
      </trkpt>
      <trkpt lat="38.040439747273921966552734375" lon="-106.94089625962078571319580078125">
        <ele>4060.199951171875</ele>
        <time>2026-05-25T13:22:03.000Z</time>
        <extensions>
          <ns3:TrackPointExtension>
            <ns3:hr>137</ns3:hr>
            <ns3:cad>40</ns3:cad>
          </ns3:TrackPointExtension>
        </extensions>
      </trkpt>
      <trkpt lat="38.04043061099946498870849609375" lon="-106.940898858010768890380859375">
        <ele>4060.199951171875</ele>
        <time>2026-05-25T13:22:04.000Z</time>
        <extensions>
          <ns3:TrackPointExtension>
            <ns3:hr>137</ns3:hr>
            <ns3:cad>40</ns3:cad>
          </ns3:TrackPointExtension>
        </extensions>
      </trkpt>
      <trkpt lat="38.0404003523290157318115234375" lon="-106.94091863930225372314453125">
        <ele>4061.60009765625</ele>
        <time>2026-05-25T13:22:09.000Z</time>
        <extensions>
          <ns3:TrackPointExtension>
            <ns3:hr>133</ns3:hr>
            <ns3:cad>0</ns3:cad>
          </ns3:TrackPointExtension>
        </extensions>
      </trkpt>
      <trkpt lat="38.0403824150562286376953125" lon="-106.94093196652829647064208984375">
        <ele>4062.199951171875</ele>
        <time>2026-05-25T13:22:10.000Z</time>
        <extensions>
          <ns3:TrackPointExtension>
            <ns3:hr>133</ns3:hr>
            <ns3:cad>0</ns3:cad>
          </ns3:TrackPointExtension>
        </extensions>
      </trkpt>
      <trkpt lat="38.0403544194996356964111328125" lon="-106.9409654103219509124755859375">
        <ele>4063.39990234375</ele>
        <time>2026-05-25T13:22:15.000Z</time>
        <extensions>
          <ns3:TrackPointExtension>
            <ns3:hr>133</ns3:hr>
            <ns3:cad>60</ns3:cad>
          </ns3:TrackPointExtension>
        </extensions>
      </trkpt>
      <trkpt lat="38.04031334817409515380859375" lon="-106.94099600426852703094482421875">
        <ele>4063.800048828125</ele>
        <time>2026-05-25T13:22:21.000Z</time>
        <extensions>
          <ns3:TrackPointExtension>
            <ns3:hr>133</ns3:hr>
            <ns3:cad>0</ns3:cad>
          </ns3:TrackPointExtension>
        </extensions>
      </trkpt>
      <trkpt lat="38.04031108506023883819580078125" lon="-106.94100069813430309295654296875">
        <ele>4064</ele>
        <time>2026-05-25T13:22:22.000Z</time>
        <extensions>
          <ns3:TrackPointExtension>
            <ns3:hr>132</ns3:hr>
            <ns3:cad>0</ns3:cad>
          </ns3:TrackPointExtension>
        </extensions>
      </trkpt>
      <trkpt lat="38.04030320607125759124755859375" lon="-106.94100916385650634765625">
        <ele>4064.39990234375</ele>
        <time>2026-05-25T13:22:24.000Z</time>
        <extensions>
          <ns3:TrackPointExtension>
            <ns3:hr>132</ns3:hr>
            <ns3:cad>0</ns3:cad>
          </ns3:TrackPointExtension>
        </extensions>
      </trkpt>
      <trkpt lat="38.040266074240207672119140625" lon="-106.9410301186144351959228515625">
        <ele>4064.800048828125</ele>
        <time>2026-05-25T13:22:28.000Z</time>
        <extensions>
          <ns3:TrackPointExtension>
            <ns3:hr>131</ns3:hr>
            <ns3:cad>0</ns3:cad>
          </ns3:TrackPointExtension>
        </extensions>
      </trkpt>
      <trkpt lat="38.04025702178478240966796875" lon="-106.94103137589991092681884765625">
        <ele>4065</ele>
        <time>2026-05-25T13:22:30.000Z</time>
        <extensions>
          <ns3:TrackPointExtension>
            <ns3:hr>128</ns3:hr>
            <ns3:cad>0</ns3:cad>
          </ns3:TrackPointExtension>
        </extensions>
      </trkpt>
      <trkpt lat="38.0402377434074878692626953125" lon="-106.941046379506587982177734375">
        <ele>4065.39990234375</ele>
        <time>2026-05-25T13:22:33.000Z</time>
        <extensions>
          <ns3:TrackPointExtension>
            <ns3:hr>127</ns3:hr>
            <ns3:cad>0</ns3:cad>
          </ns3:TrackPointExtension>
        </extensions>
      </trkpt>
      <trkpt lat="38.0402377434074878692626953125" lon="-106.941046379506587982177734375">
        <ele>4065.60009765625</ele>
        <time>2026-05-25T13:22:34.000Z</time>
        <extensions>
          <ns3:TrackPointExtension>
            <ns3:hr>128</ns3:hr>
            <ns3:cad>0</ns3:cad>
          </ns3:TrackPointExtension>
        </extensions>
      </trkpt>
      <trkpt lat="38.040196336805820465087890625" lon="-106.94107479415833950042724609375">
        <ele>4066.60009765625</ele>
        <time>2026-05-25T13:22:39.000Z</time>
        <extensions>
          <ns3:TrackPointExtension>
            <ns3:hr>132</ns3:hr>
            <ns3:cad>0</ns3:cad>
          </ns3:TrackPointExtension>
        </extensions>
      </trkpt>
      <trkpt lat="38.04019222967326641082763671875" lon="-106.9410797394812107086181640625">
        <ele>4066.60009765625</ele>
        <time>2026-05-25T13:22:40.000Z</time>
        <extensions>
          <ns3:TrackPointExtension>
            <ns3:hr>139</ns3:hr>
            <ns3:cad>0</ns3:cad>
          </ns3:TrackPointExtension>
        </extensions>
      </trkpt>
      <trkpt lat="38.04018485359847545623779296875" lon="-106.94108552299439907073974609375">
        <ele>4066.800048828125</ele>
        <time>2026-05-25T13:22:41.000Z</time>
        <extensions>
          <ns3:TrackPointExtension>
            <ns3:hr>138</ns3:hr>
            <ns3:cad>0</ns3:cad>
          </ns3:TrackPointExtension>
        </extensions>
      </trkpt>
      <trkpt lat="38.040163479745388031005859375" lon="-106.9411025382578372955322265625">
        <ele>4067.39990234375</ele>
        <time>2026-05-25T13:22:46.000Z</time>
        <extensions>
          <ns3:TrackPointExtension>
            <ns3:hr>135</ns3:hr>
            <ns3:cad>0</ns3:cad>
          </ns3:TrackPointExtension>
        </extensions>
      </trkpt>
      <trkpt lat="38.04014881141483783721923828125" lon="-106.941111087799072265625">
        <ele>4067.60009765625</ele>
        <time>2026-05-25T13:22:48.000Z</time>
        <extensions>
          <ns3:TrackPointExtension>
            <ns3:hr>134</ns3:hr>
            <ns3:cad>55</ns3:cad>
          </ns3:TrackPointExtension>
        </extensions>
      </trkpt>
      <trkpt lat="38.04012014530599117279052734375" lon="-106.94112944416701793670654296875">
        <ele>4068.199951171875</ele>
        <time>2026-05-25T13:22:51.000Z</time>
        <extensions>
          <ns3:TrackPointExtension>
            <ns3:hr>131</ns3:hr>
            <ns3:cad>52</ns3:cad>
          </ns3:TrackPointExtension>
        </extensions>
      </trkpt>
      <trkpt lat="38.040107823908329010009765625" lon="-106.94114050827920436859130859375">
        <ele>4068.60009765625</ele>
        <time>2026-05-25T13:22:53.000Z</time>
        <extensions>
          <ns3:TrackPointExtension>
            <ns3:hr>130</ns3:hr>
            <ns3:cad>58</ns3:cad>
          </ns3:TrackPointExtension>
        </extensions>
      </trkpt>
      <trkpt lat="38.0401022918522357940673828125" lon="-106.9411464594304561614990234375">
        <ele>4068.60009765625</ele>
        <time>2026-05-25T13:22:54.000Z</time>
        <extensions>
          <ns3:TrackPointExtension>
            <ns3:hr>129</ns3:hr>
            <ns3:cad>58</ns3:cad>
          </ns3:TrackPointExtension>
        </extensions>
      </trkpt>
      <trkpt lat="38.04008133709430694580078125" lon="-106.94117269478738307952880859375">
        <ele>4069</ele>
        <time>2026-05-25T13:22:59.000Z</time>
        <extensions>
          <ns3:TrackPointExtension>
            <ns3:hr>127</ns3:hr>
            <ns3:cad>0</ns3:cad>
          </ns3:TrackPointExtension>
        </extensions>
      </trkpt>
      <trkpt lat="38.0400446243584156036376953125" lon="-106.941204965114593505859375">
        <ele>4069.800048828125</ele>
        <time>2026-05-25T13:23:05.000Z</time>
        <extensions>
          <ns3:TrackPointExtension>
            <ns3:hr>128</ns3:hr>
            <ns3:cad>0</ns3:cad>
          </ns3:TrackPointExtension>
        </extensions>
      </trkpt>
      <trkpt lat="38.04003079421818256378173828125" lon="-106.94121837615966796875">
        <ele>4070</ele>
        <time>2026-05-25T13:23:06.000Z</time>
        <extensions>
          <ns3:TrackPointExtension>
            <ns3:hr>128</ns3:hr>
            <ns3:cad>0</ns3:cad>
          </ns3:TrackPointExtension>
        </extensions>
      </trkpt>
      <trkpt lat="38.03999793715775012969970703125" lon="-106.94123857654631137847900390625">
        <ele>4070.800048828125</ele>
        <time>2026-05-25T13:23:12.000Z</time>
        <extensions>
          <ns3:TrackPointExtension>
            <ns3:hr>125</ns3:hr>
            <ns3:cad>0</ns3:cad>
          </ns3:TrackPointExtension>
        </extensions>
      </trkpt>
      <trkpt lat="38.0399906449019908905029296875" lon="-106.94124846719205379486083984375">
        <ele>4071</ele>
        <time>2026-05-25T13:23:13.000Z</time>
        <extensions>
          <ns3:TrackPointExtension>
            <ns3:hr>126</ns3:hr>
            <ns3:cad>0</ns3:cad>
          </ns3:TrackPointExtension>
        </extensions>
      </trkpt>
      <trkpt lat="38.0399768985807895660400390625" lon="-106.9412544183433055877685546875">
        <ele>4071.199951171875</ele>
        <time>2026-05-25T13:23:15.000Z</time>
        <extensions>
          <ns3:TrackPointExtension>
            <ns3:hr>126</ns3:hr>
            <ns3:cad>0</ns3:cad>
          </ns3:TrackPointExtension>
        </extensions>
      </trkpt>
      <trkpt lat="38.0399457179009914398193359375" lon="-106.94127260707318782806396484375">
        <ele>4072.199951171875</ele>
        <time>2026-05-25T13:23:20.000Z</time>
        <extensions>
          <ns3:TrackPointExtension>
            <ns3:hr>126</ns3:hr>
            <ns3:cad>0</ns3:cad>
          </ns3:TrackPointExtension>
        </extensions>
      </trkpt>
      <trkpt lat="38.03993540816009044647216796875" lon="-106.9412778876721858978271484375">
        <ele>4072.39990234375</ele>
        <time>2026-05-25T13:23:22.000Z</time>
        <extensions>
          <ns3:TrackPointExtension>
            <ns3:hr>125</ns3:hr>
            <ns3:cad>0</ns3:cad>
          </ns3:TrackPointExtension>
        </extensions>
      </trkpt>
      <trkpt lat="38.03990137763321399688720703125" lon="-106.94131518714129924774169921875">
        <ele>4072.60009765625</ele>
        <time>2026-05-25T13:23:27.000Z</time>
        <extensions>
          <ns3:TrackPointExtension>
            <ns3:hr>122</ns3:hr>
            <ns3:cad>0</ns3:cad>
          </ns3:TrackPointExtension>
        </extensions>
      </trkpt>
      <trkpt lat="38.03988075815141201019287109375" lon="-106.9413332082331180572509765625">
        <ele>4073.199951171875</ele>
        <time>2026-05-25T13:23:30.000Z</time>
        <extensions>
          <ns3:TrackPointExtension>
            <ns3:hr>120</ns3:hr>
            <ns3:cad>0</ns3:cad>
          </ns3:TrackPointExtension>
        </extensions>
      </trkpt>
      <trkpt lat="38.039875812828540802001953125" lon="-106.94133513607084751129150390625">
        <ele>4073.39990234375</ele>
        <time>2026-05-25T13:23:31.000Z</time>
        <extensions>
          <ns3:TrackPointExtension>
            <ns3:hr>120</ns3:hr>
            <ns3:cad>0</ns3:cad>
          </ns3:TrackPointExtension>
        </extensions>
      </trkpt>
      <trkpt lat="38.03984203375875949859619140625" lon="-106.94135743193328380584716796875">
        <ele>4074.199951171875</ele>
        <time>2026-05-25T13:23:37.000Z</time>
        <extensions>
          <ns3:TrackPointExtension>
            <ns3:hr>120</ns3:hr>
            <ns3:cad>0</ns3:cad>
          </ns3:TrackPointExtension>
        </extensions>
      </trkpt>
      <trkpt lat="38.0398434586822986602783203125" lon="-106.94136279635131359100341796875">
        <ele>4074.199951171875</ele>
        <time>2026-05-25T13:23:38.000Z</time>
        <extensions>
          <ns3:TrackPointExtension>
            <ns3:hr>120</ns3:hr>
            <ns3:cad>0</ns3:cad>
          </ns3:TrackPointExtension>
        </extensions>
      </trkpt>
      <trkpt lat="38.0398109368979930877685546875" lon="-106.941383667290210723876953125">
        <ele>4074.800048828125</ele>
        <time>2026-05-25T13:23:41.000Z</time>
        <extensions>
          <ns3:TrackPointExtension>
            <ns3:hr>117</ns3:hr>
            <ns3:cad>0</ns3:cad>
          </ns3:TrackPointExtension>
        </extensions>
      </trkpt>
      <trkpt lat="38.0398022197186946868896484375" lon="-106.9413908757269382476806640625">
        <ele>4075</ele>
        <time>2026-05-25T13:23:42.000Z</time>
        <extensions>
          <ns3:TrackPointExtension>
            <ns3:hr>117</ns3:hr>
            <ns3:cad>0</ns3:cad>
          </ns3:TrackPointExtension>
        </extensions>
      </trkpt>
      <trkpt lat="38.0397924967110157012939453125" lon="-106.94139766506850719451904296875">
        <ele>4075.199951171875</ele>
        <time>2026-05-25T13:23:44.000Z</time>
        <extensions>
          <ns3:TrackPointExtension>
            <ns3:hr>116</ns3:hr>
            <ns3:cad>0</ns3:cad>
          </ns3:TrackPointExtension>
        </extensions>
      </trkpt>
      <trkpt lat="38.0397727154195308685302734375" lon="-106.94141753017902374267578125">
        <ele>4075.199951171875</ele>
        <time>2026-05-25T13:23:47.000Z</time>
        <extensions>
          <ns3:TrackPointExtension>
            <ns3:hr>113</ns3:hr>
            <ns3:cad>0</ns3:cad>
          </ns3:TrackPointExtension>
        </extensions>
      </trkpt>
      <trkpt lat="38.03971923887729644775390625" lon="-106.941454410552978515625">
        <ele>4076.199951171875</ele>
        <time>2026-05-25T13:23:53.000Z</time>
        <extensions>
          <ns3:TrackPointExtension>
            <ns3:hr>111</ns3:hr>
            <ns3:cad>0</ns3:cad>
          </ns3:TrackPointExtension>
        </extensions>
      </trkpt>
      <trkpt lat="38.03971228189766407012939453125" lon="-106.941457428038120269775390625">
        <ele>4076.199951171875</ele>
        <time>2026-05-25T13:23:54.000Z</time>
        <extensions>
          <ns3:TrackPointExtension>
            <ns3:hr>110</ns3:hr>
            <ns3:cad>0</ns3:cad>
          </ns3:TrackPointExtension>
        </extensions>
      </trkpt>
      <trkpt lat="38.03968462161719799041748046875" lon="-106.9414798915386199951171875">
        <ele>4076.800048828125</ele>
        <time>2026-05-25T13:23:59.000Z</time>
        <extensions>
          <ns3:TrackPointExtension>
            <ns3:hr>112</ns3:hr>
            <ns3:cad>0</ns3:cad>
          </ns3:TrackPointExtension>
        </extensions>
      </trkpt>
      <trkpt lat="38.0396650917828083038330078125" lon="-106.9415067136287689208984375">
        <ele>4077.39990234375</ele>
        <time>2026-05-25T13:24:02.000Z</time>
        <extensions>
          <ns3:TrackPointExtension>
            <ns3:hr>111</ns3:hr>
            <ns3:cad>0</ns3:cad>
          </ns3:TrackPointExtension>
        </extensions>
      </trkpt>
      <trkpt lat="38.03965779952704906463623046875" lon="-106.9415201246738433837890625">
        <ele>4077.800048828125</ele>
        <time>2026-05-25T13:24:04.000Z</time>
        <extensions>
          <ns3:TrackPointExtension>
            <ns3:hr>114</ns3:hr>
            <ns3:cad>0</ns3:cad>
          </ns3:TrackPointExtension>
        </extensions>
      </trkpt>
      <trkpt lat="38.03962712176144123077392578125" lon="-106.94154418073594570159912109375">
        <ele>4078.199951171875</ele>
        <time>2026-05-25T13:24:09.000Z</time>
        <extensions>
          <ns3:TrackPointExtension>
            <ns3:hr>116</ns3:hr>
            <ns3:cad>0</ns3:cad>
          </ns3:TrackPointExtension>
        </extensions>
      </trkpt>
      <trkpt lat="38.0396141298115253448486328125" lon="-106.9415625371038913726806640625">
        <ele>4078.60009765625</ele>
        <time>2026-05-25T13:24:12.000Z</time>
        <extensions>
          <ns3:TrackPointExtension>
            <ns3:hr>116</ns3:hr>
            <ns3:cad>0</ns3:cad>
          </ns3:TrackPointExtension>
        </extensions>
      </trkpt>
      <trkpt lat="38.03959325887262821197509765625" lon="-106.94158910773694515228271484375">
        <ele>4079</ele>
        <time>2026-05-25T13:24:15.000Z</time>
        <extensions>
          <ns3:TrackPointExtension>
            <ns3:hr>114</ns3:hr>
            <ns3:cad>0</ns3:cad>
          </ns3:TrackPointExtension>
        </extensions>
      </trkpt>
      <trkpt lat="38.03956995718181133270263671875" lon="-106.94161660037934780120849609375">
        <ele>4079.60009765625</ele>
        <time>2026-05-25T13:24:19.000Z</time>
        <extensions>
          <ns3:TrackPointExtension>
            <ns3:hr>111</ns3:hr>
            <ns3:cad>0</ns3:cad>
          </ns3:TrackPointExtension>
        </extensions>
      </trkpt>
      <trkpt lat="38.03956995718181133270263671875" lon="-106.94161660037934780120849609375">
        <ele>4079.60009765625</ele>
        <time>2026-05-25T13:24:20.000Z</time>
        <extensions>
          <ns3:TrackPointExtension>
            <ns3:hr>111</ns3:hr>
            <ns3:cad>0</ns3:cad>
          </ns3:TrackPointExtension>
        </extensions>
      </trkpt>
      <trkpt lat="38.0395661853253841400146484375" lon="-106.9416198693215847015380859375">
        <ele>4079.800048828125</ele>
        <time>2026-05-25T13:24:21.000Z</time>
        <extensions>
          <ns3:TrackPointExtension>
            <ns3:hr>112</ns3:hr>
            <ns3:cad>0</ns3:cad>
          </ns3:TrackPointExtension>
        </extensions>
      </trkpt>
      <trkpt lat="38.039533831179141998291015625" lon="-106.9416456855833530426025390625">
        <ele>4080</ele>
        <time>2026-05-25T13:24:24.000Z</time>
        <extensions>
          <ns3:TrackPointExtension>
            <ns3:hr>115</ns3:hr>
            <ns3:cad>0</ns3:cad>
          </ns3:TrackPointExtension>
        </extensions>
      </trkpt>
      <trkpt lat="38.03951581008732318878173828125" lon="-106.9416649639606475830078125">
        <ele>4080.60009765625</ele>
        <time>2026-05-25T13:24:27.000Z</time>
        <extensions>
          <ns3:TrackPointExtension>
            <ns3:hr>117</ns3:hr>
            <ns3:cad>0</ns3:cad>
          </ns3:TrackPointExtension>
        </extensions>
      </trkpt>
      <trkpt lat="38.0395118705928325653076171875" lon="-106.9416698254644870758056640625">
        <ele>4080.800048828125</ele>
        <time>2026-05-25T13:24:29.000Z</time>
        <extensions>
          <ns3:TrackPointExtension>
            <ns3:hr>117</ns3:hr>
            <ns3:cad>0</ns3:cad>
          </ns3:TrackPointExtension>
        </extensions>
      </trkpt>
      <trkpt lat="38.039468787610530853271484375" lon="-106.94171181879937648773193359375">
        <ele>4081.39990234375</ele>
        <time>2026-05-25T13:24:34.000Z</time>
        <extensions>
          <ns3:TrackPointExtension>
            <ns3:hr>115</ns3:hr>
            <ns3:cad>42</ns3:cad>
          </ns3:TrackPointExtension>
        </extensions>
      </trkpt>
      <trkpt lat="38.0394468270242214202880859375" lon="-106.9417301751673221588134765625">
        <ele>4081.800048828125</ele>
        <time>2026-05-25T13:24:37.000Z</time>
        <extensions>
          <ns3:TrackPointExtension>
            <ns3:hr>113</ns3:hr>
            <ns3:cad>0</ns3:cad>
          </ns3:TrackPointExtension>
        </extensions>
      </trkpt>
      <trkpt lat="38.0394307337701320648193359375" lon="-106.94174610078334808349609375">
        <ele>4082</ele>
        <time>2026-05-25T13:24:40.000Z</time>
        <extensions>
          <ns3:TrackPointExtension>
            <ns3:hr>114</ns3:hr>
            <ns3:cad>0</ns3:cad>
          </ns3:TrackPointExtension>
        </extensions>
      </trkpt>
      <trkpt lat="38.03940081037580966949462890625" lon="-106.9417710788547992706298828125">
        <ele>4082.39990234375</ele>
        <time>2026-05-25T13:24:46.000Z</time>
        <extensions>
          <ns3:TrackPointExtension>
            <ns3:hr>111</ns3:hr>
            <ns3:cad>0</ns3:cad>
          </ns3:TrackPointExtension>
        </extensions>
      </trkpt>
      <trkpt lat="38.039364516735076904296875" lon="-106.94179513491690158843994140625">
        <ele>4083</ele>
        <time>2026-05-25T13:24:50.000Z</time>
        <extensions>
          <ns3:TrackPointExtension>
            <ns3:hr>111</ns3:hr>
            <ns3:cad>0</ns3:cad>
          </ns3:TrackPointExtension>
        </extensions>
      </trkpt>
      <trkpt lat="38.03935722447931766510009765625" lon="-106.9418012537062168121337890625">
        <ele>4083.199951171875</ele>
        <time>2026-05-25T13:24:51.000Z</time>
        <extensions>
          <ns3:TrackPointExtension>
            <ns3:hr>111</ns3:hr>
            <ns3:cad>79</ns3:cad>
          </ns3:TrackPointExtension>
        </extensions>
      </trkpt>
      <trkpt lat="38.0393194220960140228271484375" lon="-106.94184274412691593170166015625">
        <ele>4084</ele>
        <time>2026-05-25T13:24:57.000Z</time>
        <extensions>
          <ns3:TrackPointExtension>
            <ns3:hr>121</ns3:hr>
            <ns3:cad>0</ns3:cad>
          </ns3:TrackPointExtension>
        </extensions>
      </trkpt>
      <trkpt lat="38.0393194220960140228271484375" lon="-106.94184274412691593170166015625">
        <ele>4084</ele>
        <time>2026-05-25T13:24:58.000Z</time>
        <extensions>
          <ns3:TrackPointExtension>
            <ns3:hr>124</ns3:hr>
            <ns3:cad>0</ns3:cad>
          </ns3:TrackPointExtension>
        </extensions>
      </trkpt>
      <trkpt lat="38.03931900300085544586181640625" lon="-106.94184743799269199371337890625">
        <ele>4084</ele>
        <time>2026-05-25T13:24:59.000Z</time>
        <extensions>
          <ns3:TrackPointExtension>
            <ns3:hr>127</ns3:hr>
            <ns3:cad>0</ns3:cad>
          </ns3:TrackPointExtension>
        </extensions>
      </trkpt>
      <trkpt lat="38.03926334716379642486572265625" lon="-106.9418927840888500213623046875">
        <ele>4084.39990234375</ele>
        <time>2026-05-25T13:25:05.000Z</time>
        <extensions>
          <ns3:TrackPointExtension>
            <ns3:hr>129</ns3:hr>
            <ns3:cad>0</ns3:cad>
          </ns3:TrackPointExtension>
        </extensions>
      </trkpt>
      <trkpt lat="38.0392550490796566009521484375" lon="-106.94190057925879955291748046875">
        <ele>4084.800048828125</ele>
        <time>2026-05-25T13:25:07.000Z</time>
        <extensions>
          <ns3:TrackPointExtension>
            <ns3:hr>124</ns3:hr>
            <ns3:cad>0</ns3:cad>
          </ns3:TrackPointExtension>
        </extensions>
      </trkpt>
      <trkpt lat="38.0392344295978546142578125" lon="-106.9419145770370960235595703125">
        <ele>4085.199951171875</ele>
        <time>2026-05-25T13:25:09.000Z</time>
        <extensions>
          <ns3:TrackPointExtension>
            <ns3:hr>125</ns3:hr>
            <ns3:cad>0</ns3:cad>
          </ns3:TrackPointExtension>
        </extensions>
      </trkpt>
      <trkpt lat="38.03921959362924098968505859375" lon="-106.9419222883880138397216796875">
        <ele>4085.60009765625</ele>
        <time>2026-05-25T13:25:11.000Z</time>
        <extensions>
          <ns3:TrackPointExtension>
            <ns3:hr>125</ns3:hr>
            <ns3:cad>0</ns3:cad>
          </ns3:TrackPointExtension>
        </extensions>
      </trkpt>
      <trkpt lat="38.03919662721455097198486328125" lon="-106.941944919526576995849609375">
        <ele>4086.199951171875</ele>
        <time>2026-05-25T13:25:15.000Z</time>
        <extensions>
          <ns3:TrackPointExtension>
            <ns3:hr>125</ns3:hr>
            <ns3:cad>0</ns3:cad>
          </ns3:TrackPointExtension>
        </extensions>
      </trkpt>
      <trkpt lat="38.03918547928333282470703125" lon="-106.94195187650620937347412109375">
        <ele>4086.199951171875</ele>
        <time>2026-05-25T13:25:16.000Z</time>
        <extensions>
          <ns3:TrackPointExtension>
            <ns3:hr>126</ns3:hr>
            <ns3:cad>0</ns3:cad>
          </ns3:TrackPointExtension>
        </extensions>
      </trkpt>
      <trkpt lat="38.039159663021564483642578125" lon="-106.94197182543575763702392578125">
        <ele>4086.60009765625</ele>
        <time>2026-05-25T13:25:19.000Z</time>
        <extensions>
          <ns3:TrackPointExtension>
            <ns3:hr>129</ns3:hr>
            <ns3:cad>0</ns3:cad>
          </ns3:TrackPointExtension>
        </extensions>
      </trkpt>
      <trkpt lat="38.03910777904093265533447265625" lon="-106.9419960491359233856201171875">
        <ele>4087</ele>
        <time>2026-05-25T13:25:25.000Z</time>
        <extensions>
          <ns3:TrackPointExtension>
            <ns3:hr>132</ns3:hr>
            <ns3:cad>0</ns3:cad>
          </ns3:TrackPointExtension>
        </extensions>
      </trkpt>
      <trkpt lat="38.03909922949969768524169921875" lon="-106.94200049154460430145263671875">
        <ele>4087.199951171875</ele>
        <time>2026-05-25T13:25:26.000Z</time>
        <extensions>
          <ns3:TrackPointExtension>
            <ns3:hr>132</ns3:hr>
            <ns3:cad>0</ns3:cad>
          </ns3:TrackPointExtension>
        </extensions>
      </trkpt>
      <trkpt lat="38.03903301246464252471923828125" lon="-106.9420275650918483734130859375">
        <ele>4087.60009765625</ele>
        <time>2026-05-25T13:25:32.000Z</time>
        <extensions>
          <ns3:TrackPointExtension>
            <ns3:hr>133</ns3:hr>
            <ns3:cad>47</ns3:cad>
          </ns3:TrackPointExtension>
        </extensions>
      </trkpt>
      <trkpt lat="38.0390035919845104217529296875" lon="-106.94204642437398433685302734375">
        <ele>4088.199951171875</ele>
        <time>2026-05-25T13:25:37.000Z</time>
        <extensions>
          <ns3:TrackPointExtension>
            <ns3:hr>133</ns3:hr>
            <ns3:cad>47</ns3:cad>
          </ns3:TrackPointExtension>
        </extensions>
      </trkpt>
      <trkpt lat="38.0389690585434436798095703125" lon="-106.9420527108013629913330078125">
        <ele>4088.60009765625</ele>
        <time>2026-05-25T13:25:40.000Z</time>
        <extensions>
          <ns3:TrackPointExtension>
            <ns3:hr>130</ns3:hr>
            <ns3:cad>47</ns3:cad>
          </ns3:TrackPointExtension>
        </extensions>
      </trkpt>
      <trkpt lat="38.0389472655951976776123046875" lon="-106.94206402637064456939697265625">
        <ele>4088.800048828125</ele>
        <time>2026-05-25T13:25:43.000Z</time>
        <extensions>
          <ns3:TrackPointExtension>
            <ns3:hr>127</ns3:hr>
            <ns3:cad>47</ns3:cad>
          </ns3:TrackPointExtension>
        </extensions>
      </trkpt>
      <trkpt lat="38.0389147438108921051025390625" lon="-106.9420912675559520721435546875">
        <ele>4089.39990234375</ele>
        <time>2026-05-25T13:25:48.000Z</time>
        <extensions>
          <ns3:TrackPointExtension>
            <ns3:hr>124</ns3:hr>
            <ns3:cad>0</ns3:cad>
          </ns3:TrackPointExtension>
        </extensions>
      </trkpt>
      <trkpt lat="38.03888934664428234100341796875" lon="-106.9420999847352504730224609375">
        <ele>4089.800048828125</ele>
        <time>2026-05-25T13:25:51.000Z</time>
        <extensions>
          <ns3:TrackPointExtension>
            <ns3:hr>124</ns3:hr>
            <ns3:cad>0</ns3:cad>
          </ns3:TrackPointExtension>
        </extensions>
      </trkpt>
      <trkpt lat="38.0388736724853515625" lon="-106.9421194307506084442138671875">
        <ele>4090.199951171875</ele>
        <time>2026-05-25T13:25:55.000Z</time>
        <extensions>
          <ns3:TrackPointExtension>
            <ns3:hr>123</ns3:hr>
            <ns3:cad>0</ns3:cad>
          </ns3:TrackPointExtension>
        </extensions>
      </trkpt>
      <trkpt lat="38.038833774626255035400390625" lon="-106.94213678129017353057861328125">
        <ele>4090.39990234375</ele>
        <time>2026-05-25T13:25:59.000Z</time>
        <extensions>
          <ns3:TrackPointExtension>
            <ns3:hr>123</ns3:hr>
            <ns3:cad>44</ns3:cad>
          </ns3:TrackPointExtension>
        </extensions>
      </trkpt>
      <trkpt lat="38.0388128198683261871337890625" lon="-106.9421489350497722625732421875">
        <ele>4091</ele>
        <time>2026-05-25T13:26:02.000Z</time>
        <extensions>
          <ns3:TrackPointExtension>
            <ns3:hr>121</ns3:hr>
            <ns3:cad>44</ns3:cad>
          </ns3:TrackPointExtension>
        </extensions>
      </trkpt>
      <trkpt lat="38.0387757718563079833984375" lon="-106.94214767776429653167724609375">
        <ele>4091.199951171875</ele>
        <time>2026-05-25T13:26:05.000Z</time>
        <extensions>
          <ns3:TrackPointExtension>
            <ns3:hr>118</ns3:hr>
            <ns3:cad>0</ns3:cad>
          </ns3:TrackPointExtension>
        </extensions>
      </trkpt>
      <trkpt lat="38.0387489497661590576171875" lon="-106.94214574992656707763671875">
        <ele>4091.199951171875</ele>
        <time>2026-05-25T13:26:08.000Z</time>
        <extensions>
          <ns3:TrackPointExtension>
            <ns3:hr>119</ns3:hr>
            <ns3:cad>77</ns3:cad>
          </ns3:TrackPointExtension>
        </extensions>
      </trkpt>
      <trkpt lat="38.03874584846198558807373046875" lon="-106.94215119816362857818603515625">
        <ele>4090.60009765625</ele>
        <time>2026-05-25T13:26:13.000Z</time>
        <extensions>
          <ns3:TrackPointExtension>
            <ns3:hr>119</ns3:hr>
            <ns3:cad>0</ns3:cad>
          </ns3:TrackPointExtension>
        </extensions>
      </trkpt>
      <trkpt lat="38.03874869830906391143798828125" lon="-106.94214633665978908538818359375">
        <ele>4090.39990234375</ele>
        <time>2026-05-25T13:26:19.000Z</time>
        <extensions>
          <ns3:TrackPointExtension>
            <ns3:hr>117</ns3:hr>
            <ns3:cad>0</ns3:cad>
          </ns3:TrackPointExtension>
        </extensions>
      </trkpt>
      <trkpt lat="38.03874584846198558807373046875" lon="-106.94215119816362857818603515625">
        <ele>4090.39990234375</ele>
        <time>2026-05-25T13:26:22.000Z</time>
        <extensions>
          <ns3:TrackPointExtension>
            <ns3:hr>116</ns3:hr>
            <ns3:cad>0</ns3:cad>
          </ns3:TrackPointExtension>
        </extensions>
      </trkpt>
      <trkpt lat="38.03874584846198558807373046875" lon="-106.94215119816362857818603515625">
        <ele>4090.39990234375</ele>
        <time>2026-05-25T13:26:28.000Z</time>
        <extensions>
          <ns3:TrackPointExtension>
            <ns3:hr>115</ns3:hr>
            <ns3:cad>0</ns3:cad>
          </ns3:TrackPointExtension>
        </extensions>
      </trkpt>
      <trkpt lat="38.03874584846198558807373046875" lon="-106.94215119816362857818603515625">
        <ele>4090.199951171875</ele>
        <time>2026-05-25T13:26:31.000Z</time>
        <extensions>
          <ns3:TrackPointExtension>
            <ns3:hr>114</ns3:hr>
            <ns3:cad>0</ns3:cad>
          </ns3:TrackPointExtension>
        </extensions>
      </trkpt>
      <trkpt lat="38.03875020705163478851318359375" lon="-106.94215002469718456268310546875">
        <ele>4089.800048828125</ele>
        <time>2026-05-25T13:26:36.000Z</time>
        <extensions>
          <ns3:TrackPointExtension>
            <ns3:hr>115</ns3:hr>
            <ns3:cad>0</ns3:cad>
          </ns3:TrackPointExtension>
        </extensions>
      </trkpt>
      <trkpt lat="38.03876445628702640533447265625" lon="-106.942149437963962554931640625">
        <ele>4089.800048828125</ele>
        <time>2026-05-25T13:26:39.000Z</time>
        <extensions>
          <ns3:TrackPointExtension>
            <ns3:hr>110</ns3:hr>
            <ns3:cad>0</ns3:cad>
          </ns3:TrackPointExtension>
        </extensions>
      </trkpt>
      <trkpt lat="38.0387628637254238128662109375" lon="-106.94214398972690105438232421875">
        <ele>4090</ele>
        <time>2026-05-25T13:26:40.000Z</time>
        <extensions>
          <ns3:TrackPointExtension>
            <ns3:hr>106</ns3:hr>
            <ns3:cad>0</ns3:cad>
          </ns3:TrackPointExtension>
        </extensions>
      </trkpt>
      <trkpt lat="38.0387628637254238128662109375" lon="-106.94214398972690105438232421875">
        <ele>4090</ele>
        <time>2026-05-25T13:26:41.000Z</time>
        <extensions>
          <ns3:TrackPointExtension>
            <ns3:hr>104</ns3:hr>
            <ns3:cad>0</ns3:cad>
          </ns3:TrackPointExtension>
        </extensions>
      </trkpt>
      <trkpt lat="38.0387568287551403045654296875" lon="-106.94213778711855411529541015625">
        <ele>4089.800048828125</ele>
        <time>2026-05-25T13:26:47.000Z</time>
        <extensions>
          <ns3:TrackPointExtension>
            <ns3:hr>106</ns3:hr>
            <ns3:cad>0</ns3:cad>
          </ns3:TrackPointExtension>
        </extensions>
      </trkpt>
      <trkpt lat="38.0387569963932037353515625" lon="-106.942138709127902984619140625">
        <ele>4089.800048828125</ele>
        <time>2026-05-25T13:26:50.000Z</time>
        <extensions>
          <ns3:TrackPointExtension>
            <ns3:hr>107</ns3:hr>
            <ns3:cad>0</ns3:cad>
          </ns3:TrackPointExtension>
        </extensions>
      </trkpt>
      <trkpt lat="38.0387569963932037353515625" lon="-106.942138709127902984619140625">
        <ele>4089.39990234375</ele>
        <time>2026-05-25T13:26:52.000Z</time>
        <extensions>
          <ns3:TrackPointExtension>
            <ns3:hr>110</ns3:hr>
            <ns3:cad>0</ns3:cad>
          </ns3:TrackPointExtension>
        </extensions>
      </trkpt>
      <trkpt lat="38.0387569963932037353515625" lon="-106.942138709127902984619140625">
        <ele>4089.39990234375</ele>
        <time>2026-05-25T13:26:53.000Z</time>
        <extensions>
          <ns3:TrackPointExtension>
            <ns3:hr>111</ns3:hr>
            <ns3:cad>0</ns3:cad>
          </ns3:TrackPointExtension>
        </extensions>
      </trkpt>
      <trkpt lat="38.0387569963932037353515625" lon="-106.942138709127902984619140625">
        <ele>4089.199951171875</ele>
        <time>2026-05-25T13:26:55.000Z</time>
        <extensions>
          <ns3:TrackPointExtension>
            <ns3:hr>114</ns3:hr>
            <ns3:cad>0</ns3:cad>
          </ns3:TrackPointExtension>
        </extensions>
      </trkpt>
      <trkpt lat="38.03875557146966457366943359375" lon="-106.94213770329952239990234375">
        <ele>4089.199951171875</ele>
        <time>2026-05-25T13:26:58.000Z</time>
        <extensions>
          <ns3:TrackPointExtension>
            <ns3:hr>116</ns3:hr>
            <ns3:cad>0</ns3:cad>
          </ns3:TrackPointExtension>
        </extensions>
      </trkpt>
      <trkpt lat="38.0387569963932037353515625" lon="-106.942138709127902984619140625">
        <ele>4089.39990234375</ele>
        <time>2026-05-25T13:27:03.000Z</time>
        <extensions>
          <ns3:TrackPointExtension>
            <ns3:hr>113</ns3:hr>
            <ns3:cad>0</ns3:cad>
          </ns3:TrackPointExtension>
        </extensions>
      </trkpt>
      <trkpt lat="38.0387569963932037353515625" lon="-106.942138709127902984619140625">
        <ele>4089.199951171875</ele>
        <time>2026-05-25T13:27:06.000Z</time>
        <extensions>
          <ns3:TrackPointExtension>
            <ns3:hr>110</ns3:hr>
            <ns3:cad>0</ns3:cad>
          </ns3:TrackPointExtension>
        </extensions>
      </trkpt>
      <trkpt lat="38.0387569963932037353515625" lon="-106.942138709127902984619140625">
        <ele>4089.60009765625</ele>
        <time>2026-05-25T13:27:10.000Z</time>
        <extensions>
          <ns3:TrackPointExtension>
            <ns3:hr>107</ns3:hr>
            <ns3:cad>0</ns3:cad>
          </ns3:TrackPointExtension>
        </extensions>
      </trkpt>
      <trkpt lat="38.0387569963932037353515625" lon="-106.942138709127902984619140625">
        <ele>4089.60009765625</ele>
        <time>2026-05-25T13:27:11.000Z</time>
        <extensions>
          <ns3:TrackPointExtension>
            <ns3:hr>106</ns3:hr>
            <ns3:cad>0</ns3:cad>
          </ns3:TrackPointExtension>
        </extensions>
      </trkpt>
      <trkpt lat="38.0387569963932037353515625" lon="-106.942138709127902984619140625">
        <ele>4089</ele>
        <time>2026-05-25T13:27:17.000Z</time>
        <extensions>
          <ns3:TrackPointExtension>
            <ns3:hr>105</ns3:hr>
            <ns3:cad>0</ns3:cad>
          </ns3:TrackPointExtension>
        </extensions>
      </trkpt>
      <trkpt lat="38.03876303136348724365234375" lon="-106.94212756119668483734130859375">
        <ele>4088.60009765625</ele>
        <time>2026-05-25T13:27:22.000Z</time>
        <extensions>
          <ns3:TrackPointExtension>
            <ns3:hr>107</ns3:hr>
            <ns3:cad>0</ns3:cad>
          </ns3:TrackPointExtension>
        </extensions>
      </trkpt>
      <trkpt lat="38.0387672223150730133056640625" lon="-106.94212605245411396026611328125">
        <ele>4088.60009765625</ele>
        <time>2026-05-25T13:27:25.000Z</time>
        <extensions>
          <ns3:TrackPointExtension>
            <ns3:hr>110</ns3:hr>
            <ns3:cad>0</ns3:cad>
          </ns3:TrackPointExtension>
        </extensions>
      </trkpt>
      <trkpt lat="38.03876705467700958251953125" lon="-106.94212521426379680633544921875">
        <ele>4088.199951171875</ele>
        <time>2026-05-25T13:27:29.000Z</time>
        <extensions>
          <ns3:TrackPointExtension>
            <ns3:hr>112</ns3:hr>
            <ns3:cad>0</ns3:cad>
          </ns3:TrackPointExtension>
        </extensions>
      </trkpt>
      <trkpt lat="38.03876705467700958251953125" lon="-106.94212521426379680633544921875">
        <ele>4088.199951171875</ele>
        <time>2026-05-25T13:27:35.000Z</time>
        <extensions>
          <ns3:TrackPointExtension>
            <ns3:hr>109</ns3:hr>
            <ns3:cad>0</ns3:cad>
          </ns3:TrackPointExtension>
        </extensions>
      </trkpt>
      <trkpt lat="38.03876705467700958251953125" lon="-106.94212521426379680633544921875">
        <ele>4088.199951171875</ele>
        <time>2026-05-25T13:27:39.000Z</time>
        <extensions>
          <ns3:TrackPointExtension>
            <ns3:hr>106</ns3:hr>
            <ns3:cad>0</ns3:cad>
          </ns3:TrackPointExtension>
        </extensions>
      </trkpt>
      <trkpt lat="38.03876705467700958251953125" lon="-106.94212521426379680633544921875">
        <ele>4087.800048828125</ele>
        <time>2026-05-25T13:27:44.000Z</time>
        <extensions>
          <ns3:TrackPointExtension>
            <ns3:hr>103</ns3:hr>
            <ns3:cad>0</ns3:cad>
          </ns3:TrackPointExtension>
        </extensions>
      </trkpt>
      <trkpt lat="38.03876705467700958251953125" lon="-106.94212521426379680633544921875">
        <ele>4087.800048828125</ele>
        <time>2026-05-25T13:27:45.000Z</time>
        <extensions>
          <ns3:TrackPointExtension>
            <ns3:hr>103</ns3:hr>
            <ns3:cad>0</ns3:cad>
          </ns3:TrackPointExtension>
        </extensions>
      </trkpt>
      <trkpt lat="38.03876705467700958251953125" lon="-106.94212521426379680633544921875">
        <ele>4087.60009765625</ele>
        <time>2026-05-25T13:27:51.000Z</time>
        <extensions>
          <ns3:TrackPointExtension>
            <ns3:hr>101</ns3:hr>
            <ns3:cad>0</ns3:cad>
          </ns3:TrackPointExtension>
        </extensions>
      </trkpt>
      <trkpt lat="38.03876705467700958251953125" lon="-106.94212521426379680633544921875">
        <ele>4087.60009765625</ele>
        <time>2026-05-25T13:27:53.000Z</time>
        <extensions>
          <ns3:TrackPointExtension>
            <ns3:hr>104</ns3:hr>
            <ns3:cad>0</ns3:cad>
          </ns3:TrackPointExtension>
        </extensions>
      </trkpt>
      <trkpt lat="38.03876705467700958251953125" lon="-106.94212521426379680633544921875">
        <ele>4087.60009765625</ele>
        <time>2026-05-25T13:27:58.000Z</time>
        <extensions>
          <ns3:TrackPointExtension>
            <ns3:hr>105</ns3:hr>
            <ns3:cad>0</ns3:cad>
          </ns3:TrackPointExtension>
        </extensions>
      </trkpt>
      <trkpt lat="38.03876705467700958251953125" lon="-106.94212521426379680633544921875">
        <ele>4087.800048828125</ele>
        <time>2026-05-25T13:28:04.000Z</time>
        <extensions>
          <ns3:TrackPointExtension>
            <ns3:hr>104</ns3:hr>
            <ns3:cad>0</ns3:cad>
          </ns3:TrackPointExtension>
        </extensions>
      </trkpt>
      <trkpt lat="38.03876705467700958251953125" lon="-106.94212521426379680633544921875">
        <ele>4087.39990234375</ele>
        <time>2026-05-25T13:28:10.000Z</time>
        <extensions>
          <ns3:TrackPointExtension>
            <ns3:hr>105</ns3:hr>
            <ns3:cad>0</ns3:cad>
          </ns3:TrackPointExtension>
        </extensions>
      </trkpt>
      <trkpt lat="38.03876705467700958251953125" lon="-106.94212521426379680633544921875">
        <ele>4087.60009765625</ele>
        <time>2026-05-25T13:28:14.000Z</time>
        <extensions>
          <ns3:TrackPointExtension>
            <ns3:hr>105</ns3:hr>
            <ns3:cad>0</ns3:cad>
          </ns3:TrackPointExtension>
        </extensions>
      </trkpt>
      <trkpt lat="38.03876705467700958251953125" lon="-106.94212521426379680633544921875">
        <ele>4087.60009765625</ele>
        <time>2026-05-25T13:28:20.000Z</time>
        <extensions>
          <ns3:TrackPointExtension>
            <ns3:hr>106</ns3:hr>
            <ns3:cad>0</ns3:cad>
          </ns3:TrackPointExtension>
        </extensions>
      </trkpt>
      <trkpt lat="38.03876705467700958251953125" lon="-106.94212521426379680633544921875">
        <ele>4087.39990234375</ele>
        <time>2026-05-25T13:28:25.000Z</time>
        <extensions>
          <ns3:TrackPointExtension>
            <ns3:hr>107</ns3:hr>
            <ns3:cad>0</ns3:cad>
          </ns3:TrackPointExtension>
        </extensions>
      </trkpt>
      <trkpt lat="38.03876705467700958251953125" lon="-106.94212521426379680633544921875">
        <ele>4087.39990234375</ele>
        <time>2026-05-25T13:28:30.000Z</time>
        <extensions>
          <ns3:TrackPointExtension>
            <ns3:hr>110</ns3:hr>
            <ns3:cad>0</ns3:cad>
          </ns3:TrackPointExtension>
        </extensions>
      </trkpt>
      <trkpt lat="38.03876705467700958251953125" lon="-106.94212521426379680633544921875">
        <ele>4087.199951171875</ele>
        <time>2026-05-25T13:28:34.000Z</time>
        <extensions>
          <ns3:TrackPointExtension>
            <ns3:hr>111</ns3:hr>
            <ns3:cad>0</ns3:cad>
          </ns3:TrackPointExtension>
        </extensions>
      </trkpt>
      <trkpt lat="38.03876705467700958251953125" lon="-106.94212521426379680633544921875">
        <ele>4087</ele>
        <time>2026-05-25T13:28:40.000Z</time>
        <extensions>
          <ns3:TrackPointExtension>
            <ns3:hr>112</ns3:hr>
            <ns3:cad>0</ns3:cad>
          </ns3:TrackPointExtension>
        </extensions>
      </trkpt>
      <trkpt lat="38.03876705467700958251953125" lon="-106.94212521426379680633544921875">
        <ele>4087</ele>
        <time>2026-05-25T13:28:41.000Z</time>
        <extensions>
          <ns3:TrackPointExtension>
            <ns3:hr>112</ns3:hr>
            <ns3:cad>0</ns3:cad>
          </ns3:TrackPointExtension>
        </extensions>
      </trkpt>
      <trkpt lat="38.03876705467700958251953125" lon="-106.94212521426379680633544921875">
        <ele>4087</ele>
        <time>2026-05-25T13:28:47.000Z</time>
        <extensions>
          <ns3:TrackPointExtension>
            <ns3:hr>111</ns3:hr>
            <ns3:cad>0</ns3:cad>
          </ns3:TrackPointExtension>
        </extensions>
      </trkpt>
      <trkpt lat="38.03876705467700958251953125" lon="-106.94212521426379680633544921875">
        <ele>4086.800048828125</ele>
        <time>2026-05-25T13:28:53.000Z</time>
        <extensions>
          <ns3:TrackPointExtension>
            <ns3:hr>111</ns3:hr>
            <ns3:cad>0</ns3:cad>
          </ns3:TrackPointExtension>
        </extensions>
      </trkpt>
      <trkpt lat="38.03876705467700958251953125" lon="-106.94212521426379680633544921875">
        <ele>4086.60009765625</ele>
        <time>2026-05-25T13:28:55.000Z</time>
        <extensions>
          <ns3:TrackPointExtension>
            <ns3:hr>110</ns3:hr>
            <ns3:cad>0</ns3:cad>
          </ns3:TrackPointExtension>
        </extensions>
      </trkpt>
      <trkpt lat="38.03876705467700958251953125" lon="-106.94212521426379680633544921875">
        <ele>4086.60009765625</ele>
        <time>2026-05-25T13:28:57.000Z</time>
        <extensions>
          <ns3:TrackPointExtension>
            <ns3:hr>107</ns3:hr>
            <ns3:cad>0</ns3:cad>
          </ns3:TrackPointExtension>
        </extensions>
      </trkpt>
      <trkpt lat="38.03876705467700958251953125" lon="-106.94212521426379680633544921875">
        <ele>4086.60009765625</ele>
        <time>2026-05-25T13:28:59.000Z</time>
        <extensions>
          <ns3:TrackPointExtension>
            <ns3:hr>104</ns3:hr>
            <ns3:cad>0</ns3:cad>
          </ns3:TrackPointExtension>
        </extensions>
      </trkpt>
      <trkpt lat="38.03876705467700958251953125" lon="-106.94212521426379680633544921875">
        <ele>4086.60009765625</ele>
        <time>2026-05-25T13:29:02.000Z</time>
        <extensions>
          <ns3:TrackPointExtension>
            <ns3:hr>101</ns3:hr>
            <ns3:cad>0</ns3:cad>
          </ns3:TrackPointExtension>
        </extensions>
      </trkpt>
      <trkpt lat="38.03876705467700958251953125" lon="-106.94212521426379680633544921875">
        <ele>4086.60009765625</ele>
        <time>2026-05-25T13:29:08.000Z</time>
        <extensions>
          <ns3:TrackPointExtension>
            <ns3:hr>99</ns3:hr>
            <ns3:cad>0</ns3:cad>
          </ns3:TrackPointExtension>
        </extensions>
      </trkpt>
      <trkpt lat="38.03876705467700958251953125" lon="-106.94212521426379680633544921875">
        <ele>4086.60009765625</ele>
        <time>2026-05-25T13:29:14.000Z</time>
        <extensions>
          <ns3:TrackPointExtension>
            <ns3:hr>101</ns3:hr>
            <ns3:cad>0</ns3:cad>
          </ns3:TrackPointExtension>
        </extensions>
      </trkpt>
      <trkpt lat="38.03876705467700958251953125" lon="-106.94212521426379680633544921875">
        <ele>4086.60009765625</ele>
        <time>2026-05-25T13:29:15.000Z</time>
        <extensions>
          <ns3:TrackPointExtension>
            <ns3:hr>101</ns3:hr>
            <ns3:cad>0</ns3:cad>
          </ns3:TrackPointExtension>
        </extensions>
      </trkpt>
      <trkpt lat="38.03876705467700958251953125" lon="-106.94212521426379680633544921875">
        <ele>4086.39990234375</ele>
        <time>2026-05-25T13:29:21.000Z</time>
        <extensions>
          <ns3:TrackPointExtension>
            <ns3:hr>101</ns3:hr>
            <ns3:cad>0</ns3:cad>
          </ns3:TrackPointExtension>
        </extensions>
      </trkpt>
      <trkpt lat="38.03876705467700958251953125" lon="-106.94212521426379680633544921875">
        <ele>4086.60009765625</ele>
        <time>2026-05-25T13:29:25.000Z</time>
        <extensions>
          <ns3:TrackPointExtension>
            <ns3:hr>98</ns3:hr>
            <ns3:cad>0</ns3:cad>
          </ns3:TrackPointExtension>
        </extensions>
      </trkpt>
      <trkpt lat="38.03876705467700958251953125" lon="-106.94212521426379680633544921875">
        <ele>4086.39990234375</ele>
        <time>2026-05-25T13:29:27.000Z</time>
        <extensions>
          <ns3:TrackPointExtension>
            <ns3:hr>94</ns3:hr>
            <ns3:cad>0</ns3:cad>
          </ns3:TrackPointExtension>
        </extensions>
      </trkpt>
      <trkpt lat="38.03876705467700958251953125" lon="-106.94212521426379680633544921875">
        <ele>4086.39990234375</ele>
        <time>2026-05-25T13:29:30.000Z</time>
        <extensions>
          <ns3:TrackPointExtension>
            <ns3:hr>91</ns3:hr>
            <ns3:cad>0</ns3:cad>
          </ns3:TrackPointExtension>
        </extensions>
      </trkpt>
      <trkpt lat="38.03876705467700958251953125" lon="-106.94212521426379680633544921875">
        <ele>4086.39990234375</ele>
        <time>2026-05-25T13:29:34.000Z</time>
        <extensions>
          <ns3:TrackPointExtension>
            <ns3:hr>88</ns3:hr>
            <ns3:cad>0</ns3:cad>
          </ns3:TrackPointExtension>
        </extensions>
      </trkpt>
      <trkpt lat="38.03876705467700958251953125" lon="-106.94212521426379680633544921875">
        <ele>4086.39990234375</ele>
        <time>2026-05-25T13:29:40.000Z</time>
        <extensions>
          <ns3:TrackPointExtension>
            <ns3:hr>89</ns3:hr>
            <ns3:cad>0</ns3:cad>
          </ns3:TrackPointExtension>
        </extensions>
      </trkpt>
      <trkpt lat="38.03876705467700958251953125" lon="-106.94212521426379680633544921875">
        <ele>4086.199951171875</ele>
        <time>2026-05-25T13:29:43.000Z</time>
        <extensions>
          <ns3:TrackPointExtension>
            <ns3:hr>89</ns3:hr>
            <ns3:cad>0</ns3:cad>
          </ns3:TrackPointExtension>
        </extensions>
      </trkpt>
      <trkpt lat="38.03876705467700958251953125" lon="-106.94212521426379680633544921875">
        <ele>4086.199951171875</ele>
        <time>2026-05-25T13:29:49.000Z</time>
        <extensions>
          <ns3:TrackPointExtension>
            <ns3:hr>90</ns3:hr>
            <ns3:cad>0</ns3:cad>
          </ns3:TrackPointExtension>
        </extensions>
      </trkpt>
      <trkpt lat="38.03876705467700958251953125" lon="-106.94212521426379680633544921875">
        <ele>4086.199951171875</ele>
        <time>2026-05-25T13:29:52.000Z</time>
        <extensions>
          <ns3:TrackPointExtension>
            <ns3:hr>93</ns3:hr>
            <ns3:cad>0</ns3:cad>
          </ns3:TrackPointExtension>
        </extensions>
      </trkpt>
      <trkpt lat="38.03876705467700958251953125" lon="-106.94212521426379680633544921875">
        <ele>4086.199951171875</ele>
        <time>2026-05-25T13:29:58.000Z</time>
        <extensions>
          <ns3:TrackPointExtension>
            <ns3:hr>95</ns3:hr>
            <ns3:cad>0</ns3:cad>
          </ns3:TrackPointExtension>
        </extensions>
      </trkpt>
      <trkpt lat="38.03876705467700958251953125" lon="-106.94212521426379680633544921875">
        <ele>4086.39990234375</ele>
        <time>2026-05-25T13:30:01.000Z</time>
        <extensions>
          <ns3:TrackPointExtension>
            <ns3:hr>98</ns3:hr>
            <ns3:cad>0</ns3:cad>
          </ns3:TrackPointExtension>
        </extensions>
      </trkpt>
      <trkpt lat="38.03876705467700958251953125" lon="-106.94212521426379680633544921875">
        <ele>4086</ele>
        <time>2026-05-25T13:30:05.000Z</time>
        <extensions>
          <ns3:TrackPointExtension>
            <ns3:hr>101</ns3:hr>
            <ns3:cad>0</ns3:cad>
          </ns3:TrackPointExtension>
        </extensions>
      </trkpt>
      <trkpt lat="38.03876705467700958251953125" lon="-106.94212521426379680633544921875">
        <ele>4086</ele>
        <time>2026-05-25T13:30:09.000Z</time>
        <extensions>
          <ns3:TrackPointExtension>
            <ns3:hr>103</ns3:hr>
            <ns3:cad>0</ns3:cad>
          </ns3:TrackPointExtension>
        </extensions>
      </trkpt>
      <trkpt lat="38.03876705467700958251953125" lon="-106.94212521426379680633544921875">
        <ele>4086.199951171875</ele>
        <time>2026-05-25T13:30:13.000Z</time>
        <extensions>
          <ns3:TrackPointExtension>
            <ns3:hr>106</ns3:hr>
            <ns3:cad>0</ns3:cad>
          </ns3:TrackPointExtension>
        </extensions>
      </trkpt>
      <trkpt lat="38.03876705467700958251953125" lon="-106.94212521426379680633544921875">
        <ele>4086.800048828125</ele>
        <time>2026-05-25T13:30:19.000Z</time>
        <extensions>
          <ns3:TrackPointExtension>
            <ns3:hr>106</ns3:hr>
            <ns3:cad>0</ns3:cad>
          </ns3:TrackPointExtension>
        </extensions>
      </trkpt>
      <trkpt lat="38.03876705467700958251953125" lon="-106.94212521426379680633544921875">
        <ele>4086.60009765625</ele>
        <time>2026-05-25T13:30:22.000Z</time>
        <extensions>
          <ns3:TrackPointExtension>
            <ns3:hr>107</ns3:hr>
            <ns3:cad>0</ns3:cad>
          </ns3:TrackPointExtension>
        </extensions>
      </trkpt>
      <trkpt lat="38.03876705467700958251953125" lon="-106.94212521426379680633544921875">
        <ele>4086.199951171875</ele>
        <time>2026-05-25T13:30:28.000Z</time>
        <extensions>
          <ns3:TrackPointExtension>
            <ns3:hr>105</ns3:hr>
            <ns3:cad>0</ns3:cad>
          </ns3:TrackPointExtension>
        </extensions>
      </trkpt>
      <trkpt lat="38.03876705467700958251953125" lon="-106.94212521426379680633544921875">
        <ele>4086.39990234375</ele>
        <time>2026-05-25T13:30:31.000Z</time>
        <extensions>
          <ns3:TrackPointExtension>
            <ns3:hr>102</ns3:hr>
            <ns3:cad>0</ns3:cad>
          </ns3:TrackPointExtension>
        </extensions>
      </trkpt>
      <trkpt lat="38.03876839578151702880859375" lon="-106.9421261362731456756591796875">
        <ele>4086.39990234375</ele>
        <time>2026-05-25T13:30:37.000Z</time>
        <extensions>
          <ns3:TrackPointExtension>
            <ns3:hr>102</ns3:hr>
            <ns3:cad>56</ns3:cad>
          </ns3:TrackPointExtension>
        </extensions>
      </trkpt>
      <trkpt lat="38.0387652106583118438720703125" lon="-106.9421271421015262603759765625">
        <ele>4086.39990234375</ele>
        <time>2026-05-25T13:30:38.000Z</time>
        <extensions>
          <ns3:TrackPointExtension>
            <ns3:hr>101</ns3:hr>
            <ns3:cad>56</ns3:cad>
          </ns3:TrackPointExtension>
        </extensions>
      </trkpt>
      <trkpt lat="38.03876705467700958251953125" lon="-106.94212521426379680633544921875">
        <ele>4086.199951171875</ele>
        <time>2026-05-25T13:30:42.000Z</time>
        <extensions>
          <ns3:TrackPointExtension>
            <ns3:hr>98</ns3:hr>
            <ns3:cad>0</ns3:cad>
          </ns3:TrackPointExtension>
        </extensions>
      </trkpt>
      <trkpt lat="38.03876705467700958251953125" lon="-106.94212521426379680633544921875">
        <ele>4086.60009765625</ele>
        <time>2026-05-25T13:30:46.000Z</time>
        <extensions>
          <ns3:TrackPointExtension>
            <ns3:hr>97</ns3:hr>
            <ns3:cad>0</ns3:cad>
          </ns3:TrackPointExtension>
        </extensions>
      </trkpt>
      <trkpt lat="38.03876705467700958251953125" lon="-106.94212521426379680633544921875">
        <ele>4086.60009765625</ele>
        <time>2026-05-25T13:30:51.000Z</time>
        <extensions>
          <ns3:TrackPointExtension>
            <ns3:hr>100</ns3:hr>
            <ns3:cad>0</ns3:cad>
          </ns3:TrackPointExtension>
        </extensions>
      </trkpt>
      <trkpt lat="38.03876705467700958251953125" lon="-106.94212521426379680633544921875">
        <ele>4086.39990234375</ele>
        <time>2026-05-25T13:30:57.000Z</time>
        <extensions>
          <ns3:TrackPointExtension>
            <ns3:hr>98</ns3:hr>
            <ns3:cad>0</ns3:cad>
          </ns3:TrackPointExtension>
        </extensions>
      </trkpt>
      <trkpt lat="38.03875909186899662017822265625" lon="-106.94212772883474826812744140625">
        <ele>4086.199951171875</ele>
        <time>2026-05-25T13:31:02.000Z</time>
        <extensions>
          <ns3:TrackPointExtension>
            <ns3:hr>97</ns3:hr>
            <ns3:cad>0</ns3:cad>
          </ns3:TrackPointExtension>
        </extensions>
      </trkpt>
      <trkpt lat="38.03876705467700958251953125" lon="-106.94212521426379680633544921875">
        <ele>4086.199951171875</ele>
        <time>2026-05-25T13:31:08.000Z</time>
        <extensions>
          <ns3:TrackPointExtension>
            <ns3:hr>98</ns3:hr>
            <ns3:cad>0</ns3:cad>
          </ns3:TrackPointExtension>
        </extensions>
      </trkpt>
      <trkpt lat="38.03876705467700958251953125" lon="-106.94212521426379680633544921875">
        <ele>4085.800048828125</ele>
        <time>2026-05-25T13:31:11.000Z</time>
        <extensions>
          <ns3:TrackPointExtension>
            <ns3:hr>98</ns3:hr>
            <ns3:cad>0</ns3:cad>
          </ns3:TrackPointExtension>
        </extensions>
      </trkpt>
      <trkpt lat="38.03876705467700958251953125" lon="-106.94212521426379680633544921875">
        <ele>4086</ele>
        <time>2026-05-25T13:31:17.000Z</time>
        <extensions>
          <ns3:TrackPointExtension>
            <ns3:hr>101</ns3:hr>
            <ns3:cad>0</ns3:cad>
          </ns3:TrackPointExtension>
        </extensions>
      </trkpt>
      <trkpt lat="38.03876705467700958251953125" lon="-106.94212521426379680633544921875">
        <ele>4085.800048828125</ele>
        <time>2026-05-25T13:31:23.000Z</time>
        <extensions>
          <ns3:TrackPointExtension>
            <ns3:hr>101</ns3:hr>
            <ns3:cad>0</ns3:cad>
          </ns3:TrackPointExtension>
        </extensions>
      </trkpt>
      <trkpt lat="38.03876705467700958251953125" lon="-106.94212521426379680633544921875">
        <ele>4085.60009765625</ele>
        <time>2026-05-25T13:31:25.000Z</time>
        <extensions>
          <ns3:TrackPointExtension>
            <ns3:hr>101</ns3:hr>
            <ns3:cad>0</ns3:cad>
          </ns3:TrackPointExtension>
        </extensions>
      </trkpt>
      <trkpt lat="38.03876705467700958251953125" lon="-106.94212521426379680633544921875">
        <ele>4085.800048828125</ele>
        <time>2026-05-25T13:31:31.000Z</time>
        <extensions>
          <ns3:TrackPointExtension>
            <ns3:hr>103</ns3:hr>
            <ns3:cad>0</ns3:cad>
          </ns3:TrackPointExtension>
        </extensions>
      </trkpt>
      <trkpt lat="38.03876705467700958251953125" lon="-106.94212521426379680633544921875">
        <ele>4085.800048828125</ele>
        <time>2026-05-25T13:31:34.000Z</time>
        <extensions>
          <ns3:TrackPointExtension>
            <ns3:hr>101</ns3:hr>
            <ns3:cad>0</ns3:cad>
          </ns3:TrackPointExtension>
        </extensions>
      </trkpt>
      <trkpt lat="38.03876705467700958251953125" lon="-106.94212521426379680633544921875">
        <ele>4085.60009765625</ele>
        <time>2026-05-25T13:31:37.000Z</time>
        <extensions>
          <ns3:TrackPointExtension>
            <ns3:hr>98</ns3:hr>
            <ns3:cad>0</ns3:cad>
          </ns3:TrackPointExtension>
        </extensions>
      </trkpt>
      <trkpt lat="38.03876705467700958251953125" lon="-106.94212521426379680633544921875">
        <ele>4085.800048828125</ele>
        <time>2026-05-25T13:31:40.000Z</time>
        <extensions>
          <ns3:TrackPointExtension>
            <ns3:hr>95</ns3:hr>
            <ns3:cad>0</ns3:cad>
          </ns3:TrackPointExtension>
        </extensions>
      </trkpt>
      <trkpt lat="38.03876705467700958251953125" lon="-106.94212521426379680633544921875">
        <ele>4085.39990234375</ele>
        <time>2026-05-25T13:31:46.000Z</time>
        <extensions>
          <ns3:TrackPointExtension>
            <ns3:hr>95</ns3:hr>
            <ns3:cad>0</ns3:cad>
          </ns3:TrackPointExtension>
        </extensions>
      </trkpt>
      <trkpt lat="38.03876705467700958251953125" lon="-106.94212521426379680633544921875">
        <ele>4085.39990234375</ele>
        <time>2026-05-25T13:31:51.000Z</time>
        <extensions>
          <ns3:TrackPointExtension>
            <ns3:hr>97</ns3:hr>
            <ns3:cad>0</ns3:cad>
          </ns3:TrackPointExtension>
        </extensions>
      </trkpt>
      <trkpt lat="38.03876705467700958251953125" lon="-106.94212521426379680633544921875">
        <ele>4085.199951171875</ele>
        <time>2026-05-25T13:31:57.000Z</time>
        <extensions>
          <ns3:TrackPointExtension>
            <ns3:hr>98</ns3:hr>
            <ns3:cad>0</ns3:cad>
          </ns3:TrackPointExtension>
        </extensions>
      </trkpt>
      <trkpt lat="38.03876705467700958251953125" lon="-106.94212521426379680633544921875">
        <ele>4085.39990234375</ele>
        <time>2026-05-25T13:32:01.000Z</time>
        <extensions>
          <ns3:TrackPointExtension>
            <ns3:hr>95</ns3:hr>
            <ns3:cad>0</ns3:cad>
          </ns3:TrackPointExtension>
        </extensions>
      </trkpt>
      <trkpt lat="38.03876705467700958251953125" lon="-106.94212521426379680633544921875">
        <ele>4085.60009765625</ele>
        <time>2026-05-25T13:32:03.000Z</time>
        <extensions>
          <ns3:TrackPointExtension>
            <ns3:hr>95</ns3:hr>
            <ns3:cad>0</ns3:cad>
          </ns3:TrackPointExtension>
        </extensions>
      </trkpt>
      <trkpt lat="38.03876705467700958251953125" lon="-106.94212521426379680633544921875">
        <ele>4085.800048828125</ele>
        <time>2026-05-25T13:32:09.000Z</time>
        <extensions>
          <ns3:TrackPointExtension>
            <ns3:hr>96</ns3:hr>
            <ns3:cad>0</ns3:cad>
          </ns3:TrackPointExtension>
        </extensions>
      </trkpt>
      <trkpt lat="38.03876705467700958251953125" lon="-106.94212521426379680633544921875">
        <ele>4085.60009765625</ele>
        <time>2026-05-25T13:32:15.000Z</time>
        <extensions>
          <ns3:TrackPointExtension>
            <ns3:hr>96</ns3:hr>
            <ns3:cad>0</ns3:cad>
          </ns3:TrackPointExtension>
        </extensions>
      </trkpt>
      <trkpt lat="38.03876705467700958251953125" lon="-106.94212521426379680633544921875">
        <ele>4085.60009765625</ele>
        <time>2026-05-25T13:32:16.000Z</time>
        <extensions>
          <ns3:TrackPointExtension>
            <ns3:hr>97</ns3:hr>
            <ns3:cad>0</ns3:cad>
          </ns3:TrackPointExtension>
        </extensions>
      </trkpt>
      <trkpt lat="38.03876705467700958251953125" lon="-106.94212521426379680633544921875">
        <ele>4086</ele>
        <time>2026-05-25T13:32:18.000Z</time>
        <extensions>
          <ns3:TrackPointExtension>
            <ns3:hr>100</ns3:hr>
            <ns3:cad>0</ns3:cad>
          </ns3:TrackPointExtension>
        </extensions>
      </trkpt>
      <trkpt lat="38.03876705467700958251953125" lon="-106.94212521426379680633544921875">
        <ele>4085.800048828125</ele>
        <time>2026-05-25T13:32:24.000Z</time>
        <extensions>
          <ns3:TrackPointExtension>
            <ns3:hr>101</ns3:hr>
            <ns3:cad>0</ns3:cad>
          </ns3:TrackPointExtension>
        </extensions>
      </trkpt>
      <trkpt lat="38.03876705467700958251953125" lon="-106.94212521426379680633544921875">
        <ele>4085.800048828125</ele>
        <time>2026-05-25T13:32:25.000Z</time>
        <extensions>
          <ns3:TrackPointExtension>
            <ns3:hr>101</ns3:hr>
            <ns3:cad>0</ns3:cad>
          </ns3:TrackPointExtension>
        </extensions>
      </trkpt>
      <trkpt lat="38.03876177407801151275634765625" lon="-106.94212940521538257598876953125">
        <ele>4085.60009765625</ele>
        <time>2026-05-25T13:32:31.000Z</time>
        <extensions>
          <ns3:TrackPointExtension>
            <ns3:hr>100</ns3:hr>
            <ns3:cad>0</ns3:cad>
          </ns3:TrackPointExtension>
        </extensions>
      </trkpt>
      <trkpt lat="38.03876705467700958251953125" lon="-106.94212521426379680633544921875">
        <ele>4085.800048828125</ele>
        <time>2026-05-25T13:32:35.000Z</time>
        <extensions>
          <ns3:TrackPointExtension>
            <ns3:hr>98</ns3:hr>
            <ns3:cad>0</ns3:cad>
          </ns3:TrackPointExtension>
        </extensions>
      </trkpt>
      <trkpt lat="38.03876034915447235107421875" lon="-106.94213259033858776092529296875">
        <ele>4085.60009765625</ele>
        <time>2026-05-25T13:32:41.000Z</time>
        <extensions>
          <ns3:TrackPointExtension>
            <ns3:hr>98</ns3:hr>
            <ns3:cad>0</ns3:cad>
          </ns3:TrackPointExtension>
        </extensions>
      </trkpt>
      <trkpt lat="38.03876705467700958251953125" lon="-106.94212521426379680633544921875">
        <ele>4085.60009765625</ele>
        <time>2026-05-25T13:32:47.000Z</time>
        <extensions>
          <ns3:TrackPointExtension>
            <ns3:hr>100</ns3:hr>
            <ns3:cad>0</ns3:cad>
          </ns3:TrackPointExtension>
        </extensions>
      </trkpt>
      <trkpt lat="38.03876705467700958251953125" lon="-106.94212521426379680633544921875">
        <ele>4085.60009765625</ele>
        <time>2026-05-25T13:32:53.000Z</time>
        <extensions>
          <ns3:TrackPointExtension>
            <ns3:hr>99</ns3:hr>
            <ns3:cad>0</ns3:cad>
          </ns3:TrackPointExtension>
        </extensions>
      </trkpt>
      <trkpt lat="38.03876705467700958251953125" lon="-106.94212521426379680633544921875">
        <ele>4085.39990234375</ele>
        <time>2026-05-25T13:32:59.000Z</time>
        <extensions>
          <ns3:TrackPointExtension>
            <ns3:hr>97</ns3:hr>
            <ns3:cad>0</ns3:cad>
          </ns3:TrackPointExtension>
        </extensions>
      </trkpt>
      <trkpt lat="38.03876705467700958251953125" lon="-106.94212521426379680633544921875">
        <ele>4085.39990234375</ele>
        <time>2026-05-25T13:33:05.000Z</time>
        <extensions>
          <ns3:TrackPointExtension>
            <ns3:hr>98</ns3:hr>
            <ns3:cad>0</ns3:cad>
          </ns3:TrackPointExtension>
        </extensions>
      </trkpt>
      <trkpt lat="38.03876705467700958251953125" lon="-106.94212521426379680633544921875">
        <ele>4085.39990234375</ele>
        <time>2026-05-25T13:33:11.000Z</time>
        <extensions>
          <ns3:TrackPointExtension>
            <ns3:hr>97</ns3:hr>
            <ns3:cad>0</ns3:cad>
          </ns3:TrackPointExtension>
        </extensions>
      </trkpt>
      <trkpt lat="38.03876705467700958251953125" lon="-106.94212521426379680633544921875">
        <ele>4085.199951171875</ele>
        <time>2026-05-25T13:33:14.000Z</time>
        <extensions>
          <ns3:TrackPointExtension>
            <ns3:hr>97</ns3:hr>
            <ns3:cad>0</ns3:cad>
          </ns3:TrackPointExtension>
        </extensions>
      </trkpt>
      <trkpt lat="38.03876705467700958251953125" lon="-106.94212521426379680633544921875">
        <ele>4085.199951171875</ele>
        <time>2026-05-25T13:33:15.000Z</time>
        <extensions>
          <ns3:TrackPointExtension>
            <ns3:hr>97</ns3:hr>
            <ns3:cad>0</ns3:cad>
          </ns3:TrackPointExtension>
        </extensions>
      </trkpt>
      <trkpt lat="38.03876705467700958251953125" lon="-106.94212521426379680633544921875">
        <ele>4084.60009765625</ele>
        <time>2026-05-25T13:33:20.000Z</time>
        <extensions>
          <ns3:TrackPointExtension>
            <ns3:hr>94</ns3:hr>
            <ns3:cad>0</ns3:cad>
          </ns3:TrackPointExtension>
        </extensions>
      </trkpt>
      <trkpt lat="38.03876705467700958251953125" lon="-106.94212521426379680633544921875">
        <ele>4084.60009765625</ele>
        <time>2026-05-25T13:33:21.000Z</time>
        <extensions>
          <ns3:TrackPointExtension>
            <ns3:hr>94</ns3:hr>
            <ns3:cad>0</ns3:cad>
          </ns3:TrackPointExtension>
        </extensions>
      </trkpt>
      <trkpt lat="38.03876705467700958251953125" lon="-106.94212521426379680633544921875">
        <ele>4085</ele>
        <time>2026-05-25T13:33:27.000Z</time>
        <extensions>
          <ns3:TrackPointExtension>
            <ns3:hr>93</ns3:hr>
            <ns3:cad>0</ns3:cad>
          </ns3:TrackPointExtension>
        </extensions>
      </trkpt>
      <trkpt lat="38.038764037191867828369140625" lon="-106.9421358592808246612548828125">
        <ele>4085.39990234375</ele>
        <time>2026-05-25T13:33:30.000Z</time>
        <extensions>
          <ns3:TrackPointExtension>
            <ns3:hr>92</ns3:hr>
            <ns3:cad>0</ns3:cad>
          </ns3:TrackPointExtension>
        </extensions>
      </trkpt>
      <trkpt lat="38.03876705467700958251953125" lon="-106.94212521426379680633544921875">
        <ele>4084.60009765625</ele>
        <time>2026-05-25T13:33:35.000Z</time>
        <extensions>
          <ns3:TrackPointExtension>
            <ns3:hr>89</ns3:hr>
            <ns3:cad>0</ns3:cad>
          </ns3:TrackPointExtension>
        </extensions>
      </trkpt>
      <trkpt lat="38.03876705467700958251953125" lon="-106.94212521426379680633544921875">
        <ele>4084.39990234375</ele>
        <time>2026-05-25T13:33:40.000Z</time>
        <extensions>
          <ns3:TrackPointExtension>
            <ns3:hr>87</ns3:hr>
            <ns3:cad>0</ns3:cad>
          </ns3:TrackPointExtension>
        </extensions>
      </trkpt>
      <trkpt lat="38.03876705467700958251953125" lon="-106.94212521426379680633544921875">
        <ele>4084.60009765625</ele>
        <time>2026-05-25T13:33:46.000Z</time>
        <extensions>
          <ns3:TrackPointExtension>
            <ns3:hr>86</ns3:hr>
            <ns3:cad>0</ns3:cad>
          </ns3:TrackPointExtension>
        </extensions>
      </trkpt>
      <trkpt lat="38.03876705467700958251953125" lon="-106.94212521426379680633544921875">
        <ele>4084.39990234375</ele>
        <time>2026-05-25T13:33:48.000Z</time>
        <extensions>
          <ns3:TrackPointExtension>
            <ns3:hr>86</ns3:hr>
            <ns3:cad>0</ns3:cad>
          </ns3:TrackPointExtension>
        </extensions>
      </trkpt>
      <trkpt lat="38.03876705467700958251953125" lon="-106.94212521426379680633544921875">
        <ele>4084</ele>
        <time>2026-05-25T13:33:51.000Z</time>
        <extensions>
          <ns3:TrackPointExtension>
            <ns3:hr>84</ns3:hr>
            <ns3:cad>0</ns3:cad>
          </ns3:TrackPointExtension>
        </extensions>
      </trkpt>
      <trkpt lat="38.03876705467700958251953125" lon="-106.94212521426379680633544921875">
        <ele>4083.800048828125</ele>
        <time>2026-05-25T13:33:53.000Z</time>
        <extensions>
          <ns3:TrackPointExtension>
            <ns3:hr>81</ns3:hr>
            <ns3:cad>0</ns3:cad>
          </ns3:TrackPointExtension>
        </extensions>
      </trkpt>
      <trkpt lat="38.03876705467700958251953125" lon="-106.94212521426379680633544921875">
        <ele>4084.60009765625</ele>
        <time>2026-05-25T13:33:57.000Z</time>
        <extensions>
          <ns3:TrackPointExtension>
            <ns3:hr>80</ns3:hr>
            <ns3:cad>0</ns3:cad>
          </ns3:TrackPointExtension>
        </extensions>
      </trkpt>
      <trkpt lat="38.03876705467700958251953125" lon="-106.94212521426379680633544921875">
        <ele>4084.60009765625</ele>
        <time>2026-05-25T13:34:00.000Z</time>
        <extensions>
          <ns3:TrackPointExtension>
            <ns3:hr>84</ns3:hr>
            <ns3:cad>0</ns3:cad>
          </ns3:TrackPointExtension>
        </extensions>
      </trkpt>
      <trkpt lat="38.03876931779086589813232421875" lon="-106.9421423971652984619140625">
        <ele>4084.199951171875</ele>
        <time>2026-05-25T13:34:06.000Z</time>
        <extensions>
          <ns3:TrackPointExtension>
            <ns3:hr>86</ns3:hr>
            <ns3:cad>0</ns3:cad>
          </ns3:TrackPointExtension>
        </extensions>
      </trkpt>
      <trkpt lat="38.038768731057643890380859375" lon="-106.94214197807013988494873046875">
        <ele>4084</ele>
        <time>2026-05-25T13:34:10.000Z</time>
        <extensions>
          <ns3:TrackPointExtension>
            <ns3:hr>89</ns3:hr>
            <ns3:cad>0</ns3:cad>
          </ns3:TrackPointExtension>
        </extensions>
      </trkpt>
      <trkpt lat="38.038768731057643890380859375" lon="-106.94214197807013988494873046875">
        <ele>4084</ele>
        <time>2026-05-25T13:34:16.000Z</time>
        <extensions>
          <ns3:TrackPointExtension>
            <ns3:hr>90</ns3:hr>
            <ns3:cad>0</ns3:cad>
          </ns3:TrackPointExtension>
        </extensions>
      </trkpt>
      <trkpt lat="38.0387732572853565216064453125" lon="-106.942146085202693939208984375">
        <ele>4084</ele>
        <time>2026-05-25T13:34:19.000Z</time>
        <extensions>
          <ns3:TrackPointExtension>
            <ns3:hr>89</ns3:hr>
            <ns3:cad>0</ns3:cad>
          </ns3:TrackPointExtension>
        </extensions>
      </trkpt>
      <trkpt lat="38.038768731057643890380859375" lon="-106.94214197807013988494873046875">
        <ele>4084</ele>
        <time>2026-05-25T13:34:25.000Z</time>
        <extensions>
          <ns3:TrackPointExtension>
            <ns3:hr>90</ns3:hr>
            <ns3:cad>0</ns3:cad>
          </ns3:TrackPointExtension>
        </extensions>
      </trkpt>
      <trkpt lat="38.038768731057643890380859375" lon="-106.94214197807013988494873046875">
        <ele>4083.800048828125</ele>
        <time>2026-05-25T13:34:31.000Z</time>
        <extensions>
          <ns3:TrackPointExtension>
            <ns3:hr>91</ns3:hr>
            <ns3:cad>0</ns3:cad>
          </ns3:TrackPointExtension>
        </extensions>
      </trkpt>
      <trkpt lat="38.038768731057643890380859375" lon="-106.94214197807013988494873046875">
        <ele>4083.800048828125</ele>
        <time>2026-05-25T13:34:32.000Z</time>
        <extensions>
          <ns3:TrackPointExtension>
            <ns3:hr>91</ns3:hr>
            <ns3:cad>0</ns3:cad>
          </ns3:TrackPointExtension>
        </extensions>
      </trkpt>
      <trkpt lat="38.038768731057643890380859375" lon="-106.94214197807013988494873046875">
        <ele>4083.60009765625</ele>
        <time>2026-05-25T13:34:35.000Z</time>
        <extensions>
          <ns3:TrackPointExtension>
            <ns3:hr>88</ns3:hr>
            <ns3:cad>0</ns3:cad>
          </ns3:TrackPointExtension>
        </extensions>
      </trkpt>
      <trkpt lat="38.038768731057643890380859375" lon="-106.94214197807013988494873046875">
        <ele>4083.60009765625</ele>
        <time>2026-05-25T13:34:37.000Z</time>
        <extensions>
          <ns3:TrackPointExtension>
            <ns3:hr>84</ns3:hr>
            <ns3:cad>0</ns3:cad>
          </ns3:TrackPointExtension>
        </extensions>
      </trkpt>
      <trkpt lat="38.038768731057643890380859375" lon="-106.94214197807013988494873046875">
        <ele>4083.60009765625</ele>
        <time>2026-05-25T13:34:42.000Z</time>
        <extensions>
          <ns3:TrackPointExtension>
            <ns3:hr>81</ns3:hr>
            <ns3:cad>0</ns3:cad>
          </ns3:TrackPointExtension>
        </extensions>
      </trkpt>
      <trkpt lat="38.038768731057643890380859375" lon="-106.94214197807013988494873046875">
        <ele>4083.800048828125</ele>
        <time>2026-05-25T13:34:48.000Z</time>
        <extensions>
          <ns3:TrackPointExtension>
            <ns3:hr>84</ns3:hr>
            <ns3:cad>0</ns3:cad>
          </ns3:TrackPointExtension>
        </extensions>
      </trkpt>
      <trkpt lat="38.038768731057643890380859375" lon="-106.94214197807013988494873046875">
        <ele>4083.60009765625</ele>
        <time>2026-05-25T13:34:54.000Z</time>
        <extensions>
          <ns3:TrackPointExtension>
            <ns3:hr>85</ns3:hr>
            <ns3:cad>0</ns3:cad>
          </ns3:TrackPointExtension>
        </extensions>
      </trkpt>
      <trkpt lat="38.038768731057643890380859375" lon="-106.94214197807013988494873046875">
        <ele>4083.60009765625</ele>
        <time>2026-05-25T13:34:57.000Z</time>
        <extensions>
          <ns3:TrackPointExtension>
            <ns3:hr>82</ns3:hr>
            <ns3:cad>0</ns3:cad>
          </ns3:TrackPointExtension>
        </extensions>
      </trkpt>
      <trkpt lat="38.038768731057643890380859375" lon="-106.94214197807013988494873046875">
        <ele>4083.60009765625</ele>
        <time>2026-05-25T13:35:02.000Z</time>
        <extensions>
          <ns3:TrackPointExtension>
            <ns3:hr>81</ns3:hr>
            <ns3:cad>0</ns3:cad>
          </ns3:TrackPointExtension>
        </extensions>
      </trkpt>
      <trkpt lat="38.038768731057643890380859375" lon="-106.94214197807013988494873046875">
        <ele>4083.800048828125</ele>
        <time>2026-05-25T13:35:05.000Z</time>
        <extensions>
          <ns3:TrackPointExtension>
            <ns3:hr>85</ns3:hr>
            <ns3:cad>0</ns3:cad>
          </ns3:TrackPointExtension>
        </extensions>
      </trkpt>
      <trkpt lat="38.038768731057643890380859375" lon="-106.94214197807013988494873046875">
        <ele>4083.60009765625</ele>
        <time>2026-05-25T13:35:11.000Z</time>
        <extensions>
          <ns3:TrackPointExtension>
            <ns3:hr>85</ns3:hr>
            <ns3:cad>0</ns3:cad>
          </ns3:TrackPointExtension>
        </extensions>
      </trkpt>
      <trkpt lat="38.038768731057643890380859375" lon="-106.94214197807013988494873046875">
        <ele>4084</ele>
        <time>2026-05-25T13:35:16.000Z</time>
        <extensions>
          <ns3:TrackPointExtension>
            <ns3:hr>86</ns3:hr>
            <ns3:cad>45</ns3:cad>
          </ns3:TrackPointExtension>
        </extensions>
      </trkpt>
      <trkpt lat="38.038768731057643890380859375" lon="-106.94214197807013988494873046875">
        <ele>4083.60009765625</ele>
        <time>2026-05-25T13:35:22.000Z</time>
        <extensions>
          <ns3:TrackPointExtension>
            <ns3:hr>86</ns3:hr>
            <ns3:cad>0</ns3:cad>
          </ns3:TrackPointExtension>
        </extensions>
      </trkpt>
      <trkpt lat="38.038768731057643890380859375" lon="-106.94214197807013988494873046875">
        <ele>4083.60009765625</ele>
        <time>2026-05-25T13:35:26.000Z</time>
        <extensions>
          <ns3:TrackPointExtension>
            <ns3:hr>86</ns3:hr>
            <ns3:cad>0</ns3:cad>
          </ns3:TrackPointExtension>
        </extensions>
      </trkpt>
      <trkpt lat="38.038768731057643890380859375" lon="-106.94214197807013988494873046875">
        <ele>4083.800048828125</ele>
        <time>2026-05-25T13:35:32.000Z</time>
        <extensions>
          <ns3:TrackPointExtension>
            <ns3:hr>86</ns3:hr>
            <ns3:cad>0</ns3:cad>
          </ns3:TrackPointExtension>
        </extensions>
      </trkpt>
      <trkpt lat="38.038768731057643890380859375" lon="-106.94214197807013988494873046875">
        <ele>4083.60009765625</ele>
        <time>2026-05-25T13:35:37.000Z</time>
        <extensions>
          <ns3:TrackPointExtension>
            <ns3:hr>89</ns3:hr>
            <ns3:cad>0</ns3:cad>
          </ns3:TrackPointExtension>
        </extensions>
      </trkpt>
      <trkpt lat="38.03877174854278564453125" lon="-106.94213493727147579193115234375">
        <ele>4083.39990234375</ele>
        <time>2026-05-25T13:35:40.000Z</time>
        <extensions>
          <ns3:TrackPointExtension>
            <ns3:hr>94</ns3:hr>
            <ns3:cad>0</ns3:cad>
          </ns3:TrackPointExtension>
        </extensions>
      </trkpt>
      <trkpt lat="38.03877518512308597564697265625" lon="-106.94213242270052433013916015625">
        <ele>4083.199951171875</ele>
        <time>2026-05-25T13:35:44.000Z</time>
        <extensions>
          <ns3:TrackPointExtension>
            <ns3:hr>95</ns3:hr>
            <ns3:cad>0</ns3:cad>
          </ns3:TrackPointExtension>
        </extensions>
      </trkpt>
      <trkpt lat="38.03877518512308597564697265625" lon="-106.94213242270052433013916015625">
        <ele>4083</ele>
        <time>2026-05-25T13:35:45.000Z</time>
        <extensions>
          <ns3:TrackPointExtension>
            <ns3:hr>95</ns3:hr>
            <ns3:cad>0</ns3:cad>
          </ns3:TrackPointExtension>
        </extensions>
      </trkpt>
      <trkpt lat="38.03877032361924648284912109375" lon="-106.94213124923408031463623046875">
        <ele>4083</ele>
        <time>2026-05-25T13:35:47.000Z</time>
        <extensions>
          <ns3:TrackPointExtension>
            <ns3:hr>92</ns3:hr>
            <ns3:cad>0</ns3:cad>
          </ns3:TrackPointExtension>
        </extensions>
      </trkpt>
      <trkpt lat="38.038768731057643890380859375" lon="-106.94214197807013988494873046875">
        <ele>4083.39990234375</ele>
        <time>2026-05-25T13:35:51.000Z</time>
        <extensions>
          <ns3:TrackPointExtension>
            <ns3:hr>90</ns3:hr>
            <ns3:cad>0</ns3:cad>
          </ns3:TrackPointExtension>
        </extensions>
      </trkpt>
      <trkpt lat="38.0387688986957073211669921875" lon="-106.9421343505382537841796875">
        <ele>4083.60009765625</ele>
        <time>2026-05-25T13:35:54.000Z</time>
        <extensions>
          <ns3:TrackPointExtension>
            <ns3:hr>93</ns3:hr>
            <ns3:cad>0</ns3:cad>
          </ns3:TrackPointExtension>
        </extensions>
      </trkpt>
      <trkpt lat="38.038768731057643890380859375" lon="-106.94214197807013988494873046875">
        <ele>4083.800048828125</ele>
        <time>2026-05-25T13:35:55.000Z</time>
        <extensions>
          <ns3:TrackPointExtension>
            <ns3:hr>99</ns3:hr>
            <ns3:cad>0</ns3:cad>
          </ns3:TrackPointExtension>
        </extensions>
      </trkpt>
      <trkpt lat="38.038768731057643890380859375" lon="-106.94214197807013988494873046875">
        <ele>4083.800048828125</ele>
        <time>2026-05-25T13:35:59.000Z</time>
        <extensions>
          <ns3:TrackPointExtension>
            <ns3:hr>100</ns3:hr>
            <ns3:cad>0</ns3:cad>
          </ns3:TrackPointExtension>
        </extensions>
      </trkpt>
      <trkpt lat="38.03878909908235073089599609375" lon="-106.94211356341838836669921875">
        <ele>4083.60009765625</ele>
        <time>2026-05-25T13:36:05.000Z</time>
        <extensions>
          <ns3:TrackPointExtension>
            <ns3:hr>99</ns3:hr>
            <ns3:cad>0</ns3:cad>
          </ns3:TrackPointExtension>
        </extensions>
      </trkpt>
      <trkpt lat="38.03883804939687252044677734375" lon="-106.942098140716552734375">
        <ele>4082.800048828125</ele>
        <time>2026-05-25T13:36:11.000Z</time>
        <extensions>
          <ns3:TrackPointExtension>
            <ns3:hr>98</ns3:hr>
            <ns3:cad>53</ns3:cad>
          </ns3:TrackPointExtension>
        </extensions>
      </trkpt>
      <trkpt lat="38.03885330446064472198486328125" lon="-106.94209478795528411865234375">
        <ele>4082.39990234375</ele>
        <time>2026-05-25T13:36:13.000Z</time>
        <extensions>
          <ns3:TrackPointExtension>
            <ns3:hr>98</ns3:hr>
            <ns3:cad>53</ns3:cad>
          </ns3:TrackPointExtension>
        </extensions>
      </trkpt>
      <trkpt lat="38.0389087088406085968017578125" lon="-106.9420647807419300079345703125">
        <ele>4082</ele>
        <time>2026-05-25T13:36:19.000Z</time>
        <extensions>
          <ns3:TrackPointExtension>
            <ns3:hr>98</ns3:hr>
            <ns3:cad>0</ns3:cad>
          </ns3:TrackPointExtension>
        </extensions>
      </trkpt>
      <trkpt lat="38.03893008269369602203369140625" lon="-106.94203837774693965911865234375">
        <ele>4081.39990234375</ele>
        <time>2026-05-25T13:36:22.000Z</time>
        <extensions>
          <ns3:TrackPointExtension>
            <ns3:hr>101</ns3:hr>
            <ns3:cad>71</ns3:cad>
          </ns3:TrackPointExtension>
        </extensions>
      </trkpt>
      <trkpt lat="38.038936369121074676513671875" lon="-106.94202697835862636566162109375">
        <ele>4081</ele>
        <time>2026-05-25T13:36:24.000Z</time>
        <extensions>
          <ns3:TrackPointExtension>
            <ns3:hr>105</ns3:hr>
            <ns3:cad>75</ns3:cad>
          </ns3:TrackPointExtension>
        </extensions>
      </trkpt>
      <trkpt lat="38.03894399665296077728271484375" lon="-106.94201692007482051849365234375">
        <ele>4080.800048828125</ele>
        <time>2026-05-25T13:36:25.000Z</time>
        <extensions>
          <ns3:TrackPointExtension>
            <ns3:hr>104</ns3:hr>
            <ns3:cad>75</ns3:cad>
          </ns3:TrackPointExtension>
        </extensions>
      </trkpt>
      <trkpt lat="38.03896126337349414825439453125" lon="-106.94195154123008251190185546875">
        <ele>4079.39990234375</ele>
        <time>2026-05-25T13:36:30.000Z</time>
        <extensions>
          <ns3:TrackPointExtension>
            <ns3:hr>105</ns3:hr>
            <ns3:cad>0</ns3:cad>
          </ns3:TrackPointExtension>
        </extensions>
      </trkpt>
      <trkpt lat="38.03894801996648311614990234375" lon="-106.941941566765308380126953125">
        <ele>4078.800048828125</ele>
        <time>2026-05-25T13:36:32.000Z</time>
        <extensions>
          <ns3:TrackPointExtension>
            <ns3:hr>108</ns3:hr>
            <ns3:cad>0</ns3:cad>
          </ns3:TrackPointExtension>
        </extensions>
      </trkpt>
      <trkpt lat="38.0389419011771678924560546875" lon="-106.941916085779666900634765625">
        <ele>4078.39990234375</ele>
        <time>2026-05-25T13:36:35.000Z</time>
        <extensions>
          <ns3:TrackPointExtension>
            <ns3:hr>110</ns3:hr>
            <ns3:cad>0</ns3:cad>
          </ns3:TrackPointExtension>
        </extensions>
      </trkpt>
      <trkpt lat="38.03891415707767009735107421875" lon="-106.9418934546411037445068359375">
        <ele>4077.800048828125</ele>
        <time>2026-05-25T13:36:38.000Z</time>
        <extensions>
          <ns3:TrackPointExtension>
            <ns3:hr>110</ns3:hr>
            <ns3:cad>0</ns3:cad>
          </ns3:TrackPointExtension>
        </extensions>
      </trkpt>
      <trkpt lat="38.03890652954578399658203125" lon="-106.9418850727379322052001953125">
        <ele>4077.39990234375</ele>
        <time>2026-05-25T13:36:40.000Z</time>
        <extensions>
          <ns3:TrackPointExtension>
            <ns3:hr>110</ns3:hr>
            <ns3:cad>73</ns3:cad>
          </ns3:TrackPointExtension>
        </extensions>
      </trkpt>
      <trkpt lat="38.03885850124061107635498046875" lon="-106.94186671636998653411865234375">
        <ele>4076.39990234375</ele>
        <time>2026-05-25T13:36:45.000Z</time>
        <extensions>
          <ns3:TrackPointExtension>
            <ns3:hr>110</ns3:hr>
            <ns3:cad>78</ns3:cad>
          </ns3:TrackPointExtension>
        </extensions>
      </trkpt>
      <trkpt lat="38.0388523824512958526611328125" lon="-106.94186503998935222625732421875">
        <ele>4076</ele>
        <time>2026-05-25T13:36:46.000Z</time>
        <extensions>
          <ns3:TrackPointExtension>
            <ns3:hr>109</ns3:hr>
            <ns3:cad>78</ns3:cad>
          </ns3:TrackPointExtension>
        </extensions>
      </trkpt>
      <trkpt lat="38.0388248898088932037353515625" lon="-106.94185514934360980987548828125">
        <ele>4075.60009765625</ele>
        <time>2026-05-25T13:36:50.000Z</time>
        <extensions>
          <ns3:TrackPointExtension>
            <ns3:hr>106</ns3:hr>
            <ns3:cad>0</ns3:cad>
          </ns3:TrackPointExtension>
        </extensions>
      </trkpt>
      <trkpt lat="38.03880619816482067108154296875" lon="-106.94185598753392696380615234375">
        <ele>4075.39990234375</ele>
        <time>2026-05-25T13:36:52.000Z</time>
        <extensions>
          <ns3:TrackPointExtension>
            <ns3:hr>103</ns3:hr>
            <ns3:cad>0</ns3:cad>
          </ns3:TrackPointExtension>
        </extensions>
      </trkpt>
      <trkpt lat="38.03879379294812679290771484375" lon="-106.9418595917522907257080078125">
        <ele>4075.199951171875</ele>
        <time>2026-05-25T13:36:53.000Z</time>
        <extensions>
          <ns3:TrackPointExtension>
            <ns3:hr>102</ns3:hr>
            <ns3:cad>0</ns3:cad>
          </ns3:TrackPointExtension>
        </extensions>
      </trkpt>
      <trkpt lat="38.038778118789196014404296875" lon="-106.94184743799269199371337890625">
        <ele>4074.39990234375</ele>
        <time>2026-05-25T13:36:57.000Z</time>
        <extensions>
          <ns3:TrackPointExtension>
            <ns3:hr>102</ns3:hr>
            <ns3:cad>0</ns3:cad>
          </ns3:TrackPointExtension>
        </extensions>
      </trkpt>
      <trkpt lat="38.03877334110438823699951171875" lon="-106.941837631165981292724609375">
        <ele>4074.39990234375</ele>
        <time>2026-05-25T13:36:58.000Z</time>
        <extensions>
          <ns3:TrackPointExtension>
            <ns3:hr>102</ns3:hr>
            <ns3:cad>0</ns3:cad>
          </ns3:TrackPointExtension>
        </extensions>
      </trkpt>
      <trkpt lat="38.03876705467700958251953125" lon="-106.9418277405202388763427734375">
        <ele>4074.199951171875</ele>
        <time>2026-05-25T13:36:59.000Z</time>
        <extensions>
          <ns3:TrackPointExtension>
            <ns3:hr>101</ns3:hr>
            <ns3:cad>0</ns3:cad>
          </ns3:TrackPointExtension>
        </extensions>
      </trkpt>
      <trkpt lat="38.0387430824339389801025390625" lon="-106.9417828135192394256591796875">
        <ele>4073</ele>
        <time>2026-05-25T13:37:04.000Z</time>
        <extensions>
          <ns3:TrackPointExtension>
            <ns3:hr>100</ns3:hr>
            <ns3:cad>0</ns3:cad>
          </ns3:TrackPointExtension>
        </extensions>
      </trkpt>
      <trkpt lat="38.03873830474913120269775390625" lon="-106.94177166558802127838134765625">
        <ele>4072.800048828125</ele>
        <time>2026-05-25T13:37:05.000Z</time>
        <extensions>
          <ns3:TrackPointExtension>
            <ns3:hr>100</ns3:hr>
            <ns3:cad>0</ns3:cad>
          </ns3:TrackPointExtension>
        </extensions>
      </trkpt>
      <trkpt lat="38.03871902637183666229248046875" lon="-106.9417321868240833282470703125">
        <ele>4072.199951171875</ele>
        <time>2026-05-25T13:37:09.000Z</time>
        <extensions>
          <ns3:TrackPointExtension>
            <ns3:hr>97</ns3:hr>
            <ns3:cad>0</ns3:cad>
          </ns3:TrackPointExtension>
        </extensions>
      </trkpt>
      <trkpt lat="38.03870402276515960693359375" lon="-106.94171148352324962615966796875">
        <ele>4072.199951171875</ele>
        <time>2026-05-25T13:37:11.000Z</time>
        <extensions>
          <ns3:TrackPointExtension>
            <ns3:hr>96</ns3:hr>
            <ns3:cad>0</ns3:cad>
          </ns3:TrackPointExtension>
        </extensions>
      </trkpt>
      <trkpt lat="38.03869605995714664459228515625" lon="-106.94170226342976093292236328125">
        <ele>4072</ele>
        <time>2026-05-25T13:37:12.000Z</time>
        <extensions>
          <ns3:TrackPointExtension>
            <ns3:hr>96</ns3:hr>
            <ns3:cad>0</ns3:cad>
          </ns3:TrackPointExtension>
        </extensions>
      </trkpt>
      <trkpt lat="38.03865314461290836334228515625" lon="-106.94164996035397052764892578125">
        <ele>4071</ele>
        <time>2026-05-25T13:37:18.000Z</time>
        <extensions>
          <ns3:TrackPointExtension>
            <ns3:hr>96</ns3:hr>
            <ns3:cad>55</ns3:cad>
          </ns3:TrackPointExtension>
        </extensions>
      </trkpt>
      <trkpt lat="38.03865163587033748626708984375" lon="-106.94165088236331939697265625">
        <ele>4071</ele>
        <time>2026-05-25T13:37:19.000Z</time>
        <extensions>
          <ns3:TrackPointExtension>
            <ns3:hr>95</ns3:hr>
            <ns3:cad>55</ns3:cad>
          </ns3:TrackPointExtension>
        </extensions>
      </trkpt>
      <trkpt lat="38.03865163587033748626708984375" lon="-106.94165088236331939697265625">
        <ele>4071</ele>
        <time>2026-05-25T13:37:20.000Z</time>
        <extensions>
          <ns3:TrackPointExtension>
            <ns3:hr>94</ns3:hr>
            <ns3:cad>0</ns3:cad>
          </ns3:TrackPointExtension>
        </extensions>
      </trkpt>
      <trkpt lat="38.0386495403945446014404296875" lon="-106.94165364839136600494384765625">
        <ele>4071</ele>
        <time>2026-05-25T13:37:25.000Z</time>
        <extensions>
          <ns3:TrackPointExtension>
            <ns3:hr>98</ns3:hr>
            <ns3:cad>0</ns3:cad>
          </ns3:TrackPointExtension>
        </extensions>
      </trkpt>
      <trkpt lat="38.0386495403945446014404296875" lon="-106.94165364839136600494384765625">
        <ele>4071</ele>
        <time>2026-05-25T13:37:31.000Z</time>
        <extensions>
          <ns3:TrackPointExtension>
            <ns3:hr>99</ns3:hr>
            <ns3:cad>0</ns3:cad>
          </ns3:TrackPointExtension>
        </extensions>
      </trkpt>
      <trkpt lat="38.03863830864429473876953125" lon="-106.941647194325923919677734375">
        <ele>4070.800048828125</ele>
        <time>2026-05-25T13:37:33.000Z</time>
        <extensions>
          <ns3:TrackPointExtension>
            <ns3:hr>96</ns3:hr>
            <ns3:cad>0</ns3:cad>
          </ns3:TrackPointExtension>
        </extensions>
      </trkpt>
      <trkpt lat="38.0386228859424591064453125" lon="-106.94163487292826175689697265625">
        <ele>4070.800048828125</ele>
        <time>2026-05-25T13:37:35.000Z</time>
        <extensions>
          <ns3:TrackPointExtension>
            <ns3:hr>95</ns3:hr>
            <ns3:cad>0</ns3:cad>
          </ns3:TrackPointExtension>
        </extensions>
      </trkpt>
      <trkpt lat="38.03856144659221172332763671875" lon="-106.9415880180895328521728515625">
        <ele>4070.199951171875</ele>
        <time>2026-05-25T13:37:41.000Z</time>
        <extensions>
          <ns3:TrackPointExtension>
            <ns3:hr>96</ns3:hr>
            <ns3:cad>0</ns3:cad>
          </ns3:TrackPointExtension>
        </extensions>
      </trkpt>
      <trkpt lat="38.0385435931384563446044921875" lon="-106.941569410264492034912109375">
        <ele>4070.199951171875</ele>
        <time>2026-05-25T13:37:43.000Z</time>
        <extensions>
          <ns3:TrackPointExtension>
            <ns3:hr>96</ns3:hr>
            <ns3:cad>0</ns3:cad>
          </ns3:TrackPointExtension>
        </extensions>
      </trkpt>
      <trkpt lat="38.03852624259889125823974609375" lon="-106.9415269978344440460205078125">
        <ele>4069.800048828125</ele>
        <time>2026-05-25T13:37:46.000Z</time>
        <extensions>
          <ns3:TrackPointExtension>
            <ns3:hr>98</ns3:hr>
            <ns3:cad>0</ns3:cad>
          </ns3:TrackPointExtension>
        </extensions>
      </trkpt>
      <trkpt lat="38.038501180708408355712890625" lon="-106.94147645495831966400146484375">
        <ele>4069.60009765625</ele>
        <time>2026-05-25T13:37:50.000Z</time>
        <extensions>
          <ns3:TrackPointExtension>
            <ns3:hr>99</ns3:hr>
            <ns3:cad>0</ns3:cad>
          </ns3:TrackPointExtension>
        </extensions>
      </trkpt>
      <trkpt lat="38.03847360424697399139404296875" lon="-106.9414200447499752044677734375">
        <ele>4068.800048828125</ele>
        <time>2026-05-25T13:37:54.000Z</time>
        <extensions>
          <ns3:TrackPointExtension>
            <ns3:hr>99</ns3:hr>
            <ns3:cad>0</ns3:cad>
          </ns3:TrackPointExtension>
        </extensions>
      </trkpt>
      <trkpt lat="38.03845063783228397369384765625" lon="-106.94139012135565280914306640625">
        <ele>4068.60009765625</ele>
        <time>2026-05-25T13:37:57.000Z</time>
        <extensions>
          <ns3:TrackPointExtension>
            <ns3:hr>100</ns3:hr>
            <ns3:cad>0</ns3:cad>
          </ns3:TrackPointExtension>
        </extensions>
      </trkpt>
      <trkpt lat="38.03842909634113311767578125" lon="-106.9413667358458042144775390625">
        <ele>4068.39990234375</ele>
        <time>2026-05-25T13:38:00.000Z</time>
        <extensions>
          <ns3:TrackPointExtension>
            <ns3:hr>97</ns3:hr>
            <ns3:cad>0</ns3:cad>
          </ns3:TrackPointExtension>
        </extensions>
      </trkpt>
      <trkpt lat="38.0384118296205997467041015625" lon="-106.94132541306316852569580078125">
        <ele>4067.800048828125</ele>
        <time>2026-05-25T13:38:04.000Z</time>
        <extensions>
          <ns3:TrackPointExtension>
            <ns3:hr>95</ns3:hr>
            <ns3:cad>0</ns3:cad>
          </ns3:TrackPointExtension>
        </extensions>
      </trkpt>
      <trkpt lat="38.0383819900453090667724609375" lon="-106.941278390586376190185546875">
        <ele>4066.800048828125</ele>
        <time>2026-05-25T13:38:09.000Z</time>
        <extensions>
          <ns3:TrackPointExtension>
            <ns3:hr>94</ns3:hr>
            <ns3:cad>0</ns3:cad>
          </ns3:TrackPointExtension>
        </extensions>
      </trkpt>
      <trkpt lat="38.03836204111576080322265625" lon="-106.94124243222177028656005859375">
        <ele>4066.199951171875</ele>
        <time>2026-05-25T13:38:13.000Z</time>
        <extensions>
          <ns3:TrackPointExtension>
            <ns3:hr>93</ns3:hr>
            <ns3:cad>0</ns3:cad>
          </ns3:TrackPointExtension>
        </extensions>
      </trkpt>
      <trkpt lat="38.038343600928783416748046875" lon="-106.94120571948587894439697265625">
        <ele>4065.60009765625</ele>
        <time>2026-05-25T13:38:16.000Z</time>
        <extensions>
          <ns3:TrackPointExtension>
            <ns3:hr>93</ns3:hr>
            <ns3:cad>0</ns3:cad>
          </ns3:TrackPointExtension>
        </extensions>
      </trkpt>
      <trkpt lat="38.03832583129405975341796875" lon="-106.94118015468120574951171875">
        <ele>4065</ele>
        <time>2026-05-25T13:38:20.000Z</time>
        <extensions>
          <ns3:TrackPointExtension>
            <ns3:hr>91</ns3:hr>
            <ns3:cad>0</ns3:cad>
          </ns3:TrackPointExtension>
        </extensions>
      </trkpt>
      <trkpt lat="38.0383265018463134765625" lon="-106.9411608763039112091064453125">
        <ele>4065</ele>
        <time>2026-05-25T13:38:21.000Z</time>
        <extensions>
          <ns3:TrackPointExtension>
            <ns3:hr>91</ns3:hr>
            <ns3:cad>0</ns3:cad>
          </ns3:TrackPointExtension>
        </extensions>
      </trkpt>
      <trkpt lat="38.03832172416150569915771484375" lon="-106.94113497622311115264892578125">
        <ele>4064.39990234375</ele>
        <time>2026-05-25T13:38:24.000Z</time>
        <extensions>
          <ns3:TrackPointExtension>
            <ns3:hr>92</ns3:hr>
            <ns3:cad>0</ns3:cad>
          </ns3:TrackPointExtension>
        </extensions>
      </trkpt>
      <trkpt lat="38.0383119173347949981689453125" lon="-106.941094659268856048583984375">
        <ele>4064</ele>
        <time>2026-05-25T13:38:27.000Z</time>
        <extensions>
          <ns3:TrackPointExtension>
            <ns3:hr>94</ns3:hr>
            <ns3:cad>0</ns3:cad>
          </ns3:TrackPointExtension>
        </extensions>
      </trkpt>
      <trkpt lat="38.03830596618354320526123046875" lon="-106.94106657989323139190673828125">
        <ele>4063.39990234375</ele>
        <time>2026-05-25T13:38:30.000Z</time>
        <extensions>
          <ns3:TrackPointExtension>
            <ns3:hr>95</ns3:hr>
            <ns3:cad>0</ns3:cad>
          </ns3:TrackPointExtension>
        </extensions>
      </trkpt>
      <trkpt lat="38.03829641081392765045166015625" lon="-106.9410522468388080596923828125">
        <ele>4062.800048828125</ele>
        <time>2026-05-25T13:38:32.000Z</time>
        <extensions>
          <ns3:TrackPointExtension>
            <ns3:hr>96</ns3:hr>
            <ns3:cad>71</ns3:cad>
          </ns3:TrackPointExtension>
        </extensions>
      </trkpt>
      <trkpt lat="38.0382938124239444732666015625" lon="-106.9410271011292934417724609375">
        <ele>4062.199951171875</ele>
        <time>2026-05-25T13:38:35.000Z</time>
        <extensions>
          <ns3:TrackPointExtension>
            <ns3:hr>97</ns3:hr>
            <ns3:cad>0</ns3:cad>
          </ns3:TrackPointExtension>
        </extensions>
      </trkpt>
      <trkpt lat="38.0382793955504894256591796875" lon="-106.9410029612481594085693359375">
        <ele>4061.60009765625</ele>
        <time>2026-05-25T13:38:38.000Z</time>
        <extensions>
          <ns3:TrackPointExtension>
            <ns3:hr>98</ns3:hr>
            <ns3:cad>0</ns3:cad>
          </ns3:TrackPointExtension>
        </extensions>
      </trkpt>
      <trkpt lat="38.03827679716050624847412109375" lon="-106.94099642336368560791015625">
        <ele>4061.199951171875</ele>
        <time>2026-05-25T13:38:40.000Z</time>
        <extensions>
          <ns3:TrackPointExtension>
            <ns3:hr>98</ns3:hr>
            <ns3:cad>0</ns3:cad>
          </ns3:TrackPointExtension>
        </extensions>
      </trkpt>
      <trkpt lat="38.0382339656352996826171875" lon="-106.94094143807888031005859375">
        <ele>4059.800048828125</ele>
        <time>2026-05-25T13:38:45.000Z</time>
        <extensions>
          <ns3:TrackPointExtension>
            <ns3:hr>96</ns3:hr>
            <ns3:cad>0</ns3:cad>
          </ns3:TrackPointExtension>
        </extensions>
      </trkpt>
      <trkpt lat="38.03820806555449962615966796875" lon="-106.940883100032806396484375">
        <ele>4058.800048828125</ele>
        <time>2026-05-25T13:38:51.000Z</time>
        <extensions>
          <ns3:TrackPointExtension>
            <ns3:hr>95</ns3:hr>
            <ns3:cad>50</ns3:cad>
          </ns3:TrackPointExtension>
        </extensions>
      </trkpt>
      <trkpt lat="38.03820404224097728729248046875" lon="-106.9408722035586833953857421875">
        <ele>4058.800048828125</ele>
        <time>2026-05-25T13:38:52.000Z</time>
        <extensions>
          <ns3:TrackPointExtension>
            <ns3:hr>94</ns3:hr>
            <ns3:cad>50</ns3:cad>
          </ns3:TrackPointExtension>
        </extensions>
      </trkpt>
      <trkpt lat="38.0381972528994083404541015625" lon="-106.94085719995200634002685546875">
        <ele>4058.39990234375</ele>
        <time>2026-05-25T13:38:54.000Z</time>
        <extensions>
          <ns3:TrackPointExtension>
            <ns3:hr>91</ns3:hr>
            <ns3:cad>0</ns3:cad>
          </ns3:TrackPointExtension>
        </extensions>
      </trkpt>
      <trkpt lat="38.03819398395717144012451171875" lon="-106.9408468902111053466796875">
        <ele>4058</ele>
        <time>2026-05-25T13:38:56.000Z</time>
        <extensions>
          <ns3:TrackPointExtension>
            <ns3:hr>88</ns3:hr>
            <ns3:cad>0</ns3:cad>
          </ns3:TrackPointExtension>
        </extensions>
      </trkpt>
      <trkpt lat="38.038169257342815399169921875" lon="-106.94083373062312602996826171875">
        <ele>4057.60009765625</ele>
        <time>2026-05-25T13:38:58.000Z</time>
        <extensions>
          <ns3:TrackPointExtension>
            <ns3:hr>86</ns3:hr>
            <ns3:cad>0</ns3:cad>
          </ns3:TrackPointExtension>
        </extensions>
      </trkpt>
      <trkpt lat="38.03816380910575389862060546875" lon="-106.94082601927220821380615234375">
        <ele>4057.39990234375</ele>
        <time>2026-05-25T13:38:59.000Z</time>
        <extensions>
          <ns3:TrackPointExtension>
            <ns3:hr>85</ns3:hr>
            <ns3:cad>0</ns3:cad>
          </ns3:TrackPointExtension>
        </extensions>
      </trkpt>
      <trkpt lat="38.03814620710909366607666015625" lon="-106.940804310142993927001953125">
        <ele>4056.39990234375</ele>
        <time>2026-05-25T13:39:03.000Z</time>
        <extensions>
          <ns3:TrackPointExtension>
            <ns3:hr>84</ns3:hr>
            <ns3:cad>51</ns3:cad>
          </ns3:TrackPointExtension>
        </extensions>
      </trkpt>
      <trkpt lat="38.038120307028293609619140625" lon="-106.94077053107321262359619140625">
        <ele>4055.800048828125</ele>
        <time>2026-05-25T13:39:06.000Z</time>
        <extensions>
          <ns3:TrackPointExtension>
            <ns3:hr>84</ns3:hr>
            <ns3:cad>51</ns3:cad>
          </ns3:TrackPointExtension>
        </extensions>
      </trkpt>
      <trkpt lat="38.03811335004866123199462890625" lon="-106.94076240062713623046875">
        <ele>4055.39990234375</ele>
        <time>2026-05-25T13:39:08.000Z</time>
        <extensions>
          <ns3:TrackPointExtension>
            <ns3:hr>84</ns3:hr>
            <ns3:cad>52</ns3:cad>
          </ns3:TrackPointExtension>
        </extensions>
      </trkpt>
      <trkpt lat="38.03808870725333690643310546875" lon="-106.9407414458692073822021484375">
        <ele>4055.199951171875</ele>
        <time>2026-05-25T13:39:10.000Z</time>
        <extensions>
          <ns3:TrackPointExtension>
            <ns3:hr>87</ns3:hr>
            <ns3:cad>0</ns3:cad>
          </ns3:TrackPointExtension>
        </extensions>
      </trkpt>
      <trkpt lat="38.03806775249540805816650390625" lon="-106.94072526879608631134033203125">
        <ele>4054.199951171875</ele>
        <time>2026-05-25T13:39:14.000Z</time>
        <extensions>
          <ns3:TrackPointExtension>
            <ns3:hr>89</ns3:hr>
            <ns3:cad>0</ns3:cad>
          </ns3:TrackPointExtension>
        </extensions>
      </trkpt>
      <trkpt lat="38.03805652074515819549560546875" lon="-106.94071621634066104888916015625">
        <ele>4054</ele>
        <time>2026-05-25T13:39:15.000Z</time>
        <extensions>
          <ns3:TrackPointExtension>
            <ns3:hr>89</ns3:hr>
            <ns3:cad>0</ns3:cad>
          </ns3:TrackPointExtension>
        </extensions>
      </trkpt>
      <trkpt lat="38.03804093040525913238525390625" lon="-106.9406800903379917144775390625">
        <ele>4053.60009765625</ele>
        <time>2026-05-25T13:39:21.000Z</time>
        <extensions>
          <ns3:TrackPointExtension>
            <ns3:hr>90</ns3:hr>
            <ns3:cad>0</ns3:cad>
          </ns3:TrackPointExtension>
        </extensions>
      </trkpt>
      <trkpt lat="38.038024418056011199951171875" lon="-106.94066642783582210540771484375">
        <ele>4053.199951171875</ele>
        <time>2026-05-25T13:39:24.000Z</time>
        <extensions>
          <ns3:TrackPointExtension>
            <ns3:hr>89</ns3:hr>
            <ns3:cad>0</ns3:cad>
          </ns3:TrackPointExtension>
        </extensions>
      </trkpt>
      <trkpt lat="38.03800472058355808258056640625" lon="-106.940654106438159942626953125">
        <ele>4051.800048828125</ele>
        <time>2026-05-25T13:39:28.000Z</time>
        <extensions>
          <ns3:TrackPointExtension>
            <ns3:hr>89</ns3:hr>
            <ns3:cad>0</ns3:cad>
          </ns3:TrackPointExtension>
        </extensions>
      </trkpt>
      <trkpt lat="38.03799902088940143585205078125" lon="-106.94063776172697544097900390625">
        <ele>4050.800048828125</ele>
        <time>2026-05-25T13:39:31.000Z</time>
        <extensions>
          <ns3:TrackPointExtension>
            <ns3:hr>88</ns3:hr>
            <ns3:cad>0</ns3:cad>
          </ns3:TrackPointExtension>
        </extensions>
      </trkpt>
      <trkpt lat="38.0379766412079334259033203125" lon="-106.940618567168712615966796875">
        <ele>4050.199951171875</ele>
        <time>2026-05-25T13:39:34.000Z</time>
        <extensions>
          <ns3:TrackPointExtension>
            <ns3:hr>86</ns3:hr>
            <ns3:cad>0</ns3:cad>
          </ns3:TrackPointExtension>
        </extensions>
      </trkpt>
      <trkpt lat="38.03795702755451202392578125" lon="-106.9406083412468433380126953125">
        <ele>4049.60009765625</ele>
        <time>2026-05-25T13:39:38.000Z</time>
        <extensions>
          <ns3:TrackPointExtension>
            <ns3:hr>84</ns3:hr>
            <ns3:cad>0</ns3:cad>
          </ns3:TrackPointExtension>
        </extensions>
      </trkpt>
      <trkpt lat="38.037931211292743682861328125" lon="-106.94058646447956562042236328125">
        <ele>4048.60009765625</ele>
        <time>2026-05-25T13:39:41.000Z</time>
        <extensions>
          <ns3:TrackPointExtension>
            <ns3:hr>84</ns3:hr>
            <ns3:cad>0</ns3:cad>
          </ns3:TrackPointExtension>
        </extensions>
      </trkpt>
      <trkpt lat="38.03792752325534820556640625" lon="-106.94058042950928211212158203125">
        <ele>4048.39990234375</ele>
        <time>2026-05-25T13:39:42.000Z</time>
        <extensions>
          <ns3:TrackPointExtension>
            <ns3:hr>84</ns3:hr>
            <ns3:cad>0</ns3:cad>
          </ns3:TrackPointExtension>
        </extensions>
      </trkpt>
      <trkpt lat="38.03790145553648471832275390625" lon="-106.94055519998073577880859375">
        <ele>4047.60009765625</ele>
        <time>2026-05-25T13:39:46.000Z</time>
        <extensions>
          <ns3:TrackPointExtension>
            <ns3:hr>83</ns3:hr>
            <ns3:cad>0</ns3:cad>
          </ns3:TrackPointExtension>
        </extensions>
      </trkpt>
      <trkpt lat="38.0378938280045986175537109375" lon="-106.9405432976782321929931640625">
        <ele>4047.199951171875</ele>
        <time>2026-05-25T13:39:49.000Z</time>
        <extensions>
          <ns3:TrackPointExtension>
            <ns3:hr>85</ns3:hr>
            <ns3:cad>0</ns3:cad>
          </ns3:TrackPointExtension>
        </extensions>
      </trkpt>
      <trkpt lat="38.03788058459758758544921875" lon="-106.9405050761997699737548828125">
        <ele>4046.39990234375</ele>
        <time>2026-05-25T13:39:53.000Z</time>
        <extensions>
          <ns3:TrackPointExtension>
            <ns3:hr>86</ns3:hr>
            <ns3:cad>0</ns3:cad>
          </ns3:TrackPointExtension>
        </extensions>
      </trkpt>
      <trkpt lat="38.037856779992580413818359375" lon="-106.9404794275760650634765625">
        <ele>4046.199951171875</ele>
        <time>2026-05-25T13:39:56.000Z</time>
        <extensions>
          <ns3:TrackPointExtension>
            <ns3:hr>88</ns3:hr>
            <ns3:cad>0</ns3:cad>
          </ns3:TrackPointExtension>
        </extensions>
      </trkpt>
      <trkpt lat="38.03784730844199657440185546875" lon="-106.94046677090227603912353515625">
        <ele>4045.39990234375</ele>
        <time>2026-05-25T13:39:59.000Z</time>
        <extensions>
          <ns3:TrackPointExtension>
            <ns3:hr>88</ns3:hr>
            <ns3:cad>0</ns3:cad>
          </ns3:TrackPointExtension>
        </extensions>
      </trkpt>
      <trkpt lat="38.03784345276653766632080078125" lon="-106.9404584728181362152099609375">
        <ele>4045</ele>
        <time>2026-05-25T13:40:00.000Z</time>
        <extensions>
          <ns3:TrackPointExtension>
            <ns3:hr>88</ns3:hr>
            <ns3:cad>48</ns3:cad>
          </ns3:TrackPointExtension>
        </extensions>
      </trkpt>
      <trkpt lat="38.03783020935952663421630859375" lon="-106.94042167626321315765380859375">
        <ele>4043.800048828125</ele>
        <time>2026-05-25T13:40:03.000Z</time>
        <extensions>
          <ns3:TrackPointExtension>
            <ns3:hr>87</ns3:hr>
            <ns3:cad>0</ns3:cad>
          </ns3:TrackPointExtension>
        </extensions>
      </trkpt>
      <trkpt lat="38.037811182439327239990234375" lon="-106.9403850473463535308837890625">
        <ele>4043.800048828125</ele>
        <time>2026-05-25T13:40:07.000Z</time>
        <extensions>
          <ns3:TrackPointExtension>
            <ns3:hr>86</ns3:hr>
            <ns3:cad>0</ns3:cad>
          </ns3:TrackPointExtension>
        </extensions>
      </trkpt>
      <trkpt lat="38.03780288435518741607666015625" lon="-106.94033618085086345672607421875">
        <ele>4042.60009765625</ele>
        <time>2026-05-25T13:40:12.000Z</time>
        <extensions>
          <ns3:TrackPointExtension>
            <ns3:hr>85</ns3:hr>
            <ns3:cad>16</ns3:cad>
          </ns3:TrackPointExtension>
        </extensions>
      </trkpt>
      <trkpt lat="38.03780154325067996978759765625" lon="-106.94032461382448673248291015625">
        <ele>4042.39990234375</ele>
        <time>2026-05-25T13:40:13.000Z</time>
        <extensions>
          <ns3:TrackPointExtension>
            <ns3:hr>86</ns3:hr>
            <ns3:cad>16</ns3:cad>
          </ns3:TrackPointExtension>
        </extensions>
      </trkpt>
      <trkpt lat="38.0377808399498462677001953125" lon="-106.94028672762215137481689453125">
        <ele>4041.39990234375</ele>
        <time>2026-05-25T13:40:17.000Z</time>
        <extensions>
          <ns3:TrackPointExtension>
            <ns3:hr>87</ns3:hr>
            <ns3:cad>0</ns3:cad>
          </ns3:TrackPointExtension>
        </extensions>
      </trkpt>
      <trkpt lat="38.03776927292346954345703125" lon="-106.94025169126689434051513671875">
        <ele>4040.800048828125</ele>
        <time>2026-05-25T13:40:20.000Z</time>
        <extensions>
          <ns3:TrackPointExtension>
            <ns3:hr>86</ns3:hr>
            <ns3:cad>0</ns3:cad>
          </ns3:TrackPointExtension>
        </extensions>
      </trkpt>
      <trkpt lat="38.03775158710777759552001953125" lon="-106.94020022638142108917236328125">
        <ele>4040.39990234375</ele>
        <time>2026-05-25T13:40:25.000Z</time>
        <extensions>
          <ns3:TrackPointExtension>
            <ns3:hr>86</ns3:hr>
            <ns3:cad>0</ns3:cad>
          </ns3:TrackPointExtension>
        </extensions>
      </trkpt>
      <trkpt lat="38.037748150527477264404296875" lon="-106.9401897490024566650390625">
        <ele>4040</ele>
        <time>2026-05-25T13:40:26.000Z</time>
        <extensions>
          <ns3:TrackPointExtension>
            <ns3:hr>86</ns3:hr>
            <ns3:cad>0</ns3:cad>
          </ns3:TrackPointExtension>
        </extensions>
      </trkpt>
      <trkpt lat="38.03773499093949794769287109375" lon="-106.9401584006845951080322265625">
        <ele>4039.199951171875</ele>
        <time>2026-05-25T13:40:29.000Z</time>
        <extensions>
          <ns3:TrackPointExtension>
            <ns3:hr>86</ns3:hr>
            <ns3:cad>0</ns3:cad>
          </ns3:TrackPointExtension>
        </extensions>
      </trkpt>
      <trkpt lat="38.03770934231579303741455078125" lon="-106.94010534323751926422119140625">
        <ele>4038.60009765625</ele>
        <time>2026-05-25T13:40:34.000Z</time>
        <extensions>
          <ns3:TrackPointExtension>
            <ns3:hr>86</ns3:hr>
            <ns3:cad>0</ns3:cad>
          </ns3:TrackPointExtension>
        </extensions>
      </trkpt>
      <trkpt lat="38.03768855519592761993408203125" lon="-106.94006946869194507598876953125">
        <ele>4038.199951171875</ele>
        <time>2026-05-25T13:40:38.000Z</time>
        <extensions>
          <ns3:TrackPointExtension>
            <ns3:hr>85</ns3:hr>
            <ns3:cad>0</ns3:cad>
          </ns3:TrackPointExtension>
        </extensions>
      </trkpt>
      <trkpt lat="38.0376376770436763763427734375" lon="-106.93999193608760833740234375">
        <ele>4037.39990234375</ele>
        <time>2026-05-25T13:40:44.000Z</time>
        <extensions>
          <ns3:TrackPointExtension>
            <ns3:hr>83</ns3:hr>
            <ns3:cad>52</ns3:cad>
          </ns3:TrackPointExtension>
        </extensions>
      </trkpt>
      <trkpt lat="38.037631474435329437255859375" lon="-106.93998347036540508270263671875">
        <ele>4037</ele>
        <time>2026-05-25T13:40:45.000Z</time>
        <extensions>
          <ns3:TrackPointExtension>
            <ns3:hr>84</ns3:hr>
            <ns3:cad>53</ns3:cad>
          </ns3:TrackPointExtension>
        </extensions>
      </trkpt>
      <trkpt lat="38.037595264613628387451171875" lon="-106.93991121836006641387939453125">
        <ele>4036.199951171875</ele>
        <time>2026-05-25T13:40:51.000Z</time>
        <extensions>
          <ns3:TrackPointExtension>
            <ns3:hr>82</ns3:hr>
            <ns3:cad>53</ns3:cad>
          </ns3:TrackPointExtension>
        </extensions>
      </trkpt>
      <trkpt lat="38.03759115748107433319091796875" lon="-106.93990233354270458221435546875">
        <ele>4036.199951171875</ele>
        <time>2026-05-25T13:40:52.000Z</time>
        <extensions>
          <ns3:TrackPointExtension>
            <ns3:hr>82</ns3:hr>
            <ns3:cad>53</ns3:cad>
          </ns3:TrackPointExtension>
        </extensions>
      </trkpt>
      <trkpt lat="38.03757607005536556243896484375" lon="-106.9398828037083148956298828125">
        <ele>4035.800048828125</ele>
        <time>2026-05-25T13:40:55.000Z</time>
        <extensions>
          <ns3:TrackPointExtension>
            <ns3:hr>81</ns3:hr>
            <ns3:cad>0</ns3:cad>
          </ns3:TrackPointExtension>
        </extensions>
      </trkpt>
      <trkpt lat="38.03752259351313114166259765625" lon="-106.93980795331299304962158203125">
        <ele>4034.800048828125</ele>
        <time>2026-05-25T13:41:01.000Z</time>
        <extensions>
          <ns3:TrackPointExtension>
            <ns3:hr>80</ns3:hr>
            <ns3:cad>0</ns3:cad>
          </ns3:TrackPointExtension>
        </extensions>
      </trkpt>
      <trkpt lat="38.03749241866171360015869140625" lon="-106.93975531496107578277587890625">
        <ele>4034.800048828125</ele>
        <time>2026-05-25T13:41:05.000Z</time>
        <extensions>
          <ns3:TrackPointExtension>
            <ns3:hr>81</ns3:hr>
            <ns3:cad>0</ns3:cad>
          </ns3:TrackPointExtension>
        </extensions>
      </trkpt>
      <trkpt lat="38.03747951053082942962646484375" lon="-106.93973804824054241180419921875">
        <ele>4034.60009765625</ele>
        <time>2026-05-25T13:41:07.000Z</time>
        <extensions>
          <ns3:TrackPointExtension>
            <ns3:hr>81</ns3:hr>
            <ns3:cad>0</ns3:cad>
          </ns3:TrackPointExtension>
        </extensions>
      </trkpt>
      <trkpt lat="38.0374512635171413421630859375" lon="-106.9397010840475559234619140625">
        <ele>4033.800048828125</ele>
        <time>2026-05-25T13:41:12.000Z</time>
        <extensions>
          <ns3:TrackPointExtension>
            <ns3:hr>81</ns3:hr>
            <ns3:cad>53</ns3:cad>
          </ns3:TrackPointExtension>
        </extensions>
      </trkpt>
      <trkpt lat="38.037435002624988555908203125" lon="-106.939671076834201812744140625">
        <ele>4033.39990234375</ele>
        <time>2026-05-25T13:41:14.000Z</time>
        <extensions>
          <ns3:TrackPointExtension>
            <ns3:hr>81</ns3:hr>
            <ns3:cad>53</ns3:cad>
          </ns3:TrackPointExtension>
        </extensions>
      </trkpt>
      <trkpt lat="38.03740072064101696014404296875" lon="-106.93959421478211879730224609375">
        <ele>4033.199951171875</ele>
        <time>2026-05-25T13:41:20.000Z</time>
        <extensions>
          <ns3:TrackPointExtension>
            <ns3:hr>81</ns3:hr>
            <ns3:cad>53</ns3:cad>
          </ns3:TrackPointExtension>
        </extensions>
      </trkpt>
      <trkpt lat="38.0373892374336719512939453125" lon="-106.93956873379647731781005859375">
        <ele>4033</ele>
        <time>2026-05-25T13:41:22.000Z</time>
        <extensions>
          <ns3:TrackPointExtension>
            <ns3:hr>81</ns3:hr>
            <ns3:cad>53</ns3:cad>
          </ns3:TrackPointExtension>
        </extensions>
      </trkpt>
      <trkpt lat="38.03738010115921497344970703125" lon="-106.93954928778111934661865234375">
        <ele>4032.60009765625</ele>
        <time>2026-05-25T13:41:25.000Z</time>
        <extensions>
          <ns3:TrackPointExtension>
            <ns3:hr>80</ns3:hr>
            <ns3:cad>0</ns3:cad>
          </ns3:TrackPointExtension>
        </extensions>
      </trkpt>
      <trkpt lat="38.037356548011302947998046875" lon="-106.939495392143726348876953125">
        <ele>4032.800048828125</ele>
        <time>2026-05-25T13:41:29.000Z</time>
        <extensions>
          <ns3:TrackPointExtension>
            <ns3:hr>79</ns3:hr>
            <ns3:cad>51</ns3:cad>
          </ns3:TrackPointExtension>
        </extensions>
      </trkpt>
      <trkpt lat="38.0373322404921054840087890625" lon="-106.93940780125558376312255859375">
        <ele>4031.800048828125</ele>
        <time>2026-05-25T13:41:35.000Z</time>
        <extensions>
          <ns3:TrackPointExtension>
            <ns3:hr>78</ns3:hr>
            <ns3:cad>51</ns3:cad>
          </ns3:TrackPointExtension>
        </extensions>
      </trkpt>
      <trkpt lat="38.037328384816646575927734375" lon="-106.93939707241952419281005859375">
        <ele>4031.60009765625</ele>
        <time>2026-05-25T13:41:36.000Z</time>
        <extensions>
          <ns3:TrackPointExtension>
            <ns3:hr>78</ns3:hr>
            <ns3:cad>51</ns3:cad>
          </ns3:TrackPointExtension>
        </extensions>
      </trkpt>
      <trkpt lat="38.0372903309762477874755859375" lon="-106.93931794725358486175537109375">
        <ele>4030.800048828125</ele>
        <time>2026-05-25T13:41:42.000Z</time>
        <extensions>
          <ns3:TrackPointExtension>
            <ns3:hr>78</ns3:hr>
            <ns3:cad>0</ns3:cad>
          </ns3:TrackPointExtension>
        </extensions>
      </trkpt>
      <trkpt lat="38.0372817814350128173828125" lon="-106.939309649169445037841796875">
        <ele>4030.60009765625</ele>
        <time>2026-05-25T13:41:43.000Z</time>
        <extensions>
          <ns3:TrackPointExtension>
            <ns3:hr>77</ns3:hr>
            <ns3:cad>0</ns3:cad>
          </ns3:TrackPointExtension>
        </extensions>
      </trkpt>
      <trkpt lat="38.037250600755214691162109375" lon="-106.93923513405025005340576171875">
        <ele>4029.60009765625</ele>
        <time>2026-05-25T13:41:49.000Z</time>
        <extensions>
          <ns3:TrackPointExtension>
            <ns3:hr>78</ns3:hr>
            <ns3:cad>53</ns3:cad>
          </ns3:TrackPointExtension>
        </extensions>
      </trkpt>
      <trkpt lat="38.03724431432783603668212890625" lon="-106.9392214715480804443359375">
        <ele>4029.60009765625</ele>
        <time>2026-05-25T13:41:50.000Z</time>
        <extensions>
          <ns3:TrackPointExtension>
            <ns3:hr>77</ns3:hr>
            <ns3:cad>53</ns3:cad>
          </ns3:TrackPointExtension>
        </extensions>
      </trkpt>
      <trkpt lat="38.03723911754786968231201171875" lon="-106.93920864723622798919677734375">
        <ele>4029.39990234375</ele>
        <time>2026-05-25T13:41:51.000Z</time>
        <extensions>
          <ns3:TrackPointExtension>
            <ns3:hr>77</ns3:hr>
            <ns3:cad>53</ns3:cad>
          </ns3:TrackPointExtension>
        </extensions>
      </trkpt>
      <trkpt lat="38.03720676340162754058837890625" lon="-106.93914678879082202911376953125">
        <ele>4029</ele>
        <time>2026-05-25T13:41:57.000Z</time>
        <extensions>
          <ns3:TrackPointExtension>
            <ns3:hr>79</ns3:hr>
            <ns3:cad>0</ns3:cad>
          </ns3:TrackPointExtension>
        </extensions>
      </trkpt>
      <trkpt lat="38.03716577589511871337890625" lon="-106.9390737824141979217529296875">
        <ele>4028.60009765625</ele>
        <time>2026-05-25T13:42:03.000Z</time>
        <extensions>
          <ns3:TrackPointExtension>
            <ns3:hr>82</ns3:hr>
            <ns3:cad>0</ns3:cad>
          </ns3:TrackPointExtension>
        </extensions>
      </trkpt>
      <trkpt lat="38.03713886998593807220458984375" lon="-106.939047463238239288330078125">
        <ele>4028.39990234375</ele>
        <time>2026-05-25T13:42:05.000Z</time>
        <extensions>
          <ns3:TrackPointExtension>
            <ns3:hr>82</ns3:hr>
            <ns3:cad>53</ns3:cad>
          </ns3:TrackPointExtension>
        </extensions>
      </trkpt>
      <trkpt lat="38.03708690218627452850341796875" lon="-106.93898677825927734375">
        <ele>4028.39990234375</ele>
        <time>2026-05-25T13:42:11.000Z</time>
        <extensions>
          <ns3:TrackPointExtension>
            <ns3:hr>83</ns3:hr>
            <ns3:cad>52</ns3:cad>
          </ns3:TrackPointExtension>
        </extensions>
      </trkpt>
      <trkpt lat="38.0370670370757579803466796875" lon="-106.93895651958882808685302734375">
        <ele>4028</ele>
        <time>2026-05-25T13:42:14.000Z</time>
        <extensions>
          <ns3:TrackPointExtension>
            <ns3:hr>84</ns3:hr>
            <ns3:cad>52</ns3:cad>
          </ns3:TrackPointExtension>
        </extensions>
      </trkpt>
      <trkpt lat="38.037019930779933929443359375" lon="-106.93890790455043315887451171875">
        <ele>4027.39990234375</ele>
        <time>2026-05-25T13:42:19.000Z</time>
        <extensions>
          <ns3:TrackPointExtension>
            <ns3:hr>86</ns3:hr>
            <ns3:cad>0</ns3:cad>
          </ns3:TrackPointExtension>
        </extensions>
      </trkpt>
      <trkpt lat="38.03699704818427562713623046875" lon="-106.938886530697345733642578125">
        <ele>4027</ele>
        <time>2026-05-25T13:42:22.000Z</time>
        <extensions>
          <ns3:TrackPointExtension>
            <ns3:hr>86</ns3:hr>
            <ns3:cad>55</ns3:cad>
          </ns3:TrackPointExtension>
        </extensions>
      </trkpt>
      <trkpt lat="38.03694323636591434478759765625" lon="-106.9388357363641262054443359375">
        <ele>4026.60009765625</ele>
        <time>2026-05-25T13:42:28.000Z</time>
        <extensions>
          <ns3:TrackPointExtension>
            <ns3:hr>87</ns3:hr>
            <ns3:cad>0</ns3:cad>
          </ns3:TrackPointExtension>
        </extensions>
      </trkpt>
      <trkpt lat="38.03692571818828582763671875" lon="-106.93881553597748279571533203125">
        <ele>4026.60009765625</ele>
        <time>2026-05-25T13:42:30.000Z</time>
        <extensions>
          <ns3:TrackPointExtension>
            <ns3:hr>87</ns3:hr>
            <ns3:cad>57</ns3:cad>
          </ns3:TrackPointExtension>
        </extensions>
      </trkpt>
      <trkpt lat="38.03690082393586635589599609375" lon="-106.93879122845828533172607421875">
        <ele>4026.39990234375</ele>
        <time>2026-05-25T13:42:33.000Z</time>
        <extensions>
          <ns3:TrackPointExtension>
            <ns3:hr>86</ns3:hr>
            <ns3:cad>0</ns3:cad>
          </ns3:TrackPointExtension>
        </extensions>
      </trkpt>
      <trkpt lat="38.03689043037593364715576171875" lon="-106.9387844391167163848876953125">
        <ele>4026.199951171875</ele>
        <time>2026-05-25T13:42:35.000Z</time>
        <extensions>
          <ns3:TrackPointExtension>
            <ns3:hr>86</ns3:hr>
            <ns3:cad>0</ns3:cad>
          </ns3:TrackPointExtension>
        </extensions>
      </trkpt>
      <trkpt lat="38.03680845536291599273681640625" lon="-106.93875518627464771270751953125">
        <ele>4026</ele>
        <time>2026-05-25T13:42:41.000Z</time>
        <extensions>
          <ns3:TrackPointExtension>
            <ns3:hr>85</ns3:hr>
            <ns3:cad>52</ns3:cad>
          </ns3:TrackPointExtension>
        </extensions>
      </trkpt>
      <trkpt lat="38.03673528134822845458984375" lon="-106.9387468881905078887939453125">
        <ele>4026.60009765625</ele>
        <time>2026-05-25T13:42:47.000Z</time>
        <extensions>
          <ns3:TrackPointExtension>
            <ns3:hr>87</ns3:hr>
            <ns3:cad>51</ns3:cad>
          </ns3:TrackPointExtension>
        </extensions>
      </trkpt>
      <trkpt lat="38.036721535027027130126953125" lon="-106.9387435354292392730712890625">
        <ele>4027</ele>
        <time>2026-05-25T13:42:49.000Z</time>
        <extensions>
          <ns3:TrackPointExtension>
            <ns3:hr>88</ns3:hr>
            <ns3:cad>0</ns3:cad>
          </ns3:TrackPointExtension>
        </extensions>
      </trkpt>
      <trkpt lat="38.03666562773287296295166015625" lon="-106.93873959593474864959716796875">
        <ele>4027.39990234375</ele>
        <time>2026-05-25T13:42:54.000Z</time>
        <extensions>
          <ns3:TrackPointExtension>
            <ns3:hr>89</ns3:hr>
            <ns3:cad>0</ns3:cad>
          </ns3:TrackPointExtension>
        </extensions>
      </trkpt>
      <trkpt lat="38.036637715995311737060546875" lon="-106.938732974231243133544921875">
        <ele>4027.60009765625</ele>
        <time>2026-05-25T13:42:56.000Z</time>
        <extensions>
          <ns3:TrackPointExtension>
            <ns3:hr>91</ns3:hr>
            <ns3:cad>0</ns3:cad>
          </ns3:TrackPointExtension>
        </extensions>
      </trkpt>
      <trkpt lat="38.03661734797060489654541015625" lon="-106.9387244246900081634521484375">
        <ele>4027.800048828125</ele>
        <time>2026-05-25T13:42:58.000Z</time>
        <extensions>
          <ns3:TrackPointExtension>
            <ns3:hr>94</ns3:hr>
            <ns3:cad>0</ns3:cad>
          </ns3:TrackPointExtension>
        </extensions>
      </trkpt>
      <trkpt lat="38.036612905561923980712890625" lon="-106.9387220777571201324462890625">
        <ele>4028</ele>
        <time>2026-05-25T13:42:59.000Z</time>
        <extensions>
          <ns3:TrackPointExtension>
            <ns3:hr>97</ns3:hr>
            <ns3:cad>0</ns3:cad>
          </ns3:TrackPointExtension>
        </extensions>
      </trkpt>
      <trkpt lat="38.03659941069781780242919921875" lon="-106.93871830590069293975830078125">
        <ele>4028</ele>
        <time>2026-05-25T13:43:00.000Z</time>
        <extensions>
          <ns3:TrackPointExtension>
            <ns3:hr>101</ns3:hr>
            <ns3:cad>0</ns3:cad>
          </ns3:TrackPointExtension>
        </extensions>
      </trkpt>
      <trkpt lat="38.03658952005207538604736328125" lon="-106.9387180544435977935791015625">
        <ele>4028.199951171875</ele>
        <time>2026-05-25T13:43:01.000Z</time>
        <extensions>
          <ns3:TrackPointExtension>
            <ns3:hr>104</ns3:hr>
            <ns3:cad>52</ns3:cad>
          </ns3:TrackPointExtension>
        </extensions>
      </trkpt>
      <trkpt lat="38.03657895885407924652099609375" lon="-106.9387140311300754547119140625">
        <ele>4028.39990234375</ele>
        <time>2026-05-25T13:43:02.000Z</time>
        <extensions>
          <ns3:TrackPointExtension>
            <ns3:hr>104</ns3:hr>
            <ns3:cad>52</ns3:cad>
          </ns3:TrackPointExtension>
        </extensions>
      </trkpt>
      <trkpt lat="38.0365714989602565765380859375" lon="-106.938715539872646331787109375">
        <ele>4028.60009765625</ele>
        <time>2026-05-25T13:43:03.000Z</time>
        <extensions>
          <ns3:TrackPointExtension>
            <ns3:hr>104</ns3:hr>
            <ns3:cad>52</ns3:cad>
          </ns3:TrackPointExtension>
        </extensions>
      </trkpt>
      <trkpt lat="38.036524392664432525634765625" lon="-106.93868838250637054443359375">
        <ele>4029.39990234375</ele>
        <time>2026-05-25T13:43:09.000Z</time>
        <extensions>
          <ns3:TrackPointExtension>
            <ns3:hr>104</ns3:hr>
            <ns3:cad>0</ns3:cad>
          </ns3:TrackPointExtension>
        </extensions>
      </trkpt>
      <trkpt lat="38.0364625342190265655517578125" lon="-106.9386654160916805267333984375">
        <ele>4029.199951171875</ele>
        <time>2026-05-25T13:43:15.000Z</time>
        <extensions>
          <ns3:TrackPointExtension>
            <ns3:hr>106</ns3:hr>
            <ns3:cad>51</ns3:cad>
          </ns3:TrackPointExtension>
        </extensions>
      </trkpt>
      <trkpt lat="38.0364410765469074249267578125" lon="-106.9386530108749866485595703125">
        <ele>4029.39990234375</ele>
        <time>2026-05-25T13:43:17.000Z</time>
        <extensions>
          <ns3:TrackPointExtension>
            <ns3:hr>105</ns3:hr>
            <ns3:cad>0</ns3:cad>
          </ns3:TrackPointExtension>
        </extensions>
      </trkpt>
      <trkpt lat="38.0364202894270420074462890625" lon="-106.93864907138049602508544921875">
        <ele>4029.800048828125</ele>
        <time>2026-05-25T13:43:19.000Z</time>
        <extensions>
          <ns3:TrackPointExtension>
            <ns3:hr>103</ns3:hr>
            <ns3:cad>0</ns3:cad>
          </ns3:TrackPointExtension>
        </extensions>
      </trkpt>
      <trkpt lat="38.036389611661434173583984375" lon="-106.9386426173150539398193359375">
        <ele>4030.199951171875</ele>
        <time>2026-05-25T13:43:23.000Z</time>
        <extensions>
          <ns3:TrackPointExtension>
            <ns3:hr>105</ns3:hr>
            <ns3:cad>0</ns3:cad>
          </ns3:TrackPointExtension>
        </extensions>
      </trkpt>
      <trkpt lat="38.0363562516868114471435546875" lon="-106.9386473111808300018310546875">
        <ele>4030.39990234375</ele>
        <time>2026-05-25T13:43:26.000Z</time>
        <extensions>
          <ns3:TrackPointExtension>
            <ns3:hr>108</ns3:hr>
            <ns3:cad>0</ns3:cad>
          </ns3:TrackPointExtension>
        </extensions>
      </trkpt>
      <trkpt lat="38.03634493611752986907958984375" lon="-106.9386483170092105865478515625">
        <ele>4030.800048828125</ele>
        <time>2026-05-25T13:43:28.000Z</time>
        <extensions>
          <ns3:TrackPointExtension>
            <ns3:hr>107</ns3:hr>
            <ns3:cad>0</ns3:cad>
          </ns3:TrackPointExtension>
        </extensions>
      </trkpt>
      <trkpt lat="38.03632683120667934417724609375" lon="-106.938647814095020294189453125">
        <ele>4031.199951171875</ele>
        <time>2026-05-25T13:43:30.000Z</time>
        <extensions>
          <ns3:TrackPointExtension>
            <ns3:hr>109</ns3:hr>
            <ns3:cad>0</ns3:cad>
          </ns3:TrackPointExtension>
        </extensions>
      </trkpt>
      <trkpt lat="38.03630570881068706512451171875" lon="-106.938655860722064971923828125">
        <ele>4032</ele>
        <time>2026-05-25T13:43:34.000Z</time>
        <extensions>
          <ns3:TrackPointExtension>
            <ns3:hr>108</ns3:hr>
            <ns3:cad>0</ns3:cad>
          </ns3:TrackPointExtension>
        </extensions>
      </trkpt>
      <trkpt lat="38.0362808145582675933837890625" lon="-106.93865141831338405609130859375">
        <ele>4032.60009765625</ele>
        <time>2026-05-25T13:43:37.000Z</time>
        <extensions>
          <ns3:TrackPointExtension>
            <ns3:hr>107</ns3:hr>
            <ns3:cad>0</ns3:cad>
          </ns3:TrackPointExtension>
        </extensions>
      </trkpt>
      <trkpt lat="38.03625424392521381378173828125" lon="-106.9386372528970241546630859375">
        <ele>4033.199951171875</ele>
        <time>2026-05-25T13:43:40.000Z</time>
        <extensions>
          <ns3:TrackPointExtension>
            <ns3:hr>108</ns3:hr>
            <ns3:cad>0</ns3:cad>
          </ns3:TrackPointExtension>
        </extensions>
      </trkpt>
      <trkpt lat="38.0362392403185367584228515625" lon="-106.93862208165228366851806640625">
        <ele>4033.39990234375</ele>
        <time>2026-05-25T13:43:42.000Z</time>
        <extensions>
          <ns3:TrackPointExtension>
            <ns3:hr>108</ns3:hr>
            <ns3:cad>0</ns3:cad>
          </ns3:TrackPointExtension>
        </extensions>
      </trkpt>
      <trkpt lat="38.03622792474925518035888671875" lon="-106.93862057290971279144287109375">
        <ele>4033.800048828125</ele>
        <time>2026-05-25T13:43:44.000Z</time>
        <extensions>
          <ns3:TrackPointExtension>
            <ns3:hr>117</ns3:hr>
            <ns3:cad>0</ns3:cad>
          </ns3:TrackPointExtension>
        </extensions>
      </trkpt>
      <trkpt lat="38.03622792474925518035888671875" lon="-106.93862057290971279144287109375">
        <ele>4033.800048828125</ele>
        <time>2026-05-25T13:43:45.000Z</time>
        <extensions>
          <ns3:TrackPointExtension>
            <ns3:hr>123</ns3:hr>
            <ns3:cad>0</ns3:cad>
          </ns3:TrackPointExtension>
        </extensions>
      </trkpt>
      <trkpt lat="38.03620981983840465545654296875" lon="-106.93860255181789398193359375">
        <ele>4034</ele>
        <time>2026-05-25T13:43:47.000Z</time>
        <extensions>
          <ns3:TrackPointExtension>
            <ns3:hr>126</ns3:hr>
            <ns3:cad>0</ns3:cad>
          </ns3:TrackPointExtension>
        </extensions>
      </trkpt>
      <trkpt lat="38.03619791753590106964111328125" lon="-106.93859458900988101959228515625">
        <ele>4034.199951171875</ele>
        <time>2026-05-25T13:43:48.000Z</time>
        <extensions>
          <ns3:TrackPointExtension>
            <ns3:hr>126</ns3:hr>
            <ns3:cad>0</ns3:cad>
          </ns3:TrackPointExtension>
        </extensions>
      </trkpt>
      <trkpt lat="38.03618266247212886810302734375" lon="-106.93859986960887908935546875">
        <ele>4034.199951171875</ele>
        <time>2026-05-25T13:43:50.000Z</time>
        <extensions>
          <ns3:TrackPointExtension>
            <ns3:hr>127</ns3:hr>
            <ns3:cad>0</ns3:cad>
          </ns3:TrackPointExtension>
        </extensions>
      </trkpt>
      <trkpt lat="38.03618601523339748382568359375" lon="-106.93860330618917942047119140625">
        <ele>4034</ele>
        <time>2026-05-25T13:43:52.000Z</time>
        <extensions>
          <ns3:TrackPointExtension>
            <ns3:hr>127</ns3:hr>
            <ns3:cad>0</ns3:cad>
          </ns3:TrackPointExtension>
        </extensions>
      </trkpt>
      <trkpt lat="38.03618266247212886810302734375" lon="-106.938594169914722442626953125">
        <ele>4034.199951171875</ele>
        <time>2026-05-25T13:43:53.000Z</time>
        <extensions>
          <ns3:TrackPointExtension>
            <ns3:hr>128</ns3:hr>
            <ns3:cad>0</ns3:cad>
          </ns3:TrackPointExtension>
        </extensions>
      </trkpt>
      <trkpt lat="38.03618199191987514495849609375" lon="-106.93859492428600788116455078125">
        <ele>4034.199951171875</ele>
        <time>2026-05-25T13:43:56.000Z</time>
        <extensions>
          <ns3:TrackPointExtension>
            <ns3:hr>125</ns3:hr>
            <ns3:cad>0</ns3:cad>
          </ns3:TrackPointExtension>
        </extensions>
      </trkpt>
      <trkpt lat="38.03618199191987514495849609375" lon="-106.93859492428600788116455078125">
        <ele>4034.39990234375</ele>
        <time>2026-05-25T13:43:58.000Z</time>
        <extensions>
          <ns3:TrackPointExtension>
            <ns3:hr>125</ns3:hr>
            <ns3:cad>0</ns3:cad>
          </ns3:TrackPointExtension>
        </extensions>
      </trkpt>
      <trkpt lat="38.03618199191987514495849609375" lon="-106.93859492428600788116455078125">
        <ele>4034.199951171875</ele>
        <time>2026-05-25T13:44:00.000Z</time>
        <extensions>
          <ns3:TrackPointExtension>
            <ns3:hr>122</ns3:hr>
            <ns3:cad>0</ns3:cad>
          </ns3:TrackPointExtension>
        </extensions>
      </trkpt>
      <trkpt lat="38.03618199191987514495849609375" lon="-106.93859492428600788116455078125">
        <ele>4034</ele>
        <time>2026-05-25T13:44:03.000Z</time>
        <extensions>
          <ns3:TrackPointExtension>
            <ns3:hr>119</ns3:hr>
            <ns3:cad>0</ns3:cad>
          </ns3:TrackPointExtension>
        </extensions>
      </trkpt>
      <trkpt lat="38.03618199191987514495849609375" lon="-106.93859492428600788116455078125">
        <ele>4034</ele>
        <time>2026-05-25T13:44:06.000Z</time>
        <extensions>
          <ns3:TrackPointExtension>
            <ns3:hr>116</ns3:hr>
            <ns3:cad>0</ns3:cad>
          </ns3:TrackPointExtension>
        </extensions>
      </trkpt>
      <trkpt lat="38.03618199191987514495849609375" lon="-106.93859492428600788116455078125">
        <ele>4033.800048828125</ele>
        <time>2026-05-25T13:44:10.000Z</time>
        <extensions>
          <ns3:TrackPointExtension>
            <ns3:hr>114</ns3:hr>
            <ns3:cad>0</ns3:cad>
          </ns3:TrackPointExtension>
        </extensions>
      </trkpt>
      <trkpt lat="38.03618199191987514495849609375" lon="-106.93859492428600788116455078125">
        <ele>4033.800048828125</ele>
        <time>2026-05-25T13:44:16.000Z</time>
        <extensions>
          <ns3:TrackPointExtension>
            <ns3:hr>113</ns3:hr>
            <ns3:cad>0</ns3:cad>
          </ns3:TrackPointExtension>
        </extensions>
      </trkpt>
      <trkpt lat="38.03618199191987514495849609375" lon="-106.93859492428600788116455078125">
        <ele>4034.199951171875</ele>
        <time>2026-05-25T13:44:22.000Z</time>
        <extensions>
          <ns3:TrackPointExtension>
            <ns3:hr>112</ns3:hr>
            <ns3:cad>0</ns3:cad>
          </ns3:TrackPointExtension>
        </extensions>
      </trkpt>
      <trkpt lat="38.03618199191987514495849609375" lon="-106.93859492428600788116455078125">
        <ele>4034.39990234375</ele>
        <time>2026-05-25T13:44:25.000Z</time>
        <extensions>
          <ns3:TrackPointExtension>
            <ns3:hr>109</ns3:hr>
            <ns3:cad>0</ns3:cad>
          </ns3:TrackPointExtension>
        </extensions>
      </trkpt>
      <trkpt lat="38.03618199191987514495849609375" lon="-106.93859492428600788116455078125">
        <ele>4034.199951171875</ele>
        <time>2026-05-25T13:44:27.000Z</time>
        <extensions>
          <ns3:TrackPointExtension>
            <ns3:hr>106</ns3:hr>
            <ns3:cad>0</ns3:cad>
          </ns3:TrackPointExtension>
        </extensions>
      </trkpt>
      <trkpt lat="38.03618199191987514495849609375" lon="-106.93859492428600788116455078125">
        <ele>4034.199951171875</ele>
        <time>2026-05-25T13:44:33.000Z</time>
        <extensions>
          <ns3:TrackPointExtension>
            <ns3:hr>105</ns3:hr>
            <ns3:cad>0</ns3:cad>
          </ns3:TrackPointExtension>
        </extensions>
      </trkpt>
      <trkpt lat="38.03618199191987514495849609375" lon="-106.93859492428600788116455078125">
        <ele>4033.800048828125</ele>
        <time>2026-05-25T13:44:36.000Z</time>
        <extensions>
          <ns3:TrackPointExtension>
            <ns3:hr>104</ns3:hr>
            <ns3:cad>0</ns3:cad>
          </ns3:TrackPointExtension>
        </extensions>
      </trkpt>
      <trkpt lat="38.03618199191987514495849609375" lon="-106.93859492428600788116455078125">
        <ele>4034</ele>
        <time>2026-05-25T13:44:42.000Z</time>
        <extensions>
          <ns3:TrackPointExtension>
            <ns3:hr>105</ns3:hr>
            <ns3:cad>0</ns3:cad>
          </ns3:TrackPointExtension>
        </extensions>
      </trkpt>
      <trkpt lat="38.03618199191987514495849609375" lon="-106.93859492428600788116455078125">
        <ele>4033.60009765625</ele>
        <time>2026-05-25T13:44:48.000Z</time>
        <extensions>
          <ns3:TrackPointExtension>
            <ns3:hr>106</ns3:hr>
            <ns3:cad>0</ns3:cad>
          </ns3:TrackPointExtension>
        </extensions>
      </trkpt>
      <trkpt lat="38.03618199191987514495849609375" lon="-106.93859492428600788116455078125">
        <ele>4033.800048828125</ele>
        <time>2026-05-25T13:44:51.000Z</time>
        <extensions>
          <ns3:TrackPointExtension>
            <ns3:hr>110</ns3:hr>
            <ns3:cad>0</ns3:cad>
          </ns3:TrackPointExtension>
        </extensions>
      </trkpt>
      <trkpt lat="38.03616673685610294342041015625" lon="-106.9385614804923534393310546875">
        <ele>4033.800048828125</ele>
        <time>2026-05-25T13:44:56.000Z</time>
        <extensions>
          <ns3:TrackPointExtension>
            <ns3:hr>111</ns3:hr>
            <ns3:cad>0</ns3:cad>
          </ns3:TrackPointExtension>
        </extensions>
      </trkpt>
      <trkpt lat="38.0361024476587772369384765625" lon="-106.9385205768048763275146484375">
        <ele>4034.800048828125</ele>
        <time>2026-05-25T13:45:02.000Z</time>
        <extensions>
          <ns3:TrackPointExtension>
            <ns3:hr>112</ns3:hr>
            <ns3:cad>0</ns3:cad>
          </ns3:TrackPointExtension>
        </extensions>
      </trkpt>
      <trkpt lat="38.03608358837664127349853515625" lon="-106.93851160816848278045654296875">
        <ele>4034.60009765625</ele>
        <time>2026-05-25T13:45:04.000Z</time>
        <extensions>
          <ns3:TrackPointExtension>
            <ns3:hr>113</ns3:hr>
            <ns3:cad>0</ns3:cad>
          </ns3:TrackPointExtension>
        </extensions>
      </trkpt>
      <trkpt lat="38.0360598675906658172607421875" lon="-106.9384984485805034637451171875">
        <ele>4034.199951171875</ele>
        <time>2026-05-25T13:45:06.000Z</time>
        <extensions>
          <ns3:TrackPointExtension>
            <ns3:hr>117</ns3:hr>
            <ns3:cad>54</ns3:cad>
          </ns3:TrackPointExtension>
        </extensions>
      </trkpt>
      <trkpt lat="38.0360236577689647674560546875" lon="-106.93848461844027042388916015625">
        <ele>4034.199951171875</ele>
        <time>2026-05-25T13:45:10.000Z</time>
        <extensions>
          <ns3:TrackPointExtension>
            <ns3:hr>120</ns3:hr>
            <ns3:cad>0</ns3:cad>
          </ns3:TrackPointExtension>
        </extensions>
      </trkpt>
      <trkpt lat="38.03598149679601192474365234375" lon="-106.9384605623781681060791015625">
        <ele>4034.60009765625</ele>
        <time>2026-05-25T13:45:14.000Z</time>
        <extensions>
          <ns3:TrackPointExtension>
            <ns3:hr>119</ns3:hr>
            <ns3:cad>51</ns3:cad>
          </ns3:TrackPointExtension>
        </extensions>
      </trkpt>
      <trkpt lat="38.035963810980319976806640625" lon="-106.93843147717416286468505859375">
        <ele>4034.800048828125</ele>
        <time>2026-05-25T13:45:16.000Z</time>
        <extensions>
          <ns3:TrackPointExtension>
            <ns3:hr>116</ns3:hr>
            <ns3:cad>51</ns3:cad>
          </ns3:TrackPointExtension>
        </extensions>
      </trkpt>
      <trkpt lat="38.03594537079334259033203125" lon="-106.9383938424289226531982421875">
        <ele>4034.60009765625</ele>
        <time>2026-05-25T13:45:19.000Z</time>
        <extensions>
          <ns3:TrackPointExtension>
            <ns3:hr>113</ns3:hr>
            <ns3:cad>51</ns3:cad>
          </ns3:TrackPointExtension>
        </extensions>
      </trkpt>
      <trkpt lat="38.03593338467180728912353515625" lon="-106.9383730553090572357177734375">
        <ele>4034.199951171875</ele>
        <time>2026-05-25T13:45:21.000Z</time>
        <extensions>
          <ns3:TrackPointExtension>
            <ns3:hr>112</ns3:hr>
            <ns3:cad>0</ns3:cad>
          </ns3:TrackPointExtension>
        </extensions>
      </trkpt>
      <trkpt lat="38.03590354509651660919189453125" lon="-106.9383334927260875701904296875">
        <ele>4034.199951171875</ele>
        <time>2026-05-25T13:45:25.000Z</time>
        <extensions>
          <ns3:TrackPointExtension>
            <ns3:hr>109</ns3:hr>
            <ns3:cad>0</ns3:cad>
          </ns3:TrackPointExtension>
        </extensions>
      </trkpt>
      <trkpt lat="38.035884015262126922607421875" lon="-106.93831379525363445281982421875">
        <ele>4033.39990234375</ele>
        <time>2026-05-25T13:45:28.000Z</time>
        <extensions>
          <ns3:TrackPointExtension>
            <ns3:hr>104</ns3:hr>
            <ns3:cad>0</ns3:cad>
          </ns3:TrackPointExtension>
        </extensions>
      </trkpt>
      <trkpt lat="38.03586180321872234344482421875" lon="-106.93829552270472049713134765625">
        <ele>4033</ele>
        <time>2026-05-25T13:45:29.000Z</time>
        <extensions>
          <ns3:TrackPointExtension>
            <ns3:hr>104</ns3:hr>
            <ns3:cad>0</ns3:cad>
          </ns3:TrackPointExtension>
        </extensions>
      </trkpt>
      <trkpt lat="38.0358224920928478240966796875" lon="-106.93824305199086666107177734375">
        <ele>4033.199951171875</ele>
        <time>2026-05-25T13:45:34.000Z</time>
        <extensions>
          <ns3:TrackPointExtension>
            <ns3:hr>102</ns3:hr>
            <ns3:cad>0</ns3:cad>
          </ns3:TrackPointExtension>
        </extensions>
      </trkpt>
      <trkpt lat="38.03578737191855907440185546875" lon="-106.9381915032863616943359375">
        <ele>4032.800048828125</ele>
        <time>2026-05-25T13:45:38.000Z</time>
        <extensions>
          <ns3:TrackPointExtension>
            <ns3:hr>98</ns3:hr>
            <ns3:cad>0</ns3:cad>
          </ns3:TrackPointExtension>
        </extensions>
      </trkpt>
      <trkpt lat="38.03575015626847743988037109375" lon="-106.938176415860652923583984375">
        <ele>4032</ele>
        <time>2026-05-25T13:45:41.000Z</time>
        <extensions>
          <ns3:TrackPointExtension>
            <ns3:hr>96</ns3:hr>
            <ns3:cad>0</ns3:cad>
          </ns3:TrackPointExtension>
        </extensions>
      </trkpt>
      <trkpt lat="38.03573909215629100799560546875" lon="-106.93817205727100372314453125">
        <ele>4032</ele>
        <time>2026-05-25T13:45:42.000Z</time>
        <extensions>
          <ns3:TrackPointExtension>
            <ns3:hr>96</ns3:hr>
            <ns3:cad>55</ns3:cad>
          </ns3:TrackPointExtension>
        </extensions>
      </trkpt>
      <trkpt lat="38.03569299168884754180908203125" lon="-106.93814263679087162017822265625">
        <ele>4031.60009765625</ele>
        <time>2026-05-25T13:45:47.000Z</time>
        <extensions>
          <ns3:TrackPointExtension>
            <ns3:hr>99</ns3:hr>
            <ns3:cad>0</ns3:cad>
          </ns3:TrackPointExtension>
        </extensions>
      </trkpt>
      <trkpt lat="38.035678826272487640380859375" lon="-106.93813584744930267333984375">
        <ele>4031.39990234375</ele>
        <time>2026-05-25T13:45:49.000Z</time>
        <extensions>
          <ns3:TrackPointExtension>
            <ns3:hr>101</ns3:hr>
            <ns3:cad>0</ns3:cad>
          </ns3:TrackPointExtension>
        </extensions>
      </trkpt>
      <trkpt lat="38.03561135195195674896240234375" lon="-106.93813090212643146514892578125">
        <ele>4031.60009765625</ele>
        <time>2026-05-25T13:45:54.000Z</time>
        <extensions>
          <ns3:TrackPointExtension>
            <ns3:hr>103</ns3:hr>
            <ns3:cad>0</ns3:cad>
          </ns3:TrackPointExtension>
        </extensions>
      </trkpt>
      <trkpt lat="38.0355650000274181365966796875" lon="-106.93809234537184238433837890625">
        <ele>4032.39990234375</ele>
        <time>2026-05-25T13:46:00.000Z</time>
        <extensions>
          <ns3:TrackPointExtension>
            <ns3:hr>103</ns3:hr>
            <ns3:cad>0</ns3:cad>
          </ns3:TrackPointExtension>
        </extensions>
      </trkpt>
      <trkpt lat="38.03553641773760318756103515625" lon="-106.93807558156549930572509765625">
        <ele>4032.39990234375</ele>
        <time>2026-05-25T13:46:06.000Z</time>
        <extensions>
          <ns3:TrackPointExtension>
            <ns3:hr>104</ns3:hr>
            <ns3:cad>50</ns3:cad>
          </ns3:TrackPointExtension>
        </extensions>
      </trkpt>
      <trkpt lat="38.03553541190922260284423828125" lon="-106.93807541392743587493896484375">
        <ele>4033</ele>
        <time>2026-05-25T13:46:08.000Z</time>
        <extensions>
          <ns3:TrackPointExtension>
            <ns3:hr>104</ns3:hr>
            <ns3:cad>0</ns3:cad>
          </ns3:TrackPointExtension>
        </extensions>
      </trkpt>
      <trkpt lat="38.03547841496765613555908203125" lon="-106.9380401261150836944580078125">
        <ele>4032.199951171875</ele>
        <time>2026-05-25T13:46:14.000Z</time>
        <extensions>
          <ns3:TrackPointExtension>
            <ns3:hr>106</ns3:hr>
            <ns3:cad>47</ns3:cad>
          </ns3:TrackPointExtension>
        </extensions>
      </trkpt>
      <trkpt lat="38.035464920103549957275390625" lon="-106.93803233094513416290283203125">
        <ele>4032.199951171875</ele>
        <time>2026-05-25T13:46:15.000Z</time>
        <extensions>
          <ns3:TrackPointExtension>
            <ns3:hr>106</ns3:hr>
            <ns3:cad>47</ns3:cad>
          </ns3:TrackPointExtension>
        </extensions>
      </trkpt>
      <trkpt lat="38.0354141257703304290771484375" lon="-106.93798857741057872772216796875">
        <ele>4032</ele>
        <time>2026-05-25T13:46:21.000Z</time>
        <extensions>
          <ns3:TrackPointExtension>
            <ns3:hr>107</ns3:hr>
            <ns3:cad>0</ns3:cad>
          </ns3:TrackPointExtension>
        </extensions>
      </trkpt>
      <trkpt lat="38.03540716879069805145263671875" lon="-106.93797902204096317291259765625">
        <ele>4032</ele>
        <time>2026-05-25T13:46:22.000Z</time>
        <extensions>
          <ns3:TrackPointExtension>
            <ns3:hr>108</ns3:hr>
            <ns3:cad>0</ns3:cad>
          </ns3:TrackPointExtension>
        </extensions>
      </trkpt>
      <trkpt lat="38.035375736653804779052734375" lon="-106.93795689381659030914306640625">
        <ele>4031.39990234375</ele>
        <time>2026-05-25T13:46:25.000Z</time>
        <extensions>
          <ns3:TrackPointExtension>
            <ns3:hr>112</ns3:hr>
            <ns3:cad>0</ns3:cad>
          </ns3:TrackPointExtension>
        </extensions>
      </trkpt>
      <trkpt lat="38.03536592982709407806396484375" lon="-106.9379542954266071319580078125">
        <ele>4031</ele>
        <time>2026-05-25T13:46:26.000Z</time>
        <extensions>
          <ns3:TrackPointExtension>
            <ns3:hr>112</ns3:hr>
            <ns3:cad>0</ns3:cad>
          </ns3:TrackPointExtension>
        </extensions>
      </trkpt>
      <trkpt lat="38.0353344976902008056640625" lon="-106.9379378668963909149169921875">
        <ele>4030</ele>
        <time>2026-05-25T13:46:29.000Z</time>
        <extensions>
          <ns3:TrackPointExtension>
            <ns3:hr>112</ns3:hr>
            <ns3:cad>0</ns3:cad>
          </ns3:TrackPointExtension>
        </extensions>
      </trkpt>
      <trkpt lat="38.03528487682342529296875" lon="-106.93788983859121799468994140625">
        <ele>4030.39990234375</ele>
        <time>2026-05-25T13:46:35.000Z</time>
        <extensions>
          <ns3:TrackPointExtension>
            <ns3:hr>112</ns3:hr>
            <ns3:cad>55</ns3:cad>
          </ns3:TrackPointExtension>
        </extensions>
      </trkpt>
      <trkpt lat="38.03524036891758441925048828125" lon="-106.93788967095315456390380859375">
        <ele>4031</ele>
        <time>2026-05-25T13:46:38.000Z</time>
        <extensions>
          <ns3:TrackPointExtension>
            <ns3:hr>112</ns3:hr>
            <ns3:cad>50</ns3:cad>
          </ns3:TrackPointExtension>
        </extensions>
      </trkpt>
      <trkpt lat="38.035212121903896331787109375" lon="-106.93787693046033382415771484375">
        <ele>4031.39990234375</ele>
        <time>2026-05-25T13:46:41.000Z</time>
        <extensions>
          <ns3:TrackPointExtension>
            <ns3:hr>112</ns3:hr>
            <ns3:cad>50</ns3:cad>
          </ns3:TrackPointExtension>
        </extensions>
      </trkpt>
      <trkpt lat="38.03515286184847354888916015625" lon="-106.93787056021392345428466796875">
        <ele>4031.39990234375</ele>
        <time>2026-05-25T13:46:46.000Z</time>
        <extensions>
          <ns3:TrackPointExtension>
            <ns3:hr>109</ns3:hr>
            <ns3:cad>50</ns3:cad>
          </ns3:TrackPointExtension>
        </extensions>
      </trkpt>
      <trkpt lat="38.03514481522142887115478515625" lon="-106.93786804564297199249267578125">
        <ele>4031.39990234375</ele>
        <time>2026-05-25T13:46:47.000Z</time>
        <extensions>
          <ns3:TrackPointExtension>
            <ns3:hr>106</ns3:hr>
            <ns3:cad>50</ns3:cad>
          </ns3:TrackPointExtension>
        </extensions>
      </trkpt>
      <trkpt lat="38.03513266146183013916015625" lon="-106.9378654472529888153076171875">
        <ele>4031.39990234375</ele>
        <time>2026-05-25T13:46:48.000Z</time>
        <extensions>
          <ns3:TrackPointExtension>
            <ns3:hr>104</ns3:hr>
            <ns3:cad>0</ns3:cad>
          </ns3:TrackPointExtension>
        </extensions>
      </trkpt>
      <trkpt lat="38.03511313162744045257568359375" lon="-106.93785295821726322174072265625">
        <ele>4031.60009765625</ele>
        <time>2026-05-25T13:46:50.000Z</time>
        <extensions>
          <ns3:TrackPointExtension>
            <ns3:hr>101</ns3:hr>
            <ns3:cad>0</ns3:cad>
          </ns3:TrackPointExtension>
        </extensions>
      </trkpt>
      <trkpt lat="38.0350681208074092864990234375" lon="-106.93784507922828197479248046875">
        <ele>4032</ele>
        <time>2026-05-25T13:46:54.000Z</time>
        <extensions>
          <ns3:TrackPointExtension>
            <ns3:hr>103</ns3:hr>
            <ns3:cad>52</ns3:cad>
          </ns3:TrackPointExtension>
        </extensions>
      </trkpt>
      <trkpt lat="38.03505999036133289337158203125" lon="-106.93783946335315704345703125">
        <ele>4032</ele>
        <time>2026-05-25T13:46:55.000Z</time>
        <extensions>
          <ns3:TrackPointExtension>
            <ns3:hr>103</ns3:hr>
            <ns3:cad>52</ns3:cad>
          </ns3:TrackPointExtension>
        </extensions>
      </trkpt>
      <trkpt lat="38.03500450216233730316162109375" lon="-106.93780585192143917083740234375">
        <ele>4032.800048828125</ele>
        <time>2026-05-25T13:47:01.000Z</time>
        <extensions>
          <ns3:TrackPointExtension>
            <ns3:hr>103</ns3:hr>
            <ns3:cad>52</ns3:cad>
          </ns3:TrackPointExtension>
        </extensions>
      </trkpt>
      <trkpt lat="38.034988828003406524658203125" lon="-106.93781121633946895599365234375">
        <ele>4033.199951171875</ele>
        <time>2026-05-25T13:47:03.000Z</time>
        <extensions>
          <ns3:TrackPointExtension>
            <ns3:hr>103</ns3:hr>
            <ns3:cad>52</ns3:cad>
          </ns3:TrackPointExtension>
        </extensions>
      </trkpt>
      <trkpt lat="38.0349589884281158447265625" lon="-106.9378238730132579803466796875">
        <ele>4034.199951171875</ele>
        <time>2026-05-25T13:47:07.000Z</time>
        <extensions>
          <ns3:TrackPointExtension>
            <ns3:hr>103</ns3:hr>
            <ns3:cad>0</ns3:cad>
          </ns3:TrackPointExtension>
        </extensions>
      </trkpt>
      <trkpt lat="38.034931831061840057373046875" lon="-106.93782429210841655731201171875">
        <ele>4034.60009765625</ele>
        <time>2026-05-25T13:47:13.000Z</time>
        <extensions>
          <ns3:TrackPointExtension>
            <ns3:hr>102</ns3:hr>
            <ns3:cad>0</ns3:cad>
          </ns3:TrackPointExtension>
        </extensions>
      </trkpt>
      <trkpt lat="38.03491984494030475616455078125" lon="-106.93782496266067028045654296875">
        <ele>4035</ele>
        <time>2026-05-25T13:47:14.000Z</time>
        <extensions>
          <ns3:TrackPointExtension>
            <ns3:hr>102</ns3:hr>
            <ns3:cad>0</ns3:cad>
          </ns3:TrackPointExtension>
        </extensions>
      </trkpt>
      <trkpt lat="38.0349132232367992401123046875" lon="-106.93782395683228969573974609375">
        <ele>4035.39990234375</ele>
        <time>2026-05-25T13:47:15.000Z</time>
        <extensions>
          <ns3:TrackPointExtension>
            <ns3:hr>102</ns3:hr>
            <ns3:cad>0</ns3:cad>
          </ns3:TrackPointExtension>
        </extensions>
      </trkpt>
      <trkpt lat="38.0349021591246128082275390625" lon="-106.9378252141177654266357421875">
        <ele>4036.39990234375</ele>
        <time>2026-05-25T13:47:17.000Z</time>
        <extensions>
          <ns3:TrackPointExtension>
            <ns3:hr>103</ns3:hr>
            <ns3:cad>0</ns3:cad>
          </ns3:TrackPointExtension>
        </extensions>
      </trkpt>
      <trkpt lat="38.03488447330892086029052734375" lon="-106.9378195144236087799072265625">
        <ele>4037.199951171875</ele>
        <time>2026-05-25T13:47:20.000Z</time>
        <extensions>
          <ns3:TrackPointExtension>
            <ns3:hr>104</ns3:hr>
            <ns3:cad>0</ns3:cad>
          </ns3:TrackPointExtension>
        </extensions>
      </trkpt>
      <trkpt lat="38.0348317511379718780517578125" lon="-106.93781356327235698699951171875">
        <ele>4037.199951171875</ele>
        <time>2026-05-25T13:47:25.000Z</time>
        <extensions>
          <ns3:TrackPointExtension>
            <ns3:hr>105</ns3:hr>
            <ns3:cad>0</ns3:cad>
          </ns3:TrackPointExtension>
        </extensions>
      </trkpt>
      <trkpt lat="38.03482479415833950042724609375" lon="-106.9378010742366313934326171875">
        <ele>4037.39990234375</ele>
        <time>2026-05-25T13:47:27.000Z</time>
        <extensions>
          <ns3:TrackPointExtension>
            <ns3:hr>106</ns3:hr>
            <ns3:cad>0</ns3:cad>
          </ns3:TrackPointExtension>
        </extensions>
      </trkpt>
      <trkpt lat="38.03481347858905792236328125" lon="-106.93777819164097309112548828125">
        <ele>4037.60009765625</ele>
        <time>2026-05-25T13:47:28.000Z</time>
        <extensions>
          <ns3:TrackPointExtension>
            <ns3:hr>106</ns3:hr>
            <ns3:cad>0</ns3:cad>
          </ns3:TrackPointExtension>
        </extensions>
      </trkpt>
      <trkpt lat="38.03479445166885852813720703125" lon="-106.937750279903411865234375">
        <ele>4038</ele>
        <time>2026-05-25T13:47:31.000Z</time>
        <extensions>
          <ns3:TrackPointExtension>
            <ns3:hr>107</ns3:hr>
            <ns3:cad>0</ns3:cad>
          </ns3:TrackPointExtension>
        </extensions>
      </trkpt>
      <trkpt lat="38.03475790657103061676025390625" lon="-106.93767626769840717315673828125">
        <ele>4038.199951171875</ele>
        <time>2026-05-25T13:47:37.000Z</time>
        <extensions>
          <ns3:TrackPointExtension>
            <ns3:hr>109</ns3:hr>
            <ns3:cad>0</ns3:cad>
          </ns3:TrackPointExtension>
        </extensions>
      </trkpt>
      <trkpt lat="38.0347516201436519622802734375" lon="-106.9376679696142673492431640625">
        <ele>4038.199951171875</ele>
        <time>2026-05-25T13:47:38.000Z</time>
        <extensions>
          <ns3:TrackPointExtension>
            <ns3:hr>109</ns3:hr>
            <ns3:cad>0</ns3:cad>
          </ns3:TrackPointExtension>
        </extensions>
      </trkpt>
      <trkpt lat="38.03470895625650882720947265625" lon="-106.93762832321226596832275390625">
        <ele>4038.60009765625</ele>
        <time>2026-05-25T13:47:44.000Z</time>
        <extensions>
          <ns3:TrackPointExtension>
            <ns3:hr>110</ns3:hr>
            <ns3:cad>0</ns3:cad>
          </ns3:TrackPointExtension>
        </extensions>
      </trkpt>
      <trkpt lat="38.034691102802753448486328125" lon="-106.93760988302528858184814453125">
        <ele>4038.60009765625</ele>
        <time>2026-05-25T13:47:45.000Z</time>
        <extensions>
          <ns3:TrackPointExtension>
            <ns3:hr>110</ns3:hr>
            <ns3:cad>49</ns3:cad>
          </ns3:TrackPointExtension>
        </extensions>
      </trkpt>
      <trkpt lat="38.03463553078472614288330078125" lon="-106.9375546462833881378173828125">
        <ele>4038.199951171875</ele>
        <time>2026-05-25T13:47:51.000Z</time>
        <extensions>
          <ns3:TrackPointExtension>
            <ns3:hr>109</ns3:hr>
            <ns3:cad>49</ns3:cad>
          </ns3:TrackPointExtension>
        </extensions>
      </trkpt>
      <trkpt lat="38.0345888435840606689453125" lon="-106.937495134770870208740234375">
        <ele>4038.199951171875</ele>
        <time>2026-05-25T13:47:57.000Z</time>
        <extensions>
          <ns3:TrackPointExtension>
            <ns3:hr>108</ns3:hr>
            <ns3:cad>48</ns3:cad>
          </ns3:TrackPointExtension>
        </extensions>
      </trkpt>
      <trkpt lat="38.03454685024917125701904296875" lon="-106.9374359585344791412353515625">
        <ele>4038.39990234375</ele>
        <time>2026-05-25T13:48:03.000Z</time>
        <extensions>
          <ns3:TrackPointExtension>
            <ns3:hr>108</ns3:hr>
            <ns3:cad>48</ns3:cad>
          </ns3:TrackPointExtension>
        </extensions>
      </trkpt>
      <trkpt lat="38.03452639840543270111083984375" lon="-106.93741894327104091644287109375">
        <ele>4038.39990234375</ele>
        <time>2026-05-25T13:48:05.000Z</time>
        <extensions>
          <ns3:TrackPointExtension>
            <ns3:hr>107</ns3:hr>
            <ns3:cad>48</ns3:cad>
          </ns3:TrackPointExtension>
        </extensions>
      </trkpt>
      <trkpt lat="38.03448013029992580413818359375" lon="-106.9373534806072711944580078125">
        <ele>4038.60009765625</ele>
        <time>2026-05-25T13:48:11.000Z</time>
        <extensions>
          <ns3:TrackPointExtension>
            <ns3:hr>109</ns3:hr>
            <ns3:cad>53</ns3:cad>
          </ns3:TrackPointExtension>
        </extensions>
      </trkpt>
      <trkpt lat="38.03445129655301570892333984375" lon="-106.937317438423633575439453125">
        <ele>4037.60009765625</ele>
        <time>2026-05-25T13:48:14.000Z</time>
        <extensions>
          <ns3:TrackPointExtension>
            <ns3:hr>109</ns3:hr>
            <ns3:cad>53</ns3:cad>
          </ns3:TrackPointExtension>
        </extensions>
      </trkpt>
      <trkpt lat="38.034426905214786529541015625" lon="-106.93728902377188205718994140625">
        <ele>4036.60009765625</ele>
        <time>2026-05-25T13:48:18.000Z</time>
        <extensions>
          <ns3:TrackPointExtension>
            <ns3:hr>110</ns3:hr>
            <ns3:cad>53</ns3:cad>
          </ns3:TrackPointExtension>
        </extensions>
      </trkpt>
      <trkpt lat="38.034351132810115814208984375" lon="-106.93723730742931365966796875">
        <ele>4036</ele>
        <time>2026-05-25T13:48:24.000Z</time>
        <extensions>
          <ns3:TrackPointExtension>
            <ns3:hr>111</ns3:hr>
            <ns3:cad>53</ns3:cad>
          </ns3:TrackPointExtension>
        </extensions>
      </trkpt>
      <trkpt lat="38.034351132810115814208984375" lon="-106.93723730742931365966796875">
        <ele>4035.800048828125</ele>
        <time>2026-05-25T13:48:25.000Z</time>
        <extensions>
          <ns3:TrackPointExtension>
            <ns3:hr>111</ns3:hr>
            <ns3:cad>53</ns3:cad>
          </ns3:TrackPointExtension>
        </extensions>
      </trkpt>
      <trkpt lat="38.034336380660533905029296875" lon="-106.937217526137828826904296875">
        <ele>4035.60009765625</ele>
        <time>2026-05-25T13:48:26.000Z</time>
        <extensions>
          <ns3:TrackPointExtension>
            <ns3:hr>111</ns3:hr>
            <ns3:cad>53</ns3:cad>
          </ns3:TrackPointExtension>
        </extensions>
      </trkpt>
      <trkpt lat="38.0342852510511875152587890625" lon="-106.9371841661632061004638671875">
        <ele>4035.60009765625</ele>
        <time>2026-05-25T13:48:31.000Z</time>
        <extensions>
          <ns3:TrackPointExtension>
            <ns3:hr>109</ns3:hr>
            <ns3:cad>53</ns3:cad>
          </ns3:TrackPointExtension>
        </extensions>
      </trkpt>
      <trkpt lat="38.03421341814100742340087890625" lon="-106.93715038709342479705810546875">
        <ele>4035.39990234375</ele>
        <time>2026-05-25T13:48:37.000Z</time>
        <extensions>
          <ns3:TrackPointExtension>
            <ns3:hr>107</ns3:hr>
            <ns3:cad>56</ns3:cad>
          </ns3:TrackPointExtension>
        </extensions>
      </trkpt>
      <trkpt lat="38.03420436568558216094970703125" lon="-106.937144435942173004150390625">
        <ele>4035.199951171875</ele>
        <time>2026-05-25T13:48:38.000Z</time>
        <extensions>
          <ns3:TrackPointExtension>
            <ns3:hr>107</ns3:hr>
            <ns3:cad>56</ns3:cad>
          </ns3:TrackPointExtension>
        </extensions>
      </trkpt>
      <trkpt lat="38.03413680754601955413818359375" lon="-106.93711451254785060882568359375">
        <ele>4035.39990234375</ele>
        <time>2026-05-25T13:48:44.000Z</time>
        <extensions>
          <ns3:TrackPointExtension>
            <ns3:hr>109</ns3:hr>
            <ns3:cad>59</ns3:cad>
          </ns3:TrackPointExtension>
        </extensions>
      </trkpt>
      <trkpt lat="38.034078888595104217529296875" lon="-106.9370768778026103973388671875">
        <ele>4035.199951171875</ele>
        <time>2026-05-25T13:48:50.000Z</time>
        <extensions>
          <ns3:TrackPointExtension>
            <ns3:hr>108</ns3:hr>
            <ns3:cad>55</ns3:cad>
          </ns3:TrackPointExtension>
        </extensions>
      </trkpt>
      <trkpt lat="38.034078888595104217529296875" lon="-106.9370768778026103973388671875">
        <ele>4035</ele>
        <time>2026-05-25T13:48:51.000Z</time>
        <extensions>
          <ns3:TrackPointExtension>
            <ns3:hr>104</ns3:hr>
            <ns3:cad>55</ns3:cad>
          </ns3:TrackPointExtension>
        </extensions>
      </trkpt>
      <trkpt lat="38.03407226689159870147705078125" lon="-106.93706966936588287353515625">
        <ele>4034.800048828125</ele>
        <time>2026-05-25T13:48:52.000Z</time>
        <extensions>
          <ns3:TrackPointExtension>
            <ns3:hr>100</ns3:hr>
            <ns3:cad>55</ns3:cad>
          </ns3:TrackPointExtension>
        </extensions>
      </trkpt>
      <trkpt lat="38.034045696258544921875" lon="-106.93705667741596698760986328125">
        <ele>4034.39990234375</ele>
        <time>2026-05-25T13:48:54.000Z</time>
        <extensions>
          <ns3:TrackPointExtension>
            <ns3:hr>97</ns3:hr>
            <ns3:cad>55</ns3:cad>
          </ns3:TrackPointExtension>
        </extensions>
      </trkpt>
      <trkpt lat="38.03401811979711055755615234375" lon="-106.93702851422131061553955078125">
        <ele>4034</ele>
        <time>2026-05-25T13:48:58.000Z</time>
        <extensions>
          <ns3:TrackPointExtension>
            <ns3:hr>96</ns3:hr>
            <ns3:cad>53</ns3:cad>
          </ns3:TrackPointExtension>
        </extensions>
      </trkpt>
      <trkpt lat="38.0340173654258251190185546875" lon="-106.93701677955687046051025390625">
        <ele>4034</ele>
        <time>2026-05-25T13:48:59.000Z</time>
        <extensions>
          <ns3:TrackPointExtension>
            <ns3:hr>96</ns3:hr>
            <ns3:cad>55</ns3:cad>
          </ns3:TrackPointExtension>
        </extensions>
      </trkpt>
      <trkpt lat="38.03401811979711055755615234375" lon="-106.936984173953533172607421875">
        <ele>4033.39990234375</ele>
        <time>2026-05-25T13:49:05.000Z</time>
        <extensions>
          <ns3:TrackPointExtension>
            <ns3:hr>95</ns3:hr>
            <ns3:cad>0</ns3:cad>
          </ns3:TrackPointExtension>
        </extensions>
      </trkpt>
      <trkpt lat="38.034009821712970733642578125" lon="-106.9369818270206451416015625">
        <ele>4033.199951171875</ele>
        <time>2026-05-25T13:49:06.000Z</time>
        <extensions>
          <ns3:TrackPointExtension>
            <ns3:hr>96</ns3:hr>
            <ns3:cad>0</ns3:cad>
          </ns3:TrackPointExtension>
        </extensions>
      </trkpt>
      <trkpt lat="38.03398207761347293853759765625" lon="-106.93696774542331695556640625">
        <ele>4032.199951171875</ele>
        <time>2026-05-25T13:49:10.000Z</time>
        <extensions>
          <ns3:TrackPointExtension>
            <ns3:hr>95</ns3:hr>
            <ns3:cad>0</ns3:cad>
          </ns3:TrackPointExtension>
        </extensions>
      </trkpt>
      <trkpt lat="38.0339754559099674224853515625" lon="-106.936964057385921478271484375">
        <ele>4032</ele>
        <time>2026-05-25T13:49:11.000Z</time>
        <extensions>
          <ns3:TrackPointExtension>
            <ns3:hr>96</ns3:hr>
            <ns3:cad>0</ns3:cad>
          </ns3:TrackPointExtension>
        </extensions>
      </trkpt>
      <trkpt lat="38.0339241586625576019287109375" lon="-106.93695056252181529998779296875">
        <ele>4031.800048828125</ele>
        <time>2026-05-25T13:49:16.000Z</time>
        <extensions>
          <ns3:TrackPointExtension>
            <ns3:hr>97</ns3:hr>
            <ns3:cad>0</ns3:cad>
          </ns3:TrackPointExtension>
        </extensions>
      </trkpt>
      <trkpt lat="38.033865652978420257568359375" lon="-106.93695274181663990020751953125">
        <ele>4031.800048828125</ele>
        <time>2026-05-25T13:49:22.000Z</time>
        <extensions>
          <ns3:TrackPointExtension>
            <ns3:hr>96</ns3:hr>
            <ns3:cad>0</ns3:cad>
          </ns3:TrackPointExtension>
        </extensions>
      </trkpt>
      <trkpt lat="38.03385618142783641815185546875" lon="-106.936953999102115631103515625">
        <ele>4031.800048828125</ele>
        <time>2026-05-25T13:49:23.000Z</time>
        <extensions>
          <ns3:TrackPointExtension>
            <ns3:hr>96</ns3:hr>
            <ns3:cad>0</ns3:cad>
          </ns3:TrackPointExtension>
        </extensions>
      </trkpt>
      <trkpt lat="38.0337699316442012786865234375" lon="-106.9369420967996120452880859375">
        <ele>4032</ele>
        <time>2026-05-25T13:49:29.000Z</time>
        <extensions>
          <ns3:TrackPointExtension>
            <ns3:hr>96</ns3:hr>
            <ns3:cad>0</ns3:cad>
          </ns3:TrackPointExtension>
        </extensions>
      </trkpt>
      <trkpt lat="38.0337139405310153961181640625" lon="-106.93693396635353565216064453125">
        <ele>4031.800048828125</ele>
        <time>2026-05-25T13:49:33.000Z</time>
        <extensions>
          <ns3:TrackPointExtension>
            <ns3:hr>99</ns3:hr>
            <ns3:cad>52</ns3:cad>
          </ns3:TrackPointExtension>
        </extensions>
      </trkpt>
      <trkpt lat="38.033683933317661285400390625" lon="-106.936927177011966705322265625">
        <ele>4032</ele>
        <time>2026-05-25T13:49:36.000Z</time>
        <extensions>
          <ns3:TrackPointExtension>
            <ns3:hr>100</ns3:hr>
            <ns3:cad>53</ns3:cad>
          </ns3:TrackPointExtension>
        </extensions>
      </trkpt>
      <trkpt lat="38.033618219196796417236328125" lon="-106.93692340515553951263427734375">
        <ele>4031.800048828125</ele>
        <time>2026-05-25T13:49:42.000Z</time>
        <extensions>
          <ns3:TrackPointExtension>
            <ns3:hr>100</ns3:hr>
            <ns3:cad>54</ns3:cad>
          </ns3:TrackPointExtension>
        </extensions>
      </trkpt>
      <trkpt lat="38.033547811210155487060546875" lon="-106.93692022003233432769775390625">
        <ele>4032.39990234375</ele>
        <time>2026-05-25T13:49:47.000Z</time>
        <extensions>
          <ns3:TrackPointExtension>
            <ns3:hr>103</ns3:hr>
            <ns3:cad>54</ns3:cad>
          </ns3:TrackPointExtension>
        </extensions>
      </trkpt>
      <trkpt lat="38.033501207828521728515625" lon="-106.9369300268590450286865234375">
        <ele>4033</ele>
        <time>2026-05-25T13:49:52.000Z</time>
        <extensions>
          <ns3:TrackPointExtension>
            <ns3:hr>104</ns3:hr>
            <ns3:cad>53</ns3:cad>
          </ns3:TrackPointExtension>
        </extensions>
      </trkpt>
      <trkpt lat="38.033475391566753387451171875" lon="-106.9369357265532016754150390625">
        <ele>4033.39990234375</ele>
        <time>2026-05-25T13:49:55.000Z</time>
        <extensions>
          <ns3:TrackPointExtension>
            <ns3:hr>104</ns3:hr>
            <ns3:cad>50</ns3:cad>
          </ns3:TrackPointExtension>
        </extensions>
      </trkpt>
      <trkpt lat="38.03344395942986011505126953125" lon="-106.93694184534251689910888671875">
        <ele>4033.800048828125</ele>
        <time>2026-05-25T13:49:57.000Z</time>
        <extensions>
          <ns3:TrackPointExtension>
            <ns3:hr>103</ns3:hr>
            <ns3:cad>50</ns3:cad>
          </ns3:TrackPointExtension>
        </extensions>
      </trkpt>
      <trkpt lat="38.0334121920168399810791015625" lon="-106.93693396635353565216064453125">
        <ele>4034.199951171875</ele>
        <time>2026-05-25T13:50:01.000Z</time>
        <extensions>
          <ns3:TrackPointExtension>
            <ns3:hr>106</ns3:hr>
            <ns3:cad>48</ns3:cad>
          </ns3:TrackPointExtension>
        </extensions>
      </trkpt>
      <trkpt lat="38.03340741433203220367431640625" lon="-106.9369360618293285369873046875">
        <ele>4034.39990234375</ele>
        <time>2026-05-25T13:50:02.000Z</time>
        <extensions>
          <ns3:TrackPointExtension>
            <ns3:hr>106</ns3:hr>
            <ns3:cad>0</ns3:cad>
          </ns3:TrackPointExtension>
        </extensions>
      </trkpt>
      <trkpt lat="38.0333883874118328094482421875" lon="-106.93693497218191623687744140625">
        <ele>4034.800048828125</ele>
        <time>2026-05-25T13:50:05.000Z</time>
        <extensions>
          <ns3:TrackPointExtension>
            <ns3:hr>106</ns3:hr>
            <ns3:cad>0</ns3:cad>
          </ns3:TrackPointExtension>
        </extensions>
      </trkpt>
      <trkpt lat="38.0333401076495647430419921875" lon="-106.936933211982250213623046875">
        <ele>4035.39990234375</ele>
        <time>2026-05-25T13:50:11.000Z</time>
        <extensions>
          <ns3:TrackPointExtension>
            <ns3:hr>108</ns3:hr>
            <ns3:cad>0</ns3:cad>
          </ns3:TrackPointExtension>
        </extensions>
      </trkpt>
      <trkpt lat="38.0332827754318714141845703125" lon="-106.936928518116474151611328125">
        <ele>4035.60009765625</ele>
        <time>2026-05-25T13:50:17.000Z</time>
        <extensions>
          <ns3:TrackPointExtension>
            <ns3:hr>108</ns3:hr>
            <ns3:cad>0</ns3:cad>
          </ns3:TrackPointExtension>
        </extensions>
      </trkpt>
      <trkpt lat="38.0332653410732746124267578125" lon="-106.9369323737919330596923828125">
        <ele>4035.60009765625</ele>
        <time>2026-05-25T13:50:18.000Z</time>
        <extensions>
          <ns3:TrackPointExtension>
            <ns3:hr>108</ns3:hr>
            <ns3:cad>0</ns3:cad>
          </ns3:TrackPointExtension>
        </extensions>
      </trkpt>
      <trkpt lat="38.033230639994144439697265625" lon="-106.9369521550834178924560546875">
        <ele>4036.39990234375</ele>
        <time>2026-05-25T13:50:24.000Z</time>
        <extensions>
          <ns3:TrackPointExtension>
            <ns3:hr>107</ns3:hr>
            <ns3:cad>0</ns3:cad>
          </ns3:TrackPointExtension>
        </extensions>
      </trkpt>
      <trkpt lat="38.03322116844356060028076171875" lon="-106.93695567548274993896484375">
        <ele>4036.60009765625</ele>
        <time>2026-05-25T13:50:25.000Z</time>
        <extensions>
          <ns3:TrackPointExtension>
            <ns3:hr>108</ns3:hr>
            <ns3:cad>0</ns3:cad>
          </ns3:TrackPointExtension>
        </extensions>
      </trkpt>
      <trkpt lat="38.0331768281757831573486328125" lon="-106.9369590282440185546875">
        <ele>4037.60009765625</ele>
        <time>2026-05-25T13:50:30.000Z</time>
        <extensions>
          <ns3:TrackPointExtension>
            <ns3:hr>111</ns3:hr>
            <ns3:cad>43</ns3:cad>
          </ns3:TrackPointExtension>
        </extensions>
      </trkpt>
      <trkpt lat="38.0331768281757831573486328125" lon="-106.9369590282440185546875">
        <ele>4037.60009765625</ele>
        <time>2026-05-25T13:50:31.000Z</time>
        <extensions>
          <ns3:TrackPointExtension>
            <ns3:hr>112</ns3:hr>
            <ns3:cad>43</ns3:cad>
          </ns3:TrackPointExtension>
        </extensions>
      </trkpt>
      <trkpt lat="38.03313684649765491485595703125" lon="-106.9369417615234851837158203125">
        <ele>4037.800048828125</ele>
        <time>2026-05-25T13:50:36.000Z</time>
        <extensions>
          <ns3:TrackPointExtension>
            <ns3:hr>116</ns3:hr>
            <ns3:cad>52</ns3:cad>
          </ns3:TrackPointExtension>
        </extensions>
      </trkpt>
      <trkpt lat="38.0331188254058361053466796875" lon="-106.9369404204189777374267578125">
        <ele>4037.800048828125</ele>
        <time>2026-05-25T13:50:39.000Z</time>
        <extensions>
          <ns3:TrackPointExtension>
            <ns3:hr>119</ns3:hr>
            <ns3:cad>0</ns3:cad>
          </ns3:TrackPointExtension>
        </extensions>
      </trkpt>
      <trkpt lat="38.03310415707528591156005859375" lon="-106.9369400851428508758544921875">
        <ele>4037.800048828125</ele>
        <time>2026-05-25T13:50:40.000Z</time>
        <extensions>
          <ns3:TrackPointExtension>
            <ns3:hr>119</ns3:hr>
            <ns3:cad>60</ns3:cad>
          </ns3:TrackPointExtension>
        </extensions>
      </trkpt>
      <trkpt lat="38.0330799333751201629638671875" lon="-106.93692642264068126678466796875">
        <ele>4038.199951171875</ele>
        <time>2026-05-25T13:50:44.000Z</time>
        <extensions>
          <ns3:TrackPointExtension>
            <ns3:hr>122</ns3:hr>
            <ns3:cad>60</ns3:cad>
          </ns3:TrackPointExtension>
        </extensions>
      </trkpt>
      <trkpt lat="38.03305931389331817626953125" lon="-106.93692659027874469757080078125">
        <ele>4038.199951171875</ele>
        <time>2026-05-25T13:50:47.000Z</time>
        <extensions>
          <ns3:TrackPointExtension>
            <ns3:hr>124</ns3:hr>
            <ns3:cad>0</ns3:cad>
          </ns3:TrackPointExtension>
        </extensions>
      </trkpt>
      <trkpt lat="38.03303726948797702789306640625" lon="-106.9369186274707317352294921875">
        <ele>4038.199951171875</ele>
        <time>2026-05-25T13:50:48.000Z</time>
        <extensions>
          <ns3:TrackPointExtension>
            <ns3:hr>127</ns3:hr>
            <ns3:cad>0</ns3:cad>
          </ns3:TrackPointExtension>
        </extensions>
      </trkpt>
      <trkpt lat="38.03302754648029804229736328125" lon="-106.93691653199493885040283203125">
        <ele>4038</ele>
        <time>2026-05-25T13:50:50.000Z</time>
        <extensions>
          <ns3:TrackPointExtension>
            <ns3:hr>130</ns3:hr>
            <ns3:cad>0</ns3:cad>
          </ns3:TrackPointExtension>
        </extensions>
      </trkpt>
      <trkpt lat="38.032995946705341339111328125" lon="-106.9369092397391796112060546875">
        <ele>4038.39990234375</ele>
        <time>2026-05-25T13:50:54.000Z</time>
        <extensions>
          <ns3:TrackPointExtension>
            <ns3:hr>129</ns3:hr>
            <ns3:cad>0</ns3:cad>
          </ns3:TrackPointExtension>
        </extensions>
      </trkpt>
      <trkpt lat="38.03298630751669406890869140625" lon="-106.9369094073772430419921875">
        <ele>4038.800048828125</ele>
        <time>2026-05-25T13:50:56.000Z</time>
        <extensions>
          <ns3:TrackPointExtension>
            <ns3:hr>129</ns3:hr>
            <ns3:cad>0</ns3:cad>
          </ns3:TrackPointExtension>
        </extensions>
      </trkpt>
      <trkpt lat="38.03294858895242214202880859375" lon="-106.93690647371113300323486328125">
        <ele>4039.199951171875</ele>
        <time>2026-05-25T13:51:00.000Z</time>
        <extensions>
          <ns3:TrackPointExtension>
            <ns3:hr>129</ns3:hr>
            <ns3:cad>0</ns3:cad>
          </ns3:TrackPointExtension>
        </extensions>
      </trkpt>
      <trkpt lat="38.03289947099983692169189453125" lon="-106.936894319951534271240234375">
        <ele>4039.60009765625</ele>
        <time>2026-05-25T13:51:06.000Z</time>
        <extensions>
          <ns3:TrackPointExtension>
            <ns3:hr>127</ns3:hr>
            <ns3:cad>0</ns3:cad>
          </ns3:TrackPointExtension>
        </extensions>
      </trkpt>
      <trkpt lat="38.0328915081918239593505859375" lon="-106.9368918053805828094482421875">
        <ele>4039.60009765625</ele>
        <time>2026-05-25T13:51:08.000Z</time>
        <extensions>
          <ns3:TrackPointExtension>
            <ns3:hr>126</ns3:hr>
            <ns3:cad>43</ns3:cad>
          </ns3:TrackPointExtension>
        </extensions>
      </trkpt>
      <trkpt lat="38.03283132612705230712890625" lon="-106.9369001872837543487548828125">
        <ele>4039.60009765625</ele>
        <time>2026-05-25T13:51:14.000Z</time>
        <extensions>
          <ns3:TrackPointExtension>
            <ns3:hr>123</ns3:hr>
            <ns3:cad>0</ns3:cad>
          </ns3:TrackPointExtension>
        </extensions>
      </trkpt>
      <trkpt lat="38.0328221060335636138916015625" lon="-106.9369042105972766876220703125">
        <ele>4039.800048828125</ele>
        <time>2026-05-25T13:51:16.000Z</time>
        <extensions>
          <ns3:TrackPointExtension>
            <ns3:hr>121</ns3:hr>
            <ns3:cad>0</ns3:cad>
          </ns3:TrackPointExtension>
        </extensions>
      </trkpt>
      <trkpt lat="38.03281263448297977447509765625" lon="-106.936906389892101287841796875">
        <ele>4040</ele>
        <time>2026-05-25T13:51:17.000Z</time>
        <extensions>
          <ns3:TrackPointExtension>
            <ns3:hr>121</ns3:hr>
            <ns3:cad>0</ns3:cad>
          </ns3:TrackPointExtension>
        </extensions>
      </trkpt>
      <trkpt lat="38.03278212435543537139892578125" lon="-106.9368911348283290863037109375">
        <ele>4041.199951171875</ele>
        <time>2026-05-25T13:51:21.000Z</time>
        <extensions>
          <ns3:TrackPointExtension>
            <ns3:hr>122</ns3:hr>
            <ns3:cad>0</ns3:cad>
          </ns3:TrackPointExtension>
        </extensions>
      </trkpt>
      <trkpt lat="38.0327728204429149627685546875" lon="-106.93688434548676013946533203125">
        <ele>4041.60009765625</ele>
        <time>2026-05-25T13:51:23.000Z</time>
        <extensions>
          <ns3:TrackPointExtension>
            <ns3:hr>124</ns3:hr>
            <ns3:cad>0</ns3:cad>
          </ns3:TrackPointExtension>
        </extensions>
      </trkpt>
      <trkpt lat="38.03274306468665599822998046875" lon="-106.9368884526193141937255859375">
        <ele>4042.199951171875</ele>
        <time>2026-05-25T13:51:28.000Z</time>
        <extensions>
          <ns3:TrackPointExtension>
            <ns3:hr>125</ns3:hr>
            <ns3:cad>0</ns3:cad>
          </ns3:TrackPointExtension>
        </extensions>
      </trkpt>
      <trkpt lat="38.032738454639911651611328125" lon="-106.9368852674961090087890625">
        <ele>4042.199951171875</ele>
        <time>2026-05-25T13:51:29.000Z</time>
        <extensions>
          <ns3:TrackPointExtension>
            <ns3:hr>125</ns3:hr>
            <ns3:cad>0</ns3:cad>
          </ns3:TrackPointExtension>
        </extensions>
      </trkpt>
      <trkpt lat="38.03269989788532257080078125" lon="-106.93690077401697635650634765625">
        <ele>4043.199951171875</ele>
        <time>2026-05-25T13:51:35.000Z</time>
        <extensions>
          <ns3:TrackPointExtension>
            <ns3:hr>126</ns3:hr>
            <ns3:cad>0</ns3:cad>
          </ns3:TrackPointExtension>
        </extensions>
      </trkpt>
      <trkpt lat="38.03269193507730960845947265625" lon="-106.93690203130245208740234375">
        <ele>4043.39990234375</ele>
        <time>2026-05-25T13:51:36.000Z</time>
        <extensions>
          <ns3:TrackPointExtension>
            <ns3:hr>126</ns3:hr>
            <ns3:cad>0</ns3:cad>
          </ns3:TrackPointExtension>
        </extensions>
      </trkpt>
      <trkpt lat="38.03265689872205257415771484375" lon="-106.93691016174852848052978515625">
        <ele>4044.39990234375</ele>
        <time>2026-05-25T13:51:41.000Z</time>
        <extensions>
          <ns3:TrackPointExtension>
            <ns3:hr>127</ns3:hr>
            <ns3:cad>57</ns3:cad>
          </ns3:TrackPointExtension>
        </extensions>
      </trkpt>
      <trkpt lat="38.032629489898681640625" lon="-106.93691410124301910400390625">
        <ele>4044.60009765625</ele>
        <time>2026-05-25T13:51:43.000Z</time>
        <extensions>
          <ns3:TrackPointExtension>
            <ns3:hr>127</ns3:hr>
            <ns3:cad>0</ns3:cad>
          </ns3:TrackPointExtension>
        </extensions>
      </trkpt>
      <trkpt lat="38.0325760133564472198486328125" lon="-106.93692072294652462005615234375">
        <ele>4045.39990234375</ele>
        <time>2026-05-25T13:51:48.000Z</time>
        <extensions>
          <ns3:TrackPointExtension>
            <ns3:hr>128</ns3:hr>
            <ns3:cad>0</ns3:cad>
          </ns3:TrackPointExtension>
        </extensions>
      </trkpt>
      <trkpt lat="38.0325619317591190338134765625" lon="-106.9369260035455226898193359375">
        <ele>4045.60009765625</ele>
        <time>2026-05-25T13:51:50.000Z</time>
        <extensions>
          <ns3:TrackPointExtension>
            <ns3:hr>129</ns3:hr>
            <ns3:cad>0</ns3:cad>
          </ns3:TrackPointExtension>
        </extensions>
      </trkpt>
      <trkpt lat="38.03252664394676685333251953125" lon="-106.936918795108795166015625">
        <ele>4046.60009765625</ele>
        <time>2026-05-25T13:51:55.000Z</time>
        <extensions>
          <ns3:TrackPointExtension>
            <ns3:hr>129</ns3:hr>
            <ns3:cad>0</ns3:cad>
          </ns3:TrackPointExtension>
        </extensions>
      </trkpt>
      <trkpt lat="38.032522536814212799072265625" lon="-106.93691678345203399658203125">
        <ele>4046.800048828125</ele>
        <time>2026-05-25T13:51:56.000Z</time>
        <extensions>
          <ns3:TrackPointExtension>
            <ns3:hr>129</ns3:hr>
            <ns3:cad>0</ns3:cad>
          </ns3:TrackPointExtension>
        </extensions>
      </trkpt>
      <trkpt lat="38.0324928648769855499267578125" lon="-106.9369172863662242889404296875">
        <ele>4047.199951171875</ele>
        <time>2026-05-25T13:52:00.000Z</time>
        <extensions>
          <ns3:TrackPointExtension>
            <ns3:hr>127</ns3:hr>
            <ns3:cad>0</ns3:cad>
          </ns3:TrackPointExtension>
        </extensions>
      </trkpt>
      <trkpt lat="38.03247014991939067840576171875" lon="-106.93691334687173366546630859375">
        <ele>4048</ele>
        <time>2026-05-25T13:52:03.000Z</time>
        <extensions>
          <ns3:TrackPointExtension>
            <ns3:hr>126</ns3:hr>
            <ns3:cad>0</ns3:cad>
          </ns3:TrackPointExtension>
        </extensions>
      </trkpt>
      <trkpt lat="38.0324563197791576385498046875" lon="-106.93691418506205081939697265625">
        <ele>4048.60009765625</ele>
        <time>2026-05-25T13:52:06.000Z</time>
        <extensions>
          <ns3:TrackPointExtension>
            <ns3:hr>125</ns3:hr>
            <ns3:cad>0</ns3:cad>
          </ns3:TrackPointExtension>
        </extensions>
      </trkpt>
      <trkpt lat="38.03240510635077953338623046875" lon="-106.93691267631947994232177734375">
        <ele>4048.60009765625</ele>
        <time>2026-05-25T13:52:11.000Z</time>
        <extensions>
          <ns3:TrackPointExtension>
            <ns3:hr>127</ns3:hr>
            <ns3:cad>0</ns3:cad>
          </ns3:TrackPointExtension>
        </extensions>
      </trkpt>
      <trkpt lat="38.03238146938383579254150390625" lon="-106.93692348897457122802734375">
        <ele>4049</ele>
        <time>2026-05-25T13:52:14.000Z</time>
        <extensions>
          <ns3:TrackPointExtension>
            <ns3:hr>126</ns3:hr>
            <ns3:cad>0</ns3:cad>
          </ns3:TrackPointExtension>
        </extensions>
      </trkpt>
      <trkpt lat="38.03234224207699298858642578125" lon="-106.93694117479026317596435546875">
        <ele>4049.39990234375</ele>
        <time>2026-05-25T13:52:19.000Z</time>
        <extensions>
          <ns3:TrackPointExtension>
            <ns3:hr>127</ns3:hr>
            <ns3:cad>0</ns3:cad>
          </ns3:TrackPointExtension>
        </extensions>
      </trkpt>
      <trkpt lat="38.03232933394610881805419921875" lon="-106.93694955669343471527099609375">
        <ele>4049.60009765625</ele>
        <time>2026-05-25T13:52:21.000Z</time>
        <extensions>
          <ns3:TrackPointExtension>
            <ns3:hr>130</ns3:hr>
            <ns3:cad>0</ns3:cad>
          </ns3:TrackPointExtension>
        </extensions>
      </trkpt>
      <trkpt lat="38.03230485878884792327880859375" lon="-106.93696246482431888580322265625">
        <ele>4050</ele>
        <time>2026-05-25T13:52:24.000Z</time>
        <extensions>
          <ns3:TrackPointExtension>
            <ns3:hr>131</ns3:hr>
            <ns3:cad>0</ns3:cad>
          </ns3:TrackPointExtension>
        </extensions>
      </trkpt>
      <trkpt lat="38.03230016492307186126708984375" lon="-106.93696481175720691680908203125">
        <ele>4050.199951171875</ele>
        <time>2026-05-25T13:52:25.000Z</time>
        <extensions>
          <ns3:TrackPointExtension>
            <ns3:hr>132</ns3:hr>
            <ns3:cad>0</ns3:cad>
          </ns3:TrackPointExtension>
        </extensions>
      </trkpt>
      <trkpt lat="38.032251633703708648681640625" lon="-106.93698828108608722686767578125">
        <ele>4050.800048828125</ele>
        <time>2026-05-25T13:52:31.000Z</time>
        <extensions>
          <ns3:TrackPointExtension>
            <ns3:hr>129</ns3:hr>
            <ns3:cad>55</ns3:cad>
          </ns3:TrackPointExtension>
        </extensions>
      </trkpt>
      <trkpt lat="38.032251633703708648681640625" lon="-106.93698828108608722686767578125">
        <ele>4050.800048828125</ele>
        <time>2026-05-25T13:52:32.000Z</time>
        <extensions>
          <ns3:TrackPointExtension>
            <ns3:hr>129</ns3:hr>
            <ns3:cad>0</ns3:cad>
          </ns3:TrackPointExtension>
        </extensions>
      </trkpt>
      <trkpt lat="38.03219036199152469635009765625" lon="-106.93699230439960956573486328125">
        <ele>4051</ele>
        <time>2026-05-25T13:52:38.000Z</time>
        <extensions>
          <ns3:TrackPointExtension>
            <ns3:hr>128</ns3:hr>
            <ns3:cad>0</ns3:cad>
          </ns3:TrackPointExtension>
        </extensions>
      </trkpt>
      <trkpt lat="38.032181896269321441650390625" lon="-106.93698962219059467315673828125">
        <ele>4051</ele>
        <time>2026-05-25T13:52:39.000Z</time>
        <extensions>
          <ns3:TrackPointExtension>
            <ns3:hr>128</ns3:hr>
            <ns3:cad>0</ns3:cad>
          </ns3:TrackPointExtension>
        </extensions>
      </trkpt>
      <trkpt lat="38.0321438424289226531982421875" lon="-106.93698878400027751922607421875">
        <ele>4051.199951171875</ele>
        <time>2026-05-25T13:52:44.000Z</time>
        <extensions>
          <ns3:TrackPointExtension>
            <ns3:hr>126</ns3:hr>
            <ns3:cad>0</ns3:cad>
          </ns3:TrackPointExtension>
        </extensions>
      </trkpt>
      <trkpt lat="38.0321324430406093597412109375" lon="-106.936989538371562957763671875">
        <ele>4050.800048828125</ele>
        <time>2026-05-25T13:52:46.000Z</time>
        <extensions>
          <ns3:TrackPointExtension>
            <ns3:hr>123</ns3:hr>
            <ns3:cad>0</ns3:cad>
          </ns3:TrackPointExtension>
        </extensions>
      </trkpt>
      <trkpt lat="38.0321059562265872955322265625" lon="-106.93700001575052738189697265625">
        <ele>4050.39990234375</ele>
        <time>2026-05-25T13:52:49.000Z</time>
        <extensions>
          <ns3:TrackPointExtension>
            <ns3:hr>120</ns3:hr>
            <ns3:cad>0</ns3:cad>
          </ns3:TrackPointExtension>
        </extensions>
      </trkpt>
      <trkpt lat="38.0320757813751697540283203125" lon="-106.9370111636817455291748046875">
        <ele>4050.199951171875</ele>
        <time>2026-05-25T13:52:51.000Z</time>
        <extensions>
          <ns3:TrackPointExtension>
            <ns3:hr>120</ns3:hr>
            <ns3:cad>0</ns3:cad>
          </ns3:TrackPointExtension>
        </extensions>
      </trkpt>
      <trkpt lat="38.03205214440822601318359375" lon="-106.93703572265803813934326171875">
        <ele>4050.199951171875</ele>
        <time>2026-05-25T13:52:55.000Z</time>
        <extensions>
          <ns3:TrackPointExtension>
            <ns3:hr>117</ns3:hr>
            <ns3:cad>0</ns3:cad>
          </ns3:TrackPointExtension>
        </extensions>
      </trkpt>
      <trkpt lat="38.03204116411507129669189453125" lon="-106.93704192526638507843017578125">
        <ele>4050.39990234375</ele>
        <time>2026-05-25T13:52:56.000Z</time>
        <extensions>
          <ns3:TrackPointExtension>
            <ns3:hr>117</ns3:hr>
            <ns3:cad>0</ns3:cad>
          </ns3:TrackPointExtension>
        </extensions>
      </trkpt>
      <trkpt lat="38.0319946445524692535400390625" lon="-106.9370765425264835357666015625">
        <ele>4050.39990234375</ele>
        <time>2026-05-25T13:53:02.000Z</time>
        <extensions>
          <ns3:TrackPointExtension>
            <ns3:hr>119</ns3:hr>
            <ns3:cad>43</ns3:cad>
          </ns3:TrackPointExtension>
        </extensions>
      </trkpt>
      <trkpt lat="38.03195700980722904205322265625" lon="-106.93709724582731723785400390625">
        <ele>4050</ele>
        <time>2026-05-25T13:53:07.000Z</time>
        <extensions>
          <ns3:TrackPointExtension>
            <ns3:hr>117</ns3:hr>
            <ns3:cad>0</ns3:cad>
          </ns3:TrackPointExtension>
        </extensions>
      </trkpt>
      <trkpt lat="38.0319366417825222015380859375" lon="-106.93709674291312694549560546875">
        <ele>4050</ele>
        <time>2026-05-25T13:53:08.000Z</time>
        <extensions>
          <ns3:TrackPointExtension>
            <ns3:hr>117</ns3:hr>
            <ns3:cad>0</ns3:cad>
          </ns3:TrackPointExtension>
        </extensions>
      </trkpt>
      <trkpt lat="38.031903617084026336669921875" lon="-106.93711920641362667083740234375">
        <ele>4049.60009765625</ele>
        <time>2026-05-25T13:53:12.000Z</time>
        <extensions>
          <ns3:TrackPointExtension>
            <ns3:hr>115</ns3:hr>
            <ns3:cad>0</ns3:cad>
          </ns3:TrackPointExtension>
        </extensions>
      </trkpt>
      <trkpt lat="38.03185927681624889373779296875" lon="-106.93714267574250698089599609375">
        <ele>4049.39990234375</ele>
        <time>2026-05-25T13:53:17.000Z</time>
        <extensions>
          <ns3:TrackPointExtension>
            <ns3:hr>112</ns3:hr>
            <ns3:cad>50</ns3:cad>
          </ns3:TrackPointExtension>
        </extensions>
      </trkpt>
      <trkpt lat="38.03184829652309417724609375" lon="-106.9371503032743930816650390625">
        <ele>4049.39990234375</ele>
        <time>2026-05-25T13:53:20.000Z</time>
        <extensions>
          <ns3:TrackPointExtension>
            <ns3:hr>112</ns3:hr>
            <ns3:cad>50</ns3:cad>
          </ns3:TrackPointExtension>
        </extensions>
      </trkpt>
      <trkpt lat="38.0318223126232624053955078125" lon="-106.93716865964233875274658203125">
        <ele>4048.800048828125</ele>
        <time>2026-05-25T13:53:22.000Z</time>
        <extensions>
          <ns3:TrackPointExtension>
            <ns3:hr>111</ns3:hr>
            <ns3:cad>57</ns3:cad>
          </ns3:TrackPointExtension>
        </extensions>
      </trkpt>
      <trkpt lat="38.03180999122560024261474609375" lon="-106.937173940241336822509765625">
        <ele>4048.39990234375</ele>
        <time>2026-05-25T13:53:25.000Z</time>
        <extensions>
          <ns3:TrackPointExtension>
            <ns3:hr>112</ns3:hr>
            <ns3:cad>0</ns3:cad>
          </ns3:TrackPointExtension>
        </extensions>
      </trkpt>
      <trkpt lat="38.03179867565631866455078125" lon="-106.93718173541128635406494140625">
        <ele>4048.199951171875</ele>
        <time>2026-05-25T13:53:27.000Z</time>
        <extensions>
          <ns3:TrackPointExtension>
            <ns3:hr>110</ns3:hr>
            <ns3:cad>0</ns3:cad>
          </ns3:TrackPointExtension>
        </extensions>
      </trkpt>
      <trkpt lat="38.03179222159087657928466796875" lon="-106.937185339629650115966796875">
        <ele>4048.199951171875</ele>
        <time>2026-05-25T13:53:29.000Z</time>
        <extensions>
          <ns3:TrackPointExtension>
            <ns3:hr>115</ns3:hr>
            <ns3:cad>0</ns3:cad>
          </ns3:TrackPointExtension>
        </extensions>
      </trkpt>
      <trkpt lat="38.03177654743194580078125" lon="-106.93720436654984951019287109375">
        <ele>4048.199951171875</ele>
        <time>2026-05-25T13:53:30.000Z</time>
        <extensions>
          <ns3:TrackPointExtension>
            <ns3:hr>127</ns3:hr>
            <ns3:cad>0</ns3:cad>
          </ns3:TrackPointExtension>
        </extensions>
      </trkpt>
      <trkpt lat="38.03174193017184734344482421875" lon="-106.937236301600933074951171875">
        <ele>4047.800048828125</ele>
        <time>2026-05-25T13:53:34.000Z</time>
        <extensions>
          <ns3:TrackPointExtension>
            <ns3:hr>128</ns3:hr>
            <ns3:cad>0</ns3:cad>
          </ns3:TrackPointExtension>
        </extensions>
      </trkpt>
      <trkpt lat="38.03173187188804149627685546875" lon="-106.9372498802840709686279296875">
        <ele>4047.60009765625</ele>
        <time>2026-05-25T13:53:35.000Z</time>
        <extensions>
          <ns3:TrackPointExtension>
            <ns3:hr>127</ns3:hr>
            <ns3:cad>0</ns3:cad>
          </ns3:TrackPointExtension>
        </extensions>
      </trkpt>
      <trkpt lat="38.0316908843815326690673828125" lon="-106.93729857914149761199951171875">
        <ele>4047.60009765625</ele>
        <time>2026-05-25T13:53:41.000Z</time>
        <extensions>
          <ns3:TrackPointExtension>
            <ns3:hr>128</ns3:hr>
            <ns3:cad>48</ns3:cad>
          </ns3:TrackPointExtension>
        </extensions>
      </trkpt>
      <trkpt lat="38.0316342227160930633544921875" lon="-106.93734769709408283233642578125">
        <ele>4047</ele>
        <time>2026-05-25T13:53:47.000Z</time>
        <extensions>
          <ns3:TrackPointExtension>
            <ns3:hr>126</ns3:hr>
            <ns3:cad>0</ns3:cad>
          </ns3:TrackPointExtension>
        </extensions>
      </trkpt>
      <trkpt lat="38.03161896765232086181640625" lon="-106.9373548217117786407470703125">
        <ele>4046.800048828125</ele>
        <time>2026-05-25T13:53:49.000Z</time>
        <extensions>
          <ns3:TrackPointExtension>
            <ns3:hr>126</ns3:hr>
            <ns3:cad>0</ns3:cad>
          </ns3:TrackPointExtension>
        </extensions>
      </trkpt>
      <trkpt lat="38.031565658748149871826171875" lon="-106.9373729266226291656494140625">
        <ele>4046.199951171875</ele>
        <time>2026-05-25T13:53:55.000Z</time>
        <extensions>
          <ns3:TrackPointExtension>
            <ns3:hr>125</ns3:hr>
            <ns3:cad>49</ns3:cad>
          </ns3:TrackPointExtension>
        </extensions>
      </trkpt>
      <trkpt lat="38.03155501373112201690673828125" lon="-106.93737334571778774261474609375">
        <ele>4046.199951171875</ele>
        <time>2026-05-25T13:53:57.000Z</time>
        <extensions>
          <ns3:TrackPointExtension>
            <ns3:hr>125</ns3:hr>
            <ns3:cad>49</ns3:cad>
          </ns3:TrackPointExtension>
        </extensions>
      </trkpt>
      <trkpt lat="38.03150354884564876556396484375" lon="-106.93738910369575023651123046875">
        <ele>4046.39990234375</ele>
        <time>2026-05-25T13:54:01.000Z</time>
        <extensions>
          <ns3:TrackPointExtension>
            <ns3:hr>122</ns3:hr>
            <ns3:cad>0</ns3:cad>
          </ns3:TrackPointExtension>
        </extensions>
      </trkpt>
      <trkpt lat="38.0314855277538299560546875" lon="-106.93740762770175933837890625">
        <ele>4046.39990234375</ele>
        <time>2026-05-25T13:54:03.000Z</time>
        <extensions>
          <ns3:TrackPointExtension>
            <ns3:hr>122</ns3:hr>
            <ns3:cad>0</ns3:cad>
          </ns3:TrackPointExtension>
        </extensions>
      </trkpt>
      <trkpt lat="38.0314479768276214599609375" lon="-106.93745599128305912017822265625">
        <ele>4046.800048828125</ele>
        <time>2026-05-25T13:54:09.000Z</time>
        <extensions>
          <ns3:TrackPointExtension>
            <ns3:hr>119</ns3:hr>
            <ns3:cad>45</ns3:cad>
          </ns3:TrackPointExtension>
        </extensions>
      </trkpt>
      <trkpt lat="38.0314367450773715972900390625" lon="-106.93746755830943584442138671875">
        <ele>4046.800048828125</ele>
        <time>2026-05-25T13:54:10.000Z</time>
        <extensions>
          <ns3:TrackPointExtension>
            <ns3:hr>119</ns3:hr>
            <ns3:cad>0</ns3:cad>
          </ns3:TrackPointExtension>
        </extensions>
      </trkpt>
      <trkpt lat="38.03140103816986083984375" lon="-106.937484405934810638427734375">
        <ele>4046.39990234375</ele>
        <time>2026-05-25T13:54:15.000Z</time>
        <extensions>
          <ns3:TrackPointExtension>
            <ns3:hr>116</ns3:hr>
            <ns3:cad>45</ns3:cad>
          </ns3:TrackPointExtension>
        </extensions>
      </trkpt>
      <trkpt lat="38.03139022551476955413818359375" lon="-106.93747828714549541473388671875">
        <ele>4046.39990234375</ele>
        <time>2026-05-25T13:54:16.000Z</time>
        <extensions>
          <ns3:TrackPointExtension>
            <ns3:hr>116</ns3:hr>
            <ns3:cad>0</ns3:cad>
          </ns3:TrackPointExtension>
        </extensions>
      </trkpt>
      <trkpt lat="38.0313767306506633758544921875" lon="-106.93747946061193943023681640625">
        <ele>4045.800048828125</ele>
        <time>2026-05-25T13:54:19.000Z</time>
        <extensions>
          <ns3:TrackPointExtension>
            <ns3:hr>115</ns3:hr>
            <ns3:cad>0</ns3:cad>
          </ns3:TrackPointExtension>
        </extensions>
      </trkpt>
      <trkpt lat="38.03132794797420501708984375" lon="-106.93749823607504367828369140625">
        <ele>4045.60009765625</ele>
        <time>2026-05-25T13:54:23.000Z</time>
        <extensions>
          <ns3:TrackPointExtension>
            <ns3:hr>114</ns3:hr>
            <ns3:cad>47</ns3:cad>
          </ns3:TrackPointExtension>
        </extensions>
      </trkpt>
      <trkpt lat="38.031264580786228179931640625" lon="-106.93750075064599514007568359375">
        <ele>4045.199951171875</ele>
        <time>2026-05-25T13:54:29.000Z</time>
        <extensions>
          <ns3:TrackPointExtension>
            <ns3:hr>113</ns3:hr>
            <ns3:cad>47</ns3:cad>
          </ns3:TrackPointExtension>
        </extensions>
      </trkpt>
      <trkpt lat="38.03125376813113689422607421875" lon="-106.937502510845661163330078125">
        <ele>4044.60009765625</ele>
        <time>2026-05-25T13:54:31.000Z</time>
        <extensions>
          <ns3:TrackPointExtension>
            <ns3:hr>115</ns3:hr>
            <ns3:cad>47</ns3:cad>
          </ns3:TrackPointExtension>
        </extensions>
      </trkpt>
      <trkpt lat="38.03119492717087268829345703125" lon="-106.93751265294849872589111328125">
        <ele>4043.60009765625</ele>
        <time>2026-05-25T13:54:37.000Z</time>
        <extensions>
          <ns3:TrackPointExtension>
            <ns3:hr>116</ns3:hr>
            <ns3:cad>48</ns3:cad>
          </ns3:TrackPointExtension>
        </extensions>
      </trkpt>
      <trkpt lat="38.0311876349151134490966796875" lon="-106.93751416169106960296630859375">
        <ele>4043.39990234375</ele>
        <time>2026-05-25T13:54:38.000Z</time>
        <extensions>
          <ns3:TrackPointExtension>
            <ns3:hr>116</ns3:hr>
            <ns3:cad>48</ns3:cad>
          </ns3:TrackPointExtension>
        </extensions>
      </trkpt>
      <trkpt lat="38.03114111535251140594482421875" lon="-106.93752321414649486541748046875">
        <ele>4042.60009765625</ele>
        <time>2026-05-25T13:54:42.000Z</time>
        <extensions>
          <ns3:TrackPointExtension>
            <ns3:hr>119</ns3:hr>
            <ns3:cad>0</ns3:cad>
          </ns3:TrackPointExtension>
        </extensions>
      </trkpt>
      <trkpt lat="38.03113281726837158203125" lon="-106.9375288300216197967529296875">
        <ele>4042.39990234375</ele>
        <time>2026-05-25T13:54:43.000Z</time>
        <extensions>
          <ns3:TrackPointExtension>
            <ns3:hr>122</ns3:hr>
            <ns3:cad>0</ns3:cad>
          </ns3:TrackPointExtension>
        </extensions>
      </trkpt>
      <trkpt lat="38.03112049587070941925048828125" lon="-106.93753193132579326629638671875">
        <ele>4042.39990234375</ele>
        <time>2026-05-25T13:54:44.000Z</time>
        <extensions>
          <ns3:TrackPointExtension>
            <ns3:hr>124</ns3:hr>
            <ns3:cad>0</ns3:cad>
          </ns3:TrackPointExtension>
        </extensions>
      </trkpt>
      <trkpt lat="38.03108193911612033843994140625" lon="-106.93754182197153568267822265625">
        <ele>4042.39990234375</ele>
        <time>2026-05-25T13:54:49.000Z</time>
        <extensions>
          <ns3:TrackPointExtension>
            <ns3:hr>121</ns3:hr>
            <ns3:cad>0</ns3:cad>
          </ns3:TrackPointExtension>
        </extensions>
      </trkpt>
      <trkpt lat="38.03107556886970996856689453125" lon="-106.93754534237086772918701171875">
        <ele>4042.39990234375</ele>
        <time>2026-05-25T13:54:50.000Z</time>
        <extensions>
          <ns3:TrackPointExtension>
            <ns3:hr>120</ns3:hr>
            <ns3:cad>0</ns3:cad>
          </ns3:TrackPointExtension>
        </extensions>
      </trkpt>
      <trkpt lat="38.031012117862701416015625" lon="-106.93755783140659332275390625">
        <ele>4041.60009765625</ele>
        <time>2026-05-25T13:54:56.000Z</time>
        <extensions>
          <ns3:TrackPointExtension>
            <ns3:hr>119</ns3:hr>
            <ns3:cad>0</ns3:cad>
          </ns3:TrackPointExtension>
        </extensions>
      </trkpt>
      <trkpt lat="38.03100071847438812255859375" lon="-106.93755456246435642242431640625">
        <ele>4041.60009765625</ele>
        <time>2026-05-25T13:54:57.000Z</time>
        <extensions>
          <ns3:TrackPointExtension>
            <ns3:hr>120</ns3:hr>
            <ns3:cad>0</ns3:cad>
          </ns3:TrackPointExtension>
        </extensions>
      </trkpt>
      <trkpt lat="38.03098261356353759765625" lon="-106.93755959160625934600830078125">
        <ele>4041.39990234375</ele>
        <time>2026-05-25T13:54:59.000Z</time>
        <extensions>
          <ns3:TrackPointExtension>
            <ns3:hr>119</ns3:hr>
            <ns3:cad>0</ns3:cad>
          </ns3:TrackPointExtension>
        </extensions>
      </trkpt>
      <trkpt lat="38.03092695772647857666015625" lon="-106.93757032044231891632080078125">
        <ele>4041</ele>
        <time>2026-05-25T13:55:05.000Z</time>
        <extensions>
          <ns3:TrackPointExtension>
            <ns3:hr>117</ns3:hr>
            <ns3:cad>51</ns3:cad>
          </ns3:TrackPointExtension>
        </extensions>
      </trkpt>
      <trkpt lat="38.0308580584824085235595703125" lon="-106.93758356384932994842529296875">
        <ele>4040.39990234375</ele>
        <time>2026-05-25T13:55:11.000Z</time>
        <extensions>
          <ns3:TrackPointExtension>
            <ns3:hr>116</ns3:hr>
            <ns3:cad>53</ns3:cad>
          </ns3:TrackPointExtension>
        </extensions>
      </trkpt>
      <trkpt lat="38.03082830272614955902099609375" lon="-106.937591694295406341552734375">
        <ele>4040.39990234375</ele>
        <time>2026-05-25T13:55:13.000Z</time>
        <extensions>
          <ns3:TrackPointExtension>
            <ns3:hr>117</ns3:hr>
            <ns3:cad>53</ns3:cad>
          </ns3:TrackPointExtension>
        </extensions>
      </trkpt>
      <trkpt lat="38.0308174900710582733154296875" lon="-106.93759898655116558074951171875">
        <ele>4040.199951171875</ele>
        <time>2026-05-25T13:55:14.000Z</time>
        <extensions>
          <ns3:TrackPointExtension>
            <ns3:hr>117</ns3:hr>
            <ns3:cad>53</ns3:cad>
          </ns3:TrackPointExtension>
        </extensions>
      </trkpt>
      <trkpt lat="38.03076392970979213714599609375" lon="-106.9376200251281261444091796875">
        <ele>4039.60009765625</ele>
        <time>2026-05-25T13:55:19.000Z</time>
        <extensions>
          <ns3:TrackPointExtension>
            <ns3:hr>119</ns3:hr>
            <ns3:cad>0</ns3:cad>
          </ns3:TrackPointExtension>
        </extensions>
      </trkpt>
      <trkpt lat="38.0307450704276561737060546875" lon="-106.93763603456318378448486328125">
        <ele>4039.199951171875</ele>
        <time>2026-05-25T13:55:22.000Z</time>
        <extensions>
          <ns3:TrackPointExtension>
            <ns3:hr>121</ns3:hr>
            <ns3:cad>0</ns3:cad>
          </ns3:TrackPointExtension>
        </extensions>
      </trkpt>
      <trkpt lat="38.0307189188897609710693359375" lon="-106.93766319192945957183837890625">
        <ele>4039</ele>
        <time>2026-05-25T13:55:24.000Z</time>
        <extensions>
          <ns3:TrackPointExtension>
            <ns3:hr>122</ns3:hr>
            <ns3:cad>0</ns3:cad>
          </ns3:TrackPointExtension>
        </extensions>
      </trkpt>
      <trkpt lat="38.0306642688810825347900390625" lon="-106.93771063350141048431396484375">
        <ele>4039.60009765625</ele>
        <time>2026-05-25T13:55:30.000Z</time>
        <extensions>
          <ns3:TrackPointExtension>
            <ns3:hr>123</ns3:hr>
            <ns3:cad>52</ns3:cad>
          </ns3:TrackPointExtension>
        </extensions>
      </trkpt>
      <trkpt lat="38.0306642688810825347900390625" lon="-106.93771063350141048431396484375">
        <ele>4039.800048828125</ele>
        <time>2026-05-25T13:55:31.000Z</time>
        <extensions>
          <ns3:TrackPointExtension>
            <ns3:hr>123</ns3:hr>
            <ns3:cad>52</ns3:cad>
          </ns3:TrackPointExtension>
        </extensions>
      </trkpt>
      <trkpt lat="38.03063987754285335540771484375" lon="-106.93773242644965648651123046875">
        <ele>4040.39990234375</ele>
        <time>2026-05-25T13:55:34.000Z</time>
        <extensions>
          <ns3:TrackPointExtension>
            <ns3:hr>122</ns3:hr>
            <ns3:cad>0</ns3:cad>
          </ns3:TrackPointExtension>
        </extensions>
      </trkpt>
      <trkpt lat="38.03060081787407398223876953125" lon="-106.937748603522777557373046875">
        <ele>4041.199951171875</ele>
        <time>2026-05-25T13:55:39.000Z</time>
        <extensions>
          <ns3:TrackPointExtension>
            <ns3:hr>122</ns3:hr>
            <ns3:cad>0</ns3:cad>
          </ns3:TrackPointExtension>
        </extensions>
      </trkpt>
      <trkpt lat="38.03057382814586162567138671875" lon="-106.93776142783463001251220703125">
        <ele>4041.60009765625</ele>
        <time>2026-05-25T13:55:41.000Z</time>
        <extensions>
          <ns3:TrackPointExtension>
            <ns3:hr>122</ns3:hr>
            <ns3:cad>0</ns3:cad>
          </ns3:TrackPointExtension>
        </extensions>
      </trkpt>
      <trkpt lat="38.030543737113475799560546875" lon="-106.93777282722294330596923828125">
        <ele>4042.199951171875</ele>
        <time>2026-05-25T13:55:44.000Z</time>
        <extensions>
          <ns3:TrackPointExtension>
            <ns3:hr>122</ns3:hr>
            <ns3:cad>0</ns3:cad>
          </ns3:TrackPointExtension>
        </extensions>
      </trkpt>
      <trkpt lat="38.0305137299001216888427734375" lon="-106.93780459463596343994140625">
        <ele>4042.39990234375</ele>
        <time>2026-05-25T13:55:49.000Z</time>
        <extensions>
          <ns3:TrackPointExtension>
            <ns3:hr>121</ns3:hr>
            <ns3:cad>0</ns3:cad>
          </ns3:TrackPointExtension>
        </extensions>
      </trkpt>
      <trkpt lat="38.030500821769237518310546875" lon="-106.937809288501739501953125">
        <ele>4042.60009765625</ele>
        <time>2026-05-25T13:55:50.000Z</time>
        <extensions>
          <ns3:TrackPointExtension>
            <ns3:hr>120</ns3:hr>
            <ns3:cad>0</ns3:cad>
          </ns3:TrackPointExtension>
        </extensions>
      </trkpt>
      <trkpt lat="38.03045731969177722930908203125" lon="-106.93781909532845020294189453125">
        <ele>4042.800048828125</ele>
        <time>2026-05-25T13:55:55.000Z</time>
        <extensions>
          <ns3:TrackPointExtension>
            <ns3:hr>124</ns3:hr>
            <ns3:cad>0</ns3:cad>
          </ns3:TrackPointExtension>
        </extensions>
      </trkpt>
      <trkpt lat="38.03044843487441539764404296875" lon="-106.9378221966326236724853515625">
        <ele>4042.800048828125</ele>
        <time>2026-05-25T13:55:57.000Z</time>
        <extensions>
          <ns3:TrackPointExtension>
            <ns3:hr>121</ns3:hr>
            <ns3:cad>0</ns3:cad>
          </ns3:TrackPointExtension>
        </extensions>
      </trkpt>
      <trkpt lat="38.03041205741465091705322265625" lon="-106.9378359429538249969482421875">
        <ele>4042.39990234375</ele>
        <time>2026-05-25T13:56:02.000Z</time>
        <extensions>
          <ns3:TrackPointExtension>
            <ns3:hr>121</ns3:hr>
            <ns3:cad>0</ns3:cad>
          </ns3:TrackPointExtension>
        </extensions>
      </trkpt>
      <trkpt lat="38.03037442266941070556640625" lon="-106.93785664625465869903564453125">
        <ele>4042.800048828125</ele>
        <time>2026-05-25T13:56:08.000Z</time>
        <extensions>
          <ns3:TrackPointExtension>
            <ns3:hr>122</ns3:hr>
            <ns3:cad>0</ns3:cad>
          </ns3:TrackPointExtension>
        </extensions>
      </trkpt>
      <trkpt lat="38.03037442266941070556640625" lon="-106.93785664625465869903564453125">
        <ele>4042.800048828125</ele>
        <time>2026-05-25T13:56:09.000Z</time>
        <extensions>
          <ns3:TrackPointExtension>
            <ns3:hr>122</ns3:hr>
            <ns3:cad>0</ns3:cad>
          </ns3:TrackPointExtension>
        </extensions>
      </trkpt>
      <trkpt lat="38.0303253047168254852294921875" lon="-106.93786494433879852294921875">
        <ele>4043.800048828125</ele>
        <time>2026-05-25T13:56:15.000Z</time>
        <extensions>
          <ns3:TrackPointExtension>
            <ns3:hr>122</ns3:hr>
            <ns3:cad>0</ns3:cad>
          </ns3:TrackPointExtension>
        </extensions>
      </trkpt>
      <trkpt lat="38.03031097166240215301513671875" lon="-106.9378587417304515838623046875">
        <ele>4044.39990234375</ele>
        <time>2026-05-25T13:56:17.000Z</time>
        <extensions>
          <ns3:TrackPointExtension>
            <ns3:hr>120</ns3:hr>
            <ns3:cad>0</ns3:cad>
          </ns3:TrackPointExtension>
        </extensions>
      </trkpt>
      <trkpt lat="38.03029269911348819732666015625" lon="-106.937853209674358367919921875">
        <ele>4045</ele>
        <time>2026-05-25T13:56:19.000Z</time>
        <extensions>
          <ns3:TrackPointExtension>
            <ns3:hr>121</ns3:hr>
            <ns3:cad>0</ns3:cad>
          </ns3:TrackPointExtension>
        </extensions>
      </trkpt>
      <trkpt lat="38.03026990033686161041259765625" lon="-106.937850527465343475341796875">
        <ele>4045.39990234375</ele>
        <time>2026-05-25T13:56:23.000Z</time>
        <extensions>
          <ns3:TrackPointExtension>
            <ns3:hr>120</ns3:hr>
            <ns3:cad>64</ns3:cad>
          </ns3:TrackPointExtension>
        </extensions>
      </trkpt>
      <trkpt lat="38.03024567663669586181640625" lon="-106.937839798629283905029296875">
        <ele>4045.800048828125</ele>
        <time>2026-05-25T13:56:29.000Z</time>
        <extensions>
          <ns3:TrackPointExtension>
            <ns3:hr>122</ns3:hr>
            <ns3:cad>0</ns3:cad>
          </ns3:TrackPointExtension>
        </extensions>
      </trkpt>
      <trkpt lat="38.03024567663669586181640625" lon="-106.937839798629283905029296875">
        <ele>4045.800048828125</ele>
        <time>2026-05-25T13:56:30.000Z</time>
        <extensions>
          <ns3:TrackPointExtension>
            <ns3:hr>122</ns3:hr>
            <ns3:cad>0</ns3:cad>
          </ns3:TrackPointExtension>
        </extensions>
      </trkpt>
      <trkpt lat="38.0302300862967967987060546875" lon="-106.9378366135060787200927734375">
        <ele>4044.39990234375</ele>
        <time>2026-05-25T13:56:36.000Z</time>
        <extensions>
          <ns3:TrackPointExtension>
            <ns3:hr>122</ns3:hr>
            <ns3:cad>0</ns3:cad>
          </ns3:TrackPointExtension>
        </extensions>
      </trkpt>
      <trkpt lat="38.03022078238427639007568359375" lon="-106.9378349371254444122314453125">
        <ele>4044</ele>
        <time>2026-05-25T13:56:38.000Z</time>
        <extensions>
          <ns3:TrackPointExtension>
            <ns3:hr>122</ns3:hr>
            <ns3:cad>0</ns3:cad>
          </ns3:TrackPointExtension>
        </extensions>
      </trkpt>
      <trkpt lat="38.03019999526441097259521484375" lon="-106.9378158263862133026123046875">
        <ele>4044</ele>
        <time>2026-05-25T13:56:42.000Z</time>
        <extensions>
          <ns3:TrackPointExtension>
            <ns3:hr>122</ns3:hr>
            <ns3:cad>0</ns3:cad>
          </ns3:TrackPointExtension>
        </extensions>
      </trkpt>
      <trkpt lat="38.0301533080637454986572265625" lon="-106.93780727684497833251953125">
        <ele>4043.199951171875</ele>
        <time>2026-05-25T13:56:48.000Z</time>
        <extensions>
          <ns3:TrackPointExtension>
            <ns3:hr>123</ns3:hr>
            <ns3:cad>0</ns3:cad>
          </ns3:TrackPointExtension>
        </extensions>
      </trkpt>
      <trkpt lat="38.03009815514087677001953125" lon="-106.93780727684497833251953125">
        <ele>4043.39990234375</ele>
        <time>2026-05-25T13:56:53.000Z</time>
        <extensions>
          <ns3:TrackPointExtension>
            <ns3:hr>122</ns3:hr>
            <ns3:cad>0</ns3:cad>
          </ns3:TrackPointExtension>
        </extensions>
      </trkpt>
      <trkpt lat="38.03004157729446887969970703125" lon="-106.93779763765633106231689453125">
        <ele>4043.39990234375</ele>
        <time>2026-05-25T13:56:59.000Z</time>
        <extensions>
          <ns3:TrackPointExtension>
            <ns3:hr>121</ns3:hr>
            <ns3:cad>43</ns3:cad>
          </ns3:TrackPointExtension>
        </extensions>
      </trkpt>
      <trkpt lat="38.030033111572265625" lon="-106.937798894941806793212890625">
        <ele>4043.39990234375</ele>
        <time>2026-05-25T13:57:01.000Z</time>
        <extensions>
          <ns3:TrackPointExtension>
            <ns3:hr>120</ns3:hr>
            <ns3:cad>43</ns3:cad>
          </ns3:TrackPointExtension>
        </extensions>
      </trkpt>
      <trkpt lat="38.02996295504271984100341796875" lon="-106.93779462017118930816650390625">
        <ele>4043.199951171875</ele>
        <time>2026-05-25T13:57:07.000Z</time>
        <extensions>
          <ns3:TrackPointExtension>
            <ns3:hr>118</ns3:hr>
            <ns3:cad>0</ns3:cad>
          </ns3:TrackPointExtension>
        </extensions>
      </trkpt>
      <trkpt lat="38.02990637719631195068359375" lon="-106.9378014095127582550048828125">
        <ele>4043.199951171875</ele>
        <time>2026-05-25T13:57:13.000Z</time>
        <extensions>
          <ns3:TrackPointExtension>
            <ns3:hr>119</ns3:hr>
            <ns3:cad>49</ns3:cad>
          </ns3:TrackPointExtension>
        </extensions>
      </trkpt>
      <trkpt lat="38.02988382987678050994873046875" lon="-106.9378034211695194244384765625">
        <ele>4043</ele>
        <time>2026-05-25T13:57:18.000Z</time>
        <extensions>
          <ns3:TrackPointExtension>
            <ns3:hr>119</ns3:hr>
            <ns3:cad>0</ns3:cad>
          </ns3:TrackPointExtension>
        </extensions>
      </trkpt>
      <trkpt lat="38.02988382987678050994873046875" lon="-106.9378034211695194244384765625">
        <ele>4042.800048828125</ele>
        <time>2026-05-25T13:57:19.000Z</time>
        <extensions>
          <ns3:TrackPointExtension>
            <ns3:hr>119</ns3:hr>
            <ns3:cad>0</ns3:cad>
          </ns3:TrackPointExtension>
        </extensions>
      </trkpt>
      <trkpt lat="38.02988382987678050994873046875" lon="-106.9378034211695194244384765625">
        <ele>4043.199951171875</ele>
        <time>2026-05-25T13:57:24.000Z</time>
        <extensions>
          <ns3:TrackPointExtension>
            <ns3:hr>115</ns3:hr>
            <ns3:cad>0</ns3:cad>
          </ns3:TrackPointExtension>
        </extensions>
      </trkpt>
      <trkpt lat="38.02988382987678050994873046875" lon="-106.9378034211695194244384765625">
        <ele>4043.39990234375</ele>
        <time>2026-05-25T13:57:26.000Z</time>
        <extensions>
          <ns3:TrackPointExtension>
            <ns3:hr>112</ns3:hr>
            <ns3:cad>0</ns3:cad>
          </ns3:TrackPointExtension>
        </extensions>
      </trkpt>
      <trkpt lat="38.02988382987678050994873046875" lon="-106.9378034211695194244384765625">
        <ele>4042.60009765625</ele>
        <time>2026-05-25T13:57:31.000Z</time>
        <extensions>
          <ns3:TrackPointExtension>
            <ns3:hr>109</ns3:hr>
            <ns3:cad>0</ns3:cad>
          </ns3:TrackPointExtension>
        </extensions>
      </trkpt>
      <trkpt lat="38.02988382987678050994873046875" lon="-106.9378034211695194244384765625">
        <ele>4043</ele>
        <time>2026-05-25T13:57:37.000Z</time>
        <extensions>
          <ns3:TrackPointExtension>
            <ns3:hr>107</ns3:hr>
            <ns3:cad>0</ns3:cad>
          </ns3:TrackPointExtension>
        </extensions>
      </trkpt>
      <trkpt lat="38.02987645380198955535888671875" lon="-106.93779051303863525390625">
        <ele>4044</ele>
        <time>2026-05-25T13:57:40.000Z</time>
        <extensions>
          <ns3:TrackPointExtension>
            <ns3:hr>107</ns3:hr>
            <ns3:cad>45</ns3:cad>
          </ns3:TrackPointExtension>
        </extensions>
      </trkpt>
      <trkpt lat="38.02981962449848651885986328125" lon="-106.93777232430875301361083984375">
        <ele>4042.39990234375</ele>
        <time>2026-05-25T13:57:46.000Z</time>
        <extensions>
          <ns3:TrackPointExtension>
            <ns3:hr>108</ns3:hr>
            <ns3:cad>55</ns3:cad>
          </ns3:TrackPointExtension>
        </extensions>
      </trkpt>
      <trkpt lat="38.02980981767177581787109375" lon="-106.93777064792811870574951171875">
        <ele>4042.199951171875</ele>
        <time>2026-05-25T13:57:47.000Z</time>
        <extensions>
          <ns3:TrackPointExtension>
            <ns3:hr>108</ns3:hr>
            <ns3:cad>53</ns3:cad>
          </ns3:TrackPointExtension>
        </extensions>
      </trkpt>
      <trkpt lat="38.02975525148212909698486328125" lon="-106.93778288550674915313720703125">
        <ele>4041.39990234375</ele>
        <time>2026-05-25T13:57:52.000Z</time>
        <extensions>
          <ns3:TrackPointExtension>
            <ns3:hr>108</ns3:hr>
            <ns3:cad>50</ns3:cad>
          </ns3:TrackPointExtension>
        </extensions>
      </trkpt>
      <trkpt lat="38.02974435500800609588623046875" lon="-106.93778389133512973785400390625">
        <ele>4041.39990234375</ele>
        <time>2026-05-25T13:57:53.000Z</time>
        <extensions>
          <ns3:TrackPointExtension>
            <ns3:hr>108</ns3:hr>
            <ns3:cad>50</ns3:cad>
          </ns3:TrackPointExtension>
        </extensions>
      </trkpt>
      <trkpt lat="38.02973412908613681793212890625" lon="-106.9377843104302883148193359375">
        <ele>4041.39990234375</ele>
        <time>2026-05-25T13:57:55.000Z</time>
        <extensions>
          <ns3:TrackPointExtension>
            <ns3:hr>105</ns3:hr>
            <ns3:cad>50</ns3:cad>
          </ns3:TrackPointExtension>
        </extensions>
      </trkpt>
      <trkpt lat="38.02965852431952953338623046875" lon="-106.93777366541326045989990234375">
        <ele>4041.199951171875</ele>
        <time>2026-05-25T13:58:01.000Z</time>
        <extensions>
          <ns3:TrackPointExtension>
            <ns3:hr>108</ns3:hr>
            <ns3:cad>66</ns3:cad>
          </ns3:TrackPointExtension>
        </extensions>
      </trkpt>
      <trkpt lat="38.0296482145786285400390625" lon="-106.937771737575531005859375">
        <ele>4041.199951171875</ele>
        <time>2026-05-25T13:58:02.000Z</time>
        <extensions>
          <ns3:TrackPointExtension>
            <ns3:hr>112</ns3:hr>
            <ns3:cad>66</ns3:cad>
          </ns3:TrackPointExtension>
        </extensions>
      </trkpt>
      <trkpt lat="38.02961091510951519012451171875" lon="-106.9377638585865497589111328125">
        <ele>4040.60009765625</ele>
        <time>2026-05-25T13:58:05.000Z</time>
        <extensions>
          <ns3:TrackPointExtension>
            <ns3:hr>115</ns3:hr>
            <ns3:cad>0</ns3:cad>
          </ns3:TrackPointExtension>
        </extensions>
      </trkpt>
      <trkpt lat="38.0295903794467449188232421875" lon="-106.93775765597820281982421875">
        <ele>4040.39990234375</ele>
        <time>2026-05-25T13:58:07.000Z</time>
        <extensions>
          <ns3:TrackPointExtension>
            <ns3:hr>115</ns3:hr>
            <ns3:cad>0</ns3:cad>
          </ns3:TrackPointExtension>
        </extensions>
      </trkpt>
      <trkpt lat="38.029547631740570068359375" lon="-106.9377497769892215728759765625">
        <ele>4040</ele>
        <time>2026-05-25T13:58:11.000Z</time>
        <extensions>
          <ns3:TrackPointExtension>
            <ns3:hr>114</ns3:hr>
            <ns3:cad>51</ns3:cad>
          </ns3:TrackPointExtension>
        </extensions>
      </trkpt>
      <trkpt lat="38.029477559030055999755859375" lon="-106.9377435743808746337890625">
        <ele>4039.60009765625</ele>
        <time>2026-05-25T13:58:17.000Z</time>
        <extensions>
          <ns3:TrackPointExtension>
            <ns3:hr>112</ns3:hr>
            <ns3:cad>50</ns3:cad>
          </ns3:TrackPointExtension>
        </extensions>
      </trkpt>
      <trkpt lat="38.0294120125472545623779296875" lon="-106.93773393519222736358642578125">
        <ele>4039.60009765625</ele>
        <time>2026-05-25T13:58:23.000Z</time>
        <extensions>
          <ns3:TrackPointExtension>
            <ns3:hr>111</ns3:hr>
            <ns3:cad>52</ns3:cad>
          </ns3:TrackPointExtension>
        </extensions>
      </trkpt>
      <trkpt lat="38.0293987691402435302734375" lon="-106.93773309700191020965576171875">
        <ele>4039.199951171875</ele>
        <time>2026-05-25T13:58:24.000Z</time>
        <extensions>
          <ns3:TrackPointExtension>
            <ns3:hr>111</ns3:hr>
            <ns3:cad>52</ns3:cad>
          </ns3:TrackPointExtension>
        </extensions>
      </trkpt>
      <trkpt lat="38.0293987691402435302734375" lon="-106.93773309700191020965576171875">
        <ele>4039.199951171875</ele>
        <time>2026-05-25T13:58:25.000Z</time>
        <extensions>
          <ns3:TrackPointExtension>
            <ns3:hr>111</ns3:hr>
            <ns3:cad>53</ns3:cad>
          </ns3:TrackPointExtension>
        </extensions>
      </trkpt>
      <trkpt lat="38.02931302227079868316650390625" lon="-106.93771063350141048431396484375">
        <ele>4039.39990234375</ele>
        <time>2026-05-25T13:58:31.000Z</time>
        <extensions>
          <ns3:TrackPointExtension>
            <ns3:hr>114</ns3:hr>
            <ns3:cad>0</ns3:cad>
          </ns3:TrackPointExtension>
        </extensions>
      </trkpt>
      <trkpt lat="38.02925325930118560791015625" lon="-106.937697641551494598388671875">
        <ele>4039.39990234375</ele>
        <time>2026-05-25T13:58:37.000Z</time>
        <extensions>
          <ns3:TrackPointExtension>
            <ns3:hr>116</ns3:hr>
            <ns3:cad>52</ns3:cad>
          </ns3:TrackPointExtension>
        </extensions>
      </trkpt>
      <trkpt lat="38.0291907303035259246826171875" lon="-106.937691271305084228515625">
        <ele>4039.60009765625</ele>
        <time>2026-05-25T13:58:43.000Z</time>
        <extensions>
          <ns3:TrackPointExtension>
            <ns3:hr>114</ns3:hr>
            <ns3:cad>49</ns3:cad>
          </ns3:TrackPointExtension>
        </extensions>
      </trkpt>
      <trkpt lat="38.02912451326847076416015625" lon="-106.93768884055316448211669921875">
        <ele>4039.199951171875</ele>
        <time>2026-05-25T13:58:49.000Z</time>
        <extensions>
          <ns3:TrackPointExtension>
            <ns3:hr>114</ns3:hr>
            <ns3:cad>0</ns3:cad>
          </ns3:TrackPointExtension>
        </extensions>
      </trkpt>
      <trkpt lat="38.029109425842761993408203125" lon="-106.93768615834414958953857421875">
        <ele>4039.199951171875</ele>
        <time>2026-05-25T13:58:50.000Z</time>
        <extensions>
          <ns3:TrackPointExtension>
            <ns3:hr>113</ns3:hr>
            <ns3:cad>0</ns3:cad>
          </ns3:TrackPointExtension>
        </extensions>
      </trkpt>
      <trkpt lat="38.0290529318153858184814453125" lon="-106.93767509423196315765380859375">
        <ele>4039.39990234375</ele>
        <time>2026-05-25T13:58:55.000Z</time>
        <extensions>
          <ns3:TrackPointExtension>
            <ns3:hr>110</ns3:hr>
            <ns3:cad>0</ns3:cad>
          </ns3:TrackPointExtension>
        </extensions>
      </trkpt>
      <trkpt lat="38.02902887575328350067138671875" lon="-106.9376733340322971343994140625">
        <ele>4039.39990234375</ele>
        <time>2026-05-25T13:58:57.000Z</time>
        <extensions>
          <ns3:TrackPointExtension>
            <ns3:hr>109</ns3:hr>
            <ns3:cad>0</ns3:cad>
          </ns3:TrackPointExtension>
        </extensions>
      </trkpt>
      <trkpt lat="38.02897975780069828033447265625" lon="-106.937668137252330780029296875">
        <ele>4039.39990234375</ele>
        <time>2026-05-25T13:59:03.000Z</time>
        <extensions>
          <ns3:TrackPointExtension>
            <ns3:hr>108</ns3:hr>
            <ns3:cad>0</ns3:cad>
          </ns3:TrackPointExtension>
        </extensions>
      </trkpt>
      <trkpt lat="38.02890096791088581085205078125" lon="-106.93766352720558643341064453125">
        <ele>4038.60009765625</ele>
        <time>2026-05-25T13:59:09.000Z</time>
        <extensions>
          <ns3:TrackPointExtension>
            <ns3:hr>110</ns3:hr>
            <ns3:cad>0</ns3:cad>
          </ns3:TrackPointExtension>
        </extensions>
      </trkpt>
      <trkpt lat="38.02889945916831493377685546875" lon="-106.9376689754426479339599609375">
        <ele>4038.60009765625</ele>
        <time>2026-05-25T13:59:11.000Z</time>
        <extensions>
          <ns3:TrackPointExtension>
            <ns3:hr>111</ns3:hr>
            <ns3:cad>0</ns3:cad>
          </ns3:TrackPointExtension>
        </extensions>
      </trkpt>
      <trkpt lat="38.028900213539600372314453125" lon="-106.93766855634748935699462890625">
        <ele>4038.800048828125</ele>
        <time>2026-05-25T13:59:17.000Z</time>
        <extensions>
          <ns3:TrackPointExtension>
            <ns3:hr>111</ns3:hr>
            <ns3:cad>0</ns3:cad>
          </ns3:TrackPointExtension>
        </extensions>
      </trkpt>
      <trkpt lat="38.028900213539600372314453125" lon="-106.93766855634748935699462890625">
        <ele>4038.800048828125</ele>
        <time>2026-05-25T13:59:20.000Z</time>
        <extensions>
          <ns3:TrackPointExtension>
            <ns3:hr>114</ns3:hr>
            <ns3:cad>0</ns3:cad>
          </ns3:TrackPointExtension>
        </extensions>
      </trkpt>
      <trkpt lat="38.028899542987346649169921875" lon="-106.93766453303396701812744140625">
        <ele>4039</ele>
        <time>2026-05-25T13:59:22.000Z</time>
        <extensions>
          <ns3:TrackPointExtension>
            <ns3:hr>117</ns3:hr>
            <ns3:cad>0</ns3:cad>
          </ns3:TrackPointExtension>
        </extensions>
      </trkpt>
      <trkpt lat="38.02887699566781520843505859375" lon="-106.93766956217586994171142578125">
        <ele>4039</ele>
        <time>2026-05-25T13:59:24.000Z</time>
        <extensions>
          <ns3:TrackPointExtension>
            <ns3:hr>118</ns3:hr>
            <ns3:cad>0</ns3:cad>
          </ns3:TrackPointExtension>
        </extensions>
      </trkpt>
      <trkpt lat="38.02881882525980472564697265625" lon="-106.937666796147823333740234375">
        <ele>4039</ele>
        <time>2026-05-25T13:59:30.000Z</time>
        <extensions>
          <ns3:TrackPointExtension>
            <ns3:hr>114</ns3:hr>
            <ns3:cad>0</ns3:cad>
          </ns3:TrackPointExtension>
        </extensions>
      </trkpt>
      <trkpt lat="38.0287793464958667755126953125" lon="-106.93767593242228031158447265625">
        <ele>4038.800048828125</ele>
        <time>2026-05-25T13:59:33.000Z</time>
        <extensions>
          <ns3:TrackPointExtension>
            <ns3:hr>111</ns3:hr>
            <ns3:cad>0</ns3:cad>
          </ns3:TrackPointExtension>
        </extensions>
      </trkpt>
      <trkpt lat="38.02874741144478321075439453125" lon="-106.93768381141126155853271484375">
        <ele>4038.60009765625</ele>
        <time>2026-05-25T13:59:36.000Z</time>
        <extensions>
          <ns3:TrackPointExtension>
            <ns3:hr>111</ns3:hr>
            <ns3:cad>0</ns3:cad>
          </ns3:TrackPointExtension>
        </extensions>
      </trkpt>
      <trkpt lat="38.0287349224090576171875" lon="-106.93768255412578582763671875">
        <ele>4038</ele>
        <time>2026-05-25T13:59:38.000Z</time>
        <extensions>
          <ns3:TrackPointExtension>
            <ns3:hr>111</ns3:hr>
            <ns3:cad>0</ns3:cad>
          </ns3:TrackPointExtension>
        </extensions>
      </trkpt>
      <trkpt lat="38.02867817692458629608154296875" lon="-106.937688924372196197509765625">
        <ele>4037.800048828125</ele>
        <time>2026-05-25T13:59:44.000Z</time>
        <extensions>
          <ns3:TrackPointExtension>
            <ns3:hr>112</ns3:hr>
            <ns3:cad>0</ns3:cad>
          </ns3:TrackPointExtension>
        </extensions>
      </trkpt>
      <trkpt lat="38.02866744808852672576904296875" lon="-106.937690936028957366943359375">
        <ele>4037.800048828125</ele>
        <time>2026-05-25T13:59:45.000Z</time>
        <extensions>
          <ns3:TrackPointExtension>
            <ns3:hr>112</ns3:hr>
            <ns3:cad>0</ns3:cad>
          </ns3:TrackPointExtension>
        </extensions>
      </trkpt>
      <trkpt lat="38.02862335927784442901611328125" lon="-106.93768900819122791290283203125">
        <ele>4037.60009765625</ele>
        <time>2026-05-25T13:59:48.000Z</time>
        <extensions>
          <ns3:TrackPointExtension>
            <ns3:hr>115</ns3:hr>
            <ns3:cad>0</ns3:cad>
          </ns3:TrackPointExtension>
        </extensions>
      </trkpt>
      <trkpt lat="38.02860550582408905029296875" lon="-106.9376894272863864898681640625">
        <ele>4037.199951171875</ele>
        <time>2026-05-25T13:59:50.000Z</time>
        <extensions>
          <ns3:TrackPointExtension>
            <ns3:hr>118</ns3:hr>
            <ns3:cad>0</ns3:cad>
          </ns3:TrackPointExtension>
        </extensions>
      </trkpt>
      <trkpt lat="38.02859117276966571807861328125" lon="-106.9376921094954013824462890625">
        <ele>4036.800048828125</ele>
        <time>2026-05-25T13:59:52.000Z</time>
        <extensions>
          <ns3:TrackPointExtension>
            <ns3:hr>119</ns3:hr>
            <ns3:cad>0</ns3:cad>
          </ns3:TrackPointExtension>
        </extensions>
      </trkpt>
      <trkpt lat="38.02858144976198673248291015625" lon="-106.9376931153237819671630859375">
        <ele>4036.60009765625</ele>
        <time>2026-05-25T13:59:54.000Z</time>
        <extensions>
          <ns3:TrackPointExtension>
            <ns3:hr>121</ns3:hr>
            <ns3:cad>0</ns3:cad>
          </ns3:TrackPointExtension>
        </extensions>
      </trkpt>
      <trkpt lat="38.028530739247798919677734375" lon="-106.9376917742192745208740234375">
        <ele>4035.800048828125</ele>
        <time>2026-05-25T13:59:58.000Z</time>
        <extensions>
          <ns3:TrackPointExtension>
            <ns3:hr>123</ns3:hr>
            <ns3:cad>0</ns3:cad>
          </ns3:TrackPointExtension>
        </extensions>
      </trkpt>
      <trkpt lat="38.0285128019750118255615234375" lon="-106.9376924447715282440185546875">
        <ele>4035.800048828125</ele>
        <time>2026-05-25T14:00:00.000Z</time>
        <extensions>
          <ns3:TrackPointExtension>
            <ns3:hr>124</ns3:hr>
            <ns3:cad>0</ns3:cad>
          </ns3:TrackPointExtension>
        </extensions>
      </trkpt>
      <trkpt lat="38.02844432182610034942626953125" lon="-106.93769018165767192840576171875">
        <ele>4035</ele>
        <time>2026-05-25T14:00:06.000Z</time>
        <extensions>
          <ns3:TrackPointExtension>
            <ns3:hr>126</ns3:hr>
            <ns3:cad>73</ns3:cad>
          </ns3:TrackPointExtension>
        </extensions>
      </trkpt>
      <trkpt lat="38.028432168066501617431640625" lon="-106.93769085220992565155029296875">
        <ele>4034.800048828125</ele>
        <time>2026-05-25T14:00:07.000Z</time>
        <extensions>
          <ns3:TrackPointExtension>
            <ns3:hr>126</ns3:hr>
            <ns3:cad>73</ns3:cad>
          </ns3:TrackPointExtension>
        </extensions>
      </trkpt>
      <trkpt lat="38.02842236123979091644287109375" lon="-106.93768884055316448211669921875">
        <ele>4034.800048828125</ele>
        <time>2026-05-25T14:00:08.000Z</time>
        <extensions>
          <ns3:TrackPointExtension>
            <ns3:hr>126</ns3:hr>
            <ns3:cad>76</ns3:cad>
          </ns3:TrackPointExtension>
        </extensions>
      </trkpt>
      <trkpt lat="38.02840425632894039154052734375" lon="-106.93768532015383243560791015625">
        <ele>4035</ele>
        <time>2026-05-25T14:00:11.000Z</time>
        <extensions>
          <ns3:TrackPointExtension>
            <ns3:hr>123</ns3:hr>
            <ns3:cad>0</ns3:cad>
          </ns3:TrackPointExtension>
        </extensions>
      </trkpt>
      <trkpt lat="38.0283661186695098876953125" lon="-106.93768397904932498931884765625">
        <ele>4035</ele>
        <time>2026-05-25T14:00:15.000Z</time>
        <extensions>
          <ns3:TrackPointExtension>
            <ns3:hr>124</ns3:hr>
            <ns3:cad>0</ns3:cad>
          </ns3:TrackPointExtension>
        </extensions>
      </trkpt>
      <trkpt lat="38.02830015309154987335205078125" lon="-106.93768062628805637359619140625">
        <ele>4034.800048828125</ele>
        <time>2026-05-25T14:00:21.000Z</time>
        <extensions>
          <ns3:TrackPointExtension>
            <ns3:hr>123</ns3:hr>
            <ns3:cad>48</ns3:cad>
          </ns3:TrackPointExtension>
        </extensions>
      </trkpt>
      <trkpt lat="38.028291352093219757080078125" lon="-106.9376840628683567047119140625">
        <ele>4035</ele>
        <time>2026-05-25T14:00:22.000Z</time>
        <extensions>
          <ns3:TrackPointExtension>
            <ns3:hr>121</ns3:hr>
            <ns3:cad>0</ns3:cad>
          </ns3:TrackPointExtension>
        </extensions>
      </trkpt>
      <trkpt lat="38.0282628536224365234375" lon="-106.93770225159823894500732421875">
        <ele>4036</ele>
        <time>2026-05-25T14:00:26.000Z</time>
        <extensions>
          <ns3:TrackPointExtension>
            <ns3:hr>119</ns3:hr>
            <ns3:cad>57</ns3:cad>
          </ns3:TrackPointExtension>
        </extensions>
      </trkpt>
      <trkpt lat="38.02824751473963260650634765625" lon="-106.93770661018788814544677734375">
        <ele>4036.199951171875</ele>
        <time>2026-05-25T14:00:29.000Z</time>
        <extensions>
          <ns3:TrackPointExtension>
            <ns3:hr>117</ns3:hr>
            <ns3:cad>57</ns3:cad>
          </ns3:TrackPointExtension>
        </extensions>
      </trkpt>
      <trkpt lat="38.02823158912360668182373046875" lon="-106.937705688178539276123046875">
        <ele>4036.39990234375</ele>
        <time>2026-05-25T14:00:30.000Z</time>
        <extensions>
          <ns3:TrackPointExtension>
            <ns3:hr>114</ns3:hr>
            <ns3:cad>0</ns3:cad>
          </ns3:TrackPointExtension>
        </extensions>
      </trkpt>
      <trkpt lat="38.02820610813796520233154296875" lon="-106.93770895712077617645263671875">
        <ele>4037</ele>
        <time>2026-05-25T14:00:33.000Z</time>
        <extensions>
          <ns3:TrackPointExtension>
            <ns3:hr>111</ns3:hr>
            <ns3:cad>0</ns3:cad>
          </ns3:TrackPointExtension>
        </extensions>
      </trkpt>
      <trkpt lat="38.0281989835202693939208984375" lon="-106.93770828656852245330810546875">
        <ele>4037.199951171875</ele>
        <time>2026-05-25T14:00:34.000Z</time>
        <extensions>
          <ns3:TrackPointExtension>
            <ns3:hr>112</ns3:hr>
            <ns3:cad>0</ns3:cad>
          </ns3:TrackPointExtension>
        </extensions>
      </trkpt>
      <trkpt lat="38.0281872488558292388916015625" lon="-106.937705688178539276123046875">
        <ele>4037.60009765625</ele>
        <time>2026-05-25T14:00:36.000Z</time>
        <extensions>
          <ns3:TrackPointExtension>
            <ns3:hr>115</ns3:hr>
            <ns3:cad>0</ns3:cad>
          </ns3:TrackPointExtension>
        </extensions>
      </trkpt>
      <trkpt lat="38.0281564034521579742431640625" lon="-106.93770392797887325286865234375">
        <ele>4037.800048828125</ele>
        <time>2026-05-25T14:00:39.000Z</time>
        <extensions>
          <ns3:TrackPointExtension>
            <ns3:hr>117</ns3:hr>
            <ns3:cad>69</ns3:cad>
          </ns3:TrackPointExtension>
        </extensions>
      </trkpt>
      <trkpt lat="38.0281372927129268646240234375" lon="-106.93770912475883960723876953125">
        <ele>4038</ele>
        <time>2026-05-25T14:00:41.000Z</time>
        <extensions>
          <ns3:TrackPointExtension>
            <ns3:hr>118</ns3:hr>
            <ns3:cad>69</ns3:cad>
          </ns3:TrackPointExtension>
        </extensions>
      </trkpt>
      <trkpt lat="38.02810166962444782257080078125" lon="-106.93771331571042537689208984375">
        <ele>4038.800048828125</ele>
        <time>2026-05-25T14:00:45.000Z</time>
        <extensions>
          <ns3:TrackPointExtension>
            <ns3:hr>118</ns3:hr>
            <ns3:cad>69</ns3:cad>
          </ns3:TrackPointExtension>
        </extensions>
      </trkpt>
      <trkpt lat="38.0280715785920619964599609375" lon="-106.9377108849585056304931640625">
        <ele>4039</ele>
        <time>2026-05-25T14:00:47.000Z</time>
        <extensions>
          <ns3:TrackPointExtension>
            <ns3:hr>118</ns3:hr>
            <ns3:cad>40</ns3:cad>
          </ns3:TrackPointExtension>
        </extensions>
      </trkpt>
      <trkpt lat="38.02803218364715576171875" lon="-106.937710382044315338134765625">
        <ele>4039.39990234375</ele>
        <time>2026-05-25T14:00:51.000Z</time>
        <extensions>
          <ns3:TrackPointExtension>
            <ns3:hr>119</ns3:hr>
            <ns3:cad>40</ns3:cad>
          </ns3:TrackPointExtension>
        </extensions>
      </trkpt>
      <trkpt lat="38.02801433019340038299560546875" lon="-106.9377112202346324920654296875">
        <ele>4039.60009765625</ele>
        <time>2026-05-25T14:00:54.000Z</time>
        <extensions>
          <ns3:TrackPointExtension>
            <ns3:hr>122</ns3:hr>
            <ns3:cad>0</ns3:cad>
          </ns3:TrackPointExtension>
        </extensions>
      </trkpt>
      <trkpt lat="38.0279897712171077728271484375" lon="-106.93770937621593475341796875">
        <ele>4039.60009765625</ele>
        <time>2026-05-25T14:00:56.000Z</time>
        <extensions>
          <ns3:TrackPointExtension>
            <ns3:hr>125</ns3:hr>
            <ns3:cad>0</ns3:cad>
          </ns3:TrackPointExtension>
        </extensions>
      </trkpt>
      <trkpt lat="38.02797225303947925567626953125" lon="-106.93771163932979106903076171875">
        <ele>4039.800048828125</ele>
        <time>2026-05-25T14:00:58.000Z</time>
        <extensions>
          <ns3:TrackPointExtension>
            <ns3:hr>126</ns3:hr>
            <ns3:cad>0</ns3:cad>
          </ns3:TrackPointExtension>
        </extensions>
      </trkpt>
      <trkpt lat="38.0279448442161083221435546875" lon="-106.93770828656852245330810546875">
        <ele>4040.199951171875</ele>
        <time>2026-05-25T14:01:01.000Z</time>
        <extensions>
          <ns3:TrackPointExtension>
            <ns3:hr>128</ns3:hr>
            <ns3:cad>47</ns3:cad>
          </ns3:TrackPointExtension>
        </extensions>
      </trkpt>
      <trkpt lat="38.027893044054508209228515625" lon="-106.9376974739134311676025390625">
        <ele>4040.800048828125</ele>
        <time>2026-05-25T14:01:06.000Z</time>
        <extensions>
          <ns3:TrackPointExtension>
            <ns3:hr>128</ns3:hr>
            <ns3:cad>0</ns3:cad>
          </ns3:TrackPointExtension>
        </extensions>
      </trkpt>
      <trkpt lat="38.027879633009433746337890625" lon="-106.93769806064665317535400390625">
        <ele>4041.199951171875</ele>
        <time>2026-05-25T14:01:09.000Z</time>
        <extensions>
          <ns3:TrackPointExtension>
            <ns3:hr>128</ns3:hr>
            <ns3:cad>46</ns3:cad>
          </ns3:TrackPointExtension>
        </extensions>
      </trkpt>
      <trkpt lat="38.02786362357437610626220703125" lon="-106.93769864737987518310546875">
        <ele>4041.800048828125</ele>
        <time>2026-05-25T14:01:12.000Z</time>
        <extensions>
          <ns3:TrackPointExtension>
            <ns3:hr>129</ns3:hr>
            <ns3:cad>46</ns3:cad>
          </ns3:TrackPointExtension>
        </extensions>
      </trkpt>
      <trkpt lat="38.02783571183681488037109375" lon="-106.9377118907868862152099609375">
        <ele>4042.199951171875</ele>
        <time>2026-05-25T14:01:16.000Z</time>
        <extensions>
          <ns3:TrackPointExtension>
            <ns3:hr>129</ns3:hr>
            <ns3:cad>41</ns3:cad>
          </ns3:TrackPointExtension>
        </extensions>
      </trkpt>
      <trkpt lat="38.02782070823013782501220703125" lon="-106.93772588856518268585205078125">
        <ele>4042.60009765625</ele>
        <time>2026-05-25T14:01:20.000Z</time>
        <extensions>
          <ns3:TrackPointExtension>
            <ns3:hr>129</ns3:hr>
            <ns3:cad>0</ns3:cad>
          </ns3:TrackPointExtension>
        </extensions>
      </trkpt>
      <trkpt lat="38.0277570895850658416748046875" lon="-106.937712728977203369140625">
        <ele>4043.199951171875</ele>
        <time>2026-05-25T14:01:26.000Z</time>
        <extensions>
          <ns3:TrackPointExtension>
            <ns3:hr>130</ns3:hr>
            <ns3:cad>0</ns3:cad>
          </ns3:TrackPointExtension>
        </extensions>
      </trkpt>
      <trkpt lat="38.0277285911142826080322265625" lon="-106.937703676521778106689453125">
        <ele>4043.199951171875</ele>
        <time>2026-05-25T14:01:31.000Z</time>
        <extensions>
          <ns3:TrackPointExtension>
            <ns3:hr>127</ns3:hr>
            <ns3:cad>0</ns3:cad>
          </ns3:TrackPointExtension>
        </extensions>
      </trkpt>
      <trkpt lat="38.027718029916286468505859375" lon="-106.9377051852643489837646484375">
        <ele>4043</ele>
        <time>2026-05-25T14:01:32.000Z</time>
        <extensions>
          <ns3:TrackPointExtension>
            <ns3:hr>124</ns3:hr>
            <ns3:cad>0</ns3:cad>
          </ns3:TrackPointExtension>
        </extensions>
      </trkpt>
      <trkpt lat="38.02770637907087802886962890625" lon="-106.93771163932979106903076171875">
        <ele>4043</ele>
        <time>2026-05-25T14:01:34.000Z</time>
        <extensions>
          <ns3:TrackPointExtension>
            <ns3:hr>120</ns3:hr>
            <ns3:cad>0</ns3:cad>
          </ns3:TrackPointExtension>
        </extensions>
      </trkpt>
      <trkpt lat="38.027691878378391265869140625" lon="-106.937722451984882354736328125">
        <ele>4043.199951171875</ele>
        <time>2026-05-25T14:01:37.000Z</time>
        <extensions>
          <ns3:TrackPointExtension>
            <ns3:hr>117</ns3:hr>
            <ns3:cad>0</ns3:cad>
          </ns3:TrackPointExtension>
        </extensions>
      </trkpt>
      <trkpt lat="38.02764200605452060699462890625" lon="-106.937730498611927032470703125">
        <ele>4044.199951171875</ele>
        <time>2026-05-25T14:01:43.000Z</time>
        <extensions>
          <ns3:TrackPointExtension>
            <ns3:hr>117</ns3:hr>
            <ns3:cad>0</ns3:cad>
          </ns3:TrackPointExtension>
        </extensions>
      </trkpt>
      <trkpt lat="38.02763454616069793701171875" lon="-106.9377299956977367401123046875">
        <ele>4044.39990234375</ele>
        <time>2026-05-25T14:01:44.000Z</time>
        <extensions>
          <ns3:TrackPointExtension>
            <ns3:hr>116</ns3:hr>
            <ns3:cad>0</ns3:cad>
          </ns3:TrackPointExtension>
        </extensions>
      </trkpt>
      <trkpt lat="38.02757947705686092376708984375" lon="-106.93774030543863773345947265625">
        <ele>4045</ele>
        <time>2026-05-25T14:01:50.000Z</time>
        <extensions>
          <ns3:TrackPointExtension>
            <ns3:hr>116</ns3:hr>
            <ns3:cad>0</ns3:cad>
          </ns3:TrackPointExtension>
        </extensions>
      </trkpt>
      <trkpt lat="38.0275683291256427764892578125" lon="-106.937747932970523834228515625">
        <ele>4045.39990234375</ele>
        <time>2026-05-25T14:01:53.000Z</time>
        <extensions>
          <ns3:TrackPointExtension>
            <ns3:hr>118</ns3:hr>
            <ns3:cad>0</ns3:cad>
          </ns3:TrackPointExtension>
        </extensions>
      </trkpt>
      <trkpt lat="38.02756489254534244537353515625" lon="-106.937750615179538726806640625">
        <ele>4045.60009765625</ele>
        <time>2026-05-25T14:01:56.000Z</time>
        <extensions>
          <ns3:TrackPointExtension>
            <ns3:hr>125</ns3:hr>
            <ns3:cad>0</ns3:cad>
          </ns3:TrackPointExtension>
        </extensions>
      </trkpt>
      <trkpt lat="38.02756489254534244537353515625" lon="-106.937750615179538726806640625">
        <ele>4045.39990234375</ele>
        <time>2026-05-25T14:01:58.000Z</time>
        <extensions>
          <ns3:TrackPointExtension>
            <ns3:hr>126</ns3:hr>
            <ns3:cad>0</ns3:cad>
          </ns3:TrackPointExtension>
        </extensions>
      </trkpt>
      <trkpt lat="38.02756489254534244537353515625" lon="-106.937750615179538726806640625">
        <ele>4045.199951171875</ele>
        <time>2026-05-25T14:02:01.000Z</time>
        <extensions>
          <ns3:TrackPointExtension>
            <ns3:hr>123</ns3:hr>
            <ns3:cad>0</ns3:cad>
          </ns3:TrackPointExtension>
        </extensions>
      </trkpt>
      <trkpt lat="38.02756489254534244537353515625" lon="-106.937750615179538726806640625">
        <ele>4045</ele>
        <time>2026-05-25T14:02:04.000Z</time>
        <extensions>
          <ns3:TrackPointExtension>
            <ns3:hr>120</ns3:hr>
            <ns3:cad>0</ns3:cad>
          </ns3:TrackPointExtension>
        </extensions>
      </trkpt>
      <trkpt lat="38.02756489254534244537353515625" lon="-106.937750615179538726806640625">
        <ele>4045.199951171875</ele>
        <time>2026-05-25T14:02:10.000Z</time>
        <extensions>
          <ns3:TrackPointExtension>
            <ns3:hr>118</ns3:hr>
            <ns3:cad>0</ns3:cad>
          </ns3:TrackPointExtension>
        </extensions>
      </trkpt>
      <trkpt lat="38.02756489254534244537353515625" lon="-106.937750615179538726806640625">
        <ele>4045.39990234375</ele>
        <time>2026-05-25T14:02:11.000Z</time>
        <extensions>
          <ns3:TrackPointExtension>
            <ns3:hr>118</ns3:hr>
            <ns3:cad>0</ns3:cad>
          </ns3:TrackPointExtension>
        </extensions>
      </trkpt>
      <trkpt lat="38.02756489254534244537353515625" lon="-106.937750615179538726806640625">
        <ele>4045.39990234375</ele>
        <time>2026-05-25T14:02:13.000Z</time>
        <extensions>
          <ns3:TrackPointExtension>
            <ns3:hr>110</ns3:hr>
            <ns3:cad>0</ns3:cad>
          </ns3:TrackPointExtension>
        </extensions>
      </trkpt>
      <trkpt lat="38.02756489254534244537353515625" lon="-106.937750615179538726806640625">
        <ele>4045.39990234375</ele>
        <time>2026-05-25T14:02:14.000Z</time>
        <extensions>
          <ns3:TrackPointExtension>
            <ns3:hr>104</ns3:hr>
            <ns3:cad>0</ns3:cad>
          </ns3:TrackPointExtension>
        </extensions>
      </trkpt>
      <trkpt lat="38.02756489254534244537353515625" lon="-106.937750615179538726806640625">
        <ele>4045.39990234375</ele>
        <time>2026-05-25T14:02:16.000Z</time>
        <extensions>
          <ns3:TrackPointExtension>
            <ns3:hr>101</ns3:hr>
            <ns3:cad>0</ns3:cad>
          </ns3:TrackPointExtension>
        </extensions>
      </trkpt>
      <trkpt lat="38.02756489254534244537353515625" lon="-106.937750615179538726806640625">
        <ele>4045</ele>
        <time>2026-05-25T14:02:22.000Z</time>
        <extensions>
          <ns3:TrackPointExtension>
            <ns3:hr>101</ns3:hr>
            <ns3:cad>0</ns3:cad>
          </ns3:TrackPointExtension>
        </extensions>
      </trkpt>
      <trkpt lat="38.02756489254534244537353515625" lon="-106.937750615179538726806640625">
        <ele>4044.800048828125</ele>
        <time>2026-05-25T14:02:25.000Z</time>
        <extensions>
          <ns3:TrackPointExtension>
            <ns3:hr>104</ns3:hr>
            <ns3:cad>0</ns3:cad>
          </ns3:TrackPointExtension>
        </extensions>
      </trkpt>
      <trkpt lat="38.02756489254534244537353515625" lon="-106.937750615179538726806640625">
        <ele>4044.800048828125</ele>
        <time>2026-05-25T14:02:27.000Z</time>
        <extensions>
          <ns3:TrackPointExtension>
            <ns3:hr>108</ns3:hr>
            <ns3:cad>0</ns3:cad>
          </ns3:TrackPointExtension>
        </extensions>
      </trkpt>
      <trkpt lat="38.02756489254534244537353515625" lon="-106.937750615179538726806640625">
        <ele>4044.800048828125</ele>
        <time>2026-05-25T14:02:28.000Z</time>
        <extensions>
          <ns3:TrackPointExtension>
            <ns3:hr>111</ns3:hr>
            <ns3:cad>0</ns3:cad>
          </ns3:TrackPointExtension>
        </extensions>
      </trkpt>
      <trkpt lat="38.02756489254534244537353515625" lon="-106.937750615179538726806640625">
        <ele>4045.199951171875</ele>
        <time>2026-05-25T14:02:34.000Z</time>
        <extensions>
          <ns3:TrackPointExtension>
            <ns3:hr>113</ns3:hr>
            <ns3:cad>0</ns3:cad>
          </ns3:TrackPointExtension>
        </extensions>
      </trkpt>
      <trkpt lat="38.02756489254534244537353515625" lon="-106.937750615179538726806640625">
        <ele>4044.800048828125</ele>
        <time>2026-05-25T14:02:40.000Z</time>
        <extensions>
          <ns3:TrackPointExtension>
            <ns3:hr>113</ns3:hr>
            <ns3:cad>0</ns3:cad>
          </ns3:TrackPointExtension>
        </extensions>
      </trkpt>
      <trkpt lat="38.02756489254534244537353515625" lon="-106.937750615179538726806640625">
        <ele>4045.199951171875</ele>
        <time>2026-05-25T14:02:46.000Z</time>
        <extensions>
          <ns3:TrackPointExtension>
            <ns3:hr>114</ns3:hr>
            <ns3:cad>0</ns3:cad>
          </ns3:TrackPointExtension>
        </extensions>
      </trkpt>
      <trkpt lat="38.02756212651729583740234375" lon="-106.9377489387989044189453125">
        <ele>4045.199951171875</ele>
        <time>2026-05-25T14:02:48.000Z</time>
        <extensions>
          <ns3:TrackPointExtension>
            <ns3:hr>116</ns3:hr>
            <ns3:cad>0</ns3:cad>
          </ns3:TrackPointExtension>
        </extensions>
      </trkpt>
      <trkpt lat="38.02751560695469379425048828125" lon="-106.93777970038354396820068359375">
        <ele>4044.60009765625</ele>
        <time>2026-05-25T14:02:54.000Z</time>
        <extensions>
          <ns3:TrackPointExtension>
            <ns3:hr>115</ns3:hr>
            <ns3:cad>0</ns3:cad>
          </ns3:TrackPointExtension>
        </extensions>
      </trkpt>
      <trkpt lat="38.02750705741345882415771484375" lon="-106.93778372369706630706787109375">
        <ele>4044.60009765625</ele>
        <time>2026-05-25T14:02:55.000Z</time>
        <extensions>
          <ns3:TrackPointExtension>
            <ns3:hr>115</ns3:hr>
            <ns3:cad>0</ns3:cad>
          </ns3:TrackPointExtension>
        </extensions>
      </trkpt>
      <trkpt lat="38.02748392336070537567138671875" lon="-106.93779252469539642333984375">
        <ele>4044.39990234375</ele>
        <time>2026-05-25T14:02:57.000Z</time>
        <extensions>
          <ns3:TrackPointExtension>
            <ns3:hr>114</ns3:hr>
            <ns3:cad>0</ns3:cad>
          </ns3:TrackPointExtension>
        </extensions>
      </trkpt>
      <trkpt lat="38.0274493061006069183349609375" lon="-106.93781507201492786407470703125">
        <ele>4043.800048828125</ele>
        <time>2026-05-25T14:03:02.000Z</time>
        <extensions>
          <ns3:TrackPointExtension>
            <ns3:hr>116</ns3:hr>
            <ns3:cad>0</ns3:cad>
          </ns3:TrackPointExtension>
        </extensions>
      </trkpt>
      <trkpt lat="38.02742206491529941558837890625" lon="-106.9378359429538249969482421875">
        <ele>4044.199951171875</ele>
        <time>2026-05-25T14:03:07.000Z</time>
        <extensions>
          <ns3:TrackPointExtension>
            <ns3:hr>113</ns3:hr>
            <ns3:cad>0</ns3:cad>
          </ns3:TrackPointExtension>
        </extensions>
      </trkpt>
      <trkpt lat="38.0273946560919284820556640625" lon="-106.93785161711275577545166015625">
        <ele>4044.199951171875</ele>
        <time>2026-05-25T14:03:09.000Z</time>
        <extensions>
          <ns3:TrackPointExtension>
            <ns3:hr>112</ns3:hr>
            <ns3:cad>0</ns3:cad>
          </ns3:TrackPointExtension>
        </extensions>
      </trkpt>
      <trkpt lat="38.0273393355309963226318359375" lon="-106.93786871619522571563720703125">
        <ele>4044.39990234375</ele>
        <time>2026-05-25T14:03:15.000Z</time>
        <extensions>
          <ns3:TrackPointExtension>
            <ns3:hr>111</ns3:hr>
            <ns3:cad>0</ns3:cad>
          </ns3:TrackPointExtension>
        </extensions>
      </trkpt>
      <trkpt lat="38.027278818190097808837890625" lon="-106.93788464181125164031982421875">
        <ele>4044.39990234375</ele>
        <time>2026-05-25T14:03:21.000Z</time>
        <extensions>
          <ns3:TrackPointExtension>
            <ns3:hr>110</ns3:hr>
            <ns3:cad>0</ns3:cad>
          </ns3:TrackPointExtension>
        </extensions>
      </trkpt>
      <trkpt lat="38.0272706039249897003173828125" lon="-106.93788229487836360931396484375">
        <ele>4044.39990234375</ele>
        <time>2026-05-25T14:03:22.000Z</time>
        <extensions>
          <ns3:TrackPointExtension>
            <ns3:hr>110</ns3:hr>
            <ns3:cad>0</ns3:cad>
          </ns3:TrackPointExtension>
        </extensions>
      </trkpt>
      <trkpt lat="38.02722844295203685760498046875" lon="-106.937885396182537078857421875">
        <ele>4044.199951171875</ele>
        <time>2026-05-25T14:03:28.000Z</time>
        <extensions>
          <ns3:TrackPointExtension>
            <ns3:hr>110</ns3:hr>
            <ns3:cad>48</ns3:cad>
          </ns3:TrackPointExtension>
        </extensions>
      </trkpt>
      <trkpt lat="38.02720748819410800933837890625" lon="-106.93789419718086719512939453125">
        <ele>4044.199951171875</ele>
        <time>2026-05-25T14:03:29.000Z</time>
        <extensions>
          <ns3:TrackPointExtension>
            <ns3:hr>110</ns3:hr>
            <ns3:cad>0</ns3:cad>
          </ns3:TrackPointExtension>
        </extensions>
      </trkpt>
      <trkpt lat="38.02715702913701534271240234375" lon="-106.937911547720432281494140625">
        <ele>4043.199951171875</ele>
        <time>2026-05-25T14:03:34.000Z</time>
        <extensions>
          <ns3:TrackPointExtension>
            <ns3:hr>109</ns3:hr>
            <ns3:cad>0</ns3:cad>
          </ns3:TrackPointExtension>
        </extensions>
      </trkpt>
      <trkpt lat="38.02712115459144115447998046875" lon="-106.937908194959163665771484375">
        <ele>4042.60009765625</ele>
        <time>2026-05-25T14:03:40.000Z</time>
        <extensions>
          <ns3:TrackPointExtension>
            <ns3:hr>109</ns3:hr>
            <ns3:cad>0</ns3:cad>
          </ns3:TrackPointExtension>
        </extensions>
      </trkpt>
      <trkpt lat="38.02706725895404815673828125" lon="-106.9379143975675106048583984375">
        <ele>4042.199951171875</ele>
        <time>2026-05-25T14:03:44.000Z</time>
        <extensions>
          <ns3:TrackPointExtension>
            <ns3:hr>109</ns3:hr>
            <ns3:cad>66</ns3:cad>
          </ns3:TrackPointExtension>
        </extensions>
      </trkpt>
      <trkpt lat="38.0270556919276714324951171875" lon="-106.9379232823848724365234375">
        <ele>4042</ele>
        <time>2026-05-25T14:03:45.000Z</time>
        <extensions>
          <ns3:TrackPointExtension>
            <ns3:hr>108</ns3:hr>
            <ns3:cad>66</ns3:cad>
          </ns3:TrackPointExtension>
        </extensions>
      </trkpt>
      <trkpt lat="38.02702409215271472930908203125" lon="-106.9379542954266071319580078125">
        <ele>4042</ele>
        <time>2026-05-25T14:03:51.000Z</time>
        <extensions>
          <ns3:TrackPointExtension>
            <ns3:hr>110</ns3:hr>
            <ns3:cad>0</ns3:cad>
          </ns3:TrackPointExtension>
        </extensions>
      </trkpt>
      <trkpt lat="38.02702794782817363739013671875" lon="-106.9379573129117488861083984375">
        <ele>4042</ele>
        <time>2026-05-25T14:03:57.000Z</time>
        <extensions>
          <ns3:TrackPointExtension>
            <ns3:hr>111</ns3:hr>
            <ns3:cad>0</ns3:cad>
          </ns3:TrackPointExtension>
        </extensions>
      </trkpt>
      <trkpt lat="38.02701495587825775146484375" lon="-106.93796326406300067901611328125">
        <ele>4041.800048828125</ele>
        <time>2026-05-25T14:03:58.000Z</time>
        <extensions>
          <ns3:TrackPointExtension>
            <ns3:hr>111</ns3:hr>
            <ns3:cad>0</ns3:cad>
          </ns3:TrackPointExtension>
        </extensions>
      </trkpt>
      <trkpt lat="38.02695100195705890655517578125" lon="-106.9379730708897113800048828125">
        <ele>4041.39990234375</ele>
        <time>2026-05-25T14:04:04.000Z</time>
        <extensions>
          <ns3:TrackPointExtension>
            <ns3:hr>111</ns3:hr>
            <ns3:cad>0</ns3:cad>
          </ns3:TrackPointExtension>
        </extensions>
      </trkpt>
      <trkpt lat="38.026941530406475067138671875" lon="-106.93797298707067966461181640625">
        <ele>4041.199951171875</ele>
        <time>2026-05-25T14:04:05.000Z</time>
        <extensions>
          <ns3:TrackPointExtension>
            <ns3:hr>112</ns3:hr>
            <ns3:cad>0</ns3:cad>
          </ns3:TrackPointExtension>
        </extensions>
      </trkpt>
      <trkpt lat="38.0268801748752593994140625" lon="-106.9379921816289424896240234375">
        <ele>4040.199951171875</ele>
        <time>2026-05-25T14:04:11.000Z</time>
        <extensions>
          <ns3:TrackPointExtension>
            <ns3:hr>113</ns3:hr>
            <ns3:cad>0</ns3:cad>
          </ns3:TrackPointExtension>
        </extensions>
      </trkpt>
      <trkpt lat="38.026869781315326690673828125" lon="-106.937990672886371612548828125">
        <ele>4040</ele>
        <time>2026-05-25T14:04:12.000Z</time>
        <extensions>
          <ns3:TrackPointExtension>
            <ns3:hr>113</ns3:hr>
            <ns3:cad>0</ns3:cad>
          </ns3:TrackPointExtension>
        </extensions>
      </trkpt>
      <trkpt lat="38.0268136225640773773193359375" lon="-106.937979273498058319091796875">
        <ele>4039.199951171875</ele>
        <time>2026-05-25T14:04:18.000Z</time>
        <extensions>
          <ns3:TrackPointExtension>
            <ns3:hr>113</ns3:hr>
            <ns3:cad>0</ns3:cad>
          </ns3:TrackPointExtension>
        </extensions>
      </trkpt>
      <trkpt lat="38.02680532447993755340576171875" lon="-106.93797868676483631134033203125">
        <ele>4039</ele>
        <time>2026-05-25T14:04:19.000Z</time>
        <extensions>
          <ns3:TrackPointExtension>
            <ns3:hr>112</ns3:hr>
            <ns3:cad>0</ns3:cad>
          </ns3:TrackPointExtension>
        </extensions>
      </trkpt>
      <trkpt lat="38.02680532447993755340576171875" lon="-106.93797868676483631134033203125">
        <ele>4039</ele>
        <time>2026-05-25T14:04:20.000Z</time>
        <extensions>
          <ns3:TrackPointExtension>
            <ns3:hr>112</ns3:hr>
            <ns3:cad>0</ns3:cad>
          </ns3:TrackPointExtension>
        </extensions>
      </trkpt>
      <trkpt lat="38.02674011327326297760009765625" lon="-106.93796561099588871002197265625">
        <ele>4038.39990234375</ele>
        <time>2026-05-25T14:04:25.000Z</time>
        <extensions>
          <ns3:TrackPointExtension>
            <ns3:hr>110</ns3:hr>
            <ns3:cad>70</ns3:cad>
          </ns3:TrackPointExtension>
        </extensions>
      </trkpt>
      <trkpt lat="38.0267100222408771514892578125" lon="-106.9379608333110809326171875">
        <ele>4038</ele>
        <time>2026-05-25T14:04:28.000Z</time>
        <extensions>
          <ns3:TrackPointExtension>
            <ns3:hr>109</ns3:hr>
            <ns3:cad>70</ns3:cad>
          </ns3:TrackPointExtension>
        </extensions>
      </trkpt>
      <trkpt lat="38.02666685543954372406005859375" lon="-106.93795689381659030914306640625">
        <ele>4037.39990234375</ele>
        <time>2026-05-25T14:04:32.000Z</time>
        <extensions>
          <ns3:TrackPointExtension>
            <ns3:hr>111</ns3:hr>
            <ns3:cad>70</ns3:cad>
          </ns3:TrackPointExtension>
        </extensions>
      </trkpt>
      <trkpt lat="38.02664690650999546051025390625" lon="-106.9379496015608310699462890625">
        <ele>4037</ele>
        <time>2026-05-25T14:04:34.000Z</time>
        <extensions>
          <ns3:TrackPointExtension>
            <ns3:hr>112</ns3:hr>
            <ns3:cad>52</ns3:cad>
          </ns3:TrackPointExtension>
        </extensions>
      </trkpt>
      <trkpt lat="38.02661664783954620361328125" lon="-106.93794566206634044647216796875">
        <ele>4036.800048828125</ele>
        <time>2026-05-25T14:04:37.000Z</time>
        <extensions>
          <ns3:TrackPointExtension>
            <ns3:hr>115</ns3:hr>
            <ns3:cad>62</ns3:cad>
          </ns3:TrackPointExtension>
        </extensions>
      </trkpt>
      <trkpt lat="38.0266158096492290496826171875" lon="-106.93794297985732555389404296875">
        <ele>4036.800048828125</ele>
        <time>2026-05-25T14:04:38.000Z</time>
        <extensions>
          <ns3:TrackPointExtension>
            <ns3:hr>116</ns3:hr>
            <ns3:cad>0</ns3:cad>
          </ns3:TrackPointExtension>
        </extensions>
      </trkpt>
      <trkpt lat="38.02660667337477207183837890625" lon="-106.9379288144409656524658203125">
        <ele>4036.800048828125</ele>
        <time>2026-05-25T14:04:39.000Z</time>
        <extensions>
          <ns3:TrackPointExtension>
            <ns3:hr>116</ns3:hr>
            <ns3:cad>0</ns3:cad>
          </ns3:TrackPointExtension>
        </extensions>
      </trkpt>
      <trkpt lat="38.0266060866415500640869140625" lon="-106.93791858851909637451171875">
        <ele>4036.60009765625</ele>
        <time>2026-05-25T14:04:43.000Z</time>
        <extensions>
          <ns3:TrackPointExtension>
            <ns3:hr>113</ns3:hr>
            <ns3:cad>55</ns3:cad>
          </ns3:TrackPointExtension>
        </extensions>
      </trkpt>
      <trkpt lat="38.02660063840448856353759765625" lon="-106.93788799457252025604248046875">
        <ele>4036.199951171875</ele>
        <time>2026-05-25T14:04:45.000Z</time>
        <extensions>
          <ns3:TrackPointExtension>
            <ns3:hr>114</ns3:hr>
            <ns3:cad>66</ns3:cad>
          </ns3:TrackPointExtension>
        </extensions>
      </trkpt>
      <trkpt lat="38.026598207652568817138671875" lon="-106.9378654472529888153076171875">
        <ele>4035.800048828125</ele>
        <time>2026-05-25T14:04:47.000Z</time>
        <extensions>
          <ns3:TrackPointExtension>
            <ns3:hr>115</ns3:hr>
            <ns3:cad>66</ns3:cad>
          </ns3:TrackPointExtension>
        </extensions>
      </trkpt>
      <trkpt lat="38.02659829147160053253173828125" lon="-106.93785346113145351409912109375">
        <ele>4035.800048828125</ele>
        <time>2026-05-25T14:04:48.000Z</time>
        <extensions>
          <ns3:TrackPointExtension>
            <ns3:hr>115</ns3:hr>
            <ns3:cad>66</ns3:cad>
          </ns3:TrackPointExtension>
        </extensions>
      </trkpt>
      <trkpt lat="38.02658052183687686920166015625" lon="-106.93782328628003597259521484375">
        <ele>4035.199951171875</ele>
        <time>2026-05-25T14:04:52.000Z</time>
        <extensions>
          <ns3:TrackPointExtension>
            <ns3:hr>117</ns3:hr>
            <ns3:cad>0</ns3:cad>
          </ns3:TrackPointExtension>
        </extensions>
      </trkpt>
      <trkpt lat="38.02657281048595905303955078125" lon="-106.937816999852657318115234375">
        <ele>4034.800048828125</ele>
        <time>2026-05-25T14:04:53.000Z</time>
        <extensions>
          <ns3:TrackPointExtension>
            <ns3:hr>117</ns3:hr>
            <ns3:cad>18</ns3:cad>
          </ns3:TrackPointExtension>
        </extensions>
      </trkpt>
      <trkpt lat="38.02654087543487548828125" lon="-106.93779663182795047760009765625">
        <ele>4033.800048828125</ele>
        <time>2026-05-25T14:04:57.000Z</time>
        <extensions>
          <ns3:TrackPointExtension>
            <ns3:hr>118</ns3:hr>
            <ns3:cad>18</ns3:cad>
          </ns3:TrackPointExtension>
        </extensions>
      </trkpt>
      <trkpt lat="38.02651782520115375518798828125" lon="-106.9377963803708553314208984375">
        <ele>4033.199951171875</ele>
        <time>2026-05-25T14:04:59.000Z</time>
        <extensions>
          <ns3:TrackPointExtension>
            <ns3:hr>118</ns3:hr>
            <ns3:cad>0</ns3:cad>
          </ns3:TrackPointExtension>
        </extensions>
      </trkpt>
      <trkpt lat="38.02650122903287410736083984375" lon="-106.93778992630541324615478515625">
        <ele>4032.800048828125</ele>
        <time>2026-05-25T14:05:01.000Z</time>
        <extensions>
          <ns3:TrackPointExtension>
            <ns3:hr>119</ns3:hr>
            <ns3:cad>0</ns3:cad>
          </ns3:TrackPointExtension>
        </extensions>
      </trkpt>
      <trkpt lat="38.02647390402853488922119140625" lon="-106.937782131135463714599609375">
        <ele>4032.800048828125</ele>
        <time>2026-05-25T14:05:04.000Z</time>
        <extensions>
          <ns3:TrackPointExtension>
            <ns3:hr>122</ns3:hr>
            <ns3:cad>0</ns3:cad>
          </ns3:TrackPointExtension>
        </extensions>
      </trkpt>
      <trkpt lat="38.02645169198513031005859375" lon="-106.9377772696316242218017578125">
        <ele>4033</ele>
        <time>2026-05-25T14:05:06.000Z</time>
        <extensions>
          <ns3:TrackPointExtension>
            <ns3:hr>122</ns3:hr>
            <ns3:cad>0</ns3:cad>
          </ns3:TrackPointExtension>
        </extensions>
      </trkpt>
      <trkpt lat="38.02639964036643505096435546875" lon="-106.937788836658000946044921875">
        <ele>4032.800048828125</ele>
        <time>2026-05-25T14:05:12.000Z</time>
        <extensions>
          <ns3:TrackPointExtension>
            <ns3:hr>120</ns3:hr>
            <ns3:cad>45</ns3:cad>
          </ns3:TrackPointExtension>
        </extensions>
      </trkpt>
      <trkpt lat="38.02638974972069263458251953125" lon="-106.9377891719341278076171875">
        <ele>4032.800048828125</ele>
        <time>2026-05-25T14:05:13.000Z</time>
        <extensions>
          <ns3:TrackPointExtension>
            <ns3:hr>119</ns3:hr>
            <ns3:cad>48</ns3:cad>
          </ns3:TrackPointExtension>
        </extensions>
      </trkpt>
      <trkpt lat="38.02637256681919097900390625" lon="-106.93778556771576404571533203125">
        <ele>4032.39990234375</ele>
        <time>2026-05-25T14:05:15.000Z</time>
        <extensions>
          <ns3:TrackPointExtension>
            <ns3:hr>115</ns3:hr>
            <ns3:cad>48</ns3:cad>
          </ns3:TrackPointExtension>
        </extensions>
      </trkpt>
      <trkpt lat="38.0263646878302097320556640625" lon="-106.9377786107361316680908203125">
        <ele>4032.199951171875</ele>
        <time>2026-05-25T14:05:17.000Z</time>
        <extensions>
          <ns3:TrackPointExtension>
            <ns3:hr>111</ns3:hr>
            <ns3:cad>48</ns3:cad>
          </ns3:TrackPointExtension>
        </extensions>
      </trkpt>
      <trkpt lat="38.02633744664490222930908203125" lon="-106.93776746280491352081298828125">
        <ele>4031.800048828125</ele>
        <time>2026-05-25T14:05:19.000Z</time>
        <extensions>
          <ns3:TrackPointExtension>
            <ns3:hr>107</ns3:hr>
            <ns3:cad>50</ns3:cad>
          </ns3:TrackPointExtension>
        </extensions>
      </trkpt>
      <trkpt lat="38.02632319740951061248779296875" lon="-106.9377651996910572052001953125">
        <ele>4031.60009765625</ele>
        <time>2026-05-25T14:05:20.000Z</time>
        <extensions>
          <ns3:TrackPointExtension>
            <ns3:hr>106</ns3:hr>
            <ns3:cad>51</ns3:cad>
          </ns3:TrackPointExtension>
        </extensions>
      </trkpt>
      <trkpt lat="38.0263164080679416656494140625" lon="-106.93776964209973812103271484375">
        <ele>4031.60009765625</ele>
        <time>2026-05-25T14:05:21.000Z</time>
        <extensions>
          <ns3:TrackPointExtension>
            <ns3:hr>105</ns3:hr>
            <ns3:cad>51</ns3:cad>
          </ns3:TrackPointExtension>
        </extensions>
      </trkpt>
      <trkpt lat="38.02627005614340305328369140625" lon="-106.93776436150074005126953125">
        <ele>4032.60009765625</ele>
        <time>2026-05-25T14:05:26.000Z</time>
        <extensions>
          <ns3:TrackPointExtension>
            <ns3:hr>102</ns3:hr>
            <ns3:cad>49</ns3:cad>
          </ns3:TrackPointExtension>
        </extensions>
      </trkpt>
      <trkpt lat="38.0262605845928192138671875" lon="-106.9377601705491542816162109375">
        <ele>4033</ele>
        <time>2026-05-25T14:05:27.000Z</time>
        <extensions>
          <ns3:TrackPointExtension>
            <ns3:hr>101</ns3:hr>
            <ns3:cad>49</ns3:cad>
          </ns3:TrackPointExtension>
        </extensions>
      </trkpt>
      <trkpt lat="38.02623267285525798797607421875" lon="-106.9377410598099231719970703125">
        <ele>4032.800048828125</ele>
        <time>2026-05-25T14:05:30.000Z</time>
        <extensions>
          <ns3:TrackPointExtension>
            <ns3:hr>97</ns3:hr>
            <ns3:cad>48</ns3:cad>
          </ns3:TrackPointExtension>
        </extensions>
      </trkpt>
      <trkpt lat="38.02621364593505859375" lon="-106.9377360306680202484130859375">
        <ele>4031.800048828125</ele>
        <time>2026-05-25T14:05:33.000Z</time>
        <extensions>
          <ns3:TrackPointExtension>
            <ns3:hr>95</ns3:hr>
            <ns3:cad>47</ns3:cad>
          </ns3:TrackPointExtension>
        </extensions>
      </trkpt>
      <trkpt lat="38.02621238864958286285400390625" lon="-106.93773494102060794830322265625">
        <ele>4031.800048828125</ele>
        <time>2026-05-25T14:05:36.000Z</time>
        <extensions>
          <ns3:TrackPointExtension>
            <ns3:hr>94</ns3:hr>
            <ns3:cad>0</ns3:cad>
          </ns3:TrackPointExtension>
        </extensions>
      </trkpt>
      <trkpt lat="38.0261601693928241729736328125" lon="-106.93775220774114131927490234375">
        <ele>4031.800048828125</ele>
        <time>2026-05-25T14:05:42.000Z</time>
        <extensions>
          <ns3:TrackPointExtension>
            <ns3:hr>94</ns3:hr>
            <ns3:cad>46</ns3:cad>
          </ns3:TrackPointExtension>
        </extensions>
      </trkpt>
      <trkpt lat="38.02614231593906879425048828125" lon="-106.93775589577853679656982421875">
        <ele>4032.199951171875</ele>
        <time>2026-05-25T14:05:44.000Z</time>
        <extensions>
          <ns3:TrackPointExtension>
            <ns3:hr>97</ns3:hr>
            <ns3:cad>46</ns3:cad>
          </ns3:TrackPointExtension>
        </extensions>
      </trkpt>
      <trkpt lat="38.02612605504691600799560546875" lon="-106.93775631487369537353515625">
        <ele>4032.60009765625</ele>
        <time>2026-05-25T14:05:46.000Z</time>
        <extensions>
          <ns3:TrackPointExtension>
            <ns3:hr>101</ns3:hr>
            <ns3:cad>0</ns3:cad>
          </ns3:TrackPointExtension>
        </extensions>
      </trkpt>
      <trkpt lat="38.02611767314374446868896484375" lon="-106.93775807507336139678955078125">
        <ele>4032.800048828125</ele>
        <time>2026-05-25T14:05:47.000Z</time>
        <extensions>
          <ns3:TrackPointExtension>
            <ns3:hr>102</ns3:hr>
            <ns3:cad>0</ns3:cad>
          </ns3:TrackPointExtension>
        </extensions>
      </trkpt>
      <trkpt lat="38.02611079998314380645751953125" lon="-106.937755309045314788818359375">
        <ele>4032.800048828125</ele>
        <time>2026-05-25T14:05:48.000Z</time>
        <extensions>
          <ns3:TrackPointExtension>
            <ns3:hr>102</ns3:hr>
            <ns3:cad>0</ns3:cad>
          </ns3:TrackPointExtension>
        </extensions>
      </trkpt>
      <trkpt lat="38.02605338394641876220703125" lon="-106.93775765597820281982421875">
        <ele>4031.800048828125</ele>
        <time>2026-05-25T14:05:54.000Z</time>
        <extensions>
          <ns3:TrackPointExtension>
            <ns3:hr>100</ns3:hr>
            <ns3:cad>0</ns3:cad>
          </ns3:TrackPointExtension>
        </extensions>
      </trkpt>
      <trkpt lat="38.026045672595500946044921875" lon="-106.93775908090174198150634765625">
        <ele>4031.800048828125</ele>
        <time>2026-05-25T14:05:55.000Z</time>
        <extensions>
          <ns3:TrackPointExtension>
            <ns3:hr>99</ns3:hr>
            <ns3:cad>0</ns3:cad>
          </ns3:TrackPointExtension>
        </extensions>
      </trkpt>
      <trkpt lat="38.02603553049266338348388671875" lon="-106.93775740452110767364501953125">
        <ele>4031.800048828125</ele>
        <time>2026-05-25T14:05:56.000Z</time>
        <extensions>
          <ns3:TrackPointExtension>
            <ns3:hr>98</ns3:hr>
            <ns3:cad>0</ns3:cad>
          </ns3:TrackPointExtension>
        </extensions>
      </trkpt>
      <trkpt lat="38.02596394903957843780517578125" lon="-106.9377323426306247711181640625">
        <ele>4031.60009765625</ele>
        <time>2026-05-25T14:06:02.000Z</time>
        <extensions>
          <ns3:TrackPointExtension>
            <ns3:hr>99</ns3:hr>
            <ns3:cad>65</ns3:cad>
          </ns3:TrackPointExtension>
        </extensions>
      </trkpt>
      <trkpt lat="38.02595682442188262939453125" lon="-106.93771868012845516204833984375">
        <ele>4031.60009765625</ele>
        <time>2026-05-25T14:06:03.000Z</time>
        <extensions>
          <ns3:TrackPointExtension>
            <ns3:hr>100</ns3:hr>
            <ns3:cad>65</ns3:cad>
          </ns3:TrackPointExtension>
        </extensions>
      </trkpt>
      <trkpt lat="38.02592153660953044891357421875" lon="-106.93767727352678775787353515625">
        <ele>4031</ele>
        <time>2026-05-25T14:06:09.000Z</time>
        <extensions>
          <ns3:TrackPointExtension>
            <ns3:hr>102</ns3:hr>
            <ns3:cad>0</ns3:cad>
          </ns3:TrackPointExtension>
        </extensions>
      </trkpt>
      <trkpt lat="38.02588935010135173797607421875" lon="-106.9376357831060886383056640625">
        <ele>4030.60009765625</ele>
        <time>2026-05-25T14:06:13.000Z</time>
        <extensions>
          <ns3:TrackPointExtension>
            <ns3:hr>104</ns3:hr>
            <ns3:cad>0</ns3:cad>
          </ns3:TrackPointExtension>
        </extensions>
      </trkpt>
      <trkpt lat="38.02587660960853099822998046875" lon="-106.93761348724365234375">
        <ele>4029.800048828125</ele>
        <time>2026-05-25T14:06:16.000Z</time>
        <extensions>
          <ns3:TrackPointExtension>
            <ns3:hr>104</ns3:hr>
            <ns3:cad>0</ns3:cad>
          </ns3:TrackPointExtension>
        </extensions>
      </trkpt>
      <trkpt lat="38.025867640972137451171875" lon="-106.93760879337787628173828125">
        <ele>4029.60009765625</ele>
        <time>2026-05-25T14:06:17.000Z</time>
        <extensions>
          <ns3:TrackPointExtension>
            <ns3:hr>104</ns3:hr>
            <ns3:cad>0</ns3:cad>
          </ns3:TrackPointExtension>
        </extensions>
      </trkpt>
      <trkpt lat="38.025847859680652618408203125" lon="-106.9376032613217830657958984375">
        <ele>4029</ele>
        <time>2026-05-25T14:06:19.000Z</time>
        <extensions>
          <ns3:TrackPointExtension>
            <ns3:hr>104</ns3:hr>
            <ns3:cad>0</ns3:cad>
          </ns3:TrackPointExtension>
        </extensions>
      </trkpt>
      <trkpt lat="38.025836460292339324951171875" lon="-106.9375875033438205718994140625">
        <ele>4028.60009765625</ele>
        <time>2026-05-25T14:06:21.000Z</time>
        <extensions>
          <ns3:TrackPointExtension>
            <ns3:hr>104</ns3:hr>
            <ns3:cad>0</ns3:cad>
          </ns3:TrackPointExtension>
        </extensions>
      </trkpt>
      <trkpt lat="38.02583101205527782440185546875" lon="-106.9375844858586788177490234375">
        <ele>4028.39990234375</ele>
        <time>2026-05-25T14:06:22.000Z</time>
        <extensions>
          <ns3:TrackPointExtension>
            <ns3:hr>104</ns3:hr>
            <ns3:cad>0</ns3:cad>
          </ns3:TrackPointExtension>
        </extensions>
      </trkpt>
      <trkpt lat="38.02578139118850231170654296875" lon="-106.93757032044231891632080078125">
        <ele>4028</ele>
        <time>2026-05-25T14:06:28.000Z</time>
        <extensions>
          <ns3:TrackPointExtension>
            <ns3:hr>106</ns3:hr>
            <ns3:cad>0</ns3:cad>
          </ns3:TrackPointExtension>
        </extensions>
      </trkpt>
      <trkpt lat="38.0257705785334110260009765625" lon="-106.93757249973714351654052734375">
        <ele>4027.60009765625</ele>
        <time>2026-05-25T14:06:29.000Z</time>
        <extensions>
          <ns3:TrackPointExtension>
            <ns3:hr>106</ns3:hr>
            <ns3:cad>0</ns3:cad>
          </ns3:TrackPointExtension>
        </extensions>
      </trkpt>
      <trkpt lat="38.0257616937160491943359375" lon="-106.93757300265133380889892578125">
        <ele>4027.39990234375</ele>
        <time>2026-05-25T14:06:30.000Z</time>
        <extensions>
          <ns3:TrackPointExtension>
            <ns3:hr>107</ns3:hr>
            <ns3:cad>0</ns3:cad>
          </ns3:TrackPointExtension>
        </extensions>
      </trkpt>
      <trkpt lat="38.02572204731404781341552734375" lon="-106.93756562657654285430908203125">
        <ele>4026.800048828125</ele>
        <time>2026-05-25T14:06:35.000Z</time>
        <extensions>
          <ns3:TrackPointExtension>
            <ns3:hr>105</ns3:hr>
            <ns3:cad>66</ns3:cad>
          </ns3:TrackPointExtension>
        </extensions>
      </trkpt>
      <trkpt lat="38.0256746895611286163330078125" lon="-106.937551796436309814453125">
        <ele>4027.39990234375</ele>
        <time>2026-05-25T14:06:41.000Z</time>
        <extensions>
          <ns3:TrackPointExtension>
            <ns3:hr>104</ns3:hr>
            <ns3:cad>0</ns3:cad>
          </ns3:TrackPointExtension>
        </extensions>
      </trkpt>
      <trkpt lat="38.0256398208439350128173828125" lon="-106.93752958439290523529052734375">
        <ele>4027</ele>
        <time>2026-05-25T14:06:47.000Z</time>
        <extensions>
          <ns3:TrackPointExtension>
            <ns3:hr>103</ns3:hr>
            <ns3:cad>0</ns3:cad>
          </ns3:TrackPointExtension>
        </extensions>
      </trkpt>
      <trkpt lat="38.0256334505975246429443359375" lon="-106.9375231303274631500244140625">
        <ele>4026.60009765625</ele>
        <time>2026-05-25T14:06:48.000Z</time>
        <extensions>
          <ns3:TrackPointExtension>
            <ns3:hr>104</ns3:hr>
            <ns3:cad>0</ns3:cad>
          </ns3:TrackPointExtension>
        </extensions>
      </trkpt>
      <trkpt lat="38.02563085220754146575927734375" lon="-106.93752086721360683441162109375">
        <ele>4026.199951171875</ele>
        <time>2026-05-25T14:06:49.000Z</time>
        <extensions>
          <ns3:TrackPointExtension>
            <ns3:hr>105</ns3:hr>
            <ns3:cad>0</ns3:cad>
          </ns3:TrackPointExtension>
        </extensions>
      </trkpt>
      <trkpt lat="38.02560285665094852447509765625" lon="-106.9375023432075977325439453125">
        <ele>4025.199951171875</ele>
        <time>2026-05-25T14:06:54.000Z</time>
        <extensions>
          <ns3:TrackPointExtension>
            <ns3:hr>107</ns3:hr>
            <ns3:cad>17</ns3:cad>
          </ns3:TrackPointExtension>
        </extensions>
      </trkpt>
      <trkpt lat="38.02556513808667659759521484375" lon="-106.93748633377254009246826171875">
        <ele>4024.39990234375</ele>
        <time>2026-05-25T14:06:58.000Z</time>
        <extensions>
          <ns3:TrackPointExtension>
            <ns3:hr>107</ns3:hr>
            <ns3:cad>17</ns3:cad>
          </ns3:TrackPointExtension>
        </extensions>
      </trkpt>
      <trkpt lat="38.02556178532540798187255859375" lon="-106.93748197518289089202880859375">
        <ele>4024.199951171875</ele>
        <time>2026-05-25T14:07:00.000Z</time>
        <extensions>
          <ns3:TrackPointExtension>
            <ns3:hr>107</ns3:hr>
            <ns3:cad>0</ns3:cad>
          </ns3:TrackPointExtension>
        </extensions>
      </trkpt>
      <trkpt lat="38.0255546607077121734619140625" lon="-106.9374859146773815155029296875">
        <ele>4024</ele>
        <time>2026-05-25T14:07:05.000Z</time>
        <extensions>
          <ns3:TrackPointExtension>
            <ns3:hr>104</ns3:hr>
            <ns3:cad>0</ns3:cad>
          </ns3:TrackPointExtension>
        </extensions>
      </trkpt>
      <trkpt lat="38.0255546607077121734619140625" lon="-106.9374859146773815155029296875">
        <ele>4024</ele>
        <time>2026-05-25T14:07:06.000Z</time>
        <extensions>
          <ns3:TrackPointExtension>
            <ns3:hr>104</ns3:hr>
            <ns3:cad>0</ns3:cad>
          </ns3:TrackPointExtension>
        </extensions>
      </trkpt>
      <trkpt lat="38.0255546607077121734619140625" lon="-106.9374859146773815155029296875">
        <ele>4024</ele>
        <time>2026-05-25T14:07:12.000Z</time>
        <extensions>
          <ns3:TrackPointExtension>
            <ns3:hr>103</ns3:hr>
            <ns3:cad>0</ns3:cad>
          </ns3:TrackPointExtension>
        </extensions>
      </trkpt>
      <trkpt lat="38.0255556665360927581787109375" lon="-106.9374869205057621002197265625">
        <ele>4024.199951171875</ele>
        <time>2026-05-25T14:07:14.000Z</time>
        <extensions>
          <ns3:TrackPointExtension>
            <ns3:hr>102</ns3:hr>
            <ns3:cad>0</ns3:cad>
          </ns3:TrackPointExtension>
        </extensions>
      </trkpt>
      <trkpt lat="38.025561869144439697265625" lon="-106.93750225938856601715087890625">
        <ele>4024.199951171875</ele>
        <time>2026-05-25T14:07:16.000Z</time>
        <extensions>
          <ns3:TrackPointExtension>
            <ns3:hr>99</ns3:hr>
            <ns3:cad>0</ns3:cad>
          </ns3:TrackPointExtension>
        </extensions>
      </trkpt>
      <trkpt lat="38.0255523137748241424560546875" lon="-106.93755724467337131500244140625">
        <ele>4024.800048828125</ele>
        <time>2026-05-25T14:07:22.000Z</time>
        <extensions>
          <ns3:TrackPointExtension>
            <ns3:hr>97</ns3:hr>
            <ns3:cad>0</ns3:cad>
          </ns3:TrackPointExtension>
        </extensions>
      </trkpt>
      <trkpt lat="38.02554720081388950347900390625" lon="-106.93757736124098300933837890625">
        <ele>4025.199951171875</ele>
        <time>2026-05-25T14:07:27.000Z</time>
        <extensions>
          <ns3:TrackPointExtension>
            <ns3:hr>95</ns3:hr>
            <ns3:cad>0</ns3:cad>
          </ns3:TrackPointExtension>
        </extensions>
      </trkpt>
      <trkpt lat="38.02553026936948299407958984375" lon="-106.93758725188672542572021484375">
        <ele>4025.800048828125</ele>
        <time>2026-05-25T14:07:30.000Z</time>
        <extensions>
          <ns3:TrackPointExtension>
            <ns3:hr>95</ns3:hr>
            <ns3:cad>0</ns3:cad>
          </ns3:TrackPointExtension>
        </extensions>
      </trkpt>
      <trkpt lat="38.02552339620888233184814453125" lon="-106.93759261630475521087646484375">
        <ele>4026.60009765625</ele>
        <time>2026-05-25T14:07:33.000Z</time>
        <extensions>
          <ns3:TrackPointExtension>
            <ns3:hr>96</ns3:hr>
            <ns3:cad>0</ns3:cad>
          </ns3:TrackPointExtension>
        </extensions>
      </trkpt>
      <trkpt lat="38.02551367320120334625244140625" lon="-106.93761055357754230499267578125">
        <ele>4027.800048828125</ele>
        <time>2026-05-25T14:07:36.000Z</time>
        <extensions>
          <ns3:TrackPointExtension>
            <ns3:hr>97</ns3:hr>
            <ns3:cad>0</ns3:cad>
          </ns3:TrackPointExtension>
        </extensions>
      </trkpt>
      <trkpt lat="38.025483079254627227783203125" lon="-106.937654726207256317138671875">
        <ele>4028.39990234375</ele>
        <time>2026-05-25T14:07:41.000Z</time>
        <extensions>
          <ns3:TrackPointExtension>
            <ns3:hr>100</ns3:hr>
            <ns3:cad>0</ns3:cad>
          </ns3:TrackPointExtension>
        </extensions>
      </trkpt>
      <trkpt lat="38.025478385388851165771484375" lon="-106.93766972981393337249755859375">
        <ele>4028.800048828125</ele>
        <time>2026-05-25T14:07:43.000Z</time>
        <extensions>
          <ns3:TrackPointExtension>
            <ns3:hr>103</ns3:hr>
            <ns3:cad>48</ns3:cad>
          </ns3:TrackPointExtension>
        </extensions>
      </trkpt>
      <trkpt lat="38.02544276230037212371826171875" lon="-106.93768381141126155853271484375">
        <ele>4029.60009765625</ele>
        <time>2026-05-25T14:07:47.000Z</time>
        <extensions>
          <ns3:TrackPointExtension>
            <ns3:hr>103</ns3:hr>
            <ns3:cad>16</ns3:cad>
          </ns3:TrackPointExtension>
        </extensions>
      </trkpt>
      <trkpt lat="38.025430776178836822509765625" lon="-106.93769504316151142120361328125">
        <ele>4030</ele>
        <time>2026-05-25T14:07:50.000Z</time>
        <extensions>
          <ns3:TrackPointExtension>
            <ns3:hr>102</ns3:hr>
            <ns3:cad>16</ns3:cad>
          </ns3:TrackPointExtension>
        </extensions>
      </trkpt>
      <trkpt lat="38.025388531386852264404296875" lon="-106.93771918304264545440673828125">
        <ele>4030.199951171875</ele>
        <time>2026-05-25T14:07:54.000Z</time>
        <extensions>
          <ns3:TrackPointExtension>
            <ns3:hr>103</ns3:hr>
            <ns3:cad>16</ns3:cad>
          </ns3:TrackPointExtension>
        </extensions>
      </trkpt>
      <trkpt lat="38.0253739468753337860107421875" lon="-106.93773862905800342559814453125">
        <ele>4030.39990234375</ele>
        <time>2026-05-25T14:07:57.000Z</time>
        <extensions>
          <ns3:TrackPointExtension>
            <ns3:hr>106</ns3:hr>
            <ns3:cad>16</ns3:cad>
          </ns3:TrackPointExtension>
        </extensions>
      </trkpt>
      <trkpt lat="38.0253578536212444305419921875" lon="-106.93774147890508174896240234375">
        <ele>4030.60009765625</ele>
        <time>2026-05-25T14:07:59.000Z</time>
        <extensions>
          <ns3:TrackPointExtension>
            <ns3:hr>106</ns3:hr>
            <ns3:cad>0</ns3:cad>
          </ns3:TrackPointExtension>
        </extensions>
      </trkpt>
      <trkpt lat="38.0253266729414463043212890625" lon="-106.93772857077419757843017578125">
        <ele>4030.60009765625</ele>
        <time>2026-05-25T14:08:03.000Z</time>
        <extensions>
          <ns3:TrackPointExtension>
            <ns3:hr>109</ns3:hr>
            <ns3:cad>0</ns3:cad>
          </ns3:TrackPointExtension>
        </extensions>
      </trkpt>
      <trkpt lat="38.0253135971724987030029296875" lon="-106.937720440328121185302734375">
        <ele>4030.39990234375</ele>
        <time>2026-05-25T14:08:05.000Z</time>
        <extensions>
          <ns3:TrackPointExtension>
            <ns3:hr>113</ns3:hr>
            <ns3:cad>0</ns3:cad>
          </ns3:TrackPointExtension>
        </extensions>
      </trkpt>
      <trkpt lat="38.0253068916499614715576171875" lon="-106.9377087056636810302734375">
        <ele>4030.39990234375</ele>
        <time>2026-05-25T14:08:06.000Z</time>
        <extensions>
          <ns3:TrackPointExtension>
            <ns3:hr>115</ns3:hr>
            <ns3:cad>0</ns3:cad>
          </ns3:TrackPointExtension>
        </extensions>
      </trkpt>
      <trkpt lat="38.02529322914779186248779296875" lon="-106.9376954622566699981689453125">
        <ele>4030.39990234375</ele>
        <time>2026-05-25T14:08:09.000Z</time>
        <extensions>
          <ns3:TrackPointExtension>
            <ns3:hr>118</ns3:hr>
            <ns3:cad>0</ns3:cad>
          </ns3:TrackPointExtension>
        </extensions>
      </trkpt>
      <trkpt lat="38.02526238374412059783935546875" lon="-106.93769688718020915985107421875">
        <ele>4029.39990234375</ele>
        <time>2026-05-25T14:08:13.000Z</time>
        <extensions>
          <ns3:TrackPointExtension>
            <ns3:hr>119</ns3:hr>
            <ns3:cad>0</ns3:cad>
          </ns3:TrackPointExtension>
        </extensions>
      </trkpt>
      <trkpt lat="38.025238327682018280029296875" lon="-106.93767408840358257293701171875">
        <ele>4029</ele>
        <time>2026-05-25T14:08:18.000Z</time>
        <extensions>
          <ns3:TrackPointExtension>
            <ns3:hr>120</ns3:hr>
            <ns3:cad>0</ns3:cad>
          </ns3:TrackPointExtension>
        </extensions>
      </trkpt>
      <trkpt lat="38.02522533573210239410400390625" lon="-106.93765380419790744781494140625">
        <ele>4028.800048828125</ele>
        <time>2026-05-25T14:08:21.000Z</time>
        <extensions>
          <ns3:TrackPointExtension>
            <ns3:hr>120</ns3:hr>
            <ns3:cad>0</ns3:cad>
          </ns3:TrackPointExtension>
        </extensions>
      </trkpt>
      <trkpt lat="38.0252160318195819854736328125" lon="-106.93764274008572101593017578125">
        <ele>4028.199951171875</ele>
        <time>2026-05-25T14:08:25.000Z</time>
        <extensions>
          <ns3:TrackPointExtension>
            <ns3:hr>120</ns3:hr>
            <ns3:cad>0</ns3:cad>
          </ns3:TrackPointExtension>
        </extensions>
      </trkpt>
      <trkpt lat="38.02519901655614376068115234375" lon="-106.93763134069740772247314453125">
        <ele>4027.60009765625</ele>
        <time>2026-05-25T14:08:27.000Z</time>
        <extensions>
          <ns3:TrackPointExtension>
            <ns3:hr>117</ns3:hr>
            <ns3:cad>0</ns3:cad>
          </ns3:TrackPointExtension>
        </extensions>
      </trkpt>
      <trkpt lat="38.02519381977617740631103515625" lon="-106.9376163370907306671142578125">
        <ele>4027.39990234375</ele>
        <time>2026-05-25T14:08:30.000Z</time>
        <extensions>
          <ns3:TrackPointExtension>
            <ns3:hr>114</ns3:hr>
            <ns3:cad>0</ns3:cad>
          </ns3:TrackPointExtension>
        </extensions>
      </trkpt>
      <trkpt lat="38.0251888744533061981201171875" lon="-106.9376082904636859893798828125">
        <ele>4027.199951171875</ele>
        <time>2026-05-25T14:08:32.000Z</time>
        <extensions>
          <ns3:TrackPointExtension>
            <ns3:hr>111</ns3:hr>
            <ns3:cad>0</ns3:cad>
          </ns3:TrackPointExtension>
        </extensions>
      </trkpt>
      <trkpt lat="38.02514973096549510955810546875" lon="-106.93758255802094936370849609375">
        <ele>4026.60009765625</ele>
        <time>2026-05-25T14:08:37.000Z</time>
        <extensions>
          <ns3:TrackPointExtension>
            <ns3:hr>108</ns3:hr>
            <ns3:cad>0</ns3:cad>
          </ns3:TrackPointExtension>
        </extensions>
      </trkpt>
      <trkpt lat="38.02512533962726593017578125" lon="-106.93757618777453899383544921875">
        <ele>4026</ele>
        <time>2026-05-25T14:08:40.000Z</time>
        <extensions>
          <ns3:TrackPointExtension>
            <ns3:hr>111</ns3:hr>
            <ns3:cad>0</ns3:cad>
          </ns3:TrackPointExtension>
        </extensions>
      </trkpt>
      <trkpt lat="38.02511352114379405975341796875" lon="-106.937578953802585601806640625">
        <ele>4026</ele>
        <time>2026-05-25T14:08:43.000Z</time>
        <extensions>
          <ns3:TrackPointExtension>
            <ns3:hr>113</ns3:hr>
            <ns3:cad>0</ns3:cad>
          </ns3:TrackPointExtension>
        </extensions>
      </trkpt>
      <trkpt lat="38.02511352114379405975341796875" lon="-106.937578953802585601806640625">
        <ele>4025.39990234375</ele>
        <time>2026-05-25T14:08:46.000Z</time>
        <extensions>
          <ns3:TrackPointExtension>
            <ns3:hr>114</ns3:hr>
            <ns3:cad>0</ns3:cad>
          </ns3:TrackPointExtension>
        </extensions>
      </trkpt>
      <trkpt lat="38.0250899679958820343017578125" lon="-106.93755757994949817657470703125">
        <ele>4025.199951171875</ele>
        <time>2026-05-25T14:08:50.000Z</time>
        <extensions>
          <ns3:TrackPointExtension>
            <ns3:hr>114</ns3:hr>
            <ns3:cad>0</ns3:cad>
          </ns3:TrackPointExtension>
        </extensions>
      </trkpt>
      <trkpt lat="38.02503456361591815948486328125" lon="-106.9375419057905673980712890625">
        <ele>4025</ele>
        <time>2026-05-25T14:08:56.000Z</time>
        <extensions>
          <ns3:TrackPointExtension>
            <ns3:hr>113</ns3:hr>
            <ns3:cad>47</ns3:cad>
          </ns3:TrackPointExtension>
        </extensions>
      </trkpt>
      <trkpt lat="38.02503456361591815948486328125" lon="-106.9375419057905673980712890625">
        <ele>4024.800048828125</ele>
        <time>2026-05-25T14:08:57.000Z</time>
        <extensions>
          <ns3:TrackPointExtension>
            <ns3:hr>113</ns3:hr>
            <ns3:cad>47</ns3:cad>
          </ns3:TrackPointExtension>
        </extensions>
      </trkpt>
      <trkpt lat="38.0249880440533161163330078125" lon="-106.93751617334783077239990234375">
        <ele>4025</ele>
        <time>2026-05-25T14:09:01.000Z</time>
        <extensions>
          <ns3:TrackPointExtension>
            <ns3:hr>110</ns3:hr>
            <ns3:cad>52</ns3:cad>
          </ns3:TrackPointExtension>
        </extensions>
      </trkpt>
      <trkpt lat="38.02497538737952709197998046875" lon="-106.9374968111515045166015625">
        <ele>4024.800048828125</ele>
        <time>2026-05-25T14:09:03.000Z</time>
        <extensions>
          <ns3:TrackPointExtension>
            <ns3:hr>109</ns3:hr>
            <ns3:cad>52</ns3:cad>
          </ns3:TrackPointExtension>
        </extensions>
      </trkpt>
      <trkpt lat="38.02495057694613933563232421875" lon="-106.9374807178974151611328125">
        <ele>4025</ele>
        <time>2026-05-25T14:09:06.000Z</time>
        <extensions>
          <ns3:TrackPointExtension>
            <ns3:hr>105</ns3:hr>
            <ns3:cad>52</ns3:cad>
          </ns3:TrackPointExtension>
        </extensions>
      </trkpt>
      <trkpt lat="38.0249183066189289093017578125" lon="-106.9374617747962474822998046875">
        <ele>4025.39990234375</ele>
        <time>2026-05-25T14:09:09.000Z</time>
        <extensions>
          <ns3:TrackPointExtension>
            <ns3:hr>102</ns3:hr>
            <ns3:cad>0</ns3:cad>
          </ns3:TrackPointExtension>
        </extensions>
      </trkpt>
      <trkpt lat="38.02491210401058197021484375" lon="-106.9374577514827251434326171875">
        <ele>4025.60009765625</ele>
        <time>2026-05-25T14:09:10.000Z</time>
        <extensions>
          <ns3:TrackPointExtension>
            <ns3:hr>101</ns3:hr>
            <ns3:cad>0</ns3:cad>
          </ns3:TrackPointExtension>
        </extensions>
      </trkpt>
      <trkpt lat="38.02486977539956569671630859375" lon="-106.93740234710276126861572265625">
        <ele>4025</ele>
        <time>2026-05-25T14:09:16.000Z</time>
        <extensions>
          <ns3:TrackPointExtension>
            <ns3:hr>101</ns3:hr>
            <ns3:cad>0</ns3:cad>
          </ns3:TrackPointExtension>
        </extensions>
      </trkpt>
      <trkpt lat="38.02485954947769641876220703125" lon="-106.9373789615929126739501953125">
        <ele>4025</ele>
        <time>2026-05-25T14:09:17.000Z</time>
        <extensions>
          <ns3:TrackPointExtension>
            <ns3:hr>100</ns3:hr>
            <ns3:cad>0</ns3:cad>
          </ns3:TrackPointExtension>
        </extensions>
      </trkpt>
      <trkpt lat="38.02484580315649509429931640625" lon="-106.93737653084099292755126953125">
        <ele>4025</ele>
        <time>2026-05-25T14:09:18.000Z</time>
        <extensions>
          <ns3:TrackPointExtension>
            <ns3:hr>101</ns3:hr>
            <ns3:cad>0</ns3:cad>
          </ns3:TrackPointExtension>
        </extensions>
      </trkpt>
      <trkpt lat="38.02480557002127170562744140625" lon="-106.9373452663421630859375">
        <ele>4024.800048828125</ele>
        <time>2026-05-25T14:09:23.000Z</time>
        <extensions>
          <ns3:TrackPointExtension>
            <ns3:hr>100</ns3:hr>
            <ns3:cad>0</ns3:cad>
          </ns3:TrackPointExtension>
        </extensions>
      </trkpt>
      <trkpt lat="38.02475946955382823944091796875" lon="-106.93729656748473644256591796875">
        <ele>4024.39990234375</ele>
        <time>2026-05-25T14:09:29.000Z</time>
        <extensions>
          <ns3:TrackPointExtension>
            <ns3:hr>102</ns3:hr>
            <ns3:cad>0</ns3:cad>
          </ns3:TrackPointExtension>
        </extensions>
      </trkpt>
      <trkpt lat="38.02475024946033954620361328125" lon="-106.9372902810573577880859375">
        <ele>4024.39990234375</ele>
        <time>2026-05-25T14:09:30.000Z</time>
        <extensions>
          <ns3:TrackPointExtension>
            <ns3:hr>102</ns3:hr>
            <ns3:cad>0</ns3:cad>
          </ns3:TrackPointExtension>
        </extensions>
      </trkpt>
      <trkpt lat="38.02469040267169475555419921875" lon="-106.93728818558156490325927734375">
        <ele>4024.39990234375</ele>
        <time>2026-05-25T14:09:36.000Z</time>
        <extensions>
          <ns3:TrackPointExtension>
            <ns3:hr>104</ns3:hr>
            <ns3:cad>52</ns3:cad>
          </ns3:TrackPointExtension>
        </extensions>
      </trkpt>
      <trkpt lat="38.02468436770141124725341796875" lon="-106.9372894428670406341552734375">
        <ele>4024.39990234375</ele>
        <time>2026-05-25T14:09:37.000Z</time>
        <extensions>
          <ns3:TrackPointExtension>
            <ns3:hr>104</ns3:hr>
            <ns3:cad>52</ns3:cad>
          </ns3:TrackPointExtension>
        </extensions>
      </trkpt>
      <trkpt lat="38.0246289633214473724365234375" lon="-106.93728399462997913360595703125">
        <ele>4024.199951171875</ele>
        <time>2026-05-25T14:09:43.000Z</time>
        <extensions>
          <ns3:TrackPointExtension>
            <ns3:hr>103</ns3:hr>
            <ns3:cad>0</ns3:cad>
          </ns3:TrackPointExtension>
        </extensions>
      </trkpt>
      <trkpt lat="38.024611361324787139892578125" lon="-106.9372902810573577880859375">
        <ele>4024.39990234375</ele>
        <time>2026-05-25T14:09:45.000Z</time>
        <extensions>
          <ns3:TrackPointExtension>
            <ns3:hr>102</ns3:hr>
            <ns3:cad>0</ns3:cad>
          </ns3:TrackPointExtension>
        </extensions>
      </trkpt>
      <trkpt lat="38.02456500940024852752685546875" lon="-106.937282569706439971923828125">
        <ele>4024.60009765625</ele>
        <time>2026-05-25T14:09:51.000Z</time>
        <extensions>
          <ns3:TrackPointExtension>
            <ns3:hr>101</ns3:hr>
            <ns3:cad>0</ns3:cad>
          </ns3:TrackPointExtension>
        </extensions>
      </trkpt>
      <trkpt lat="38.02455008961260318756103515625" lon="-106.93727645091712474822998046875">
        <ele>4024.800048828125</ele>
        <time>2026-05-25T14:09:53.000Z</time>
        <extensions>
          <ns3:TrackPointExtension>
            <ns3:hr>102</ns3:hr>
            <ns3:cad>0</ns3:cad>
          </ns3:TrackPointExtension>
        </extensions>
      </trkpt>
      <trkpt lat="38.02449761889874935150146484375" lon="-106.93724669516086578369140625">
        <ele>4025</ele>
        <time>2026-05-25T14:09:59.000Z</time>
        <extensions>
          <ns3:TrackPointExtension>
            <ns3:hr>101</ns3:hr>
            <ns3:cad>0</ns3:cad>
          </ns3:TrackPointExtension>
        </extensions>
      </trkpt>
      <trkpt lat="38.02448839880526065826416015625" lon="-106.937243677675724029541015625">
        <ele>4024.800048828125</ele>
        <time>2026-05-25T14:10:00.000Z</time>
        <extensions>
          <ns3:TrackPointExtension>
            <ns3:hr>102</ns3:hr>
            <ns3:cad>0</ns3:cad>
          </ns3:TrackPointExtension>
        </extensions>
      </trkpt>
      <trkpt lat="38.02444196306169033050537109375" lon="-106.93723672069609165191650390625">
        <ele>4025.39990234375</ele>
        <time>2026-05-25T14:10:06.000Z</time>
        <extensions>
          <ns3:TrackPointExtension>
            <ns3:hr>102</ns3:hr>
            <ns3:cad>0</ns3:cad>
          </ns3:TrackPointExtension>
        </extensions>
      </trkpt>
      <trkpt lat="38.0244321562349796295166015625" lon="-106.93723169155418872833251953125">
        <ele>4025.60009765625</ele>
        <time>2026-05-25T14:10:07.000Z</time>
        <extensions>
          <ns3:TrackPointExtension>
            <ns3:hr>102</ns3:hr>
            <ns3:cad>0</ns3:cad>
          </ns3:TrackPointExtension>
        </extensions>
      </trkpt>
      <trkpt lat="38.0243939347565174102783203125" lon="-106.93720822222530841827392578125">
        <ele>4025.39990234375</ele>
        <time>2026-05-25T14:10:10.000Z</time>
        <extensions>
          <ns3:TrackPointExtension>
            <ns3:hr>105</ns3:hr>
            <ns3:cad>47</ns3:cad>
          </ns3:TrackPointExtension>
        </extensions>
      </trkpt>
      <trkpt lat="38.02438312210142612457275390625" lon="-106.93720034323632717132568359375">
        <ele>4025.199951171875</ele>
        <time>2026-05-25T14:10:12.000Z</time>
        <extensions>
          <ns3:TrackPointExtension>
            <ns3:hr>108</ns3:hr>
            <ns3:cad>45</ns3:cad>
          </ns3:TrackPointExtension>
        </extensions>
      </trkpt>
      <trkpt lat="38.02436736412346363067626953125" lon="-106.93718357942998409271240234375">
        <ele>4025</ele>
        <time>2026-05-25T14:10:14.000Z</time>
        <extensions>
          <ns3:TrackPointExtension>
            <ns3:hr>111</ns3:hr>
            <ns3:cad>45</ns3:cad>
          </ns3:TrackPointExtension>
        </extensions>
      </trkpt>
      <trkpt lat="38.0243292264640331268310546875" lon="-106.93715876899659633636474609375">
        <ele>4025</ele>
        <time>2026-05-25T14:10:18.000Z</time>
        <extensions>
          <ns3:TrackPointExtension>
            <ns3:hr>113</ns3:hr>
            <ns3:cad>47</ns3:cad>
          </ns3:TrackPointExtension>
        </extensions>
      </trkpt>
      <trkpt lat="38.0242889933288097381591796875" lon="-106.93712540902197360992431640625">
        <ele>4024.60009765625</ele>
        <time>2026-05-25T14:10:24.000Z</time>
        <extensions>
          <ns3:TrackPointExtension>
            <ns3:hr>113</ns3:hr>
            <ns3:cad>45</ns3:cad>
          </ns3:TrackPointExtension>
        </extensions>
      </trkpt>
      <trkpt lat="38.024260997772216796875" lon="-106.9371090643107891082763671875">
        <ele>4024.39990234375</ele>
        <time>2026-05-25T14:10:26.000Z</time>
        <extensions>
          <ns3:TrackPointExtension>
            <ns3:hr>113</ns3:hr>
            <ns3:cad>0</ns3:cad>
          </ns3:TrackPointExtension>
        </extensions>
      </trkpt>
      <trkpt lat="38.02421464584767818450927734375" lon="-106.93705466575920581817626953125">
        <ele>4024</ele>
        <time>2026-05-25T14:10:31.000Z</time>
        <extensions>
          <ns3:TrackPointExtension>
            <ns3:hr>112</ns3:hr>
            <ns3:cad>0</ns3:cad>
          </ns3:TrackPointExtension>
        </extensions>
      </trkpt>
      <trkpt lat="38.02416242659091949462890625" lon="-106.93700638599693775177001953125">
        <ele>4024.199951171875</ele>
        <time>2026-05-25T14:10:37.000Z</time>
        <extensions>
          <ns3:TrackPointExtension>
            <ns3:hr>114</ns3:hr>
            <ns3:cad>53</ns3:cad>
          </ns3:TrackPointExtension>
        </extensions>
      </trkpt>
      <trkpt lat="38.02414474077522754669189453125" lon="-106.93699230439960956573486328125">
        <ele>4024.199951171875</ele>
        <time>2026-05-25T14:10:39.000Z</time>
        <extensions>
          <ns3:TrackPointExtension>
            <ns3:hr>113</ns3:hr>
            <ns3:cad>53</ns3:cad>
          </ns3:TrackPointExtension>
        </extensions>
      </trkpt>
      <trkpt lat="38.0240879952907562255859375" lon="-106.93696514703333377838134765625">
        <ele>4024.60009765625</ele>
        <time>2026-05-25T14:10:45.000Z</time>
        <extensions>
          <ns3:TrackPointExtension>
            <ns3:hr>115</ns3:hr>
            <ns3:cad>0</ns3:cad>
          </ns3:TrackPointExtension>
        </extensions>
      </trkpt>
      <trkpt lat="38.02408154122531414031982421875" lon="-106.93695609457790851593017578125">
        <ele>4024.60009765625</ele>
        <time>2026-05-25T14:10:46.000Z</time>
        <extensions>
          <ns3:TrackPointExtension>
            <ns3:hr>114</ns3:hr>
            <ns3:cad>0</ns3:cad>
          </ns3:TrackPointExtension>
        </extensions>
      </trkpt>
      <trkpt lat="38.02403359673917293548583984375" lon="-106.93692617118358612060546875">
        <ele>4024.800048828125</ele>
        <time>2026-05-25T14:10:52.000Z</time>
        <extensions>
          <ns3:TrackPointExtension>
            <ns3:hr>115</ns3:hr>
            <ns3:cad>0</ns3:cad>
          </ns3:TrackPointExtension>
        </extensions>
      </trkpt>
      <trkpt lat="38.02402672357857227325439453125" lon="-106.9369161128997802734375">
        <ele>4024.60009765625</ele>
        <time>2026-05-25T14:10:53.000Z</time>
        <extensions>
          <ns3:TrackPointExtension>
            <ns3:hr>115</ns3:hr>
            <ns3:cad>57</ns3:cad>
          </ns3:TrackPointExtension>
        </extensions>
      </trkpt>
      <trkpt lat="38.02397190593183040618896484375" lon="-106.9368797354400157928466796875">
        <ele>4024.60009765625</ele>
        <time>2026-05-25T14:10:59.000Z</time>
        <extensions>
          <ns3:TrackPointExtension>
            <ns3:hr>116</ns3:hr>
            <ns3:cad>57</ns3:cad>
          </ns3:TrackPointExtension>
        </extensions>
      </trkpt>
      <trkpt lat="38.02396553568542003631591796875" lon="-106.93687311373651027679443359375">
        <ele>4024.39990234375</ele>
        <time>2026-05-25T14:11:00.000Z</time>
        <extensions>
          <ns3:TrackPointExtension>
            <ns3:hr>116</ns3:hr>
            <ns3:cad>52</ns3:cad>
          </ns3:TrackPointExtension>
        </extensions>
      </trkpt>
      <trkpt lat="38.02392647601664066314697265625" lon="-106.93682148121297359466552734375">
        <ele>4024.60009765625</ele>
        <time>2026-05-25T14:11:06.000Z</time>
        <extensions>
          <ns3:TrackPointExtension>
            <ns3:hr>116</ns3:hr>
            <ns3:cad>49</ns3:cad>
          </ns3:TrackPointExtension>
        </extensions>
      </trkpt>
      <trkpt lat="38.023890517652034759521484375" lon="-106.936747469007968902587890625">
        <ele>4024.39990234375</ele>
        <time>2026-05-25T14:11:12.000Z</time>
        <extensions>
          <ns3:TrackPointExtension>
            <ns3:hr>118</ns3:hr>
            <ns3:cad>49</ns3:cad>
          </ns3:TrackPointExtension>
        </extensions>
      </trkpt>
      <trkpt lat="38.02385992370545864105224609375" lon="-106.93669239990413188934326171875">
        <ele>4024</ele>
        <time>2026-05-25T14:11:18.000Z</time>
        <extensions>
          <ns3:TrackPointExtension>
            <ns3:hr>119</ns3:hr>
            <ns3:cad>0</ns3:cad>
          </ns3:TrackPointExtension>
        </extensions>
      </trkpt>
      <trkpt lat="38.0238574929535388946533203125" lon="-106.93668116815388202667236328125">
        <ele>4024.199951171875</ele>
        <time>2026-05-25T14:11:19.000Z</time>
        <extensions>
          <ns3:TrackPointExtension>
            <ns3:hr>119</ns3:hr>
            <ns3:cad>0</ns3:cad>
          </ns3:TrackPointExtension>
        </extensions>
      </trkpt>
      <trkpt lat="38.02383678965270519256591796875" lon="-106.93660908378660678863525390625">
        <ele>4023.800048828125</ele>
        <time>2026-05-25T14:11:25.000Z</time>
        <extensions>
          <ns3:TrackPointExtension>
            <ns3:hr>120</ns3:hr>
            <ns3:cad>0</ns3:cad>
          </ns3:TrackPointExtension>
        </extensions>
      </trkpt>
      <trkpt lat="38.0238276533782482147216796875" lon="-106.93658427335321903228759765625">
        <ele>4023.39990234375</ele>
        <time>2026-05-25T14:11:27.000Z</time>
        <extensions>
          <ns3:TrackPointExtension>
            <ns3:hr>119</ns3:hr>
            <ns3:cad>0</ns3:cad>
          </ns3:TrackPointExtension>
        </extensions>
      </trkpt>
      <trkpt lat="38.0238098837435245513916015625" lon="-106.9365035556256771087646484375">
        <ele>4023</ele>
        <time>2026-05-25T14:11:33.000Z</time>
        <extensions>
          <ns3:TrackPointExtension>
            <ns3:hr>119</ns3:hr>
            <ns3:cad>0</ns3:cad>
          </ns3:TrackPointExtension>
        </extensions>
      </trkpt>
      <trkpt lat="38.023782558739185333251953125" lon="-106.93645603023469448089599609375">
        <ele>4022.199951171875</ele>
        <time>2026-05-25T14:11:37.000Z</time>
        <extensions>
          <ns3:TrackPointExtension>
            <ns3:hr>117</ns3:hr>
            <ns3:cad>0</ns3:cad>
          </ns3:TrackPointExtension>
        </extensions>
      </trkpt>
      <trkpt lat="38.02375665865838527679443359375" lon="-106.93642920814454555511474609375">
        <ele>4022.199951171875</ele>
        <time>2026-05-25T14:11:41.000Z</time>
        <extensions>
          <ns3:TrackPointExtension>
            <ns3:hr>116</ns3:hr>
            <ns3:cad>0</ns3:cad>
          </ns3:TrackPointExtension>
        </extensions>
      </trkpt>
      <trkpt lat="38.02373385988175868988037109375" lon="-106.93638394586741924285888671875">
        <ele>4022.39990234375</ele>
        <time>2026-05-25T14:11:47.000Z</time>
        <extensions>
          <ns3:TrackPointExtension>
            <ns3:hr>118</ns3:hr>
            <ns3:cad>0</ns3:cad>
          </ns3:TrackPointExtension>
        </extensions>
      </trkpt>
      <trkpt lat="38.02373385988175868988037109375" lon="-106.93638394586741924285888671875">
        <ele>4022.39990234375</ele>
        <time>2026-05-25T14:11:48.000Z</time>
        <extensions>
          <ns3:TrackPointExtension>
            <ns3:hr>118</ns3:hr>
            <ns3:cad>0</ns3:cad>
          </ns3:TrackPointExtension>
        </extensions>
      </trkpt>
      <trkpt lat="38.02368457429111003875732421875" lon="-106.93632225506007671356201171875">
        <ele>4022.39990234375</ele>
        <time>2026-05-25T14:11:54.000Z</time>
        <extensions>
          <ns3:TrackPointExtension>
            <ns3:hr>118</ns3:hr>
            <ns3:cad>0</ns3:cad>
          </ns3:TrackPointExtension>
        </extensions>
      </trkpt>
      <trkpt lat="38.023655153810977935791015625" lon="-106.93627095781266689300537109375">
        <ele>4022.800048828125</ele>
        <time>2026-05-25T14:12:00.000Z</time>
        <extensions>
          <ns3:TrackPointExtension>
            <ns3:hr>117</ns3:hr>
            <ns3:cad>0</ns3:cad>
          </ns3:TrackPointExtension>
        </extensions>
      </trkpt>
      <trkpt lat="38.0236506275832653045654296875" lon="-106.93626173771917819976806640625">
        <ele>4022.800048828125</ele>
        <time>2026-05-25T14:12:01.000Z</time>
        <extensions>
          <ns3:TrackPointExtension>
            <ns3:hr>117</ns3:hr>
            <ns3:cad>0</ns3:cad>
          </ns3:TrackPointExtension>
        </extensions>
      </trkpt>
      <trkpt lat="38.02362866699695587158203125" lon="-106.93620038218796253204345703125">
        <ele>4022.800048828125</ele>
        <time>2026-05-25T14:12:07.000Z</time>
        <extensions>
          <ns3:TrackPointExtension>
            <ns3:hr>117</ns3:hr>
            <ns3:cad>0</ns3:cad>
          </ns3:TrackPointExtension>
        </extensions>
      </trkpt>
      <trkpt lat="38.0236264877021312713623046875" lon="-106.936195604503154754638671875">
        <ele>4022.800048828125</ele>
        <time>2026-05-25T14:12:08.000Z</time>
        <extensions>
          <ns3:TrackPointExtension>
            <ns3:hr>115</ns3:hr>
            <ns3:cad>0</ns3:cad>
          </ns3:TrackPointExtension>
        </extensions>
      </trkpt>
      <trkpt lat="38.02362204529345035552978515625" lon="-106.93615227006375789642333984375">
        <ele>4023</ele>
        <time>2026-05-25T14:12:12.000Z</time>
        <extensions>
          <ns3:TrackPointExtension>
            <ns3:hr>111</ns3:hr>
            <ns3:cad>0</ns3:cad>
          </ns3:TrackPointExtension>
        </extensions>
      </trkpt>
      <trkpt lat="38.0236194469034671783447265625" lon="-106.93612075410783290863037109375">
        <ele>4023</ele>
        <time>2026-05-25T14:12:14.000Z</time>
        <extensions>
          <ns3:TrackPointExtension>
            <ns3:hr>110</ns3:hr>
            <ns3:cad>0</ns3:cad>
          </ns3:TrackPointExtension>
        </extensions>
      </trkpt>
      <trkpt lat="38.0236110650002956390380859375" lon="-106.93605403415858745574951171875">
        <ele>4022.800048828125</ele>
        <time>2026-05-25T14:12:19.000Z</time>
        <extensions>
          <ns3:TrackPointExtension>
            <ns3:hr>108</ns3:hr>
            <ns3:cad>0</ns3:cad>
          </ns3:TrackPointExtension>
        </extensions>
      </trkpt>
      <trkpt lat="38.0235922895371913909912109375" lon="-106.9360053353011608123779296875">
        <ele>4022.800048828125</ele>
        <time>2026-05-25T14:12:24.000Z</time>
        <extensions>
          <ns3:TrackPointExtension>
            <ns3:hr>105</ns3:hr>
            <ns3:cad>0</ns3:cad>
          </ns3:TrackPointExtension>
        </extensions>
      </trkpt>
      <trkpt lat="38.02358902059495449066162109375" lon="-106.9359966181218624114990234375">
        <ele>4022.800048828125</ele>
        <time>2026-05-25T14:12:25.000Z</time>
        <extensions>
          <ns3:TrackPointExtension>
            <ns3:hr>104</ns3:hr>
            <ns3:cad>0</ns3:cad>
          </ns3:TrackPointExtension>
        </extensions>
      </trkpt>
      <trkpt lat="38.02356756292283535003662109375" lon="-106.9359446503221988677978515625">
        <ele>4022.60009765625</ele>
        <time>2026-05-25T14:12:30.000Z</time>
        <extensions>
          <ns3:TrackPointExtension>
            <ns3:hr>103</ns3:hr>
            <ns3:cad>57</ns3:cad>
          </ns3:TrackPointExtension>
        </extensions>
      </trkpt>
      <trkpt lat="38.02356119267642498016357421875" lon="-106.93591372109949588775634765625">
        <ele>4022.60009765625</ele>
        <time>2026-05-25T14:12:32.000Z</time>
        <extensions>
          <ns3:TrackPointExtension>
            <ns3:hr>107</ns3:hr>
            <ns3:cad>0</ns3:cad>
          </ns3:TrackPointExtension>
        </extensions>
      </trkpt>
      <trkpt lat="38.0235527269542217254638671875" lon="-106.935885809361934661865234375">
        <ele>4022.800048828125</ele>
        <time>2026-05-25T14:12:35.000Z</time>
        <extensions>
          <ns3:TrackPointExtension>
            <ns3:hr>108</ns3:hr>
            <ns3:cad>0</ns3:cad>
          </ns3:TrackPointExtension>
        </extensions>
      </trkpt>
      <trkpt lat="38.0235356278717517852783203125" lon="-106.935834176838397979736328125">
        <ele>4023.199951171875</ele>
        <time>2026-05-25T14:12:40.000Z</time>
        <extensions>
          <ns3:TrackPointExtension>
            <ns3:hr>108</ns3:hr>
            <ns3:cad>0</ns3:cad>
          </ns3:TrackPointExtension>
        </extensions>
      </trkpt>
      <trkpt lat="38.02353344857692718505859375" lon="-106.93581514991819858551025390625">
        <ele>4023.60009765625</ele>
        <time>2026-05-25T14:12:42.000Z</time>
        <extensions>
          <ns3:TrackPointExtension>
            <ns3:hr>107</ns3:hr>
            <ns3:cad>0</ns3:cad>
          </ns3:TrackPointExtension>
        </extensions>
      </trkpt>
      <trkpt lat="38.0235094763338565826416015625" lon="-106.93576016463339328765869140625">
        <ele>4024</ele>
        <time>2026-05-25T14:12:48.000Z</time>
        <extensions>
          <ns3:TrackPointExtension>
            <ns3:hr>106</ns3:hr>
            <ns3:cad>57</ns3:cad>
          </ns3:TrackPointExtension>
        </extensions>
      </trkpt>
      <trkpt lat="38.02350570447742938995361328125" lon="-106.93575270473957061767578125">
        <ele>4024</ele>
        <time>2026-05-25T14:12:49.000Z</time>
        <extensions>
          <ns3:TrackPointExtension>
            <ns3:hr>106</ns3:hr>
            <ns3:cad>0</ns3:cad>
          </ns3:TrackPointExtension>
        </extensions>
      </trkpt>
      <trkpt lat="38.02349162288010120391845703125" lon="-106.93573786877095699310302734375">
        <ele>4023.800048828125</ele>
        <time>2026-05-25T14:12:53.000Z</time>
        <extensions>
          <ns3:TrackPointExtension>
            <ns3:hr>109</ns3:hr>
            <ns3:cad>0</ns3:cad>
          </ns3:TrackPointExtension>
        </extensions>
      </trkpt>
      <trkpt lat="38.02349581383168697357177734375" lon="-106.9357404671609401702880859375">
        <ele>4024.199951171875</ele>
        <time>2026-05-25T14:12:57.000Z</time>
        <extensions>
          <ns3:TrackPointExtension>
            <ns3:hr>111</ns3:hr>
            <ns3:cad>0</ns3:cad>
          </ns3:TrackPointExtension>
        </extensions>
      </trkpt>
      <trkpt lat="38.02349581383168697357177734375" lon="-106.9357404671609401702880859375">
        <ele>4024.199951171875</ele>
        <time>2026-05-25T14:12:58.000Z</time>
        <extensions>
          <ns3:TrackPointExtension>
            <ns3:hr>112</ns3:hr>
            <ns3:cad>0</ns3:cad>
          </ns3:TrackPointExtension>
        </extensions>
      </trkpt>
      <trkpt lat="38.02349581383168697357177734375" lon="-106.9357404671609401702880859375">
        <ele>4024.199951171875</ele>
        <time>2026-05-25T14:13:04.000Z</time>
        <extensions>
          <ns3:TrackPointExtension>
            <ns3:hr>110</ns3:hr>
            <ns3:cad>0</ns3:cad>
          </ns3:TrackPointExtension>
        </extensions>
      </trkpt>
      <trkpt lat="38.02349581383168697357177734375" lon="-106.9357404671609401702880859375">
        <ele>4023.60009765625</ele>
        <time>2026-05-25T14:13:10.000Z</time>
        <extensions>
          <ns3:TrackPointExtension>
            <ns3:hr>107</ns3:hr>
            <ns3:cad>0</ns3:cad>
          </ns3:TrackPointExtension>
        </extensions>
      </trkpt>
      <trkpt lat="38.02349581383168697357177734375" lon="-106.9357404671609401702880859375">
        <ele>4023.39990234375</ele>
        <time>2026-05-25T14:13:11.000Z</time>
        <extensions>
          <ns3:TrackPointExtension>
            <ns3:hr>107</ns3:hr>
            <ns3:cad>0</ns3:cad>
          </ns3:TrackPointExtension>
        </extensions>
      </trkpt>
      <trkpt lat="38.02349665202200412750244140625" lon="-106.93572227843105792999267578125">
        <ele>4023.800048828125</ele>
        <time>2026-05-25T14:13:16.000Z</time>
        <extensions>
          <ns3:TrackPointExtension>
            <ns3:hr>110</ns3:hr>
            <ns3:cad>0</ns3:cad>
          </ns3:TrackPointExtension>
        </extensions>
      </trkpt>
      <trkpt lat="38.02349162288010120391845703125" lon="-106.93570283241569995880126953125">
        <ele>4024.199951171875</ele>
        <time>2026-05-25T14:13:18.000Z</time>
        <extensions>
          <ns3:TrackPointExtension>
            <ns3:hr>110</ns3:hr>
            <ns3:cad>0</ns3:cad>
          </ns3:TrackPointExtension>
        </extensions>
      </trkpt>
      <trkpt lat="38.02348625846207141876220703125" lon="-106.93568992428481578826904296875">
        <ele>4024.39990234375</ele>
        <time>2026-05-25T14:13:20.000Z</time>
        <extensions>
          <ns3:TrackPointExtension>
            <ns3:hr>107</ns3:hr>
            <ns3:cad>0</ns3:cad>
          </ns3:TrackPointExtension>
        </extensions>
      </trkpt>
      <trkpt lat="38.02348106168210506439208984375" lon="-106.93568204529583454132080078125">
        <ele>4024.39990234375</ele>
        <time>2026-05-25T14:13:22.000Z</time>
        <extensions>
          <ns3:TrackPointExtension>
            <ns3:hr>104</ns3:hr>
            <ns3:cad>0</ns3:cad>
          </ns3:TrackPointExtension>
        </extensions>
      </trkpt>
      <trkpt lat="38.02348106168210506439208984375" lon="-106.935681961476802825927734375">
        <ele>4024</ele>
        <time>2026-05-25T14:13:24.000Z</time>
        <extensions>
          <ns3:TrackPointExtension>
            <ns3:hr>103</ns3:hr>
            <ns3:cad>0</ns3:cad>
          </ns3:TrackPointExtension>
        </extensions>
      </trkpt>
      <trkpt lat="38.02346815355122089385986328125" lon="-106.9356606714427471160888671875">
        <ele>4024.199951171875</ele>
        <time>2026-05-25T14:13:30.000Z</time>
        <extensions>
          <ns3:TrackPointExtension>
            <ns3:hr>103</ns3:hr>
            <ns3:cad>0</ns3:cad>
          </ns3:TrackPointExtension>
        </extensions>
      </trkpt>
      <trkpt lat="38.02346396259963512420654296875" lon="-106.9356546364724636077880859375">
        <ele>4024.199951171875</ele>
        <time>2026-05-25T14:13:31.000Z</time>
        <extensions>
          <ns3:TrackPointExtension>
            <ns3:hr>103</ns3:hr>
            <ns3:cad>0</ns3:cad>
          </ns3:TrackPointExtension>
        </extensions>
      </trkpt>
      <trkpt lat="38.02343697287142276763916015625" lon="-106.935616917908191680908203125">
        <ele>4025.39990234375</ele>
        <time>2026-05-25T14:13:37.000Z</time>
        <extensions>
          <ns3:TrackPointExtension>
            <ns3:hr>105</ns3:hr>
            <ns3:cad>0</ns3:cad>
          </ns3:TrackPointExtension>
        </extensions>
      </trkpt>
      <trkpt lat="38.023418448865413665771484375" lon="-106.93559889681637287139892578125">
        <ele>4026.199951171875</ele>
        <time>2026-05-25T14:13:43.000Z</time>
        <extensions>
          <ns3:TrackPointExtension>
            <ns3:hr>107</ns3:hr>
            <ns3:cad>0</ns3:cad>
          </ns3:TrackPointExtension>
        </extensions>
      </trkpt>
      <trkpt lat="38.02341409027576446533203125" lon="-106.93559789098799228668212890625">
        <ele>4026.39990234375</ele>
        <time>2026-05-25T14:13:44.000Z</time>
        <extensions>
          <ns3:TrackPointExtension>
            <ns3:hr>108</ns3:hr>
            <ns3:cad>0</ns3:cad>
          </ns3:TrackPointExtension>
        </extensions>
      </trkpt>
      <trkpt lat="38.0234119109809398651123046875" lon="-106.93559755571186542510986328125">
        <ele>4026.39990234375</ele>
        <time>2026-05-25T14:13:45.000Z</time>
        <extensions>
          <ns3:TrackPointExtension>
            <ns3:hr>108</ns3:hr>
            <ns3:cad>0</ns3:cad>
          </ns3:TrackPointExtension>
        </extensions>
      </trkpt>
      <trkpt lat="38.02340378053486347198486328125" lon="-106.93559311330318450927734375">
        <ele>4026.39990234375</ele>
        <time>2026-05-25T14:13:48.000Z</time>
        <extensions>
          <ns3:TrackPointExtension>
            <ns3:hr>105</ns3:hr>
            <ns3:cad>0</ns3:cad>
          </ns3:TrackPointExtension>
        </extensions>
      </trkpt>
      <trkpt lat="38.0233763717114925384521484375" lon="-106.93556872196495532989501953125">
        <ele>4027.199951171875</ele>
        <time>2026-05-25T14:13:52.000Z</time>
        <extensions>
          <ns3:TrackPointExtension>
            <ns3:hr>103</ns3:hr>
            <ns3:cad>0</ns3:cad>
          </ns3:TrackPointExtension>
        </extensions>
      </trkpt>
      <trkpt lat="38.0233619548380374908447265625" lon="-106.93555598147213459014892578125">
        <ele>4027.39990234375</ele>
        <time>2026-05-25T14:13:53.000Z</time>
        <extensions>
          <ns3:TrackPointExtension>
            <ns3:hr>103</ns3:hr>
            <ns3:cad>0</ns3:cad>
          </ns3:TrackPointExtension>
        </extensions>
      </trkpt>
      <trkpt lat="38.0233321152627468109130859375" lon="-106.93550317548215389251708984375">
        <ele>4028.199951171875</ele>
        <time>2026-05-25T14:13:59.000Z</time>
        <extensions>
          <ns3:TrackPointExtension>
            <ns3:hr>104</ns3:hr>
            <ns3:cad>0</ns3:cad>
          </ns3:TrackPointExtension>
        </extensions>
      </trkpt>
      <trkpt lat="38.023323230445384979248046875" lon="-106.9354797899723052978515625">
        <ele>4028.39990234375</ele>
        <time>2026-05-25T14:14:02.000Z</time>
        <extensions>
          <ns3:TrackPointExtension>
            <ns3:hr>105</ns3:hr>
            <ns3:cad>0</ns3:cad>
          </ns3:TrackPointExtension>
        </extensions>
      </trkpt>
      <trkpt lat="38.023322559893131256103515625" lon="-106.93547082133591175079345703125">
        <ele>4028.60009765625</ele>
        <time>2026-05-25T14:14:03.000Z</time>
        <extensions>
          <ns3:TrackPointExtension>
            <ns3:hr>105</ns3:hr>
            <ns3:cad>0</ns3:cad>
          </ns3:TrackPointExtension>
        </extensions>
      </trkpt>
      <trkpt lat="38.023303113877773284912109375" lon="-106.93544634617865085601806640625">
        <ele>4029</ele>
        <time>2026-05-25T14:14:06.000Z</time>
        <extensions>
          <ns3:TrackPointExtension>
            <ns3:hr>108</ns3:hr>
            <ns3:cad>0</ns3:cad>
          </ns3:TrackPointExtension>
        </extensions>
      </trkpt>
      <trkpt lat="38.0232851766049861907958984375" lon="-106.9354276545345783233642578125">
        <ele>4029</ele>
        <time>2026-05-25T14:14:09.000Z</time>
        <extensions>
          <ns3:TrackPointExtension>
            <ns3:hr>111</ns3:hr>
            <ns3:cad>0</ns3:cad>
          </ns3:TrackPointExtension>
        </extensions>
      </trkpt>
      <trkpt lat="38.02328576333820819854736328125" lon="-106.9354249723255634307861328125">
        <ele>4029</ele>
        <time>2026-05-25T14:14:10.000Z</time>
        <extensions>
          <ns3:TrackPointExtension>
            <ns3:hr>112</ns3:hr>
            <ns3:cad>0</ns3:cad>
          </ns3:TrackPointExtension>
        </extensions>
      </trkpt>
      <trkpt lat="38.02329263649880886077880859375" lon="-106.9354249723255634307861328125">
        <ele>4029</ele>
        <time>2026-05-25T14:14:12.000Z</time>
        <extensions>
          <ns3:TrackPointExtension>
            <ns3:hr>115</ns3:hr>
            <ns3:cad>0</ns3:cad>
          </ns3:TrackPointExtension>
        </extensions>
      </trkpt>
      <trkpt lat="38.0232913792133331298828125" lon="-106.93542555905878543853759765625">
        <ele>4029</ele>
        <time>2026-05-25T14:14:14.000Z</time>
        <extensions>
          <ns3:TrackPointExtension>
            <ns3:hr>118</ns3:hr>
            <ns3:cad>0</ns3:cad>
          </ns3:TrackPointExtension>
        </extensions>
      </trkpt>
      <trkpt lat="38.0232912115752696990966796875" lon="-106.935425810515880584716796875">
        <ele>4029</ele>
        <time>2026-05-25T14:14:16.000Z</time>
        <extensions>
          <ns3:TrackPointExtension>
            <ns3:hr>121</ns3:hr>
            <ns3:cad>0</ns3:cad>
          </ns3:TrackPointExtension>
        </extensions>
      </trkpt>
      <trkpt lat="38.0232912115752696990966796875" lon="-106.935425810515880584716796875">
        <ele>4028.800048828125</ele>
        <time>2026-05-25T14:14:17.000Z</time>
        <extensions>
          <ns3:TrackPointExtension>
            <ns3:hr>123</ns3:hr>
            <ns3:cad>0</ns3:cad>
          </ns3:TrackPointExtension>
        </extensions>
      </trkpt>
      <trkpt lat="38.02327084355056285858154296875" lon="-106.93541365675628185272216796875">
        <ele>4028.800048828125</ele>
        <time>2026-05-25T14:14:23.000Z</time>
        <extensions>
          <ns3:TrackPointExtension>
            <ns3:hr>125</ns3:hr>
            <ns3:cad>0</ns3:cad>
          </ns3:TrackPointExtension>
        </extensions>
      </trkpt>
      <trkpt lat="38.02326925098896026611328125" lon="-106.9354142434895038604736328125">
        <ele>4028.800048828125</ele>
        <time>2026-05-25T14:14:24.000Z</time>
        <extensions>
          <ns3:TrackPointExtension>
            <ns3:hr>125</ns3:hr>
            <ns3:cad>0</ns3:cad>
          </ns3:TrackPointExtension>
        </extensions>
      </trkpt>
      <trkpt lat="38.0232523195445537567138671875" lon="-106.935395300388336181640625">
        <ele>4029.60009765625</ele>
        <time>2026-05-25T14:14:26.000Z</time>
        <extensions>
          <ns3:TrackPointExtension>
            <ns3:hr>126</ns3:hr>
            <ns3:cad>0</ns3:cad>
          </ns3:TrackPointExtension>
        </extensions>
      </trkpt>
      <trkpt lat="38.0232335440814495086669921875" lon="-106.93536378443241119384765625">
        <ele>4030</ele>
        <time>2026-05-25T14:14:29.000Z</time>
        <extensions>
          <ns3:TrackPointExtension>
            <ns3:hr>126</ns3:hr>
            <ns3:cad>46</ns3:cad>
          </ns3:TrackPointExtension>
        </extensions>
      </trkpt>
      <trkpt lat="38.02320429123938083648681640625" lon="-106.9353082962334156036376953125">
        <ele>4030.199951171875</ele>
        <time>2026-05-25T14:14:35.000Z</time>
        <extensions>
          <ns3:TrackPointExtension>
            <ns3:hr>126</ns3:hr>
            <ns3:cad>47</ns3:cad>
          </ns3:TrackPointExtension>
        </extensions>
      </trkpt>
      <trkpt lat="38.02319624461233615875244140625" lon="-106.93530553020536899566650390625">
        <ele>4030.199951171875</ele>
        <time>2026-05-25T14:14:36.000Z</time>
        <extensions>
          <ns3:TrackPointExtension>
            <ns3:hr>125</ns3:hr>
            <ns3:cad>47</ns3:cad>
          </ns3:TrackPointExtension>
        </extensions>
      </trkpt>
      <trkpt lat="38.0231839232146739959716796875" lon="-106.93528776057064533233642578125">
        <ele>4030.60009765625</ele>
        <time>2026-05-25T14:14:39.000Z</time>
        <extensions>
          <ns3:TrackPointExtension>
            <ns3:hr>126</ns3:hr>
            <ns3:cad>49</ns3:cad>
          </ns3:TrackPointExtension>
        </extensions>
      </trkpt>
      <trkpt lat="38.02314545027911663055419921875" lon="-106.93524040281772613525390625">
        <ele>4031</ele>
        <time>2026-05-25T14:14:43.000Z</time>
        <extensions>
          <ns3:TrackPointExtension>
            <ns3:hr>126</ns3:hr>
            <ns3:cad>49</ns3:cad>
          </ns3:TrackPointExtension>
        </extensions>
      </trkpt>
      <trkpt lat="38.023107983171939849853515625" lon="-106.935192458331584930419921875">
        <ele>4031.199951171875</ele>
        <time>2026-05-25T14:14:49.000Z</time>
        <extensions>
          <ns3:TrackPointExtension>
            <ns3:hr>128</ns3:hr>
            <ns3:cad>43</ns3:cad>
          </ns3:TrackPointExtension>
        </extensions>
      </trkpt>
      <trkpt lat="38.023102283477783203125" lon="-106.93518097512423992156982421875">
        <ele>4031.39990234375</ele>
        <time>2026-05-25T14:14:50.000Z</time>
        <extensions>
          <ns3:TrackPointExtension>
            <ns3:hr>128</ns3:hr>
            <ns3:cad>43</ns3:cad>
          </ns3:TrackPointExtension>
        </extensions>
      </trkpt>
      <trkpt lat="38.02308074198663234710693359375" lon="-106.93515415303409099578857421875">
        <ele>4031.60009765625</ele>
        <time>2026-05-25T14:14:53.000Z</time>
        <extensions>
          <ns3:TrackPointExtension>
            <ns3:hr>126</ns3:hr>
            <ns3:cad>0</ns3:cad>
          </ns3:TrackPointExtension>
        </extensions>
      </trkpt>
      <trkpt lat="38.02305039949715137481689453125" lon="-106.93512397818267345428466796875">
        <ele>4032</ele>
        <time>2026-05-25T14:14:58.000Z</time>
        <extensions>
          <ns3:TrackPointExtension>
            <ns3:hr>124</ns3:hr>
            <ns3:cad>0</ns3:cad>
          </ns3:TrackPointExtension>
        </extensions>
      </trkpt>
      <trkpt lat="38.02300865761935710906982421875" lon="-106.93510117940604686737060546875">
        <ele>4032.800048828125</ele>
        <time>2026-05-25T14:15:03.000Z</time>
        <extensions>
          <ns3:TrackPointExtension>
            <ns3:hr>122</ns3:hr>
            <ns3:cad>0</ns3:cad>
          </ns3:TrackPointExtension>
        </extensions>
      </trkpt>
      <trkpt lat="38.0230043828487396240234375" lon="-106.9350977428257465362548828125">
        <ele>4032.800048828125</ele>
        <time>2026-05-25T14:15:04.000Z</time>
        <extensions>
          <ns3:TrackPointExtension>
            <ns3:hr>122</ns3:hr>
            <ns3:cad>0</ns3:cad>
          </ns3:TrackPointExtension>
        </extensions>
      </trkpt>
      <trkpt lat="38.02296909503638744354248046875" lon="-106.9350541569292545318603515625">
        <ele>4033.800048828125</ele>
        <time>2026-05-25T14:15:09.000Z</time>
        <extensions>
          <ns3:TrackPointExtension>
            <ns3:hr>121</ns3:hr>
            <ns3:cad>0</ns3:cad>
          </ns3:TrackPointExtension>
        </extensions>
      </trkpt>
      <trkpt lat="38.02296289242804050445556640625" lon="-106.9350387342274188995361328125">
        <ele>4034</ele>
        <time>2026-05-25T14:15:10.000Z</time>
        <extensions>
          <ns3:TrackPointExtension>
            <ns3:hr>121</ns3:hr>
            <ns3:cad>0</ns3:cad>
          </ns3:TrackPointExtension>
        </extensions>
      </trkpt>
      <trkpt lat="38.0229358188807964324951171875" lon="-106.93499875254929065704345703125">
        <ele>4034.39990234375</ele>
        <time>2026-05-25T14:15:16.000Z</time>
        <extensions>
          <ns3:TrackPointExtension>
            <ns3:hr>120</ns3:hr>
            <ns3:cad>0</ns3:cad>
          </ns3:TrackPointExtension>
        </extensions>
      </trkpt>
      <trkpt lat="38.02293305285274982452392578125" lon="-106.93499674089252948760986328125">
        <ele>4034.60009765625</ele>
        <time>2026-05-25T14:15:17.000Z</time>
        <extensions>
          <ns3:TrackPointExtension>
            <ns3:hr>121</ns3:hr>
            <ns3:cad>0</ns3:cad>
          </ns3:TrackPointExtension>
        </extensions>
      </trkpt>
      <trkpt lat="38.02293129265308380126953125" lon="-106.93499104119837284088134765625">
        <ele>4035</ele>
        <time>2026-05-25T14:15:18.000Z</time>
        <extensions>
          <ns3:TrackPointExtension>
            <ns3:hr>123</ns3:hr>
            <ns3:cad>0</ns3:cad>
          </ns3:TrackPointExtension>
        </extensions>
      </trkpt>
      <trkpt lat="38.02292768843472003936767578125" lon="-106.93498601205646991729736328125">
        <ele>4035.199951171875</ele>
        <time>2026-05-25T14:15:19.000Z</time>
        <extensions>
          <ns3:TrackPointExtension>
            <ns3:hr>126</ns3:hr>
            <ns3:cad>0</ns3:cad>
          </ns3:TrackPointExtension>
        </extensions>
      </trkpt>
      <trkpt lat="38.02292500622570514678955078125" lon="-106.934972517192363739013671875">
        <ele>4035.60009765625</ele>
        <time>2026-05-25T14:15:20.000Z</time>
        <extensions>
          <ns3:TrackPointExtension>
            <ns3:hr>126</ns3:hr>
            <ns3:cad>0</ns3:cad>
          </ns3:TrackPointExtension>
        </extensions>
      </trkpt>
      <trkpt lat="38.02291922271251678466796875" lon="-106.9349539093673229217529296875">
        <ele>4036</ele>
        <time>2026-05-25T14:15:22.000Z</time>
        <extensions>
          <ns3:TrackPointExtension>
            <ns3:hr>128</ns3:hr>
            <ns3:cad>0</ns3:cad>
          </ns3:TrackPointExtension>
        </extensions>
      </trkpt>
      <trkpt lat="38.02290002815425395965576171875" lon="-106.93495080806314945220947265625">
        <ele>4036.199951171875</ele>
        <time>2026-05-25T14:15:24.000Z</time>
        <extensions>
          <ns3:TrackPointExtension>
            <ns3:hr>128</ns3:hr>
            <ns3:cad>0</ns3:cad>
          </ns3:TrackPointExtension>
        </extensions>
      </trkpt>
      <trkpt lat="38.02287404425442218780517578125" lon="-106.93492599762976169586181640625">
        <ele>4036.800048828125</ele>
        <time>2026-05-25T14:15:28.000Z</time>
        <extensions>
          <ns3:TrackPointExtension>
            <ns3:hr>131</ns3:hr>
            <ns3:cad>0</ns3:cad>
          </ns3:TrackPointExtension>
        </extensions>
      </trkpt>
      <trkpt lat="38.02286767400801181793212890625" lon="-106.93492515943944454193115234375">
        <ele>4037.199951171875</ele>
        <time>2026-05-25T14:15:30.000Z</time>
        <extensions>
          <ns3:TrackPointExtension>
            <ns3:hr>131</ns3:hr>
            <ns3:cad>0</ns3:cad>
          </ns3:TrackPointExtension>
        </extensions>
      </trkpt>
      <trkpt lat="38.02284252829849720001220703125" lon="-106.9348784722387790679931640625">
        <ele>4037.800048828125</ele>
        <time>2026-05-25T14:15:35.000Z</time>
        <extensions>
          <ns3:TrackPointExtension>
            <ns3:hr>131</ns3:hr>
            <ns3:cad>0</ns3:cad>
          </ns3:TrackPointExtension>
        </extensions>
      </trkpt>
      <trkpt lat="38.022830374538898468017578125" lon="-106.93485978059470653533935546875">
        <ele>4037.60009765625</ele>
        <time>2026-05-25T14:15:37.000Z</time>
        <extensions>
          <ns3:TrackPointExtension>
            <ns3:hr>128</ns3:hr>
            <ns3:cad>0</ns3:cad>
          </ns3:TrackPointExtension>
        </extensions>
      </trkpt>
      <trkpt lat="38.02281972952187061309814453125" lon="-106.934847794473171234130859375">
        <ele>4037.60009765625</ele>
        <time>2026-05-25T14:15:39.000Z</time>
        <extensions>
          <ns3:TrackPointExtension>
            <ns3:hr>127</ns3:hr>
            <ns3:cad>0</ns3:cad>
          </ns3:TrackPointExtension>
        </extensions>
      </trkpt>
      <trkpt lat="38.02280816249549388885498046875" lon="-106.9348132610321044921875">
        <ele>4038.39990234375</ele>
        <time>2026-05-25T14:15:43.000Z</time>
        <extensions>
          <ns3:TrackPointExtension>
            <ns3:hr>126</ns3:hr>
            <ns3:cad>0</ns3:cad>
          </ns3:TrackPointExtension>
        </extensions>
      </trkpt>
      <trkpt lat="38.022802881896495819091796875" lon="-106.9347919709980487823486328125">
        <ele>4038.800048828125</ele>
        <time>2026-05-25T14:15:45.000Z</time>
        <extensions>
          <ns3:TrackPointExtension>
            <ns3:hr>126</ns3:hr>
            <ns3:cad>0</ns3:cad>
          </ns3:TrackPointExtension>
        </extensions>
      </trkpt>
      <trkpt lat="38.0227815918624401092529296875" lon="-106.93477277643978595733642578125">
        <ele>4039.39990234375</ele>
        <time>2026-05-25T14:15:49.000Z</time>
        <extensions>
          <ns3:TrackPointExtension>
            <ns3:hr>125</ns3:hr>
            <ns3:cad>0</ns3:cad>
          </ns3:TrackPointExtension>
        </extensions>
      </trkpt>
      <trkpt lat="38.022763319313526153564453125" lon="-106.9347510673105716705322265625">
        <ele>4040</ele>
        <time>2026-05-25T14:15:52.000Z</time>
        <extensions>
          <ns3:TrackPointExtension>
            <ns3:hr>125</ns3:hr>
            <ns3:cad>0</ns3:cad>
          </ns3:TrackPointExtension>
        </extensions>
      </trkpt>
      <trkpt lat="38.0227443762123584747314453125" lon="-106.9347252510488033294677734375">
        <ele>4040.60009765625</ele>
        <time>2026-05-25T14:15:56.000Z</time>
        <extensions>
          <ns3:TrackPointExtension>
            <ns3:hr>125</ns3:hr>
            <ns3:cad>0</ns3:cad>
          </ns3:TrackPointExtension>
        </extensions>
      </trkpt>
      <trkpt lat="38.02273859269917011260986328125" lon="-106.93471712060272693634033203125">
        <ele>4040.800048828125</ele>
        <time>2026-05-25T14:15:57.000Z</time>
        <extensions>
          <ns3:TrackPointExtension>
            <ns3:hr>125</ns3:hr>
            <ns3:cad>0</ns3:cad>
          </ns3:TrackPointExtension>
        </extensions>
      </trkpt>
      <trkpt lat="38.02271143533289432525634765625" lon="-106.93469666875898838043212890625">
        <ele>4041.39990234375</ele>
        <time>2026-05-25T14:16:02.000Z</time>
        <extensions>
          <ns3:TrackPointExtension>
            <ns3:hr>126</ns3:hr>
            <ns3:cad>65</ns3:cad>
          </ns3:TrackPointExtension>
        </extensions>
      </trkpt>
      <trkpt lat="38.02268511615693569183349609375" lon="-106.93465274758636951446533203125">
        <ele>4041.60009765625</ele>
        <time>2026-05-25T14:16:07.000Z</time>
        <extensions>
          <ns3:TrackPointExtension>
            <ns3:hr>129</ns3:hr>
            <ns3:cad>65</ns3:cad>
          </ns3:TrackPointExtension>
        </extensions>
      </trkpt>
      <trkpt lat="38.02265108563005924224853515625" lon="-106.9345968402922153472900390625">
        <ele>4041.39990234375</ele>
        <time>2026-05-25T14:16:13.000Z</time>
        <extensions>
          <ns3:TrackPointExtension>
            <ns3:hr>129</ns3:hr>
            <ns3:cad>47</ns3:cad>
          </ns3:TrackPointExtension>
        </extensions>
      </trkpt>
      <trkpt lat="38.0226444639265537261962890625" lon="-106.93458602763712406158447265625">
        <ele>4041.60009765625</ele>
        <time>2026-05-25T14:16:14.000Z</time>
        <extensions>
          <ns3:TrackPointExtension>
            <ns3:hr>129</ns3:hr>
            <ns3:cad>47</ns3:cad>
          </ns3:TrackPointExtension>
        </extensions>
      </trkpt>
      <trkpt lat="38.022639267146587371826171875" lon="-106.93457345478236675262451171875">
        <ele>4041.800048828125</ele>
        <time>2026-05-25T14:16:15.000Z</time>
        <extensions>
          <ns3:TrackPointExtension>
            <ns3:hr>129</ns3:hr>
            <ns3:cad>47</ns3:cad>
          </ns3:TrackPointExtension>
        </extensions>
      </trkpt>
      <trkpt lat="38.0226293765008449554443359375" lon="-106.93454596213996410369873046875">
        <ele>4042</ele>
        <time>2026-05-25T14:16:17.000Z</time>
        <extensions>
          <ns3:TrackPointExtension>
            <ns3:hr>126</ns3:hr>
            <ns3:cad>0</ns3:cad>
          </ns3:TrackPointExtension>
        </extensions>
      </trkpt>
      <trkpt lat="38.022619150578975677490234375" lon="-106.93451578728854656219482421875">
        <ele>4042.199951171875</ele>
        <time>2026-05-25T14:16:21.000Z</time>
        <extensions>
          <ns3:TrackPointExtension>
            <ns3:hr>124</ns3:hr>
            <ns3:cad>0</ns3:cad>
          </ns3:TrackPointExtension>
        </extensions>
      </trkpt>
      <trkpt lat="38.0225966870784759521484375" lon="-106.93448142148554325103759765625">
        <ele>4042.199951171875</ele>
        <time>2026-05-25T14:16:24.000Z</time>
        <extensions>
          <ns3:TrackPointExtension>
            <ns3:hr>121</ns3:hr>
            <ns3:cad>0</ns3:cad>
          </ns3:TrackPointExtension>
        </extensions>
      </trkpt>
      <trkpt lat="38.02258771844208240509033203125" lon="-106.9344647414982318878173828125">
        <ele>4042</ele>
        <time>2026-05-25T14:16:26.000Z</time>
        <extensions>
          <ns3:TrackPointExtension>
            <ns3:hr>119</ns3:hr>
            <ns3:cad>0</ns3:cad>
          </ns3:TrackPointExtension>
        </extensions>
      </trkpt>
      <trkpt lat="38.02256424911320209503173828125" lon="-106.93443012423813343048095703125">
        <ele>4042.800048828125</ele>
        <time>2026-05-25T14:16:31.000Z</time>
        <extensions>
          <ns3:TrackPointExtension>
            <ns3:hr>121</ns3:hr>
            <ns3:cad>0</ns3:cad>
          </ns3:TrackPointExtension>
        </extensions>
      </trkpt>
      <trkpt lat="38.02256575785577297210693359375" lon="-106.93441428244113922119140625">
        <ele>4042.800048828125</ele>
        <time>2026-05-25T14:16:32.000Z</time>
        <extensions>
          <ns3:TrackPointExtension>
            <ns3:hr>121</ns3:hr>
            <ns3:cad>0</ns3:cad>
          </ns3:TrackPointExtension>
        </extensions>
      </trkpt>
      <trkpt lat="38.02255871705710887908935546875" lon="-106.9343618117272853851318359375">
        <ele>4043.800048828125</ele>
        <time>2026-05-25T14:16:38.000Z</time>
        <extensions>
          <ns3:TrackPointExtension>
            <ns3:hr>119</ns3:hr>
            <ns3:cad>0</ns3:cad>
          </ns3:TrackPointExtension>
        </extensions>
      </trkpt>
      <trkpt lat="38.02254983223974704742431640625" lon="-106.93434932269155979156494140625">
        <ele>4043.800048828125</ele>
        <time>2026-05-25T14:16:39.000Z</time>
        <extensions>
          <ns3:TrackPointExtension>
            <ns3:hr>119</ns3:hr>
            <ns3:cad>0</ns3:cad>
          </ns3:TrackPointExtension>
        </extensions>
      </trkpt>
      <trkpt lat="38.02251881919801235198974609375" lon="-106.93434043787419795989990234375">
        <ele>4044.39990234375</ele>
        <time>2026-05-25T14:16:43.000Z</time>
        <extensions>
          <ns3:TrackPointExtension>
            <ns3:hr>120</ns3:hr>
            <ns3:cad>0</ns3:cad>
          </ns3:TrackPointExtension>
        </extensions>
      </trkpt>
      <trkpt lat="38.0225143767893314361572265625" lon="-106.93433205597102642059326171875">
        <ele>4044.60009765625</ele>
        <time>2026-05-25T14:16:44.000Z</time>
        <extensions>
          <ns3:TrackPointExtension>
            <ns3:hr>120</ns3:hr>
            <ns3:cad>0</ns3:cad>
          </ns3:TrackPointExtension>
        </extensions>
      </trkpt>
      <trkpt lat="38.0225113593041896820068359375" lon="-106.9343232549726963043212890625">
        <ele>4044.800048828125</ele>
        <time>2026-05-25T14:16:45.000Z</time>
        <extensions>
          <ns3:TrackPointExtension>
            <ns3:hr>119</ns3:hr>
            <ns3:cad>0</ns3:cad>
          </ns3:TrackPointExtension>
        </extensions>
      </trkpt>
      <trkpt lat="38.0225110240280628204345703125" lon="-106.9343135319650173187255859375">
        <ele>4045</ele>
        <time>2026-05-25T14:16:46.000Z</time>
        <extensions>
          <ns3:TrackPointExtension>
            <ns3:hr>119</ns3:hr>
            <ns3:cad>0</ns3:cad>
          </ns3:TrackPointExtension>
        </extensions>
      </trkpt>
      <trkpt lat="38.02248881198465824127197265625" lon="-106.93428545258939266204833984375">
        <ele>4045.800048828125</ele>
        <time>2026-05-25T14:16:50.000Z</time>
        <extensions>
          <ns3:TrackPointExtension>
            <ns3:hr>118</ns3:hr>
            <ns3:cad>0</ns3:cad>
          </ns3:TrackPointExtension>
        </extensions>
      </trkpt>
      <trkpt lat="38.022476993501186370849609375" lon="-106.93427640013396739959716796875">
        <ele>4046</ele>
        <time>2026-05-25T14:16:52.000Z</time>
        <extensions>
          <ns3:TrackPointExtension>
            <ns3:hr>117</ns3:hr>
            <ns3:cad>0</ns3:cad>
          </ns3:TrackPointExtension>
        </extensions>
      </trkpt>
      <trkpt lat="38.02245779894292354583740234375" lon="-106.9342555291950702667236328125">
        <ele>4046.60009765625</ele>
        <time>2026-05-25T14:16:58.000Z</time>
        <extensions>
          <ns3:TrackPointExtension>
            <ns3:hr>122</ns3:hr>
            <ns3:cad>0</ns3:cad>
          </ns3:TrackPointExtension>
        </extensions>
      </trkpt>
      <trkpt lat="38.0224540270864963531494140625" lon="-106.9342540204524993896484375">
        <ele>4046.800048828125</ele>
        <time>2026-05-25T14:16:59.000Z</time>
        <extensions>
          <ns3:TrackPointExtension>
            <ns3:hr>122</ns3:hr>
            <ns3:cad>0</ns3:cad>
          </ns3:TrackPointExtension>
        </extensions>
      </trkpt>
      <trkpt lat="38.02244036458432674407958984375" lon="-106.934248991310596466064453125">
        <ele>4047.199951171875</ele>
        <time>2026-05-25T14:17:01.000Z</time>
        <extensions>
          <ns3:TrackPointExtension>
            <ns3:hr>123</ns3:hr>
            <ns3:cad>0</ns3:cad>
          </ns3:TrackPointExtension>
        </extensions>
      </trkpt>
      <trkpt lat="38.02242058329284191131591796875" lon="-106.93422610871493816375732421875">
        <ele>4047.800048828125</ele>
        <time>2026-05-25T14:17:04.000Z</time>
        <extensions>
          <ns3:TrackPointExtension>
            <ns3:hr>126</ns3:hr>
            <ns3:cad>44</ns3:cad>
          </ns3:TrackPointExtension>
        </extensions>
      </trkpt>
      <trkpt lat="38.02240968681871891021728515625" lon="-106.93422191776335239410400390625">
        <ele>4048</ele>
        <time>2026-05-25T14:17:05.000Z</time>
        <extensions>
          <ns3:TrackPointExtension>
            <ns3:hr>126</ns3:hr>
            <ns3:cad>44</ns3:cad>
          </ns3:TrackPointExtension>
        </extensions>
      </trkpt>
      <trkpt lat="38.022401221096515655517578125" lon="-106.93421043455600738525390625">
        <ele>4048.199951171875</ele>
        <time>2026-05-25T14:17:07.000Z</time>
        <extensions>
          <ns3:TrackPointExtension>
            <ns3:hr>125</ns3:hr>
            <ns3:cad>0</ns3:cad>
          </ns3:TrackPointExtension>
        </extensions>
      </trkpt>
      <trkpt lat="38.022386468946933746337890625" lon="-106.93419207818806171417236328125">
        <ele>4048.60009765625</ele>
        <time>2026-05-25T14:17:10.000Z</time>
        <extensions>
          <ns3:TrackPointExtension>
            <ns3:hr>124</ns3:hr>
            <ns3:cad>0</ns3:cad>
          </ns3:TrackPointExtension>
        </extensions>
      </trkpt>
      <trkpt lat="38.02236543036997318267822265625" lon="-106.93412066437304019927978515625">
        <ele>4049</ele>
        <time>2026-05-25T14:17:16.000Z</time>
        <extensions>
          <ns3:TrackPointExtension>
            <ns3:hr>125</ns3:hr>
            <ns3:cad>45</ns3:cad>
          </ns3:TrackPointExtension>
        </extensions>
      </trkpt>
      <trkpt lat="38.02235939539968967437744140625" lon="-106.934114210307598114013671875">
        <ele>4049</ele>
        <time>2026-05-25T14:17:17.000Z</time>
        <extensions>
          <ns3:TrackPointExtension>
            <ns3:hr>125</ns3:hr>
            <ns3:cad>45</ns3:cad>
          </ns3:TrackPointExtension>
        </extensions>
      </trkpt>
      <trkpt lat="38.02234388887882232666015625" lon="-106.9340992905199527740478515625">
        <ele>4049.199951171875</ele>
        <time>2026-05-25T14:17:20.000Z</time>
        <extensions>
          <ns3:TrackPointExtension>
            <ns3:hr>126</ns3:hr>
            <ns3:cad>0</ns3:cad>
          </ns3:TrackPointExtension>
        </extensions>
      </trkpt>
      <trkpt lat="38.02233584225177764892578125" lon="-106.9340925849974155426025390625">
        <ele>4049.39990234375</ele>
        <time>2026-05-25T14:17:22.000Z</time>
        <extensions>
          <ns3:TrackPointExtension>
            <ns3:hr>125</ns3:hr>
            <ns3:cad>0</ns3:cad>
          </ns3:TrackPointExtension>
        </extensions>
      </trkpt>
      <trkpt lat="38.02231371402740478515625" lon="-106.934071965515613555908203125">
        <ele>4050.39990234375</ele>
        <time>2026-05-25T14:17:27.000Z</time>
        <extensions>
          <ns3:TrackPointExtension>
            <ns3:hr>124</ns3:hr>
            <ns3:cad>0</ns3:cad>
          </ns3:TrackPointExtension>
        </extensions>
      </trkpt>
      <trkpt lat="38.02230809815227985382080078125" lon="-106.93405914120376110076904296875">
        <ele>4050.39990234375</ele>
        <time>2026-05-25T14:17:28.000Z</time>
        <extensions>
          <ns3:TrackPointExtension>
            <ns3:hr>124</ns3:hr>
            <ns3:cad>0</ns3:cad>
          </ns3:TrackPointExtension>
        </extensions>
      </trkpt>
      <trkpt lat="38.022285886108875274658203125" lon="-106.934006921947002410888671875">
        <ele>4051</ele>
        <time>2026-05-25T14:17:34.000Z</time>
        <extensions>
          <ns3:TrackPointExtension>
            <ns3:hr>128</ns3:hr>
            <ns3:cad>0</ns3:cad>
          </ns3:TrackPointExtension>
        </extensions>
      </trkpt>
      <trkpt lat="38.0222775042057037353515625" lon="-106.93399761803448200225830078125">
        <ele>4051</ele>
        <time>2026-05-25T14:17:35.000Z</time>
        <extensions>
          <ns3:TrackPointExtension>
            <ns3:hr>131</ns3:hr>
            <ns3:cad>0</ns3:cad>
          </ns3:TrackPointExtension>
        </extensions>
      </trkpt>
      <trkpt lat="38.02227121777832508087158203125" lon="-106.93399409763514995574951171875">
        <ele>4051.199951171875</ele>
        <time>2026-05-25T14:17:36.000Z</time>
        <extensions>
          <ns3:TrackPointExtension>
            <ns3:hr>134</ns3:hr>
            <ns3:cad>0</ns3:cad>
          </ns3:TrackPointExtension>
        </extensions>
      </trkpt>
      <trkpt lat="38.0222790129482746124267578125" lon="-106.93399988114833831787109375">
        <ele>4051.199951171875</ele>
        <time>2026-05-25T14:17:37.000Z</time>
        <extensions>
          <ns3:TrackPointExtension>
            <ns3:hr>134</ns3:hr>
            <ns3:cad>0</ns3:cad>
          </ns3:TrackPointExtension>
        </extensions>
      </trkpt>
      <trkpt lat="38.0222793482244014739990234375" lon="-106.9340027309954166412353515625">
        <ele>4051.199951171875</ele>
        <time>2026-05-25T14:17:39.000Z</time>
        <extensions>
          <ns3:TrackPointExtension>
            <ns3:hr>134</ns3:hr>
            <ns3:cad>0</ns3:cad>
          </ns3:TrackPointExtension>
        </extensions>
      </trkpt>
      <trkpt lat="38.0222793482244014739990234375" lon="-106.9340027309954166412353515625">
        <ele>4050.60009765625</ele>
        <time>2026-05-25T14:17:45.000Z</time>
        <extensions>
          <ns3:TrackPointExtension>
            <ns3:hr>131</ns3:hr>
            <ns3:cad>0</ns3:cad>
          </ns3:TrackPointExtension>
        </extensions>
      </trkpt>
      <trkpt lat="38.0222793482244014739990234375" lon="-106.9340027309954166412353515625">
        <ele>4050.39990234375</ele>
        <time>2026-05-25T14:17:49.000Z</time>
        <extensions>
          <ns3:TrackPointExtension>
            <ns3:hr>130</ns3:hr>
            <ns3:cad>0</ns3:cad>
          </ns3:TrackPointExtension>
        </extensions>
      </trkpt>
      <trkpt lat="38.0222793482244014739990234375" lon="-106.9340027309954166412353515625">
        <ele>4050.39990234375</ele>
        <time>2026-05-25T14:17:53.000Z</time>
        <extensions>
          <ns3:TrackPointExtension>
            <ns3:hr>127</ns3:hr>
            <ns3:cad>0</ns3:cad>
          </ns3:TrackPointExtension>
        </extensions>
      </trkpt>
      <trkpt lat="38.0222793482244014739990234375" lon="-106.9340027309954166412353515625">
        <ele>4050.39990234375</ele>
        <time>2026-05-25T14:17:58.000Z</time>
        <extensions>
          <ns3:TrackPointExtension>
            <ns3:hr>124</ns3:hr>
            <ns3:cad>0</ns3:cad>
          </ns3:TrackPointExtension>
        </extensions>
      </trkpt>
      <trkpt lat="38.0222793482244014739990234375" lon="-106.9340027309954166412353515625">
        <ele>4050.39990234375</ele>
        <time>2026-05-25T14:17:59.000Z</time>
        <extensions>
          <ns3:TrackPointExtension>
            <ns3:hr>124</ns3:hr>
            <ns3:cad>0</ns3:cad>
          </ns3:TrackPointExtension>
        </extensions>
      </trkpt>
      <trkpt lat="38.0222793482244014739990234375" lon="-106.9340027309954166412353515625">
        <ele>4050.800048828125</ele>
        <time>2026-05-25T14:18:02.000Z</time>
        <extensions>
          <ns3:TrackPointExtension>
            <ns3:hr>121</ns3:hr>
            <ns3:cad>0</ns3:cad>
          </ns3:TrackPointExtension>
        </extensions>
      </trkpt>
      <trkpt lat="38.0222793482244014739990234375" lon="-106.9340027309954166412353515625">
        <ele>4050.60009765625</ele>
        <time>2026-05-25T14:18:08.000Z</time>
        <extensions>
          <ns3:TrackPointExtension>
            <ns3:hr>120</ns3:hr>
            <ns3:cad>0</ns3:cad>
          </ns3:TrackPointExtension>
        </extensions>
      </trkpt>
      <trkpt lat="38.0222793482244014739990234375" lon="-106.9340027309954166412353515625">
        <ele>4050.60009765625</ele>
        <time>2026-05-25T14:18:13.000Z</time>
        <extensions>
          <ns3:TrackPointExtension>
            <ns3:hr>119</ns3:hr>
            <ns3:cad>0</ns3:cad>
          </ns3:TrackPointExtension>
        </extensions>
      </trkpt>
      <trkpt lat="38.0222793482244014739990234375" lon="-106.9340027309954166412353515625">
        <ele>4050.39990234375</ele>
        <time>2026-05-25T14:18:19.000Z</time>
        <extensions>
          <ns3:TrackPointExtension>
            <ns3:hr>118</ns3:hr>
            <ns3:cad>0</ns3:cad>
          </ns3:TrackPointExtension>
        </extensions>
      </trkpt>
      <trkpt lat="38.0222793482244014739990234375" lon="-106.9340027309954166412353515625">
        <ele>4049.800048828125</ele>
        <time>2026-05-25T14:18:25.000Z</time>
        <extensions>
          <ns3:TrackPointExtension>
            <ns3:hr>120</ns3:hr>
            <ns3:cad>0</ns3:cad>
          </ns3:TrackPointExtension>
        </extensions>
      </trkpt>
      <trkpt lat="38.0222793482244014739990234375" lon="-106.9340027309954166412353515625">
        <ele>4050</ele>
        <time>2026-05-25T14:18:26.000Z</time>
        <extensions>
          <ns3:TrackPointExtension>
            <ns3:hr>120</ns3:hr>
            <ns3:cad>0</ns3:cad>
          </ns3:TrackPointExtension>
        </extensions>
      </trkpt>
      <trkpt lat="38.02227959968149662017822265625" lon="-106.9340181536972522735595703125">
        <ele>4050.800048828125</ele>
        <time>2026-05-25T14:18:32.000Z</time>
        <extensions>
          <ns3:TrackPointExtension>
            <ns3:hr>123</ns3:hr>
            <ns3:cad>0</ns3:cad>
          </ns3:TrackPointExtension>
        </extensions>
      </trkpt>
      <trkpt lat="38.0222793482244014739990234375" lon="-106.9340027309954166412353515625">
        <ele>4050.60009765625</ele>
        <time>2026-05-25T14:18:38.000Z</time>
        <extensions>
          <ns3:TrackPointExtension>
            <ns3:hr>120</ns3:hr>
            <ns3:cad>0</ns3:cad>
          </ns3:TrackPointExtension>
        </extensions>
      </trkpt>
      <trkpt lat="38.0222793482244014739990234375" lon="-106.9340027309954166412353515625">
        <ele>4050.60009765625</ele>
        <time>2026-05-25T14:18:43.000Z</time>
        <extensions>
          <ns3:TrackPointExtension>
            <ns3:hr>122</ns3:hr>
            <ns3:cad>0</ns3:cad>
          </ns3:TrackPointExtension>
        </extensions>
      </trkpt>
      <trkpt lat="38.022276498377323150634765625" lon="-106.93400180898606777191162109375">
        <ele>4051.39990234375</ele>
        <time>2026-05-25T14:18:48.000Z</time>
        <extensions>
          <ns3:TrackPointExtension>
            <ns3:hr>123</ns3:hr>
            <ns3:cad>47</ns3:cad>
          </ns3:TrackPointExtension>
        </extensions>
      </trkpt>
      <trkpt lat="38.022276498377323150634765625" lon="-106.93400180898606777191162109375">
        <ele>4051.39990234375</ele>
        <time>2026-05-25T14:18:49.000Z</time>
        <extensions>
          <ns3:TrackPointExtension>
            <ns3:hr>122</ns3:hr>
            <ns3:cad>0</ns3:cad>
          </ns3:TrackPointExtension>
        </extensions>
      </trkpt>
      <trkpt lat="38.02222494967281818389892578125" lon="-106.933960653841495513916015625">
        <ele>4052.199951171875</ele>
        <time>2026-05-25T14:18:55.000Z</time>
        <extensions>
          <ns3:TrackPointExtension>
            <ns3:hr>120</ns3:hr>
            <ns3:cad>0</ns3:cad>
          </ns3:TrackPointExtension>
        </extensions>
      </trkpt>
      <trkpt lat="38.02221388556063175201416015625" lon="-106.93394850008189678192138671875">
        <ele>4052.39990234375</ele>
        <time>2026-05-25T14:18:57.000Z</time>
        <extensions>
          <ns3:TrackPointExtension>
            <ns3:hr>120</ns3:hr>
            <ns3:cad>0</ns3:cad>
          </ns3:TrackPointExtension>
        </extensions>
      </trkpt>
      <trkpt lat="38.0221918411552906036376953125" lon="-106.93392301909625530242919921875">
        <ele>4053.199951171875</ele>
        <time>2026-05-25T14:19:02.000Z</time>
        <extensions>
          <ns3:TrackPointExtension>
            <ns3:hr>118</ns3:hr>
            <ns3:cad>0</ns3:cad>
          </ns3:TrackPointExtension>
        </extensions>
      </trkpt>
      <trkpt lat="38.0221834592521190643310546875" lon="-106.93390239961445331573486328125">
        <ele>4053.199951171875</ele>
        <time>2026-05-25T14:19:08.000Z</time>
        <extensions>
          <ns3:TrackPointExtension>
            <ns3:hr>118</ns3:hr>
            <ns3:cad>0</ns3:cad>
          </ns3:TrackPointExtension>
        </extensions>
      </trkpt>
      <trkpt lat="38.0221787653863430023193359375" lon="-106.9338897429406642913818359375">
        <ele>4053.39990234375</ele>
        <time>2026-05-25T14:19:09.000Z</time>
        <extensions>
          <ns3:TrackPointExtension>
            <ns3:hr>119</ns3:hr>
            <ns3:cad>0</ns3:cad>
          </ns3:TrackPointExtension>
        </extensions>
      </trkpt>
      <trkpt lat="38.0221787653863430023193359375" lon="-106.9338897429406642913818359375">
        <ele>4053.800048828125</ele>
        <time>2026-05-25T14:19:10.000Z</time>
        <extensions>
          <ns3:TrackPointExtension>
            <ns3:hr>122</ns3:hr>
            <ns3:cad>0</ns3:cad>
          </ns3:TrackPointExtension>
        </extensions>
      </trkpt>
      <trkpt lat="38.022158145904541015625" lon="-106.93386669270694255828857421875">
        <ele>4054.199951171875</ele>
        <time>2026-05-25T14:19:12.000Z</time>
        <extensions>
          <ns3:TrackPointExtension>
            <ns3:hr>124</ns3:hr>
            <ns3:cad>0</ns3:cad>
          </ns3:TrackPointExtension>
        </extensions>
      </trkpt>
      <trkpt lat="38.0221326649188995361328125" lon="-106.93385613150894641876220703125">
        <ele>4054.199951171875</ele>
        <time>2026-05-25T14:19:16.000Z</time>
        <extensions>
          <ns3:TrackPointExtension>
            <ns3:hr>126</ns3:hr>
            <ns3:cad>0</ns3:cad>
          </ns3:TrackPointExtension>
        </extensions>
      </trkpt>
      <trkpt lat="38.0221165716648101806640625" lon="-106.933847330510616302490234375">
        <ele>4054.39990234375</ele>
        <time>2026-05-25T14:19:19.000Z</time>
        <extensions>
          <ns3:TrackPointExtension>
            <ns3:hr>127</ns3:hr>
            <ns3:cad>0</ns3:cad>
          </ns3:TrackPointExtension>
        </extensions>
      </trkpt>
      <trkpt lat="38.022098802030086517333984375" lon="-106.9338168203830718994140625">
        <ele>4055.199951171875</ele>
        <time>2026-05-25T14:19:23.000Z</time>
        <extensions>
          <ns3:TrackPointExtension>
            <ns3:hr>123</ns3:hr>
            <ns3:cad>0</ns3:cad>
          </ns3:TrackPointExtension>
        </extensions>
      </trkpt>
      <trkpt lat="38.0220942758023738861083984375" lon="-106.9338072650134563446044921875">
        <ele>4055.60009765625</ele>
        <time>2026-05-25T14:19:24.000Z</time>
        <extensions>
          <ns3:TrackPointExtension>
            <ns3:hr>123</ns3:hr>
            <ns3:cad>0</ns3:cad>
          </ns3:TrackPointExtension>
        </extensions>
      </trkpt>
      <trkpt lat="38.0220862291753292083740234375" lon="-106.93378798663616180419921875">
        <ele>4056.199951171875</ele>
        <time>2026-05-25T14:19:27.000Z</time>
        <extensions>
          <ns3:TrackPointExtension>
            <ns3:hr>126</ns3:hr>
            <ns3:cad>47</ns3:cad>
          </ns3:TrackPointExtension>
        </extensions>
      </trkpt>
      <trkpt lat="38.02207089029252529144287109375" lon="-106.933752782642841339111328125">
        <ele>4056.199951171875</ele>
        <time>2026-05-25T14:19:29.000Z</time>
        <extensions>
          <ns3:TrackPointExtension>
            <ns3:hr>129</ns3:hr>
            <ns3:cad>47</ns3:cad>
          </ns3:TrackPointExtension>
        </extensions>
      </trkpt>
      <trkpt lat="38.02205697633326053619384765625" lon="-106.93374641239643096923828125">
        <ele>4056</ele>
        <time>2026-05-25T14:19:31.000Z</time>
        <extensions>
          <ns3:TrackPointExtension>
            <ns3:hr>130</ns3:hr>
            <ns3:cad>47</ns3:cad>
          </ns3:TrackPointExtension>
        </extensions>
      </trkpt>
      <trkpt lat="38.02201892249286174774169921875" lon="-106.93370861001312732696533203125">
        <ele>4056.800048828125</ele>
        <time>2026-05-25T14:19:37.000Z</time>
        <extensions>
          <ns3:TrackPointExtension>
            <ns3:hr>130</ns3:hr>
            <ns3:cad>0</ns3:cad>
          </ns3:TrackPointExtension>
        </extensions>
      </trkpt>
      <trkpt lat="38.02200819365680217742919921875" lon="-106.9337093643844127655029296875">
        <ele>4057</ele>
        <time>2026-05-25T14:19:38.000Z</time>
        <extensions>
          <ns3:TrackPointExtension>
            <ns3:hr>130</ns3:hr>
            <ns3:cad>0</ns3:cad>
          </ns3:TrackPointExtension>
        </extensions>
      </trkpt>
      <trkpt lat="38.0219977162778377532958984375" lon="-106.93370106630027294158935546875">
        <ele>4057.199951171875</ele>
        <time>2026-05-25T14:19:41.000Z</time>
        <extensions>
          <ns3:TrackPointExtension>
            <ns3:hr>127</ns3:hr>
            <ns3:cad>0</ns3:cad>
          </ns3:TrackPointExtension>
        </extensions>
      </trkpt>
      <trkpt lat="38.02198112010955810546875" lon="-106.9336698018014430999755859375">
        <ele>4057.60009765625</ele>
        <time>2026-05-25T14:19:43.000Z</time>
        <extensions>
          <ns3:TrackPointExtension>
            <ns3:hr>127</ns3:hr>
            <ns3:cad>43</ns3:cad>
          </ns3:TrackPointExtension>
        </extensions>
      </trkpt>
      <trkpt lat="38.02197366021573543548583984375" lon="-106.93365580402314662933349609375">
        <ele>4058</ele>
        <time>2026-05-25T14:19:45.000Z</time>
        <extensions>
          <ns3:TrackPointExtension>
            <ns3:hr>127</ns3:hr>
            <ns3:cad>55</ns3:cad>
          </ns3:TrackPointExtension>
        </extensions>
      </trkpt>
      <trkpt lat="38.0219296552240848541259765625" lon="-106.9336134754121303558349609375">
        <ele>4058</ele>
        <time>2026-05-25T14:19:50.000Z</time>
        <extensions>
          <ns3:TrackPointExtension>
            <ns3:hr>130</ns3:hr>
            <ns3:cad>74</ns3:cad>
          </ns3:TrackPointExtension>
        </extensions>
      </trkpt>
      <trkpt lat="38.02192320115864276885986328125" lon="-106.93360869772732257843017578125">
        <ele>4058</ele>
        <time>2026-05-25T14:19:51.000Z</time>
        <extensions>
          <ns3:TrackPointExtension>
            <ns3:hr>131</ns3:hr>
            <ns3:cad>74</ns3:cad>
          </ns3:TrackPointExtension>
        </extensions>
      </trkpt>
      <trkpt lat="38.0219046771526336669921875" lon="-106.93359092809259891510009765625">
        <ele>4058.60009765625</ele>
        <time>2026-05-25T14:19:55.000Z</time>
        <extensions>
          <ns3:TrackPointExtension>
            <ns3:hr>134</ns3:hr>
            <ns3:cad>41</ns3:cad>
          </ns3:TrackPointExtension>
        </extensions>
      </trkpt>
      <trkpt lat="38.02189855836331844329833984375" lon="-106.9335688836872577667236328125">
        <ele>4059.39990234375</ele>
        <time>2026-05-25T14:19:57.000Z</time>
        <extensions>
          <ns3:TrackPointExtension>
            <ns3:hr>134</ns3:hr>
            <ns3:cad>0</ns3:cad>
          </ns3:TrackPointExtension>
        </extensions>
      </trkpt>
      <trkpt lat="38.02188078872859477996826171875" lon="-106.93353585898876190185546875">
        <ele>4060.39990234375</ele>
        <time>2026-05-25T14:20:01.000Z</time>
        <extensions>
          <ns3:TrackPointExtension>
            <ns3:hr>135</ns3:hr>
            <ns3:cad>0</ns3:cad>
          </ns3:TrackPointExtension>
        </extensions>
      </trkpt>
      <trkpt lat="38.02187475375831127166748046875" lon="-106.9335075281560420989990234375">
        <ele>4060.39990234375</ele>
        <time>2026-05-25T14:20:04.000Z</time>
        <extensions>
          <ns3:TrackPointExtension>
            <ns3:hr>136</ns3:hr>
            <ns3:cad>71</ns3:cad>
          </ns3:TrackPointExtension>
        </extensions>
      </trkpt>
      <trkpt lat="38.02184105850756168365478515625" lon="-106.933491937816143035888671875">
        <ele>4060</ele>
        <time>2026-05-25T14:20:09.000Z</time>
        <extensions>
          <ns3:TrackPointExtension>
            <ns3:hr>137</ns3:hr>
            <ns3:cad>0</ns3:cad>
          </ns3:TrackPointExtension>
        </extensions>
      </trkpt>
      <trkpt lat="38.02182446233928203582763671875" lon="-106.933469809591770172119140625">
        <ele>4061</ele>
        <time>2026-05-25T14:20:15.000Z</time>
        <extensions>
          <ns3:TrackPointExtension>
            <ns3:hr>137</ns3:hr>
            <ns3:cad>0</ns3:cad>
          </ns3:TrackPointExtension>
        </extensions>
      </trkpt>
      <trkpt lat="38.021811135113239288330078125" lon="-106.933458410203456878662109375">
        <ele>4061.60009765625</ele>
        <time>2026-05-25T14:20:17.000Z</time>
        <extensions>
          <ns3:TrackPointExtension>
            <ns3:hr>137</ns3:hr>
            <ns3:cad>60</ns3:cad>
          </ns3:TrackPointExtension>
        </extensions>
      </trkpt>
      <trkpt lat="38.0218009091913700103759765625" lon="-106.933449022471904754638671875">
        <ele>4062</ele>
        <time>2026-05-25T14:20:20.000Z</time>
        <extensions>
          <ns3:TrackPointExtension>
            <ns3:hr>134</ns3:hr>
            <ns3:cad>60</ns3:cad>
          </ns3:TrackPointExtension>
        </extensions>
      </trkpt>
      <trkpt lat="38.0217838101089000701904296875" lon="-106.9334428198635578155517578125">
        <ele>4062.199951171875</ele>
        <time>2026-05-25T14:20:22.000Z</time>
        <extensions>
          <ns3:TrackPointExtension>
            <ns3:hr>133</ns3:hr>
            <ns3:cad>60</ns3:cad>
          </ns3:TrackPointExtension>
        </extensions>
      </trkpt>
      <trkpt lat="38.0217677168548107147216796875" lon="-106.93343418650329113006591796875">
        <ele>4062.800048828125</ele>
        <time>2026-05-25T14:20:26.000Z</time>
        <extensions>
          <ns3:TrackPointExtension>
            <ns3:hr>133</ns3:hr>
            <ns3:cad>0</ns3:cad>
          </ns3:TrackPointExtension>
        </extensions>
      </trkpt>
      <trkpt lat="38.0217502824962139129638671875" lon="-106.933426894247531890869140625">
        <ele>4063.60009765625</ele>
        <time>2026-05-25T14:20:29.000Z</time>
        <extensions>
          <ns3:TrackPointExtension>
            <ns3:hr>133</ns3:hr>
            <ns3:cad>0</ns3:cad>
          </ns3:TrackPointExtension>
        </extensions>
      </trkpt>
      <trkpt lat="38.021740056574344635009765625" lon="-106.9334183447062969207763671875">
        <ele>4064</ele>
        <time>2026-05-25T14:20:30.000Z</time>
        <extensions>
          <ns3:TrackPointExtension>
            <ns3:hr>133</ns3:hr>
            <ns3:cad>0</ns3:cad>
          </ns3:TrackPointExtension>
        </extensions>
      </trkpt>
      <trkpt lat="38.02170963026583194732666015625" lon="-106.93339831195771694183349609375">
        <ele>4064.60009765625</ele>
        <time>2026-05-25T14:20:34.000Z</time>
        <extensions>
          <ns3:TrackPointExtension>
            <ns3:hr>131</ns3:hr>
            <ns3:cad>41</ns3:cad>
          </ns3:TrackPointExtension>
        </extensions>
      </trkpt>
      <trkpt lat="38.02169211208820343017578125" lon="-106.933394372463226318359375">
        <ele>4064.199951171875</ele>
        <time>2026-05-25T14:20:40.000Z</time>
        <extensions>
          <ns3:TrackPointExtension>
            <ns3:hr>132</ns3:hr>
            <ns3:cad>0</ns3:cad>
          </ns3:TrackPointExtension>
        </extensions>
      </trkpt>
      <trkpt lat="38.02169211208820343017578125" lon="-106.933394037187099456787109375">
        <ele>4064.199951171875</ele>
        <time>2026-05-25T14:20:41.000Z</time>
        <extensions>
          <ns3:TrackPointExtension>
            <ns3:hr>134</ns3:hr>
            <ns3:cad>0</ns3:cad>
          </ns3:TrackPointExtension>
        </extensions>
      </trkpt>
      <trkpt lat="38.021683730185031890869140625" lon="-106.93338540382683277130126953125">
        <ele>4064.39990234375</ele>
        <time>2026-05-25T14:20:44.000Z</time>
        <extensions>
          <ns3:TrackPointExtension>
            <ns3:hr>137</ns3:hr>
            <ns3:cad>0</ns3:cad>
          </ns3:TrackPointExtension>
        </extensions>
      </trkpt>
      <trkpt lat="38.02165816538035869598388671875" lon="-106.93337199278175830841064453125">
        <ele>4065</ele>
        <time>2026-05-25T14:20:47.000Z</time>
        <extensions>
          <ns3:TrackPointExtension>
            <ns3:hr>138</ns3:hr>
            <ns3:cad>0</ns3:cad>
          </ns3:TrackPointExtension>
        </extensions>
      </trkpt>
      <trkpt lat="38.02165280096232891082763671875" lon="-106.93337132222950458526611328125">
        <ele>4065.199951171875</ele>
        <time>2026-05-25T14:20:48.000Z</time>
        <extensions>
          <ns3:TrackPointExtension>
            <ns3:hr>137</ns3:hr>
            <ns3:cad>0</ns3:cad>
          </ns3:TrackPointExtension>
        </extensions>
      </trkpt>
      <trkpt lat="38.0216144956648349761962890625" lon="-106.9333546422421932220458984375">
        <ele>4066</ele>
        <time>2026-05-25T14:20:54.000Z</time>
        <extensions>
          <ns3:TrackPointExtension>
            <ns3:hr>137</ns3:hr>
            <ns3:cad>0</ns3:cad>
          </ns3:TrackPointExtension>
        </extensions>
      </trkpt>
      <trkpt lat="38.0216074548661708831787109375" lon="-106.93335036747157573699951171875">
        <ele>4066.199951171875</ele>
        <time>2026-05-25T14:20:55.000Z</time>
        <extensions>
          <ns3:TrackPointExtension>
            <ns3:hr>137</ns3:hr>
            <ns3:cad>0</ns3:cad>
          </ns3:TrackPointExtension>
        </extensions>
      </trkpt>
      <trkpt lat="38.0215747654438018798828125" lon="-106.9333278201520442962646484375">
        <ele>4066.199951171875</ele>
        <time>2026-05-25T14:21:01.000Z</time>
        <extensions>
          <ns3:TrackPointExtension>
            <ns3:hr>136</ns3:hr>
            <ns3:cad>0</ns3:cad>
          </ns3:TrackPointExtension>
        </extensions>
      </trkpt>
      <trkpt lat="38.02154517732560634613037109375" lon="-106.93329286761581897735595703125">
        <ele>4067.199951171875</ele>
        <time>2026-05-25T14:21:06.000Z</time>
        <extensions>
          <ns3:TrackPointExtension>
            <ns3:hr>135</ns3:hr>
            <ns3:cad>0</ns3:cad>
          </ns3:TrackPointExtension>
        </extensions>
      </trkpt>
      <trkpt lat="38.0215407349169254302978515625" lon="-106.93327962420880794525146484375">
        <ele>4067.39990234375</ele>
        <time>2026-05-25T14:21:07.000Z</time>
        <extensions>
          <ns3:TrackPointExtension>
            <ns3:hr>134</ns3:hr>
            <ns3:cad>0</ns3:cad>
          </ns3:TrackPointExtension>
        </extensions>
      </trkpt>
      <trkpt lat="38.02152573131024837493896484375" lon="-106.9332681410014629364013671875">
        <ele>4068.199951171875</ele>
        <time>2026-05-25T14:21:11.000Z</time>
        <extensions>
          <ns3:TrackPointExtension>
            <ns3:hr>133</ns3:hr>
            <ns3:cad>0</ns3:cad>
          </ns3:TrackPointExtension>
        </extensions>
      </trkpt>
      <trkpt lat="38.021526150405406951904296875" lon="-106.9332671351730823516845703125">
        <ele>4068.39990234375</ele>
        <time>2026-05-25T14:21:12.000Z</time>
        <extensions>
          <ns3:TrackPointExtension>
            <ns3:hr>133</ns3:hr>
            <ns3:cad>0</ns3:cad>
          </ns3:TrackPointExtension>
        </extensions>
      </trkpt>
      <trkpt lat="38.0214884318411350250244140625" lon="-106.93325447849929332733154296875">
        <ele>4069.199951171875</ele>
        <time>2026-05-25T14:21:16.000Z</time>
        <extensions>
          <ns3:TrackPointExtension>
            <ns3:hr>133</ns3:hr>
            <ns3:cad>0</ns3:cad>
          </ns3:TrackPointExtension>
        </extensions>
      </trkpt>
      <trkpt lat="38.02148097194731235504150390625" lon="-106.933246515691280364990234375">
        <ele>4069.199951171875</ele>
        <time>2026-05-25T14:21:17.000Z</time>
        <extensions>
          <ns3:TrackPointExtension>
            <ns3:hr>132</ns3:hr>
            <ns3:cad>0</ns3:cad>
          </ns3:TrackPointExtension>
        </extensions>
      </trkpt>
      <trkpt lat="38.021453730762004852294921875" lon="-106.93321642465889453887939453125">
        <ele>4069.199951171875</ele>
        <time>2026-05-25T14:21:22.000Z</time>
        <extensions>
          <ns3:TrackPointExtension>
            <ns3:hr>129</ns3:hr>
            <ns3:cad>0</ns3:cad>
          </ns3:TrackPointExtension>
        </extensions>
      </trkpt>
      <trkpt lat="38.02142129279673099517822265625" lon="-106.93320854566991329193115234375">
        <ele>4069.800048828125</ele>
        <time>2026-05-25T14:21:28.000Z</time>
        <extensions>
          <ns3:TrackPointExtension>
            <ns3:hr>131</ns3:hr>
            <ns3:cad>0</ns3:cad>
          </ns3:TrackPointExtension>
        </extensions>
      </trkpt>
      <trkpt lat="38.02141559310257434844970703125" lon="-106.93320569582283496856689453125">
        <ele>4070</ele>
        <time>2026-05-25T14:21:29.000Z</time>
        <extensions>
          <ns3:TrackPointExtension>
            <ns3:hr>131</ns3:hr>
            <ns3:cad>0</ns3:cad>
          </ns3:TrackPointExtension>
        </extensions>
      </trkpt>
      <trkpt lat="38.021401427686214447021484375" lon="-106.93320100195705890655517578125">
        <ele>4070.39990234375</ele>
        <time>2026-05-25T14:21:31.000Z</time>
        <extensions>
          <ns3:TrackPointExtension>
            <ns3:hr>131</ns3:hr>
            <ns3:cad>0</ns3:cad>
          </ns3:TrackPointExtension>
        </extensions>
      </trkpt>
      <trkpt lat="38.02138709463179111480712890625" lon="-106.9331900216639041900634765625">
        <ele>4070.60009765625</ele>
        <time>2026-05-25T14:21:35.000Z</time>
        <extensions>
          <ns3:TrackPointExtension>
            <ns3:hr>131</ns3:hr>
            <ns3:cad>0</ns3:cad>
          </ns3:TrackPointExtension>
        </extensions>
      </trkpt>
      <trkpt lat="38.02136429585516452789306640625" lon="-106.933176778256893157958984375">
        <ele>4071.60009765625</ele>
        <time>2026-05-25T14:21:40.000Z</time>
        <extensions>
          <ns3:TrackPointExtension>
            <ns3:hr>130</ns3:hr>
            <ns3:cad>0</ns3:cad>
          </ns3:TrackPointExtension>
        </extensions>
      </trkpt>
      <trkpt lat="38.02135356701910495758056640625" lon="-106.9331601820886135101318359375">
        <ele>4072</ele>
        <time>2026-05-25T14:21:42.000Z</time>
        <extensions>
          <ns3:TrackPointExtension>
            <ns3:hr>128</ns3:hr>
            <ns3:cad>0</ns3:cad>
          </ns3:TrackPointExtension>
        </extensions>
      </trkpt>
      <trkpt lat="38.02135356701910495758056640625" lon="-106.9331601820886135101318359375">
        <ele>4072</ele>
        <time>2026-05-25T14:21:43.000Z</time>
        <extensions>
          <ns3:TrackPointExtension>
            <ns3:hr>124</ns3:hr>
            <ns3:cad>0</ns3:cad>
          </ns3:TrackPointExtension>
        </extensions>
      </trkpt>
      <trkpt lat="38.021351806819438934326171875" lon="-106.93316009826958179473876953125">
        <ele>4072.199951171875</ele>
        <time>2026-05-25T14:21:44.000Z</time>
        <extensions>
          <ns3:TrackPointExtension>
            <ns3:hr>118</ns3:hr>
            <ns3:cad>0</ns3:cad>
          </ns3:TrackPointExtension>
        </extensions>
      </trkpt>
      <trkpt lat="38.02132976241409778594970703125" lon="-106.933151297271251678466796875">
        <ele>4072.60009765625</ele>
        <time>2026-05-25T14:21:48.000Z</time>
        <extensions>
          <ns3:TrackPointExtension>
            <ns3:hr>116</ns3:hr>
            <ns3:cad>0</ns3:cad>
          </ns3:TrackPointExtension>
        </extensions>
      </trkpt>
      <trkpt lat="38.0213207937777042388916015625" lon="-106.9331444241106510162353515625">
        <ele>4072.800048828125</ele>
        <time>2026-05-25T14:21:49.000Z</time>
        <extensions>
          <ns3:TrackPointExtension>
            <ns3:hr>116</ns3:hr>
            <ns3:cad>0</ns3:cad>
          </ns3:TrackPointExtension>
        </extensions>
      </trkpt>
      <trkpt lat="38.021299503743648529052734375" lon="-106.93312874995172023773193359375">
        <ele>4073.800048828125</ele>
        <time>2026-05-25T14:21:53.000Z</time>
        <extensions>
          <ns3:TrackPointExtension>
            <ns3:hr>119</ns3:hr>
            <ns3:cad>0</ns3:cad>
          </ns3:TrackPointExtension>
        </extensions>
      </trkpt>
      <trkpt lat="38.02129288204014301300048828125" lon="-106.9331181049346923828125">
        <ele>4074</ele>
        <time>2026-05-25T14:21:54.000Z</time>
        <extensions>
          <ns3:TrackPointExtension>
            <ns3:hr>123</ns3:hr>
            <ns3:cad>0</ns3:cad>
          </ns3:TrackPointExtension>
        </extensions>
      </trkpt>
      <trkpt lat="38.021289445459842681884765625" lon="-106.933111064136028289794921875">
        <ele>4074.199951171875</ele>
        <time>2026-05-25T14:21:55.000Z</time>
        <extensions>
          <ns3:TrackPointExtension>
            <ns3:hr>131</ns3:hr>
            <ns3:cad>0</ns3:cad>
          </ns3:TrackPointExtension>
        </extensions>
      </trkpt>
      <trkpt lat="38.021282069385051727294921875" lon="-106.9331092201173305511474609375">
        <ele>4074.39990234375</ele>
        <time>2026-05-25T14:21:56.000Z</time>
        <extensions>
          <ns3:TrackPointExtension>
            <ns3:hr>133</ns3:hr>
            <ns3:cad>0</ns3:cad>
          </ns3:TrackPointExtension>
        </extensions>
      </trkpt>
      <trkpt lat="38.02126270718872547149658203125" lon="-106.93307946436107158660888671875">
        <ele>4074.800048828125</ele>
        <time>2026-05-25T14:22:01.000Z</time>
        <extensions>
          <ns3:TrackPointExtension>
            <ns3:hr>134</ns3:hr>
            <ns3:cad>0</ns3:cad>
          </ns3:TrackPointExtension>
        </extensions>
      </trkpt>
      <trkpt lat="38.02125365473330020904541015625" lon="-106.9330612756311893463134765625">
        <ele>4075.199951171875</ele>
        <time>2026-05-25T14:22:02.000Z</time>
        <extensions>
          <ns3:TrackPointExtension>
            <ns3:hr>134</ns3:hr>
            <ns3:cad>0</ns3:cad>
          </ns3:TrackPointExtension>
        </extensions>
      </trkpt>
      <trkpt lat="38.02123538218438625335693359375" lon="-106.93303428590297698974609375">
        <ele>4075.800048828125</ele>
        <time>2026-05-25T14:22:06.000Z</time>
        <extensions>
          <ns3:TrackPointExtension>
            <ns3:hr>137</ns3:hr>
            <ns3:cad>78</ns3:cad>
          </ns3:TrackPointExtension>
        </extensions>
      </trkpt>
      <trkpt lat="38.02122884429991245269775390625" lon="-106.9330240599811077117919921875">
        <ele>4075.800048828125</ele>
        <time>2026-05-25T14:22:07.000Z</time>
        <extensions>
          <ns3:TrackPointExtension>
            <ns3:hr>137</ns3:hr>
            <ns3:cad>78</ns3:cad>
          </ns3:TrackPointExtension>
        </extensions>
      </trkpt>
      <trkpt lat="38.02122180350124835968017578125" lon="-106.93300704471766948699951171875">
        <ele>4076</ele>
        <time>2026-05-25T14:22:09.000Z</time>
        <extensions>
          <ns3:TrackPointExtension>
            <ns3:hr>138</ns3:hr>
            <ns3:cad>42</ns3:cad>
          </ns3:TrackPointExtension>
        </extensions>
      </trkpt>
      <trkpt lat="38.0212027765810489654541015625" lon="-106.9329741038382053375244140625">
        <ele>4076.39990234375</ele>
        <time>2026-05-25T14:22:12.000Z</time>
        <extensions>
          <ns3:TrackPointExtension>
            <ns3:hr>136</ns3:hr>
            <ns3:cad>42</ns3:cad>
          </ns3:TrackPointExtension>
        </extensions>
      </trkpt>
      <trkpt lat="38.0211873538792133331298828125" lon="-106.93295826204121112823486328125">
        <ele>4076.60009765625</ele>
        <time>2026-05-25T14:22:15.000Z</time>
        <extensions>
          <ns3:TrackPointExtension>
            <ns3:hr>133</ns3:hr>
            <ns3:cad>41</ns3:cad>
          </ns3:TrackPointExtension>
        </extensions>
      </trkpt>
      <trkpt lat="38.02117654122412204742431640625" lon="-106.9329492934048175811767578125">
        <ele>4077.199951171875</ele>
        <time>2026-05-25T14:22:18.000Z</time>
        <extensions>
          <ns3:TrackPointExtension>
            <ns3:hr>134</ns3:hr>
            <ns3:cad>41</ns3:cad>
          </ns3:TrackPointExtension>
        </extensions>
      </trkpt>
      <trkpt lat="38.02116614766418933868408203125" lon="-106.93294334225356578826904296875">
        <ele>4077.39990234375</ele>
        <time>2026-05-25T14:22:19.000Z</time>
        <extensions>
          <ns3:TrackPointExtension>
            <ns3:hr>134</ns3:hr>
            <ns3:cad>41</ns3:cad>
          </ns3:TrackPointExtension>
        </extensions>
      </trkpt>
      <trkpt lat="38.02113312296569347381591796875" lon="-106.93291492760181427001953125">
        <ele>4078</ele>
        <time>2026-05-25T14:22:25.000Z</time>
        <extensions>
          <ns3:TrackPointExtension>
            <ns3:hr>135</ns3:hr>
            <ns3:cad>76</ns3:cad>
          </ns3:TrackPointExtension>
        </extensions>
      </trkpt>
      <trkpt lat="38.02112138830125331878662109375" lon="-106.93290193565189838409423828125">
        <ele>4078</ele>
        <time>2026-05-25T14:22:27.000Z</time>
        <extensions>
          <ns3:TrackPointExtension>
            <ns3:hr>138</ns3:hr>
            <ns3:cad>77</ns3:cad>
          </ns3:TrackPointExtension>
        </extensions>
      </trkpt>
      <trkpt lat="38.0211176164448261260986328125" lon="-106.93289556540548801422119140625">
        <ele>4078.199951171875</ele>
        <time>2026-05-25T14:22:28.000Z</time>
        <extensions>
          <ns3:TrackPointExtension>
            <ns3:hr>138</ns3:hr>
            <ns3:cad>0</ns3:cad>
          </ns3:TrackPointExtension>
        </extensions>
      </trkpt>
      <trkpt lat="38.021098338067531585693359375" lon="-106.93287997506558895111083984375">
        <ele>4079</ele>
        <time>2026-05-25T14:22:31.000Z</time>
        <extensions>
          <ns3:TrackPointExtension>
            <ns3:hr>138</ns3:hr>
            <ns3:cad>72</ns3:cad>
          </ns3:TrackPointExtension>
        </extensions>
      </trkpt>
      <trkpt lat="38.02106858231127262115478515625" lon="-106.93283739499747753143310546875">
        <ele>4079.199951171875</ele>
        <time>2026-05-25T14:22:37.000Z</time>
        <extensions>
          <ns3:TrackPointExtension>
            <ns3:hr>138</ns3:hr>
            <ns3:cad>0</ns3:cad>
          </ns3:TrackPointExtension>
        </extensions>
      </trkpt>
      <trkpt lat="38.0210619606077671051025390625" lon="-106.93283169530332088470458984375">
        <ele>4079.199951171875</ele>
        <time>2026-05-25T14:22:38.000Z</time>
        <extensions>
          <ns3:TrackPointExtension>
            <ns3:hr>138</ns3:hr>
            <ns3:cad>0</ns3:cad>
          </ns3:TrackPointExtension>
        </extensions>
      </trkpt>
      <trkpt lat="38.02102801389992237091064453125" lon="-106.9328138418495655059814453125">
        <ele>4080.39990234375</ele>
        <time>2026-05-25T14:22:43.000Z</time>
        <extensions>
          <ns3:TrackPointExtension>
            <ns3:hr>137</ns3:hr>
            <ns3:cad>0</ns3:cad>
          </ns3:TrackPointExtension>
        </extensions>
      </trkpt>
      <trkpt lat="38.02101242356002330780029296875" lon="-106.93279598839581012725830078125">
        <ele>4080.60009765625</ele>
        <time>2026-05-25T14:22:46.000Z</time>
        <extensions>
          <ns3:TrackPointExtension>
            <ns3:hr>137</ns3:hr>
            <ns3:cad>0</ns3:cad>
          </ns3:TrackPointExtension>
        </extensions>
      </trkpt>
      <trkpt lat="38.0209831707179546356201171875" lon="-106.93276430480182170867919921875">
        <ele>4081.199951171875</ele>
        <time>2026-05-25T14:22:52.000Z</time>
        <extensions>
          <ns3:TrackPointExtension>
            <ns3:hr>137</ns3:hr>
            <ns3:cad>0</ns3:cad>
          </ns3:TrackPointExtension>
        </extensions>
      </trkpt>
      <trkpt lat="38.02096665836870670318603515625" lon="-106.932739913463592529296875">
        <ele>4081.199951171875</ele>
        <time>2026-05-25T14:22:54.000Z</time>
        <extensions>
          <ns3:TrackPointExtension>
            <ns3:hr>137</ns3:hr>
            <ns3:cad>0</ns3:cad>
          </ns3:TrackPointExtension>
        </extensions>
      </trkpt>
      <trkpt lat="38.02096062339842319488525390625" lon="-106.93272708915174007415771484375">
        <ele>4081.39990234375</ele>
        <time>2026-05-25T14:22:55.000Z</time>
        <extensions>
          <ns3:TrackPointExtension>
            <ns3:hr>137</ns3:hr>
            <ns3:cad>0</ns3:cad>
          </ns3:TrackPointExtension>
        </extensions>
      </trkpt>
      <trkpt lat="38.02093815989792346954345703125" lon="-106.932696662843227386474609375">
        <ele>4081.800048828125</ele>
        <time>2026-05-25T14:22:59.000Z</time>
        <extensions>
          <ns3:TrackPointExtension>
            <ns3:hr>135</ns3:hr>
            <ns3:cad>0</ns3:cad>
          </ns3:TrackPointExtension>
        </extensions>
      </trkpt>
      <trkpt lat="38.02091083489358425140380859375" lon="-106.93265584297478199005126953125">
        <ele>4082.199951171875</ele>
        <time>2026-05-25T14:23:05.000Z</time>
        <extensions>
          <ns3:TrackPointExtension>
            <ns3:hr>135</ns3:hr>
            <ns3:cad>0</ns3:cad>
          </ns3:TrackPointExtension>
        </extensions>
      </trkpt>
      <trkpt lat="38.0208953283727169036865234375" lon="-106.93265114910900592803955078125">
        <ele>4082.39990234375</ele>
        <time>2026-05-25T14:23:07.000Z</time>
        <extensions>
          <ns3:TrackPointExtension>
            <ns3:hr>136</ns3:hr>
            <ns3:cad>0</ns3:cad>
          </ns3:TrackPointExtension>
        </extensions>
      </trkpt>
      <trkpt lat="38.02087194286286830902099609375" lon="-106.93261980079114437103271484375">
        <ele>4083.199951171875</ele>
        <time>2026-05-25T14:23:11.000Z</time>
        <extensions>
          <ns3:TrackPointExtension>
            <ns3:hr>137</ns3:hr>
            <ns3:cad>0</ns3:cad>
          </ns3:TrackPointExtension>
        </extensions>
      </trkpt>
      <trkpt lat="38.020838834345340728759765625" lon="-106.93258174695074558258056640625">
        <ele>4083.60009765625</ele>
        <time>2026-05-25T14:23:17.000Z</time>
        <extensions>
          <ns3:TrackPointExtension>
            <ns3:hr>135</ns3:hr>
            <ns3:cad>0</ns3:cad>
          </ns3:TrackPointExtension>
        </extensions>
      </trkpt>
      <trkpt lat="38.02080832421779632568359375" lon="-106.932571269571781158447265625">
        <ele>4084.39990234375</ele>
        <time>2026-05-25T14:23:22.000Z</time>
        <extensions>
          <ns3:TrackPointExtension>
            <ns3:hr>129</ns3:hr>
            <ns3:cad>0</ns3:cad>
          </ns3:TrackPointExtension>
        </extensions>
      </trkpt>
      <trkpt lat="38.0207823403179645538330078125" lon="-106.93254838697612285614013671875">
        <ele>4084.60009765625</ele>
        <time>2026-05-25T14:23:24.000Z</time>
        <extensions>
          <ns3:TrackPointExtension>
            <ns3:hr>128</ns3:hr>
            <ns3:cad>0</ns3:cad>
          </ns3:TrackPointExtension>
        </extensions>
      </trkpt>
      <trkpt lat="38.0207454599440097808837890625" lon="-106.9325030408799648284912109375">
        <ele>4085.60009765625</ele>
        <time>2026-05-25T14:23:30.000Z</time>
        <extensions>
          <ns3:TrackPointExtension>
            <ns3:hr>127</ns3:hr>
            <ns3:cad>61</ns3:cad>
          </ns3:TrackPointExtension>
        </extensions>
      </trkpt>
      <trkpt lat="38.02073984406888484954833984375" lon="-106.93249457515776157379150390625">
        <ele>4085.800048828125</ele>
        <time>2026-05-25T14:23:31.000Z</time>
        <extensions>
          <ns3:TrackPointExtension>
            <ns3:hr>127</ns3:hr>
            <ns3:cad>61</ns3:cad>
          </ns3:TrackPointExtension>
        </extensions>
      </trkpt>
      <trkpt lat="38.02072324790060520172119140625" lon="-106.9324649870395660400390625">
        <ele>4086.199951171875</ele>
        <time>2026-05-25T14:23:34.000Z</time>
        <extensions>
          <ns3:TrackPointExtension>
            <ns3:hr>130</ns3:hr>
            <ns3:cad>0</ns3:cad>
          </ns3:TrackPointExtension>
        </extensions>
      </trkpt>
      <trkpt lat="38.02071654237806797027587890625" lon="-106.93244964815676212310791015625">
        <ele>4086.39990234375</ele>
        <time>2026-05-25T14:23:36.000Z</time>
        <extensions>
          <ns3:TrackPointExtension>
            <ns3:hr>130</ns3:hr>
            <ns3:cad>0</ns3:cad>
          </ns3:TrackPointExtension>
        </extensions>
      </trkpt>
      <trkpt lat="38.02069298923015594482421875" lon="-106.9324274361133575439453125">
        <ele>4086.800048828125</ele>
        <time>2026-05-25T14:23:40.000Z</time>
        <extensions>
          <ns3:TrackPointExtension>
            <ns3:hr>129</ns3:hr>
            <ns3:cad>0</ns3:cad>
          </ns3:TrackPointExtension>
        </extensions>
      </trkpt>
      <trkpt lat="38.02069005556404590606689453125" lon="-106.9324262626469135284423828125">
        <ele>4087.199951171875</ele>
        <time>2026-05-25T14:23:42.000Z</time>
        <extensions>
          <ns3:TrackPointExtension>
            <ns3:hr>128</ns3:hr>
            <ns3:cad>0</ns3:cad>
          </ns3:TrackPointExtension>
        </extensions>
      </trkpt>
      <trkpt lat="38.02068083547055721282958984375" lon="-106.93242668174207210540771484375">
        <ele>4087.199951171875</ele>
        <time>2026-05-25T14:23:43.000Z</time>
        <extensions>
          <ns3:TrackPointExtension>
            <ns3:hr>128</ns3:hr>
            <ns3:cad>0</ns3:cad>
          </ns3:TrackPointExtension>
        </extensions>
      </trkpt>
      <trkpt lat="38.0206656642258167266845703125" lon="-106.93240933120250701904296875">
        <ele>4087.800048828125</ele>
        <time>2026-05-25T14:23:48.000Z</time>
        <extensions>
          <ns3:TrackPointExtension>
            <ns3:hr>129</ns3:hr>
            <ns3:cad>0</ns3:cad>
          </ns3:TrackPointExtension>
        </extensions>
      </trkpt>
      <trkpt lat="38.0206586234271526336669921875" lon="-106.9324071519076824188232421875">
        <ele>4088</ele>
        <time>2026-05-25T14:23:49.000Z</time>
        <extensions>
          <ns3:TrackPointExtension>
            <ns3:hr>129</ns3:hr>
            <ns3:cad>0</ns3:cad>
          </ns3:TrackPointExtension>
        </extensions>
      </trkpt>
      <trkpt lat="38.02064663730561733245849609375" lon="-106.93238410167396068572998046875">
        <ele>4089.199951171875</ele>
        <time>2026-05-25T14:23:53.000Z</time>
        <extensions>
          <ns3:TrackPointExtension>
            <ns3:hr>128</ns3:hr>
            <ns3:cad>55</ns3:cad>
          </ns3:TrackPointExtension>
        </extensions>
      </trkpt>
      <trkpt lat="38.0206432007253170013427734375" lon="-106.9323759712278842926025390625">
        <ele>4089.39990234375</ele>
        <time>2026-05-25T14:23:54.000Z</time>
        <extensions>
          <ns3:TrackPointExtension>
            <ns3:hr>128</ns3:hr>
            <ns3:cad>55</ns3:cad>
          </ns3:TrackPointExtension>
        </extensions>
      </trkpt>
      <trkpt lat="38.02062585018575191497802734375" lon="-106.93234537728130817413330078125">
        <ele>4090</ele>
        <time>2026-05-25T14:23:59.000Z</time>
        <extensions>
          <ns3:TrackPointExtension>
            <ns3:hr>128</ns3:hr>
            <ns3:cad>0</ns3:cad>
          </ns3:TrackPointExtension>
        </extensions>
      </trkpt>
      <trkpt lat="38.02060992456972599029541015625" lon="-106.93234923295676708221435546875">
        <ele>4090.199951171875</ele>
        <time>2026-05-25T14:24:01.000Z</time>
        <extensions>
          <ns3:TrackPointExtension>
            <ns3:hr>127</ns3:hr>
            <ns3:cad>0</ns3:cad>
          </ns3:TrackPointExtension>
        </extensions>
      </trkpt>
      <trkpt lat="38.020592741668224334716796875" lon="-106.93233984522521495819091796875">
        <ele>4090.800048828125</ele>
        <time>2026-05-25T14:24:04.000Z</time>
        <extensions>
          <ns3:TrackPointExtension>
            <ns3:hr>128</ns3:hr>
            <ns3:cad>0</ns3:cad>
          </ns3:TrackPointExtension>
        </extensions>
      </trkpt>
      <trkpt lat="38.02057631313800811767578125" lon="-106.93232157267630100250244140625">
        <ele>4091.39990234375</ele>
        <time>2026-05-25T14:24:07.000Z</time>
        <extensions>
          <ns3:TrackPointExtension>
            <ns3:hr>129</ns3:hr>
            <ns3:cad>0</ns3:cad>
          </ns3:TrackPointExtension>
        </extensions>
      </trkpt>
      <trkpt lat="38.02056633867323398590087890625" lon="-106.9322975166141986846923828125">
        <ele>4092</ele>
        <time>2026-05-25T14:24:11.000Z</time>
        <extensions>
          <ns3:TrackPointExtension>
            <ns3:hr>130</ns3:hr>
            <ns3:cad>0</ns3:cad>
          </ns3:TrackPointExtension>
        </extensions>
      </trkpt>
      <trkpt lat="38.02055418491363525390625" lon="-106.93227144889533519744873046875">
        <ele>4092.39990234375</ele>
        <time>2026-05-25T14:24:16.000Z</time>
        <extensions>
          <ns3:TrackPointExtension>
            <ns3:hr>131</ns3:hr>
            <ns3:cad>0</ns3:cad>
          </ns3:TrackPointExtension>
        </extensions>
      </trkpt>
      <trkpt lat="38.02054882049560546875" lon="-106.93226155824959278106689453125">
        <ele>4092.800048828125</ele>
        <time>2026-05-25T14:24:18.000Z</time>
        <extensions>
          <ns3:TrackPointExtension>
            <ns3:hr>131</ns3:hr>
            <ns3:cad>0</ns3:cad>
          </ns3:TrackPointExtension>
        </extensions>
      </trkpt>
      <trkpt lat="38.020530045032501220703125" lon="-106.9322364963591098785400390625">
        <ele>4093.60009765625</ele>
        <time>2026-05-25T14:24:23.000Z</time>
        <extensions>
          <ns3:TrackPointExtension>
            <ns3:hr>131</ns3:hr>
            <ns3:cad>0</ns3:cad>
          </ns3:TrackPointExtension>
        </extensions>
      </trkpt>
      <trkpt lat="38.020525686442852020263671875" lon="-106.9322343170642852783203125">
        <ele>4094</ele>
        <time>2026-05-25T14:24:25.000Z</time>
        <extensions>
          <ns3:TrackPointExtension>
            <ns3:hr>130</ns3:hr>
            <ns3:cad>0</ns3:cad>
          </ns3:TrackPointExtension>
        </extensions>
      </trkpt>
      <trkpt lat="38.02051587961614131927490234375" lon="-106.93221998400986194610595703125">
        <ele>4094.60009765625</ele>
        <time>2026-05-25T14:24:28.000Z</time>
        <extensions>
          <ns3:TrackPointExtension>
            <ns3:hr>130</ns3:hr>
            <ns3:cad>0</ns3:cad>
          </ns3:TrackPointExtension>
        </extensions>
      </trkpt>
      <trkpt lat="38.02050632424652576446533203125" lon="-106.93221143446862697601318359375">
        <ele>4095</ele>
        <time>2026-05-25T14:24:31.000Z</time>
        <extensions>
          <ns3:TrackPointExtension>
            <ns3:hr>129</ns3:hr>
            <ns3:cad>0</ns3:cad>
          </ns3:TrackPointExtension>
        </extensions>
      </trkpt>
      <trkpt lat="38.02048218436539173126220703125" lon="-106.93220707587897777557373046875">
        <ele>4095.60009765625</ele>
        <time>2026-05-25T14:24:35.000Z</time>
        <extensions>
          <ns3:TrackPointExtension>
            <ns3:hr>129</ns3:hr>
            <ns3:cad>0</ns3:cad>
          </ns3:TrackPointExtension>
        </extensions>
      </trkpt>
      <trkpt lat="38.0204728804528713226318359375" lon="-106.93220355547964572906494140625">
        <ele>4096.39990234375</ele>
        <time>2026-05-25T14:24:39.000Z</time>
        <extensions>
          <ns3:TrackPointExtension>
            <ns3:hr>129</ns3:hr>
            <ns3:cad>0</ns3:cad>
          </ns3:TrackPointExtension>
        </extensions>
      </trkpt>
      <trkpt lat="38.0204601399600505828857421875" lon="-106.9321885518729686737060546875">
        <ele>4096.60009765625</ele>
        <time>2026-05-25T14:24:41.000Z</time>
        <extensions>
          <ns3:TrackPointExtension>
            <ns3:hr>129</ns3:hr>
            <ns3:cad>0</ns3:cad>
          </ns3:TrackPointExtension>
        </extensions>
      </trkpt>
      <trkpt lat="38.0204577930271625518798828125" lon="-106.93218444474041461944580078125">
        <ele>4097.39990234375</ele>
        <time>2026-05-25T14:24:45.000Z</time>
        <extensions>
          <ns3:TrackPointExtension>
            <ns3:hr>128</ns3:hr>
            <ns3:cad>0</ns3:cad>
          </ns3:TrackPointExtension>
        </extensions>
      </trkpt>
      <trkpt lat="38.02045234479010105133056640625" lon="-106.9321691058576107025146484375">
        <ele>4097.7998046875</ele>
        <time>2026-05-25T14:24:47.000Z</time>
        <extensions>
          <ns3:TrackPointExtension>
            <ns3:hr>128</ns3:hr>
            <ns3:cad>0</ns3:cad>
          </ns3:TrackPointExtension>
        </extensions>
      </trkpt>
      <trkpt lat="38.02044999785721302032470703125" lon="-106.93214513361454010009765625">
        <ele>4098.60009765625</ele>
        <time>2026-05-25T14:24:51.000Z</time>
        <extensions>
          <ns3:TrackPointExtension>
            <ns3:hr>129</ns3:hr>
            <ns3:cad>0</ns3:cad>
          </ns3:TrackPointExtension>
        </extensions>
      </trkpt>
      <trkpt lat="38.02044731564819812774658203125" lon="-106.93212141282856464385986328125">
        <ele>4099</ele>
        <time>2026-05-25T14:24:53.000Z</time>
        <extensions>
          <ns3:TrackPointExtension>
            <ns3:hr>129</ns3:hr>
            <ns3:cad>0</ns3:cad>
          </ns3:TrackPointExtension>
        </extensions>
      </trkpt>
      <trkpt lat="38.0204383470118045806884765625" lon="-106.932089142501354217529296875">
        <ele>4099.2001953125</ele>
        <time>2026-05-25T14:24:57.000Z</time>
        <extensions>
          <ns3:TrackPointExtension>
            <ns3:hr>130</ns3:hr>
            <ns3:cad>0</ns3:cad>
          </ns3:TrackPointExtension>
        </extensions>
      </trkpt>
      <trkpt lat="38.02042686380445957183837890625" lon="-106.932057626545429229736328125">
        <ele>4099.39990234375</ele>
        <time>2026-05-25T14:25:02.000Z</time>
        <extensions>
          <ns3:TrackPointExtension>
            <ns3:hr>127</ns3:hr>
            <ns3:cad>0</ns3:cad>
          </ns3:TrackPointExtension>
        </extensions>
      </trkpt>
      <trkpt lat="38.02042401395738124847412109375" lon="-106.932047568261623382568359375">
        <ele>4099.39990234375</ele>
        <time>2026-05-25T14:25:03.000Z</time>
        <extensions>
          <ns3:TrackPointExtension>
            <ns3:hr>124</ns3:hr>
            <ns3:cad>0</ns3:cad>
          </ns3:TrackPointExtension>
        </extensions>
      </trkpt>
      <trkpt lat="38.0204172246158123016357421875" lon="-106.932032816112041473388671875">
        <ele>4099.39990234375</ele>
        <time>2026-05-25T14:25:05.000Z</time>
        <extensions>
          <ns3:TrackPointExtension>
            <ns3:hr>118</ns3:hr>
            <ns3:cad>0</ns3:cad>
          </ns3:TrackPointExtension>
        </extensions>
      </trkpt>
      <trkpt lat="38.0204165540635585784912109375" lon="-106.93202451802790164947509765625">
        <ele>4099.39990234375</ele>
        <time>2026-05-25T14:25:06.000Z</time>
        <extensions>
          <ns3:TrackPointExtension>
            <ns3:hr>118</ns3:hr>
            <ns3:cad>0</ns3:cad>
          </ns3:TrackPointExtension>
        </extensions>
      </trkpt>
      <trkpt lat="38.020419739186763763427734375" lon="-106.9319991208612918853759765625">
        <ele>4100</ele>
        <time>2026-05-25T14:25:11.000Z</time>
        <extensions>
          <ns3:TrackPointExtension>
            <ns3:hr>119</ns3:hr>
            <ns3:cad>0</ns3:cad>
          </ns3:TrackPointExtension>
        </extensions>
      </trkpt>
      <trkpt lat="38.02042015828192234039306640625" lon="-106.9319914095103740692138671875">
        <ele>4100.2001953125</ele>
        <time>2026-05-25T14:25:12.000Z</time>
        <extensions>
          <ns3:TrackPointExtension>
            <ns3:hr>120</ns3:hr>
            <ns3:cad>0</ns3:cad>
          </ns3:TrackPointExtension>
        </extensions>
      </trkpt>
      <trkpt lat="38.02040825597941875457763671875" lon="-106.931959055364131927490234375">
        <ele>4101</ele>
        <time>2026-05-25T14:25:17.000Z</time>
        <extensions>
          <ns3:TrackPointExtension>
            <ns3:hr>121</ns3:hr>
            <ns3:cad>0</ns3:cad>
          </ns3:TrackPointExtension>
        </extensions>
      </trkpt>
      <trkpt lat="38.02040657959878444671630859375" lon="-106.931942291557788848876953125">
        <ele>4101.39990234375</ele>
        <time>2026-05-25T14:25:19.000Z</time>
        <extensions>
          <ns3:TrackPointExtension>
            <ns3:hr>122</ns3:hr>
            <ns3:cad>0</ns3:cad>
          </ns3:TrackPointExtension>
        </extensions>
      </trkpt>
      <trkpt lat="38.0203823558986186981201171875" lon="-106.93188630044460296630859375">
        <ele>4102</ele>
        <time>2026-05-25T14:25:25.000Z</time>
        <extensions>
          <ns3:TrackPointExtension>
            <ns3:hr>122</ns3:hr>
            <ns3:cad>68</ns3:cad>
          </ns3:TrackPointExtension>
        </extensions>
      </trkpt>
      <trkpt lat="38.02037975750863552093505859375" lon="-106.931870542466640472412109375">
        <ele>4102.2001953125</ele>
        <time>2026-05-25T14:25:26.000Z</time>
        <extensions>
          <ns3:TrackPointExtension>
            <ns3:hr>122</ns3:hr>
            <ns3:cad>60</ns3:cad>
          </ns3:TrackPointExtension>
        </extensions>
      </trkpt>
      <trkpt lat="38.02038277499377727508544921875" lon="-106.93181597627699375152587890625">
        <ele>4103.2001953125</ele>
        <time>2026-05-25T14:25:32.000Z</time>
        <extensions>
          <ns3:TrackPointExtension>
            <ns3:hr>124</ns3:hr>
            <ns3:cad>0</ns3:cad>
          </ns3:TrackPointExtension>
        </extensions>
      </trkpt>
      <trkpt lat="38.02038319408893585205078125" lon="-106.9318029843270778656005859375">
        <ele>4103.2001953125</ele>
        <time>2026-05-25T14:25:33.000Z</time>
        <extensions>
          <ns3:TrackPointExtension>
            <ns3:hr>125</ns3:hr>
            <ns3:cad>0</ns3:cad>
          </ns3:TrackPointExtension>
        </extensions>
      </trkpt>
      <trkpt lat="38.0203716270625591278076171875" lon="-106.93177490495145320892333984375">
        <ele>4103.2001953125</ele>
        <time>2026-05-25T14:25:37.000Z</time>
        <extensions>
          <ns3:TrackPointExtension>
            <ns3:hr>126</ns3:hr>
            <ns3:cad>0</ns3:cad>
          </ns3:TrackPointExtension>
        </extensions>
      </trkpt>
      <trkpt lat="38.02036735229194164276123046875" lon="-106.931755207479000091552734375">
        <ele>4103.60009765625</ele>
        <time>2026-05-25T14:25:40.000Z</time>
        <extensions>
          <ns3:TrackPointExtension>
            <ns3:hr>129</ns3:hr>
            <ns3:cad>0</ns3:cad>
          </ns3:TrackPointExtension>
        </extensions>
      </trkpt>
      <trkpt lat="38.0203704535961151123046875" lon="-106.93174389190971851348876953125">
        <ele>4104</ele>
        <time>2026-05-25T14:25:42.000Z</time>
        <extensions>
          <ns3:TrackPointExtension>
            <ns3:hr>130</ns3:hr>
            <ns3:cad>0</ns3:cad>
          </ns3:TrackPointExtension>
        </extensions>
      </trkpt>
      <trkpt lat="38.0203736387193202972412109375" lon="-106.93171036429703235626220703125">
        <ele>4104.39990234375</ele>
        <time>2026-05-25T14:25:44.000Z</time>
        <extensions>
          <ns3:TrackPointExtension>
            <ns3:hr>131</ns3:hr>
            <ns3:cad>0</ns3:cad>
          </ns3:TrackPointExtension>
        </extensions>
      </trkpt>
      <trkpt lat="38.02038495428860187530517578125" lon="-106.9316749088466167449951171875">
        <ele>4105.60009765625</ele>
        <time>2026-05-25T14:25:49.000Z</time>
        <extensions>
          <ns3:TrackPointExtension>
            <ns3:hr>132</ns3:hr>
            <ns3:cad>0</ns3:cad>
          </ns3:TrackPointExtension>
        </extensions>
      </trkpt>
      <trkpt lat="38.02038009278476238250732421875" lon="-106.9316651858389377593994140625">
        <ele>4105.60009765625</ele>
        <time>2026-05-25T14:25:50.000Z</time>
        <extensions>
          <ns3:TrackPointExtension>
            <ns3:hr>132</ns3:hr>
            <ns3:cad>0</ns3:cad>
          </ns3:TrackPointExtension>
        </extensions>
      </trkpt>
      <trkpt lat="38.02037020213901996612548828125" lon="-106.9316299818456172943115234375">
        <ele>4106</ele>
        <time>2026-05-25T14:25:56.000Z</time>
        <extensions>
          <ns3:TrackPointExtension>
            <ns3:hr>134</ns3:hr>
            <ns3:cad>0</ns3:cad>
          </ns3:TrackPointExtension>
        </extensions>
      </trkpt>
      <trkpt lat="38.0203696154057979583740234375" lon="-106.9316227734088897705078125">
        <ele>4106</ele>
        <time>2026-05-25T14:25:57.000Z</time>
        <extensions>
          <ns3:TrackPointExtension>
            <ns3:hr>133</ns3:hr>
            <ns3:cad>0</ns3:cad>
          </ns3:TrackPointExtension>
        </extensions>
      </trkpt>
      <trkpt lat="38.0203652568161487579345703125" lon="-106.931582204997539520263671875">
        <ele>4105.7998046875</ele>
        <time>2026-05-25T14:26:03.000Z</time>
        <extensions>
          <ns3:TrackPointExtension>
            <ns3:hr>132</ns3:hr>
            <ns3:cad>0</ns3:cad>
          </ns3:TrackPointExtension>
        </extensions>
      </trkpt>
      <trkpt lat="38.02036249078810214996337890625" lon="-106.93156653083860874176025390625">
        <ele>4106</ele>
        <time>2026-05-25T14:26:04.000Z</time>
        <extensions>
          <ns3:TrackPointExtension>
            <ns3:hr>131</ns3:hr>
            <ns3:cad>0</ns3:cad>
          </ns3:TrackPointExtension>
        </extensions>
      </trkpt>
      <trkpt lat="38.02036249078810214996337890625" lon="-106.93155144341289997100830078125">
        <ele>4106.39990234375</ele>
        <time>2026-05-25T14:26:06.000Z</time>
        <extensions>
          <ns3:TrackPointExtension>
            <ns3:hr>134</ns3:hr>
            <ns3:cad>0</ns3:cad>
          </ns3:TrackPointExtension>
        </extensions>
      </trkpt>
      <trkpt lat="38.02036039531230926513671875" lon="-106.93154289387166500091552734375">
        <ele>4106.39990234375</ele>
        <time>2026-05-25T14:26:07.000Z</time>
        <extensions>
          <ns3:TrackPointExtension>
            <ns3:hr>141</ns3:hr>
            <ns3:cad>0</ns3:cad>
          </ns3:TrackPointExtension>
        </extensions>
      </trkpt>
      <trkpt lat="38.020356707274913787841796875" lon="-106.9315396249294281005859375">
        <ele>4106.39990234375</ele>
        <time>2026-05-25T14:26:08.000Z</time>
        <extensions>
          <ns3:TrackPointExtension>
            <ns3:hr>144</ns3:hr>
            <ns3:cad>0</ns3:cad>
          </ns3:TrackPointExtension>
        </extensions>
      </trkpt>
      <trkpt lat="38.02035729400813579559326171875" lon="-106.93153032101690769195556640625">
        <ele>4106.60009765625</ele>
        <time>2026-05-25T14:26:10.000Z</time>
        <extensions>
          <ns3:TrackPointExtension>
            <ns3:hr>146</ns3:hr>
            <ns3:cad>0</ns3:cad>
          </ns3:TrackPointExtension>
        </extensions>
      </trkpt>
      <trkpt lat="38.02035293541848659515380859375" lon="-106.93152059800922870635986328125">
        <ele>4106.60009765625</ele>
        <time>2026-05-25T14:26:11.000Z</time>
        <extensions>
          <ns3:TrackPointExtension>
            <ns3:hr>146</ns3:hr>
            <ns3:cad>0</ns3:cad>
          </ns3:TrackPointExtension>
        </extensions>
      </trkpt>
      <trkpt lat="38.02034555934369564056396484375" lon="-106.9314831309020519256591796875">
        <ele>4107.39990234375</ele>
        <time>2026-05-25T14:26:17.000Z</time>
        <extensions>
          <ns3:TrackPointExtension>
            <ns3:hr>147</ns3:hr>
            <ns3:cad>65</ns3:cad>
          </ns3:TrackPointExtension>
        </extensions>
      </trkpt>
      <trkpt lat="38.02034522406756877899169921875" lon="-106.93147365935146808624267578125">
        <ele>4107.7998046875</ele>
        <time>2026-05-25T14:26:18.000Z</time>
        <extensions>
          <ns3:TrackPointExtension>
            <ns3:hr>147</ns3:hr>
            <ns3:cad>65</ns3:cad>
          </ns3:TrackPointExtension>
        </extensions>
      </trkpt>
      <trkpt lat="38.02034203894436359405517578125" lon="-106.93144641816616058349609375">
        <ele>4109</ele>
        <time>2026-05-25T14:26:22.000Z</time>
        <extensions>
          <ns3:TrackPointExtension>
            <ns3:hr>146</ns3:hr>
            <ns3:cad>0</ns3:cad>
          </ns3:TrackPointExtension>
        </extensions>
      </trkpt>
      <trkpt lat="38.02033969201147556304931640625" lon="-106.93144331686198711395263671875">
        <ele>4109.2001953125</ele>
        <time>2026-05-25T14:26:23.000Z</time>
        <extensions>
          <ns3:TrackPointExtension>
            <ns3:hr>146</ns3:hr>
            <ns3:cad>0</ns3:cad>
          </ns3:TrackPointExtension>
        </extensions>
      </trkpt>
      <trkpt lat="38.02033047191798686981201171875" lon="-106.9314358569681644439697265625">
        <ele>4109.7998046875</ele>
        <time>2026-05-25T14:26:29.000Z</time>
        <extensions>
          <ns3:TrackPointExtension>
            <ns3:hr>145</ns3:hr>
            <ns3:cad>0</ns3:cad>
          </ns3:TrackPointExtension>
        </extensions>
      </trkpt>
      <trkpt lat="38.0203323997557163238525390625" lon="-106.931416578590869903564453125">
        <ele>4110.2001953125</ele>
        <time>2026-05-25T14:26:30.000Z</time>
        <extensions>
          <ns3:TrackPointExtension>
            <ns3:hr>145</ns3:hr>
            <ns3:cad>0</ns3:cad>
          </ns3:TrackPointExtension>
        </extensions>
      </trkpt>
      <trkpt lat="38.02032829262316226959228515625" lon="-106.93140425719320774078369140625">
        <ele>4111.2001953125</ele>
        <time>2026-05-25T14:26:33.000Z</time>
        <extensions>
          <ns3:TrackPointExtension>
            <ns3:hr>146</ns3:hr>
            <ns3:cad>0</ns3:cad>
          </ns3:TrackPointExtension>
        </extensions>
      </trkpt>
      <trkpt lat="38.020320832729339599609375" lon="-106.93139755167067050933837890625">
        <ele>4111.60009765625</ele>
        <time>2026-05-25T14:26:34.000Z</time>
        <extensions>
          <ns3:TrackPointExtension>
            <ns3:hr>146</ns3:hr>
            <ns3:cad>0</ns3:cad>
          </ns3:TrackPointExtension>
        </extensions>
      </trkpt>
      <trkpt lat="38.020305074751377105712890625" lon="-106.93135547451674938201904296875">
        <ele>4112.2001953125</ele>
        <time>2026-05-25T14:26:40.000Z</time>
        <extensions>
          <ns3:TrackPointExtension>
            <ns3:hr>148</ns3:hr>
            <ns3:cad>0</ns3:cad>
          </ns3:TrackPointExtension>
        </extensions>
      </trkpt>
      <trkpt lat="38.02030247636139392852783203125" lon="-106.9313563965260982513427734375">
        <ele>4112</ele>
        <time>2026-05-25T14:26:41.000Z</time>
        <extensions>
          <ns3:TrackPointExtension>
            <ns3:hr>148</ns3:hr>
            <ns3:cad>0</ns3:cad>
          </ns3:TrackPointExtension>
        </extensions>
      </trkpt>
      <trkpt lat="38.02029862068593502044677734375" lon="-106.9313572347164154052734375">
        <ele>4112.39990234375</ele>
        <time>2026-05-25T14:26:45.000Z</time>
        <extensions>
          <ns3:TrackPointExtension>
            <ns3:hr>148</ns3:hr>
            <ns3:cad>0</ns3:cad>
          </ns3:TrackPointExtension>
        </extensions>
      </trkpt>
      <trkpt lat="38.0202955193817615509033203125" lon="-106.93135078065097332000732421875">
        <ele>4112.60009765625</ele>
        <time>2026-05-25T14:26:46.000Z</time>
        <extensions>
          <ns3:TrackPointExtension>
            <ns3:hr>147</ns3:hr>
            <ns3:cad>0</ns3:cad>
          </ns3:TrackPointExtension>
        </extensions>
      </trkpt>
      <trkpt lat="38.02029334008693695068359375" lon="-106.9313339330255985260009765625">
        <ele>4113.39990234375</ele>
        <time>2026-05-25T14:26:49.000Z</time>
        <extensions>
          <ns3:TrackPointExtension>
            <ns3:hr>146</ns3:hr>
            <ns3:cad>0</ns3:cad>
          </ns3:TrackPointExtension>
        </extensions>
      </trkpt>
      <trkpt lat="38.02029510028660297393798828125" lon="-106.93131004460155963897705078125">
        <ele>4114.2001953125</ele>
        <time>2026-05-25T14:26:52.000Z</time>
        <extensions>
          <ns3:TrackPointExtension>
            <ns3:hr>143</ns3:hr>
            <ns3:cad>0</ns3:cad>
          </ns3:TrackPointExtension>
        </extensions>
      </trkpt>
      <trkpt lat="38.020280264317989349365234375" lon="-106.93125874735414981842041015625">
        <ele>4114.39990234375</ele>
        <time>2026-05-25T14:26:58.000Z</time>
        <extensions>
          <ns3:TrackPointExtension>
            <ns3:hr>142</ns3:hr>
            <ns3:cad>0</ns3:cad>
          </ns3:TrackPointExtension>
        </extensions>
      </trkpt>
      <trkpt lat="38.020280264317989349365234375" lon="-106.93125874735414981842041015625">
        <ele>4114.60009765625</ele>
        <time>2026-05-25T14:26:59.000Z</time>
        <extensions>
          <ns3:TrackPointExtension>
            <ns3:hr>141</ns3:hr>
            <ns3:cad>0</ns3:cad>
          </ns3:TrackPointExtension>
        </extensions>
      </trkpt>
      <trkpt lat="38.02026291377842426300048828125" lon="-106.93123125471174716949462890625">
        <ele>4115</ele>
        <time>2026-05-25T14:27:04.000Z</time>
        <extensions>
          <ns3:TrackPointExtension>
            <ns3:hr>141</ns3:hr>
            <ns3:cad>18</ns3:cad>
          </ns3:TrackPointExtension>
        </extensions>
      </trkpt>
      <trkpt lat="38.020249418914318084716796875" lon="-106.93121365271508693695068359375">
        <ele>4115.7998046875</ele>
        <time>2026-05-25T14:27:08.000Z</time>
        <extensions>
          <ns3:TrackPointExtension>
            <ns3:hr>143</ns3:hr>
            <ns3:cad>0</ns3:cad>
          </ns3:TrackPointExtension>
        </extensions>
      </trkpt>
      <trkpt lat="38.0202462337911128997802734375" lon="-106.9311934523284435272216796875">
        <ele>4116.60009765625</ele>
        <time>2026-05-25T14:27:11.000Z</time>
        <extensions>
          <ns3:TrackPointExtension>
            <ns3:hr>143</ns3:hr>
            <ns3:cad>0</ns3:cad>
          </ns3:TrackPointExtension>
        </extensions>
      </trkpt>
      <trkpt lat="38.02023961208760738372802734375" lon="-106.931186579167842864990234375">
        <ele>4117</ele>
        <time>2026-05-25T14:27:13.000Z</time>
        <extensions>
          <ns3:TrackPointExtension>
            <ns3:hr>142</ns3:hr>
            <ns3:cad>0</ns3:cad>
          </ns3:TrackPointExtension>
        </extensions>
      </trkpt>
      <trkpt lat="38.0202309787273406982421875" lon="-106.9311656244099140167236328125">
        <ele>4117.39990234375</ele>
        <time>2026-05-25T14:27:18.000Z</time>
        <extensions>
          <ns3:TrackPointExtension>
            <ns3:hr>142</ns3:hr>
            <ns3:cad>0</ns3:cad>
          </ns3:TrackPointExtension>
        </extensions>
      </trkpt>
      <trkpt lat="38.020223937928676605224609375" lon="-106.93112614564597606658935546875">
        <ele>4118.2001953125</ele>
        <time>2026-05-25T14:27:22.000Z</time>
        <extensions>
          <ns3:TrackPointExtension>
            <ns3:hr>143</ns3:hr>
            <ns3:cad>0</ns3:cad>
          </ns3:TrackPointExtension>
        </extensions>
      </trkpt>
      <trkpt lat="38.02023005671799182891845703125" lon="-106.93108255974948406219482421875">
        <ele>4119.39990234375</ele>
        <time>2026-05-25T14:27:27.000Z</time>
        <extensions>
          <ns3:TrackPointExtension>
            <ns3:hr>142</ns3:hr>
            <ns3:cad>0</ns3:cad>
          </ns3:TrackPointExtension>
        </extensions>
      </trkpt>
      <trkpt lat="38.02023676224052906036376953125" lon="-106.93102338351309299468994140625">
        <ele>4120</ele>
        <time>2026-05-25T14:27:33.000Z</time>
        <extensions>
          <ns3:TrackPointExtension>
            <ns3:hr>142</ns3:hr>
            <ns3:cad>0</ns3:cad>
          </ns3:TrackPointExtension>
        </extensions>
      </trkpt>
      <trkpt lat="38.02023458294570446014404296875" lon="-106.93101131357252597808837890625">
        <ele>4120</ele>
        <time>2026-05-25T14:27:34.000Z</time>
        <extensions>
          <ns3:TrackPointExtension>
            <ns3:hr>141</ns3:hr>
            <ns3:cad>0</ns3:cad>
          </ns3:TrackPointExtension>
        </extensions>
      </trkpt>
      <trkpt lat="38.02023776806890964508056640625" lon="-106.93096705712378025054931640625">
        <ele>4120</ele>
        <time>2026-05-25T14:27:40.000Z</time>
        <extensions>
          <ns3:TrackPointExtension>
            <ns3:hr>139</ns3:hr>
            <ns3:cad>0</ns3:cad>
          </ns3:TrackPointExtension>
        </extensions>
      </trkpt>
      <trkpt lat="38.020241372287273406982421875" lon="-106.93093738518655300140380859375">
        <ele>4120.39990234375</ele>
        <time>2026-05-25T14:27:43.000Z</time>
        <extensions>
          <ns3:TrackPointExtension>
            <ns3:hr>138</ns3:hr>
            <ns3:cad>0</ns3:cad>
          </ns3:TrackPointExtension>
        </extensions>
      </trkpt>
      <trkpt lat="38.0202443897724151611328125" lon="-106.93090838380157947540283203125">
        <ele>4120.7998046875</ele>
        <time>2026-05-25T14:27:46.000Z</time>
        <extensions>
          <ns3:TrackPointExtension>
            <ns3:hr>138</ns3:hr>
            <ns3:cad>50</ns3:cad>
          </ns3:TrackPointExtension>
        </extensions>
      </trkpt>
      <trkpt lat="38.020244725048542022705078125" lon="-106.930880136787891387939453125">
        <ele>4121.39990234375</ele>
        <time>2026-05-25T14:27:49.000Z</time>
        <extensions>
          <ns3:TrackPointExtension>
            <ns3:hr>137</ns3:hr>
            <ns3:cad>0</ns3:cad>
          </ns3:TrackPointExtension>
        </extensions>
      </trkpt>
      <trkpt lat="38.020245730876922607421875" lon="-106.930842585861682891845703125">
        <ele>4122</ele>
        <time>2026-05-25T14:27:52.000Z</time>
        <extensions>
          <ns3:TrackPointExtension>
            <ns3:hr>137</ns3:hr>
            <ns3:cad>0</ns3:cad>
          </ns3:TrackPointExtension>
        </extensions>
      </trkpt>
      <trkpt lat="38.0202401988208293914794921875" lon="-106.9307954795658588409423828125">
        <ele>4122.2001953125</ele>
        <time>2026-05-25T14:27:58.000Z</time>
        <extensions>
          <ns3:TrackPointExtension>
            <ns3:hr>136</ns3:hr>
            <ns3:cad>0</ns3:cad>
          </ns3:TrackPointExtension>
        </extensions>
      </trkpt>
      <trkpt lat="38.0202390253543853759765625" lon="-106.930788941681385040283203125">
        <ele>4122.2001953125</ele>
        <time>2026-05-25T14:27:59.000Z</time>
        <extensions>
          <ns3:TrackPointExtension>
            <ns3:hr>137</ns3:hr>
            <ns3:cad>0</ns3:cad>
          </ns3:TrackPointExtension>
        </extensions>
      </trkpt>
      <trkpt lat="38.02023877389729022979736328125" lon="-106.93075868301093578338623046875">
        <ele>4122.60009765625</ele>
        <time>2026-05-25T14:28:02.000Z</time>
        <extensions>
          <ns3:TrackPointExtension>
            <ns3:hr>138</ns3:hr>
            <ns3:cad>0</ns3:cad>
          </ns3:TrackPointExtension>
        </extensions>
      </trkpt>
      <trkpt lat="38.02023408003151416778564453125" lon="-106.9307418353855609893798828125">
        <ele>4123</ele>
        <time>2026-05-25T14:28:05.000Z</time>
        <extensions>
          <ns3:TrackPointExtension>
            <ns3:hr>139</ns3:hr>
            <ns3:cad>0</ns3:cad>
          </ns3:TrackPointExtension>
        </extensions>
      </trkpt>
      <trkpt lat="38.02022519521415233612060546875" lon="-106.93072431720793247222900390625">
        <ele>4123.60009765625</ele>
        <time>2026-05-25T14:28:08.000Z</time>
        <extensions>
          <ns3:TrackPointExtension>
            <ns3:hr>141</ns3:hr>
            <ns3:cad>0</ns3:cad>
          </ns3:TrackPointExtension>
        </extensions>
      </trkpt>
      <trkpt lat="38.0202157236635684967041015625" lon="-106.93070570938289165496826171875">
        <ele>4123.7998046875</ele>
        <time>2026-05-25T14:28:10.000Z</time>
        <extensions>
          <ns3:TrackPointExtension>
            <ns3:hr>140</ns3:hr>
            <ns3:cad>0</ns3:cad>
          </ns3:TrackPointExtension>
        </extensions>
      </trkpt>
      <trkpt lat="38.02020222879946231842041015625" lon="-106.93065793253481388092041015625">
        <ele>4124.2001953125</ele>
        <time>2026-05-25T14:28:16.000Z</time>
        <extensions>
          <ns3:TrackPointExtension>
            <ns3:hr>139</ns3:hr>
            <ns3:cad>0</ns3:cad>
          </ns3:TrackPointExtension>
        </extensions>
      </trkpt>
      <trkpt lat="38.020208179950714111328125" lon="-106.9306368939578533172607421875">
        <ele>4124.60009765625</ele>
        <time>2026-05-25T14:28:20.000Z</time>
        <extensions>
          <ns3:TrackPointExtension>
            <ns3:hr>137</ns3:hr>
            <ns3:cad>0</ns3:cad>
          </ns3:TrackPointExtension>
        </extensions>
      </trkpt>
      <trkpt lat="38.0202120356261730194091796875" lon="-106.9306204654276371002197265625">
        <ele>4124.7998046875</ele>
        <time>2026-05-25T14:28:22.000Z</time>
        <extensions>
          <ns3:TrackPointExtension>
            <ns3:hr>136</ns3:hr>
            <ns3:cad>0</ns3:cad>
          </ns3:TrackPointExtension>
        </extensions>
      </trkpt>
      <trkpt lat="38.02020792849361896514892578125" lon="-106.93058216013014316558837890625">
        <ele>4125.60009765625</ele>
        <time>2026-05-25T14:28:27.000Z</time>
        <extensions>
          <ns3:TrackPointExtension>
            <ns3:hr>136</ns3:hr>
            <ns3:cad>0</ns3:cad>
          </ns3:TrackPointExtension>
        </extensions>
      </trkpt>
      <trkpt lat="38.02019954659044742584228515625" lon="-106.930558942258358001708984375">
        <ele>4126.2001953125</ele>
        <time>2026-05-25T14:28:31.000Z</time>
        <extensions>
          <ns3:TrackPointExtension>
            <ns3:hr>135</ns3:hr>
            <ns3:cad>0</ns3:cad>
          </ns3:TrackPointExtension>
        </extensions>
      </trkpt>
      <trkpt lat="38.0201872251927852630615234375" lon="-106.93052482791244983673095703125">
        <ele>4126.7998046875</ele>
        <time>2026-05-25T14:28:34.000Z</time>
        <extensions>
          <ns3:TrackPointExtension>
            <ns3:hr>136</ns3:hr>
            <ns3:cad>0</ns3:cad>
          </ns3:TrackPointExtension>
        </extensions>
      </trkpt>
      <trkpt lat="38.0201835371553897857666015625" lon="-106.93051527254283428192138671875">
        <ele>4126.7998046875</ele>
        <time>2026-05-25T14:28:35.000Z</time>
        <extensions>
          <ns3:TrackPointExtension>
            <ns3:hr>142</ns3:hr>
            <ns3:cad>0</ns3:cad>
          </ns3:TrackPointExtension>
        </extensions>
      </trkpt>
      <trkpt lat="38.02017959766089916229248046875" lon="-106.93050571717321872711181640625">
        <ele>4127</ele>
        <time>2026-05-25T14:28:36.000Z</time>
        <extensions>
          <ns3:TrackPointExtension>
            <ns3:hr>150</ns3:hr>
            <ns3:cad>0</ns3:cad>
          </ns3:TrackPointExtension>
        </extensions>
      </trkpt>
      <trkpt lat="38.02017557434737682342529296875" lon="-106.93049247376620769500732421875">
        <ele>4127.39990234375</ele>
        <time>2026-05-25T14:28:38.000Z</time>
        <extensions>
          <ns3:TrackPointExtension>
            <ns3:hr>152</ns3:hr>
            <ns3:cad>0</ns3:cad>
          </ns3:TrackPointExtension>
        </extensions>
      </trkpt>
      <trkpt lat="38.02017490379512310028076171875" lon="-106.93044285289943218231201171875">
        <ele>4127.7998046875</ele>
        <time>2026-05-25T14:28:43.000Z</time>
        <extensions>
          <ns3:TrackPointExtension>
            <ns3:hr>152</ns3:hr>
            <ns3:cad>0</ns3:cad>
          </ns3:TrackPointExtension>
        </extensions>
      </trkpt>
      <trkpt lat="38.0201724730432033538818359375" lon="-106.93042608909308910369873046875">
        <ele>4128</ele>
        <time>2026-05-25T14:28:45.000Z</time>
        <extensions>
          <ns3:TrackPointExtension>
            <ns3:hr>152</ns3:hr>
            <ns3:cad>0</ns3:cad>
          </ns3:TrackPointExtension>
        </extensions>
      </trkpt>
      <trkpt lat="38.0201506800949573516845703125" lon="-106.9303961656987667083740234375">
        <ele>4128</ele>
        <time>2026-05-25T14:28:50.000Z</time>
        <extensions>
          <ns3:TrackPointExtension>
            <ns3:hr>150</ns3:hr>
            <ns3:cad>0</ns3:cad>
          </ns3:TrackPointExtension>
        </extensions>
      </trkpt>
      <trkpt lat="38.02014171145856380462646484375" lon="-106.93039524368941783905029296875">
        <ele>4128.2001953125</ele>
        <time>2026-05-25T14:28:52.000Z</time>
        <extensions>
          <ns3:TrackPointExtension>
            <ns3:hr>149</ns3:hr>
            <ns3:cad>0</ns3:cad>
          </ns3:TrackPointExtension>
        </extensions>
      </trkpt>
      <trkpt lat="38.02012142725288867950439453125" lon="-106.93037755787372589111328125">
        <ele>4128.7998046875</ele>
        <time>2026-05-25T14:28:58.000Z</time>
        <extensions>
          <ns3:TrackPointExtension>
            <ns3:hr>149</ns3:hr>
            <ns3:cad>0</ns3:cad>
          </ns3:TrackPointExtension>
        </extensions>
      </trkpt>
      <trkpt lat="38.020117320120334625244140625" lon="-106.93037646822631359100341796875">
        <ele>4129.2001953125</ele>
        <time>2026-05-25T14:28:59.000Z</time>
        <extensions>
          <ns3:TrackPointExtension>
            <ns3:hr>149</ns3:hr>
            <ns3:cad>0</ns3:cad>
          </ns3:TrackPointExtension>
        </extensions>
      </trkpt>
      <trkpt lat="38.02010131068527698516845703125" lon="-106.93036138080060482025146484375">
        <ele>4130</ele>
        <time>2026-05-25T14:29:02.000Z</time>
        <extensions>
          <ns3:TrackPointExtension>
            <ns3:hr>148</ns3:hr>
            <ns3:cad>0</ns3:cad>
          </ns3:TrackPointExtension>
        </extensions>
      </trkpt>
      <trkpt lat="38.02007834427058696746826171875" lon="-106.93034294061362743377685546875">
        <ele>4130.39990234375</ele>
        <time>2026-05-25T14:29:07.000Z</time>
        <extensions>
          <ns3:TrackPointExtension>
            <ns3:hr>146</ns3:hr>
            <ns3:cad>0</ns3:cad>
          </ns3:TrackPointExtension>
        </extensions>
      </trkpt>
      <trkpt lat="38.02005655132234096527099609375" lon="-106.9303314574062824249267578125">
        <ele>4131.2001953125</ele>
        <time>2026-05-25T14:29:11.000Z</time>
        <extensions>
          <ns3:TrackPointExtension>
            <ns3:hr>143</ns3:hr>
            <ns3:cad>0</ns3:cad>
          </ns3:TrackPointExtension>
        </extensions>
      </trkpt>
      <trkpt lat="38.02004179917275905609130859375" lon="-106.93030840717256069183349609375">
        <ele>4131.60009765625</ele>
        <time>2026-05-25T14:29:13.000Z</time>
        <extensions>
          <ns3:TrackPointExtension>
            <ns3:hr>142</ns3:hr>
            <ns3:cad>0</ns3:cad>
          </ns3:TrackPointExtension>
        </extensions>
      </trkpt>
      <trkpt lat="38.02003140561282634735107421875" lon="-106.93029130809009075164794921875">
        <ele>4132.2001953125</ele>
        <time>2026-05-25T14:29:15.000Z</time>
        <extensions>
          <ns3:TrackPointExtension>
            <ns3:hr>141</ns3:hr>
            <ns3:cad>0</ns3:cad>
          </ns3:TrackPointExtension>
        </extensions>
      </trkpt>
      <trkpt lat="38.0200239457190036773681640625" lon="-106.93027705885469913482666015625">
        <ele>4132.2001953125</ele>
        <time>2026-05-25T14:29:20.000Z</time>
        <extensions>
          <ns3:TrackPointExtension>
            <ns3:hr>142</ns3:hr>
            <ns3:cad>0</ns3:cad>
          </ns3:TrackPointExtension>
        </extensions>
      </trkpt>
      <trkpt lat="38.0200239457190036773681640625" lon="-106.93027705885469913482666015625">
        <ele>4131.60009765625</ele>
        <time>2026-05-25T14:29:26.000Z</time>
        <extensions>
          <ns3:TrackPointExtension>
            <ns3:hr>141</ns3:hr>
            <ns3:cad>0</ns3:cad>
          </ns3:TrackPointExtension>
        </extensions>
      </trkpt>
      <trkpt lat="38.0200239457190036773681640625" lon="-106.93027705885469913482666015625">
        <ele>4131.60009765625</ele>
        <time>2026-05-25T14:29:32.000Z</time>
        <extensions>
          <ns3:TrackPointExtension>
            <ns3:hr>138</ns3:hr>
            <ns3:cad>0</ns3:cad>
          </ns3:TrackPointExtension>
        </extensions>
      </trkpt>
      <trkpt lat="38.02002352662384510040283203125" lon="-106.93027672357857227325439453125">
        <ele>4131.7998046875</ele>
        <time>2026-05-25T14:29:35.000Z</time>
        <extensions>
          <ns3:TrackPointExtension>
            <ns3:hr>135</ns3:hr>
            <ns3:cad>0</ns3:cad>
          </ns3:TrackPointExtension>
        </extensions>
      </trkpt>
      <trkpt lat="38.02002218551933765411376953125" lon="-106.9302570261061191558837890625">
        <ele>4132.60009765625</ele>
        <time>2026-05-25T14:29:39.000Z</time>
        <extensions>
          <ns3:TrackPointExtension>
            <ns3:hr>136</ns3:hr>
            <ns3:cad>0</ns3:cad>
          </ns3:TrackPointExtension>
        </extensions>
      </trkpt>
      <trkpt lat="38.020018748939037322998046875" lon="-106.93020950071513652801513671875">
        <ele>4132.7998046875</ele>
        <time>2026-05-25T14:29:44.000Z</time>
        <extensions>
          <ns3:TrackPointExtension>
            <ns3:hr>137</ns3:hr>
            <ns3:cad>0</ns3:cad>
          </ns3:TrackPointExtension>
        </extensions>
      </trkpt>
      <trkpt lat="38.020018748939037322998046875" lon="-106.93020950071513652801513671875">
        <ele>4132.39990234375</ele>
        <time>2026-05-25T14:29:46.000Z</time>
        <extensions>
          <ns3:TrackPointExtension>
            <ns3:hr>132</ns3:hr>
            <ns3:cad>0</ns3:cad>
          </ns3:TrackPointExtension>
        </extensions>
      </trkpt>
      <trkpt lat="38.020018748939037322998046875" lon="-106.93020950071513652801513671875">
        <ele>4132.39990234375</ele>
        <time>2026-05-25T14:29:47.000Z</time>
        <extensions>
          <ns3:TrackPointExtension>
            <ns3:hr>127</ns3:hr>
            <ns3:cad>0</ns3:cad>
          </ns3:TrackPointExtension>
        </extensions>
      </trkpt>
      <trkpt lat="38.020018748939037322998046875" lon="-106.93020950071513652801513671875">
        <ele>4132.2001953125</ele>
        <time>2026-05-25T14:29:48.000Z</time>
        <extensions>
          <ns3:TrackPointExtension>
            <ns3:hr>122</ns3:hr>
            <ns3:cad>0</ns3:cad>
          </ns3:TrackPointExtension>
        </extensions>
      </trkpt>
      <trkpt lat="38.020018748939037322998046875" lon="-106.93020950071513652801513671875">
        <ele>4131.7998046875</ele>
        <time>2026-05-25T14:29:50.000Z</time>
        <extensions>
          <ns3:TrackPointExtension>
            <ns3:hr>119</ns3:hr>
            <ns3:cad>0</ns3:cad>
          </ns3:TrackPointExtension>
        </extensions>
      </trkpt>
      <trkpt lat="38.020018748939037322998046875" lon="-106.93020950071513652801513671875">
        <ele>4131.60009765625</ele>
        <time>2026-05-25T14:29:54.000Z</time>
        <extensions>
          <ns3:TrackPointExtension>
            <ns3:hr>116</ns3:hr>
            <ns3:cad>0</ns3:cad>
          </ns3:TrackPointExtension>
        </extensions>
      </trkpt>
      <trkpt lat="38.02002989687025547027587890625" lon="-106.93021067418158054351806640625">
        <ele>4132</ele>
        <time>2026-05-25T14:29:58.000Z</time>
        <extensions>
          <ns3:TrackPointExtension>
            <ns3:hr>113</ns3:hr>
            <ns3:cad>0</ns3:cad>
          </ns3:TrackPointExtension>
        </extensions>
      </trkpt>
      <trkpt lat="38.0200407095253467559814453125" lon="-106.9301980175077915191650390625">
        <ele>4132</ele>
        <time>2026-05-25T14:30:00.000Z</time>
        <extensions>
          <ns3:TrackPointExtension>
            <ns3:hr>113</ns3:hr>
            <ns3:cad>68</ns3:cad>
          </ns3:TrackPointExtension>
        </extensions>
      </trkpt>
      <trkpt lat="38.02004951052367687225341796875" lon="-106.93012819625437259674072265625">
        <ele>4132.60009765625</ele>
        <time>2026-05-25T14:30:05.000Z</time>
        <extensions>
          <ns3:TrackPointExtension>
            <ns3:hr>114</ns3:hr>
            <ns3:cad>51</ns3:cad>
          </ns3:TrackPointExtension>
        </extensions>
      </trkpt>
      <trkpt lat="38.020048923790454864501953125" lon="-106.93009969778358936309814453125">
        <ele>4133.2001953125</ele>
        <time>2026-05-25T14:30:07.000Z</time>
        <extensions>
          <ns3:TrackPointExtension>
            <ns3:hr>113</ns3:hr>
            <ns3:cad>51</ns3:cad>
          </ns3:TrackPointExtension>
        </extensions>
      </trkpt>
      <trkpt lat="38.02005185745656490325927734375" lon="-106.93004270084202289581298828125">
        <ele>4134</ele>
        <time>2026-05-25T14:30:12.000Z</time>
        <extensions>
          <ns3:TrackPointExtension>
            <ns3:hr>112</ns3:hr>
            <ns3:cad>51</ns3:cad>
          </ns3:TrackPointExtension>
        </extensions>
      </trkpt>
      <trkpt lat="38.02005889825522899627685546875" lon="-106.92996877245604991912841796875">
        <ele>4133</ele>
        <time>2026-05-25T14:30:18.000Z</time>
        <extensions>
          <ns3:TrackPointExtension>
            <ns3:hr>111</ns3:hr>
            <ns3:cad>48</ns3:cad>
          </ns3:TrackPointExtension>
        </extensions>
      </trkpt>
      <trkpt lat="38.02007365040481090545654296875" lon="-106.9299291260540485382080078125">
        <ele>4132.2001953125</ele>
        <time>2026-05-25T14:30:22.000Z</time>
        <extensions>
          <ns3:TrackPointExtension>
            <ns3:hr>111</ns3:hr>
            <ns3:cad>48</ns3:cad>
          </ns3:TrackPointExtension>
        </extensions>
      </trkpt>
      <trkpt lat="38.02009527571499347686767578125" lon="-106.9298458099365234375">
        <ele>4133.39990234375</ele>
        <time>2026-05-25T14:30:28.000Z</time>
        <extensions>
          <ns3:TrackPointExtension>
            <ns3:hr>110</ns3:hr>
            <ns3:cad>50</ns3:cad>
          </ns3:TrackPointExtension>
        </extensions>
      </trkpt>
      <trkpt lat="38.020115308463573455810546875" lon="-106.92975687794387340545654296875">
        <ele>4133.7998046875</ele>
        <time>2026-05-25T14:30:34.000Z</time>
        <extensions>
          <ns3:TrackPointExtension>
            <ns3:hr>110</ns3:hr>
            <ns3:cad>50</ns3:cad>
          </ns3:TrackPointExtension>
        </extensions>
      </trkpt>
      <trkpt lat="38.02012679167091846466064453125" lon="-106.92972653545439243316650390625">
        <ele>4133.39990234375</ele>
        <time>2026-05-25T14:30:37.000Z</time>
        <extensions>
          <ns3:TrackPointExtension>
            <ns3:hr>110</ns3:hr>
            <ns3:cad>48</ns3:cad>
          </ns3:TrackPointExtension>
        </extensions>
      </trkpt>
      <trkpt lat="38.02015076391398906707763671875" lon="-106.92966140806674957275390625">
        <ele>4133.7998046875</ele>
        <time>2026-05-25T14:30:43.000Z</time>
        <extensions>
          <ns3:TrackPointExtension>
            <ns3:hr>111</ns3:hr>
            <ns3:cad>46</ns3:cad>
          </ns3:TrackPointExtension>
        </extensions>
      </trkpt>
      <trkpt lat="38.0201496742665767669677734375" lon="-106.9296531938016414642333984375">
        <ele>4133.7998046875</ele>
        <time>2026-05-25T14:30:44.000Z</time>
        <extensions>
          <ns3:TrackPointExtension>
            <ns3:hr>111</ns3:hr>
            <ns3:cad>46</ns3:cad>
          </ns3:TrackPointExtension>
        </extensions>
      </trkpt>
      <trkpt lat="38.0201530270278453826904296875" lon="-106.92963299341499805450439453125">
        <ele>4134</ele>
        <time>2026-05-25T14:30:46.000Z</time>
        <extensions>
          <ns3:TrackPointExtension>
            <ns3:hr>115</ns3:hr>
            <ns3:cad>0</ns3:cad>
          </ns3:TrackPointExtension>
        </extensions>
      </trkpt>
      <trkpt lat="38.02015646360814571380615234375" lon="-106.929620169103145599365234375">
        <ele>4134.2001953125</ele>
        <time>2026-05-25T14:30:48.000Z</time>
        <extensions>
          <ns3:TrackPointExtension>
            <ns3:hr>118</ns3:hr>
            <ns3:cad>0</ns3:cad>
          </ns3:TrackPointExtension>
        </extensions>
      </trkpt>
      <trkpt lat="38.0201625823974609375" lon="-106.92959745414555072784423828125">
        <ele>4134.39990234375</ele>
        <time>2026-05-25T14:30:49.000Z</time>
        <extensions>
          <ns3:TrackPointExtension>
            <ns3:hr>118</ns3:hr>
            <ns3:cad>46</ns3:cad>
          </ns3:TrackPointExtension>
        </extensions>
      </trkpt>
      <trkpt lat="38.0201697908341884613037109375" lon="-106.92957289516925811767578125">
        <ele>4134.7998046875</ele>
        <time>2026-05-25T14:30:51.000Z</time>
        <extensions>
          <ns3:TrackPointExtension>
            <ns3:hr>119</ns3:hr>
            <ns3:cad>0</ns3:cad>
          </ns3:TrackPointExtension>
        </extensions>
      </trkpt>
      <trkpt lat="38.02018429152667522430419921875" lon="-106.92949754185974597930908203125">
        <ele>4135.39990234375</ele>
        <time>2026-05-25T14:30:57.000Z</time>
        <extensions>
          <ns3:TrackPointExtension>
            <ns3:hr>118</ns3:hr>
            <ns3:cad>46</ns3:cad>
          </ns3:TrackPointExtension>
        </extensions>
      </trkpt>
      <trkpt lat="38.0201959423720836639404296875" lon="-106.92944389767944812774658203125">
        <ele>4135.2001953125</ele>
        <time>2026-05-25T14:31:03.000Z</time>
        <extensions>
          <ns3:TrackPointExtension>
            <ns3:hr>119</ns3:hr>
            <ns3:cad>46</ns3:cad>
          </ns3:TrackPointExtension>
        </extensions>
      </trkpt>
      <trkpt lat="38.02020843140780925750732421875" lon="-106.92935354076325893402099609375">
        <ele>4136</ele>
        <time>2026-05-25T14:31:09.000Z</time>
        <extensions>
          <ns3:TrackPointExtension>
            <ns3:hr>118</ns3:hr>
            <ns3:cad>48</ns3:cad>
          </ns3:TrackPointExtension>
        </extensions>
      </trkpt>
      <trkpt lat="38.02021086215972900390625" lon="-106.92934247665107250213623046875">
        <ele>4136.2001953125</ele>
        <time>2026-05-25T14:31:10.000Z</time>
        <extensions>
          <ns3:TrackPointExtension>
            <ns3:hr>118</ns3:hr>
            <ns3:cad>49</ns3:cad>
          </ns3:TrackPointExtension>
        </extensions>
      </trkpt>
      <trkpt lat="38.02021681331098079681396484375" lon="-106.92932185716927051544189453125">
        <ele>4136.60009765625</ele>
        <time>2026-05-25T14:31:12.000Z</time>
        <extensions>
          <ns3:TrackPointExtension>
            <ns3:hr>117</ns3:hr>
            <ns3:cad>49</ns3:cad>
          </ns3:TrackPointExtension>
        </extensions>
      </trkpt>
      <trkpt lat="38.020217902958393096923828125" lon="-106.9292914308607578277587890625">
        <ele>4137.2001953125</ele>
        <time>2026-05-25T14:31:15.000Z</time>
        <extensions>
          <ns3:TrackPointExtension>
            <ns3:hr>115</ns3:hr>
            <ns3:cad>49</ns3:cad>
          </ns3:TrackPointExtension>
        </extensions>
      </trkpt>
      <trkpt lat="38.02024765871465206146240234375" lon="-106.92922328598797321319580078125">
        <ele>4137.2001953125</ele>
        <time>2026-05-25T14:31:21.000Z</time>
        <extensions>
          <ns3:TrackPointExtension>
            <ns3:hr>116</ns3:hr>
            <ns3:cad>49</ns3:cad>
          </ns3:TrackPointExtension>
        </extensions>
      </trkpt>
      <trkpt lat="38.02024765871465206146240234375" lon="-106.92922328598797321319580078125">
        <ele>4137.2001953125</ele>
        <time>2026-05-25T14:31:22.000Z</time>
        <extensions>
          <ns3:TrackPointExtension>
            <ns3:hr>116</ns3:hr>
            <ns3:cad>49</ns3:cad>
          </ns3:TrackPointExtension>
        </extensions>
      </trkpt>
      <trkpt lat="38.02026878111064434051513671875" lon="-106.9291492737829685211181640625">
        <ele>4137.2001953125</ele>
        <time>2026-05-25T14:31:28.000Z</time>
        <extensions>
          <ns3:TrackPointExtension>
            <ns3:hr>118</ns3:hr>
            <ns3:cad>0</ns3:cad>
          </ns3:TrackPointExtension>
        </extensions>
      </trkpt>
      <trkpt lat="38.02029275335371494293212890625" lon="-106.92908012308180332183837890625">
        <ele>4137.39990234375</ele>
        <time>2026-05-25T14:31:34.000Z</time>
        <extensions>
          <ns3:TrackPointExtension>
            <ns3:hr>120</ns3:hr>
            <ns3:cad>46</ns3:cad>
          </ns3:TrackPointExtension>
        </extensions>
      </trkpt>
      <trkpt lat="38.02030063234269618988037109375" lon="-106.929067634046077728271484375">
        <ele>4137.39990234375</ele>
        <time>2026-05-25T14:31:35.000Z</time>
        <extensions>
          <ns3:TrackPointExtension>
            <ns3:hr>120</ns3:hr>
            <ns3:cad>47</ns3:cad>
          </ns3:TrackPointExtension>
        </extensions>
      </trkpt>
      <trkpt lat="38.020312786102294921875" lon="-106.92904693074524402618408203125">
        <ele>4137.7998046875</ele>
        <time>2026-05-25T14:31:37.000Z</time>
        <extensions>
          <ns3:TrackPointExtension>
            <ns3:hr>120</ns3:hr>
            <ns3:cad>47</ns3:cad>
          </ns3:TrackPointExtension>
        </extensions>
      </trkpt>
      <trkpt lat="38.0203267000615596771240234375" lon="-106.928999908268451690673828125">
        <ele>4138.2001953125</ele>
        <time>2026-05-25T14:31:41.000Z</time>
        <extensions>
          <ns3:TrackPointExtension>
            <ns3:hr>118</ns3:hr>
            <ns3:cad>47</ns3:cad>
          </ns3:TrackPointExtension>
        </extensions>
      </trkpt>
      <trkpt lat="38.020350672304630279541015625" lon="-106.9289558194577693939208984375">
        <ele>4138</ele>
        <time>2026-05-25T14:31:45.000Z</time>
        <extensions>
          <ns3:TrackPointExtension>
            <ns3:hr>115</ns3:hr>
            <ns3:cad>47</ns3:cad>
          </ns3:TrackPointExtension>
        </extensions>
      </trkpt>
      <trkpt lat="38.0203645862638950347900390625" lon="-106.92892841063439846038818359375">
        <ele>4138</ele>
        <time>2026-05-25T14:31:48.000Z</time>
        <extensions>
          <ns3:TrackPointExtension>
            <ns3:hr>114</ns3:hr>
            <ns3:cad>46</ns3:cad>
          </ns3:TrackPointExtension>
        </extensions>
      </trkpt>
      <trkpt lat="38.0203900672495365142822265625" lon="-106.92888733930885791778564453125">
        <ele>4138.39990234375</ele>
        <time>2026-05-25T14:31:52.000Z</time>
        <extensions>
          <ns3:TrackPointExtension>
            <ns3:hr>111</ns3:hr>
            <ns3:cad>0</ns3:cad>
          </ns3:TrackPointExtension>
        </extensions>
      </trkpt>
      <trkpt lat="38.0203997902572154998779296875" lon="-106.928866803646087646484375">
        <ele>4138.60009765625</ele>
        <time>2026-05-25T14:31:54.000Z</time>
        <extensions>
          <ns3:TrackPointExtension>
            <ns3:hr>110</ns3:hr>
            <ns3:cad>0</ns3:cad>
          </ns3:TrackPointExtension>
        </extensions>
      </trkpt>
      <trkpt lat="38.02041764371097087860107421875" lon="-106.92883101291954517364501953125">
        <ele>4139</ele>
        <time>2026-05-25T14:31:58.000Z</time>
        <extensions>
          <ns3:TrackPointExtension>
            <ns3:hr>108</ns3:hr>
            <ns3:cad>0</ns3:cad>
          </ns3:TrackPointExtension>
        </extensions>
      </trkpt>
      <trkpt lat="38.02044815383851528167724609375" lon="-106.92876529879868030548095703125">
        <ele>4139.60009765625</ele>
        <time>2026-05-25T14:32:03.000Z</time>
        <extensions>
          <ns3:TrackPointExtension>
            <ns3:hr>106</ns3:hr>
            <ns3:cad>46</ns3:cad>
          </ns3:TrackPointExtension>
        </extensions>
      </trkpt>
      <trkpt lat="38.0204728804528713226318359375" lon="-106.9287150911986827850341796875">
        <ele>4139.60009765625</ele>
        <time>2026-05-25T14:32:09.000Z</time>
        <extensions>
          <ns3:TrackPointExtension>
            <ns3:hr>105</ns3:hr>
            <ns3:cad>45</ns3:cad>
          </ns3:TrackPointExtension>
        </extensions>
      </trkpt>
      <trkpt lat="38.02046768367290496826171875" lon="-106.9287020154297351837158203125">
        <ele>4140</ele>
        <time>2026-05-25T14:32:11.000Z</time>
        <extensions>
          <ns3:TrackPointExtension>
            <ns3:hr>106</ns3:hr>
            <ns3:cad>45</ns3:cad>
          </ns3:TrackPointExtension>
        </extensions>
      </trkpt>
      <trkpt lat="38.02046609111130237579345703125" lon="-106.92869975231587886810302734375">
        <ele>4139.60009765625</ele>
        <time>2026-05-25T14:32:17.000Z</time>
        <extensions>
          <ns3:TrackPointExtension>
            <ns3:hr>105</ns3:hr>
            <ns3:cad>0</ns3:cad>
          </ns3:TrackPointExtension>
        </extensions>
      </trkpt>
      <trkpt lat="38.02046609111130237579345703125" lon="-106.92869975231587886810302734375">
        <ele>4139.60009765625</ele>
        <time>2026-05-25T14:32:23.000Z</time>
        <extensions>
          <ns3:TrackPointExtension>
            <ns3:hr>105</ns3:hr>
            <ns3:cad>0</ns3:cad>
          </ns3:TrackPointExtension>
        </extensions>
      </trkpt>
      <trkpt lat="38.02046609111130237579345703125" lon="-106.92869975231587886810302734375">
        <ele>4139.60009765625</ele>
        <time>2026-05-25T14:32:24.000Z</time>
        <extensions>
          <ns3:TrackPointExtension>
            <ns3:hr>105</ns3:hr>
            <ns3:cad>0</ns3:cad>
          </ns3:TrackPointExtension>
        </extensions>
      </trkpt>
      <trkpt lat="38.02046609111130237579345703125" lon="-106.92869975231587886810302734375">
        <ele>4139.7998046875</ele>
        <time>2026-05-25T14:32:30.000Z</time>
        <extensions>
          <ns3:TrackPointExtension>
            <ns3:hr>104</ns3:hr>
            <ns3:cad>0</ns3:cad>
          </ns3:TrackPointExtension>
        </extensions>
      </trkpt>
      <trkpt lat="38.02047346718609333038330078125" lon="-106.9286763668060302734375">
        <ele>4140.60009765625</ele>
        <time>2026-05-25T14:32:35.000Z</time>
        <extensions>
          <ns3:TrackPointExtension>
            <ns3:hr>104</ns3:hr>
            <ns3:cad>0</ns3:cad>
          </ns3:TrackPointExtension>
        </extensions>
      </trkpt>
      <trkpt lat="38.02048604004085063934326171875" lon="-106.9286520592868328094482421875">
        <ele>4141.2001953125</ele>
        <time>2026-05-25T14:32:37.000Z</time>
        <extensions>
          <ns3:TrackPointExtension>
            <ns3:hr>104</ns3:hr>
            <ns3:cad>0</ns3:cad>
          </ns3:TrackPointExtension>
        </extensions>
      </trkpt>
      <trkpt lat="38.02050054073333740234375" lon="-106.9286165200173854827880859375">
        <ele>4142.2001953125</ele>
        <time>2026-05-25T14:32:41.000Z</time>
        <extensions>
          <ns3:TrackPointExtension>
            <ns3:hr>102</ns3:hr>
            <ns3:cad>41</ns3:cad>
          </ns3:TrackPointExtension>
        </extensions>
      </trkpt>
      <trkpt lat="38.02050280384719371795654296875" lon="-106.92861040122807025909423828125">
        <ele>4142.39990234375</ele>
        <time>2026-05-25T14:32:42.000Z</time>
        <extensions>
          <ns3:TrackPointExtension>
            <ns3:hr>102</ns3:hr>
            <ns3:cad>41</ns3:cad>
          </ns3:TrackPointExtension>
        </extensions>
      </trkpt>
      <trkpt lat="38.02053130231797695159912109375" lon="-106.9285340420901775360107421875">
        <ele>4142.39990234375</ele>
        <time>2026-05-25T14:32:48.000Z</time>
        <extensions>
          <ns3:TrackPointExtension>
            <ns3:hr>103</ns3:hr>
            <ns3:cad>41</ns3:cad>
          </ns3:TrackPointExtension>
        </extensions>
      </trkpt>
      <trkpt lat="38.02054949104785919189453125" lon="-106.92845885641872882843017578125">
        <ele>4142.60009765625</ele>
        <time>2026-05-25T14:32:54.000Z</time>
        <extensions>
          <ns3:TrackPointExtension>
            <ns3:hr>103</ns3:hr>
            <ns3:cad>47</ns3:cad>
          </ns3:TrackPointExtension>
        </extensions>
      </trkpt>
      <trkpt lat="38.02056826651096343994140625" lon="-106.92839599214494228363037109375">
        <ele>4142.39990234375</ele>
        <time>2026-05-25T14:33:00.000Z</time>
        <extensions>
          <ns3:TrackPointExtension>
            <ns3:hr>104</ns3:hr>
            <ns3:cad>45</ns3:cad>
          </ns3:TrackPointExtension>
        </extensions>
      </trkpt>
      <trkpt lat="38.02056684158742427825927734375" lon="-106.92838710732758045196533203125">
        <ele>4142.39990234375</ele>
        <time>2026-05-25T14:33:01.000Z</time>
        <extensions>
          <ns3:TrackPointExtension>
            <ns3:hr>104</ns3:hr>
            <ns3:cad>45</ns3:cad>
          </ns3:TrackPointExtension>
        </extensions>
      </trkpt>
      <trkpt lat="38.020583353936672210693359375" lon="-106.9283308647572994232177734375">
        <ele>4143.2001953125</ele>
        <time>2026-05-25T14:33:07.000Z</time>
        <extensions>
          <ns3:TrackPointExtension>
            <ns3:hr>106</ns3:hr>
            <ns3:cad>44</ns3:cad>
          </ns3:TrackPointExtension>
        </extensions>
      </trkpt>
      <trkpt lat="38.02058301866054534912109375" lon="-106.928326673805713653564453125">
        <ele>4143.60009765625</ele>
        <time>2026-05-25T14:33:08.000Z</time>
        <extensions>
          <ns3:TrackPointExtension>
            <ns3:hr>106</ns3:hr>
            <ns3:cad>43</ns3:cad>
          </ns3:TrackPointExtension>
        </extensions>
      </trkpt>
      <trkpt lat="38.02058570086956024169921875" lon="-106.9283182919025421142578125">
        <ele>4143.7998046875</ele>
        <time>2026-05-25T14:33:09.000Z</time>
        <extensions>
          <ns3:TrackPointExtension>
            <ns3:hr>107</ns3:hr>
            <ns3:cad>43</ns3:cad>
          </ns3:TrackPointExtension>
        </extensions>
      </trkpt>
      <trkpt lat="38.02058829925954341888427734375" lon="-106.9283115863800048828125">
        <ele>4144.60009765625</ele>
        <time>2026-05-25T14:33:15.000Z</time>
        <extensions>
          <ns3:TrackPointExtension>
            <ns3:hr>109</ns3:hr>
            <ns3:cad>0</ns3:cad>
          </ns3:TrackPointExtension>
        </extensions>
      </trkpt>
      <trkpt lat="38.02058829925954341888427734375" lon="-106.9283115863800048828125">
        <ele>4144.60009765625</ele>
        <time>2026-05-25T14:33:16.000Z</time>
        <extensions>
          <ns3:TrackPointExtension>
            <ns3:hr>109</ns3:hr>
            <ns3:cad>0</ns3:cad>
          </ns3:TrackPointExtension>
        </extensions>
      </trkpt>
      <trkpt lat="38.02058829925954341888427734375" lon="-106.9283115863800048828125">
        <ele>4144.2001953125</ele>
        <time>2026-05-25T14:33:22.000Z</time>
        <extensions>
          <ns3:TrackPointExtension>
            <ns3:hr>110</ns3:hr>
            <ns3:cad>0</ns3:cad>
          </ns3:TrackPointExtension>
        </extensions>
      </trkpt>
      <trkpt lat="38.02058829925954341888427734375" lon="-106.9283115863800048828125">
        <ele>4144.2001953125</ele>
        <time>2026-05-25T14:33:28.000Z</time>
        <extensions>
          <ns3:TrackPointExtension>
            <ns3:hr>110</ns3:hr>
            <ns3:cad>0</ns3:cad>
          </ns3:TrackPointExtension>
        </extensions>
      </trkpt>
      <trkpt lat="38.02058829925954341888427734375" lon="-106.9283115863800048828125">
        <ele>4144</ele>
        <time>2026-05-25T14:33:34.000Z</time>
        <extensions>
          <ns3:TrackPointExtension>
            <ns3:hr>111</ns3:hr>
            <ns3:cad>0</ns3:cad>
          </ns3:TrackPointExtension>
        </extensions>
      </trkpt>
      <trkpt lat="38.02058829925954341888427734375" lon="-106.9283115863800048828125">
        <ele>4143.7998046875</ele>
        <time>2026-05-25T14:33:35.000Z</time>
        <extensions>
          <ns3:TrackPointExtension>
            <ns3:hr>111</ns3:hr>
            <ns3:cad>0</ns3:cad>
          </ns3:TrackPointExtension>
        </extensions>
      </trkpt>
      <trkpt lat="38.02058829925954341888427734375" lon="-106.9283115863800048828125">
        <ele>4143.7998046875</ele>
        <time>2026-05-25T14:33:41.000Z</time>
        <extensions>
          <ns3:TrackPointExtension>
            <ns3:hr>112</ns3:hr>
            <ns3:cad>0</ns3:cad>
          </ns3:TrackPointExtension>
        </extensions>
      </trkpt>
      <trkpt lat="38.02058829925954341888427734375" lon="-106.9283115863800048828125">
        <ele>4143.60009765625</ele>
        <time>2026-05-25T14:33:42.000Z</time>
        <extensions>
          <ns3:TrackPointExtension>
            <ns3:hr>112</ns3:hr>
            <ns3:cad>0</ns3:cad>
          </ns3:TrackPointExtension>
        </extensions>
      </trkpt>
      <trkpt lat="38.02058829925954341888427734375" lon="-106.9283115863800048828125">
        <ele>4143</ele>
        <time>2026-05-25T14:33:44.000Z</time>
        <extensions>
          <ns3:TrackPointExtension>
            <ns3:hr>109</ns3:hr>
            <ns3:cad>0</ns3:cad>
          </ns3:TrackPointExtension>
        </extensions>
      </trkpt>
      <trkpt lat="38.02058829925954341888427734375" lon="-106.9283115863800048828125">
        <ele>4143</ele>
        <time>2026-05-25T14:33:46.000Z</time>
        <extensions>
          <ns3:TrackPointExtension>
            <ns3:hr>107</ns3:hr>
            <ns3:cad>0</ns3:cad>
          </ns3:TrackPointExtension>
        </extensions>
      </trkpt>
      <trkpt lat="38.02058829925954341888427734375" lon="-106.9283115863800048828125">
        <ele>4143</ele>
        <time>2026-05-25T14:33:52.000Z</time>
        <extensions>
          <ns3:TrackPointExtension>
            <ns3:hr>108</ns3:hr>
            <ns3:cad>0</ns3:cad>
          </ns3:TrackPointExtension>
        </extensions>
      </trkpt>
      <trkpt lat="38.0205875448882579803466796875" lon="-106.92827261053025722503662109375">
        <ele>4143.60009765625</ele>
        <time>2026-05-25T14:33:56.000Z</time>
        <extensions>
          <ns3:TrackPointExtension>
            <ns3:hr>107</ns3:hr>
            <ns3:cad>0</ns3:cad>
          </ns3:TrackPointExtension>
        </extensions>
      </trkpt>
      <trkpt lat="38.02059181965887546539306640625" lon="-106.928234808146953582763671875">
        <ele>4144.39990234375</ele>
        <time>2026-05-25T14:33:59.000Z</time>
        <extensions>
          <ns3:TrackPointExtension>
            <ns3:hr>104</ns3:hr>
            <ns3:cad>0</ns3:cad>
          </ns3:TrackPointExtension>
        </extensions>
      </trkpt>
      <trkpt lat="38.02058829925954341888427734375" lon="-106.928224079310894012451171875">
        <ele>4144.60009765625</ele>
        <time>2026-05-25T14:34:00.000Z</time>
        <extensions>
          <ns3:TrackPointExtension>
            <ns3:hr>104</ns3:hr>
            <ns3:cad>0</ns3:cad>
          </ns3:TrackPointExtension>
        </extensions>
      </trkpt>
      <trkpt lat="38.02058880217373371124267578125" lon="-106.9281877018511295318603515625">
        <ele>4144.7998046875</ele>
        <time>2026-05-25T14:34:03.000Z</time>
        <extensions>
          <ns3:TrackPointExtension>
            <ns3:hr>103</ns3:hr>
            <ns3:cad>0</ns3:cad>
          </ns3:TrackPointExtension>
        </extensions>
      </trkpt>
      <trkpt lat="38.02058528177440166473388671875" lon="-106.9281756319105625152587890625">
        <ele>4145</ele>
        <time>2026-05-25T14:34:09.000Z</time>
        <extensions>
          <ns3:TrackPointExtension>
            <ns3:hr>102</ns3:hr>
            <ns3:cad>0</ns3:cad>
          </ns3:TrackPointExtension>
        </extensions>
      </trkpt>
      <trkpt lat="38.02058611996471881866455078125" lon="-106.9281063973903656005859375">
        <ele>4145.7998046875</ele>
        <time>2026-05-25T14:34:15.000Z</time>
        <extensions>
          <ns3:TrackPointExtension>
            <ns3:hr>101</ns3:hr>
            <ns3:cad>0</ns3:cad>
          </ns3:TrackPointExtension>
        </extensions>
      </trkpt>
      <trkpt lat="38.020586706697940826416015625" lon="-106.92809625528752803802490234375">
        <ele>4146</ele>
        <time>2026-05-25T14:34:16.000Z</time>
        <extensions>
          <ns3:TrackPointExtension>
            <ns3:hr>101</ns3:hr>
            <ns3:cad>0</ns3:cad>
          </ns3:TrackPointExtension>
        </extensions>
      </trkpt>
      <trkpt lat="38.02059383131563663482666015625" lon="-106.928083933889865875244140625">
        <ele>4146.7998046875</ele>
        <time>2026-05-25T14:34:21.000Z</time>
        <extensions>
          <ns3:TrackPointExtension>
            <ns3:hr>103</ns3:hr>
            <ns3:cad>0</ns3:cad>
          </ns3:TrackPointExtension>
        </extensions>
      </trkpt>
      <trkpt lat="38.02060539834201335906982421875" lon="-106.9280167110264301300048828125">
        <ele>4147.2001953125</ele>
        <time>2026-05-25T14:34:27.000Z</time>
        <extensions>
          <ns3:TrackPointExtension>
            <ns3:hr>101</ns3:hr>
            <ns3:cad>47</ns3:cad>
          </ns3:TrackPointExtension>
        </extensions>
      </trkpt>
      <trkpt lat="38.02060590125620365142822265625" lon="-106.9279898889362812042236328125">
        <ele>4147.60009765625</ele>
        <time>2026-05-25T14:34:30.000Z</time>
        <extensions>
          <ns3:TrackPointExtension>
            <ns3:hr>101</ns3:hr>
            <ns3:cad>0</ns3:cad>
          </ns3:TrackPointExtension>
        </extensions>
      </trkpt>
      <trkpt lat="38.0206066556274890899658203125" lon="-106.92797874100506305694580078125">
        <ele>4148</ele>
        <time>2026-05-25T14:34:31.000Z</time>
        <extensions>
          <ns3:TrackPointExtension>
            <ns3:hr>101</ns3:hr>
            <ns3:cad>0</ns3:cad>
          </ns3:TrackPointExtension>
        </extensions>
      </trkpt>
      <trkpt lat="38.02061160095036029815673828125" lon="-106.92794688977301120758056640625">
        <ele>4148.60009765625</ele>
        <time>2026-05-25T14:34:35.000Z</time>
        <extensions>
          <ns3:TrackPointExtension>
            <ns3:hr>104</ns3:hr>
            <ns3:cad>0</ns3:cad>
          </ns3:TrackPointExtension>
        </extensions>
      </trkpt>
      <trkpt lat="38.020611517131328582763671875" lon="-106.92793138325214385986328125">
        <ele>4148.7998046875</ele>
        <time>2026-05-25T14:34:37.000Z</time>
        <extensions>
          <ns3:TrackPointExtension>
            <ns3:hr>106</ns3:hr>
            <ns3:cad>0</ns3:cad>
          </ns3:TrackPointExtension>
        </extensions>
      </trkpt>
      <trkpt lat="38.0206106789410114288330078125" lon="-106.92792308516800403594970703125">
        <ele>4149</ele>
        <time>2026-05-25T14:34:38.000Z</time>
        <extensions>
          <ns3:TrackPointExtension>
            <ns3:hr>106</ns3:hr>
            <ns3:cad>0</ns3:cad>
          </ns3:TrackPointExtension>
        </extensions>
      </trkpt>
      <trkpt lat="38.0206130258738994598388671875" lon="-106.92786592058837413787841796875">
        <ele>4150.2001953125</ele>
        <time>2026-05-25T14:34:44.000Z</time>
        <extensions>
          <ns3:TrackPointExtension>
            <ns3:hr>108</ns3:hr>
            <ns3:cad>0</ns3:cad>
          </ns3:TrackPointExtension>
        </extensions>
      </trkpt>
      <trkpt lat="38.0206187255680561065673828125" lon="-106.92785250954329967498779296875">
        <ele>4150.60009765625</ele>
        <time>2026-05-25T14:34:45.000Z</time>
        <extensions>
          <ns3:TrackPointExtension>
            <ns3:hr>108</ns3:hr>
            <ns3:cad>0</ns3:cad>
          </ns3:TrackPointExtension>
        </extensions>
      </trkpt>
      <trkpt lat="38.02062199451029300689697265625" lon="-106.927825771272182464599609375">
        <ele>4151</ele>
        <time>2026-05-25T14:34:49.000Z</time>
        <extensions>
          <ns3:TrackPointExtension>
            <ns3:hr>111</ns3:hr>
            <ns3:cad>0</ns3:cad>
          </ns3:TrackPointExtension>
        </extensions>
      </trkpt>
      <trkpt lat="38.02062467671930789947509765625" lon="-106.92781110294163227081298828125">
        <ele>4151.39990234375</ele>
        <time>2026-05-25T14:34:51.000Z</time>
        <extensions>
          <ns3:TrackPointExtension>
            <ns3:hr>111</ns3:hr>
            <ns3:cad>0</ns3:cad>
          </ns3:TrackPointExtension>
        </extensions>
      </trkpt>
      <trkpt lat="38.020631968975067138671875" lon="-106.9278064928948879241943359375">
        <ele>4151.39990234375</ele>
        <time>2026-05-25T14:34:52.000Z</time>
        <extensions>
          <ns3:TrackPointExtension>
            <ns3:hr>110</ns3:hr>
            <ns3:cad>0</ns3:cad>
          </ns3:TrackPointExtension>
        </extensions>
      </trkpt>
      <trkpt lat="38.02064596675336360931396484375" lon="-106.9277659244835376739501953125">
        <ele>4152.39990234375</ele>
        <time>2026-05-25T14:34:56.000Z</time>
        <extensions>
          <ns3:TrackPointExtension>
            <ns3:hr>108</ns3:hr>
            <ns3:cad>0</ns3:cad>
          </ns3:TrackPointExtension>
        </extensions>
      </trkpt>
      <trkpt lat="38.020642362534999847412109375" lon="-106.927757374942302703857421875">
        <ele>4152.60009765625</ele>
        <time>2026-05-25T14:34:57.000Z</time>
        <extensions>
          <ns3:TrackPointExtension>
            <ns3:hr>108</ns3:hr>
            <ns3:cad>0</ns3:cad>
          </ns3:TrackPointExtension>
        </extensions>
      </trkpt>
      <trkpt lat="38.02063607610762119293212890625" lon="-106.92772996611893177032470703125">
        <ele>4153.60009765625</ele>
        <time>2026-05-25T14:35:01.000Z</time>
        <extensions>
          <ns3:TrackPointExtension>
            <ns3:hr>108</ns3:hr>
            <ns3:cad>0</ns3:cad>
          </ns3:TrackPointExtension>
        </extensions>
      </trkpt>
      <trkpt lat="38.02063926123082637786865234375" lon="-106.927714459598064422607421875">
        <ele>4154</ele>
        <time>2026-05-25T14:35:04.000Z</time>
        <extensions>
          <ns3:TrackPointExtension>
            <ns3:hr>108</ns3:hr>
            <ns3:cad>0</ns3:cad>
          </ns3:TrackPointExtension>
        </extensions>
      </trkpt>
      <trkpt lat="38.02063037641346454620361328125" lon="-106.927653439342975616455078125">
        <ele>4154.7998046875</ele>
        <time>2026-05-25T14:35:09.000Z</time>
        <extensions>
          <ns3:TrackPointExtension>
            <ns3:hr>109</ns3:hr>
            <ns3:cad>0</ns3:cad>
          </ns3:TrackPointExtension>
        </extensions>
      </trkpt>
      <trkpt lat="38.02062551490962505340576171875" lon="-106.9276143796741962432861328125">
        <ele>4155.39990234375</ele>
        <time>2026-05-25T14:35:14.000Z</time>
        <extensions>
          <ns3:TrackPointExtension>
            <ns3:hr>111</ns3:hr>
            <ns3:cad>0</ns3:cad>
          </ns3:TrackPointExtension>
        </extensions>
      </trkpt>
      <trkpt lat="38.02063289098441600799560546875" lon="-106.92757808603346347808837890625">
        <ele>4155.39990234375</ele>
        <time>2026-05-25T14:35:19.000Z</time>
        <extensions>
          <ns3:TrackPointExtension>
            <ns3:hr>114</ns3:hr>
            <ns3:cad>0</ns3:cad>
          </ns3:TrackPointExtension>
        </extensions>
      </trkpt>
      <trkpt lat="38.020648397505283355712890625" lon="-106.9275322370231151580810546875">
        <ele>4155.60009765625</ele>
        <time>2026-05-25T14:35:22.000Z</time>
        <extensions>
          <ns3:TrackPointExtension>
            <ns3:hr>115</ns3:hr>
            <ns3:cad>0</ns3:cad>
          </ns3:TrackPointExtension>
        </extensions>
      </trkpt>
      <trkpt lat="38.020642362534999847412109375" lon="-106.92753232084214687347412109375">
        <ele>4155.7998046875</ele>
        <time>2026-05-25T14:35:23.000Z</time>
        <extensions>
          <ns3:TrackPointExtension>
            <ns3:hr>116</ns3:hr>
            <ns3:cad>0</ns3:cad>
          </ns3:TrackPointExtension>
        </extensions>
      </trkpt>
      <trkpt lat="38.0206405185163021087646484375" lon="-106.9275164790451526641845703125">
        <ele>4156.2001953125</ele>
        <time>2026-05-25T14:35:26.000Z</time>
        <extensions>
          <ns3:TrackPointExtension>
            <ns3:hr>117</ns3:hr>
            <ns3:cad>0</ns3:cad>
          </ns3:TrackPointExtension>
        </extensions>
      </trkpt>
      <trkpt lat="38.0206388421356678009033203125" lon="-106.9274883158504962921142578125">
        <ele>4157</ele>
        <time>2026-05-25T14:35:30.000Z</time>
        <extensions>
          <ns3:TrackPointExtension>
            <ns3:hr>120</ns3:hr>
            <ns3:cad>0</ns3:cad>
          </ns3:TrackPointExtension>
        </extensions>
      </trkpt>
      <trkpt lat="38.0206398479640483856201171875" lon="-106.92748454399406909942626953125">
        <ele>4157.2001953125</ele>
        <time>2026-05-25T14:35:32.000Z</time>
        <extensions>
          <ns3:TrackPointExtension>
            <ns3:hr>120</ns3:hr>
            <ns3:cad>0</ns3:cad>
          </ns3:TrackPointExtension>
        </extensions>
      </trkpt>
      <trkpt lat="38.02063372917473316192626953125" lon="-106.927452944219112396240234375">
        <ele>4157.7998046875</ele>
        <time>2026-05-25T14:35:36.000Z</time>
        <extensions>
          <ns3:TrackPointExtension>
            <ns3:hr>123</ns3:hr>
            <ns3:cad>0</ns3:cad>
          </ns3:TrackPointExtension>
        </extensions>
      </trkpt>
      <trkpt lat="38.02063372917473316192626953125" lon="-106.92744799889624118804931640625">
        <ele>4158</ele>
        <time>2026-05-25T14:35:37.000Z</time>
        <extensions>
          <ns3:TrackPointExtension>
            <ns3:hr>123</ns3:hr>
            <ns3:cad>0</ns3:cad>
          </ns3:TrackPointExtension>
        </extensions>
      </trkpt>
      <trkpt lat="38.02063465118408203125" lon="-106.9274232722818851470947265625">
        <ele>4158.39990234375</ele>
        <time>2026-05-25T14:35:40.000Z</time>
        <extensions>
          <ns3:TrackPointExtension>
            <ns3:hr>124</ns3:hr>
            <ns3:cad>0</ns3:cad>
          </ns3:TrackPointExtension>
        </extensions>
      </trkpt>
      <trkpt lat="38.02063238807022571563720703125" lon="-106.92738194949924945831298828125">
        <ele>4159</ele>
        <time>2026-05-25T14:35:45.000Z</time>
        <extensions>
          <ns3:TrackPointExtension>
            <ns3:hr>127</ns3:hr>
            <ns3:cad>0</ns3:cad>
          </ns3:TrackPointExtension>
        </extensions>
      </trkpt>
      <trkpt lat="38.020631633698940277099609375" lon="-106.9273696281015872955322265625">
        <ele>4159.60009765625</ele>
        <time>2026-05-25T14:35:47.000Z</time>
        <extensions>
          <ns3:TrackPointExtension>
            <ns3:hr>127</ns3:hr>
            <ns3:cad>0</ns3:cad>
          </ns3:TrackPointExtension>
        </extensions>
      </trkpt>
      <trkpt lat="38.0206306278705596923828125" lon="-106.92735060118138790130615234375">
        <ele>4160.2001953125</ele>
        <time>2026-05-25T14:35:50.000Z</time>
        <extensions>
          <ns3:TrackPointExtension>
            <ns3:hr>129</ns3:hr>
            <ns3:cad>0</ns3:cad>
          </ns3:TrackPointExtension>
        </extensions>
      </trkpt>
      <trkpt lat="38.020635657012462615966796875" lon="-106.9273280538618564605712890625">
        <ele>4160.60009765625</ele>
        <time>2026-05-25T14:35:53.000Z</time>
        <extensions>
          <ns3:TrackPointExtension>
            <ns3:hr>128</ns3:hr>
            <ns3:cad>0</ns3:cad>
          </ns3:TrackPointExtension>
        </extensions>
      </trkpt>
      <trkpt lat="38.02064202725887298583984375" lon="-106.92729494534432888031005859375">
        <ele>4161.2001953125</ele>
        <time>2026-05-25T14:35:57.000Z</time>
        <extensions>
          <ns3:TrackPointExtension>
            <ns3:hr>126</ns3:hr>
            <ns3:cad>16</ns3:cad>
          </ns3:TrackPointExtension>
        </extensions>
      </trkpt>
      <trkpt lat="38.02064261399209499359130859375" lon="-106.92727667279541492462158203125">
        <ele>4161.60009765625</ele>
        <time>2026-05-25T14:36:00.000Z</time>
        <extensions>
          <ns3:TrackPointExtension>
            <ns3:hr>124</ns3:hr>
            <ns3:cad>0</ns3:cad>
          </ns3:TrackPointExtension>
        </extensions>
      </trkpt>
      <trkpt lat="38.0206440389156341552734375" lon="-106.9272506050765514373779296875">
        <ele>4161.7998046875</ele>
        <time>2026-05-25T14:36:02.000Z</time>
        <extensions>
          <ns3:TrackPointExtension>
            <ns3:hr>121</ns3:hr>
            <ns3:cad>0</ns3:cad>
          </ns3:TrackPointExtension>
        </extensions>
      </trkpt>
      <trkpt lat="38.0206440389156341552734375" lon="-106.92723141051828861236572265625">
        <ele>4162</ele>
        <time>2026-05-25T14:36:04.000Z</time>
        <extensions>
          <ns3:TrackPointExtension>
            <ns3:hr>118</ns3:hr>
            <ns3:cad>0</ns3:cad>
          </ns3:TrackPointExtension>
        </extensions>
      </trkpt>
      <trkpt lat="38.020641691982746124267578125" lon="-106.92721699364483356475830078125">
        <ele>4162.2001953125</ele>
        <time>2026-05-25T14:36:06.000Z</time>
        <extensions>
          <ns3:TrackPointExtension>
            <ns3:hr>116</ns3:hr>
            <ns3:cad>0</ns3:cad>
          </ns3:TrackPointExtension>
        </extensions>
      </trkpt>
      <trkpt lat="38.02065250463783740997314453125" lon="-106.927166618406772613525390625">
        <ele>4163</ele>
        <time>2026-05-25T14:36:12.000Z</time>
        <extensions>
          <ns3:TrackPointExtension>
            <ns3:hr>114</ns3:hr>
            <ns3:cad>0</ns3:cad>
          </ns3:TrackPointExtension>
        </extensions>
      </trkpt>
      <trkpt lat="38.02065166644752025604248046875" lon="-106.92715488374233245849609375">
        <ele>4163.39990234375</ele>
        <time>2026-05-25T14:36:14.000Z</time>
        <extensions>
          <ns3:TrackPointExtension>
            <ns3:hr>114</ns3:hr>
            <ns3:cad>0</ns3:cad>
          </ns3:TrackPointExtension>
        </extensions>
      </trkpt>
      <trkpt lat="38.02065233699977397918701171875" lon="-106.92713283933699131011962890625">
        <ele>4163.7998046875</ele>
        <time>2026-05-25T14:36:17.000Z</time>
        <extensions>
          <ns3:TrackPointExtension>
            <ns3:hr>117</ns3:hr>
            <ns3:cad>0</ns3:cad>
          </ns3:TrackPointExtension>
        </extensions>
      </trkpt>
      <trkpt lat="38.0206515826284885406494140625" lon="-106.92712864838540554046630859375">
        <ele>4164</ele>
        <time>2026-05-25T14:36:20.000Z</time>
        <extensions>
          <ns3:TrackPointExtension>
            <ns3:hr>120</ns3:hr>
            <ns3:cad>0</ns3:cad>
          </ns3:TrackPointExtension>
        </extensions>
      </trkpt>
      <trkpt lat="38.02065351046621799468994140625" lon="-106.92713074386119842529296875">
        <ele>4164.2001953125</ele>
        <time>2026-05-25T14:36:21.000Z</time>
        <extensions>
          <ns3:TrackPointExtension>
            <ns3:hr>120</ns3:hr>
            <ns3:cad>0</ns3:cad>
          </ns3:TrackPointExtension>
        </extensions>
      </trkpt>
      <trkpt lat="38.02065669558942317962646484375" lon="-106.9271258823573589324951171875">
        <ele>4164.39990234375</ele>
        <time>2026-05-25T14:36:23.000Z</time>
        <extensions>
          <ns3:TrackPointExtension>
            <ns3:hr>121</ns3:hr>
            <ns3:cad>0</ns3:cad>
          </ns3:TrackPointExtension>
        </extensions>
      </trkpt>
      <trkpt lat="38.020667172968387603759765625" lon="-106.927109621465206146240234375">
        <ele>4164.7998046875</ele>
        <time>2026-05-25T14:36:27.000Z</time>
        <extensions>
          <ns3:TrackPointExtension>
            <ns3:hr>121</ns3:hr>
            <ns3:cad>0</ns3:cad>
          </ns3:TrackPointExtension>
        </extensions>
      </trkpt>
      <trkpt lat="38.02068318240344524383544921875" lon="-106.92710258066654205322265625">
        <ele>4165.60009765625</ele>
        <time>2026-05-25T14:36:29.000Z</time>
        <extensions>
          <ns3:TrackPointExtension>
            <ns3:hr>121</ns3:hr>
            <ns3:cad>0</ns3:cad>
          </ns3:TrackPointExtension>
        </extensions>
      </trkpt>
      <trkpt lat="38.020700700581073760986328125" lon="-106.9270910136401653289794921875">
        <ele>4166.2001953125</ele>
        <time>2026-05-25T14:36:33.000Z</time>
        <extensions>
          <ns3:TrackPointExtension>
            <ns3:hr>121</ns3:hr>
            <ns3:cad>0</ns3:cad>
          </ns3:TrackPointExtension>
        </extensions>
      </trkpt>
      <trkpt lat="38.02071101032197475433349609375" lon="-106.927074752748012542724609375">
        <ele>4166.60009765625</ele>
        <time>2026-05-25T14:36:36.000Z</time>
        <extensions>
          <ns3:TrackPointExtension>
            <ns3:hr>120</ns3:hr>
            <ns3:cad>0</ns3:cad>
          </ns3:TrackPointExtension>
        </extensions>
      </trkpt>
      <trkpt lat="38.02071050740778446197509765625" lon="-106.92706394009292125701904296875">
        <ele>4167.39990234375</ele>
        <time>2026-05-25T14:36:38.000Z</time>
        <extensions>
          <ns3:TrackPointExtension>
            <ns3:hr>120</ns3:hr>
            <ns3:cad>0</ns3:cad>
          </ns3:TrackPointExtension>
        </extensions>
      </trkpt>
      <trkpt lat="38.02071050740778446197509765625" lon="-106.92705539055168628692626953125">
        <ele>4168</ele>
        <time>2026-05-25T14:36:40.000Z</time>
        <extensions>
          <ns3:TrackPointExtension>
            <ns3:hr>120</ns3:hr>
            <ns3:cad>0</ns3:cad>
          </ns3:TrackPointExtension>
        </extensions>
      </trkpt>
      <trkpt lat="38.0207203142344951629638671875" lon="-106.927041225135326385498046875">
        <ele>4168.39990234375</ele>
        <time>2026-05-25T14:36:44.000Z</time>
        <extensions>
          <ns3:TrackPointExtension>
            <ns3:hr>123</ns3:hr>
            <ns3:cad>0</ns3:cad>
          </ns3:TrackPointExtension>
        </extensions>
      </trkpt>
      <trkpt lat="38.0207330547273159027099609375" lon="-106.9270366989076137542724609375">
        <ele>4168.60009765625</ele>
        <time>2026-05-25T14:36:46.000Z</time>
        <extensions>
          <ns3:TrackPointExtension>
            <ns3:hr>123</ns3:hr>
            <ns3:cad>0</ns3:cad>
          </ns3:TrackPointExtension>
        </extensions>
      </trkpt>
      <trkpt lat="38.02074789069592952728271484375" lon="-106.9270293228328227996826171875">
        <ele>4169</ele>
        <time>2026-05-25T14:36:49.000Z</time>
        <extensions>
          <ns3:TrackPointExtension>
            <ns3:hr>121</ns3:hr>
            <ns3:cad>0</ns3:cad>
          </ns3:TrackPointExtension>
        </extensions>
      </trkpt>
      <trkpt lat="38.02076540887355804443359375" lon="-106.927033849060535430908203125">
        <ele>4169.60009765625</ele>
        <time>2026-05-25T14:36:52.000Z</time>
        <extensions>
          <ns3:TrackPointExtension>
            <ns3:hr>118</ns3:hr>
            <ns3:cad>0</ns3:cad>
          </ns3:TrackPointExtension>
        </extensions>
      </trkpt>
      <trkpt lat="38.02076138556003570556640625" lon="-106.92701985128223896026611328125">
        <ele>4170.2001953125</ele>
        <time>2026-05-25T14:36:54.000Z</time>
        <extensions>
          <ns3:TrackPointExtension>
            <ns3:hr>115</ns3:hr>
            <ns3:cad>0</ns3:cad>
          </ns3:TrackPointExtension>
        </extensions>
      </trkpt>
      <trkpt lat="38.0207813344895839691162109375" lon="-106.92701649852097034454345703125">
        <ele>4170.7998046875</ele>
        <time>2026-05-25T14:36:57.000Z</time>
        <extensions>
          <ns3:TrackPointExtension>
            <ns3:hr>113</ns3:hr>
            <ns3:cad>0</ns3:cad>
          </ns3:TrackPointExtension>
        </extensions>
      </trkpt>
      <trkpt lat="38.02080522291362285614013671875" lon="-106.92699671722948551177978515625">
        <ele>4171.2001953125</ele>
        <time>2026-05-25T14:37:03.000Z</time>
        <extensions>
          <ns3:TrackPointExtension>
            <ns3:hr>113</ns3:hr>
            <ns3:cad>0</ns3:cad>
          </ns3:TrackPointExtension>
        </extensions>
      </trkpt>
      <trkpt lat="38.0208074860274791717529296875" lon="-106.92699671722948551177978515625">
        <ele>4171.39990234375</ele>
        <time>2026-05-25T14:37:04.000Z</time>
        <extensions>
          <ns3:TrackPointExtension>
            <ns3:hr>114</ns3:hr>
            <ns3:cad>0</ns3:cad>
          </ns3:TrackPointExtension>
        </extensions>
      </trkpt>
      <trkpt lat="38.02081645466387271881103515625" lon="-106.92700493149459362030029296875">
        <ele>4172.39990234375</ele>
        <time>2026-05-25T14:37:07.000Z</time>
        <extensions>
          <ns3:TrackPointExtension>
            <ns3:hr>112</ns3:hr>
            <ns3:cad>0</ns3:cad>
          </ns3:TrackPointExtension>
        </extensions>
      </trkpt>
      <trkpt lat="38.02082307636737823486328125" lon="-106.9270018301904201507568359375">
        <ele>4173</ele>
        <time>2026-05-25T14:37:09.000Z</time>
        <extensions>
          <ns3:TrackPointExtension>
            <ns3:hr>115</ns3:hr>
            <ns3:cad>0</ns3:cad>
          </ns3:TrackPointExtension>
        </extensions>
      </trkpt>
      <trkpt lat="38.02083439193665981292724609375" lon="-106.9270026683807373046875">
        <ele>4173.2001953125</ele>
        <time>2026-05-25T14:37:11.000Z</time>
        <extensions>
          <ns3:TrackPointExtension>
            <ns3:hr>117</ns3:hr>
            <ns3:cad>0</ns3:cad>
          </ns3:TrackPointExtension>
        </extensions>
      </trkpt>
      <trkpt lat="38.02084713242948055267333984375" lon="-106.92699504084885120391845703125">
        <ele>4173.39990234375</ele>
        <time>2026-05-25T14:37:14.000Z</time>
        <extensions>
          <ns3:TrackPointExtension>
            <ns3:hr>119</ns3:hr>
            <ns3:cad>0</ns3:cad>
          </ns3:TrackPointExtension>
        </extensions>
      </trkpt>
      <trkpt lat="38.02085115574300289154052734375" lon="-106.92698565311729907989501953125">
        <ele>4174</ele>
        <time>2026-05-25T14:37:17.000Z</time>
        <extensions>
          <ns3:TrackPointExtension>
            <ns3:hr>119</ns3:hr>
            <ns3:cad>0</ns3:cad>
          </ns3:TrackPointExtension>
        </extensions>
      </trkpt>
      <trkpt lat="38.02086574025452136993408203125" lon="-106.92698054015636444091796875">
        <ele>4174.39990234375</ele>
        <time>2026-05-25T14:37:21.000Z</time>
        <extensions>
          <ns3:TrackPointExtension>
            <ns3:hr>121</ns3:hr>
            <ns3:cad>0</ns3:cad>
          </ns3:TrackPointExtension>
        </extensions>
      </trkpt>
      <trkpt lat="38.0208825878798961639404296875" lon="-106.9269683025777339935302734375">
        <ele>4175.60009765625</ele>
        <time>2026-05-25T14:37:25.000Z</time>
        <extensions>
          <ns3:TrackPointExtension>
            <ns3:hr>123</ns3:hr>
            <ns3:cad>0</ns3:cad>
          </ns3:TrackPointExtension>
        </extensions>
      </trkpt>
      <trkpt lat="38.02088686265051364898681640625" lon="-106.92696637474000453948974609375">
        <ele>4175.60009765625</ele>
        <time>2026-05-25T14:37:26.000Z</time>
        <extensions>
          <ns3:TrackPointExtension>
            <ns3:hr>124</ns3:hr>
            <ns3:cad>0</ns3:cad>
          </ns3:TrackPointExtension>
        </extensions>
      </trkpt>
      <trkpt lat="38.02090781740844249725341796875" lon="-106.92694910801947116851806640625">
        <ele>4176.2001953125</ele>
        <time>2026-05-25T14:37:32.000Z</time>
        <extensions>
          <ns3:TrackPointExtension>
            <ns3:hr>126</ns3:hr>
            <ns3:cad>0</ns3:cad>
          </ns3:TrackPointExtension>
        </extensions>
      </trkpt>
      <trkpt lat="38.020909912884235382080078125" lon="-106.926943324506282806396484375">
        <ele>4176.39990234375</ele>
        <time>2026-05-25T14:37:33.000Z</time>
        <extensions>
          <ns3:TrackPointExtension>
            <ns3:hr>124</ns3:hr>
            <ns3:cad>0</ns3:cad>
          </ns3:TrackPointExtension>
        </extensions>
      </trkpt>
      <trkpt lat="38.020907901227474212646484375" lon="-106.9269408099353313446044921875">
        <ele>4176.60009765625</ele>
        <time>2026-05-25T14:37:35.000Z</time>
        <extensions>
          <ns3:TrackPointExtension>
            <ns3:hr>125</ns3:hr>
            <ns3:cad>0</ns3:cad>
          </ns3:TrackPointExtension>
        </extensions>
      </trkpt>
      <trkpt lat="38.02092642523348331451416015625" lon="-106.9269213639199733734130859375">
        <ele>4177</ele>
        <time>2026-05-25T14:37:39.000Z</time>
        <extensions>
          <ns3:TrackPointExtension>
            <ns3:hr>125</ns3:hr>
            <ns3:cad>0</ns3:cad>
          </ns3:TrackPointExtension>
        </extensions>
      </trkpt>
      <trkpt lat="38.02093380130827426910400390625" lon="-106.92691038362681865692138671875">
        <ele>4177.60009765625</ele>
        <time>2026-05-25T14:37:42.000Z</time>
        <extensions>
          <ns3:TrackPointExtension>
            <ns3:hr>124</ns3:hr>
            <ns3:cad>0</ns3:cad>
          </ns3:TrackPointExtension>
        </extensions>
      </trkpt>
      <trkpt lat="38.0209563486278057098388671875" lon="-106.9269233755767345428466796875">
        <ele>4178.2001953125</ele>
        <time>2026-05-25T14:37:46.000Z</time>
        <extensions>
          <ns3:TrackPointExtension>
            <ns3:hr>124</ns3:hr>
            <ns3:cad>0</ns3:cad>
          </ns3:TrackPointExtension>
        </extensions>
      </trkpt>
      <trkpt lat="38.02099431864917278289794921875" lon="-106.9269351102411746978759765625">
        <ele>4178.39990234375</ele>
        <time>2026-05-25T14:37:51.000Z</time>
        <extensions>
          <ns3:TrackPointExtension>
            <ns3:hr>124</ns3:hr>
            <ns3:cad>0</ns3:cad>
          </ns3:TrackPointExtension>
        </extensions>
      </trkpt>
      <trkpt lat="38.021021224558353424072265625" lon="-106.92692765034735202789306640625">
        <ele>4178.7998046875</ele>
        <time>2026-05-25T14:37:55.000Z</time>
        <extensions>
          <ns3:TrackPointExtension>
            <ns3:hr>126</ns3:hr>
            <ns3:cad>0</ns3:cad>
          </ns3:TrackPointExtension>
        </extensions>
      </trkpt>
      <trkpt lat="38.0210329592227935791015625" lon="-106.9269210286438465118408203125">
        <ele>4179</ele>
        <time>2026-05-25T14:37:58.000Z</time>
        <extensions>
          <ns3:TrackPointExtension>
            <ns3:hr>127</ns3:hr>
            <ns3:cad>0</ns3:cad>
          </ns3:TrackPointExtension>
        </extensions>
      </trkpt>
      <trkpt lat="38.02104838192462921142578125" lon="-106.9269196875393390655517578125">
        <ele>4179.2001953125</ele>
        <time>2026-05-25T14:38:01.000Z</time>
        <extensions>
          <ns3:TrackPointExtension>
            <ns3:hr>123</ns3:hr>
            <ns3:cad>0</ns3:cad>
          </ns3:TrackPointExtension>
        </extensions>
      </trkpt>
      <trkpt lat="38.0210565961897373199462890625" lon="-106.92691775970160961151123046875">
        <ele>4179.39990234375</ele>
        <time>2026-05-25T14:38:02.000Z</time>
        <extensions>
          <ns3:TrackPointExtension>
            <ns3:hr>119</ns3:hr>
            <ns3:cad>0</ns3:cad>
          </ns3:TrackPointExtension>
        </extensions>
      </trkpt>
      <trkpt lat="38.02106170915067195892333984375" lon="-106.9269170053303241729736328125">
        <ele>4179.7998046875</ele>
        <time>2026-05-25T14:38:03.000Z</time>
        <extensions>
          <ns3:TrackPointExtension>
            <ns3:hr>116</ns3:hr>
            <ns3:cad>0</ns3:cad>
          </ns3:TrackPointExtension>
        </extensions>
      </trkpt>
      <trkpt lat="38.0210679955780506134033203125" lon="-106.9269153289496898651123046875">
        <ele>4180</ele>
        <time>2026-05-25T14:38:04.000Z</time>
        <extensions>
          <ns3:TrackPointExtension>
            <ns3:hr>115</ns3:hr>
            <ns3:cad>0</ns3:cad>
          </ns3:TrackPointExtension>
        </extensions>
      </trkpt>
      <trkpt lat="38.02109356038272380828857421875" lon="-106.92690384574234485626220703125">
        <ele>4180.60009765625</ele>
        <time>2026-05-25T14:38:09.000Z</time>
        <extensions>
          <ns3:TrackPointExtension>
            <ns3:hr>112</ns3:hr>
            <ns3:cad>0</ns3:cad>
          </ns3:TrackPointExtension>
        </extensions>
      </trkpt>
      <trkpt lat="38.02111811935901641845703125" lon="-106.9268945418298244476318359375">
        <ele>4180.39990234375</ele>
        <time>2026-05-25T14:38:13.000Z</time>
        <extensions>
          <ns3:TrackPointExtension>
            <ns3:hr>112</ns3:hr>
            <ns3:cad>0</ns3:cad>
          </ns3:TrackPointExtension>
        </extensions>
      </trkpt>
      <trkpt lat="38.021155335009098052978515625" lon="-106.9268913567066192626953125">
        <ele>4181.2001953125</ele>
        <time>2026-05-25T14:38:19.000Z</time>
        <extensions>
          <ns3:TrackPointExtension>
            <ns3:hr>111</ns3:hr>
            <ns3:cad>0</ns3:cad>
          </ns3:TrackPointExtension>
        </extensions>
      </trkpt>
      <trkpt lat="38.021155335009098052978515625" lon="-106.9268913567066192626953125">
        <ele>4181.2001953125</ele>
        <time>2026-05-25T14:38:20.000Z</time>
        <extensions>
          <ns3:TrackPointExtension>
            <ns3:hr>111</ns3:hr>
            <ns3:cad>0</ns3:cad>
          </ns3:TrackPointExtension>
        </extensions>
      </trkpt>
      <trkpt lat="38.021180815994739532470703125" lon="-106.9268942065536975860595703125">
        <ele>4181.7998046875</ele>
        <time>2026-05-25T14:38:25.000Z</time>
        <extensions>
          <ns3:TrackPointExtension>
            <ns3:hr>110</ns3:hr>
            <ns3:cad>0</ns3:cad>
          </ns3:TrackPointExtension>
        </extensions>
      </trkpt>
      <trkpt lat="38.02119682542979717254638671875" lon="-106.92688272334635257720947265625">
        <ele>4182.39990234375</ele>
        <time>2026-05-25T14:38:28.000Z</time>
        <extensions>
          <ns3:TrackPointExtension>
            <ns3:hr>110</ns3:hr>
            <ns3:cad>0</ns3:cad>
          </ns3:TrackPointExtension>
        </extensions>
      </trkpt>
      <trkpt lat="38.02121275104582309722900390625" lon="-106.92687593400478363037109375">
        <ele>4183.2001953125</ele>
        <time>2026-05-25T14:38:32.000Z</time>
        <extensions>
          <ns3:TrackPointExtension>
            <ns3:hr>110</ns3:hr>
            <ns3:cad>0</ns3:cad>
          </ns3:TrackPointExtension>
        </extensions>
      </trkpt>
      <trkpt lat="38.02121224813163280487060546875" lon="-106.926874257624149322509765625">
        <ele>4183.39990234375</ele>
        <time>2026-05-25T14:38:33.000Z</time>
        <extensions>
          <ns3:TrackPointExtension>
            <ns3:hr>111</ns3:hr>
            <ns3:cad>0</ns3:cad>
          </ns3:TrackPointExtension>
        </extensions>
      </trkpt>
      <trkpt lat="38.02125264890491962432861328125" lon="-106.9268670491874217987060546875">
        <ele>4183.7998046875</ele>
        <time>2026-05-25T14:38:39.000Z</time>
        <extensions>
          <ns3:TrackPointExtension>
            <ns3:hr>110</ns3:hr>
            <ns3:cad>0</ns3:cad>
          </ns3:TrackPointExtension>
        </extensions>
      </trkpt>
      <trkpt lat="38.02129908464848995208740234375" lon="-106.92684735171496868133544921875">
        <ele>4184.39990234375</ele>
        <time>2026-05-25T14:38:45.000Z</time>
        <extensions>
          <ns3:TrackPointExtension>
            <ns3:hr>110</ns3:hr>
            <ns3:cad>54</ns3:cad>
          </ns3:TrackPointExtension>
        </extensions>
      </trkpt>
      <trkpt lat="38.02130428142845630645751953125" lon="-106.926840059459209442138671875">
        <ele>4184.39990234375</ele>
        <time>2026-05-25T14:38:46.000Z</time>
        <extensions>
          <ns3:TrackPointExtension>
            <ns3:hr>110</ns3:hr>
            <ns3:cad>54</ns3:cad>
          </ns3:TrackPointExtension>
        </extensions>
      </trkpt>
      <trkpt lat="38.02135155536234378814697265625" lon="-106.926823966205120086669921875">
        <ele>4185</ele>
        <time>2026-05-25T14:38:52.000Z</time>
        <extensions>
          <ns3:TrackPointExtension>
            <ns3:hr>111</ns3:hr>
            <ns3:cad>0</ns3:cad>
          </ns3:TrackPointExtension>
        </extensions>
      </trkpt>
      <trkpt lat="38.0213633738458156585693359375" lon="-106.92681617103517055511474609375">
        <ele>4185.2001953125</ele>
        <time>2026-05-25T14:38:55.000Z</time>
        <extensions>
          <ns3:TrackPointExtension>
            <ns3:hr>114</ns3:hr>
            <ns3:cad>0</ns3:cad>
          </ns3:TrackPointExtension>
        </extensions>
      </trkpt>
      <trkpt lat="38.021369241178035736083984375" lon="-106.9268160872161388397216796875">
        <ele>4185.39990234375</ele>
        <time>2026-05-25T14:38:57.000Z</time>
        <extensions>
          <ns3:TrackPointExtension>
            <ns3:hr>118</ns3:hr>
            <ns3:cad>0</ns3:cad>
          </ns3:TrackPointExtension>
        </extensions>
      </trkpt>
      <trkpt lat="38.02138441242277622222900390625" lon="-106.92680351436138153076171875">
        <ele>4185.60009765625</ele>
        <time>2026-05-25T14:38:59.000Z</time>
        <extensions>
          <ns3:TrackPointExtension>
            <ns3:hr>123</ns3:hr>
            <ns3:cad>0</ns3:cad>
          </ns3:TrackPointExtension>
        </extensions>
      </trkpt>
      <trkpt lat="38.0214029364287853240966796875" lon="-106.926779709756374359130859375">
        <ele>4186</ele>
        <time>2026-05-25T14:39:03.000Z</time>
        <extensions>
          <ns3:TrackPointExtension>
            <ns3:hr>126</ns3:hr>
            <ns3:cad>0</ns3:cad>
          </ns3:TrackPointExtension>
        </extensions>
      </trkpt>
      <trkpt lat="38.02140771411359310150146484375" lon="-106.9267755188047885894775390625">
        <ele>4186.39990234375</ele>
        <time>2026-05-25T14:39:05.000Z</time>
        <extensions>
          <ns3:TrackPointExtension>
            <ns3:hr>128</ns3:hr>
            <ns3:cad>0</ns3:cad>
          </ns3:TrackPointExtension>
        </extensions>
      </trkpt>
      <trkpt lat="38.021415509283542633056640625" lon="-106.926770322024822235107421875">
        <ele>4186.39990234375</ele>
        <time>2026-05-25T14:39:06.000Z</time>
        <extensions>
          <ns3:TrackPointExtension>
            <ns3:hr>128</ns3:hr>
            <ns3:cad>0</ns3:cad>
          </ns3:TrackPointExtension>
        </extensions>
      </trkpt>
      <trkpt lat="38.0214347876608371734619140625" lon="-106.92673419602215290069580078125">
        <ele>4187.39990234375</ele>
        <time>2026-05-25T14:39:11.000Z</time>
        <extensions>
          <ns3:TrackPointExtension>
            <ns3:hr>129</ns3:hr>
            <ns3:cad>0</ns3:cad>
          </ns3:TrackPointExtension>
        </extensions>
      </trkpt>
      <trkpt lat="38.02143520675599575042724609375" lon="-106.92673377692699432373046875">
        <ele>4187.60009765625</ele>
        <time>2026-05-25T14:39:12.000Z</time>
        <extensions>
          <ns3:TrackPointExtension>
            <ns3:hr>128</ns3:hr>
            <ns3:cad>0</ns3:cad>
          </ns3:TrackPointExtension>
        </extensions>
      </trkpt>
      <trkpt lat="38.0214408226311206817626953125" lon="-106.9267215393483638763427734375">
        <ele>4188.2001953125</ele>
        <time>2026-05-25T14:39:17.000Z</time>
        <extensions>
          <ns3:TrackPointExtension>
            <ns3:hr>124</ns3:hr>
            <ns3:cad>0</ns3:cad>
          </ns3:TrackPointExtension>
        </extensions>
      </trkpt>
      <trkpt lat="38.021464459598064422607421875" lon="-106.92671156488358974456787109375">
        <ele>4188.2001953125</ele>
        <time>2026-05-25T14:39:19.000Z</time>
        <extensions>
          <ns3:TrackPointExtension>
            <ns3:hr>121</ns3:hr>
            <ns3:cad>0</ns3:cad>
          </ns3:TrackPointExtension>
        </extensions>
      </trkpt>
      <trkpt lat="38.02146957255899906158447265625" lon="-106.9267037697136402130126953125">
        <ele>4188.60009765625</ele>
        <time>2026-05-25T14:39:22.000Z</time>
        <extensions>
          <ns3:TrackPointExtension>
            <ns3:hr>120</ns3:hr>
            <ns3:cad>0</ns3:cad>
          </ns3:TrackPointExtension>
        </extensions>
      </trkpt>
      <trkpt lat="38.02147057838737964630126953125" lon="-106.926694549620151519775390625">
        <ele>4188.7998046875</ele>
        <time>2026-05-25T14:39:23.000Z</time>
        <extensions>
          <ns3:TrackPointExtension>
            <ns3:hr>120</ns3:hr>
            <ns3:cad>0</ns3:cad>
          </ns3:TrackPointExtension>
        </extensions>
      </trkpt>
      <trkpt lat="38.021486587822437286376953125" lon="-106.926665715873241424560546875">
        <ele>4189.60009765625</ele>
        <time>2026-05-25T14:39:28.000Z</time>
        <extensions>
          <ns3:TrackPointExtension>
            <ns3:hr>120</ns3:hr>
            <ns3:cad>0</ns3:cad>
          </ns3:TrackPointExtension>
        </extensions>
      </trkpt>
      <trkpt lat="38.02149203605949878692626953125" lon="-106.92664526402950286865234375">
        <ele>4190</ele>
        <time>2026-05-25T14:39:30.000Z</time>
        <extensions>
          <ns3:TrackPointExtension>
            <ns3:hr>120</ns3:hr>
            <ns3:cad>0</ns3:cad>
          </ns3:TrackPointExtension>
        </extensions>
      </trkpt>
      <trkpt lat="38.02148826420307159423828125" lon="-106.92661819048225879669189453125">
        <ele>4190.7998046875</ele>
        <time>2026-05-25T14:39:34.000Z</time>
        <extensions>
          <ns3:TrackPointExtension>
            <ns3:hr>120</ns3:hr>
            <ns3:cad>0</ns3:cad>
          </ns3:TrackPointExtension>
        </extensions>
      </trkpt>
      <trkpt lat="38.0214773677289485931396484375" lon="-106.9266258180141448974609375">
        <ele>4191.2001953125</ele>
        <time>2026-05-25T14:39:37.000Z</time>
        <extensions>
          <ns3:TrackPointExtension>
            <ns3:hr>118</ns3:hr>
            <ns3:cad>0</ns3:cad>
          </ns3:TrackPointExtension>
        </extensions>
      </trkpt>
      <trkpt lat="38.02147711627185344696044921875" lon="-106.926626823842525482177734375">
        <ele>4191.2001953125</ele>
        <time>2026-05-25T14:39:43.000Z</time>
        <extensions>
          <ns3:TrackPointExtension>
            <ns3:hr>117</ns3:hr>
            <ns3:cad>0</ns3:cad>
          </ns3:TrackPointExtension>
        </extensions>
      </trkpt>
      <trkpt lat="38.02146923728287220001220703125" lon="-106.92661316134035587310791015625">
        <ele>4192</ele>
        <time>2026-05-25T14:39:45.000Z</time>
        <extensions>
          <ns3:TrackPointExtension>
            <ns3:hr>118</ns3:hr>
            <ns3:cad>0</ns3:cad>
          </ns3:TrackPointExtension>
        </extensions>
      </trkpt>
      <trkpt lat="38.02146001718938350677490234375" lon="-106.9265963137149810791015625">
        <ele>4193</ele>
        <time>2026-05-25T14:39:48.000Z</time>
        <extensions>
          <ns3:TrackPointExtension>
            <ns3:hr>116</ns3:hr>
            <ns3:cad>0</ns3:cad>
          </ns3:TrackPointExtension>
        </extensions>
      </trkpt>
      <trkpt lat="38.0214567482471466064453125" lon="-106.9265616126358509063720703125">
        <ele>4193.7998046875</ele>
        <time>2026-05-25T14:39:53.000Z</time>
        <extensions>
          <ns3:TrackPointExtension>
            <ns3:hr>115</ns3:hr>
            <ns3:cad>0</ns3:cad>
          </ns3:TrackPointExtension>
        </extensions>
      </trkpt>
      <trkpt lat="38.0214567482471466064453125" lon="-106.92654778249561786651611328125">
        <ele>4194</ele>
        <time>2026-05-25T14:39:55.000Z</time>
        <extensions>
          <ns3:TrackPointExtension>
            <ns3:hr>119</ns3:hr>
            <ns3:cad>0</ns3:cad>
          </ns3:TrackPointExtension>
        </extensions>
      </trkpt>
      <trkpt lat="38.0214549042284488677978515625" lon="-106.926543004810810089111328125">
        <ele>4194</ele>
        <time>2026-05-25T14:39:56.000Z</time>
        <extensions>
          <ns3:TrackPointExtension>
            <ns3:hr>120</ns3:hr>
            <ns3:cad>0</ns3:cad>
          </ns3:TrackPointExtension>
        </extensions>
      </trkpt>
      <trkpt lat="38.02145230583846569061279296875" lon="-106.92653839476406574249267578125">
        <ele>4194.60009765625</ele>
        <time>2026-05-25T14:39:59.000Z</time>
        <extensions>
          <ns3:TrackPointExtension>
            <ns3:hr>121</ns3:hr>
            <ns3:cad>0</ns3:cad>
          </ns3:TrackPointExtension>
        </extensions>
      </trkpt>
      <trkpt lat="38.02145230583846569061279296875" lon="-106.92653839476406574249267578125">
        <ele>4194.60009765625</ele>
        <time>2026-05-25T14:40:05.000Z</time>
        <extensions>
          <ns3:TrackPointExtension>
            <ns3:hr>121</ns3:hr>
            <ns3:cad>0</ns3:cad>
          </ns3:TrackPointExtension>
        </extensions>
      </trkpt>
      <trkpt lat="38.0214542336761951446533203125" lon="-106.92654225043952465057373046875">
        <ele>4194.39990234375</ele>
        <time>2026-05-25T14:40:11.000Z</time>
        <extensions>
          <ns3:TrackPointExtension>
            <ns3:hr>123</ns3:hr>
            <ns3:cad>0</ns3:cad>
          </ns3:TrackPointExtension>
        </extensions>
      </trkpt>
      <trkpt lat="38.021459095180034637451171875" lon="-106.9265418313443660736083984375">
        <ele>4194.39990234375</ele>
        <time>2026-05-25T14:40:12.000Z</time>
        <extensions>
          <ns3:TrackPointExtension>
            <ns3:hr>122</ns3:hr>
            <ns3:cad>0</ns3:cad>
          </ns3:TrackPointExtension>
        </extensions>
      </trkpt>
      <trkpt lat="38.02146814763545989990234375" lon="-106.9265267439186573028564453125">
        <ele>4195</ele>
        <time>2026-05-25T14:40:16.000Z</time>
        <extensions>
          <ns3:TrackPointExtension>
            <ns3:hr>121</ns3:hr>
            <ns3:cad>0</ns3:cad>
          </ns3:TrackPointExtension>
        </extensions>
      </trkpt>
      <trkpt lat="38.02148147486150264739990234375" lon="-106.9265150092542171478271484375">
        <ele>4195.39990234375</ele>
        <time>2026-05-25T14:40:18.000Z</time>
        <extensions>
          <ns3:TrackPointExtension>
            <ns3:hr>121</ns3:hr>
            <ns3:cad>71</ns3:cad>
          </ns3:TrackPointExtension>
        </extensions>
      </trkpt>
      <trkpt lat="38.02149035967886447906494140625" lon="-106.92649799399077892303466796875">
        <ele>4196</ele>
        <time>2026-05-25T14:40:22.000Z</time>
        <extensions>
          <ns3:TrackPointExtension>
            <ns3:hr>117</ns3:hr>
            <ns3:cad>0</ns3:cad>
          </ns3:TrackPointExtension>
        </extensions>
      </trkpt>
      <trkpt lat="38.02149941213428974151611328125" lon="-106.9264865107834339141845703125">
        <ele>4196.2001953125</ele>
        <time>2026-05-25T14:40:24.000Z</time>
        <extensions>
          <ns3:TrackPointExtension>
            <ns3:hr>114</ns3:hr>
            <ns3:cad>0</ns3:cad>
          </ns3:TrackPointExtension>
        </extensions>
      </trkpt>
      <trkpt lat="38.02149832248687744140625" lon="-106.9264529831707477569580078125">
        <ele>4196.60009765625</ele>
        <time>2026-05-25T14:40:30.000Z</time>
        <extensions>
          <ns3:TrackPointExtension>
            <ns3:hr>115</ns3:hr>
            <ns3:cad>0</ns3:cad>
          </ns3:TrackPointExtension>
        </extensions>
      </trkpt>
      <trkpt lat="38.02150033414363861083984375" lon="-106.926447451114654541015625">
        <ele>4197</ele>
        <time>2026-05-25T14:40:31.000Z</time>
        <extensions>
          <ns3:TrackPointExtension>
            <ns3:hr>116</ns3:hr>
            <ns3:cad>0</ns3:cad>
          </ns3:TrackPointExtension>
        </extensions>
      </trkpt>
      <trkpt lat="38.021506704390048980712890625" lon="-106.9264415837824344635009765625">
        <ele>4197.2001953125</ele>
        <time>2026-05-25T14:40:33.000Z</time>
        <extensions>
          <ns3:TrackPointExtension>
            <ns3:hr>117</ns3:hr>
            <ns3:cad>0</ns3:cad>
          </ns3:TrackPointExtension>
        </extensions>
      </trkpt>
      <trkpt lat="38.02151232026517391204833984375" lon="-106.92641937173902988433837890625">
        <ele>4197</ele>
        <time>2026-05-25T14:40:37.000Z</time>
        <extensions>
          <ns3:TrackPointExtension>
            <ns3:hr>119</ns3:hr>
            <ns3:cad>0</ns3:cad>
          </ns3:TrackPointExtension>
        </extensions>
      </trkpt>
      <trkpt lat="38.021514415740966796875" lon="-106.92639187909662723541259765625">
        <ele>4198.39990234375</ele>
        <time>2026-05-25T14:40:43.000Z</time>
        <extensions>
          <ns3:TrackPointExtension>
            <ns3:hr>119</ns3:hr>
            <ns3:cad>0</ns3:cad>
          </ns3:TrackPointExtension>
        </extensions>
      </trkpt>
      <trkpt lat="38.02151366136968135833740234375" lon="-106.92637612111866474151611328125">
        <ele>4198.60009765625</ele>
        <time>2026-05-25T14:40:44.000Z</time>
        <extensions>
          <ns3:TrackPointExtension>
            <ns3:hr>119</ns3:hr>
            <ns3:cad>0</ns3:cad>
          </ns3:TrackPointExtension>
        </extensions>
      </trkpt>
      <trkpt lat="38.0215159244835376739501953125" lon="-106.92634896375238895416259765625">
        <ele>4199.39990234375</ele>
        <time>2026-05-25T14:40:49.000Z</time>
        <extensions>
          <ns3:TrackPointExtension>
            <ns3:hr>122</ns3:hr>
            <ns3:cad>0</ns3:cad>
          </ns3:TrackPointExtension>
        </extensions>
      </trkpt>
      <trkpt lat="38.0215229652822017669677734375" lon="-106.92634007893502712249755859375">
        <ele>4199.60009765625</ele>
        <time>2026-05-25T14:40:51.000Z</time>
        <extensions>
          <ns3:TrackPointExtension>
            <ns3:hr>121</ns3:hr>
            <ns3:cad>0</ns3:cad>
          </ns3:TrackPointExtension>
        </extensions>
      </trkpt>
      <trkpt lat="38.0215326882898807525634765625" lon="-106.92631132900714874267578125">
        <ele>4199.60009765625</ele>
        <time>2026-05-25T14:40:54.000Z</time>
        <extensions>
          <ns3:TrackPointExtension>
            <ns3:hr>118</ns3:hr>
            <ns3:cad>0</ns3:cad>
          </ns3:TrackPointExtension>
        </extensions>
      </trkpt>
      <trkpt lat="38.02154333330690860748291015625" lon="-106.926289536058902740478515625">
        <ele>4200.2001953125</ele>
        <time>2026-05-25T14:40:57.000Z</time>
        <extensions>
          <ns3:TrackPointExtension>
            <ns3:hr>117</ns3:hr>
            <ns3:cad>0</ns3:cad>
          </ns3:TrackPointExtension>
        </extensions>
      </trkpt>
      <trkpt lat="38.02154769189655780792236328125" lon="-106.92628324963152408599853515625">
        <ele>4200.39990234375</ele>
        <time>2026-05-25T14:40:59.000Z</time>
        <extensions>
          <ns3:TrackPointExtension>
            <ns3:hr>117</ns3:hr>
            <ns3:cad>0</ns3:cad>
          </ns3:TrackPointExtension>
        </extensions>
      </trkpt>
      <trkpt lat="38.0215692333877086639404296875" lon="-106.92625341005623340606689453125">
        <ele>4201</ele>
        <time>2026-05-25T14:41:04.000Z</time>
        <extensions>
          <ns3:TrackPointExtension>
            <ns3:hr>116</ns3:hr>
            <ns3:cad>0</ns3:cad>
          </ns3:TrackPointExtension>
        </extensions>
      </trkpt>
      <trkpt lat="38.0215927027165889739990234375" lon="-106.92622088827192783355712890625">
        <ele>4201.2001953125</ele>
        <time>2026-05-25T14:41:10.000Z</time>
        <extensions>
          <ns3:TrackPointExtension>
            <ns3:hr>114</ns3:hr>
            <ns3:cad>0</ns3:cad>
          </ns3:TrackPointExtension>
        </extensions>
      </trkpt>
      <trkpt lat="38.02160250954329967498779296875" lon="-106.92619859240949153900146484375">
        <ele>4201.60009765625</ele>
        <time>2026-05-25T14:41:13.000Z</time>
        <extensions>
          <ns3:TrackPointExtension>
            <ns3:hr>114</ns3:hr>
            <ns3:cad>0</ns3:cad>
          </ns3:TrackPointExtension>
        </extensions>
      </trkpt>
      <trkpt lat="38.0215980671346187591552734375" lon="-106.92618115805089473724365234375">
        <ele>4202.2001953125</ele>
        <time>2026-05-25T14:41:17.000Z</time>
        <extensions>
          <ns3:TrackPointExtension>
            <ns3:hr>116</ns3:hr>
            <ns3:cad>0</ns3:cad>
          </ns3:TrackPointExtension>
        </extensions>
      </trkpt>
      <trkpt lat="38.0216007493436336517333984375" lon="-106.92617721855640411376953125">
        <ele>4202.60009765625</ele>
        <time>2026-05-25T14:41:20.000Z</time>
        <extensions>
          <ns3:TrackPointExtension>
            <ns3:hr>116</ns3:hr>
            <ns3:cad>0</ns3:cad>
          </ns3:TrackPointExtension>
        </extensions>
      </trkpt>
      <trkpt lat="38.0216069519519805908203125" lon="-106.92616640590131282806396484375">
        <ele>4202.60009765625</ele>
        <time>2026-05-25T14:41:21.000Z</time>
        <extensions>
          <ns3:TrackPointExtension>
            <ns3:hr>116</ns3:hr>
            <ns3:cad>0</ns3:cad>
          </ns3:TrackPointExtension>
        </extensions>
      </trkpt>
      <trkpt lat="38.02162044681608676910400390625" lon="-106.9261338002979755401611328125">
        <ele>4203.60009765625</ele>
        <time>2026-05-25T14:41:26.000Z</time>
        <extensions>
          <ns3:TrackPointExtension>
            <ns3:hr>117</ns3:hr>
            <ns3:cad>0</ns3:cad>
          </ns3:TrackPointExtension>
        </extensions>
      </trkpt>
      <trkpt lat="38.02162639796733856201171875" lon="-106.92612466402351856231689453125">
        <ele>4203.7998046875</ele>
        <time>2026-05-25T14:41:27.000Z</time>
        <extensions>
          <ns3:TrackPointExtension>
            <ns3:hr>117</ns3:hr>
            <ns3:cad>0</ns3:cad>
          </ns3:TrackPointExtension>
        </extensions>
      </trkpt>
      <trkpt lat="38.0216292478144168853759765625" lon="-106.9260959140956401824951171875">
        <ele>4204.60009765625</ele>
        <time>2026-05-25T14:41:33.000Z</time>
        <extensions>
          <ns3:TrackPointExtension>
            <ns3:hr>120</ns3:hr>
            <ns3:cad>0</ns3:cad>
          </ns3:TrackPointExtension>
        </extensions>
      </trkpt>
      <trkpt lat="38.02163452841341495513916015625" lon="-106.92609138786792755126953125">
        <ele>4204.7998046875</ele>
        <time>2026-05-25T14:41:34.000Z</time>
        <extensions>
          <ns3:TrackPointExtension>
            <ns3:hr>120</ns3:hr>
            <ns3:cad>0</ns3:cad>
          </ns3:TrackPointExtension>
        </extensions>
      </trkpt>
      <trkpt lat="38.0216383002698421478271484375" lon="-106.92606012336909770965576171875">
        <ele>4205.60009765625</ele>
        <time>2026-05-25T14:41:39.000Z</time>
        <extensions>
          <ns3:TrackPointExtension>
            <ns3:hr>123</ns3:hr>
            <ns3:cad>0</ns3:cad>
          </ns3:TrackPointExtension>
        </extensions>
      </trkpt>
      <trkpt lat="38.02163687534630298614501953125" lon="-106.9260550104081630706787109375">
        <ele>4205.60009765625</ele>
        <time>2026-05-25T14:41:40.000Z</time>
        <extensions>
          <ns3:TrackPointExtension>
            <ns3:hr>124</ns3:hr>
            <ns3:cad>0</ns3:cad>
          </ns3:TrackPointExtension>
        </extensions>
      </trkpt>
      <trkpt lat="38.02163846790790557861328125" lon="-106.92603983916342258453369140625">
        <ele>4205.7998046875</ele>
        <time>2026-05-25T14:41:43.000Z</time>
        <extensions>
          <ns3:TrackPointExtension>
            <ns3:hr>125</ns3:hr>
            <ns3:cad>0</ns3:cad>
          </ns3:TrackPointExtension>
        </extensions>
      </trkpt>
      <trkpt lat="38.02164089865982532501220703125" lon="-106.9260308705270290374755859375">
        <ele>4206.39990234375</ele>
        <time>2026-05-25T14:41:45.000Z</time>
        <extensions>
          <ns3:TrackPointExtension>
            <ns3:hr>128</ns3:hr>
            <ns3:cad>0</ns3:cad>
          </ns3:TrackPointExtension>
        </extensions>
      </trkpt>
      <trkpt lat="38.02164408378303050994873046875" lon="-106.92602072842419147491455078125">
        <ele>4206.7998046875</ele>
        <time>2026-05-25T14:41:47.000Z</time>
        <extensions>
          <ns3:TrackPointExtension>
            <ns3:hr>129</ns3:hr>
            <ns3:cad>0</ns3:cad>
          </ns3:TrackPointExtension>
        </extensions>
      </trkpt>
      <trkpt lat="38.02164643071591854095458984375" lon="-106.926013939082622528076171875">
        <ele>4207</ele>
        <time>2026-05-25T14:41:48.000Z</time>
        <extensions>
          <ns3:TrackPointExtension>
            <ns3:hr>129</ns3:hr>
            <ns3:cad>0</ns3:cad>
          </ns3:TrackPointExtension>
        </extensions>
      </trkpt>
      <trkpt lat="38.02165078930556774139404296875" lon="-106.9259869493544101715087890625">
        <ele>4207.7998046875</ele>
        <time>2026-05-25T14:41:54.000Z</time>
        <extensions>
          <ns3:TrackPointExtension>
            <ns3:hr>131</ns3:hr>
            <ns3:cad>0</ns3:cad>
          </ns3:TrackPointExtension>
        </extensions>
      </trkpt>
      <trkpt lat="38.02165632136166095733642578125" lon="-106.9259859435260295867919921875">
        <ele>4207.7998046875</ele>
        <time>2026-05-25T14:41:55.000Z</time>
        <extensions>
          <ns3:TrackPointExtension>
            <ns3:hr>132</ns3:hr>
            <ns3:cad>0</ns3:cad>
          </ns3:TrackPointExtension>
        </extensions>
      </trkpt>
      <trkpt lat="38.02166260778903961181640625" lon="-106.9259849376976490020751953125">
        <ele>4208</ele>
        <time>2026-05-25T14:41:56.000Z</time>
        <extensions>
          <ns3:TrackPointExtension>
            <ns3:hr>131</ns3:hr>
            <ns3:cad>0</ns3:cad>
          </ns3:TrackPointExtension>
        </extensions>
      </trkpt>
      <trkpt lat="38.0216792039573192596435546875" lon="-106.9259762205183506011962890625">
        <ele>4208.7998046875</ele>
        <time>2026-05-25T14:42:01.000Z</time>
        <extensions>
          <ns3:TrackPointExtension>
            <ns3:hr>130</ns3:hr>
            <ns3:cad>0</ns3:cad>
          </ns3:TrackPointExtension>
        </extensions>
      </trkpt>
      <trkpt lat="38.02168984897434711456298828125" lon="-106.9259550981223583221435546875">
        <ele>4209.2001953125</ele>
        <time>2026-05-25T14:42:04.000Z</time>
        <extensions>
          <ns3:TrackPointExtension>
            <ns3:hr>131</ns3:hr>
            <ns3:cad>0</ns3:cad>
          </ns3:TrackPointExtension>
        </extensions>
      </trkpt>
      <trkpt lat="38.02171491086483001708984375" lon="-106.92591360770165920257568359375">
        <ele>4210</ele>
        <time>2026-05-25T14:42:09.000Z</time>
        <extensions>
          <ns3:TrackPointExtension>
            <ns3:hr>131</ns3:hr>
            <ns3:cad>0</ns3:cad>
          </ns3:TrackPointExtension>
        </extensions>
      </trkpt>
      <trkpt lat="38.02171935327351093292236328125" lon="-106.9258937425911426544189453125">
        <ele>4210.2001953125</ele>
        <time>2026-05-25T14:42:13.000Z</time>
        <extensions>
          <ns3:TrackPointExtension>
            <ns3:hr>129</ns3:hr>
            <ns3:cad>0</ns3:cad>
          </ns3:TrackPointExtension>
        </extensions>
      </trkpt>
      <trkpt lat="38.0217249691486358642578125" lon="-106.92588829435408115386962890625">
        <ele>4210.39990234375</ele>
        <time>2026-05-25T14:42:14.000Z</time>
        <extensions>
          <ns3:TrackPointExtension>
            <ns3:hr>129</ns3:hr>
            <ns3:cad>0</ns3:cad>
          </ns3:TrackPointExtension>
        </extensions>
      </trkpt>
      <trkpt lat="38.0217398889362812042236328125" lon="-106.9258776493370532989501953125">
        <ele>4211.2001953125</ele>
        <time>2026-05-25T14:42:18.000Z</time>
        <extensions>
          <ns3:TrackPointExtension>
            <ns3:hr>127</ns3:hr>
            <ns3:cad>0</ns3:cad>
          </ns3:TrackPointExtension>
        </extensions>
      </trkpt>
      <trkpt lat="38.0217408947646617889404296875" lon="-106.92587404511868953704833984375">
        <ele>4211.60009765625</ele>
        <time>2026-05-25T14:42:20.000Z</time>
        <extensions>
          <ns3:TrackPointExtension>
            <ns3:hr>126</ns3:hr>
            <ns3:cad>0</ns3:cad>
          </ns3:TrackPointExtension>
        </extensions>
      </trkpt>
      <trkpt lat="38.021747432649135589599609375" lon="-106.9258538447320461273193359375">
        <ele>4211.7998046875</ele>
        <time>2026-05-25T14:42:22.000Z</time>
        <extensions>
          <ns3:TrackPointExtension>
            <ns3:hr>123</ns3:hr>
            <ns3:cad>0</ns3:cad>
          </ns3:TrackPointExtension>
        </extensions>
      </trkpt>
      <trkpt lat="38.0217539705336093902587890625" lon="-106.92583431489765644073486328125">
        <ele>4212.39990234375</ele>
        <time>2026-05-25T14:42:27.000Z</time>
        <extensions>
          <ns3:TrackPointExtension>
            <ns3:hr>121</ns3:hr>
            <ns3:cad>0</ns3:cad>
          </ns3:TrackPointExtension>
        </extensions>
      </trkpt>
      <trkpt lat="38.02175673656165599822998046875" lon="-106.925810761749744415283203125">
        <ele>4213.39990234375</ele>
        <time>2026-05-25T14:42:32.000Z</time>
        <extensions>
          <ns3:TrackPointExtension>
            <ns3:hr>122</ns3:hr>
            <ns3:cad>0</ns3:cad>
          </ns3:TrackPointExtension>
        </extensions>
      </trkpt>
      <trkpt lat="38.02176184952259063720703125" lon="-106.92579039372503757476806640625">
        <ele>4213.7998046875</ele>
        <time>2026-05-25T14:42:35.000Z</time>
        <extensions>
          <ns3:TrackPointExtension>
            <ns3:hr>124</ns3:hr>
            <ns3:cad>0</ns3:cad>
          </ns3:TrackPointExtension>
        </extensions>
      </trkpt>
      <trkpt lat="38.02176184952259063720703125" lon="-106.92578033544123172760009765625">
        <ele>4214</ele>
        <time>2026-05-25T14:42:37.000Z</time>
        <extensions>
          <ns3:TrackPointExtension>
            <ns3:hr>127</ns3:hr>
            <ns3:cad>0</ns3:cad>
          </ns3:TrackPointExtension>
        </extensions>
      </trkpt>
      <trkpt lat="38.02176478318870067596435546875" lon="-106.925770528614521026611328125">
        <ele>4214.60009765625</ele>
        <time>2026-05-25T14:42:39.000Z</time>
        <extensions>
          <ns3:TrackPointExtension>
            <ns3:hr>126</ns3:hr>
            <ns3:cad>0</ns3:cad>
          </ns3:TrackPointExtension>
        </extensions>
      </trkpt>
      <trkpt lat="38.021770901978015899658203125" lon="-106.925755105912685394287109375">
        <ele>4215</ele>
        <time>2026-05-25T14:42:42.000Z</time>
        <extensions>
          <ns3:TrackPointExtension>
            <ns3:hr>124</ns3:hr>
            <ns3:cad>0</ns3:cad>
          </ns3:TrackPointExtension>
        </extensions>
      </trkpt>
      <trkpt lat="38.02177182398736476898193359375" lon="-106.92575150169432163238525390625">
        <ele>4215.2001953125</ele>
        <time>2026-05-25T14:42:44.000Z</time>
        <extensions>
          <ns3:TrackPointExtension>
            <ns3:hr>119</ns3:hr>
            <ns3:cad>0</ns3:cad>
          </ns3:TrackPointExtension>
        </extensions>
      </trkpt>
      <trkpt lat="38.0217801220715045928955078125" lon="-106.92574982531368732452392578125">
        <ele>4215.2001953125</ele>
        <time>2026-05-25T14:42:46.000Z</time>
        <extensions>
          <ns3:TrackPointExtension>
            <ns3:hr>116</ns3:hr>
            <ns3:cad>0</ns3:cad>
          </ns3:TrackPointExtension>
        </extensions>
      </trkpt>
      <trkpt lat="38.02178657613694667816162109375" lon="-106.9257458858191967010498046875">
        <ele>4215.60009765625</ele>
        <time>2026-05-25T14:42:48.000Z</time>
        <extensions>
          <ns3:TrackPointExtension>
            <ns3:hr>114</ns3:hr>
            <ns3:cad>0</ns3:cad>
          </ns3:TrackPointExtension>
        </extensions>
      </trkpt>
      <trkpt lat="38.02178272046148777008056640625" lon="-106.9257458858191967010498046875">
        <ele>4215.7998046875</ele>
        <time>2026-05-25T14:42:49.000Z</time>
        <extensions>
          <ns3:TrackPointExtension>
            <ns3:hr>114</ns3:hr>
            <ns3:cad>0</ns3:cad>
          </ns3:TrackPointExtension>
        </extensions>
      </trkpt>
      <trkpt lat="38.02179361693561077117919921875" lon="-106.9257150404155254364013671875">
        <ele>4216.7998046875</ele>
        <time>2026-05-25T14:42:53.000Z</time>
        <extensions>
          <ns3:TrackPointExtension>
            <ns3:hr>113</ns3:hr>
            <ns3:cad>77</ns3:cad>
          </ns3:TrackPointExtension>
        </extensions>
      </trkpt>
      <trkpt lat="38.0218012444674968719482421875" lon="-106.9256959296762943267822265625">
        <ele>4217.7998046875</ele>
        <time>2026-05-25T14:42:57.000Z</time>
        <extensions>
          <ns3:TrackPointExtension>
            <ns3:hr>112</ns3:hr>
            <ns3:cad>0</ns3:cad>
          </ns3:TrackPointExtension>
        </extensions>
      </trkpt>
      <trkpt lat="38.0218161642551422119140625" lon="-106.92569064907729625701904296875">
        <ele>4218.39990234375</ele>
        <time>2026-05-25T14:43:00.000Z</time>
        <extensions>
          <ns3:TrackPointExtension>
            <ns3:hr>112</ns3:hr>
            <ns3:cad>0</ns3:cad>
          </ns3:TrackPointExtension>
        </extensions>
      </trkpt>
      <trkpt lat="38.02185161970555782318115234375" lon="-106.92568042315542697906494140625">
        <ele>4218.39990234375</ele>
        <time>2026-05-25T14:43:05.000Z</time>
        <extensions>
          <ns3:TrackPointExtension>
            <ns3:hr>116</ns3:hr>
            <ns3:cad>51</ns3:cad>
          </ns3:TrackPointExtension>
        </extensions>
      </trkpt>
      <trkpt lat="38.02185346372425556182861328125" lon="-106.92567824386060237884521484375">
        <ele>4218.2001953125</ele>
        <time>2026-05-25T14:43:06.000Z</time>
        <extensions>
          <ns3:TrackPointExtension>
            <ns3:hr>118</ns3:hr>
            <ns3:cad>51</ns3:cad>
          </ns3:TrackPointExtension>
        </extensions>
      </trkpt>
      <trkpt lat="38.0218589119613170623779296875" lon="-106.92566600628197193145751953125">
        <ele>4218.2001953125</ele>
        <time>2026-05-25T14:43:08.000Z</time>
        <extensions>
          <ns3:TrackPointExtension>
            <ns3:hr>121</ns3:hr>
            <ns3:cad>0</ns3:cad>
          </ns3:TrackPointExtension>
        </extensions>
      </trkpt>
      <trkpt lat="38.02187039516866207122802734375" lon="-106.925644464790821075439453125">
        <ele>4218.7998046875</ele>
        <time>2026-05-25T14:43:11.000Z</time>
        <extensions>
          <ns3:TrackPointExtension>
            <ns3:hr>122</ns3:hr>
            <ns3:cad>0</ns3:cad>
          </ns3:TrackPointExtension>
        </extensions>
      </trkpt>
      <trkpt lat="38.0218753404915332794189453125" lon="-106.92563365213572978973388671875">
        <ele>4219.60009765625</ele>
        <time>2026-05-25T14:43:13.000Z</time>
        <extensions>
          <ns3:TrackPointExtension>
            <ns3:hr>121</ns3:hr>
            <ns3:cad>0</ns3:cad>
          </ns3:TrackPointExtension>
        </extensions>
      </trkpt>
      <trkpt lat="38.02188162691891193389892578125" lon="-106.9256094284355640411376953125">
        <ele>4219.7998046875</ele>
        <time>2026-05-25T14:43:18.000Z</time>
        <extensions>
          <ns3:TrackPointExtension>
            <ns3:hr>118</ns3:hr>
            <ns3:cad>0</ns3:cad>
          </ns3:TrackPointExtension>
        </extensions>
      </trkpt>
      <trkpt lat="38.0218894220888614654541015625" lon="-106.92560213617980480194091796875">
        <ele>4220</ele>
        <time>2026-05-25T14:43:19.000Z</time>
        <extensions>
          <ns3:TrackPointExtension>
            <ns3:hr>118</ns3:hr>
            <ns3:cad>0</ns3:cad>
          </ns3:TrackPointExtension>
        </extensions>
      </trkpt>
      <trkpt lat="38.02189235575497150421142578125" lon="-106.92560029216110706329345703125">
        <ele>4220</ele>
        <time>2026-05-25T14:43:20.000Z</time>
        <extensions>
          <ns3:TrackPointExtension>
            <ns3:hr>118</ns3:hr>
            <ns3:cad>0</ns3:cad>
          </ns3:TrackPointExtension>
        </extensions>
      </trkpt>
      <trkpt lat="38.02190979011356830596923828125" lon="-106.9255795888602733612060546875">
        <ele>4220.7998046875</ele>
        <time>2026-05-25T14:43:26.000Z</time>
        <extensions>
          <ns3:TrackPointExtension>
            <ns3:hr>116</ns3:hr>
            <ns3:cad>0</ns3:cad>
          </ns3:TrackPointExtension>
        </extensions>
      </trkpt>
      <trkpt lat="38.0219088681042194366455078125" lon="-106.92558134905993938446044921875">
        <ele>4221</ele>
        <time>2026-05-25T14:43:27.000Z</time>
        <extensions>
          <ns3:TrackPointExtension>
            <ns3:hr>116</ns3:hr>
            <ns3:cad>0</ns3:cad>
          </ns3:TrackPointExtension>
        </extensions>
      </trkpt>
      <trkpt lat="38.02193845622241497039794921875" lon="-106.9255688600242137908935546875">
        <ele>4221.7998046875</ele>
        <time>2026-05-25T14:43:33.000Z</time>
        <extensions>
          <ns3:TrackPointExtension>
            <ns3:hr>115</ns3:hr>
            <ns3:cad>0</ns3:cad>
          </ns3:TrackPointExtension>
        </extensions>
      </trkpt>
      <trkpt lat="38.02194449119269847869873046875" lon="-106.92555486224591732025146484375">
        <ele>4222</ele>
        <time>2026-05-25T14:43:35.000Z</time>
        <extensions>
          <ns3:TrackPointExtension>
            <ns3:hr>116</ns3:hr>
            <ns3:cad>0</ns3:cad>
          </ns3:TrackPointExtension>
        </extensions>
      </trkpt>
      <trkpt lat="38.02195630967617034912109375" lon="-106.925527788698673248291015625">
        <ele>4222.7998046875</ele>
        <time>2026-05-25T14:43:39.000Z</time>
        <extensions>
          <ns3:TrackPointExtension>
            <ns3:hr>118</ns3:hr>
            <ns3:cad>0</ns3:cad>
          </ns3:TrackPointExtension>
        </extensions>
      </trkpt>
      <trkpt lat="38.0219517834484577178955078125" lon="-106.92553491331636905670166015625">
        <ele>4223.2001953125</ele>
        <time>2026-05-25T14:43:42.000Z</time>
        <extensions>
          <ns3:TrackPointExtension>
            <ns3:hr>119</ns3:hr>
            <ns3:cad>0</ns3:cad>
          </ns3:TrackPointExtension>
        </extensions>
      </trkpt>
      <trkpt lat="38.02194985561072826385498046875" lon="-106.92552770487964153289794921875">
        <ele>4223</ele>
        <time>2026-05-25T14:43:45.000Z</time>
        <extensions>
          <ns3:TrackPointExtension>
            <ns3:hr>120</ns3:hr>
            <ns3:cad>0</ns3:cad>
          </ns3:TrackPointExtension>
        </extensions>
      </trkpt>
      <trkpt lat="38.02195069380104541778564453125" lon="-106.92552317865192890167236328125">
        <ele>4223</ele>
        <time>2026-05-25T14:43:47.000Z</time>
        <extensions>
          <ns3:TrackPointExtension>
            <ns3:hr>117</ns3:hr>
            <ns3:cad>0</ns3:cad>
          </ns3:TrackPointExtension>
        </extensions>
      </trkpt>
      <trkpt lat="38.02195538766682147979736328125" lon="-106.92551597021520137786865234375">
        <ele>4224.2001953125</ele>
        <time>2026-05-25T14:43:50.000Z</time>
        <extensions>
          <ns3:TrackPointExtension>
            <ns3:hr>115</ns3:hr>
            <ns3:cad>0</ns3:cad>
          </ns3:TrackPointExtension>
        </extensions>
      </trkpt>
      <trkpt lat="38.0219802819192409515380859375" lon="-106.925489902496337890625">
        <ele>4224.60009765625</ele>
        <time>2026-05-25T14:43:52.000Z</time>
        <extensions>
          <ns3:TrackPointExtension>
            <ns3:hr>114</ns3:hr>
            <ns3:cad>0</ns3:cad>
          </ns3:TrackPointExtension>
        </extensions>
      </trkpt>
      <trkpt lat="38.02198891527950763702392578125" lon="-106.92546165548264980316162109375">
        <ele>4225</ele>
        <time>2026-05-25T14:43:57.000Z</time>
        <extensions>
          <ns3:TrackPointExtension>
            <ns3:hr>114</ns3:hr>
            <ns3:cad>0</ns3:cad>
          </ns3:TrackPointExtension>
        </extensions>
      </trkpt>
      <trkpt lat="38.021989166736602783203125" lon="-106.925450675189495086669921875">
        <ele>4225.39990234375</ele>
        <time>2026-05-25T14:43:59.000Z</time>
        <extensions>
          <ns3:TrackPointExtension>
            <ns3:hr>114</ns3:hr>
            <ns3:cad>0</ns3:cad>
          </ns3:TrackPointExtension>
        </extensions>
      </trkpt>
      <trkpt lat="38.02199729718267917633056640625" lon="-106.9254189915955066680908203125">
        <ele>4226.39990234375</ele>
        <time>2026-05-25T14:44:04.000Z</time>
        <extensions>
          <ns3:TrackPointExtension>
            <ns3:hr>114</ns3:hr>
            <ns3:cad>0</ns3:cad>
          </ns3:TrackPointExtension>
        </extensions>
      </trkpt>
      <trkpt lat="38.02201607264578342437744140625" lon="-106.9253854639828205108642578125">
        <ele>4226.60009765625</ele>
        <time>2026-05-25T14:44:10.000Z</time>
        <extensions>
          <ns3:TrackPointExtension>
            <ns3:hr>113</ns3:hr>
            <ns3:cad>0</ns3:cad>
          </ns3:TrackPointExtension>
        </extensions>
      </trkpt>
      <trkpt lat="38.02202177233994007110595703125" lon="-106.92538856528699398040771484375">
        <ele>4227</ele>
        <time>2026-05-25T14:44:12.000Z</time>
        <extensions>
          <ns3:TrackPointExtension>
            <ns3:hr>114</ns3:hr>
            <ns3:cad>0</ns3:cad>
          </ns3:TrackPointExtension>
        </extensions>
      </trkpt>
      <trkpt lat="38.022026382386684417724609375" lon="-106.92537917755544185638427734375">
        <ele>4227.60009765625</ele>
        <time>2026-05-25T14:44:14.000Z</time>
        <extensions>
          <ns3:TrackPointExtension>
            <ns3:hr>113</ns3:hr>
            <ns3:cad>0</ns3:cad>
          </ns3:TrackPointExtension>
        </extensions>
      </trkpt>
      <trkpt lat="38.022033087909221649169921875" lon="-106.9253673590719699859619140625">
        <ele>4228</ele>
        <time>2026-05-25T14:44:16.000Z</time>
        <extensions>
          <ns3:TrackPointExtension>
            <ns3:hr>113</ns3:hr>
            <ns3:cad>0</ns3:cad>
          </ns3:TrackPointExtension>
        </extensions>
      </trkpt>
      <trkpt lat="38.0220426432788372039794921875" lon="-106.92536308430135250091552734375">
        <ele>4228.60009765625</ele>
        <time>2026-05-25T14:44:20.000Z</time>
        <extensions>
          <ns3:TrackPointExtension>
            <ns3:hr>114</ns3:hr>
            <ns3:cad>0</ns3:cad>
          </ns3:TrackPointExtension>
        </extensions>
      </trkpt>
      <trkpt lat="38.02204708568751811981201171875" lon="-106.92534715868532657623291015625">
        <ele>4229</ele>
        <time>2026-05-25T14:44:22.000Z</time>
        <extensions>
          <ns3:TrackPointExtension>
            <ns3:hr>115</ns3:hr>
            <ns3:cad>0</ns3:cad>
          </ns3:TrackPointExtension>
        </extensions>
      </trkpt>
      <trkpt lat="38.02204708568751811981201171875" lon="-106.92534715868532657623291015625">
        <ele>4229</ele>
        <time>2026-05-25T14:44:23.000Z</time>
        <extensions>
          <ns3:TrackPointExtension>
            <ns3:hr>118</ns3:hr>
            <ns3:cad>0</ns3:cad>
          </ns3:TrackPointExtension>
        </extensions>
      </trkpt>
      <trkpt lat="38.02206452004611492156982421875" lon="-106.92533995024859905242919921875">
        <ele>4229.39990234375</ele>
        <time>2026-05-25T14:44:27.000Z</time>
        <extensions>
          <ns3:TrackPointExtension>
            <ns3:hr>121</ns3:hr>
            <ns3:cad>0</ns3:cad>
          </ns3:TrackPointExtension>
        </extensions>
      </trkpt>
      <trkpt lat="38.02207700908184051513671875" lon="-106.9253356754779815673828125">
        <ele>4229.7998046875</ele>
        <time>2026-05-25T14:44:29.000Z</time>
        <extensions>
          <ns3:TrackPointExtension>
            <ns3:hr>121</ns3:hr>
            <ns3:cad>0</ns3:cad>
          </ns3:TrackPointExtension>
        </extensions>
      </trkpt>
      <trkpt lat="38.0220915935933589935302734375" lon="-106.925297789275646209716796875">
        <ele>4231</ele>
        <time>2026-05-25T14:44:34.000Z</time>
        <extensions>
          <ns3:TrackPointExtension>
            <ns3:hr>122</ns3:hr>
            <ns3:cad>0</ns3:cad>
          </ns3:TrackPointExtension>
        </extensions>
      </trkpt>
      <trkpt lat="38.0220952816307544708251953125" lon="-106.9252969510853290557861328125">
        <ele>4231.2001953125</ele>
        <time>2026-05-25T14:44:35.000Z</time>
        <extensions>
          <ns3:TrackPointExtension>
            <ns3:hr>122</ns3:hr>
            <ns3:cad>0</ns3:cad>
          </ns3:TrackPointExtension>
        </extensions>
      </trkpt>
      <trkpt lat="38.02210114896297454833984375" lon="-106.925266273319721221923828125">
        <ele>4231.2001953125</ele>
        <time>2026-05-25T14:44:41.000Z</time>
        <extensions>
          <ns3:TrackPointExtension>
            <ns3:hr>120</ns3:hr>
            <ns3:cad>0</ns3:cad>
          </ns3:TrackPointExtension>
        </extensions>
      </trkpt>
      <trkpt lat="38.02210844121873378753662109375" lon="-106.92525898106396198272705078125">
        <ele>4231.39990234375</ele>
        <time>2026-05-25T14:44:43.000Z</time>
        <extensions>
          <ns3:TrackPointExtension>
            <ns3:hr>120</ns3:hr>
            <ns3:cad>0</ns3:cad>
          </ns3:TrackPointExtension>
        </extensions>
      </trkpt>
      <trkpt lat="38.02211615256965160369873046875" lon="-106.9252423010766506195068359375">
        <ele>4232.2001953125</ele>
        <time>2026-05-25T14:44:46.000Z</time>
        <extensions>
          <ns3:TrackPointExtension>
            <ns3:hr>119</ns3:hr>
            <ns3:cad>0</ns3:cad>
          </ns3:TrackPointExtension>
        </extensions>
      </trkpt>
      <trkpt lat="38.02213090471923351287841796875" lon="-106.92522528581321239471435546875">
        <ele>4232.7998046875</ele>
        <time>2026-05-25T14:44:50.000Z</time>
        <extensions>
          <ns3:TrackPointExtension>
            <ns3:hr>118</ns3:hr>
            <ns3:cad>0</ns3:cad>
          </ns3:TrackPointExtension>
        </extensions>
      </trkpt>
      <trkpt lat="38.0221388675272464752197265625" lon="-106.9252195023000240325927734375">
        <ele>4233.2001953125</ele>
        <time>2026-05-25T14:44:52.000Z</time>
        <extensions>
          <ns3:TrackPointExtension>
            <ns3:hr>118</ns3:hr>
            <ns3:cad>0</ns3:cad>
          </ns3:TrackPointExtension>
        </extensions>
      </trkpt>
      <trkpt lat="38.02215940319001674652099609375" lon="-106.92519544623792171478271484375">
        <ele>4234</ele>
        <time>2026-05-25T14:44:57.000Z</time>
        <extensions>
          <ns3:TrackPointExtension>
            <ns3:hr>118</ns3:hr>
            <ns3:cad>0</ns3:cad>
          </ns3:TrackPointExtension>
        </extensions>
      </trkpt>
      <trkpt lat="38.0221599899232387542724609375" lon="-106.92519511096179485321044921875">
        <ele>4234.39990234375</ele>
        <time>2026-05-25T14:44:58.000Z</time>
        <extensions>
          <ns3:TrackPointExtension>
            <ns3:hr>119</ns3:hr>
            <ns3:cad>0</ns3:cad>
          </ns3:TrackPointExtension>
        </extensions>
      </trkpt>
      <trkpt lat="38.02217013202607631683349609375" lon="-106.92516007460653781890869140625">
        <ele>4235</ele>
        <time>2026-05-25T14:45:02.000Z</time>
        <extensions>
          <ns3:TrackPointExtension>
            <ns3:hr>120</ns3:hr>
            <ns3:cad>0</ns3:cad>
          </ns3:TrackPointExtension>
        </extensions>
      </trkpt>
      <trkpt lat="38.02216325886547565460205078125" lon="-106.92515672184526920318603515625">
        <ele>4234.60009765625</ele>
        <time>2026-05-25T14:45:07.000Z</time>
        <extensions>
          <ns3:TrackPointExtension>
            <ns3:hr>120</ns3:hr>
            <ns3:cad>0</ns3:cad>
          </ns3:TrackPointExtension>
        </extensions>
      </trkpt>
      <trkpt lat="38.02217532880604267120361328125" lon="-106.9251400418579578399658203125">
        <ele>4235.39990234375</ele>
        <time>2026-05-25T14:45:12.000Z</time>
        <extensions>
          <ns3:TrackPointExtension>
            <ns3:hr>119</ns3:hr>
            <ns3:cad>0</ns3:cad>
          </ns3:TrackPointExtension>
        </extensions>
      </trkpt>
      <trkpt lat="38.0221848003566265106201171875" lon="-106.92513786256313323974609375">
        <ele>4235.7998046875</ele>
        <time>2026-05-25T14:45:14.000Z</time>
        <extensions>
          <ns3:TrackPointExtension>
            <ns3:hr>120</ns3:hr>
            <ns3:cad>0</ns3:cad>
          </ns3:TrackPointExtension>
        </extensions>
      </trkpt>
      <trkpt lat="38.022204749286174774169921875" lon="-106.92511506378650665283203125">
        <ele>4236.39990234375</ele>
        <time>2026-05-25T14:45:17.000Z</time>
        <extensions>
          <ns3:TrackPointExtension>
            <ns3:hr>121</ns3:hr>
            <ns3:cad>0</ns3:cad>
          </ns3:TrackPointExtension>
        </extensions>
      </trkpt>
      <trkpt lat="38.02220215089619159698486328125" lon="-106.9251091964542865753173828125">
        <ele>4236.60009765625</ele>
        <time>2026-05-25T14:45:18.000Z</time>
        <extensions>
          <ns3:TrackPointExtension>
            <ns3:hr>122</ns3:hr>
            <ns3:cad>0</ns3:cad>
          </ns3:TrackPointExtension>
        </extensions>
      </trkpt>
      <trkpt lat="38.0222159810364246368408203125" lon="-106.92509620450437068939208984375">
        <ele>4237.2001953125</ele>
        <time>2026-05-25T14:45:21.000Z</time>
        <extensions>
          <ns3:TrackPointExtension>
            <ns3:hr>123</ns3:hr>
            <ns3:cad>0</ns3:cad>
          </ns3:TrackPointExtension>
        </extensions>
      </trkpt>
      <trkpt lat="38.022225201129913330078125" lon="-106.9250770099461078643798828125">
        <ele>4237.7998046875</ele>
        <time>2026-05-25T14:45:24.000Z</time>
        <extensions>
          <ns3:TrackPointExtension>
            <ns3:hr>122</ns3:hr>
            <ns3:cad>0</ns3:cad>
          </ns3:TrackPointExtension>
        </extensions>
      </trkpt>
      <trkpt lat="38.022233583033084869384765625" lon="-106.9250568933784961700439453125">
        <ele>4237.7998046875</ele>
        <time>2026-05-25T14:45:27.000Z</time>
        <extensions>
          <ns3:TrackPointExtension>
            <ns3:hr>119</ns3:hr>
            <ns3:cad>0</ns3:cad>
          </ns3:TrackPointExtension>
        </extensions>
      </trkpt>
      <trkpt lat="38.02225529216229915618896484375" lon="-106.9250190071761608123779296875">
        <ele>4238.7998046875</ele>
        <time>2026-05-25T14:45:33.000Z</time>
        <extensions>
          <ns3:TrackPointExtension>
            <ns3:hr>121</ns3:hr>
            <ns3:cad>0</ns3:cad>
          </ns3:TrackPointExtension>
        </extensions>
      </trkpt>
      <trkpt lat="38.02225545980036258697509765625" lon="-106.92501422949135303497314453125">
        <ele>4238.7998046875</ele>
        <time>2026-05-25T14:45:34.000Z</time>
        <extensions>
          <ns3:TrackPointExtension>
            <ns3:hr>121</ns3:hr>
            <ns3:cad>65</ns3:cad>
          </ns3:TrackPointExtension>
        </extensions>
      </trkpt>
      <trkpt lat="38.0222679488360881805419921875" lon="-106.92497785203158855438232421875">
        <ele>4239.7998046875</ele>
        <time>2026-05-25T14:45:39.000Z</time>
        <extensions>
          <ns3:TrackPointExtension>
            <ns3:hr>123</ns3:hr>
            <ns3:cad>0</ns3:cad>
          </ns3:TrackPointExtension>
        </extensions>
      </trkpt>
      <trkpt lat="38.0222679488360881805419921875" lon="-106.92496645264327526092529296875">
        <ele>4239.7998046875</ele>
        <time>2026-05-25T14:45:40.000Z</time>
        <extensions>
          <ns3:TrackPointExtension>
            <ns3:hr>124</ns3:hr>
            <ns3:cad>0</ns3:cad>
          </ns3:TrackPointExtension>
        </extensions>
      </trkpt>
      <trkpt lat="38.02225210703909397125244140625" lon="-106.92494809627532958984375">
        <ele>4240</ele>
        <time>2026-05-25T14:45:44.000Z</time>
        <extensions>
          <ns3:TrackPointExtension>
            <ns3:hr>125</ns3:hr>
            <ns3:cad>0</ns3:cad>
          </ns3:TrackPointExtension>
        </extensions>
      </trkpt>
      <trkpt lat="38.02224305458366870880126953125" lon="-106.9249281473457813262939453125">
        <ele>4240.7998046875</ele>
        <time>2026-05-25T14:45:48.000Z</time>
        <extensions>
          <ns3:TrackPointExtension>
            <ns3:hr>126</ns3:hr>
            <ns3:cad>77</ns3:cad>
          </ns3:TrackPointExtension>
        </extensions>
      </trkpt>
      <trkpt lat="38.02224196493625640869140625" lon="-106.92490576766431331634521484375">
        <ele>4241.39990234375</ele>
        <time>2026-05-25T14:45:51.000Z</time>
        <extensions>
          <ns3:TrackPointExtension>
            <ns3:hr>126</ns3:hr>
            <ns3:cad>0</ns3:cad>
          </ns3:TrackPointExtension>
        </extensions>
      </trkpt>
      <trkpt lat="38.0222474969923496246337890625" lon="-106.924898810684680938720703125">
        <ele>4242</ele>
        <time>2026-05-25T14:45:54.000Z</time>
        <extensions>
          <ns3:TrackPointExtension>
            <ns3:hr>125</ns3:hr>
            <ns3:cad>0</ns3:cad>
          </ns3:TrackPointExtension>
        </extensions>
      </trkpt>
      <trkpt lat="38.02226669155061244964599609375" lon="-106.92488548345863819122314453125">
        <ele>4243.2001953125</ele>
        <time>2026-05-25T14:45:58.000Z</time>
        <extensions>
          <ns3:TrackPointExtension>
            <ns3:hr>124</ns3:hr>
            <ns3:cad>0</ns3:cad>
          </ns3:TrackPointExtension>
        </extensions>
      </trkpt>
      <trkpt lat="38.02227976731956005096435546875" lon="-106.92487500607967376708984375">
        <ele>4243.39990234375</ele>
        <time>2026-05-25T14:46:02.000Z</time>
        <extensions>
          <ns3:TrackPointExtension>
            <ns3:hr>121</ns3:hr>
            <ns3:cad>0</ns3:cad>
          </ns3:TrackPointExtension>
        </extensions>
      </trkpt>
      <trkpt lat="38.02228429354727268218994140625" lon="-106.924869306385517120361328125">
        <ele>4243.60009765625</ele>
        <time>2026-05-25T14:46:05.000Z</time>
        <extensions>
          <ns3:TrackPointExtension>
            <ns3:hr>122</ns3:hr>
            <ns3:cad>0</ns3:cad>
          </ns3:TrackPointExtension>
        </extensions>
      </trkpt>
      <trkpt lat="38.02230843342840671539306640625" lon="-106.92484877072274684906005859375">
        <ele>4244.2001953125</ele>
        <time>2026-05-25T14:46:08.000Z</time>
        <extensions>
          <ns3:TrackPointExtension>
            <ns3:hr>122</ns3:hr>
            <ns3:cad>0</ns3:cad>
          </ns3:TrackPointExtension>
        </extensions>
      </trkpt>
      <trkpt lat="38.0223252810537815093994140625" lon="-106.92483753897249698638916015625">
        <ele>4244.7998046875</ele>
        <time>2026-05-25T14:46:11.000Z</time>
        <extensions>
          <ns3:TrackPointExtension>
            <ns3:hr>121</ns3:hr>
            <ns3:cad>0</ns3:cad>
          </ns3:TrackPointExtension>
        </extensions>
      </trkpt>
      <trkpt lat="38.022332489490509033203125" lon="-106.92480317316949367523193359375">
        <ele>4244.39990234375</ele>
        <time>2026-05-25T14:46:17.000Z</time>
        <extensions>
          <ns3:TrackPointExtension>
            <ns3:hr>119</ns3:hr>
            <ns3:cad>0</ns3:cad>
          </ns3:TrackPointExtension>
        </extensions>
      </trkpt>
      <trkpt lat="38.0223346687853336334228515625" lon="-106.924801580607891082763671875">
        <ele>4244.60009765625</ele>
        <time>2026-05-25T14:46:20.000Z</time>
        <extensions>
          <ns3:TrackPointExtension>
            <ns3:hr>124</ns3:hr>
            <ns3:cad>0</ns3:cad>
          </ns3:TrackPointExtension>
        </extensions>
      </trkpt>
      <trkpt lat="38.02233542315661907196044921875" lon="-106.92479789257049560546875">
        <ele>4244.60009765625</ele>
        <time>2026-05-25T14:46:21.000Z</time>
        <extensions>
          <ns3:TrackPointExtension>
            <ns3:hr>124</ns3:hr>
            <ns3:cad>0</ns3:cad>
          </ns3:TrackPointExtension>
        </extensions>
      </trkpt>
      <trkpt lat="38.022338859736919403076171875" lon="-106.92478573881089687347412109375">
        <ele>4245</ele>
        <time>2026-05-25T14:46:24.000Z</time>
        <extensions>
          <ns3:TrackPointExtension>
            <ns3:hr>124</ns3:hr>
            <ns3:cad>0</ns3:cad>
          </ns3:TrackPointExtension>
        </extensions>
      </trkpt>
      <trkpt lat="38.02233743481338024139404296875" lon="-106.9247772730886936187744140625">
        <ele>4245.39990234375</ele>
        <time>2026-05-25T14:46:25.000Z</time>
        <extensions>
          <ns3:TrackPointExtension>
            <ns3:hr>123</ns3:hr>
            <ns3:cad>0</ns3:cad>
          </ns3:TrackPointExtension>
        </extensions>
      </trkpt>
      <trkpt lat="38.02234313450753688812255859375" lon="-106.92473645322024822235107421875">
        <ele>4246.2001953125</ele>
        <time>2026-05-25T14:46:30.000Z</time>
        <extensions>
          <ns3:TrackPointExtension>
            <ns3:hr>124</ns3:hr>
            <ns3:cad>0</ns3:cad>
          </ns3:TrackPointExtension>
        </extensions>
      </trkpt>
      <trkpt lat="38.02234229631721973419189453125" lon="-106.924727149307727813720703125">
        <ele>4246.39990234375</ele>
        <time>2026-05-25T14:46:31.000Z</time>
        <extensions>
          <ns3:TrackPointExtension>
            <ns3:hr>123</ns3:hr>
            <ns3:cad>0</ns3:cad>
          </ns3:TrackPointExtension>
        </extensions>
      </trkpt>
      <trkpt lat="38.02235604263842105865478515625" lon="-106.9247152470052242279052734375">
        <ele>4247.60009765625</ele>
        <time>2026-05-25T14:46:36.000Z</time>
        <extensions>
          <ns3:TrackPointExtension>
            <ns3:hr>123</ns3:hr>
            <ns3:cad>0</ns3:cad>
          </ns3:TrackPointExtension>
        </extensions>
      </trkpt>
      <trkpt lat="38.02236878313124179840087890625" lon="-106.9246968068182468414306640625">
        <ele>4248.2001953125</ele>
        <time>2026-05-25T14:46:42.000Z</time>
        <extensions>
          <ns3:TrackPointExtension>
            <ns3:hr>124</ns3:hr>
            <ns3:cad>0</ns3:cad>
          </ns3:TrackPointExtension>
        </extensions>
      </trkpt>
      <trkpt lat="38.022371046245098114013671875" lon="-106.9246981479227542877197265625">
        <ele>4248.60009765625</ele>
        <time>2026-05-25T14:46:45.000Z</time>
        <extensions>
          <ns3:TrackPointExtension>
            <ns3:hr>122</ns3:hr>
            <ns3:cad>0</ns3:cad>
          </ns3:TrackPointExtension>
        </extensions>
      </trkpt>
      <trkpt lat="38.0223889835178852081298828125" lon="-106.92468398250639438629150390625">
        <ele>4248.7998046875</ele>
        <time>2026-05-25T14:46:49.000Z</time>
        <extensions>
          <ns3:TrackPointExtension>
            <ns3:hr>120</ns3:hr>
            <ns3:cad>0</ns3:cad>
          </ns3:TrackPointExtension>
        </extensions>
      </trkpt>
      <trkpt lat="38.022408597171306610107421875" lon="-106.92466755397617816925048828125">
        <ele>4249</ele>
        <time>2026-05-25T14:46:53.000Z</time>
        <extensions>
          <ns3:TrackPointExtension>
            <ns3:hr>123</ns3:hr>
            <ns3:cad>0</ns3:cad>
          </ns3:TrackPointExtension>
        </extensions>
      </trkpt>
      <trkpt lat="38.02241538651287555694580078125" lon="-106.92465774714946746826171875">
        <ele>4249.39990234375</ele>
        <time>2026-05-25T14:46:55.000Z</time>
        <extensions>
          <ns3:TrackPointExtension>
            <ns3:hr>126</ns3:hr>
            <ns3:cad>0</ns3:cad>
          </ns3:TrackPointExtension>
        </extensions>
      </trkpt>
      <trkpt lat="38.02241538651287555694580078125" lon="-106.92465774714946746826171875">
        <ele>4249.39990234375</ele>
        <time>2026-05-25T14:46:56.000Z</time>
        <extensions>
          <ns3:TrackPointExtension>
            <ns3:hr>125</ns3:hr>
            <ns3:cad>0</ns3:cad>
          </ns3:TrackPointExtension>
        </extensions>
      </trkpt>
      <trkpt lat="38.02242527715861797332763671875" lon="-106.9246471859514713287353515625">
        <ele>4249.7998046875</ele>
        <time>2026-05-25T14:46:58.000Z</time>
        <extensions>
          <ns3:TrackPointExtension>
            <ns3:hr>125</ns3:hr>
            <ns3:cad>0</ns3:cad>
          </ns3:TrackPointExtension>
        </extensions>
      </trkpt>
      <trkpt lat="38.02243064157664775848388671875" lon="-106.92460938356816768646240234375">
        <ele>4251</ele>
        <time>2026-05-25T14:47:03.000Z</time>
        <extensions>
          <ns3:TrackPointExtension>
            <ns3:hr>125</ns3:hr>
            <ns3:cad>0</ns3:cad>
          </ns3:TrackPointExtension>
        </extensions>
      </trkpt>
      <trkpt lat="38.02242971956729888916015625" lon="-106.92459982819855213165283203125">
        <ele>4251.2001953125</ele>
        <time>2026-05-25T14:47:04.000Z</time>
        <extensions>
          <ns3:TrackPointExtension>
            <ns3:hr>124</ns3:hr>
            <ns3:cad>0</ns3:cad>
          </ns3:TrackPointExtension>
        </extensions>
      </trkpt>
      <trkpt lat="38.02243181504309177398681640625" lon="-106.9245834834873676300048828125">
        <ele>4251.60009765625</ele>
        <time>2026-05-25T14:47:09.000Z</time>
        <extensions>
          <ns3:TrackPointExtension>
            <ns3:hr>123</ns3:hr>
            <ns3:cad>0</ns3:cad>
          </ns3:TrackPointExtension>
        </extensions>
      </trkpt>
      <trkpt lat="38.0224478244781494140625" lon="-106.9245717488229274749755859375">
        <ele>4252</ele>
        <time>2026-05-25T14:47:11.000Z</time>
        <extensions>
          <ns3:TrackPointExtension>
            <ns3:hr>122</ns3:hr>
            <ns3:cad>0</ns3:cad>
          </ns3:TrackPointExtension>
        </extensions>
      </trkpt>
      <trkpt lat="38.0224476568400859832763671875" lon="-106.92454752512276172637939453125">
        <ele>4252.2001953125</ele>
        <time>2026-05-25T14:47:15.000Z</time>
        <extensions>
          <ns3:TrackPointExtension>
            <ns3:hr>121</ns3:hr>
            <ns3:cad>0</ns3:cad>
          </ns3:TrackPointExtension>
        </extensions>
      </trkpt>
      <trkpt lat="38.02245260216295719146728515625" lon="-106.92452774383127689361572265625">
        <ele>4253.2001953125</ele>
        <time>2026-05-25T14:47:20.000Z</time>
        <extensions>
          <ns3:TrackPointExtension>
            <ns3:hr>119</ns3:hr>
            <ns3:cad>0</ns3:cad>
          </ns3:TrackPointExtension>
        </extensions>
      </trkpt>
      <trkpt lat="38.02245981059968471527099609375" lon="-106.924517937004566192626953125">
        <ele>4253.7998046875</ele>
        <time>2026-05-25T14:47:23.000Z</time>
        <extensions>
          <ns3:TrackPointExtension>
            <ns3:hr>119</ns3:hr>
            <ns3:cad>0</ns3:cad>
          </ns3:TrackPointExtension>
        </extensions>
      </trkpt>
      <trkpt lat="38.02246601320803165435791015625" lon="-106.92449069581925868988037109375">
        <ele>4254</ele>
        <time>2026-05-25T14:47:29.000Z</time>
        <extensions>
          <ns3:TrackPointExtension>
            <ns3:hr>122</ns3:hr>
            <ns3:cad>0</ns3:cad>
          </ns3:TrackPointExtension>
        </extensions>
      </trkpt>
      <trkpt lat="38.02246433682739734649658203125" lon="-106.9244875945150852203369140625">
        <ele>4254.2001953125</ele>
        <time>2026-05-25T14:47:31.000Z</time>
        <extensions>
          <ns3:TrackPointExtension>
            <ns3:hr>122</ns3:hr>
            <ns3:cad>0</ns3:cad>
          </ns3:TrackPointExtension>
        </extensions>
      </trkpt>
      <trkpt lat="38.0224563740193843841552734375" lon="-106.92447326146066188812255859375">
        <ele>4254.39990234375</ele>
        <time>2026-05-25T14:47:37.000Z</time>
        <extensions>
          <ns3:TrackPointExtension>
            <ns3:hr>122</ns3:hr>
            <ns3:cad>0</ns3:cad>
          </ns3:TrackPointExtension>
        </extensions>
      </trkpt>
      <trkpt lat="38.0224563740193843841552734375" lon="-106.92447326146066188812255859375">
        <ele>4254.39990234375</ele>
        <time>2026-05-25T14:47:39.000Z</time>
        <extensions>
          <ns3:TrackPointExtension>
            <ns3:hr>123</ns3:hr>
            <ns3:cad>0</ns3:cad>
          </ns3:TrackPointExtension>
        </extensions>
      </trkpt>
      <trkpt lat="38.0224563740193843841552734375" lon="-106.92447326146066188812255859375">
        <ele>4254</ele>
        <time>2026-05-25T14:47:45.000Z</time>
        <extensions>
          <ns3:TrackPointExtension>
            <ns3:hr>123</ns3:hr>
            <ns3:cad>0</ns3:cad>
          </ns3:TrackPointExtension>
        </extensions>
      </trkpt>
      <trkpt lat="38.0224563740193843841552734375" lon="-106.92447326146066188812255859375">
        <ele>4254</ele>
        <time>2026-05-25T14:47:47.000Z</time>
        <extensions>
          <ns3:TrackPointExtension>
            <ns3:hr>123</ns3:hr>
            <ns3:cad>0</ns3:cad>
          </ns3:TrackPointExtension>
        </extensions>
      </trkpt>
      <trkpt lat="38.022470958530902862548828125" lon="-106.92447929643094539642333984375">
        <ele>4253.7998046875</ele>
        <time>2026-05-25T14:47:53.000Z</time>
        <extensions>
          <ns3:TrackPointExtension>
            <ns3:hr>121</ns3:hr>
            <ns3:cad>0</ns3:cad>
          </ns3:TrackPointExtension>
        </extensions>
      </trkpt>
      <trkpt lat="38.022482357919216156005859375" lon="-106.92447359673678874969482421875">
        <ele>4254</ele>
        <time>2026-05-25T14:47:55.000Z</time>
        <extensions>
          <ns3:TrackPointExtension>
            <ns3:hr>120</ns3:hr>
            <ns3:cad>0</ns3:cad>
          </ns3:TrackPointExtension>
        </extensions>
      </trkpt>
      <trkpt lat="38.0225120298564434051513671875" lon="-106.9244362972676753997802734375">
        <ele>4254.39990234375</ele>
        <time>2026-05-25T14:48:00.000Z</time>
        <extensions>
          <ns3:TrackPointExtension>
            <ns3:hr>117</ns3:hr>
            <ns3:cad>0</ns3:cad>
          </ns3:TrackPointExtension>
        </extensions>
      </trkpt>
      <trkpt lat="38.02251689136028289794921875" lon="-106.92442900501191616058349609375">
        <ele>4254.60009765625</ele>
        <time>2026-05-25T14:48:01.000Z</time>
        <extensions>
          <ns3:TrackPointExtension>
            <ns3:hr>118</ns3:hr>
            <ns3:cad>0</ns3:cad>
          </ns3:TrackPointExtension>
        </extensions>
      </trkpt>
      <trkpt lat="38.02253172732889652252197265625" lon="-106.92439782433211803436279296875">
        <ele>4255.2001953125</ele>
        <time>2026-05-25T14:48:06.000Z</time>
        <extensions>
          <ns3:TrackPointExtension>
            <ns3:hr>120</ns3:hr>
            <ns3:cad>0</ns3:cad>
          </ns3:TrackPointExtension>
        </extensions>
      </trkpt>
      <trkpt lat="38.022551424801349639892578125" lon="-106.92438441328704357147216796875">
        <ele>4255.2001953125</ele>
        <time>2026-05-25T14:48:09.000Z</time>
        <extensions>
          <ns3:TrackPointExtension>
            <ns3:hr>120</ns3:hr>
            <ns3:cad>0</ns3:cad>
          </ns3:TrackPointExtension>
        </extensions>
      </trkpt>
      <trkpt lat="38.022577576339244842529296875" lon="-106.92434250377118587493896484375">
        <ele>4256</ele>
        <time>2026-05-25T14:48:15.000Z</time>
        <extensions>
          <ns3:TrackPointExtension>
            <ns3:hr>120</ns3:hr>
            <ns3:cad>0</ns3:cad>
          </ns3:TrackPointExtension>
        </extensions>
      </trkpt>
      <trkpt lat="38.02259911783039569854736328125" lon="-106.92433026619255542755126953125">
        <ele>4256.39990234375</ele>
        <time>2026-05-25T14:48:18.000Z</time>
        <extensions>
          <ns3:TrackPointExtension>
            <ns3:hr>119</ns3:hr>
            <ns3:cad>0</ns3:cad>
          </ns3:TrackPointExtension>
        </extensions>
      </trkpt>
      <trkpt lat="38.022609762847423553466796875" lon="-106.92432456649839878082275390625">
        <ele>4256.60009765625</ele>
        <time>2026-05-25T14:48:19.000Z</time>
        <extensions>
          <ns3:TrackPointExtension>
            <ns3:hr>119</ns3:hr>
            <ns3:cad>0</ns3:cad>
          </ns3:TrackPointExtension>
        </extensions>
      </trkpt>
      <trkpt lat="38.02265225909650325775146484375" lon="-106.92429564893245697021484375">
        <ele>4255.60009765625</ele>
        <time>2026-05-25T14:48:25.000Z</time>
        <extensions>
          <ns3:TrackPointExtension>
            <ns3:hr>119</ns3:hr>
            <ns3:cad>0</ns3:cad>
          </ns3:TrackPointExtension>
        </extensions>
      </trkpt>
      <trkpt lat="38.0226575396955013275146484375" lon="-106.92428701557219028472900390625">
        <ele>4255.39990234375</ele>
        <time>2026-05-25T14:48:26.000Z</time>
        <extensions>
          <ns3:TrackPointExtension>
            <ns3:hr>119</ns3:hr>
            <ns3:cad>0</ns3:cad>
          </ns3:TrackPointExtension>
        </extensions>
      </trkpt>
      <trkpt lat="38.02266298793256282806396484375" lon="-106.9242760352790355682373046875">
        <ele>4255.39990234375</ele>
        <time>2026-05-25T14:48:27.000Z</time>
        <extensions>
          <ns3:TrackPointExtension>
            <ns3:hr>119</ns3:hr>
            <ns3:cad>0</ns3:cad>
          </ns3:TrackPointExtension>
        </extensions>
      </trkpt>
      <trkpt lat="38.02270908840000629425048828125" lon="-106.9242247380316257476806640625">
        <ele>4256.2001953125</ele>
        <time>2026-05-25T14:48:33.000Z</time>
        <extensions>
          <ns3:TrackPointExtension>
            <ns3:hr>119</ns3:hr>
            <ns3:cad>49</ns3:cad>
          </ns3:TrackPointExtension>
        </extensions>
      </trkpt>
      <trkpt lat="38.0227494053542613983154296875" lon="-106.9241761229932308197021484375">
        <ele>4255.7998046875</ele>
        <time>2026-05-25T14:48:39.000Z</time>
        <extensions>
          <ns3:TrackPointExtension>
            <ns3:hr>117</ns3:hr>
            <ns3:cad>52</ns3:cad>
          </ns3:TrackPointExtension>
        </extensions>
      </trkpt>
      <trkpt lat="38.0227621458470821380615234375" lon="-106.92414821125566959381103515625">
        <ele>4255.60009765625</ele>
        <time>2026-05-25T14:48:40.000Z</time>
        <extensions>
          <ns3:TrackPointExtension>
            <ns3:hr>116</ns3:hr>
            <ns3:cad>52</ns3:cad>
          </ns3:TrackPointExtension>
        </extensions>
      </trkpt>
      <trkpt lat="38.022799529135227203369140625" lon="-106.9240919686853885650634765625">
        <ele>4254.7998046875</ele>
        <time>2026-05-25T14:48:46.000Z</time>
        <extensions>
          <ns3:TrackPointExtension>
            <ns3:hr>117</ns3:hr>
            <ns3:cad>0</ns3:cad>
          </ns3:TrackPointExtension>
        </extensions>
      </trkpt>
      <trkpt lat="38.02280791103839874267578125" lon="-106.9240832515060901641845703125">
        <ele>4254.7998046875</ele>
        <time>2026-05-25T14:48:47.000Z</time>
        <extensions>
          <ns3:TrackPointExtension>
            <ns3:hr>117</ns3:hr>
            <ns3:cad>0</ns3:cad>
          </ns3:TrackPointExtension>
        </extensions>
      </trkpt>
      <trkpt lat="38.02284353412687778472900390625" lon="-106.92402164451777935028076171875">
        <ele>4255.2001953125</ele>
        <time>2026-05-25T14:48:53.000Z</time>
        <extensions>
          <ns3:TrackPointExtension>
            <ns3:hr>119</ns3:hr>
            <ns3:cad>0</ns3:cad>
          </ns3:TrackPointExtension>
        </extensions>
      </trkpt>
      <trkpt lat="38.02285023964941501617431640625" lon="-106.92400538362562656402587890625">
        <ele>4255.2001953125</ele>
        <time>2026-05-25T14:48:54.000Z</time>
        <extensions>
          <ns3:TrackPointExtension>
            <ns3:hr>119</ns3:hr>
            <ns3:cad>0</ns3:cad>
          </ns3:TrackPointExtension>
        </extensions>
      </trkpt>
      <trkpt lat="38.0228917300701141357421875" lon="-106.923949979245662689208984375">
        <ele>4255.2001953125</ele>
        <time>2026-05-25T14:49:00.000Z</time>
        <extensions>
          <ns3:TrackPointExtension>
            <ns3:hr>118</ns3:hr>
            <ns3:cad>44</ns3:cad>
          </ns3:TrackPointExtension>
        </extensions>
      </trkpt>
      <trkpt lat="38.02292215637862682342529296875" lon="-106.92389423958957195281982421875">
        <ele>4256.2001953125</ele>
        <time>2026-05-25T14:49:06.000Z</time>
        <extensions>
          <ns3:TrackPointExtension>
            <ns3:hr>117</ns3:hr>
            <ns3:cad>49</ns3:cad>
          </ns3:TrackPointExtension>
        </extensions>
      </trkpt>
      <trkpt lat="38.0229254253208637237548828125" lon="-106.92388770170509815216064453125">
        <ele>4256.39990234375</ele>
        <time>2026-05-25T14:49:07.000Z</time>
        <extensions>
          <ns3:TrackPointExtension>
            <ns3:hr>118</ns3:hr>
            <ns3:cad>49</ns3:cad>
          </ns3:TrackPointExtension>
        </extensions>
      </trkpt>
      <trkpt lat="38.0229495652019977569580078125" lon="-106.9238586165010929107666015625">
        <ele>4257.2001953125</ele>
        <time>2026-05-25T14:49:11.000Z</time>
        <extensions>
          <ns3:TrackPointExtension>
            <ns3:hr>115</ns3:hr>
            <ns3:cad>0</ns3:cad>
          </ns3:TrackPointExtension>
        </extensions>
      </trkpt>
      <trkpt lat="38.0229495652019977569580078125" lon="-106.9238586165010929107666015625">
        <ele>4257.60009765625</ele>
        <time>2026-05-25T14:49:12.000Z</time>
        <extensions>
          <ns3:TrackPointExtension>
            <ns3:hr>115</ns3:hr>
            <ns3:cad>0</ns3:cad>
          </ns3:TrackPointExtension>
        </extensions>
      </trkpt>
      <trkpt lat="38.022955767810344696044921875" lon="-106.92385434173047542572021484375">
        <ele>4258</ele>
        <time>2026-05-25T14:49:13.000Z</time>
        <extensions>
          <ns3:TrackPointExtension>
            <ns3:hr>115</ns3:hr>
            <ns3:cad>0</ns3:cad>
          </ns3:TrackPointExtension>
        </extensions>
      </trkpt>
      <trkpt lat="38.02298937924206256866455078125" lon="-106.92383321933448314666748046875">
        <ele>4258.60009765625</ele>
        <time>2026-05-25T14:49:16.000Z</time>
        <extensions>
          <ns3:TrackPointExtension>
            <ns3:hr>116</ns3:hr>
            <ns3:cad>0</ns3:cad>
          </ns3:TrackPointExtension>
        </extensions>
      </trkpt>
      <trkpt lat="38.0230105854570865631103515625" lon="-106.92379918880760669708251953125">
        <ele>4259.60009765625</ele>
        <time>2026-05-25T14:49:19.000Z</time>
        <extensions>
          <ns3:TrackPointExtension>
            <ns3:hr>116</ns3:hr>
            <ns3:cad>0</ns3:cad>
          </ns3:TrackPointExtension>
        </extensions>
      </trkpt>
      <trkpt lat="38.0230105854570865631103515625" lon="-106.92379918880760669708251953125">
        <ele>4259.7998046875</ele>
        <time>2026-05-25T14:49:20.000Z</time>
        <extensions>
          <ns3:TrackPointExtension>
            <ns3:hr>116</ns3:hr>
            <ns3:cad>43</ns3:cad>
          </ns3:TrackPointExtension>
        </extensions>
      </trkpt>
      <trkpt lat="38.02303883247077465057373046875" lon="-106.92375476472079753875732421875">
        <ele>4260</ele>
        <time>2026-05-25T14:49:25.000Z</time>
        <extensions>
          <ns3:TrackPointExtension>
            <ns3:hr>119</ns3:hr>
            <ns3:cad>43</ns3:cad>
          </ns3:TrackPointExtension>
        </extensions>
      </trkpt>
      <trkpt lat="38.0230484716594219207763671875" lon="-106.9237473048269748687744140625">
        <ele>4260</ele>
        <time>2026-05-25T14:49:27.000Z</time>
        <extensions>
          <ns3:TrackPointExtension>
            <ns3:hr>119</ns3:hr>
            <ns3:cad>43</ns3:cad>
          </ns3:TrackPointExtension>
        </extensions>
      </trkpt>
      <trkpt lat="38.02306716330349445343017578125" lon="-106.92374034784734249114990234375">
        <ele>4260</ele>
        <time>2026-05-25T14:49:30.000Z</time>
        <extensions>
          <ns3:TrackPointExtension>
            <ns3:hr>122</ns3:hr>
            <ns3:cad>43</ns3:cad>
          </ns3:TrackPointExtension>
        </extensions>
      </trkpt>
      <trkpt lat="38.023089878261089324951171875" lon="-106.92370480857789516448974609375">
        <ele>4259.60009765625</ele>
        <time>2026-05-25T14:49:34.000Z</time>
        <extensions>
          <ns3:TrackPointExtension>
            <ns3:hr>124</ns3:hr>
            <ns3:cad>43</ns3:cad>
          </ns3:TrackPointExtension>
        </extensions>
      </trkpt>
      <trkpt lat="38.0231148563325405120849609375" lon="-106.9236634857952594757080078125">
        <ele>4260.60009765625</ele>
        <time>2026-05-25T14:49:40.000Z</time>
        <extensions>
          <ns3:TrackPointExtension>
            <ns3:hr>124</ns3:hr>
            <ns3:cad>0</ns3:cad>
          </ns3:TrackPointExtension>
        </extensions>
      </trkpt>
      <trkpt lat="38.02313438616693019866943359375" lon="-106.923637501895427703857421875">
        <ele>4260</ele>
        <time>2026-05-25T14:49:46.000Z</time>
        <extensions>
          <ns3:TrackPointExtension>
            <ns3:hr>122</ns3:hr>
            <ns3:cad>0</ns3:cad>
          </ns3:TrackPointExtension>
        </extensions>
      </trkpt>
      <trkpt lat="38.023139499127864837646484375" lon="-106.92363406531512737274169921875">
        <ele>4260</ele>
        <time>2026-05-25T14:49:47.000Z</time>
        <extensions>
          <ns3:TrackPointExtension>
            <ns3:hr>121</ns3:hr>
            <ns3:cad>0</ns3:cad>
          </ns3:TrackPointExtension>
        </extensions>
      </trkpt>
      <trkpt lat="38.02315793931484222412109375" lon="-106.92359668202698230743408203125">
        <ele>4259</ele>
        <time>2026-05-25T14:49:51.000Z</time>
        <extensions>
          <ns3:TrackPointExtension>
            <ns3:hr>119</ns3:hr>
            <ns3:cad>0</ns3:cad>
          </ns3:TrackPointExtension>
        </extensions>
      </trkpt>
      <trkpt lat="38.02315852604806423187255859375" lon="-106.92358913831412792205810546875">
        <ele>4258.7998046875</ele>
        <time>2026-05-25T14:49:52.000Z</time>
        <extensions>
          <ns3:TrackPointExtension>
            <ns3:hr>118</ns3:hr>
            <ns3:cad>0</ns3:cad>
          </ns3:TrackPointExtension>
        </extensions>
      </trkpt>
      <trkpt lat="38.023167662322521209716796875" lon="-106.92357505671679973602294921875">
        <ele>4259</ele>
        <time>2026-05-25T14:49:54.000Z</time>
        <extensions>
          <ns3:TrackPointExtension>
            <ns3:hr>116</ns3:hr>
            <ns3:cad>0</ns3:cad>
          </ns3:TrackPointExtension>
        </extensions>
      </trkpt>
      <trkpt lat="38.0232003517448902130126953125" lon="-106.9235454685986042022705078125">
        <ele>4259.60009765625</ele>
        <time>2026-05-25T14:49:58.000Z</time>
        <extensions>
          <ns3:TrackPointExtension>
            <ns3:hr>119</ns3:hr>
            <ns3:cad>47</ns3:cad>
          </ns3:TrackPointExtension>
        </extensions>
      </trkpt>
      <trkpt lat="38.02319406531751155853271484375" lon="-106.92353121936321258544921875">
        <ele>4259.7998046875</ele>
        <time>2026-05-25T14:50:01.000Z</time>
        <extensions>
          <ns3:TrackPointExtension>
            <ns3:hr>120</ns3:hr>
            <ns3:cad>47</ns3:cad>
          </ns3:TrackPointExtension>
        </extensions>
      </trkpt>
      <trkpt lat="38.02319255657494068145751953125" lon="-106.9235323928296566009521484375">
        <ele>4258.39990234375</ele>
        <time>2026-05-25T14:50:07.000Z</time>
        <extensions>
          <ns3:TrackPointExtension>
            <ns3:hr>120</ns3:hr>
            <ns3:cad>0</ns3:cad>
          </ns3:TrackPointExtension>
        </extensions>
      </trkpt>
      <trkpt lat="38.02319255657494068145751953125" lon="-106.9235323928296566009521484375">
        <ele>4258.39990234375</ele>
        <time>2026-05-25T14:50:12.000Z</time>
        <extensions>
          <ns3:TrackPointExtension>
            <ns3:hr>117</ns3:hr>
            <ns3:cad>0</ns3:cad>
          </ns3:TrackPointExtension>
        </extensions>
      </trkpt>
      <trkpt lat="38.02319255657494068145751953125" lon="-106.9235323928296566009521484375">
        <ele>4258.39990234375</ele>
        <time>2026-05-25T14:50:14.000Z</time>
        <extensions>
          <ns3:TrackPointExtension>
            <ns3:hr>115</ns3:hr>
            <ns3:cad>0</ns3:cad>
          </ns3:TrackPointExtension>
        </extensions>
      </trkpt>
      <trkpt lat="38.02319255657494068145751953125" lon="-106.9235323928296566009521484375">
        <ele>4259</ele>
        <time>2026-05-25T14:50:20.000Z</time>
        <extensions>
          <ns3:TrackPointExtension>
            <ns3:hr>114</ns3:hr>
            <ns3:cad>0</ns3:cad>
          </ns3:TrackPointExtension>
        </extensions>
      </trkpt>
      <trkpt lat="38.02319255657494068145751953125" lon="-106.9235323928296566009521484375">
        <ele>4259</ele>
        <time>2026-05-25T14:50:26.000Z</time>
        <extensions>
          <ns3:TrackPointExtension>
            <ns3:hr>114</ns3:hr>
            <ns3:cad>0</ns3:cad>
          </ns3:TrackPointExtension>
        </extensions>
      </trkpt>
      <trkpt lat="38.02319255657494068145751953125" lon="-106.9235323928296566009521484375">
        <ele>4258</ele>
        <time>2026-05-25T14:50:32.000Z</time>
        <extensions>
          <ns3:TrackPointExtension>
            <ns3:hr>113</ns3:hr>
            <ns3:cad>0</ns3:cad>
          </ns3:TrackPointExtension>
        </extensions>
      </trkpt>
      <trkpt lat="38.02319255657494068145751953125" lon="-106.9235323928296566009521484375">
        <ele>4257.7998046875</ele>
        <time>2026-05-25T14:50:34.000Z</time>
        <extensions>
          <ns3:TrackPointExtension>
            <ns3:hr>112</ns3:hr>
            <ns3:cad>0</ns3:cad>
          </ns3:TrackPointExtension>
        </extensions>
      </trkpt>
      <trkpt lat="38.02319255657494068145751953125" lon="-106.9235323928296566009521484375">
        <ele>4258.60009765625</ele>
        <time>2026-05-25T14:50:40.000Z</time>
        <extensions>
          <ns3:TrackPointExtension>
            <ns3:hr>112</ns3:hr>
            <ns3:cad>0</ns3:cad>
          </ns3:TrackPointExtension>
        </extensions>
      </trkpt>
      <trkpt lat="38.02319255657494068145751953125" lon="-106.9235323928296566009521484375">
        <ele>4259</ele>
        <time>2026-05-25T14:50:41.000Z</time>
        <extensions>
          <ns3:TrackPointExtension>
            <ns3:hr>112</ns3:hr>
            <ns3:cad>0</ns3:cad>
          </ns3:TrackPointExtension>
        </extensions>
      </trkpt>
      <trkpt lat="38.02319255657494068145751953125" lon="-106.9235323928296566009521484375">
        <ele>4259.2001953125</ele>
        <time>2026-05-25T14:50:43.000Z</time>
        <extensions>
          <ns3:TrackPointExtension>
            <ns3:hr>109</ns3:hr>
            <ns3:cad>0</ns3:cad>
          </ns3:TrackPointExtension>
        </extensions>
      </trkpt>
      <trkpt lat="38.02319255657494068145751953125" lon="-106.9235323928296566009521484375">
        <ele>4259</ele>
        <time>2026-05-25T14:50:45.000Z</time>
        <extensions>
          <ns3:TrackPointExtension>
            <ns3:hr>109</ns3:hr>
            <ns3:cad>0</ns3:cad>
          </ns3:TrackPointExtension>
        </extensions>
      </trkpt>
      <trkpt lat="38.02319255657494068145751953125" lon="-106.9235323928296566009521484375">
        <ele>4257.7998046875</ele>
        <time>2026-05-25T14:50:50.000Z</time>
        <extensions>
          <ns3:TrackPointExtension>
            <ns3:hr>110</ns3:hr>
            <ns3:cad>0</ns3:cad>
          </ns3:TrackPointExtension>
        </extensions>
      </trkpt>
      <trkpt lat="38.02319255657494068145751953125" lon="-106.9235323928296566009521484375">
        <ele>4257.39990234375</ele>
        <time>2026-05-25T14:50:52.000Z</time>
        <extensions>
          <ns3:TrackPointExtension>
            <ns3:hr>109</ns3:hr>
            <ns3:cad>0</ns3:cad>
          </ns3:TrackPointExtension>
        </extensions>
      </trkpt>
      <trkpt lat="38.02319255657494068145751953125" lon="-106.9235323928296566009521484375">
        <ele>4257.2001953125</ele>
        <time>2026-05-25T14:50:58.000Z</time>
        <extensions>
          <ns3:TrackPointExtension>
            <ns3:hr>106</ns3:hr>
            <ns3:cad>0</ns3:cad>
          </ns3:TrackPointExtension>
        </extensions>
      </trkpt>
      <trkpt lat="38.02319255657494068145751953125" lon="-106.9235323928296566009521484375">
        <ele>4256.7998046875</ele>
        <time>2026-05-25T14:51:04.000Z</time>
        <extensions>
          <ns3:TrackPointExtension>
            <ns3:hr>103</ns3:hr>
            <ns3:cad>0</ns3:cad>
          </ns3:TrackPointExtension>
        </extensions>
      </trkpt>
      <trkpt lat="38.02319255657494068145751953125" lon="-106.9235323928296566009521484375">
        <ele>4257</ele>
        <time>2026-05-25T14:51:10.000Z</time>
        <extensions>
          <ns3:TrackPointExtension>
            <ns3:hr>101</ns3:hr>
            <ns3:cad>0</ns3:cad>
          </ns3:TrackPointExtension>
        </extensions>
      </trkpt>
      <trkpt lat="38.02319255657494068145751953125" lon="-106.9235323928296566009521484375">
        <ele>4256.7998046875</ele>
        <time>2026-05-25T14:51:16.000Z</time>
        <extensions>
          <ns3:TrackPointExtension>
            <ns3:hr>100</ns3:hr>
            <ns3:cad>0</ns3:cad>
          </ns3:TrackPointExtension>
        </extensions>
      </trkpt>
      <trkpt lat="38.02319255657494068145751953125" lon="-106.9235323928296566009521484375">
        <ele>4256.7998046875</ele>
        <time>2026-05-25T14:51:18.000Z</time>
        <extensions>
          <ns3:TrackPointExtension>
            <ns3:hr>97</ns3:hr>
            <ns3:cad>0</ns3:cad>
          </ns3:TrackPointExtension>
        </extensions>
      </trkpt>
      <trkpt lat="38.02319255657494068145751953125" lon="-106.9235323928296566009521484375">
        <ele>4256.60009765625</ele>
        <time>2026-05-25T14:51:19.000Z</time>
        <extensions>
          <ns3:TrackPointExtension>
            <ns3:hr>95</ns3:hr>
            <ns3:cad>0</ns3:cad>
          </ns3:TrackPointExtension>
        </extensions>
      </trkpt>
      <trkpt lat="38.02319255657494068145751953125" lon="-106.9235323928296566009521484375">
        <ele>4256.39990234375</ele>
        <time>2026-05-25T14:51:22.000Z</time>
        <extensions>
          <ns3:TrackPointExtension>
            <ns3:hr>92</ns3:hr>
            <ns3:cad>0</ns3:cad>
          </ns3:TrackPointExtension>
        </extensions>
      </trkpt>
      <trkpt lat="38.02319255657494068145751953125" lon="-106.9235323928296566009521484375">
        <ele>4256.60009765625</ele>
        <time>2026-05-25T14:51:28.000Z</time>
        <extensions>
          <ns3:TrackPointExtension>
            <ns3:hr>92</ns3:hr>
            <ns3:cad>0</ns3:cad>
          </ns3:TrackPointExtension>
        </extensions>
      </trkpt>
      <trkpt lat="38.02319255657494068145751953125" lon="-106.9235323928296566009521484375">
        <ele>4256.7998046875</ele>
        <time>2026-05-25T14:51:34.000Z</time>
        <extensions>
          <ns3:TrackPointExtension>
            <ns3:hr>92</ns3:hr>
            <ns3:cad>0</ns3:cad>
          </ns3:TrackPointExtension>
        </extensions>
      </trkpt>
      <trkpt lat="38.02319255657494068145751953125" lon="-106.9235323928296566009521484375">
        <ele>4256.7998046875</ele>
        <time>2026-05-25T14:51:39.000Z</time>
        <extensions>
          <ns3:TrackPointExtension>
            <ns3:hr>92</ns3:hr>
            <ns3:cad>0</ns3:cad>
          </ns3:TrackPointExtension>
        </extensions>
      </trkpt>
      <trkpt lat="38.02319255657494068145751953125" lon="-106.9235323928296566009521484375">
        <ele>4257</ele>
        <time>2026-05-25T14:51:44.000Z</time>
        <extensions>
          <ns3:TrackPointExtension>
            <ns3:hr>88</ns3:hr>
            <ns3:cad>0</ns3:cad>
          </ns3:TrackPointExtension>
        </extensions>
      </trkpt>
      <trkpt lat="38.02319255657494068145751953125" lon="-106.9235323928296566009521484375">
        <ele>4256.60009765625</ele>
        <time>2026-05-25T14:51:50.000Z</time>
        <extensions>
          <ns3:TrackPointExtension>
            <ns3:hr>90</ns3:hr>
            <ns3:cad>0</ns3:cad>
          </ns3:TrackPointExtension>
        </extensions>
      </trkpt>
      <trkpt lat="38.02319255657494068145751953125" lon="-106.9235323928296566009521484375">
        <ele>4256.60009765625</ele>
        <time>2026-05-25T14:51:51.000Z</time>
        <extensions>
          <ns3:TrackPointExtension>
            <ns3:hr>90</ns3:hr>
            <ns3:cad>0</ns3:cad>
          </ns3:TrackPointExtension>
        </extensions>
      </trkpt>
      <trkpt lat="38.023197166621685028076171875" lon="-106.9235387630760669708251953125">
        <ele>4256.2001953125</ele>
        <time>2026-05-25T14:51:57.000Z</time>
        <extensions>
          <ns3:TrackPointExtension>
            <ns3:hr>92</ns3:hr>
            <ns3:cad>0</ns3:cad>
          </ns3:TrackPointExtension>
        </extensions>
      </trkpt>
      <trkpt lat="38.02319255657494068145751953125" lon="-106.9235323928296566009521484375">
        <ele>4257</ele>
        <time>2026-05-25T14:52:03.000Z</time>
        <extensions>
          <ns3:TrackPointExtension>
            <ns3:hr>93</ns3:hr>
            <ns3:cad>0</ns3:cad>
          </ns3:TrackPointExtension>
        </extensions>
      </trkpt>
      <trkpt lat="38.02319255657494068145751953125" lon="-106.9235323928296566009521484375">
        <ele>4257</ele>
        <time>2026-05-25T14:52:09.000Z</time>
        <extensions>
          <ns3:TrackPointExtension>
            <ns3:hr>94</ns3:hr>
            <ns3:cad>0</ns3:cad>
          </ns3:TrackPointExtension>
        </extensions>
      </trkpt>
      <trkpt lat="38.02319255657494068145751953125" lon="-106.9235323928296566009521484375">
        <ele>4257</ele>
        <time>2026-05-25T14:52:10.000Z</time>
        <extensions>
          <ns3:TrackPointExtension>
            <ns3:hr>94</ns3:hr>
            <ns3:cad>0</ns3:cad>
          </ns3:TrackPointExtension>
        </extensions>
      </trkpt>
      <trkpt lat="38.02319255657494068145751953125" lon="-106.9235323928296566009521484375">
        <ele>4256.60009765625</ele>
        <time>2026-05-25T14:52:16.000Z</time>
        <extensions>
          <ns3:TrackPointExtension>
            <ns3:hr>95</ns3:hr>
            <ns3:cad>0</ns3:cad>
          </ns3:TrackPointExtension>
        </extensions>
      </trkpt>
      <trkpt lat="38.02319255657494068145751953125" lon="-106.9235323928296566009521484375">
        <ele>4256.7998046875</ele>
        <time>2026-05-25T14:52:21.000Z</time>
        <extensions>
          <ns3:TrackPointExtension>
            <ns3:hr>94</ns3:hr>
            <ns3:cad>0</ns3:cad>
          </ns3:TrackPointExtension>
        </extensions>
      </trkpt>
      <trkpt lat="38.02319255657494068145751953125" lon="-106.9235323928296566009521484375">
        <ele>4256.39990234375</ele>
        <time>2026-05-25T14:52:27.000Z</time>
        <extensions>
          <ns3:TrackPointExtension>
            <ns3:hr>92</ns3:hr>
            <ns3:cad>0</ns3:cad>
          </ns3:TrackPointExtension>
        </extensions>
      </trkpt>
      <trkpt lat="38.02319255657494068145751953125" lon="-106.9235323928296566009521484375">
        <ele>4256.39990234375</ele>
        <time>2026-05-25T14:52:29.000Z</time>
        <extensions>
          <ns3:TrackPointExtension>
            <ns3:hr>91</ns3:hr>
            <ns3:cad>0</ns3:cad>
          </ns3:TrackPointExtension>
        </extensions>
      </trkpt>
      <trkpt lat="38.02319255657494068145751953125" lon="-106.9235323928296566009521484375">
        <ele>4256.39990234375</ele>
        <time>2026-05-25T14:52:33.000Z</time>
        <extensions>
          <ns3:TrackPointExtension>
            <ns3:hr>94</ns3:hr>
            <ns3:cad>0</ns3:cad>
          </ns3:TrackPointExtension>
        </extensions>
      </trkpt>
      <trkpt lat="38.02319255657494068145751953125" lon="-106.9235323928296566009521484375">
        <ele>4256.60009765625</ele>
        <time>2026-05-25T14:52:37.000Z</time>
        <extensions>
          <ns3:TrackPointExtension>
            <ns3:hr>94</ns3:hr>
            <ns3:cad>0</ns3:cad>
          </ns3:TrackPointExtension>
        </extensions>
      </trkpt>
      <trkpt lat="38.02319255657494068145751953125" lon="-106.9235323928296566009521484375">
        <ele>4256.7998046875</ele>
        <time>2026-05-25T14:52:43.000Z</time>
        <extensions>
          <ns3:TrackPointExtension>
            <ns3:hr>91</ns3:hr>
            <ns3:cad>0</ns3:cad>
          </ns3:TrackPointExtension>
        </extensions>
      </trkpt>
      <trkpt lat="38.02319255657494068145751953125" lon="-106.9235323928296566009521484375">
        <ele>4257</ele>
        <time>2026-05-25T14:52:48.000Z</time>
        <extensions>
          <ns3:TrackPointExtension>
            <ns3:hr>88</ns3:hr>
            <ns3:cad>0</ns3:cad>
          </ns3:TrackPointExtension>
        </extensions>
      </trkpt>
      <trkpt lat="38.02319255657494068145751953125" lon="-106.9235323928296566009521484375">
        <ele>4257</ele>
        <time>2026-05-25T14:52:50.000Z</time>
        <extensions>
          <ns3:TrackPointExtension>
            <ns3:hr>85</ns3:hr>
            <ns3:cad>0</ns3:cad>
          </ns3:TrackPointExtension>
        </extensions>
      </trkpt>
      <trkpt lat="38.02319255657494068145751953125" lon="-106.9235323928296566009521484375">
        <ele>4257.2001953125</ele>
        <time>2026-05-25T14:52:56.000Z</time>
        <extensions>
          <ns3:TrackPointExtension>
            <ns3:hr>86</ns3:hr>
            <ns3:cad>0</ns3:cad>
          </ns3:TrackPointExtension>
        </extensions>
      </trkpt>
      <trkpt lat="38.02319255657494068145751953125" lon="-106.9235323928296566009521484375">
        <ele>4257.2001953125</ele>
        <time>2026-05-25T14:53:02.000Z</time>
        <extensions>
          <ns3:TrackPointExtension>
            <ns3:hr>84</ns3:hr>
            <ns3:cad>0</ns3:cad>
          </ns3:TrackPointExtension>
        </extensions>
      </trkpt>
      <trkpt lat="38.02319255657494068145751953125" lon="-106.9235323928296566009521484375">
        <ele>4256.60009765625</ele>
        <time>2026-05-25T14:53:08.000Z</time>
        <extensions>
          <ns3:TrackPointExtension>
            <ns3:hr>85</ns3:hr>
            <ns3:cad>0</ns3:cad>
          </ns3:TrackPointExtension>
        </extensions>
      </trkpt>
      <trkpt lat="38.02319255657494068145751953125" lon="-106.9235323928296566009521484375">
        <ele>4256.2001953125</ele>
        <time>2026-05-25T14:53:14.000Z</time>
        <extensions>
          <ns3:TrackPointExtension>
            <ns3:hr>83</ns3:hr>
            <ns3:cad>0</ns3:cad>
          </ns3:TrackPointExtension>
        </extensions>
      </trkpt>
      <trkpt lat="38.02319255657494068145751953125" lon="-106.9235323928296566009521484375">
        <ele>4256</ele>
        <time>2026-05-25T14:53:20.000Z</time>
        <extensions>
          <ns3:TrackPointExtension>
            <ns3:hr>83</ns3:hr>
            <ns3:cad>0</ns3:cad>
          </ns3:TrackPointExtension>
        </extensions>
      </trkpt>
      <trkpt lat="38.02319255657494068145751953125" lon="-106.9235323928296566009521484375">
        <ele>4256.39990234375</ele>
        <time>2026-05-25T14:53:24.000Z</time>
        <extensions>
          <ns3:TrackPointExtension>
            <ns3:hr>86</ns3:hr>
            <ns3:cad>0</ns3:cad>
          </ns3:TrackPointExtension>
        </extensions>
      </trkpt>
      <trkpt lat="38.02319255657494068145751953125" lon="-106.9235323928296566009521484375">
        <ele>4256.60009765625</ele>
        <time>2026-05-25T14:53:27.000Z</time>
        <extensions>
          <ns3:TrackPointExtension>
            <ns3:hr>85</ns3:hr>
            <ns3:cad>0</ns3:cad>
          </ns3:TrackPointExtension>
        </extensions>
      </trkpt>
      <trkpt lat="38.02319255657494068145751953125" lon="-106.9235323928296566009521484375">
        <ele>4256.2001953125</ele>
        <time>2026-05-25T14:53:33.000Z</time>
        <extensions>
          <ns3:TrackPointExtension>
            <ns3:hr>85</ns3:hr>
            <ns3:cad>0</ns3:cad>
          </ns3:TrackPointExtension>
        </extensions>
      </trkpt>
      <trkpt lat="38.02319255657494068145751953125" lon="-106.9235323928296566009521484375">
        <ele>4256.2001953125</ele>
        <time>2026-05-25T14:53:39.000Z</time>
        <extensions>
          <ns3:TrackPointExtension>
            <ns3:hr>83</ns3:hr>
            <ns3:cad>0</ns3:cad>
          </ns3:TrackPointExtension>
        </extensions>
      </trkpt>
      <trkpt lat="38.02319255657494068145751953125" lon="-106.9235323928296566009521484375">
        <ele>4256.2001953125</ele>
        <time>2026-05-25T14:53:45.000Z</time>
        <extensions>
          <ns3:TrackPointExtension>
            <ns3:hr>85</ns3:hr>
            <ns3:cad>0</ns3:cad>
          </ns3:TrackPointExtension>
        </extensions>
      </trkpt>
      <trkpt lat="38.02319255657494068145751953125" lon="-106.9235323928296566009521484375">
        <ele>4256</ele>
        <time>2026-05-25T14:53:47.000Z</time>
        <extensions>
          <ns3:TrackPointExtension>
            <ns3:hr>91</ns3:hr>
            <ns3:cad>0</ns3:cad>
          </ns3:TrackPointExtension>
        </extensions>
      </trkpt>
      <trkpt lat="38.02319255657494068145751953125" lon="-106.9235323928296566009521484375">
        <ele>4256.2001953125</ele>
        <time>2026-05-25T14:53:53.000Z</time>
        <extensions>
          <ns3:TrackPointExtension>
            <ns3:hr>90</ns3:hr>
            <ns3:cad>0</ns3:cad>
          </ns3:TrackPointExtension>
        </extensions>
      </trkpt>
      <trkpt lat="38.02319255657494068145751953125" lon="-106.9235323928296566009521484375">
        <ele>4256.39990234375</ele>
        <time>2026-05-25T14:53:58.000Z</time>
        <extensions>
          <ns3:TrackPointExtension>
            <ns3:hr>90</ns3:hr>
            <ns3:cad>0</ns3:cad>
          </ns3:TrackPointExtension>
        </extensions>
      </trkpt>
      <trkpt lat="38.02319255657494068145751953125" lon="-106.9235323928296566009521484375">
        <ele>4256.2001953125</ele>
        <time>2026-05-25T14:54:04.000Z</time>
        <extensions>
          <ns3:TrackPointExtension>
            <ns3:hr>87</ns3:hr>
            <ns3:cad>0</ns3:cad>
          </ns3:TrackPointExtension>
        </extensions>
      </trkpt>
      <trkpt lat="38.02319255657494068145751953125" lon="-106.9235323928296566009521484375">
        <ele>4256.2001953125</ele>
        <time>2026-05-25T14:54:07.000Z</time>
        <extensions>
          <ns3:TrackPointExtension>
            <ns3:hr>84</ns3:hr>
            <ns3:cad>0</ns3:cad>
          </ns3:TrackPointExtension>
        </extensions>
      </trkpt>
      <trkpt lat="38.02319255657494068145751953125" lon="-106.9235323928296566009521484375">
        <ele>4256.2001953125</ele>
        <time>2026-05-25T14:54:12.000Z</time>
        <extensions>
          <ns3:TrackPointExtension>
            <ns3:hr>81</ns3:hr>
            <ns3:cad>0</ns3:cad>
          </ns3:TrackPointExtension>
        </extensions>
      </trkpt>
      <trkpt lat="38.02319255657494068145751953125" lon="-106.9235323928296566009521484375">
        <ele>4256</ele>
        <time>2026-05-25T14:54:18.000Z</time>
        <extensions>
          <ns3:TrackPointExtension>
            <ns3:hr>84</ns3:hr>
            <ns3:cad>0</ns3:cad>
          </ns3:TrackPointExtension>
        </extensions>
      </trkpt>
      <trkpt lat="38.02319255657494068145751953125" lon="-106.9235323928296566009521484375">
        <ele>4256</ele>
        <time>2026-05-25T14:54:21.000Z</time>
        <extensions>
          <ns3:TrackPointExtension>
            <ns3:hr>84</ns3:hr>
            <ns3:cad>0</ns3:cad>
          </ns3:TrackPointExtension>
        </extensions>
      </trkpt>
      <trkpt lat="38.02319255657494068145751953125" lon="-106.9235323928296566009521484375">
        <ele>4256.2001953125</ele>
        <time>2026-05-25T14:54:27.000Z</time>
        <extensions>
          <ns3:TrackPointExtension>
            <ns3:hr>84</ns3:hr>
            <ns3:cad>0</ns3:cad>
          </ns3:TrackPointExtension>
        </extensions>
      </trkpt>
      <trkpt lat="38.02319255657494068145751953125" lon="-106.9235323928296566009521484375">
        <ele>4256.2001953125</ele>
        <time>2026-05-25T14:54:33.000Z</time>
        <extensions>
          <ns3:TrackPointExtension>
            <ns3:hr>87</ns3:hr>
            <ns3:cad>0</ns3:cad>
          </ns3:TrackPointExtension>
        </extensions>
      </trkpt>
      <trkpt lat="38.02319255657494068145751953125" lon="-106.9235323928296566009521484375">
        <ele>4256</ele>
        <time>2026-05-25T14:54:38.000Z</time>
        <extensions>
          <ns3:TrackPointExtension>
            <ns3:hr>87</ns3:hr>
            <ns3:cad>0</ns3:cad>
          </ns3:TrackPointExtension>
        </extensions>
      </trkpt>
      <trkpt lat="38.02319255657494068145751953125" lon="-106.9235323928296566009521484375">
        <ele>4256.2001953125</ele>
        <time>2026-05-25T14:54:44.000Z</time>
        <extensions>
          <ns3:TrackPointExtension>
            <ns3:hr>88</ns3:hr>
            <ns3:cad>0</ns3:cad>
          </ns3:TrackPointExtension>
        </extensions>
      </trkpt>
      <trkpt lat="38.02319255657494068145751953125" lon="-106.92353247664868831634521484375">
        <ele>4256</ele>
        <time>2026-05-25T14:54:50.000Z</time>
        <extensions>
          <ns3:TrackPointExtension>
            <ns3:hr>89</ns3:hr>
            <ns3:cad>0</ns3:cad>
          </ns3:TrackPointExtension>
        </extensions>
      </trkpt>
      <trkpt lat="38.02319255657494068145751953125" lon="-106.92353247664868831634521484375">
        <ele>4255.7998046875</ele>
        <time>2026-05-25T14:54:52.000Z</time>
        <extensions>
          <ns3:TrackPointExtension>
            <ns3:hr>89</ns3:hr>
            <ns3:cad>0</ns3:cad>
          </ns3:TrackPointExtension>
        </extensions>
      </trkpt>
      <trkpt lat="38.02319255657494068145751953125" lon="-106.92353247664868831634521484375">
        <ele>4255.7998046875</ele>
        <time>2026-05-25T14:54:54.000Z</time>
        <extensions>
          <ns3:TrackPointExtension>
            <ns3:hr>89</ns3:hr>
            <ns3:cad>0</ns3:cad>
          </ns3:TrackPointExtension>
        </extensions>
      </trkpt>
      <trkpt lat="38.02319255657494068145751953125" lon="-106.92353247664868831634521484375">
        <ele>4256.2001953125</ele>
        <time>2026-05-25T14:55:00.000Z</time>
        <extensions>
          <ns3:TrackPointExtension>
            <ns3:hr>89</ns3:hr>
            <ns3:cad>0</ns3:cad>
          </ns3:TrackPointExtension>
        </extensions>
      </trkpt>
      <trkpt lat="38.02319255657494068145751953125" lon="-106.92353247664868831634521484375">
        <ele>4256.2001953125</ele>
        <time>2026-05-25T14:55:04.000Z</time>
        <extensions>
          <ns3:TrackPointExtension>
            <ns3:hr>86</ns3:hr>
            <ns3:cad>0</ns3:cad>
          </ns3:TrackPointExtension>
        </extensions>
      </trkpt>
      <trkpt lat="38.02319255657494068145751953125" lon="-106.92353247664868831634521484375">
        <ele>4256.2001953125</ele>
        <time>2026-05-25T14:55:10.000Z</time>
        <extensions>
          <ns3:TrackPointExtension>
            <ns3:hr>86</ns3:hr>
            <ns3:cad>0</ns3:cad>
          </ns3:TrackPointExtension>
        </extensions>
      </trkpt>
      <trkpt lat="38.02319255657494068145751953125" lon="-106.92353247664868831634521484375">
        <ele>4256.39990234375</ele>
        <time>2026-05-25T14:55:12.000Z</time>
        <extensions>
          <ns3:TrackPointExtension>
            <ns3:hr>90</ns3:hr>
            <ns3:cad>0</ns3:cad>
          </ns3:TrackPointExtension>
        </extensions>
      </trkpt>
      <trkpt lat="38.02319255657494068145751953125" lon="-106.92353247664868831634521484375">
        <ele>4256.39990234375</ele>
        <time>2026-05-25T14:55:14.000Z</time>
        <extensions>
          <ns3:TrackPointExtension>
            <ns3:hr>93</ns3:hr>
            <ns3:cad>0</ns3:cad>
          </ns3:TrackPointExtension>
        </extensions>
      </trkpt>
      <trkpt lat="38.02319255657494068145751953125" lon="-106.92353247664868831634521484375">
        <ele>4256.39990234375</ele>
        <time>2026-05-25T14:55:20.000Z</time>
        <extensions>
          <ns3:TrackPointExtension>
            <ns3:hr>96</ns3:hr>
            <ns3:cad>0</ns3:cad>
          </ns3:TrackPointExtension>
        </extensions>
      </trkpt>
      <trkpt lat="38.02319255657494068145751953125" lon="-106.92353247664868831634521484375">
        <ele>4255.7998046875</ele>
        <time>2026-05-25T14:55:26.000Z</time>
        <extensions>
          <ns3:TrackPointExtension>
            <ns3:hr>96</ns3:hr>
            <ns3:cad>0</ns3:cad>
          </ns3:TrackPointExtension>
        </extensions>
      </trkpt>
      <trkpt lat="38.02319255657494068145751953125" lon="-106.9235323928296566009521484375">
        <ele>4255.7998046875</ele>
        <time>2026-05-25T14:55:28.000Z</time>
        <extensions>
          <ns3:TrackPointExtension>
            <ns3:hr>93</ns3:hr>
            <ns3:cad>0</ns3:cad>
          </ns3:TrackPointExtension>
        </extensions>
      </trkpt>
      <trkpt lat="38.02319255657494068145751953125" lon="-106.9235323928296566009521484375">
        <ele>4255.7998046875</ele>
        <time>2026-05-25T14:55:29.000Z</time>
        <extensions>
          <ns3:TrackPointExtension>
            <ns3:hr>91</ns3:hr>
            <ns3:cad>0</ns3:cad>
          </ns3:TrackPointExtension>
        </extensions>
      </trkpt>
      <trkpt lat="38.02319255657494068145751953125" lon="-106.9235323928296566009521484375">
        <ele>4256.2001953125</ele>
        <time>2026-05-25T14:55:31.000Z</time>
        <extensions>
          <ns3:TrackPointExtension>
            <ns3:hr>85</ns3:hr>
            <ns3:cad>0</ns3:cad>
          </ns3:TrackPointExtension>
        </extensions>
      </trkpt>
      <trkpt lat="38.02319255657494068145751953125" lon="-106.9235323928296566009521484375">
        <ele>4256.39990234375</ele>
        <time>2026-05-25T14:55:32.000Z</time>
        <extensions>
          <ns3:TrackPointExtension>
            <ns3:hr>85</ns3:hr>
            <ns3:cad>0</ns3:cad>
          </ns3:TrackPointExtension>
        </extensions>
      </trkpt>
      <trkpt lat="38.02319255657494068145751953125" lon="-106.9235323928296566009521484375">
        <ele>4256.39990234375</ele>
        <time>2026-05-25T14:55:38.000Z</time>
        <extensions>
          <ns3:TrackPointExtension>
            <ns3:hr>84</ns3:hr>
            <ns3:cad>0</ns3:cad>
          </ns3:TrackPointExtension>
        </extensions>
      </trkpt>
      <trkpt lat="38.02319255657494068145751953125" lon="-106.9235323928296566009521484375">
        <ele>4256</ele>
        <time>2026-05-25T14:55:44.000Z</time>
        <extensions>
          <ns3:TrackPointExtension>
            <ns3:hr>85</ns3:hr>
            <ns3:cad>0</ns3:cad>
          </ns3:TrackPointExtension>
        </extensions>
      </trkpt>
      <trkpt lat="38.02319255657494068145751953125" lon="-106.9235323928296566009521484375">
        <ele>4256.60009765625</ele>
        <time>2026-05-25T14:55:50.000Z</time>
        <extensions>
          <ns3:TrackPointExtension>
            <ns3:hr>84</ns3:hr>
            <ns3:cad>0</ns3:cad>
          </ns3:TrackPointExtension>
        </extensions>
      </trkpt>
      <trkpt lat="38.02319255657494068145751953125" lon="-106.9235323928296566009521484375">
        <ele>4256.7998046875</ele>
        <time>2026-05-25T14:55:53.000Z</time>
        <extensions>
          <ns3:TrackPointExtension>
            <ns3:hr>87</ns3:hr>
            <ns3:cad>0</ns3:cad>
          </ns3:TrackPointExtension>
        </extensions>
      </trkpt>
      <trkpt lat="38.02319255657494068145751953125" lon="-106.9235323928296566009521484375">
        <ele>4256.7998046875</ele>
        <time>2026-05-25T14:55:54.000Z</time>
        <extensions>
          <ns3:TrackPointExtension>
            <ns3:hr>87</ns3:hr>
            <ns3:cad>0</ns3:cad>
          </ns3:TrackPointExtension>
        </extensions>
      </trkpt>
      <trkpt lat="38.02319557406008243560791015625" lon="-106.9235458038747310638427734375">
        <ele>4256.7998046875</ele>
        <time>2026-05-25T14:55:55.000Z</time>
        <extensions>
          <ns3:TrackPointExtension>
            <ns3:hr>87</ns3:hr>
            <ns3:cad>0</ns3:cad>
          </ns3:TrackPointExtension>
        </extensions>
      </trkpt>
      <trkpt lat="38.023197166621685028076171875" lon="-106.9235548563301563262939453125">
        <ele>4257.60009765625</ele>
        <time>2026-05-25T14:55:58.000Z</time>
        <extensions>
          <ns3:TrackPointExtension>
            <ns3:hr>90</ns3:hr>
            <ns3:cad>0</ns3:cad>
          </ns3:TrackPointExtension>
        </extensions>
      </trkpt>
      <trkpt lat="38.0231983400881290435791015625" lon="-106.92355644889175891876220703125">
        <ele>4258</ele>
        <time>2026-05-25T14:55:59.000Z</time>
        <extensions>
          <ns3:TrackPointExtension>
            <ns3:hr>93</ns3:hr>
            <ns3:cad>0</ns3:cad>
          </ns3:TrackPointExtension>
        </extensions>
      </trkpt>
      <trkpt lat="38.02319875918328762054443359375" lon="-106.9235572032630443572998046875">
        <ele>4258.2001953125</ele>
        <time>2026-05-25T14:56:00.000Z</time>
        <extensions>
          <ns3:TrackPointExtension>
            <ns3:hr>93</ns3:hr>
            <ns3:cad>0</ns3:cad>
          </ns3:TrackPointExtension>
        </extensions>
      </trkpt>
      <trkpt lat="38.02319683134555816650390625" lon="-106.9235679320991039276123046875">
        <ele>4257.60009765625</ele>
        <time>2026-05-25T14:56:03.000Z</time>
        <extensions>
          <ns3:TrackPointExtension>
            <ns3:hr>95</ns3:hr>
            <ns3:cad>0</ns3:cad>
          </ns3:TrackPointExtension>
        </extensions>
      </trkpt>
      <trkpt lat="38.023157604038715362548828125" lon="-106.92356340587139129638671875">
        <ele>4256.7998046875</ele>
        <time>2026-05-25T14:56:08.000Z</time>
        <extensions>
          <ns3:TrackPointExtension>
            <ns3:hr>94</ns3:hr>
            <ns3:cad>0</ns3:cad>
          </ns3:TrackPointExtension>
        </extensions>
      </trkpt>
      <trkpt lat="38.0231557600200176239013671875" lon="-106.923560388386249542236328125">
        <ele>4257</ele>
        <time>2026-05-25T14:56:10.000Z</time>
        <extensions>
          <ns3:TrackPointExtension>
            <ns3:hr>94</ns3:hr>
            <ns3:cad>44</ns3:cad>
          </ns3:TrackPointExtension>
        </extensions>
      </trkpt>
      <trkpt lat="38.0231480486690998077392578125" lon="-106.923553682863712310791015625">
        <ele>4257.7998046875</ele>
        <time>2026-05-25T14:56:15.000Z</time>
        <extensions>
          <ns3:TrackPointExtension>
            <ns3:hr>93</ns3:hr>
            <ns3:cad>0</ns3:cad>
          </ns3:TrackPointExtension>
        </extensions>
      </trkpt>
      <trkpt lat="38.02315148524940013885498046875" lon="-106.9235568679869174957275390625">
        <ele>4258</ele>
        <time>2026-05-25T14:56:16.000Z</time>
        <extensions>
          <ns3:TrackPointExtension>
            <ns3:hr>93</ns3:hr>
            <ns3:cad>0</ns3:cad>
          </ns3:TrackPointExtension>
        </extensions>
      </trkpt>
      <trkpt lat="38.02315081469714641571044921875" lon="-106.9235494919121265411376953125">
        <ele>4259</ele>
        <time>2026-05-25T14:56:21.000Z</time>
        <extensions>
          <ns3:TrackPointExtension>
            <ns3:hr>96</ns3:hr>
            <ns3:cad>0</ns3:cad>
          </ns3:TrackPointExtension>
        </extensions>
      </trkpt>
      <trkpt lat="38.02315081469714641571044921875" lon="-106.9235494919121265411376953125">
        <ele>4259</ele>
        <time>2026-05-25T14:56:22.000Z</time>
        <extensions>
          <ns3:TrackPointExtension>
            <ns3:hr>97</ns3:hr>
            <ns3:cad>0</ns3:cad>
          </ns3:TrackPointExtension>
        </extensions>
      </trkpt>
      <trkpt lat="38.02315081469714641571044921875" lon="-106.9235494919121265411376953125">
        <ele>4258.39990234375</ele>
        <time>2026-05-25T14:56:28.000Z</time>
        <extensions>
          <ns3:TrackPointExtension>
            <ns3:hr>96</ns3:hr>
            <ns3:cad>0</ns3:cad>
          </ns3:TrackPointExtension>
        </extensions>
      </trkpt>
      <trkpt lat="38.02315081469714641571044921875" lon="-106.9235494919121265411376953125">
        <ele>4257.60009765625</ele>
        <time>2026-05-25T14:56:30.000Z</time>
        <extensions>
          <ns3:TrackPointExtension>
            <ns3:hr>96</ns3:hr>
            <ns3:cad>0</ns3:cad>
          </ns3:TrackPointExtension>
        </extensions>
      </trkpt>
      <trkpt lat="38.02315081469714641571044921875" lon="-106.9235494919121265411376953125">
        <ele>4257.39990234375</ele>
        <time>2026-05-25T14:56:36.000Z</time>
        <extensions>
          <ns3:TrackPointExtension>
            <ns3:hr>94</ns3:hr>
            <ns3:cad>0</ns3:cad>
          </ns3:TrackPointExtension>
        </extensions>
      </trkpt>
      <trkpt lat="38.02315081469714641571044921875" lon="-106.9235494919121265411376953125">
        <ele>4256.2001953125</ele>
        <time>2026-05-25T14:56:39.000Z</time>
        <extensions>
          <ns3:TrackPointExtension>
            <ns3:hr>93</ns3:hr>
            <ns3:cad>0</ns3:cad>
          </ns3:TrackPointExtension>
        </extensions>
      </trkpt>
      <trkpt lat="38.02315081469714641571044921875" lon="-106.9235494919121265411376953125">
        <ele>4255.60009765625</ele>
        <time>2026-05-25T14:56:44.000Z</time>
        <extensions>
          <ns3:TrackPointExtension>
            <ns3:hr>93</ns3:hr>
            <ns3:cad>0</ns3:cad>
          </ns3:TrackPointExtension>
        </extensions>
      </trkpt>
      <trkpt lat="38.02315081469714641571044921875" lon="-106.9235494919121265411376953125">
        <ele>4257.39990234375</ele>
        <time>2026-05-25T14:56:49.000Z</time>
        <extensions>
          <ns3:TrackPointExtension>
            <ns3:hr>92</ns3:hr>
            <ns3:cad>0</ns3:cad>
          </ns3:TrackPointExtension>
        </extensions>
      </trkpt>
      <trkpt lat="38.02315081469714641571044921875" lon="-106.9235494919121265411376953125">
        <ele>4257.60009765625</ele>
        <time>2026-05-25T14:56:55.000Z</time>
        <extensions>
          <ns3:TrackPointExtension>
            <ns3:hr>90</ns3:hr>
            <ns3:cad>0</ns3:cad>
          </ns3:TrackPointExtension>
        </extensions>
      </trkpt>
      <trkpt lat="38.02315081469714641571044921875" lon="-106.9235494919121265411376953125">
        <ele>4257.60009765625</ele>
        <time>2026-05-25T14:56:57.000Z</time>
        <extensions>
          <ns3:TrackPointExtension>
            <ns3:hr>92</ns3:hr>
            <ns3:cad>0</ns3:cad>
          </ns3:TrackPointExtension>
        </extensions>
      </trkpt>
      <trkpt lat="38.02315081469714641571044921875" lon="-106.9235494919121265411376953125">
        <ele>4256.2001953125</ele>
        <time>2026-05-25T14:57:03.000Z</time>
        <extensions>
          <ns3:TrackPointExtension>
            <ns3:hr>92</ns3:hr>
            <ns3:cad>0</ns3:cad>
          </ns3:TrackPointExtension>
        </extensions>
      </trkpt>
      <trkpt lat="38.02315081469714641571044921875" lon="-106.9235494919121265411376953125">
        <ele>4255.60009765625</ele>
        <time>2026-05-25T14:57:05.000Z</time>
        <extensions>
          <ns3:TrackPointExtension>
            <ns3:hr>92</ns3:hr>
            <ns3:cad>0</ns3:cad>
          </ns3:TrackPointExtension>
        </extensions>
      </trkpt>
      <trkpt lat="38.02315081469714641571044921875" lon="-106.9235494919121265411376953125">
        <ele>4253.60009765625</ele>
        <time>2026-05-25T14:57:06.000Z</time>
        <extensions>
          <ns3:TrackPointExtension>
            <ns3:hr>92</ns3:hr>
            <ns3:cad>0</ns3:cad>
          </ns3:TrackPointExtension>
        </extensions>
      </trkpt>
      <trkpt lat="38.02315081469714641571044921875" lon="-106.9235494919121265411376953125">
        <ele>4254.2001953125</ele>
        <time>2026-05-25T14:57:10.000Z</time>
        <extensions>
          <ns3:TrackPointExtension>
            <ns3:hr>93</ns3:hr>
            <ns3:cad>0</ns3:cad>
          </ns3:TrackPointExtension>
        </extensions>
      </trkpt>
      <trkpt lat="38.02315081469714641571044921875" lon="-106.9235494919121265411376953125">
        <ele>4256.7998046875</ele>
        <time>2026-05-25T14:57:11.000Z</time>
        <extensions>
          <ns3:TrackPointExtension>
            <ns3:hr>93</ns3:hr>
            <ns3:cad>0</ns3:cad>
          </ns3:TrackPointExtension>
        </extensions>
      </trkpt>
      <trkpt lat="38.02315081469714641571044921875" lon="-106.9235494919121265411376953125">
        <ele>4258.39990234375</ele>
        <time>2026-05-25T14:57:12.000Z</time>
        <extensions>
          <ns3:TrackPointExtension>
            <ns3:hr>94</ns3:hr>
            <ns3:cad>0</ns3:cad>
          </ns3:TrackPointExtension>
        </extensions>
      </trkpt>
      <trkpt lat="38.02315081469714641571044921875" lon="-106.9235494919121265411376953125">
        <ele>4258</ele>
        <time>2026-05-25T14:57:18.000Z</time>
        <extensions>
          <ns3:TrackPointExtension>
            <ns3:hr>93</ns3:hr>
            <ns3:cad>0</ns3:cad>
          </ns3:TrackPointExtension>
        </extensions>
      </trkpt>
      <trkpt lat="38.02315081469714641571044921875" lon="-106.9235494919121265411376953125">
        <ele>4257.39990234375</ele>
        <time>2026-05-25T14:57:19.000Z</time>
        <extensions>
          <ns3:TrackPointExtension>
            <ns3:hr>92</ns3:hr>
            <ns3:cad>0</ns3:cad>
          </ns3:TrackPointExtension>
        </extensions>
      </trkpt>
      <trkpt lat="38.02315081469714641571044921875" lon="-106.9235494919121265411376953125">
        <ele>4256.39990234375</ele>
        <time>2026-05-25T14:57:21.000Z</time>
        <extensions>
          <ns3:TrackPointExtension>
            <ns3:hr>89</ns3:hr>
            <ns3:cad>0</ns3:cad>
          </ns3:TrackPointExtension>
        </extensions>
      </trkpt>
      <trkpt lat="38.02315081469714641571044921875" lon="-106.9235494919121265411376953125">
        <ele>4255.7998046875</ele>
        <time>2026-05-25T14:57:22.000Z</time>
        <extensions>
          <ns3:TrackPointExtension>
            <ns3:hr>89</ns3:hr>
            <ns3:cad>0</ns3:cad>
          </ns3:TrackPointExtension>
        </extensions>
      </trkpt>
      <trkpt lat="38.02315081469714641571044921875" lon="-106.9235494919121265411376953125">
        <ele>4254.60009765625</ele>
        <time>2026-05-25T14:57:24.000Z</time>
        <extensions>
          <ns3:TrackPointExtension>
            <ns3:hr>88</ns3:hr>
            <ns3:cad>0</ns3:cad>
          </ns3:TrackPointExtension>
        </extensions>
      </trkpt>
      <trkpt lat="38.02315081469714641571044921875" lon="-106.9235494919121265411376953125">
        <ele>4255.2001953125</ele>
        <time>2026-05-25T14:57:30.000Z</time>
        <extensions>
          <ns3:TrackPointExtension>
            <ns3:hr>88</ns3:hr>
            <ns3:cad>0</ns3:cad>
          </ns3:TrackPointExtension>
        </extensions>
      </trkpt>
      <trkpt lat="38.02315081469714641571044921875" lon="-106.9235494919121265411376953125">
        <ele>4257.39990234375</ele>
        <time>2026-05-25T14:57:36.000Z</time>
        <extensions>
          <ns3:TrackPointExtension>
            <ns3:hr>90</ns3:hr>
            <ns3:cad>0</ns3:cad>
          </ns3:TrackPointExtension>
        </extensions>
      </trkpt>
      <trkpt lat="38.02315081469714641571044921875" lon="-106.9235494919121265411376953125">
        <ele>4258.39990234375</ele>
        <time>2026-05-25T14:57:39.000Z</time>
        <extensions>
          <ns3:TrackPointExtension>
            <ns3:hr>90</ns3:hr>
            <ns3:cad>0</ns3:cad>
          </ns3:TrackPointExtension>
        </extensions>
      </trkpt>
      <trkpt lat="38.02315081469714641571044921875" lon="-106.9235494919121265411376953125">
        <ele>4260.39990234375</ele>
        <time>2026-05-25T14:57:40.000Z</time>
        <extensions>
          <ns3:TrackPointExtension>
            <ns3:hr>91</ns3:hr>
            <ns3:cad>0</ns3:cad>
          </ns3:TrackPointExtension>
        </extensions>
      </trkpt>
      <trkpt lat="38.02315081469714641571044921875" lon="-106.9235494919121265411376953125">
        <ele>4259.7998046875</ele>
        <time>2026-05-25T14:57:41.000Z</time>
        <extensions>
          <ns3:TrackPointExtension>
            <ns3:hr>92</ns3:hr>
            <ns3:cad>0</ns3:cad>
          </ns3:TrackPointExtension>
        </extensions>
      </trkpt>
      <trkpt lat="38.02315081469714641571044921875" lon="-106.9235494919121265411376953125">
        <ele>4256.2001953125</ele>
        <time>2026-05-25T14:57:47.000Z</time>
        <extensions>
          <ns3:TrackPointExtension>
            <ns3:hr>92</ns3:hr>
            <ns3:cad>0</ns3:cad>
          </ns3:TrackPointExtension>
        </extensions>
      </trkpt>
      <trkpt lat="38.02315081469714641571044921875" lon="-106.9235494919121265411376953125">
        <ele>4256.2001953125</ele>
        <time>2026-05-25T14:57:53.000Z</time>
        <extensions>
          <ns3:TrackPointExtension>
            <ns3:hr>93</ns3:hr>
            <ns3:cad>0</ns3:cad>
          </ns3:TrackPointExtension>
        </extensions>
      </trkpt>
      <trkpt lat="38.02315081469714641571044921875" lon="-106.9235494919121265411376953125">
        <ele>4256.60009765625</ele>
        <time>2026-05-25T14:57:56.000Z</time>
        <extensions>
          <ns3:TrackPointExtension>
            <ns3:hr>94</ns3:hr>
            <ns3:cad>0</ns3:cad>
          </ns3:TrackPointExtension>
        </extensions>
      </trkpt>
      <trkpt lat="38.02315081469714641571044921875" lon="-106.9235494919121265411376953125">
        <ele>4257.39990234375</ele>
        <time>2026-05-25T14:58:00.000Z</time>
        <extensions>
          <ns3:TrackPointExtension>
            <ns3:hr>92</ns3:hr>
            <ns3:cad>0</ns3:cad>
          </ns3:TrackPointExtension>
        </extensions>
      </trkpt>
      <trkpt lat="38.02315081469714641571044921875" lon="-106.9235494919121265411376953125">
        <ele>4257.2001953125</ele>
        <time>2026-05-25T14:58:05.000Z</time>
        <extensions>
          <ns3:TrackPointExtension>
            <ns3:hr>92</ns3:hr>
            <ns3:cad>0</ns3:cad>
          </ns3:TrackPointExtension>
        </extensions>
      </trkpt>
      <trkpt lat="38.02315182052552700042724609375" lon="-106.923557706177234649658203125">
        <ele>4258.60009765625</ele>
        <time>2026-05-25T14:58:07.000Z</time>
        <extensions>
          <ns3:TrackPointExtension>
            <ns3:hr>92</ns3:hr>
            <ns3:cad>0</ns3:cad>
          </ns3:TrackPointExtension>
        </extensions>
      </trkpt>
      <trkpt lat="38.02316129207611083984375" lon="-106.923583857715129852294921875">
        <ele>4259.2001953125</ele>
        <time>2026-05-25T14:58:09.000Z</time>
        <extensions>
          <ns3:TrackPointExtension>
            <ns3:hr>91</ns3:hr>
            <ns3:cad>0</ns3:cad>
          </ns3:TrackPointExtension>
        </extensions>
      </trkpt>
      <trkpt lat="38.02319004200398921966552734375" lon="-106.9235783256590366363525390625">
        <ele>4259.39990234375</ele>
        <time>2026-05-25T14:58:15.000Z</time>
        <extensions>
          <ns3:TrackPointExtension>
            <ns3:hr>90</ns3:hr>
            <ns3:cad>0</ns3:cad>
          </ns3:TrackPointExtension>
        </extensions>
      </trkpt>
      <trkpt lat="38.02320764400064945220947265625" lon="-106.923553012311458587646484375">
        <ele>4259</ele>
        <time>2026-05-25T14:58:18.000Z</time>
        <extensions>
          <ns3:TrackPointExtension>
            <ns3:hr>90</ns3:hr>
            <ns3:cad>0</ns3:cad>
          </ns3:TrackPointExtension>
        </extensions>
      </trkpt>
      <trkpt lat="38.02319549024105072021484375" lon="-106.92354194819927215576171875">
        <ele>4258.60009765625</ele>
        <time>2026-05-25T14:58:20.000Z</time>
        <extensions>
          <ns3:TrackPointExtension>
            <ns3:hr>89</ns3:hr>
            <ns3:cad>0</ns3:cad>
          </ns3:TrackPointExtension>
        </extensions>
      </trkpt>
      <trkpt lat="38.0231939814984798431396484375" lon="-106.92353968508541584014892578125">
        <ele>4257.2001953125</ele>
        <time>2026-05-25T14:58:25.000Z</time>
        <extensions>
          <ns3:TrackPointExtension>
            <ns3:hr>89</ns3:hr>
            <ns3:cad>0</ns3:cad>
          </ns3:TrackPointExtension>
        </extensions>
      </trkpt>
      <trkpt lat="38.02319037728011608123779296875" lon="-106.92353968508541584014892578125">
        <ele>4256.2001953125</ele>
        <time>2026-05-25T14:58:29.000Z</time>
        <extensions>
          <ns3:TrackPointExtension>
            <ns3:hr>88</ns3:hr>
            <ns3:cad>0</ns3:cad>
          </ns3:TrackPointExtension>
        </extensions>
      </trkpt>
      <trkpt lat="38.0231939814984798431396484375" lon="-106.92353968508541584014892578125">
        <ele>4256.39990234375</ele>
        <time>2026-05-25T14:58:35.000Z</time>
        <extensions>
          <ns3:TrackPointExtension>
            <ns3:hr>89</ns3:hr>
            <ns3:cad>0</ns3:cad>
          </ns3:TrackPointExtension>
        </extensions>
      </trkpt>
      <trkpt lat="38.0231939814984798431396484375" lon="-106.92353968508541584014892578125">
        <ele>4256.7998046875</ele>
        <time>2026-05-25T14:58:40.000Z</time>
        <extensions>
          <ns3:TrackPointExtension>
            <ns3:hr>87</ns3:hr>
            <ns3:cad>0</ns3:cad>
          </ns3:TrackPointExtension>
        </extensions>
      </trkpt>
      <trkpt lat="38.0231939814984798431396484375" lon="-106.92353968508541584014892578125">
        <ele>4256.7998046875</ele>
        <time>2026-05-25T14:58:46.000Z</time>
        <extensions>
          <ns3:TrackPointExtension>
            <ns3:hr>87</ns3:hr>
            <ns3:cad>0</ns3:cad>
          </ns3:TrackPointExtension>
        </extensions>
      </trkpt>
      <trkpt lat="38.0231939814984798431396484375" lon="-106.92353968508541584014892578125">
        <ele>4256.39990234375</ele>
        <time>2026-05-25T14:58:52.000Z</time>
        <extensions>
          <ns3:TrackPointExtension>
            <ns3:hr>90</ns3:hr>
            <ns3:cad>0</ns3:cad>
          </ns3:TrackPointExtension>
        </extensions>
      </trkpt>
      <trkpt lat="38.0231939814984798431396484375" lon="-106.92353968508541584014892578125">
        <ele>4256.39990234375</ele>
        <time>2026-05-25T14:58:56.000Z</time>
        <extensions>
          <ns3:TrackPointExtension>
            <ns3:hr>87</ns3:hr>
            <ns3:cad>0</ns3:cad>
          </ns3:TrackPointExtension>
        </extensions>
      </trkpt>
      <trkpt lat="38.0231939814984798431396484375" lon="-106.92353968508541584014892578125">
        <ele>4256.2001953125</ele>
        <time>2026-05-25T14:58:58.000Z</time>
        <extensions>
          <ns3:TrackPointExtension>
            <ns3:hr>83</ns3:hr>
            <ns3:cad>0</ns3:cad>
          </ns3:TrackPointExtension>
        </extensions>
      </trkpt>
      <trkpt lat="38.0231939814984798431396484375" lon="-106.92353968508541584014892578125">
        <ele>4256</ele>
        <time>2026-05-25T14:59:04.000Z</time>
        <extensions>
          <ns3:TrackPointExtension>
            <ns3:hr>81</ns3:hr>
            <ns3:cad>0</ns3:cad>
          </ns3:TrackPointExtension>
        </extensions>
      </trkpt>
      <trkpt lat="38.0231939814984798431396484375" lon="-106.92353968508541584014892578125">
        <ele>4256.2001953125</ele>
        <time>2026-05-25T14:59:10.000Z</time>
        <extensions>
          <ns3:TrackPointExtension>
            <ns3:hr>79</ns3:hr>
            <ns3:cad>0</ns3:cad>
          </ns3:TrackPointExtension>
        </extensions>
      </trkpt>
      <trkpt lat="38.0231939814984798431396484375" lon="-106.92353968508541584014892578125">
        <ele>4256</ele>
        <time>2026-05-25T14:59:12.000Z</time>
        <extensions>
          <ns3:TrackPointExtension>
            <ns3:hr>78</ns3:hr>
            <ns3:cad>0</ns3:cad>
          </ns3:TrackPointExtension>
        </extensions>
      </trkpt>
      <trkpt lat="38.0231939814984798431396484375" lon="-106.92353968508541584014892578125">
        <ele>4256.2001953125</ele>
        <time>2026-05-25T14:59:18.000Z</time>
        <extensions>
          <ns3:TrackPointExtension>
            <ns3:hr>79</ns3:hr>
            <ns3:cad>0</ns3:cad>
          </ns3:TrackPointExtension>
        </extensions>
      </trkpt>
      <trkpt lat="38.02320278249680995941162109375" lon="-106.9235541857779026031494140625">
        <ele>4256</ele>
        <time>2026-05-25T14:59:24.000Z</time>
        <extensions>
          <ns3:TrackPointExtension>
            <ns3:hr>81</ns3:hr>
            <ns3:cad>0</ns3:cad>
          </ns3:TrackPointExtension>
        </extensions>
      </trkpt>
      <trkpt lat="38.02320278249680995941162109375" lon="-106.9235541857779026031494140625">
        <ele>4256</ele>
        <time>2026-05-25T14:59:25.000Z</time>
        <extensions>
          <ns3:TrackPointExtension>
            <ns3:hr>81</ns3:hr>
            <ns3:cad>0</ns3:cad>
          </ns3:TrackPointExtension>
        </extensions>
      </trkpt>
      <trkpt lat="38.02320194430649280548095703125" lon="-106.92355359904468059539794921875">
        <ele>4256.2001953125</ele>
        <time>2026-05-25T14:59:29.000Z</time>
        <extensions>
          <ns3:TrackPointExtension>
            <ns3:hr>84</ns3:hr>
            <ns3:cad>0</ns3:cad>
          </ns3:TrackPointExtension>
        </extensions>
      </trkpt>
      <trkpt lat="38.02320278249680995941162109375" lon="-106.9235541857779026031494140625">
        <ele>4256.60009765625</ele>
        <time>2026-05-25T14:59:31.000Z</time>
        <extensions>
          <ns3:TrackPointExtension>
            <ns3:hr>84</ns3:hr>
            <ns3:cad>0</ns3:cad>
          </ns3:TrackPointExtension>
        </extensions>
      </trkpt>
      <trkpt lat="38.02319909445941448211669921875" lon="-106.92355192266404628753662109375">
        <ele>4257.2001953125</ele>
        <time>2026-05-25T14:59:33.000Z</time>
        <extensions>
          <ns3:TrackPointExtension>
            <ns3:hr>84</ns3:hr>
            <ns3:cad>0</ns3:cad>
          </ns3:TrackPointExtension>
        </extensions>
      </trkpt>
      <trkpt lat="38.02319942973554134368896484375" lon="-106.92354471422731876373291015625">
        <ele>4257.60009765625</ele>
        <time>2026-05-25T14:59:35.000Z</time>
        <extensions>
          <ns3:TrackPointExtension>
            <ns3:hr>83</ns3:hr>
            <ns3:cad>0</ns3:cad>
          </ns3:TrackPointExtension>
        </extensions>
      </trkpt>
      <trkpt lat="38.02320278249680995941162109375" lon="-106.9235541857779026031494140625">
        <ele>4256.7998046875</ele>
        <time>2026-05-25T14:59:41.000Z</time>
        <extensions>
          <ns3:TrackPointExtension>
            <ns3:hr>87</ns3:hr>
            <ns3:cad>0</ns3:cad>
          </ns3:TrackPointExtension>
        </extensions>
      </trkpt>
      <trkpt lat="38.02320278249680995941162109375" lon="-106.9235541857779026031494140625">
        <ele>4256.7998046875</ele>
        <time>2026-05-25T14:59:42.000Z</time>
        <extensions>
          <ns3:TrackPointExtension>
            <ns3:hr>93</ns3:hr>
            <ns3:cad>0</ns3:cad>
          </ns3:TrackPointExtension>
        </extensions>
      </trkpt>
      <trkpt lat="38.02320278249680995941162109375" lon="-106.9235541857779026031494140625">
        <ele>4256.7998046875</ele>
        <time>2026-05-25T14:59:43.000Z</time>
        <extensions>
          <ns3:TrackPointExtension>
            <ns3:hr>97</ns3:hr>
            <ns3:cad>0</ns3:cad>
          </ns3:TrackPointExtension>
        </extensions>
      </trkpt>
      <trkpt lat="38.02320278249680995941162109375" lon="-106.9235541857779026031494140625">
        <ele>4257</ele>
        <time>2026-05-25T14:59:44.000Z</time>
        <extensions>
          <ns3:TrackPointExtension>
            <ns3:hr>97</ns3:hr>
            <ns3:cad>0</ns3:cad>
          </ns3:TrackPointExtension>
        </extensions>
      </trkpt>
      <trkpt lat="38.02320278249680995941162109375" lon="-106.9235541857779026031494140625">
        <ele>4257.2001953125</ele>
        <time>2026-05-25T14:59:47.000Z</time>
        <extensions>
          <ns3:TrackPointExtension>
            <ns3:hr>96</ns3:hr>
            <ns3:cad>0</ns3:cad>
          </ns3:TrackPointExtension>
        </extensions>
      </trkpt>
      <trkpt lat="38.02320278249680995941162109375" lon="-106.9235541857779026031494140625">
        <ele>4257.39990234375</ele>
        <time>2026-05-25T14:59:49.000Z</time>
        <extensions>
          <ns3:TrackPointExtension>
            <ns3:hr>93</ns3:hr>
            <ns3:cad>0</ns3:cad>
          </ns3:TrackPointExtension>
        </extensions>
      </trkpt>
      <trkpt lat="38.02320278249680995941162109375" lon="-106.9235541857779026031494140625">
        <ele>4256.60009765625</ele>
        <time>2026-05-25T14:59:55.000Z</time>
        <extensions>
          <ns3:TrackPointExtension>
            <ns3:hr>94</ns3:hr>
            <ns3:cad>0</ns3:cad>
          </ns3:TrackPointExtension>
        </extensions>
      </trkpt>
      <trkpt lat="38.02320278249680995941162109375" lon="-106.9235541857779026031494140625">
        <ele>4256</ele>
        <time>2026-05-25T14:59:58.000Z</time>
        <extensions>
          <ns3:TrackPointExtension>
            <ns3:hr>93</ns3:hr>
            <ns3:cad>0</ns3:cad>
          </ns3:TrackPointExtension>
        </extensions>
      </trkpt>
      <trkpt lat="38.02320278249680995941162109375" lon="-106.9235541857779026031494140625">
        <ele>4255.7998046875</ele>
        <time>2026-05-25T15:00:01.000Z</time>
        <extensions>
          <ns3:TrackPointExtension>
            <ns3:hr>87</ns3:hr>
            <ns3:cad>0</ns3:cad>
          </ns3:TrackPointExtension>
        </extensions>
      </trkpt>
      <trkpt lat="38.02320278249680995941162109375" lon="-106.9235541857779026031494140625">
        <ele>4255.7998046875</ele>
        <time>2026-05-25T15:00:02.000Z</time>
        <extensions>
          <ns3:TrackPointExtension>
            <ns3:hr>87</ns3:hr>
            <ns3:cad>0</ns3:cad>
          </ns3:TrackPointExtension>
        </extensions>
      </trkpt>
      <trkpt lat="38.02320278249680995941162109375" lon="-106.9235541857779026031494140625">
        <ele>4256.2001953125</ele>
        <time>2026-05-25T15:00:08.000Z</time>
        <extensions>
          <ns3:TrackPointExtension>
            <ns3:hr>87</ns3:hr>
            <ns3:cad>0</ns3:cad>
          </ns3:TrackPointExtension>
        </extensions>
      </trkpt>
      <trkpt lat="38.02320278249680995941162109375" lon="-106.9235541857779026031494140625">
        <ele>4256.39990234375</ele>
        <time>2026-05-25T15:00:10.000Z</time>
        <extensions>
          <ns3:TrackPointExtension>
            <ns3:hr>84</ns3:hr>
            <ns3:cad>0</ns3:cad>
          </ns3:TrackPointExtension>
        </extensions>
      </trkpt>
      <trkpt lat="38.02320278249680995941162109375" lon="-106.9235541857779026031494140625">
        <ele>4256.39990234375</ele>
        <time>2026-05-25T15:00:16.000Z</time>
        <extensions>
          <ns3:TrackPointExtension>
            <ns3:hr>91</ns3:hr>
            <ns3:cad>0</ns3:cad>
          </ns3:TrackPointExtension>
        </extensions>
      </trkpt>
      <trkpt lat="38.02320278249680995941162109375" lon="-106.9235541857779026031494140625">
        <ele>4256.2001953125</ele>
        <time>2026-05-25T15:00:17.000Z</time>
        <extensions>
          <ns3:TrackPointExtension>
            <ns3:hr>96</ns3:hr>
            <ns3:cad>0</ns3:cad>
          </ns3:TrackPointExtension>
        </extensions>
      </trkpt>
      <trkpt lat="38.02320278249680995941162109375" lon="-106.9235541857779026031494140625">
        <ele>4256.2001953125</ele>
        <time>2026-05-25T15:00:18.000Z</time>
        <extensions>
          <ns3:TrackPointExtension>
            <ns3:hr>99</ns3:hr>
            <ns3:cad>0</ns3:cad>
          </ns3:TrackPointExtension>
        </extensions>
      </trkpt>
      <trkpt lat="38.02320278249680995941162109375" lon="-106.9235541857779026031494140625">
        <ele>4256.39990234375</ele>
        <time>2026-05-25T15:00:19.000Z</time>
        <extensions>
          <ns3:TrackPointExtension>
            <ns3:hr>103</ns3:hr>
            <ns3:cad>0</ns3:cad>
          </ns3:TrackPointExtension>
        </extensions>
      </trkpt>
      <trkpt lat="38.02320278249680995941162109375" lon="-106.9235541857779026031494140625">
        <ele>4256.7998046875</ele>
        <time>2026-05-25T15:00:23.000Z</time>
        <extensions>
          <ns3:TrackPointExtension>
            <ns3:hr>106</ns3:hr>
            <ns3:cad>0</ns3:cad>
          </ns3:TrackPointExtension>
        </extensions>
      </trkpt>
      <trkpt lat="38.02320278249680995941162109375" lon="-106.9235541857779026031494140625">
        <ele>4256.60009765625</ele>
        <time>2026-05-25T15:00:24.000Z</time>
        <extensions>
          <ns3:TrackPointExtension>
            <ns3:hr>105</ns3:hr>
            <ns3:cad>0</ns3:cad>
          </ns3:TrackPointExtension>
        </extensions>
      </trkpt>
      <trkpt lat="38.0232040397822856903076171875" lon="-106.92354354076087474822998046875">
        <ele>4256.60009765625</ele>
        <time>2026-05-25T15:00:30.000Z</time>
        <extensions>
          <ns3:TrackPointExtension>
            <ns3:hr>103</ns3:hr>
            <ns3:cad>0</ns3:cad>
          </ns3:TrackPointExtension>
        </extensions>
      </trkpt>
      <trkpt lat="38.02320395596325397491455078125" lon="-106.9235411100089550018310546875">
        <ele>4256.60009765625</ele>
        <time>2026-05-25T15:00:32.000Z</time>
        <extensions>
          <ns3:TrackPointExtension>
            <ns3:hr>102</ns3:hr>
            <ns3:cad>0</ns3:cad>
          </ns3:TrackPointExtension>
        </extensions>
      </trkpt>
      <trkpt lat="38.02320445887744426727294921875" lon="-106.92353524267673492431640625">
        <ele>4256.60009765625</ele>
        <time>2026-05-25T15:00:36.000Z</time>
        <extensions>
          <ns3:TrackPointExtension>
            <ns3:hr>99</ns3:hr>
            <ns3:cad>0</ns3:cad>
          </ns3:TrackPointExtension>
        </extensions>
      </trkpt>
      <trkpt lat="38.02320479415357112884521484375" lon="-106.9235354103147983551025390625">
        <ele>4256.7998046875</ele>
        <time>2026-05-25T15:00:41.000Z</time>
        <extensions>
          <ns3:TrackPointExtension>
            <ns3:hr>97</ns3:hr>
            <ns3:cad>0</ns3:cad>
          </ns3:TrackPointExtension>
        </extensions>
      </trkpt>
      <trkpt lat="38.02320479415357112884521484375" lon="-106.9235354103147983551025390625">
        <ele>4257.2001953125</ele>
        <time>2026-05-25T15:00:47.000Z</time>
        <extensions>
          <ns3:TrackPointExtension>
            <ns3:hr>96</ns3:hr>
            <ns3:cad>0</ns3:cad>
          </ns3:TrackPointExtension>
        </extensions>
      </trkpt>
      <trkpt lat="38.02320479415357112884521484375" lon="-106.9235354103147983551025390625">
        <ele>4257.2001953125</ele>
        <time>2026-05-25T15:00:49.000Z</time>
        <extensions>
          <ns3:TrackPointExtension>
            <ns3:hr>96</ns3:hr>
            <ns3:cad>0</ns3:cad>
          </ns3:TrackPointExtension>
        </extensions>
      </trkpt>
      <trkpt lat="38.02320479415357112884521484375" lon="-106.9235354103147983551025390625">
        <ele>4256.2001953125</ele>
        <time>2026-05-25T15:00:55.000Z</time>
        <extensions>
          <ns3:TrackPointExtension>
            <ns3:hr>96</ns3:hr>
            <ns3:cad>0</ns3:cad>
          </ns3:TrackPointExtension>
        </extensions>
      </trkpt>
      <trkpt lat="38.02320479415357112884521484375" lon="-106.9235354103147983551025390625">
        <ele>4256.60009765625</ele>
        <time>2026-05-25T15:01:00.000Z</time>
        <extensions>
          <ns3:TrackPointExtension>
            <ns3:hr>97</ns3:hr>
            <ns3:cad>0</ns3:cad>
          </ns3:TrackPointExtension>
        </extensions>
      </trkpt>
      <trkpt lat="38.02320479415357112884521484375" lon="-106.9235354103147983551025390625">
        <ele>4256.39990234375</ele>
        <time>2026-05-25T15:01:06.000Z</time>
        <extensions>
          <ns3:TrackPointExtension>
            <ns3:hr>94</ns3:hr>
            <ns3:cad>0</ns3:cad>
          </ns3:TrackPointExtension>
        </extensions>
      </trkpt>
      <trkpt lat="38.02320479415357112884521484375" lon="-106.9235354103147983551025390625">
        <ele>4256.39990234375</ele>
        <time>2026-05-25T15:01:08.000Z</time>
        <extensions>
          <ns3:TrackPointExtension>
            <ns3:hr>93</ns3:hr>
            <ns3:cad>0</ns3:cad>
          </ns3:TrackPointExtension>
        </extensions>
      </trkpt>
      <trkpt lat="38.02320479415357112884521484375" lon="-106.9235354103147983551025390625">
        <ele>4256.2001953125</ele>
        <time>2026-05-25T15:01:12.000Z</time>
        <extensions>
          <ns3:TrackPointExtension>
            <ns3:hr>93</ns3:hr>
            <ns3:cad>0</ns3:cad>
          </ns3:TrackPointExtension>
        </extensions>
      </trkpt>
      <trkpt lat="38.02320621907711029052734375" lon="-106.923534907400608062744140625">
        <ele>4256</ele>
        <time>2026-05-25T15:01:16.000Z</time>
        <extensions>
          <ns3:TrackPointExtension>
            <ns3:hr>88</ns3:hr>
            <ns3:cad>0</ns3:cad>
          </ns3:TrackPointExtension>
        </extensions>
      </trkpt>
      <trkpt lat="38.02320345304906368255615234375" lon="-106.9235350750386714935302734375">
        <ele>4256.2001953125</ele>
        <time>2026-05-25T15:01:18.000Z</time>
        <extensions>
          <ns3:TrackPointExtension>
            <ns3:hr>85</ns3:hr>
            <ns3:cad>0</ns3:cad>
          </ns3:TrackPointExtension>
        </extensions>
      </trkpt>
      <trkpt lat="38.02320479415357112884521484375" lon="-106.9235354103147983551025390625">
        <ele>4256</ele>
        <time>2026-05-25T15:01:24.000Z</time>
        <extensions>
          <ns3:TrackPointExtension>
            <ns3:hr>86</ns3:hr>
            <ns3:cad>0</ns3:cad>
          </ns3:TrackPointExtension>
        </extensions>
      </trkpt>
      <trkpt lat="38.023201860487461090087890625" lon="-106.9235364161431789398193359375">
        <ele>4256.2001953125</ele>
        <time>2026-05-25T15:01:25.000Z</time>
        <extensions>
          <ns3:TrackPointExtension>
            <ns3:hr>86</ns3:hr>
            <ns3:cad>0</ns3:cad>
          </ns3:TrackPointExtension>
        </extensions>
      </trkpt>
      <trkpt lat="38.02320211194455623626708984375" lon="-106.92354194819927215576171875">
        <ele>4256.2001953125</ele>
        <time>2026-05-25T15:01:29.000Z</time>
        <extensions>
          <ns3:TrackPointExtension>
            <ns3:hr>88</ns3:hr>
            <ns3:cad>0</ns3:cad>
          </ns3:TrackPointExtension>
        </extensions>
      </trkpt>
      <trkpt lat="38.02320479415357112884521484375" lon="-106.9235354103147983551025390625">
        <ele>4256</ele>
        <time>2026-05-25T15:01:35.000Z</time>
        <extensions>
          <ns3:TrackPointExtension>
            <ns3:hr>87</ns3:hr>
            <ns3:cad>0</ns3:cad>
          </ns3:TrackPointExtension>
        </extensions>
      </trkpt>
      <trkpt lat="38.02320479415357112884521484375" lon="-106.9235354103147983551025390625">
        <ele>4255.60009765625</ele>
        <time>2026-05-25T15:01:37.000Z</time>
        <extensions>
          <ns3:TrackPointExtension>
            <ns3:hr>84</ns3:hr>
            <ns3:cad>0</ns3:cad>
          </ns3:TrackPointExtension>
        </extensions>
      </trkpt>
      <trkpt lat="38.02320479415357112884521484375" lon="-106.9235354103147983551025390625">
        <ele>4255.39990234375</ele>
        <time>2026-05-25T15:01:43.000Z</time>
        <extensions>
          <ns3:TrackPointExtension>
            <ns3:hr>87</ns3:hr>
            <ns3:cad>0</ns3:cad>
          </ns3:TrackPointExtension>
        </extensions>
      </trkpt>
      <trkpt lat="38.02320479415357112884521484375" lon="-106.9235354103147983551025390625">
        <ele>4255.2001953125</ele>
        <time>2026-05-25T15:01:44.000Z</time>
        <extensions>
          <ns3:TrackPointExtension>
            <ns3:hr>90</ns3:hr>
            <ns3:cad>0</ns3:cad>
          </ns3:TrackPointExtension>
        </extensions>
      </trkpt>
      <trkpt lat="38.02320479415357112884521484375" lon="-106.9235354103147983551025390625">
        <ele>4255.2001953125</ele>
        <time>2026-05-25T15:01:45.000Z</time>
        <extensions>
          <ns3:TrackPointExtension>
            <ns3:hr>94</ns3:hr>
            <ns3:cad>0</ns3:cad>
          </ns3:TrackPointExtension>
        </extensions>
      </trkpt>
      <trkpt lat="38.02320479415357112884521484375" lon="-106.9235354103147983551025390625">
        <ele>4255.2001953125</ele>
        <time>2026-05-25T15:01:46.000Z</time>
        <extensions>
          <ns3:TrackPointExtension>
            <ns3:hr>93</ns3:hr>
            <ns3:cad>0</ns3:cad>
          </ns3:TrackPointExtension>
        </extensions>
      </trkpt>
      <trkpt lat="38.02320479415357112884521484375" lon="-106.9235354103147983551025390625">
        <ele>4255.7998046875</ele>
        <time>2026-05-25T15:01:48.000Z</time>
        <extensions>
          <ns3:TrackPointExtension>
            <ns3:hr>95</ns3:hr>
            <ns3:cad>0</ns3:cad>
          </ns3:TrackPointExtension>
        </extensions>
      </trkpt>
      <trkpt lat="38.0231963284313678741455078125" lon="-106.9235625676810741424560546875">
        <ele>4256.60009765625</ele>
        <time>2026-05-25T15:01:53.000Z</time>
        <extensions>
          <ns3:TrackPointExtension>
            <ns3:hr>99</ns3:hr>
            <ns3:cad>0</ns3:cad>
          </ns3:TrackPointExtension>
        </extensions>
      </trkpt>
      <trkpt lat="38.023188114166259765625" lon="-106.92356608808040618896484375">
        <ele>4256.7998046875</ele>
        <time>2026-05-25T15:01:54.000Z</time>
        <extensions>
          <ns3:TrackPointExtension>
            <ns3:hr>99</ns3:hr>
            <ns3:cad>0</ns3:cad>
          </ns3:TrackPointExtension>
        </extensions>
      </trkpt>
      <trkpt lat="38.0231599509716033935546875" lon="-106.92362484522163867950439453125">
        <ele>4255.39990234375</ele>
        <time>2026-05-25T15:02:00.000Z</time>
        <extensions>
          <ns3:TrackPointExtension>
            <ns3:hr>98</ns3:hr>
            <ns3:cad>0</ns3:cad>
          </ns3:TrackPointExtension>
        </extensions>
      </trkpt>
      <trkpt lat="38.023143522441387176513671875" lon="-106.92364990711212158203125">
        <ele>4255.39990234375</ele>
        <time>2026-05-25T15:02:06.000Z</time>
        <extensions>
          <ns3:TrackPointExtension>
            <ns3:hr>98</ns3:hr>
            <ns3:cad>0</ns3:cad>
          </ns3:TrackPointExtension>
        </extensions>
      </trkpt>
      <trkpt lat="38.023143522441387176513671875" lon="-106.92364990711212158203125">
        <ele>4255.60009765625</ele>
        <time>2026-05-25T15:02:11.000Z</time>
        <extensions>
          <ns3:TrackPointExtension>
            <ns3:hr>95</ns3:hr>
            <ns3:cad>0</ns3:cad>
          </ns3:TrackPointExtension>
        </extensions>
      </trkpt>
      <trkpt lat="38.023143522441387176513671875" lon="-106.92364990711212158203125">
        <ele>4256</ele>
        <time>2026-05-25T15:02:14.000Z</time>
        <extensions>
          <ns3:TrackPointExtension>
            <ns3:hr>92</ns3:hr>
            <ns3:cad>0</ns3:cad>
          </ns3:TrackPointExtension>
        </extensions>
      </trkpt>
      <trkpt lat="38.023143522441387176513671875" lon="-106.92364990711212158203125">
        <ele>4256.2001953125</ele>
        <time>2026-05-25T15:02:15.000Z</time>
        <extensions>
          <ns3:TrackPointExtension>
            <ns3:hr>87</ns3:hr>
            <ns3:cad>0</ns3:cad>
          </ns3:TrackPointExtension>
        </extensions>
      </trkpt>
      <trkpt lat="38.023143522441387176513671875" lon="-106.92364990711212158203125">
        <ele>4256.39990234375</ele>
        <time>2026-05-25T15:02:16.000Z</time>
        <extensions>
          <ns3:TrackPointExtension>
            <ns3:hr>84</ns3:hr>
            <ns3:cad>0</ns3:cad>
          </ns3:TrackPointExtension>
        </extensions>
      </trkpt>
      <trkpt lat="38.023122735321521759033203125" lon="-106.923676393926143646240234375">
        <ele>4256.60009765625</ele>
        <time>2026-05-25T15:02:19.000Z</time>
        <extensions>
          <ns3:TrackPointExtension>
            <ns3:hr>81</ns3:hr>
            <ns3:cad>0</ns3:cad>
          </ns3:TrackPointExtension>
        </extensions>
      </trkpt>
      <trkpt lat="38.02310219965875148773193359375" lon="-106.9236970134079456329345703125">
        <ele>4255.7998046875</ele>
        <time>2026-05-25T15:02:22.000Z</time>
        <extensions>
          <ns3:TrackPointExtension>
            <ns3:hr>80</ns3:hr>
            <ns3:cad>0</ns3:cad>
          </ns3:TrackPointExtension>
        </extensions>
      </trkpt>
      <trkpt lat="38.023090548813343048095703125" lon="-106.92371587269008159637451171875">
        <ele>4255.60009765625</ele>
        <time>2026-05-25T15:02:25.000Z</time>
        <extensions>
          <ns3:TrackPointExtension>
            <ns3:hr>80</ns3:hr>
            <ns3:cad>0</ns3:cad>
          </ns3:TrackPointExtension>
        </extensions>
      </trkpt>
      <trkpt lat="38.02306900732219219207763671875" lon="-106.92375116050243377685546875">
        <ele>4255.7998046875</ele>
        <time>2026-05-25T15:02:28.000Z</time>
        <extensions>
          <ns3:TrackPointExtension>
            <ns3:hr>82</ns3:hr>
            <ns3:cad>0</ns3:cad>
          </ns3:TrackPointExtension>
        </extensions>
      </trkpt>
      <trkpt lat="38.023046962916851043701171875" lon="-106.92379516549408435821533203125">
        <ele>4255</ele>
        <time>2026-05-25T15:02:32.000Z</time>
        <extensions>
          <ns3:TrackPointExtension>
            <ns3:hr>80</ns3:hr>
            <ns3:cad>68</ns3:cad>
          </ns3:TrackPointExtension>
        </extensions>
      </trkpt>
      <trkpt lat="38.02303900010883808135986328125" lon="-106.923821233212947845458984375">
        <ele>4254.7998046875</ele>
        <time>2026-05-25T15:02:35.000Z</time>
        <extensions>
          <ns3:TrackPointExtension>
            <ns3:hr>81</ns3:hr>
            <ns3:cad>0</ns3:cad>
          </ns3:TrackPointExtension>
        </extensions>
      </trkpt>
      <trkpt lat="38.023008741438388824462890625" lon="-106.9238577783107757568359375">
        <ele>4254.2001953125</ele>
        <time>2026-05-25T15:02:41.000Z</time>
        <extensions>
          <ns3:TrackPointExtension>
            <ns3:hr>83</ns3:hr>
            <ns3:cad>0</ns3:cad>
          </ns3:TrackPointExtension>
        </extensions>
      </trkpt>
      <trkpt lat="38.02298217080533504486083984375" lon="-106.9238991849124431610107421875">
        <ele>4254.2001953125</ele>
        <time>2026-05-25T15:02:46.000Z</time>
        <extensions>
          <ns3:TrackPointExtension>
            <ns3:hr>82</ns3:hr>
            <ns3:cad>0</ns3:cad>
          </ns3:TrackPointExtension>
        </extensions>
      </trkpt>
      <trkpt lat="38.02295786328613758087158203125" lon="-106.92392709665000438690185546875">
        <ele>4253.60009765625</ele>
        <time>2026-05-25T15:02:50.000Z</time>
        <extensions>
          <ns3:TrackPointExtension>
            <ns3:hr>81</ns3:hr>
            <ns3:cad>15</ns3:cad>
          </ns3:TrackPointExtension>
        </extensions>
      </trkpt>
      <trkpt lat="38.02293053828179836273193359375" lon="-106.923938579857349395751953125">
        <ele>4252.39990234375</ele>
        <time>2026-05-25T15:02:53.000Z</time>
        <extensions>
          <ns3:TrackPointExtension>
            <ns3:hr>80</ns3:hr>
            <ns3:cad>15</ns3:cad>
          </ns3:TrackPointExtension>
        </extensions>
      </trkpt>
      <trkpt lat="38.022911846637725830078125" lon="-106.92394159734249114990234375">
        <ele>4251.2001953125</ele>
        <time>2026-05-25T15:02:56.000Z</time>
        <extensions>
          <ns3:TrackPointExtension>
            <ns3:hr>80</ns3:hr>
            <ns3:cad>15</ns3:cad>
          </ns3:TrackPointExtension>
        </extensions>
      </trkpt>
      <trkpt lat="38.02287069149315357208251953125" lon="-106.9239726103842258453369140625">
        <ele>4251</ele>
        <time>2026-05-25T15:03:00.000Z</time>
        <extensions>
          <ns3:TrackPointExtension>
            <ns3:hr>82</ns3:hr>
            <ns3:cad>15</ns3:cad>
          </ns3:TrackPointExtension>
        </extensions>
      </trkpt>
      <trkpt lat="38.02282894961535930633544921875" lon="-106.92405265755951404571533203125">
        <ele>4251.60009765625</ele>
        <time>2026-05-25T15:03:06.000Z</time>
        <extensions>
          <ns3:TrackPointExtension>
            <ns3:hr>83</ns3:hr>
            <ns3:cad>0</ns3:cad>
          </ns3:TrackPointExtension>
        </extensions>
      </trkpt>
      <trkpt lat="38.02278821356594562530517578125" lon="-106.92411267198622226715087890625">
        <ele>4251</ele>
        <time>2026-05-25T15:03:12.000Z</time>
        <extensions>
          <ns3:TrackPointExtension>
            <ns3:hr>81</ns3:hr>
            <ns3:cad>54</ns3:cad>
          </ns3:TrackPointExtension>
        </extensions>
      </trkpt>
      <trkpt lat="38.02274278365075588226318359375" lon="-106.9241982512176036834716796875">
        <ele>4251.2001953125</ele>
        <time>2026-05-25T15:03:18.000Z</time>
        <extensions>
          <ns3:TrackPointExtension>
            <ns3:hr>81</ns3:hr>
            <ns3:cad>54</ns3:cad>
          </ns3:TrackPointExtension>
        </extensions>
      </trkpt>
      <trkpt lat="38.0227017961442470550537109375" lon="-106.9242842495441436767578125">
        <ele>4251.60009765625</ele>
        <time>2026-05-25T15:03:24.000Z</time>
        <extensions>
          <ns3:TrackPointExtension>
            <ns3:hr>81</ns3:hr>
            <ns3:cad>56</ns3:cad>
          </ns3:TrackPointExtension>
        </extensions>
      </trkpt>
      <trkpt lat="38.02268343977630138397216796875" lon="-106.9243236444890499114990234375">
        <ele>4251.7998046875</ele>
        <time>2026-05-25T15:03:27.000Z</time>
        <extensions>
          <ns3:TrackPointExtension>
            <ns3:hr>84</ns3:hr>
            <ns3:cad>54</ns3:cad>
          </ns3:TrackPointExtension>
        </extensions>
      </trkpt>
      <trkpt lat="38.02266818471252918243408203125" lon="-106.92437720485031604766845703125">
        <ele>4251.39990234375</ele>
        <time>2026-05-25T15:03:31.000Z</time>
        <extensions>
          <ns3:TrackPointExtension>
            <ns3:hr>85</ns3:hr>
            <ns3:cad>55</ns3:cad>
          </ns3:TrackPointExtension>
        </extensions>
      </trkpt>
      <trkpt lat="38.02263893187046051025390625" lon="-106.92444895394146442413330078125">
        <ele>4251.2001953125</ele>
        <time>2026-05-25T15:03:37.000Z</time>
        <extensions>
          <ns3:TrackPointExtension>
            <ns3:hr>84</ns3:hr>
            <ns3:cad>0</ns3:cad>
          </ns3:TrackPointExtension>
        </extensions>
      </trkpt>
      <trkpt lat="38.022633902728557586669921875" lon="-106.92445456981658935546875">
        <ele>4251</ele>
        <time>2026-05-25T15:03:38.000Z</time>
        <extensions>
          <ns3:TrackPointExtension>
            <ns3:hr>84</ns3:hr>
            <ns3:cad>0</ns3:cad>
          </ns3:TrackPointExtension>
        </extensions>
      </trkpt>
      <trkpt lat="38.0225938372313976287841796875" lon="-106.92448784597218036651611328125">
        <ele>4250.60009765625</ele>
        <time>2026-05-25T15:03:44.000Z</time>
        <extensions>
          <ns3:TrackPointExtension>
            <ns3:hr>84</ns3:hr>
            <ns3:cad>0</ns3:cad>
          </ns3:TrackPointExtension>
        </extensions>
      </trkpt>
      <trkpt lat="38.022582940757274627685546875" lon="-106.924496479332447052001953125">
        <ele>4250.2001953125</ele>
        <time>2026-05-25T15:03:47.000Z</time>
        <extensions>
          <ns3:TrackPointExtension>
            <ns3:hr>85</ns3:hr>
            <ns3:cad>0</ns3:cad>
          </ns3:TrackPointExtension>
        </extensions>
      </trkpt>
      <trkpt lat="38.02257682196795940399169921875" lon="-106.9245107285678386688232421875">
        <ele>4250</ele>
        <time>2026-05-25T15:03:48.000Z</time>
        <extensions>
          <ns3:TrackPointExtension>
            <ns3:hr>85</ns3:hr>
            <ns3:cad>0</ns3:cad>
          </ns3:TrackPointExtension>
        </extensions>
      </trkpt>
      <trkpt lat="38.02256441675126552581787109375" lon="-106.9245311804115772247314453125">
        <ele>4249.39990234375</ele>
        <time>2026-05-25T15:03:51.000Z</time>
        <extensions>
          <ns3:TrackPointExtension>
            <ns3:hr>86</ns3:hr>
            <ns3:cad>0</ns3:cad>
          </ns3:TrackPointExtension>
        </extensions>
      </trkpt>
      <trkpt lat="38.022557795047760009765625" lon="-106.92454450763761997222900390625">
        <ele>4249.2001953125</ele>
        <time>2026-05-25T15:03:54.000Z</time>
        <extensions>
          <ns3:TrackPointExtension>
            <ns3:hr>85</ns3:hr>
            <ns3:cad>0</ns3:cad>
          </ns3:TrackPointExtension>
        </extensions>
      </trkpt>
      <trkpt lat="38.0225428752601146697998046875" lon="-106.9245658814907073974609375">
        <ele>4248.7998046875</ele>
        <time>2026-05-25T15:03:59.000Z</time>
        <extensions>
          <ns3:TrackPointExtension>
            <ns3:hr>86</ns3:hr>
            <ns3:cad>0</ns3:cad>
          </ns3:TrackPointExtension>
        </extensions>
      </trkpt>
      <trkpt lat="38.0225296318531036376953125" lon="-106.92458130419254302978515625">
        <ele>4248.2001953125</ele>
        <time>2026-05-25T15:04:04.000Z</time>
        <extensions>
          <ns3:TrackPointExtension>
            <ns3:hr>88</ns3:hr>
            <ns3:cad>0</ns3:cad>
          </ns3:TrackPointExtension>
        </extensions>
      </trkpt>
      <trkpt lat="38.02251563407480716705322265625" lon="-106.9245952181518077850341796875">
        <ele>4247.60009765625</ele>
        <time>2026-05-25T15:04:07.000Z</time>
        <extensions>
          <ns3:TrackPointExtension>
            <ns3:hr>88</ns3:hr>
            <ns3:cad>0</ns3:cad>
          </ns3:TrackPointExtension>
        </extensions>
      </trkpt>
      <trkpt lat="38.0225028097629547119140625" lon="-106.92460586316883563995361328125">
        <ele>4247</ele>
        <time>2026-05-25T15:04:09.000Z</time>
        <extensions>
          <ns3:TrackPointExtension>
            <ns3:hr>89</ns3:hr>
            <ns3:cad>0</ns3:cad>
          </ns3:TrackPointExtension>
        </extensions>
      </trkpt>
      <trkpt lat="38.02248604595661163330078125" lon="-106.924615167081356048583984375">
        <ele>4246</ele>
        <time>2026-05-25T15:04:13.000Z</time>
        <extensions>
          <ns3:TrackPointExtension>
            <ns3:hr>91</ns3:hr>
            <ns3:cad>0</ns3:cad>
          </ns3:TrackPointExtension>
        </extensions>
      </trkpt>
      <trkpt lat="38.022483699023723602294921875" lon="-106.924616508185863494873046875">
        <ele>4246</ele>
        <time>2026-05-25T15:04:14.000Z</time>
        <extensions>
          <ns3:TrackPointExtension>
            <ns3:hr>91</ns3:hr>
            <ns3:cad>0</ns3:cad>
          </ns3:TrackPointExtension>
        </extensions>
      </trkpt>
      <trkpt lat="38.02247506566345691680908203125" lon="-106.92463184706866741180419921875">
        <ele>4245.2001953125</ele>
        <time>2026-05-25T15:04:17.000Z</time>
        <extensions>
          <ns3:TrackPointExtension>
            <ns3:hr>94</ns3:hr>
            <ns3:cad>0</ns3:cad>
          </ns3:TrackPointExtension>
        </extensions>
      </trkpt>
      <trkpt lat="38.02246727049350738525390625" lon="-106.9246438331902027130126953125">
        <ele>4245.2001953125</ele>
        <time>2026-05-25T15:04:20.000Z</time>
        <extensions>
          <ns3:TrackPointExtension>
            <ns3:hr>95</ns3:hr>
            <ns3:cad>55</ns3:cad>
          </ns3:TrackPointExtension>
        </extensions>
      </trkpt>
      <trkpt lat="38.022452183067798614501953125" lon="-106.9246833957731723785400390625">
        <ele>4244.7998046875</ele>
        <time>2026-05-25T15:04:26.000Z</time>
        <extensions>
          <ns3:TrackPointExtension>
            <ns3:hr>94</ns3:hr>
            <ns3:cad>0</ns3:cad>
          </ns3:TrackPointExtension>
        </extensions>
      </trkpt>
      <trkpt lat="38.02245075814425945281982421875" lon="-106.924687922000885009765625">
        <ele>4244.7998046875</ele>
        <time>2026-05-25T15:04:27.000Z</time>
        <extensions>
          <ns3:TrackPointExtension>
            <ns3:hr>93</ns3:hr>
            <ns3:cad>0</ns3:cad>
          </ns3:TrackPointExtension>
        </extensions>
      </trkpt>
      <trkpt lat="38.02244958467781543731689453125" lon="-106.9247035123407840728759765625">
        <ele>4244.2001953125</ele>
        <time>2026-05-25T15:04:33.000Z</time>
        <extensions>
          <ns3:TrackPointExtension>
            <ns3:hr>93</ns3:hr>
            <ns3:cad>0</ns3:cad>
          </ns3:TrackPointExtension>
        </extensions>
      </trkpt>
      <trkpt lat="38.02245126105844974517822265625" lon="-106.92471097223460674285888671875">
        <ele>4244.2001953125</ele>
        <time>2026-05-25T15:04:35.000Z</time>
        <extensions>
          <ns3:TrackPointExtension>
            <ns3:hr>93</ns3:hr>
            <ns3:cad>0</ns3:cad>
          </ns3:TrackPointExtension>
        </extensions>
      </trkpt>
      <trkpt lat="38.02244656719267368316650390625" lon="-106.92472756840288639068603515625">
        <ele>4243.60009765625</ele>
        <time>2026-05-25T15:04:38.000Z</time>
        <extensions>
          <ns3:TrackPointExtension>
            <ns3:hr>93</ns3:hr>
            <ns3:cad>0</ns3:cad>
          </ns3:TrackPointExtension>
        </extensions>
      </trkpt>
      <trkpt lat="38.02243734709918498992919921875" lon="-106.9247457571327686309814453125">
        <ele>4242.60009765625</ele>
        <time>2026-05-25T15:04:40.000Z</time>
        <extensions>
          <ns3:TrackPointExtension>
            <ns3:hr>90</ns3:hr>
            <ns3:cad>0</ns3:cad>
          </ns3:TrackPointExtension>
        </extensions>
      </trkpt>
      <trkpt lat="38.02243600599467754364013671875" lon="-106.92474818788468837738037109375">
        <ele>4242.2001953125</ele>
        <time>2026-05-25T15:04:41.000Z</time>
        <extensions>
          <ns3:TrackPointExtension>
            <ns3:hr>87</ns3:hr>
            <ns3:cad>0</ns3:cad>
          </ns3:TrackPointExtension>
        </extensions>
      </trkpt>
      <trkpt lat="38.0224329046905040740966796875" lon="-106.92475221119821071624755859375">
        <ele>4242</ele>
        <time>2026-05-25T15:04:42.000Z</time>
        <extensions>
          <ns3:TrackPointExtension>
            <ns3:hr>84</ns3:hr>
            <ns3:cad>0</ns3:cad>
          </ns3:TrackPointExtension>
        </extensions>
      </trkpt>
      <trkpt lat="38.022427372634410858154296875" lon="-106.9247554801404476165771484375">
        <ele>4241.7998046875</ele>
        <time>2026-05-25T15:04:43.000Z</time>
        <extensions>
          <ns3:TrackPointExtension>
            <ns3:hr>80</ns3:hr>
            <ns3:cad>0</ns3:cad>
          </ns3:TrackPointExtension>
        </extensions>
      </trkpt>
      <trkpt lat="38.02240633405745029449462890625" lon="-106.924766041338443756103515625">
        <ele>4241.39990234375</ele>
        <time>2026-05-25T15:04:46.000Z</time>
        <extensions>
          <ns3:TrackPointExtension>
            <ns3:hr>77</ns3:hr>
            <ns3:cad>75</ns3:cad>
          </ns3:TrackPointExtension>
        </extensions>
      </trkpt>
      <trkpt lat="38.02239057607948780059814453125" lon="-106.92477718926966190338134765625">
        <ele>4241.2001953125</ele>
        <time>2026-05-25T15:04:48.000Z</time>
        <extensions>
          <ns3:TrackPointExtension>
            <ns3:hr>76</ns3:hr>
            <ns3:cad>75</ns3:cad>
          </ns3:TrackPointExtension>
        </extensions>
      </trkpt>
      <trkpt lat="38.02238655276596546173095703125" lon="-106.9247826375067234039306640625">
        <ele>4241.2001953125</ele>
        <time>2026-05-25T15:04:49.000Z</time>
        <extensions>
          <ns3:TrackPointExtension>
            <ns3:hr>76</ns3:hr>
            <ns3:cad>75</ns3:cad>
          </ns3:TrackPointExtension>
        </extensions>
      </trkpt>
      <trkpt lat="38.02237817086279392242431640625" lon="-106.92480870522558689117431640625">
        <ele>4241</ele>
        <time>2026-05-25T15:04:55.000Z</time>
        <extensions>
          <ns3:TrackPointExtension>
            <ns3:hr>77</ns3:hr>
            <ns3:cad>0</ns3:cad>
          </ns3:TrackPointExtension>
        </extensions>
      </trkpt>
      <trkpt lat="38.0223698727786540985107421875" lon="-106.9248178415000438690185546875">
        <ele>4240.7998046875</ele>
        <time>2026-05-25T15:04:56.000Z</time>
        <extensions>
          <ns3:TrackPointExtension>
            <ns3:hr>77</ns3:hr>
            <ns3:cad>0</ns3:cad>
          </ns3:TrackPointExtension>
        </extensions>
      </trkpt>
      <trkpt lat="38.022365681827068328857421875" lon="-106.9248329289257526397705078125">
        <ele>4240</ele>
        <time>2026-05-25T15:04:59.000Z</time>
        <extensions>
          <ns3:TrackPointExtension>
            <ns3:hr>77</ns3:hr>
            <ns3:cad>45</ns3:cad>
          </ns3:TrackPointExtension>
        </extensions>
      </trkpt>
      <trkpt lat="38.022344224154949188232421875" lon="-106.92485966719686985015869140625">
        <ele>4239.2001953125</ele>
        <time>2026-05-25T15:05:03.000Z</time>
        <extensions>
          <ns3:TrackPointExtension>
            <ns3:hr>77</ns3:hr>
            <ns3:cad>0</ns3:cad>
          </ns3:TrackPointExtension>
        </extensions>
      </trkpt>
      <trkpt lat="38.02231597714126110076904296875" lon="-106.9248956255614757537841796875">
        <ele>4239.2001953125</ele>
        <time>2026-05-25T15:05:09.000Z</time>
        <extensions>
          <ns3:TrackPointExtension>
            <ns3:hr>78</ns3:hr>
            <ns3:cad>0</ns3:cad>
          </ns3:TrackPointExtension>
        </extensions>
      </trkpt>
      <trkpt lat="38.022313378751277923583984375" lon="-106.9248922728002071380615234375">
        <ele>4239</ele>
        <time>2026-05-25T15:05:11.000Z</time>
        <extensions>
          <ns3:TrackPointExtension>
            <ns3:hr>79</ns3:hr>
            <ns3:cad>0</ns3:cad>
          </ns3:TrackPointExtension>
        </extensions>
      </trkpt>
      <trkpt lat="38.022282533347606658935546875" lon="-106.92490995861589908599853515625">
        <ele>4238</ele>
        <time>2026-05-25T15:05:14.000Z</time>
        <extensions>
          <ns3:TrackPointExtension>
            <ns3:hr>80</ns3:hr>
            <ns3:cad>0</ns3:cad>
          </ns3:TrackPointExtension>
        </extensions>
      </trkpt>
      <trkpt lat="38.02226585336029529571533203125" lon="-106.92493074573576450347900390625">
        <ele>4237</ele>
        <time>2026-05-25T15:05:19.000Z</time>
        <extensions>
          <ns3:TrackPointExtension>
            <ns3:hr>82</ns3:hr>
            <ns3:cad>0</ns3:cad>
          </ns3:TrackPointExtension>
        </extensions>
      </trkpt>
      <trkpt lat="38.0222575552761554718017578125" lon="-106.92494734190404415130615234375">
        <ele>4236.7998046875</ele>
        <time>2026-05-25T15:05:21.000Z</time>
        <extensions>
          <ns3:TrackPointExtension>
            <ns3:hr>82</ns3:hr>
            <ns3:cad>0</ns3:cad>
          </ns3:TrackPointExtension>
        </extensions>
      </trkpt>
      <trkpt lat="38.02225864492356777191162109375" lon="-106.92496796138584613800048828125">
        <ele>4236.7998046875</ele>
        <time>2026-05-25T15:05:24.000Z</time>
        <extensions>
          <ns3:TrackPointExtension>
            <ns3:hr>85</ns3:hr>
            <ns3:cad>0</ns3:cad>
          </ns3:TrackPointExtension>
        </extensions>
      </trkpt>
      <trkpt lat="38.02226317115128040313720703125" lon="-106.92497684620320796966552734375">
        <ele>4236.60009765625</ele>
        <time>2026-05-25T15:05:26.000Z</time>
        <extensions>
          <ns3:TrackPointExtension>
            <ns3:hr>87</ns3:hr>
            <ns3:cad>0</ns3:cad>
          </ns3:TrackPointExtension>
        </extensions>
      </trkpt>
      <trkpt lat="38.0222528614103794097900390625" lon="-106.9249958731234073638916015625">
        <ele>4235.7998046875</ele>
        <time>2026-05-25T15:05:29.000Z</time>
        <extensions>
          <ns3:TrackPointExtension>
            <ns3:hr>88</ns3:hr>
            <ns3:cad>75</ns3:cad>
          </ns3:TrackPointExtension>
        </extensions>
      </trkpt>
      <trkpt lat="38.02224506624042987823486328125" lon="-106.9250320829451084136962890625">
        <ele>4235.2001953125</ele>
        <time>2026-05-25T15:05:32.000Z</time>
        <extensions>
          <ns3:TrackPointExtension>
            <ns3:hr>89</ns3:hr>
            <ns3:cad>68</ns3:cad>
          </ns3:TrackPointExtension>
        </extensions>
      </trkpt>
      <trkpt lat="38.02225646562874317169189453125" lon="-106.92504323087632656097412109375">
        <ele>4234.7998046875</ele>
        <time>2026-05-25T15:05:35.000Z</time>
        <extensions>
          <ns3:TrackPointExtension>
            <ns3:hr>89</ns3:hr>
            <ns3:cad>0</ns3:cad>
          </ns3:TrackPointExtension>
        </extensions>
      </trkpt>
      <trkpt lat="38.02227281033992767333984375" lon="-106.92505043931305408477783203125">
        <ele>4234.60009765625</ele>
        <time>2026-05-25T15:05:38.000Z</time>
        <extensions>
          <ns3:TrackPointExtension>
            <ns3:hr>89</ns3:hr>
            <ns3:cad>0</ns3:cad>
          </ns3:TrackPointExtension>
        </extensions>
      </trkpt>
      <trkpt lat="38.02226602099835872650146484375" lon="-106.9250760041177272796630859375">
        <ele>4233.60009765625</ele>
        <time>2026-05-25T15:05:43.000Z</time>
        <extensions>
          <ns3:TrackPointExtension>
            <ns3:hr>90</ns3:hr>
            <ns3:cad>0</ns3:cad>
          </ns3:TrackPointExtension>
        </extensions>
      </trkpt>
      <trkpt lat="38.02226048894226551055908203125" lon="-106.92508430220186710357666015625">
        <ele>4233</ele>
        <time>2026-05-25T15:05:45.000Z</time>
        <extensions>
          <ns3:TrackPointExtension>
            <ns3:hr>90</ns3:hr>
            <ns3:cad>0</ns3:cad>
          </ns3:TrackPointExtension>
        </extensions>
      </trkpt>
      <trkpt lat="38.022257722914218902587890625" lon="-106.92509938962757587432861328125">
        <ele>4232.60009765625</ele>
        <time>2026-05-25T15:05:48.000Z</time>
        <extensions>
          <ns3:TrackPointExtension>
            <ns3:hr>88</ns3:hr>
            <ns3:cad>0</ns3:cad>
          </ns3:TrackPointExtension>
        </extensions>
      </trkpt>
      <trkpt lat="38.022257722914218902587890625" lon="-106.92509938962757587432861328125">
        <ele>4232.60009765625</ele>
        <time>2026-05-25T15:05:52.000Z</time>
        <extensions>
          <ns3:TrackPointExtension>
            <ns3:hr>85</ns3:hr>
            <ns3:cad>0</ns3:cad>
          </ns3:TrackPointExtension>
        </extensions>
      </trkpt>
      <trkpt lat="38.02228219807147979736328125" lon="-106.92511095665395259857177734375">
        <ele>4231.60009765625</ele>
        <time>2026-05-25T15:05:56.000Z</time>
        <extensions>
          <ns3:TrackPointExtension>
            <ns3:hr>82</ns3:hr>
            <ns3:cad>0</ns3:cad>
          </ns3:TrackPointExtension>
        </extensions>
      </trkpt>
      <trkpt lat="38.02228488028049468994140625" lon="-106.9251148961484432220458984375">
        <ele>4231.60009765625</ele>
        <time>2026-05-25T15:05:57.000Z</time>
        <extensions>
          <ns3:TrackPointExtension>
            <ns3:hr>82</ns3:hr>
            <ns3:cad>0</ns3:cad>
          </ns3:TrackPointExtension>
        </extensions>
      </trkpt>
      <trkpt lat="38.02229049615561962127685546875" lon="-106.92515454255044460296630859375">
        <ele>4231.7998046875</ele>
        <time>2026-05-25T15:06:03.000Z</time>
        <extensions>
          <ns3:TrackPointExtension>
            <ns3:hr>80</ns3:hr>
            <ns3:cad>0</ns3:cad>
          </ns3:TrackPointExtension>
        </extensions>
      </trkpt>
      <trkpt lat="38.0222739838063716888427734375" lon="-106.92518605850636959075927734375">
        <ele>4230.39990234375</ele>
        <time>2026-05-25T15:06:07.000Z</time>
        <extensions>
          <ns3:TrackPointExtension>
            <ns3:hr>82</ns3:hr>
            <ns3:cad>0</ns3:cad>
          </ns3:TrackPointExtension>
        </extensions>
      </trkpt>
      <trkpt lat="38.0222642607986927032470703125" lon="-106.92519485950469970703125">
        <ele>4230</ele>
        <time>2026-05-25T15:06:08.000Z</time>
        <extensions>
          <ns3:TrackPointExtension>
            <ns3:hr>82</ns3:hr>
            <ns3:cad>0</ns3:cad>
          </ns3:TrackPointExtension>
        </extensions>
      </trkpt>
      <trkpt lat="38.02224196493625640869140625" lon="-106.9252191670238971710205078125">
        <ele>4229.2001953125</ele>
        <time>2026-05-25T15:06:12.000Z</time>
        <extensions>
          <ns3:TrackPointExtension>
            <ns3:hr>84</ns3:hr>
            <ns3:cad>0</ns3:cad>
          </ns3:TrackPointExtension>
        </extensions>
      </trkpt>
      <trkpt lat="38.0222200043499469757080078125" lon="-106.925234757363796234130859375">
        <ele>4229</ele>
        <time>2026-05-25T15:06:14.000Z</time>
        <extensions>
          <ns3:TrackPointExtension>
            <ns3:hr>85</ns3:hr>
            <ns3:cad>0</ns3:cad>
          </ns3:TrackPointExtension>
        </extensions>
      </trkpt>
      <trkpt lat="38.02221111953258514404296875" lon="-106.92525579594075679779052734375">
        <ele>4228.60009765625</ele>
        <time>2026-05-25T15:06:19.000Z</time>
        <extensions>
          <ns3:TrackPointExtension>
            <ns3:hr>86</ns3:hr>
            <ns3:cad>0</ns3:cad>
          </ns3:TrackPointExtension>
        </extensions>
      </trkpt>
      <trkpt lat="38.0222015641629695892333984375" lon="-106.92527960054576396942138671875">
        <ele>4228.2001953125</ele>
        <time>2026-05-25T15:06:22.000Z</time>
        <extensions>
          <ns3:TrackPointExtension>
            <ns3:hr>87</ns3:hr>
            <ns3:cad>17</ns3:cad>
          </ns3:TrackPointExtension>
        </extensions>
      </trkpt>
      <trkpt lat="38.02219896577298641204833984375" lon="-106.92529519088566303253173828125">
        <ele>4227.7998046875</ele>
        <time>2026-05-25T15:06:24.000Z</time>
        <extensions>
          <ns3:TrackPointExtension>
            <ns3:hr>87</ns3:hr>
            <ns3:cad>0</ns3:cad>
          </ns3:TrackPointExtension>
        </extensions>
      </trkpt>
      <trkpt lat="38.02218991331756114959716796875" lon="-106.92531597800552845001220703125">
        <ele>4227.2001953125</ele>
        <time>2026-05-25T15:06:29.000Z</time>
        <extensions>
          <ns3:TrackPointExtension>
            <ns3:hr>87</ns3:hr>
            <ns3:cad>0</ns3:cad>
          </ns3:TrackPointExtension>
        </extensions>
      </trkpt>
      <trkpt lat="38.02218505181372165679931640625" lon="-106.925329975783824920654296875">
        <ele>4227</ele>
        <time>2026-05-25T15:06:31.000Z</time>
        <extensions>
          <ns3:TrackPointExtension>
            <ns3:hr>88</ns3:hr>
            <ns3:cad>0</ns3:cad>
          </ns3:TrackPointExtension>
        </extensions>
      </trkpt>
      <trkpt lat="38.02216879092156887054443359375" lon="-106.9253549538552761077880859375">
        <ele>4226</ele>
        <time>2026-05-25T15:06:37.000Z</time>
        <extensions>
          <ns3:TrackPointExtension>
            <ns3:hr>88</ns3:hr>
            <ns3:cad>0</ns3:cad>
          </ns3:TrackPointExtension>
        </extensions>
      </trkpt>
      <trkpt lat="38.022145070135593414306640625" lon="-106.92536341957747936248779296875">
        <ele>4225.39990234375</ele>
        <time>2026-05-25T15:06:40.000Z</time>
        <extensions>
          <ns3:TrackPointExtension>
            <ns3:hr>85</ns3:hr>
            <ns3:cad>0</ns3:cad>
          </ns3:TrackPointExtension>
        </extensions>
      </trkpt>
      <trkpt lat="38.0221408791840076446533203125" lon="-106.92536241374909877777099609375">
        <ele>4224.7998046875</ele>
        <time>2026-05-25T15:06:42.000Z</time>
        <extensions>
          <ns3:TrackPointExtension>
            <ns3:hr>85</ns3:hr>
            <ns3:cad>0</ns3:cad>
          </ns3:TrackPointExtension>
        </extensions>
      </trkpt>
      <trkpt lat="38.0221355147659778594970703125" lon="-106.9253630004823207855224609375">
        <ele>4224.39990234375</ele>
        <time>2026-05-25T15:06:43.000Z</time>
        <extensions>
          <ns3:TrackPointExtension>
            <ns3:hr>84</ns3:hr>
            <ns3:cad>0</ns3:cad>
          </ns3:TrackPointExtension>
        </extensions>
      </trkpt>
      <trkpt lat="38.0221224389970302581787109375" lon="-106.92536777816712856292724609375">
        <ele>4223.7998046875</ele>
        <time>2026-05-25T15:06:46.000Z</time>
        <extensions>
          <ns3:TrackPointExtension>
            <ns3:hr>85</ns3:hr>
            <ns3:cad>0</ns3:cad>
          </ns3:TrackPointExtension>
        </extensions>
      </trkpt>
      <trkpt lat="38.02210458554327487945556640625" lon="-106.92537532187998294830322265625">
        <ele>4224</ele>
        <time>2026-05-25T15:06:48.000Z</time>
        <extensions>
          <ns3:TrackPointExtension>
            <ns3:hr>86</ns3:hr>
            <ns3:cad>0</ns3:cad>
          </ns3:TrackPointExtension>
        </extensions>
      </trkpt>
      <trkpt lat="38.02208798937499523162841796875" lon="-106.925417147576808929443359375">
        <ele>4223.60009765625</ele>
        <time>2026-05-25T15:06:54.000Z</time>
        <extensions>
          <ns3:TrackPointExtension>
            <ns3:hr>85</ns3:hr>
            <ns3:cad>0</ns3:cad>
          </ns3:TrackPointExtension>
        </extensions>
      </trkpt>
      <trkpt lat="38.02209922112524509429931640625" lon="-106.9254381023347377777099609375">
        <ele>4222.7998046875</ele>
        <time>2026-05-25T15:06:58.000Z</time>
        <extensions>
          <ns3:TrackPointExtension>
            <ns3:hr>84</ns3:hr>
            <ns3:cad>0</ns3:cad>
          </ns3:TrackPointExtension>
        </extensions>
      </trkpt>
      <trkpt lat="38.02209938876330852508544921875" lon="-106.9254471547901630401611328125">
        <ele>4222.39990234375</ele>
        <time>2026-05-25T15:07:00.000Z</time>
        <extensions>
          <ns3:TrackPointExtension>
            <ns3:hr>83</ns3:hr>
            <ns3:cad>0</ns3:cad>
          </ns3:TrackPointExtension>
        </extensions>
      </trkpt>
      <trkpt lat="38.0220872350037097930908203125" lon="-106.92545863799750804901123046875">
        <ele>4221.60009765625</ele>
        <time>2026-05-25T15:07:03.000Z</time>
        <extensions>
          <ns3:TrackPointExtension>
            <ns3:hr>83</ns3:hr>
            <ns3:cad>46</ns3:cad>
          </ns3:TrackPointExtension>
        </extensions>
      </trkpt>
      <trkpt lat="38.0220711417496204376220703125" lon="-106.92546852864325046539306640625">
        <ele>4221</ele>
        <time>2026-05-25T15:07:07.000Z</time>
        <extensions>
          <ns3:TrackPointExtension>
            <ns3:hr>83</ns3:hr>
            <ns3:cad>0</ns3:cad>
          </ns3:TrackPointExtension>
        </extensions>
      </trkpt>
      <trkpt lat="38.0220627598464488983154296875" lon="-106.925502307713031768798828125">
        <ele>4220.39990234375</ele>
        <time>2026-05-25T15:07:12.000Z</time>
        <extensions>
          <ns3:TrackPointExtension>
            <ns3:hr>85</ns3:hr>
            <ns3:cad>0</ns3:cad>
          </ns3:TrackPointExtension>
        </extensions>
      </trkpt>
      <trkpt lat="38.02204373292624950408935546875" lon="-106.92551982589066028594970703125">
        <ele>4219.60009765625</ele>
        <time>2026-05-25T15:07:15.000Z</time>
        <extensions>
          <ns3:TrackPointExtension>
            <ns3:hr>84</ns3:hr>
            <ns3:cad>54</ns3:cad>
          </ns3:TrackPointExtension>
        </extensions>
      </trkpt>
      <trkpt lat="38.02202847786247730255126953125" lon="-106.92553038708865642547607421875">
        <ele>4219.39990234375</ele>
        <time>2026-05-25T15:07:17.000Z</time>
        <extensions>
          <ns3:TrackPointExtension>
            <ns3:hr>85</ns3:hr>
            <ns3:cad>0</ns3:cad>
          </ns3:TrackPointExtension>
        </extensions>
      </trkpt>
      <trkpt lat="38.02202931605279445648193359375" lon="-106.92555787973105907440185546875">
        <ele>4219</ele>
        <time>2026-05-25T15:07:19.000Z</time>
        <extensions>
          <ns3:TrackPointExtension>
            <ns3:hr>85</ns3:hr>
            <ns3:cad>0</ns3:cad>
          </ns3:TrackPointExtension>
        </extensions>
      </trkpt>
      <trkpt lat="38.02202814258635044097900390625" lon="-106.9255732186138629913330078125">
        <ele>4218.60009765625</ele>
        <time>2026-05-25T15:07:21.000Z</time>
        <extensions>
          <ns3:TrackPointExtension>
            <ns3:hr>86</ns3:hr>
            <ns3:cad>0</ns3:cad>
          </ns3:TrackPointExtension>
        </extensions>
      </trkpt>
      <trkpt lat="38.02202277816832065582275390625" lon="-106.92558218725025653839111328125">
        <ele>4218.39990234375</ele>
        <time>2026-05-25T15:07:23.000Z</time>
        <extensions>
          <ns3:TrackPointExtension>
            <ns3:hr>85</ns3:hr>
            <ns3:cad>0</ns3:cad>
          </ns3:TrackPointExtension>
        </extensions>
      </trkpt>
      <trkpt lat="38.0220087803900241851806640625" lon="-106.92560666240751743316650390625">
        <ele>4217.39990234375</ele>
        <time>2026-05-25T15:07:28.000Z</time>
        <extensions>
          <ns3:TrackPointExtension>
            <ns3:hr>84</ns3:hr>
            <ns3:cad>0</ns3:cad>
          </ns3:TrackPointExtension>
        </extensions>
      </trkpt>
      <trkpt lat="38.02200735546648502349853515625" lon="-106.925619654357433319091796875">
        <ele>4217</ele>
        <time>2026-05-25T15:07:29.000Z</time>
        <extensions>
          <ns3:TrackPointExtension>
            <ns3:hr>85</ns3:hr>
            <ns3:cad>65</ns3:cad>
          </ns3:TrackPointExtension>
        </extensions>
      </trkpt>
      <trkpt lat="38.022010624408721923828125" lon="-106.9256379269063472747802734375">
        <ele>4216.60009765625</ele>
        <time>2026-05-25T15:07:33.000Z</time>
        <extensions>
          <ns3:TrackPointExtension>
            <ns3:hr>86</ns3:hr>
            <ns3:cad>0</ns3:cad>
          </ns3:TrackPointExtension>
        </extensions>
      </trkpt>
      <trkpt lat="38.02200634963810443878173828125" lon="-106.92564211785793304443359375">
        <ele>4216.39990234375</ele>
        <time>2026-05-25T15:07:35.000Z</time>
        <extensions>
          <ns3:TrackPointExtension>
            <ns3:hr>88</ns3:hr>
            <ns3:cad>0</ns3:cad>
          </ns3:TrackPointExtension>
        </extensions>
      </trkpt>
      <trkpt lat="38.0219903402030467987060546875" lon="-106.92566131241619586944580078125">
        <ele>4216</ele>
        <time>2026-05-25T15:07:38.000Z</time>
        <extensions>
          <ns3:TrackPointExtension>
            <ns3:hr>91</ns3:hr>
            <ns3:cad>15</ns3:cad>
          </ns3:TrackPointExtension>
        </extensions>
      </trkpt>
      <trkpt lat="38.0219931900501251220703125" lon="-106.9256634078919887542724609375">
        <ele>4216</ele>
        <time>2026-05-25T15:07:39.000Z</time>
        <extensions>
          <ns3:TrackPointExtension>
            <ns3:hr>91</ns3:hr>
            <ns3:cad>15</ns3:cad>
          </ns3:TrackPointExtension>
        </extensions>
      </trkpt>
      <trkpt lat="38.021967709064483642578125" lon="-106.9256784953176975250244140625">
        <ele>4215</ele>
        <time>2026-05-25T15:07:44.000Z</time>
        <extensions>
          <ns3:TrackPointExtension>
            <ns3:hr>89</ns3:hr>
            <ns3:cad>0</ns3:cad>
          </ns3:TrackPointExtension>
        </extensions>
      </trkpt>
      <trkpt lat="38.02196159027516841888427734375" lon="-106.925684697926044464111328125">
        <ele>4214.60009765625</ele>
        <time>2026-05-25T15:07:46.000Z</time>
        <extensions>
          <ns3:TrackPointExtension>
            <ns3:hr>88</ns3:hr>
            <ns3:cad>46</ns3:cad>
          </ns3:TrackPointExtension>
        </extensions>
      </trkpt>
      <trkpt lat="38.02194683812558650970458984375" lon="-106.92569936625659465789794921875">
        <ele>4214</ele>
        <time>2026-05-25T15:07:50.000Z</time>
        <extensions>
          <ns3:TrackPointExtension>
            <ns3:hr>85</ns3:hr>
            <ns3:cad>0</ns3:cad>
          </ns3:TrackPointExtension>
        </extensions>
      </trkpt>
      <trkpt lat="38.02193694747984409332275390625" lon="-106.92570917308330535888671875">
        <ele>4213.7998046875</ele>
        <time>2026-05-25T15:07:52.000Z</time>
        <extensions>
          <ns3:TrackPointExtension>
            <ns3:hr>82</ns3:hr>
            <ns3:cad>0</ns3:cad>
          </ns3:TrackPointExtension>
        </extensions>
      </trkpt>
      <trkpt lat="38.02193460054695606231689453125" lon="-106.92572182975709438323974609375">
        <ele>4213.39990234375</ele>
        <time>2026-05-25T15:07:56.000Z</time>
        <extensions>
          <ns3:TrackPointExtension>
            <ns3:hr>78</ns3:hr>
            <ns3:cad>0</ns3:cad>
          </ns3:TrackPointExtension>
        </extensions>
      </trkpt>
      <trkpt lat="38.0219289846718311309814453125" lon="-106.9257301278412342071533203125">
        <ele>4213.2001953125</ele>
        <time>2026-05-25T15:07:58.000Z</time>
        <extensions>
          <ns3:TrackPointExtension>
            <ns3:hr>77</ns3:hr>
            <ns3:cad>0</ns3:cad>
          </ns3:TrackPointExtension>
        </extensions>
      </trkpt>
      <trkpt lat="38.02191582508385181427001953125" lon="-106.9257366657257080078125">
        <ele>4212.7998046875</ele>
        <time>2026-05-25T15:08:00.000Z</time>
        <extensions>
          <ns3:TrackPointExtension>
            <ns3:hr>78</ns3:hr>
            <ns3:cad>0</ns3:cad>
          </ns3:TrackPointExtension>
        </extensions>
      </trkpt>
      <trkpt lat="38.02191465161740779876708984375" lon="-106.9257556088268756866455078125">
        <ele>4212.2001953125</ele>
        <time>2026-05-25T15:08:03.000Z</time>
        <extensions>
          <ns3:TrackPointExtension>
            <ns3:hr>80</ns3:hr>
            <ns3:cad>0</ns3:cad>
          </ns3:TrackPointExtension>
        </extensions>
      </trkpt>
      <trkpt lat="38.02189704962074756622314453125" lon="-106.92576558329164981842041015625">
        <ele>4211.60009765625</ele>
        <time>2026-05-25T15:08:06.000Z</time>
        <extensions>
          <ns3:TrackPointExtension>
            <ns3:hr>82</ns3:hr>
            <ns3:cad>0</ns3:cad>
          </ns3:TrackPointExtension>
        </extensions>
      </trkpt>
      <trkpt lat="38.02187894470989704132080078125" lon="-106.92577983252704143524169921875">
        <ele>4210.60009765625</ele>
        <time>2026-05-25T15:08:10.000Z</time>
        <extensions>
          <ns3:TrackPointExtension>
            <ns3:hr>80</ns3:hr>
            <ns3:cad>0</ns3:cad>
          </ns3:TrackPointExtension>
        </extensions>
      </trkpt>
      <trkpt lat="38.02188531495630741119384765625" lon="-106.925796009600162506103515625">
        <ele>4210.60009765625</ele>
        <time>2026-05-25T15:08:11.000Z</time>
        <extensions>
          <ns3:TrackPointExtension>
            <ns3:hr>79</ns3:hr>
            <ns3:cad>0</ns3:cad>
          </ns3:TrackPointExtension>
        </extensions>
      </trkpt>
      <trkpt lat="38.02187793888151645660400390625" lon="-106.9258377514779567718505859375">
        <ele>4210.2001953125</ele>
        <time>2026-05-25T15:08:16.000Z</time>
        <extensions>
          <ns3:TrackPointExtension>
            <ns3:hr>82</ns3:hr>
            <ns3:cad>0</ns3:cad>
          </ns3:TrackPointExtension>
        </extensions>
      </trkpt>
      <trkpt lat="38.0218805372714996337890625" lon="-106.92584252916276454925537109375">
        <ele>4210.2001953125</ele>
        <time>2026-05-25T15:08:17.000Z</time>
        <extensions>
          <ns3:TrackPointExtension>
            <ns3:hr>86</ns3:hr>
            <ns3:cad>0</ns3:cad>
          </ns3:TrackPointExtension>
        </extensions>
      </trkpt>
      <trkpt lat="38.0218805372714996337890625" lon="-106.92584252916276454925537109375">
        <ele>4210</ele>
        <time>2026-05-25T15:08:18.000Z</time>
        <extensions>
          <ns3:TrackPointExtension>
            <ns3:hr>92</ns3:hr>
            <ns3:cad>0</ns3:cad>
          </ns3:TrackPointExtension>
        </extensions>
      </trkpt>
      <trkpt lat="38.02186972461640834808349609375" lon="-106.925852000713348388671875">
        <ele>4209.60009765625</ele>
        <time>2026-05-25T15:08:20.000Z</time>
        <extensions>
          <ns3:TrackPointExtension>
            <ns3:hr>95</ns3:hr>
            <ns3:cad>0</ns3:cad>
          </ns3:TrackPointExtension>
        </extensions>
      </trkpt>
      <trkpt lat="38.02186721004545688629150390625" lon="-106.92585627548396587371826171875">
        <ele>4209.39990234375</ele>
        <time>2026-05-25T15:08:21.000Z</time>
        <extensions>
          <ns3:TrackPointExtension>
            <ns3:hr>95</ns3:hr>
            <ns3:cad>0</ns3:cad>
          </ns3:TrackPointExtension>
        </extensions>
      </trkpt>
      <trkpt lat="38.02185765467584133148193359375" lon="-106.9258763082325458526611328125">
        <ele>4208.39990234375</ele>
        <time>2026-05-25T15:08:25.000Z</time>
        <extensions>
          <ns3:TrackPointExtension>
            <ns3:hr>97</ns3:hr>
            <ns3:cad>0</ns3:cad>
          </ns3:TrackPointExtension>
        </extensions>
      </trkpt>
      <trkpt lat="38.02185597829520702362060546875" lon="-106.9258793257176876068115234375">
        <ele>4208.2001953125</ele>
        <time>2026-05-25T15:08:27.000Z</time>
        <extensions>
          <ns3:TrackPointExtension>
            <ns3:hr>97</ns3:hr>
            <ns3:cad>0</ns3:cad>
          </ns3:TrackPointExtension>
        </extensions>
      </trkpt>
      <trkpt lat="38.0218381248414516448974609375" lon="-106.92588779143989086151123046875">
        <ele>4207.60009765625</ele>
        <time>2026-05-25T15:08:30.000Z</time>
        <extensions>
          <ns3:TrackPointExtension>
            <ns3:hr>97</ns3:hr>
            <ns3:cad>0</ns3:cad>
          </ns3:TrackPointExtension>
        </extensions>
      </trkpt>
      <trkpt lat="38.02181339822709560394287109375" lon="-106.925912015140056610107421875">
        <ele>4207.2001953125</ele>
        <time>2026-05-25T15:08:34.000Z</time>
        <extensions>
          <ns3:TrackPointExtension>
            <ns3:hr>97</ns3:hr>
            <ns3:cad>0</ns3:cad>
          </ns3:TrackPointExtension>
        </extensions>
      </trkpt>
      <trkpt lat="38.02179847843945026397705078125" lon="-106.9259292818605899810791015625">
        <ele>4206.60009765625</ele>
        <time>2026-05-25T15:08:37.000Z</time>
        <extensions>
          <ns3:TrackPointExtension>
            <ns3:hr>97</ns3:hr>
            <ns3:cad>0</ns3:cad>
          </ns3:TrackPointExtension>
        </extensions>
      </trkpt>
      <trkpt lat="38.02178422920405864715576171875" lon="-106.925946213304996490478515625">
        <ele>4206</ele>
        <time>2026-05-25T15:08:40.000Z</time>
        <extensions>
          <ns3:TrackPointExtension>
            <ns3:hr>97</ns3:hr>
            <ns3:cad>16</ns3:cad>
          </ns3:TrackPointExtension>
        </extensions>
      </trkpt>
      <trkpt lat="38.021780289709568023681640625" lon="-106.92595769651234149932861328125">
        <ele>4205.7998046875</ele>
        <time>2026-05-25T15:08:42.000Z</time>
        <extensions>
          <ns3:TrackPointExtension>
            <ns3:hr>97</ns3:hr>
            <ns3:cad>0</ns3:cad>
          </ns3:TrackPointExtension>
        </extensions>
      </trkpt>
      <trkpt lat="38.02176109515130519866943359375" lon="-106.925977058708667755126953125">
        <ele>4205.39990234375</ele>
        <time>2026-05-25T15:08:48.000Z</time>
        <extensions>
          <ns3:TrackPointExtension>
            <ns3:hr>98</ns3:hr>
            <ns3:cad>0</ns3:cad>
          </ns3:TrackPointExtension>
        </extensions>
      </trkpt>
      <trkpt lat="38.02174885757267475128173828125" lon="-106.9259913079440593719482421875">
        <ele>4205</ele>
        <time>2026-05-25T15:08:53.000Z</time>
        <extensions>
          <ns3:TrackPointExtension>
            <ns3:hr>98</ns3:hr>
            <ns3:cad>0</ns3:cad>
          </ns3:TrackPointExtension>
        </extensions>
      </trkpt>
      <trkpt lat="38.02174885757267475128173828125" lon="-106.9259913079440593719482421875">
        <ele>4204.60009765625</ele>
        <time>2026-05-25T15:08:55.000Z</time>
        <extensions>
          <ns3:TrackPointExtension>
            <ns3:hr>98</ns3:hr>
            <ns3:cad>0</ns3:cad>
          </ns3:TrackPointExtension>
        </extensions>
      </trkpt>
      <trkpt lat="38.02174885757267475128173828125" lon="-106.9259913079440593719482421875">
        <ele>4204.39990234375</ele>
        <time>2026-05-25T15:09:00.000Z</time>
        <extensions>
          <ns3:TrackPointExtension>
            <ns3:hr>101</ns3:hr>
            <ns3:cad>0</ns3:cad>
          </ns3:TrackPointExtension>
        </extensions>
      </trkpt>
      <trkpt lat="38.021748773753643035888671875" lon="-106.92600061185657978057861328125">
        <ele>4204.39990234375</ele>
        <time>2026-05-25T15:09:06.000Z</time>
        <extensions>
          <ns3:TrackPointExtension>
            <ns3:hr>102</ns3:hr>
            <ns3:cad>0</ns3:cad>
          </ns3:TrackPointExtension>
        </extensions>
      </trkpt>
      <trkpt lat="38.0217412300407886505126953125" lon="-106.92601318471133708953857421875">
        <ele>4204.60009765625</ele>
        <time>2026-05-25T15:09:08.000Z</time>
        <extensions>
          <ns3:TrackPointExtension>
            <ns3:hr>101</ns3:hr>
            <ns3:cad>0</ns3:cad>
          </ns3:TrackPointExtension>
        </extensions>
      </trkpt>
      <trkpt lat="38.02170795388519763946533203125" lon="-106.92604067735373973846435546875">
        <ele>4204</ele>
        <time>2026-05-25T15:09:13.000Z</time>
        <extensions>
          <ns3:TrackPointExtension>
            <ns3:hr>100</ns3:hr>
            <ns3:cad>0</ns3:cad>
          </ns3:TrackPointExtension>
        </extensions>
      </trkpt>
      <trkpt lat="38.0216946266591548919677734375" lon="-106.92605341784656047821044921875">
        <ele>4203.39990234375</ele>
        <time>2026-05-25T15:09:15.000Z</time>
        <extensions>
          <ns3:TrackPointExtension>
            <ns3:hr>97</ns3:hr>
            <ns3:cad>0</ns3:cad>
          </ns3:TrackPointExtension>
        </extensions>
      </trkpt>
      <trkpt lat="38.0216761864721775054931640625" lon="-106.926068253815174102783203125">
        <ele>4203</ele>
        <time>2026-05-25T15:09:17.000Z</time>
        <extensions>
          <ns3:TrackPointExtension>
            <ns3:hr>94</ns3:hr>
            <ns3:cad>0</ns3:cad>
          </ns3:TrackPointExtension>
        </extensions>
      </trkpt>
      <trkpt lat="38.021673671901226043701171875" lon="-106.9260714389383792877197265625">
        <ele>4202.7998046875</ele>
        <time>2026-05-25T15:09:18.000Z</time>
        <extensions>
          <ns3:TrackPointExtension>
            <ns3:hr>93</ns3:hr>
            <ns3:cad>0</ns3:cad>
          </ns3:TrackPointExtension>
        </extensions>
      </trkpt>
      <trkpt lat="38.0216704867780208587646484375" lon="-106.92607403732836246490478515625">
        <ele>4202.7998046875</ele>
        <time>2026-05-25T15:09:20.000Z</time>
        <extensions>
          <ns3:TrackPointExtension>
            <ns3:hr>91</ns3:hr>
            <ns3:cad>0</ns3:cad>
          </ns3:TrackPointExtension>
        </extensions>
      </trkpt>
      <trkpt lat="38.02166755311191082000732421875" lon="-106.92607956938445568084716796875">
        <ele>4202.7998046875</ele>
        <time>2026-05-25T15:09:23.000Z</time>
        <extensions>
          <ns3:TrackPointExtension>
            <ns3:hr>88</ns3:hr>
            <ns3:cad>0</ns3:cad>
          </ns3:TrackPointExtension>
        </extensions>
      </trkpt>
      <trkpt lat="38.02166118286550045013427734375" lon="-106.9260928966104984283447265625">
        <ele>4202.60009765625</ele>
        <time>2026-05-25T15:09:26.000Z</time>
        <extensions>
          <ns3:TrackPointExtension>
            <ns3:hr>87</ns3:hr>
            <ns3:cad>0</ns3:cad>
          </ns3:TrackPointExtension>
        </extensions>
      </trkpt>
      <trkpt lat="38.02166394889354705810546875" lon="-106.9260974228382110595703125">
        <ele>4202.39990234375</ele>
        <time>2026-05-25T15:09:32.000Z</time>
        <extensions>
          <ns3:TrackPointExtension>
            <ns3:hr>85</ns3:hr>
            <ns3:cad>0</ns3:cad>
          </ns3:TrackPointExtension>
        </extensions>
      </trkpt>
      <trkpt lat="38.0216632783412933349609375" lon="-106.92609666846692562103271484375">
        <ele>4202.60009765625</ele>
        <time>2026-05-25T15:09:36.000Z</time>
        <extensions>
          <ns3:TrackPointExtension>
            <ns3:hr>86</ns3:hr>
            <ns3:cad>0</ns3:cad>
          </ns3:TrackPointExtension>
        </extensions>
      </trkpt>
      <trkpt lat="38.0216496996581554412841796875" lon="-106.9261220656335353851318359375">
        <ele>4201.60009765625</ele>
        <time>2026-05-25T15:09:40.000Z</time>
        <extensions>
          <ns3:TrackPointExtension>
            <ns3:hr>86</ns3:hr>
            <ns3:cad>65</ns3:cad>
          </ns3:TrackPointExtension>
        </extensions>
      </trkpt>
      <trkpt lat="38.02163167856633663177490234375" lon="-106.92613790743052959442138671875">
        <ele>4201</ele>
        <time>2026-05-25T15:09:42.000Z</time>
        <extensions>
          <ns3:TrackPointExtension>
            <ns3:hr>86</ns3:hr>
            <ns3:cad>65</ns3:cad>
          </ns3:TrackPointExtension>
        </extensions>
      </trkpt>
      <trkpt lat="38.0216258950531482696533203125" lon="-106.9261443614959716796875">
        <ele>4200.39990234375</ele>
        <time>2026-05-25T15:09:44.000Z</time>
        <extensions>
          <ns3:TrackPointExtension>
            <ns3:hr>85</ns3:hr>
            <ns3:cad>65</ns3:cad>
          </ns3:TrackPointExtension>
        </extensions>
      </trkpt>
      <trkpt lat="38.0215970613062381744384765625" lon="-106.92616791464388370513916015625">
        <ele>4200.2001953125</ele>
        <time>2026-05-25T15:09:50.000Z</time>
        <extensions>
          <ns3:TrackPointExtension>
            <ns3:hr>84</ns3:hr>
            <ns3:cad>0</ns3:cad>
          </ns3:TrackPointExtension>
        </extensions>
      </trkpt>
      <trkpt lat="38.0215980671346187591552734375" lon="-106.9261770509183406829833984375">
        <ele>4200</ele>
        <time>2026-05-25T15:09:52.000Z</time>
        <extensions>
          <ns3:TrackPointExtension>
            <ns3:hr>83</ns3:hr>
            <ns3:cad>0</ns3:cad>
          </ns3:TrackPointExtension>
        </extensions>
      </trkpt>
      <trkpt lat="38.0216084606945514678955078125" lon="-106.92619440145790576934814453125">
        <ele>4199.39990234375</ele>
        <time>2026-05-25T15:09:56.000Z</time>
        <extensions>
          <ns3:TrackPointExtension>
            <ns3:hr>81</ns3:hr>
            <ns3:cad>0</ns3:cad>
          </ns3:TrackPointExtension>
        </extensions>
      </trkpt>
      <trkpt lat="38.0216081254184246063232421875" lon="-106.9261988438665866851806640625">
        <ele>4199.39990234375</ele>
        <time>2026-05-25T15:09:57.000Z</time>
        <extensions>
          <ns3:TrackPointExtension>
            <ns3:hr>81</ns3:hr>
            <ns3:cad>0</ns3:cad>
          </ns3:TrackPointExtension>
        </extensions>
      </trkpt>
      <trkpt lat="38.021586500108242034912109375" lon="-106.9262303598225116729736328125">
        <ele>4198.39990234375</ele>
        <time>2026-05-25T15:10:02.000Z</time>
        <extensions>
          <ns3:TrackPointExtension>
            <ns3:hr>80</ns3:hr>
            <ns3:cad>0</ns3:cad>
          </ns3:TrackPointExtension>
        </extensions>
      </trkpt>
      <trkpt lat="38.02158457227051258087158203125" lon="-106.92623413167893886566162109375">
        <ele>4198</ele>
        <time>2026-05-25T15:10:04.000Z</time>
        <extensions>
          <ns3:TrackPointExtension>
            <ns3:hr>81</ns3:hr>
            <ns3:cad>0</ns3:cad>
          </ns3:TrackPointExtension>
        </extensions>
      </trkpt>
      <trkpt lat="38.021584488451480865478515625" lon="-106.92623379640281200408935546875">
        <ele>4198.2001953125</ele>
        <time>2026-05-25T15:10:10.000Z</time>
        <extensions>
          <ns3:TrackPointExtension>
            <ns3:hr>83</ns3:hr>
            <ns3:cad>0</ns3:cad>
          </ns3:TrackPointExtension>
        </extensions>
      </trkpt>
      <trkpt lat="38.021584488451480865478515625" lon="-106.92623379640281200408935546875">
        <ele>4198</ele>
        <time>2026-05-25T15:10:15.000Z</time>
        <extensions>
          <ns3:TrackPointExtension>
            <ns3:hr>84</ns3:hr>
            <ns3:cad>0</ns3:cad>
          </ns3:TrackPointExtension>
        </extensions>
      </trkpt>
      <trkpt lat="38.021584488451480865478515625" lon="-106.92623379640281200408935546875">
        <ele>4197.60009765625</ele>
        <time>2026-05-25T15:10:21.000Z</time>
        <extensions>
          <ns3:TrackPointExtension>
            <ns3:hr>85</ns3:hr>
            <ns3:cad>0</ns3:cad>
          </ns3:TrackPointExtension>
        </extensions>
      </trkpt>
      <trkpt lat="38.021584488451480865478515625" lon="-106.92623379640281200408935546875">
        <ele>4198</ele>
        <time>2026-05-25T15:10:24.000Z</time>
        <extensions>
          <ns3:TrackPointExtension>
            <ns3:hr>85</ns3:hr>
            <ns3:cad>0</ns3:cad>
          </ns3:TrackPointExtension>
        </extensions>
      </trkpt>
      <trkpt lat="38.021584488451480865478515625" lon="-106.92623379640281200408935546875">
        <ele>4198.2001953125</ele>
        <time>2026-05-25T15:10:30.000Z</time>
        <extensions>
          <ns3:TrackPointExtension>
            <ns3:hr>85</ns3:hr>
            <ns3:cad>0</ns3:cad>
          </ns3:TrackPointExtension>
        </extensions>
      </trkpt>
      <trkpt lat="38.021584488451480865478515625" lon="-106.92623379640281200408935546875">
        <ele>4198.2001953125</ele>
        <time>2026-05-25T15:10:33.000Z</time>
        <extensions>
          <ns3:TrackPointExtension>
            <ns3:hr>88</ns3:hr>
            <ns3:cad>0</ns3:cad>
          </ns3:TrackPointExtension>
        </extensions>
      </trkpt>
      <trkpt lat="38.021584488451480865478515625" lon="-106.92623379640281200408935546875">
        <ele>4198.2001953125</ele>
        <time>2026-05-25T15:10:35.000Z</time>
        <extensions>
          <ns3:TrackPointExtension>
            <ns3:hr>94</ns3:hr>
            <ns3:cad>0</ns3:cad>
          </ns3:TrackPointExtension>
        </extensions>
      </trkpt>
      <trkpt lat="38.021584488451480865478515625" lon="-106.92623379640281200408935546875">
        <ele>4198.2001953125</ele>
        <time>2026-05-25T15:10:36.000Z</time>
        <extensions>
          <ns3:TrackPointExtension>
            <ns3:hr>97</ns3:hr>
            <ns3:cad>0</ns3:cad>
          </ns3:TrackPointExtension>
        </extensions>
      </trkpt>
      <trkpt lat="38.021584488451480865478515625" lon="-106.92623379640281200408935546875">
        <ele>4198.2001953125</ele>
        <time>2026-05-25T15:10:38.000Z</time>
        <extensions>
          <ns3:TrackPointExtension>
            <ns3:hr>101</ns3:hr>
            <ns3:cad>0</ns3:cad>
          </ns3:TrackPointExtension>
        </extensions>
      </trkpt>
      <trkpt lat="38.021584488451480865478515625" lon="-106.92623379640281200408935546875">
        <ele>4198.39990234375</ele>
        <time>2026-05-25T15:10:41.000Z</time>
        <extensions>
          <ns3:TrackPointExtension>
            <ns3:hr>102</ns3:hr>
            <ns3:cad>0</ns3:cad>
          </ns3:TrackPointExtension>
        </extensions>
      </trkpt>
      <trkpt lat="38.021584488451480865478515625" lon="-106.92623379640281200408935546875">
        <ele>4198</ele>
        <time>2026-05-25T15:10:47.000Z</time>
        <extensions>
          <ns3:TrackPointExtension>
            <ns3:hr>100</ns3:hr>
            <ns3:cad>0</ns3:cad>
          </ns3:TrackPointExtension>
        </extensions>
      </trkpt>
      <trkpt lat="38.021584488451480865478515625" lon="-106.92623379640281200408935546875">
        <ele>4198.39990234375</ele>
        <time>2026-05-25T15:10:51.000Z</time>
        <extensions>
          <ns3:TrackPointExtension>
            <ns3:hr>99</ns3:hr>
            <ns3:cad>0</ns3:cad>
          </ns3:TrackPointExtension>
        </extensions>
      </trkpt>
      <trkpt lat="38.021584488451480865478515625" lon="-106.92623379640281200408935546875">
        <ele>4198.39990234375</ele>
        <time>2026-05-25T15:10:57.000Z</time>
        <extensions>
          <ns3:TrackPointExtension>
            <ns3:hr>100</ns3:hr>
            <ns3:cad>0</ns3:cad>
          </ns3:TrackPointExtension>
        </extensions>
      </trkpt>
      <trkpt lat="38.021584488451480865478515625" lon="-106.92623379640281200408935546875">
        <ele>4198.2001953125</ele>
        <time>2026-05-25T15:11:00.000Z</time>
        <extensions>
          <ns3:TrackPointExtension>
            <ns3:hr>100</ns3:hr>
            <ns3:cad>0</ns3:cad>
          </ns3:TrackPointExtension>
        </extensions>
      </trkpt>
      <trkpt lat="38.021584488451480865478515625" lon="-106.92623379640281200408935546875">
        <ele>4198.2001953125</ele>
        <time>2026-05-25T15:11:06.000Z</time>
        <extensions>
          <ns3:TrackPointExtension>
            <ns3:hr>101</ns3:hr>
            <ns3:cad>0</ns3:cad>
          </ns3:TrackPointExtension>
        </extensions>
      </trkpt>
      <trkpt lat="38.021584488451480865478515625" lon="-106.92623379640281200408935546875">
        <ele>4197.7998046875</ele>
        <time>2026-05-25T15:11:09.000Z</time>
        <extensions>
          <ns3:TrackPointExtension>
            <ns3:hr>101</ns3:hr>
            <ns3:cad>0</ns3:cad>
          </ns3:TrackPointExtension>
        </extensions>
      </trkpt>
      <trkpt lat="38.021584488451480865478515625" lon="-106.92623379640281200408935546875">
        <ele>4198</ele>
        <time>2026-05-25T15:11:14.000Z</time>
        <extensions>
          <ns3:TrackPointExtension>
            <ns3:hr>97</ns3:hr>
            <ns3:cad>0</ns3:cad>
          </ns3:TrackPointExtension>
        </extensions>
      </trkpt>
      <trkpt lat="38.021584488451480865478515625" lon="-106.92623379640281200408935546875">
        <ele>4198.2001953125</ele>
        <time>2026-05-25T15:11:15.000Z</time>
        <extensions>
          <ns3:TrackPointExtension>
            <ns3:hr>92</ns3:hr>
            <ns3:cad>0</ns3:cad>
          </ns3:TrackPointExtension>
        </extensions>
      </trkpt>
      <trkpt lat="38.02158121950924396514892578125" lon="-106.92623899318277835845947265625">
        <ele>4198.2001953125</ele>
        <time>2026-05-25T15:11:16.000Z</time>
        <extensions>
          <ns3:TrackPointExtension>
            <ns3:hr>81</ns3:hr>
            <ns3:cad>0</ns3:cad>
          </ns3:TrackPointExtension>
        </extensions>
      </trkpt>
      <trkpt lat="38.0215769447386264801025390625" lon="-106.92624561488628387451171875">
        <ele>4198</ele>
        <time>2026-05-25T15:11:17.000Z</time>
        <extensions>
          <ns3:TrackPointExtension>
            <ns3:hr>72</ns3:hr>
            <ns3:cad>0</ns3:cad>
          </ns3:TrackPointExtension>
        </extensions>
      </trkpt>
      <trkpt lat="38.02156797610223293304443359375" lon="-106.92626397125422954559326171875">
        <ele>4197.60009765625</ele>
        <time>2026-05-25T15:11:19.000Z</time>
        <extensions>
          <ns3:TrackPointExtension>
            <ns3:hr>69</ns3:hr>
            <ns3:cad>0</ns3:cad>
          </ns3:TrackPointExtension>
        </extensions>
      </trkpt>
      <trkpt lat="38.0215655453503131866455078125" lon="-106.92627201788127422332763671875">
        <ele>4197.39990234375</ele>
        <time>2026-05-25T15:11:20.000Z</time>
        <extensions>
          <ns3:TrackPointExtension>
            <ns3:hr>69</ns3:hr>
            <ns3:cad>0</ns3:cad>
          </ns3:TrackPointExtension>
        </extensions>
      </trkpt>
      <trkpt lat="38.02157199941575527191162109375" lon="-106.92630856297910213470458984375">
        <ele>4196.39990234375</ele>
        <time>2026-05-25T15:11:26.000Z</time>
        <extensions>
          <ns3:TrackPointExtension>
            <ns3:hr>69</ns3:hr>
            <ns3:cad>0</ns3:cad>
          </ns3:TrackPointExtension>
        </extensions>
      </trkpt>
      <trkpt lat="38.02157904021441936492919921875" lon="-106.92632582969963550567626953125">
        <ele>4196.2001953125</ele>
        <time>2026-05-25T15:11:27.000Z</time>
        <extensions>
          <ns3:TrackPointExtension>
            <ns3:hr>70</ns3:hr>
            <ns3:cad>0</ns3:cad>
          </ns3:TrackPointExtension>
        </extensions>
      </trkpt>
      <trkpt lat="38.021588511765003204345703125" lon="-106.92636363208293914794921875">
        <ele>4195.60009765625</ele>
        <time>2026-05-25T15:11:32.000Z</time>
        <extensions>
          <ns3:TrackPointExtension>
            <ns3:hr>73</ns3:hr>
            <ns3:cad>0</ns3:cad>
          </ns3:TrackPointExtension>
        </extensions>
      </trkpt>
      <trkpt lat="38.02158943377435207366943359375" lon="-106.92638198845088481903076171875">
        <ele>4195.2001953125</ele>
        <time>2026-05-25T15:11:34.000Z</time>
        <extensions>
          <ns3:TrackPointExtension>
            <ns3:hr>76</ns3:hr>
            <ns3:cad>0</ns3:cad>
          </ns3:TrackPointExtension>
        </extensions>
      </trkpt>
      <trkpt lat="38.02158758975565433502197265625" lon="-106.92638953216373920440673828125">
        <ele>4195</ele>
        <time>2026-05-25T15:11:35.000Z</time>
        <extensions>
          <ns3:TrackPointExtension>
            <ns3:hr>76</ns3:hr>
            <ns3:cad>0</ns3:cad>
          </ns3:TrackPointExtension>
        </extensions>
      </trkpt>
      <trkpt lat="38.02159111015498638153076171875" lon="-106.9264127500355243682861328125">
        <ele>4194</ele>
        <time>2026-05-25T15:11:40.000Z</time>
        <extensions>
          <ns3:TrackPointExtension>
            <ns3:hr>79</ns3:hr>
            <ns3:cad>0</ns3:cad>
          </ns3:TrackPointExtension>
        </extensions>
      </trkpt>
      <trkpt lat="38.02159111015498638153076171875" lon="-106.9264127500355243682861328125">
        <ele>4193.7998046875</ele>
        <time>2026-05-25T15:11:41.000Z</time>
        <extensions>
          <ns3:TrackPointExtension>
            <ns3:hr>79</ns3:hr>
            <ns3:cad>0</ns3:cad>
          </ns3:TrackPointExtension>
        </extensions>
      </trkpt>
      <trkpt lat="38.02159094251692295074462890625" lon="-106.92641233094036579132080078125">
        <ele>4193.39990234375</ele>
        <time>2026-05-25T15:11:47.000Z</time>
        <extensions>
          <ns3:TrackPointExtension>
            <ns3:hr>81</ns3:hr>
            <ns3:cad>0</ns3:cad>
          </ns3:TrackPointExtension>
        </extensions>
      </trkpt>
      <trkpt lat="38.02158524282276630401611328125" lon="-106.926438398659229278564453125">
        <ele>4193</ele>
        <time>2026-05-25T15:11:52.000Z</time>
        <extensions>
          <ns3:TrackPointExtension>
            <ns3:hr>81</ns3:hr>
            <ns3:cad>0</ns3:cad>
          </ns3:TrackPointExtension>
        </extensions>
      </trkpt>
      <trkpt lat="38.02158524282276630401611328125" lon="-106.92643881775438785552978515625">
        <ele>4192.60009765625</ele>
        <time>2026-05-25T15:11:53.000Z</time>
        <extensions>
          <ns3:TrackPointExtension>
            <ns3:hr>81</ns3:hr>
            <ns3:cad>0</ns3:cad>
          </ns3:TrackPointExtension>
        </extensions>
      </trkpt>
      <trkpt lat="38.0215856619179248809814453125" lon="-106.92643932066857814788818359375">
        <ele>4192.7998046875</ele>
        <time>2026-05-25T15:11:59.000Z</time>
        <extensions>
          <ns3:TrackPointExtension>
            <ns3:hr>80</ns3:hr>
            <ns3:cad>0</ns3:cad>
          </ns3:TrackPointExtension>
        </extensions>
      </trkpt>
      <trkpt lat="38.0215856619179248809814453125" lon="-106.92643932066857814788818359375">
        <ele>4192.7998046875</ele>
        <time>2026-05-25T15:12:01.000Z</time>
        <extensions>
          <ns3:TrackPointExtension>
            <ns3:hr>81</ns3:hr>
            <ns3:cad>0</ns3:cad>
          </ns3:TrackPointExtension>
        </extensions>
      </trkpt>
      <trkpt lat="38.02158071659505367279052734375" lon="-106.92646086215972900390625">
        <ele>4192.39990234375</ele>
        <time>2026-05-25T15:12:07.000Z</time>
        <extensions>
          <ns3:TrackPointExtension>
            <ns3:hr>81</ns3:hr>
            <ns3:cad>0</ns3:cad>
          </ns3:TrackPointExtension>
        </extensions>
      </trkpt>
      <trkpt lat="38.0215762741863727569580078125" lon="-106.926476955413818359375">
        <ele>4192.2001953125</ele>
        <time>2026-05-25T15:12:09.000Z</time>
        <extensions>
          <ns3:TrackPointExtension>
            <ns3:hr>79</ns3:hr>
            <ns3:cad>0</ns3:cad>
          </ns3:TrackPointExtension>
        </extensions>
      </trkpt>
      <trkpt lat="38.0215799622237682342529296875" lon="-106.92650084383785724639892578125">
        <ele>4191.60009765625</ele>
        <time>2026-05-25T15:12:13.000Z</time>
        <extensions>
          <ns3:TrackPointExtension>
            <ns3:hr>77</ns3:hr>
            <ns3:cad>0</ns3:cad>
          </ns3:TrackPointExtension>
        </extensions>
      </trkpt>
      <trkpt lat="38.0215715803205966949462890625" lon="-106.9265129975974559783935546875">
        <ele>4191.39990234375</ele>
        <time>2026-05-25T15:12:15.000Z</time>
        <extensions>
          <ns3:TrackPointExtension>
            <ns3:hr>76</ns3:hr>
            <ns3:cad>0</ns3:cad>
          </ns3:TrackPointExtension>
        </extensions>
      </trkpt>
      <trkpt lat="38.02156898193061351776123046875" lon="-106.926532946527004241943359375">
        <ele>4191</ele>
        <time>2026-05-25T15:12:18.000Z</time>
        <extensions>
          <ns3:TrackPointExtension>
            <ns3:hr>82</ns3:hr>
            <ns3:cad>44</ns3:cad>
          </ns3:TrackPointExtension>
        </extensions>
      </trkpt>
      <trkpt lat="38.02156764082610607147216796875" lon="-106.92653973586857318878173828125">
        <ele>4190.7998046875</ele>
        <time>2026-05-25T15:12:19.000Z</time>
        <extensions>
          <ns3:TrackPointExtension>
            <ns3:hr>82</ns3:hr>
            <ns3:cad>0</ns3:cad>
          </ns3:TrackPointExtension>
        </extensions>
      </trkpt>
      <trkpt lat="38.02156546153128147125244140625" lon="-106.9265455193817615509033203125">
        <ele>4190.60009765625</ele>
        <time>2026-05-25T15:12:20.000Z</time>
        <extensions>
          <ns3:TrackPointExtension>
            <ns3:hr>85</ns3:hr>
            <ns3:cad>0</ns3:cad>
          </ns3:TrackPointExtension>
        </extensions>
      </trkpt>
      <trkpt lat="38.021563030779361724853515625" lon="-106.9265522249042987823486328125">
        <ele>4190.60009765625</ele>
        <time>2026-05-25T15:12:21.000Z</time>
        <extensions>
          <ns3:TrackPointExtension>
            <ns3:hr>86</ns3:hr>
            <ns3:cad>0</ns3:cad>
          </ns3:TrackPointExtension>
        </extensions>
      </trkpt>
      <trkpt lat="38.0215524695813655853271484375" lon="-106.92657611332833766937255859375">
        <ele>4189.60009765625</ele>
        <time>2026-05-25T15:12:25.000Z</time>
        <extensions>
          <ns3:TrackPointExtension>
            <ns3:hr>87</ns3:hr>
            <ns3:cad>0</ns3:cad>
          </ns3:TrackPointExtension>
        </extensions>
      </trkpt>
      <trkpt lat="38.0215501226484775543212890625" lon="-106.92657820880413055419921875">
        <ele>4189.39990234375</ele>
        <time>2026-05-25T15:12:26.000Z</time>
        <extensions>
          <ns3:TrackPointExtension>
            <ns3:hr>88</ns3:hr>
            <ns3:cad>0</ns3:cad>
          </ns3:TrackPointExtension>
        </extensions>
      </trkpt>
      <trkpt lat="38.021536208689212799072265625" lon="-106.9266008399426937103271484375">
        <ele>4188.39990234375</ele>
        <time>2026-05-25T15:12:31.000Z</time>
        <extensions>
          <ns3:TrackPointExtension>
            <ns3:hr>88</ns3:hr>
            <ns3:cad>0</ns3:cad>
          </ns3:TrackPointExtension>
        </extensions>
      </trkpt>
      <trkpt lat="38.02153252065181732177734375" lon="-106.92661467008292675018310546875">
        <ele>4188.2001953125</ele>
        <time>2026-05-25T15:12:34.000Z</time>
        <extensions>
          <ns3:TrackPointExtension>
            <ns3:hr>90</ns3:hr>
            <ns3:cad>0</ns3:cad>
          </ns3:TrackPointExtension>
        </extensions>
      </trkpt>
      <trkpt lat="38.02153897471725940704345703125" lon="-106.9266471080482006072998046875">
        <ele>4187.39990234375</ele>
        <time>2026-05-25T15:12:38.000Z</time>
        <extensions>
          <ns3:TrackPointExtension>
            <ns3:hr>90</ns3:hr>
            <ns3:cad>40</ns3:cad>
          </ns3:TrackPointExtension>
        </extensions>
      </trkpt>
      <trkpt lat="38.02153511904180049896240234375" lon="-106.9266580045223236083984375">
        <ele>4187.2001953125</ele>
        <time>2026-05-25T15:12:40.000Z</time>
        <extensions>
          <ns3:TrackPointExtension>
            <ns3:hr>90</ns3:hr>
            <ns3:cad>0</ns3:cad>
          </ns3:TrackPointExtension>
        </extensions>
      </trkpt>
      <trkpt lat="38.0215238034725189208984375" lon="-106.92668708972632884979248046875">
        <ele>4186</ele>
        <time>2026-05-25T15:12:44.000Z</time>
        <extensions>
          <ns3:TrackPointExtension>
            <ns3:hr>89</ns3:hr>
            <ns3:cad>0</ns3:cad>
          </ns3:TrackPointExtension>
        </extensions>
      </trkpt>
      <trkpt lat="38.02152824588119983673095703125" lon="-106.926706619560718536376953125">
        <ele>4185.39990234375</ele>
        <time>2026-05-25T15:12:46.000Z</time>
        <extensions>
          <ns3:TrackPointExtension>
            <ns3:hr>90</ns3:hr>
            <ns3:cad>0</ns3:cad>
          </ns3:TrackPointExtension>
        </extensions>
      </trkpt>
      <trkpt lat="38.02152422256767749786376953125" lon="-106.9267131574451923370361328125">
        <ele>4185.60009765625</ele>
        <time>2026-05-25T15:12:51.000Z</time>
        <extensions>
          <ns3:TrackPointExtension>
            <ns3:hr>88</ns3:hr>
            <ns3:cad>0</ns3:cad>
          </ns3:TrackPointExtension>
        </extensions>
      </trkpt>
      <trkpt lat="38.0215078778564929962158203125" lon="-106.926733441650867462158203125">
        <ele>4184.7998046875</ele>
        <time>2026-05-25T15:12:55.000Z</time>
        <extensions>
          <ns3:TrackPointExtension>
            <ns3:hr>87</ns3:hr>
            <ns3:cad>0</ns3:cad>
          </ns3:TrackPointExtension>
        </extensions>
      </trkpt>
      <trkpt lat="38.0214969813823699951171875" lon="-106.92674609832465648651123046875">
        <ele>4184.2001953125</ele>
        <time>2026-05-25T15:12:58.000Z</time>
        <extensions>
          <ns3:TrackPointExtension>
            <ns3:hr>88</ns3:hr>
            <ns3:cad>0</ns3:cad>
          </ns3:TrackPointExtension>
        </extensions>
      </trkpt>
      <trkpt lat="38.02148097194731235504150390625" lon="-106.92676638253033161163330078125">
        <ele>4184.2001953125</ele>
        <time>2026-05-25T15:13:04.000Z</time>
        <extensions>
          <ns3:TrackPointExtension>
            <ns3:hr>89</ns3:hr>
            <ns3:cad>0</ns3:cad>
          </ns3:TrackPointExtension>
        </extensions>
      </trkpt>
      <trkpt lat="38.0214699916541576385498046875" lon="-106.9267788715660572052001953125">
        <ele>4183.60009765625</ele>
        <time>2026-05-25T15:13:07.000Z</time>
        <extensions>
          <ns3:TrackPointExtension>
            <ns3:hr>89</ns3:hr>
            <ns3:cad>0</ns3:cad>
          </ns3:TrackPointExtension>
        </extensions>
      </trkpt>
      <trkpt lat="38.0214495398104190826416015625" lon="-106.926790438592433929443359375">
        <ele>4183.39990234375</ele>
        <time>2026-05-25T15:13:11.000Z</time>
        <extensions>
          <ns3:TrackPointExtension>
            <ns3:hr>91</ns3:hr>
            <ns3:cad>0</ns3:cad>
          </ns3:TrackPointExtension>
        </extensions>
      </trkpt>
      <trkpt lat="38.0214056186378002166748046875" lon="-106.92681030370295047760009765625">
        <ele>4183.2001953125</ele>
        <time>2026-05-25T15:13:17.000Z</time>
        <extensions>
          <ns3:TrackPointExtension>
            <ns3:hr>92</ns3:hr>
            <ns3:cad>0</ns3:cad>
          </ns3:TrackPointExtension>
        </extensions>
      </trkpt>
      <trkpt lat="38.02139463834464550018310546875" lon="-106.92683360539376735687255859375">
        <ele>4182.7998046875</ele>
        <time>2026-05-25T15:13:21.000Z</time>
        <extensions>
          <ns3:TrackPointExtension>
            <ns3:hr>95</ns3:hr>
            <ns3:cad>64</ns3:cad>
          </ns3:TrackPointExtension>
        </extensions>
      </trkpt>
      <trkpt lat="38.02139665000140666961669921875" lon="-106.92684383131563663482666015625">
        <ele>4182.7998046875</ele>
        <time>2026-05-25T15:13:22.000Z</time>
        <extensions>
          <ns3:TrackPointExtension>
            <ns3:hr>98</ns3:hr>
            <ns3:cad>64</ns3:cad>
          </ns3:TrackPointExtension>
        </extensions>
      </trkpt>
      <trkpt lat="38.02139815874397754669189453125" lon="-106.9268511235713958740234375">
        <ele>4182.60009765625</ele>
        <time>2026-05-25T15:13:23.000Z</time>
        <extensions>
          <ns3:TrackPointExtension>
            <ns3:hr>99</ns3:hr>
            <ns3:cad>64</ns3:cad>
          </ns3:TrackPointExtension>
        </extensions>
      </trkpt>
      <trkpt lat="38.02138273604214191436767578125" lon="-106.92687870003283023834228515625">
        <ele>4182.2001953125</ele>
        <time>2026-05-25T15:13:26.000Z</time>
        <extensions>
          <ns3:TrackPointExtension>
            <ns3:hr>100</ns3:hr>
            <ns3:cad>0</ns3:cad>
          </ns3:TrackPointExtension>
        </extensions>
      </trkpt>
      <trkpt lat="38.02137385122478008270263671875" lon="-106.926895715296268463134765625">
        <ele>4181.39990234375</ele>
        <time>2026-05-25T15:13:29.000Z</time>
        <extensions>
          <ns3:TrackPointExtension>
            <ns3:hr>99</ns3:hr>
            <ns3:cad>0</ns3:cad>
          </ns3:TrackPointExtension>
        </extensions>
      </trkpt>
      <trkpt lat="38.0213660560548305511474609375" lon="-106.92690677940845489501953125">
        <ele>4181.2001953125</ele>
        <time>2026-05-25T15:13:30.000Z</time>
        <extensions>
          <ns3:TrackPointExtension>
            <ns3:hr>99</ns3:hr>
            <ns3:cad>0</ns3:cad>
          </ns3:TrackPointExtension>
        </extensions>
      </trkpt>
      <trkpt lat="38.02134954370558261871337890625" lon="-106.9269284047186374664306640625">
        <ele>4180.39990234375</ele>
        <time>2026-05-25T15:13:34.000Z</time>
        <extensions>
          <ns3:TrackPointExtension>
            <ns3:hr>97</ns3:hr>
            <ns3:cad>0</ns3:cad>
          </ns3:TrackPointExtension>
        </extensions>
      </trkpt>
      <trkpt lat="38.02134568803012371063232421875" lon="-106.9269314222037792205810546875">
        <ele>4180.2001953125</ele>
        <time>2026-05-25T15:13:35.000Z</time>
        <extensions>
          <ns3:TrackPointExtension>
            <ns3:hr>97</ns3:hr>
            <ns3:cad>0</ns3:cad>
          </ns3:TrackPointExtension>
        </extensions>
      </trkpt>
      <trkpt lat="38.02133210934698581695556640625" lon="-106.92693251185119152069091796875">
        <ele>4179.7998046875</ele>
        <time>2026-05-25T15:13:37.000Z</time>
        <extensions>
          <ns3:TrackPointExtension>
            <ns3:hr>96</ns3:hr>
            <ns3:cad>0</ns3:cad>
          </ns3:TrackPointExtension>
        </extensions>
      </trkpt>
      <trkpt lat="38.0213130824267864227294921875" lon="-106.92695799283683300018310546875">
        <ele>4179.2001953125</ele>
        <time>2026-05-25T15:13:40.000Z</time>
        <extensions>
          <ns3:TrackPointExtension>
            <ns3:hr>97</ns3:hr>
            <ns3:cad>0</ns3:cad>
          </ns3:TrackPointExtension>
        </extensions>
      </trkpt>
      <trkpt lat="38.02131366916000843048095703125" lon="-106.926970817148685455322265625">
        <ele>4179</ele>
        <time>2026-05-25T15:13:41.000Z</time>
        <extensions>
          <ns3:TrackPointExtension>
            <ns3:hr>97</ns3:hr>
            <ns3:cad>0</ns3:cad>
          </ns3:TrackPointExtension>
        </extensions>
      </trkpt>
      <trkpt lat="38.0213104002177715301513671875" lon="-106.927026808261871337890625">
        <ele>4178.60009765625</ele>
        <time>2026-05-25T15:13:47.000Z</time>
        <extensions>
          <ns3:TrackPointExtension>
            <ns3:hr>98</ns3:hr>
            <ns3:cad>0</ns3:cad>
          </ns3:TrackPointExtension>
        </extensions>
      </trkpt>
      <trkpt lat="38.0213107354938983917236328125" lon="-106.927035860717296600341796875">
        <ele>4178.2001953125</ele>
        <time>2026-05-25T15:13:49.000Z</time>
        <extensions>
          <ns3:TrackPointExtension>
            <ns3:hr>98</ns3:hr>
            <ns3:cad>79</ns3:cad>
          </ns3:TrackPointExtension>
        </extensions>
      </trkpt>
      <trkpt lat="38.02130092866718769073486328125" lon="-106.9270444102585315704345703125">
        <ele>4177.39990234375</ele>
        <time>2026-05-25T15:13:51.000Z</time>
        <extensions>
          <ns3:TrackPointExtension>
            <ns3:hr>99</ns3:hr>
            <ns3:cad>0</ns3:cad>
          </ns3:TrackPointExtension>
        </extensions>
      </trkpt>
      <trkpt lat="38.02129573188722133636474609375" lon="-106.92705002613365650177001953125">
        <ele>4177</ele>
        <time>2026-05-25T15:13:52.000Z</time>
        <extensions>
          <ns3:TrackPointExtension>
            <ns3:hr>99</ns3:hr>
            <ns3:cad>0</ns3:cad>
          </ns3:TrackPointExtension>
        </extensions>
      </trkpt>
      <trkpt lat="38.0212919600307941436767578125" lon="-106.9270551390945911407470703125">
        <ele>4176.39990234375</ele>
        <time>2026-05-25T15:13:53.000Z</time>
        <extensions>
          <ns3:TrackPointExtension>
            <ns3:hr>98</ns3:hr>
            <ns3:cad>0</ns3:cad>
          </ns3:TrackPointExtension>
        </extensions>
      </trkpt>
      <trkpt lat="38.02128064446151256561279296875" lon="-106.92705471999943256378173828125">
        <ele>4175.7998046875</ele>
        <time>2026-05-25T15:13:55.000Z</time>
        <extensions>
          <ns3:TrackPointExtension>
            <ns3:hr>98</ns3:hr>
            <ns3:cad>0</ns3:cad>
          </ns3:TrackPointExtension>
        </extensions>
      </trkpt>
      <trkpt lat="38.02125566639006137847900390625" lon="-106.9270648621022701263427734375">
        <ele>4175.7998046875</ele>
        <time>2026-05-25T15:13:58.000Z</time>
        <extensions>
          <ns3:TrackPointExtension>
            <ns3:hr>95</ns3:hr>
            <ns3:cad>0</ns3:cad>
          </ns3:TrackPointExtension>
        </extensions>
      </trkpt>
      <trkpt lat="38.02125030197203159332275390625" lon="-106.92707383073866367340087890625">
        <ele>4175.7998046875</ele>
        <time>2026-05-25T15:14:00.000Z</time>
        <extensions>
          <ns3:TrackPointExtension>
            <ns3:hr>92</ns3:hr>
            <ns3:cad>0</ns3:cad>
          </ns3:TrackPointExtension>
        </extensions>
      </trkpt>
      <trkpt lat="38.02125181071460247039794921875" lon="-106.92708506248891353607177734375">
        <ele>4175.39990234375</ele>
        <time>2026-05-25T15:14:03.000Z</time>
        <extensions>
          <ns3:TrackPointExtension>
            <ns3:hr>90</ns3:hr>
            <ns3:cad>0</ns3:cad>
          </ns3:TrackPointExtension>
        </extensions>
      </trkpt>
      <trkpt lat="38.0212242342531681060791015625" lon="-106.92709629423916339874267578125">
        <ele>4174.7998046875</ele>
        <time>2026-05-25T15:14:09.000Z</time>
        <extensions>
          <ns3:TrackPointExtension>
            <ns3:hr>89</ns3:hr>
            <ns3:cad>0</ns3:cad>
          </ns3:TrackPointExtension>
        </extensions>
      </trkpt>
      <trkpt lat="38.02117712795734405517578125" lon="-106.92711439915001392364501953125">
        <ele>4174.39990234375</ele>
        <time>2026-05-25T15:14:15.000Z</time>
        <extensions>
          <ns3:TrackPointExtension>
            <ns3:hr>92</ns3:hr>
            <ns3:cad>0</ns3:cad>
          </ns3:TrackPointExtension>
        </extensions>
      </trkpt>
      <trkpt lat="38.0211509764194488525390625" lon="-106.92711590789258480072021484375">
        <ele>4174</ele>
        <time>2026-05-25T15:14:17.000Z</time>
        <extensions>
          <ns3:TrackPointExtension>
            <ns3:hr>93</ns3:hr>
            <ns3:cad>0</ns3:cad>
          </ns3:TrackPointExtension>
        </extensions>
      </trkpt>
      <trkpt lat="38.02114619873464107513427734375" lon="-106.92711758427321910858154296875">
        <ele>4173.60009765625</ele>
        <time>2026-05-25T15:14:18.000Z</time>
        <extensions>
          <ns3:TrackPointExtension>
            <ns3:hr>92</ns3:hr>
            <ns3:cad>0</ns3:cad>
          </ns3:TrackPointExtension>
        </extensions>
      </trkpt>
      <trkpt lat="38.02112356759607791900634765625" lon="-106.92713183350861072540283203125">
        <ele>4173</ele>
        <time>2026-05-25T15:14:22.000Z</time>
        <extensions>
          <ns3:TrackPointExtension>
            <ns3:hr>89</ns3:hr>
            <ns3:cad>0</ns3:cad>
          </ns3:TrackPointExtension>
        </extensions>
      </trkpt>
      <trkpt lat="38.02112272940576076507568359375" lon="-106.92713744938373565673828125">
        <ele>4173.2001953125</ele>
        <time>2026-05-25T15:14:23.000Z</time>
        <extensions>
          <ns3:TrackPointExtension>
            <ns3:hr>89</ns3:hr>
            <ns3:cad>0</ns3:cad>
          </ns3:TrackPointExtension>
        </extensions>
      </trkpt>
      <trkpt lat="38.02111334167420864105224609375" lon="-106.92714373581111431121826171875">
        <ele>4173.2001953125</ele>
        <time>2026-05-25T15:14:24.000Z</time>
        <extensions>
          <ns3:TrackPointExtension>
            <ns3:hr>86</ns3:hr>
            <ns3:cad>0</ns3:cad>
          </ns3:TrackPointExtension>
        </extensions>
      </trkpt>
      <trkpt lat="38.02110747434198856353759765625" lon="-106.92715144716203212738037109375">
        <ele>4173.39990234375</ele>
        <time>2026-05-25T15:14:25.000Z</time>
        <extensions>
          <ns3:TrackPointExtension>
            <ns3:hr>83</ns3:hr>
            <ns3:cad>0</ns3:cad>
          </ns3:TrackPointExtension>
        </extensions>
      </trkpt>
      <trkpt lat="38.02110160700976848602294921875" lon="-106.9271573983132839202880859375">
        <ele>4173.2001953125</ele>
        <time>2026-05-25T15:14:26.000Z</time>
        <extensions>
          <ns3:TrackPointExtension>
            <ns3:hr>80</ns3:hr>
            <ns3:cad>0</ns3:cad>
          </ns3:TrackPointExtension>
        </extensions>
      </trkpt>
      <trkpt lat="38.021099008619785308837890625" lon="-106.92716561257839202880859375">
        <ele>4172.7998046875</ele>
        <time>2026-05-25T15:14:28.000Z</time>
        <extensions>
          <ns3:TrackPointExtension>
            <ns3:hr>78</ns3:hr>
            <ns3:cad>0</ns3:cad>
          </ns3:TrackPointExtension>
        </extensions>
      </trkpt>
      <trkpt lat="38.02109506912529468536376953125" lon="-106.92717189900577068328857421875">
        <ele>4172.60009765625</ele>
        <time>2026-05-25T15:14:29.000Z</time>
        <extensions>
          <ns3:TrackPointExtension>
            <ns3:hr>78</ns3:hr>
            <ns3:cad>0</ns3:cad>
          </ns3:TrackPointExtension>
        </extensions>
      </trkpt>
      <trkpt lat="38.0210837535560131072998046875" lon="-106.92719503305852413177490234375">
        <ele>4171.60009765625</ele>
        <time>2026-05-25T15:14:34.000Z</time>
        <extensions>
          <ns3:TrackPointExtension>
            <ns3:hr>78</ns3:hr>
            <ns3:cad>0</ns3:cad>
          </ns3:TrackPointExtension>
        </extensions>
      </trkpt>
      <trkpt lat="38.02108786068856716156005859375" lon="-106.9272083602845668792724609375">
        <ele>4171.7998046875</ele>
        <time>2026-05-25T15:14:36.000Z</time>
        <extensions>
          <ns3:TrackPointExtension>
            <ns3:hr>77</ns3:hr>
            <ns3:cad>0</ns3:cad>
          </ns3:TrackPointExtension>
        </extensions>
      </trkpt>
      <trkpt lat="38.02109758369624614715576171875" lon="-106.92724733613431453704833984375">
        <ele>4171.60009765625</ele>
        <time>2026-05-25T15:14:42.000Z</time>
        <extensions>
          <ns3:TrackPointExtension>
            <ns3:hr>78</ns3:hr>
            <ns3:cad>0</ns3:cad>
          </ns3:TrackPointExtension>
        </extensions>
      </trkpt>
      <trkpt lat="38.021096326410770416259765625" lon="-106.9272606633603572845458984375">
        <ele>4171</ele>
        <time>2026-05-25T15:14:44.000Z</time>
        <extensions>
          <ns3:TrackPointExtension>
            <ns3:hr>78</ns3:hr>
            <ns3:cad>43</ns3:cad>
          </ns3:TrackPointExtension>
        </extensions>
      </trkpt>
      <trkpt lat="38.0210946500301361083984375" lon="-106.9272730685770511627197265625">
        <ele>4170.39990234375</ele>
        <time>2026-05-25T15:14:46.000Z</time>
        <extensions>
          <ns3:TrackPointExtension>
            <ns3:hr>77</ns3:hr>
            <ns3:cad>0</ns3:cad>
          </ns3:TrackPointExtension>
        </extensions>
      </trkpt>
      <trkpt lat="38.021095655858516693115234375" lon="-106.92730131559073925018310546875">
        <ele>4169.39990234375</ele>
        <time>2026-05-25T15:14:52.000Z</time>
        <extensions>
          <ns3:TrackPointExtension>
            <ns3:hr>76</ns3:hr>
            <ns3:cad>0</ns3:cad>
          </ns3:TrackPointExtension>
        </extensions>
      </trkpt>
      <trkpt lat="38.02108987234532833099365234375" lon="-106.92730399779975414276123046875">
        <ele>4169.39990234375</ele>
        <time>2026-05-25T15:14:53.000Z</time>
        <extensions>
          <ns3:TrackPointExtension>
            <ns3:hr>76</ns3:hr>
            <ns3:cad>0</ns3:cad>
          </ns3:TrackPointExtension>
        </extensions>
      </trkpt>
      <trkpt lat="38.02107964642345905303955078125" lon="-106.92730885930359363555908203125">
        <ele>4168.39990234375</ele>
        <time>2026-05-25T15:14:56.000Z</time>
        <extensions>
          <ns3:TrackPointExtension>
            <ns3:hr>76</ns3:hr>
            <ns3:cad>0</ns3:cad>
          </ns3:TrackPointExtension>
        </extensions>
      </trkpt>
      <trkpt lat="38.0210800655186176300048828125" lon="-106.92732512019574642181396484375">
        <ele>4167.39990234375</ele>
        <time>2026-05-25T15:14:59.000Z</time>
        <extensions>
          <ns3:TrackPointExtension>
            <ns3:hr>76</ns3:hr>
            <ns3:cad>0</ns3:cad>
          </ns3:TrackPointExtension>
        </extensions>
      </trkpt>
      <trkpt lat="38.0210820771753787994384765625" lon="-106.92732713185250759124755859375">
        <ele>4167.39990234375</ele>
        <time>2026-05-25T15:15:00.000Z</time>
        <extensions>
          <ns3:TrackPointExtension>
            <ns3:hr>76</ns3:hr>
            <ns3:cad>0</ns3:cad>
          </ns3:TrackPointExtension>
        </extensions>
      </trkpt>
      <trkpt lat="38.02108953706920146942138671875" lon="-106.9273431412875652313232421875">
        <ele>4167.2001953125</ele>
        <time>2026-05-25T15:15:06.000Z</time>
        <extensions>
          <ns3:TrackPointExtension>
            <ns3:hr>77</ns3:hr>
            <ns3:cad>0</ns3:cad>
          </ns3:TrackPointExtension>
        </extensions>
      </trkpt>
      <trkpt lat="38.02109389565885066986083984375" lon="-106.927347667515277862548828125">
        <ele>4167.2001953125</ele>
        <time>2026-05-25T15:15:07.000Z</time>
        <extensions>
          <ns3:TrackPointExtension>
            <ns3:hr>76</ns3:hr>
            <ns3:cad>0</ns3:cad>
          </ns3:TrackPointExtension>
        </extensions>
      </trkpt>
      <trkpt lat="38.0211058817803859710693359375" lon="-106.927368454635143280029296875">
        <ele>4166.39990234375</ele>
        <time>2026-05-25T15:15:13.000Z</time>
        <extensions>
          <ns3:TrackPointExtension>
            <ns3:hr>76</ns3:hr>
            <ns3:cad>0</ns3:cad>
          </ns3:TrackPointExtension>
        </extensions>
      </trkpt>
      <trkpt lat="38.0211058817803859710693359375" lon="-106.927368454635143280029296875">
        <ele>4166.2001953125</ele>
        <time>2026-05-25T15:15:14.000Z</time>
        <extensions>
          <ns3:TrackPointExtension>
            <ns3:hr>76</ns3:hr>
            <ns3:cad>0</ns3:cad>
          </ns3:TrackPointExtension>
        </extensions>
      </trkpt>
      <trkpt lat="38.0211058817803859710693359375" lon="-106.927368454635143280029296875">
        <ele>4165.7998046875</ele>
        <time>2026-05-25T15:15:19.000Z</time>
        <extensions>
          <ns3:TrackPointExtension>
            <ns3:hr>73</ns3:hr>
            <ns3:cad>0</ns3:cad>
          </ns3:TrackPointExtension>
        </extensions>
      </trkpt>
      <trkpt lat="38.0211058817803859710693359375" lon="-106.927368454635143280029296875">
        <ele>4165.7998046875</ele>
        <time>2026-05-25T15:15:21.000Z</time>
        <extensions>
          <ns3:TrackPointExtension>
            <ns3:hr>70</ns3:hr>
            <ns3:cad>0</ns3:cad>
          </ns3:TrackPointExtension>
        </extensions>
      </trkpt>
      <trkpt lat="38.0211058817803859710693359375" lon="-106.927368454635143280029296875">
        <ele>4165.60009765625</ele>
        <time>2026-05-25T15:15:23.000Z</time>
        <extensions>
          <ns3:TrackPointExtension>
            <ns3:hr>68</ns3:hr>
            <ns3:cad>0</ns3:cad>
          </ns3:TrackPointExtension>
        </extensions>
      </trkpt>
      <trkpt lat="38.02111317403614521026611328125" lon="-106.92739485763013362884521484375">
        <ele>4165.2001953125</ele>
        <time>2026-05-25T15:15:26.000Z</time>
        <extensions>
          <ns3:TrackPointExtension>
            <ns3:hr>69</ns3:hr>
            <ns3:cad>0</ns3:cad>
          </ns3:TrackPointExtension>
        </extensions>
      </trkpt>
      <trkpt lat="38.02111317403614521026611328125" lon="-106.92739586345851421356201171875">
        <ele>4165</ele>
        <time>2026-05-25T15:15:27.000Z</time>
        <extensions>
          <ns3:TrackPointExtension>
            <ns3:hr>68</ns3:hr>
            <ns3:cad>0</ns3:cad>
          </ns3:TrackPointExtension>
        </extensions>
      </trkpt>
      <trkpt lat="38.02110780961811542510986328125" lon="-106.9274199195206165313720703125">
        <ele>4164.2001953125</ele>
        <time>2026-05-25T15:15:33.000Z</time>
        <extensions>
          <ns3:TrackPointExtension>
            <ns3:hr>69</ns3:hr>
            <ns3:cad>0</ns3:cad>
          </ns3:TrackPointExtension>
        </extensions>
      </trkpt>
      <trkpt lat="38.02110563032329082489013671875" lon="-106.927423439919948577880859375">
        <ele>4164.2001953125</ele>
        <time>2026-05-25T15:15:34.000Z</time>
        <extensions>
          <ns3:TrackPointExtension>
            <ns3:hr>69</ns3:hr>
            <ns3:cad>0</ns3:cad>
          </ns3:TrackPointExtension>
        </extensions>
      </trkpt>
      <trkpt lat="38.02110378630459308624267578125" lon="-106.92742645740509033203125">
        <ele>4164.2001953125</ele>
        <time>2026-05-25T15:15:35.000Z</time>
        <extensions>
          <ns3:TrackPointExtension>
            <ns3:hr>69</ns3:hr>
            <ns3:cad>0</ns3:cad>
          </ns3:TrackPointExtension>
        </extensions>
      </trkpt>
      <trkpt lat="38.02109624259173870086669921875" lon="-106.92743693478405475616455078125">
        <ele>4163.60009765625</ele>
        <time>2026-05-25T15:15:41.000Z</time>
        <extensions>
          <ns3:TrackPointExtension>
            <ns3:hr>69</ns3:hr>
            <ns3:cad>0</ns3:cad>
          </ns3:TrackPointExtension>
        </extensions>
      </trkpt>
      <trkpt lat="38.02110093645751476287841796875" lon="-106.927454955875873565673828125">
        <ele>4163.39990234375</ele>
        <time>2026-05-25T15:15:42.000Z</time>
        <extensions>
          <ns3:TrackPointExtension>
            <ns3:hr>69</ns3:hr>
            <ns3:cad>0</ns3:cad>
          </ns3:TrackPointExtension>
        </extensions>
      </trkpt>
      <trkpt lat="38.02110127173364162445068359375" lon="-106.92746744491159915924072265625">
        <ele>4163</ele>
        <time>2026-05-25T15:15:45.000Z</time>
        <extensions>
          <ns3:TrackPointExtension>
            <ns3:hr>69</ns3:hr>
            <ns3:cad>0</ns3:cad>
          </ns3:TrackPointExtension>
        </extensions>
      </trkpt>
      <trkpt lat="38.0210978351533412933349609375" lon="-106.9274826161563396453857421875">
        <ele>4162.2001953125</ele>
        <time>2026-05-25T15:15:48.000Z</time>
        <extensions>
          <ns3:TrackPointExtension>
            <ns3:hr>69</ns3:hr>
            <ns3:cad>0</ns3:cad>
          </ns3:TrackPointExtension>
        </extensions>
      </trkpt>
      <trkpt lat="38.021093644201755523681640625" lon="-106.9274906627833843231201171875">
        <ele>4162</ele>
        <time>2026-05-25T15:15:50.000Z</time>
        <extensions>
          <ns3:TrackPointExtension>
            <ns3:hr>69</ns3:hr>
            <ns3:cad>0</ns3:cad>
          </ns3:TrackPointExtension>
        </extensions>
      </trkpt>
      <trkpt lat="38.021098338067531585693359375" lon="-106.927518658339977264404296875">
        <ele>4161.7998046875</ele>
        <time>2026-05-25T15:15:54.000Z</time>
        <extensions>
          <ns3:TrackPointExtension>
            <ns3:hr>69</ns3:hr>
            <ns3:cad>0</ns3:cad>
          </ns3:TrackPointExtension>
        </extensions>
      </trkpt>
      <trkpt lat="38.02110412158071994781494140625" lon="-106.9275409542024135589599609375">
        <ele>4160.7998046875</ele>
        <time>2026-05-25T15:16:00.000Z</time>
        <extensions>
          <ns3:TrackPointExtension>
            <ns3:hr>70</ns3:hr>
            <ns3:cad>0</ns3:cad>
          </ns3:TrackPointExtension>
        </extensions>
      </trkpt>
      <trkpt lat="38.02108861505985260009765625" lon="-106.92754170857369899749755859375">
        <ele>4159.7998046875</ele>
        <time>2026-05-25T15:16:05.000Z</time>
        <extensions>
          <ns3:TrackPointExtension>
            <ns3:hr>72</ns3:hr>
            <ns3:cad>0</ns3:cad>
          </ns3:TrackPointExtension>
        </extensions>
      </trkpt>
      <trkpt lat="38.02108333446085453033447265625" lon="-106.92754958756268024444580078125">
        <ele>4159.60009765625</ele>
        <time>2026-05-25T15:16:07.000Z</time>
        <extensions>
          <ns3:TrackPointExtension>
            <ns3:hr>72</ns3:hr>
            <ns3:cad>0</ns3:cad>
          </ns3:TrackPointExtension>
        </extensions>
      </trkpt>
      <trkpt lat="38.02109708078205585479736328125" lon="-106.92758143879473209381103515625">
        <ele>4159</ele>
        <time>2026-05-25T15:16:13.000Z</time>
        <extensions>
          <ns3:TrackPointExtension>
            <ns3:hr>71</ns3:hr>
            <ns3:cad>0</ns3:cad>
          </ns3:TrackPointExtension>
        </extensions>
      </trkpt>
      <trkpt lat="38.02109624259173870086669921875" lon="-106.9275818578898906707763671875">
        <ele>4159</ele>
        <time>2026-05-25T15:16:14.000Z</time>
        <extensions>
          <ns3:TrackPointExtension>
            <ns3:hr>71</ns3:hr>
            <ns3:cad>0</ns3:cad>
          </ns3:TrackPointExtension>
        </extensions>
      </trkpt>
      <trkpt lat="38.02109758369624614715576171875" lon="-106.92758135497570037841796875">
        <ele>4158.60009765625</ele>
        <time>2026-05-25T15:16:19.000Z</time>
        <extensions>
          <ns3:TrackPointExtension>
            <ns3:hr>70</ns3:hr>
            <ns3:cad>0</ns3:cad>
          </ns3:TrackPointExtension>
        </extensions>
      </trkpt>
      <trkpt lat="38.02109976299107074737548828125" lon="-106.92758730612695217132568359375">
        <ele>4158.39990234375</ele>
        <time>2026-05-25T15:16:23.000Z</time>
        <extensions>
          <ns3:TrackPointExtension>
            <ns3:hr>68</ns3:hr>
            <ns3:cad>0</ns3:cad>
          </ns3:TrackPointExtension>
        </extensions>
      </trkpt>
      <trkpt lat="38.02109666168689727783203125" lon="-106.9276063330471515655517578125">
        <ele>4158</ele>
        <time>2026-05-25T15:16:26.000Z</time>
        <extensions>
          <ns3:TrackPointExtension>
            <ns3:hr>65</ns3:hr>
            <ns3:cad>53</ns3:cad>
          </ns3:TrackPointExtension>
        </extensions>
      </trkpt>
      <trkpt lat="38.02110110409557819366455078125" lon="-106.9276214204728603363037109375">
        <ele>4157.60009765625</ele>
        <time>2026-05-25T15:16:28.000Z</time>
        <extensions>
          <ns3:TrackPointExtension>
            <ns3:hr>64</ns3:hr>
            <ns3:cad>0</ns3:cad>
          </ns3:TrackPointExtension>
        </extensions>
      </trkpt>
      <trkpt lat="38.02111635915935039520263671875" lon="-106.927646733820438385009765625">
        <ele>4156.60009765625</ele>
        <time>2026-05-25T15:16:33.000Z</time>
        <extensions>
          <ns3:TrackPointExtension>
            <ns3:hr>67</ns3:hr>
            <ns3:cad>0</ns3:cad>
          </ns3:TrackPointExtension>
        </extensions>
      </trkpt>
      <trkpt lat="38.021116442978382110595703125" lon="-106.92765377461910247802734375">
        <ele>4156.39990234375</ele>
        <time>2026-05-25T15:16:34.000Z</time>
        <extensions>
          <ns3:TrackPointExtension>
            <ns3:hr>67</ns3:hr>
            <ns3:cad>0</ns3:cad>
          </ns3:TrackPointExtension>
        </extensions>
      </trkpt>
      <trkpt lat="38.021116442978382110595703125" lon="-106.92766190506517887115478515625">
        <ele>4156.39990234375</ele>
        <time>2026-05-25T15:16:35.000Z</time>
        <extensions>
          <ns3:TrackPointExtension>
            <ns3:hr>67</ns3:hr>
            <ns3:cad>0</ns3:cad>
          </ns3:TrackPointExtension>
        </extensions>
      </trkpt>
      <trkpt lat="38.021117113530635833740234375" lon="-106.92767322063446044921875">
        <ele>4156.39990234375</ele>
        <time>2026-05-25T15:16:40.000Z</time>
        <extensions>
          <ns3:TrackPointExtension>
            <ns3:hr>70</ns3:hr>
            <ns3:cad>46</ns3:cad>
          </ns3:TrackPointExtension>
        </extensions>
      </trkpt>
      <trkpt lat="38.0211132578551769256591796875" lon="-106.92766928113996982574462890625">
        <ele>4155.7998046875</ele>
        <time>2026-05-25T15:16:43.000Z</time>
        <extensions>
          <ns3:TrackPointExtension>
            <ns3:hr>71</ns3:hr>
            <ns3:cad>0</ns3:cad>
          </ns3:TrackPointExtension>
        </extensions>
      </trkpt>
      <trkpt lat="38.02111401222646236419677734375" lon="-106.92766928113996982574462890625">
        <ele>4155.39990234375</ele>
        <time>2026-05-25T15:16:44.000Z</time>
        <extensions>
          <ns3:TrackPointExtension>
            <ns3:hr>72</ns3:hr>
            <ns3:cad>0</ns3:cad>
          </ns3:TrackPointExtension>
        </extensions>
      </trkpt>
      <trkpt lat="38.02111417986452579498291015625" lon="-106.927668862044811248779296875">
        <ele>4155.7998046875</ele>
        <time>2026-05-25T15:16:50.000Z</time>
        <extensions>
          <ns3:TrackPointExtension>
            <ns3:hr>75</ns3:hr>
            <ns3:cad>0</ns3:cad>
          </ns3:TrackPointExtension>
        </extensions>
      </trkpt>
      <trkpt lat="38.02110998891294002532958984375" lon="-106.92767347209155559539794921875">
        <ele>4155.7998046875</ele>
        <time>2026-05-25T15:16:52.000Z</time>
        <extensions>
          <ns3:TrackPointExtension>
            <ns3:hr>76</ns3:hr>
            <ns3:cad>0</ns3:cad>
          </ns3:TrackPointExtension>
        </extensions>
      </trkpt>
      <trkpt lat="38.02111401222646236419677734375" lon="-106.92766928113996982574462890625">
        <ele>4155.7998046875</ele>
        <time>2026-05-25T15:16:54.000Z</time>
        <extensions>
          <ns3:TrackPointExtension>
            <ns3:hr>79</ns3:hr>
            <ns3:cad>0</ns3:cad>
          </ns3:TrackPointExtension>
        </extensions>
      </trkpt>
      <trkpt lat="38.02111401222646236419677734375" lon="-106.92766928113996982574462890625">
        <ele>4155.60009765625</ele>
        <time>2026-05-25T15:16:57.000Z</time>
        <extensions>
          <ns3:TrackPointExtension>
            <ns3:hr>82</ns3:hr>
            <ns3:cad>0</ns3:cad>
          </ns3:TrackPointExtension>
        </extensions>
      </trkpt>
      <trkpt lat="38.02111401222646236419677734375" lon="-106.92766928113996982574462890625">
        <ele>4155.60009765625</ele>
        <time>2026-05-25T15:17:00.000Z</time>
        <extensions>
          <ns3:TrackPointExtension>
            <ns3:hr>79</ns3:hr>
            <ns3:cad>0</ns3:cad>
          </ns3:TrackPointExtension>
        </extensions>
      </trkpt>
      <trkpt lat="38.02111401222646236419677734375" lon="-106.92766928113996982574462890625">
        <ele>4155.7998046875</ele>
        <time>2026-05-25T15:17:01.000Z</time>
        <extensions>
          <ns3:TrackPointExtension>
            <ns3:hr>78</ns3:hr>
            <ns3:cad>0</ns3:cad>
          </ns3:TrackPointExtension>
        </extensions>
      </trkpt>
      <trkpt lat="38.02111568860709667205810546875" lon="-106.92768151871860027313232421875">
        <ele>4156</ele>
        <time>2026-05-25T15:17:05.000Z</time>
        <extensions>
          <ns3:TrackPointExtension>
            <ns3:hr>73</ns3:hr>
            <ns3:cad>0</ns3:cad>
          </ns3:TrackPointExtension>
        </extensions>
      </trkpt>
      <trkpt lat="38.02111820317804813385009765625" lon="-106.927691996097564697265625">
        <ele>4156.60009765625</ele>
        <time>2026-05-25T15:17:08.000Z</time>
        <extensions>
          <ns3:TrackPointExtension>
            <ns3:hr>75</ns3:hr>
            <ns3:cad>0</ns3:cad>
          </ns3:TrackPointExtension>
        </extensions>
      </trkpt>
      <trkpt lat="38.02111870609223842620849609375" lon="-106.927701048552989959716796875">
        <ele>4155.60009765625</ele>
        <time>2026-05-25T15:17:13.000Z</time>
        <extensions>
          <ns3:TrackPointExtension>
            <ns3:hr>76</ns3:hr>
            <ns3:cad>0</ns3:cad>
          </ns3:TrackPointExtension>
        </extensions>
      </trkpt>
      <trkpt lat="38.02111870609223842620849609375" lon="-106.927701048552989959716796875">
        <ele>4154.60009765625</ele>
        <time>2026-05-25T15:17:18.000Z</time>
        <extensions>
          <ns3:TrackPointExtension>
            <ns3:hr>76</ns3:hr>
            <ns3:cad>0</ns3:cad>
          </ns3:TrackPointExtension>
        </extensions>
      </trkpt>
      <trkpt lat="38.02111870609223842620849609375" lon="-106.927701048552989959716796875">
        <ele>4155.2001953125</ele>
        <time>2026-05-25T15:17:24.000Z</time>
        <extensions>
          <ns3:TrackPointExtension>
            <ns3:hr>77</ns3:hr>
            <ns3:cad>0</ns3:cad>
          </ns3:TrackPointExtension>
        </extensions>
      </trkpt>
      <trkpt lat="38.0211192928254604339599609375" lon="-106.92769979126751422882080078125">
        <ele>4155.39990234375</ele>
        <time>2026-05-25T15:17:25.000Z</time>
        <extensions>
          <ns3:TrackPointExtension>
            <ns3:hr>77</ns3:hr>
            <ns3:cad>0</ns3:cad>
          </ns3:TrackPointExtension>
        </extensions>
      </trkpt>
      <trkpt lat="38.0211196281015872955322265625" lon="-106.92770473659038543701171875">
        <ele>4156</ele>
        <time>2026-05-25T15:17:26.000Z</time>
        <extensions>
          <ns3:TrackPointExtension>
            <ns3:hr>78</ns3:hr>
            <ns3:cad>0</ns3:cad>
          </ns3:TrackPointExtension>
        </extensions>
      </trkpt>
      <trkpt lat="38.02111803553998470306396484375" lon="-106.92771672271192073822021484375">
        <ele>4156</ele>
        <time>2026-05-25T15:17:30.000Z</time>
        <extensions>
          <ns3:TrackPointExtension>
            <ns3:hr>77</ns3:hr>
            <ns3:cad>0</ns3:cad>
          </ns3:TrackPointExtension>
        </extensions>
      </trkpt>
      <trkpt lat="38.02111719734966754913330078125" lon="-106.92772108130156993865966796875">
        <ele>4155</ele>
        <time>2026-05-25T15:17:32.000Z</time>
        <extensions>
          <ns3:TrackPointExtension>
            <ns3:hr>75</ns3:hr>
            <ns3:cad>0</ns3:cad>
          </ns3:TrackPointExtension>
        </extensions>
      </trkpt>
      <trkpt lat="38.021113090217113494873046875" lon="-106.92773834802210330963134765625">
        <ele>4153.60009765625</ele>
        <time>2026-05-25T15:17:35.000Z</time>
        <extensions>
          <ns3:TrackPointExtension>
            <ns3:hr>74</ns3:hr>
            <ns3:cad>0</ns3:cad>
          </ns3:TrackPointExtension>
        </extensions>
      </trkpt>
      <trkpt lat="38.02110135555267333984375" lon="-106.92775192670524120330810546875">
        <ele>4152.7998046875</ele>
        <time>2026-05-25T15:17:38.000Z</time>
        <extensions>
          <ns3:TrackPointExtension>
            <ns3:hr>76</ns3:hr>
            <ns3:cad>0</ns3:cad>
          </ns3:TrackPointExtension>
        </extensions>
      </trkpt>
      <trkpt lat="38.0210884474217891693115234375" lon="-106.92777179181575775146484375">
        <ele>4152.60009765625</ele>
        <time>2026-05-25T15:17:41.000Z</time>
        <extensions>
          <ns3:TrackPointExtension>
            <ns3:hr>77</ns3:hr>
            <ns3:cad>0</ns3:cad>
          </ns3:TrackPointExtension>
        </extensions>
      </trkpt>
      <trkpt lat="38.02106455899775028228759765625" lon="-106.92779324948787689208984375">
        <ele>4152.2001953125</ele>
        <time>2026-05-25T15:17:46.000Z</time>
        <extensions>
          <ns3:TrackPointExtension>
            <ns3:hr>77</ns3:hr>
            <ns3:cad>41</ns3:cad>
          </ns3:TrackPointExtension>
        </extensions>
      </trkpt>
      <trkpt lat="38.02103840745985507965087890625" lon="-106.92781797610223293304443359375">
        <ele>4151.7998046875</ele>
        <time>2026-05-25T15:17:51.000Z</time>
        <extensions>
          <ns3:TrackPointExtension>
            <ns3:hr>77</ns3:hr>
            <ns3:cad>41</ns3:cad>
          </ns3:TrackPointExtension>
        </extensions>
      </trkpt>
      <trkpt lat="38.02102449350059032440185546875" lon="-106.9278299622237682342529296875">
        <ele>4151.39990234375</ele>
        <time>2026-05-25T15:17:53.000Z</time>
        <extensions>
          <ns3:TrackPointExtension>
            <ns3:hr>76</ns3:hr>
            <ns3:cad>55</ns3:cad>
          </ns3:TrackPointExtension>
        </extensions>
      </trkpt>
      <trkpt lat="38.02098442800343036651611328125" lon="-106.927870698273181915283203125">
        <ele>4150.39990234375</ele>
        <time>2026-05-25T15:17:59.000Z</time>
        <extensions>
          <ns3:TrackPointExtension>
            <ns3:hr>77</ns3:hr>
            <ns3:cad>77</ns3:cad>
          </ns3:TrackPointExtension>
        </extensions>
      </trkpt>
      <trkpt lat="38.02094184793531894683837890625" lon="-106.927907578647136688232421875">
        <ele>4150</ele>
        <time>2026-05-25T15:18:05.000Z</time>
        <extensions>
          <ns3:TrackPointExtension>
            <ns3:hr>76</ns3:hr>
            <ns3:cad>0</ns3:cad>
          </ns3:TrackPointExtension>
        </extensions>
      </trkpt>
      <trkpt lat="38.020936064422130584716796875" lon="-106.9279171340167522430419921875">
        <ele>4149.39990234375</ele>
        <time>2026-05-25T15:18:07.000Z</time>
        <extensions>
          <ns3:TrackPointExtension>
            <ns3:hr>75</ns3:hr>
            <ns3:cad>0</ns3:cad>
          </ns3:TrackPointExtension>
        </extensions>
      </trkpt>
      <trkpt lat="38.020936734974384307861328125" lon="-106.927923671901226043701171875">
        <ele>4149.2001953125</ele>
        <time>2026-05-25T15:18:08.000Z</time>
        <extensions>
          <ns3:TrackPointExtension>
            <ns3:hr>74</ns3:hr>
            <ns3:cad>0</ns3:cad>
          </ns3:TrackPointExtension>
        </extensions>
      </trkpt>
      <trkpt lat="38.020907901227474212646484375" lon="-106.92794051952660083770751953125">
        <ele>4148.60009765625</ele>
        <time>2026-05-25T15:18:13.000Z</time>
        <extensions>
          <ns3:TrackPointExtension>
            <ns3:hr>72</ns3:hr>
            <ns3:cad>0</ns3:cad>
          </ns3:TrackPointExtension>
        </extensions>
      </trkpt>
      <trkpt lat="38.020889461040496826171875" lon="-106.9279684312641620635986328125">
        <ele>4148</ele>
        <time>2026-05-25T15:18:15.000Z</time>
        <extensions>
          <ns3:TrackPointExtension>
            <ns3:hr>74</ns3:hr>
            <ns3:cad>0</ns3:cad>
          </ns3:TrackPointExtension>
        </extensions>
      </trkpt>
      <trkpt lat="38.0208654887974262237548828125" lon="-106.92799818702042102813720703125">
        <ele>4147</ele>
        <time>2026-05-25T15:18:18.000Z</time>
        <extensions>
          <ns3:TrackPointExtension>
            <ns3:hr>74</ns3:hr>
            <ns3:cad>68</ns3:cad>
          </ns3:TrackPointExtension>
        </extensions>
      </trkpt>
      <trkpt lat="38.0208510719239711761474609375" lon="-106.92800824530422687530517578125">
        <ele>4146.39990234375</ele>
        <time>2026-05-25T15:18:20.000Z</time>
        <extensions>
          <ns3:TrackPointExtension>
            <ns3:hr>76</ns3:hr>
            <ns3:cad>0</ns3:cad>
          </ns3:TrackPointExtension>
        </extensions>
      </trkpt>
      <trkpt lat="38.0208333022892475128173828125" lon="-106.9280250929296016693115234375">
        <ele>4145.7998046875</ele>
        <time>2026-05-25T15:18:22.000Z</time>
        <extensions>
          <ns3:TrackPointExtension>
            <ns3:hr>77</ns3:hr>
            <ns3:cad>0</ns3:cad>
          </ns3:TrackPointExtension>
        </extensions>
      </trkpt>
      <trkpt lat="38.02078812383115291595458984375" lon="-106.92806842736899852752685546875">
        <ele>4145</ele>
        <time>2026-05-25T15:18:27.000Z</time>
        <extensions>
          <ns3:TrackPointExtension>
            <ns3:hr>77</ns3:hr>
            <ns3:cad>68</ns3:cad>
          </ns3:TrackPointExtension>
        </extensions>
      </trkpt>
      <trkpt lat="38.02077169530093669891357421875" lon="-106.9280854426324367523193359375">
        <ele>4145.39990234375</ele>
        <time>2026-05-25T15:18:30.000Z</time>
        <extensions>
          <ns3:TrackPointExtension>
            <ns3:hr>74</ns3:hr>
            <ns3:cad>0</ns3:cad>
          </ns3:TrackPointExtension>
        </extensions>
      </trkpt>
      <trkpt lat="38.02073263563215732574462890625" lon="-106.928126513957977294921875">
        <ele>4145.2001953125</ele>
        <time>2026-05-25T15:18:36.000Z</time>
        <extensions>
          <ns3:TrackPointExtension>
            <ns3:hr>73</ns3:hr>
            <ns3:cad>53</ns3:cad>
          </ns3:TrackPointExtension>
        </extensions>
      </trkpt>
      <trkpt lat="38.02072651684284210205078125" lon="-106.9281323812901973724365234375">
        <ele>4145.60009765625</ele>
        <time>2026-05-25T15:18:42.000Z</time>
        <extensions>
          <ns3:TrackPointExtension>
            <ns3:hr>73</ns3:hr>
            <ns3:cad>0</ns3:cad>
          </ns3:TrackPointExtension>
        </extensions>
      </trkpt>
      <trkpt lat="38.02072651684284210205078125" lon="-106.9281323812901973724365234375">
        <ele>4145.60009765625</ele>
        <time>2026-05-25T15:18:43.000Z</time>
        <extensions>
          <ns3:TrackPointExtension>
            <ns3:hr>76</ns3:hr>
            <ns3:cad>0</ns3:cad>
          </ns3:TrackPointExtension>
        </extensions>
      </trkpt>
      <trkpt lat="38.02072651684284210205078125" lon="-106.9281323812901973724365234375">
        <ele>4145.60009765625</ele>
        <time>2026-05-25T15:18:45.000Z</time>
        <extensions>
          <ns3:TrackPointExtension>
            <ns3:hr>80</ns3:hr>
            <ns3:cad>0</ns3:cad>
          </ns3:TrackPointExtension>
        </extensions>
      </trkpt>
      <trkpt lat="38.02072651684284210205078125" lon="-106.9281323812901973724365234375">
        <ele>4145.60009765625</ele>
        <time>2026-05-25T15:18:51.000Z</time>
        <extensions>
          <ns3:TrackPointExtension>
            <ns3:hr>80</ns3:hr>
            <ns3:cad>0</ns3:cad>
          </ns3:TrackPointExtension>
        </extensions>
      </trkpt>
      <trkpt lat="38.02072651684284210205078125" lon="-106.9281323812901973724365234375">
        <ele>4145.7998046875</ele>
        <time>2026-05-25T15:18:57.000Z</time>
        <extensions>
          <ns3:TrackPointExtension>
            <ns3:hr>81</ns3:hr>
            <ns3:cad>0</ns3:cad>
          </ns3:TrackPointExtension>
        </extensions>
      </trkpt>
      <trkpt lat="38.02072651684284210205078125" lon="-106.9281323812901973724365234375">
        <ele>4146</ele>
        <time>2026-05-25T15:19:01.000Z</time>
        <extensions>
          <ns3:TrackPointExtension>
            <ns3:hr>78</ns3:hr>
            <ns3:cad>0</ns3:cad>
          </ns3:TrackPointExtension>
        </extensions>
      </trkpt>
      <trkpt lat="38.02072651684284210205078125" lon="-106.9281323812901973724365234375">
        <ele>4145.7998046875</ele>
        <time>2026-05-25T15:19:03.000Z</time>
        <extensions>
          <ns3:TrackPointExtension>
            <ns3:hr>74</ns3:hr>
            <ns3:cad>0</ns3:cad>
          </ns3:TrackPointExtension>
        </extensions>
      </trkpt>
      <trkpt lat="38.02072651684284210205078125" lon="-106.9281323812901973724365234375">
        <ele>4146</ele>
        <time>2026-05-25T15:19:08.000Z</time>
        <extensions>
          <ns3:TrackPointExtension>
            <ns3:hr>71</ns3:hr>
            <ns3:cad>0</ns3:cad>
          </ns3:TrackPointExtension>
        </extensions>
      </trkpt>
      <trkpt lat="38.02072651684284210205078125" lon="-106.9281323812901973724365234375">
        <ele>4146</ele>
        <time>2026-05-25T15:19:10.000Z</time>
        <extensions>
          <ns3:TrackPointExtension>
            <ns3:hr>71</ns3:hr>
            <ns3:cad>0</ns3:cad>
          </ns3:TrackPointExtension>
        </extensions>
      </trkpt>
      <trkpt lat="38.02072651684284210205078125" lon="-106.9281323812901973724365234375">
        <ele>4144.7998046875</ele>
        <time>2026-05-25T15:19:14.000Z</time>
        <extensions>
          <ns3:TrackPointExtension>
            <ns3:hr>70</ns3:hr>
            <ns3:cad>0</ns3:cad>
          </ns3:TrackPointExtension>
        </extensions>
      </trkpt>
      <trkpt lat="38.02072651684284210205078125" lon="-106.9281323812901973724365234375">
        <ele>4145.7998046875</ele>
        <time>2026-05-25T15:19:20.000Z</time>
        <extensions>
          <ns3:TrackPointExtension>
            <ns3:hr>71</ns3:hr>
            <ns3:cad>0</ns3:cad>
          </ns3:TrackPointExtension>
        </extensions>
      </trkpt>
      <trkpt lat="38.02072651684284210205078125" lon="-106.9281323812901973724365234375">
        <ele>4145.7998046875</ele>
        <time>2026-05-25T15:19:26.000Z</time>
        <extensions>
          <ns3:TrackPointExtension>
            <ns3:hr>70</ns3:hr>
            <ns3:cad>0</ns3:cad>
          </ns3:TrackPointExtension>
        </extensions>
      </trkpt>
      <trkpt lat="38.02072651684284210205078125" lon="-106.9281323812901973724365234375">
        <ele>4145.7998046875</ele>
        <time>2026-05-25T15:19:27.000Z</time>
        <extensions>
          <ns3:TrackPointExtension>
            <ns3:hr>70</ns3:hr>
            <ns3:cad>0</ns3:cad>
          </ns3:TrackPointExtension>
        </extensions>
      </trkpt>
      <trkpt lat="38.02072651684284210205078125" lon="-106.9281323812901973724365234375">
        <ele>4146</ele>
        <time>2026-05-25T15:19:29.000Z</time>
        <extensions>
          <ns3:TrackPointExtension>
            <ns3:hr>72</ns3:hr>
            <ns3:cad>0</ns3:cad>
          </ns3:TrackPointExtension>
        </extensions>
      </trkpt>
      <trkpt lat="38.02072651684284210205078125" lon="-106.9281323812901973724365234375">
        <ele>4145.60009765625</ele>
        <time>2026-05-25T15:19:35.000Z</time>
        <extensions>
          <ns3:TrackPointExtension>
            <ns3:hr>73</ns3:hr>
            <ns3:cad>0</ns3:cad>
          </ns3:TrackPointExtension>
        </extensions>
      </trkpt>
      <trkpt lat="38.02072651684284210205078125" lon="-106.9281323812901973724365234375">
        <ele>4146.7998046875</ele>
        <time>2026-05-25T15:19:38.000Z</time>
        <extensions>
          <ns3:TrackPointExtension>
            <ns3:hr>70</ns3:hr>
            <ns3:cad>0</ns3:cad>
          </ns3:TrackPointExtension>
        </extensions>
      </trkpt>
      <trkpt lat="38.02072877995669841766357421875" lon="-106.9281313754618167877197265625">
        <ele>4147.39990234375</ele>
        <time>2026-05-25T15:19:39.000Z</time>
        <extensions>
          <ns3:TrackPointExtension>
            <ns3:hr>70</ns3:hr>
            <ns3:cad>0</ns3:cad>
          </ns3:TrackPointExtension>
        </extensions>
      </trkpt>
      <trkpt lat="38.02073649130761623382568359375" lon="-106.92812240682542324066162109375">
        <ele>4148</ele>
        <time>2026-05-25T15:19:45.000Z</time>
        <extensions>
          <ns3:TrackPointExtension>
            <ns3:hr>69</ns3:hr>
            <ns3:cad>0</ns3:cad>
          </ns3:TrackPointExtension>
        </extensions>
      </trkpt>
      <trkpt lat="38.02073649130761623382568359375" lon="-106.92812240682542324066162109375">
        <ele>4148</ele>
        <time>2026-05-25T15:19:46.000Z</time>
        <extensions>
          <ns3:TrackPointExtension>
            <ns3:hr>69</ns3:hr>
            <ns3:cad>0</ns3:cad>
          </ns3:TrackPointExtension>
        </extensions>
      </trkpt>
      <trkpt lat="38.020740263164043426513671875" lon="-106.92812073044478893280029296875">
        <ele>4147.39990234375</ele>
        <time>2026-05-25T15:19:52.000Z</time>
        <extensions>
          <ns3:TrackPointExtension>
            <ns3:hr>69</ns3:hr>
            <ns3:cad>0</ns3:cad>
          </ns3:TrackPointExtension>
        </extensions>
      </trkpt>
      <trkpt lat="38.02073649130761623382568359375" lon="-106.92812240682542324066162109375">
        <ele>4147.2001953125</ele>
        <time>2026-05-25T15:19:57.000Z</time>
        <extensions>
          <ns3:TrackPointExtension>
            <ns3:hr>72</ns3:hr>
            <ns3:cad>0</ns3:cad>
          </ns3:TrackPointExtension>
        </extensions>
      </trkpt>
      <trkpt lat="38.02074261009693145751953125" lon="-106.928115449845790863037109375">
        <ele>4147.2001953125</ele>
        <time>2026-05-25T15:20:03.000Z</time>
        <extensions>
          <ns3:TrackPointExtension>
            <ns3:hr>71</ns3:hr>
            <ns3:cad>0</ns3:cad>
          </ns3:TrackPointExtension>
        </extensions>
      </trkpt>
      <trkpt lat="38.0207414366304874420166015625" lon="-106.92811670713126659393310546875">
        <ele>4147.2001953125</ele>
        <time>2026-05-25T15:20:04.000Z</time>
        <extensions>
          <ns3:TrackPointExtension>
            <ns3:hr>72</ns3:hr>
            <ns3:cad>0</ns3:cad>
          </ns3:TrackPointExtension>
        </extensions>
      </trkpt>
      <trkpt lat="38.02073649130761623382568359375" lon="-106.92812240682542324066162109375">
        <ele>4147.39990234375</ele>
        <time>2026-05-25T15:20:10.000Z</time>
        <extensions>
          <ns3:TrackPointExtension>
            <ns3:hr>73</ns3:hr>
            <ns3:cad>0</ns3:cad>
          </ns3:TrackPointExtension>
        </extensions>
      </trkpt>
      <trkpt lat="38.02073649130761623382568359375" lon="-106.92812240682542324066162109375">
        <ele>4147.39990234375</ele>
        <time>2026-05-25T15:20:13.000Z</time>
        <extensions>
          <ns3:TrackPointExtension>
            <ns3:hr>73</ns3:hr>
            <ns3:cad>0</ns3:cad>
          </ns3:TrackPointExtension>
        </extensions>
      </trkpt>
      <trkpt lat="38.02073649130761623382568359375" lon="-106.92812240682542324066162109375">
        <ele>4147.39990234375</ele>
        <time>2026-05-25T15:20:19.000Z</time>
        <extensions>
          <ns3:TrackPointExtension>
            <ns3:hr>73</ns3:hr>
            <ns3:cad>0</ns3:cad>
          </ns3:TrackPointExtension>
        </extensions>
      </trkpt>
      <trkpt lat="38.020728863775730133056640625" lon="-106.9281149469316005706787109375">
        <ele>4147.39990234375</ele>
        <time>2026-05-25T15:20:22.000Z</time>
        <extensions>
          <ns3:TrackPointExtension>
            <ns3:hr>74</ns3:hr>
            <ns3:cad>0</ns3:cad>
          </ns3:TrackPointExtension>
        </extensions>
      </trkpt>
      <trkpt lat="38.02073649130761623382568359375" lon="-106.92812240682542324066162109375">
        <ele>4147.60009765625</ele>
        <time>2026-05-25T15:20:28.000Z</time>
        <extensions>
          <ns3:TrackPointExtension>
            <ns3:hr>75</ns3:hr>
            <ns3:cad>0</ns3:cad>
          </ns3:TrackPointExtension>
        </extensions>
      </trkpt>
      <trkpt lat="38.02073649130761623382568359375" lon="-106.92812240682542324066162109375">
        <ele>4147.60009765625</ele>
        <time>2026-05-25T15:20:29.000Z</time>
        <extensions>
          <ns3:TrackPointExtension>
            <ns3:hr>76</ns3:hr>
            <ns3:cad>0</ns3:cad>
          </ns3:TrackPointExtension>
        </extensions>
      </trkpt>
      <trkpt lat="38.02073649130761623382568359375" lon="-106.92812240682542324066162109375">
        <ele>4147.2001953125</ele>
        <time>2026-05-25T15:20:35.000Z</time>
        <extensions>
          <ns3:TrackPointExtension>
            <ns3:hr>77</ns3:hr>
            <ns3:cad>0</ns3:cad>
          </ns3:TrackPointExtension>
        </extensions>
      </trkpt>
      <trkpt lat="38.02073649130761623382568359375" lon="-106.92812240682542324066162109375">
        <ele>4147.2001953125</ele>
        <time>2026-05-25T15:20:37.000Z</time>
        <extensions>
          <ns3:TrackPointExtension>
            <ns3:hr>79</ns3:hr>
            <ns3:cad>0</ns3:cad>
          </ns3:TrackPointExtension>
        </extensions>
      </trkpt>
      <trkpt lat="38.02073649130761623382568359375" lon="-106.92812240682542324066162109375">
        <ele>4147.39990234375</ele>
        <time>2026-05-25T15:20:38.000Z</time>
        <extensions>
          <ns3:TrackPointExtension>
            <ns3:hr>82</ns3:hr>
            <ns3:cad>0</ns3:cad>
          </ns3:TrackPointExtension>
        </extensions>
      </trkpt>
      <trkpt lat="38.02073649130761623382568359375" lon="-106.92812240682542324066162109375">
        <ele>4147.39990234375</ele>
        <time>2026-05-25T15:20:39.000Z</time>
        <extensions>
          <ns3:TrackPointExtension>
            <ns3:hr>86</ns3:hr>
            <ns3:cad>0</ns3:cad>
          </ns3:TrackPointExtension>
        </extensions>
      </trkpt>
      <trkpt lat="38.02073649130761623382568359375" lon="-106.92812240682542324066162109375">
        <ele>4147.60009765625</ele>
        <time>2026-05-25T15:20:41.000Z</time>
        <extensions>
          <ns3:TrackPointExtension>
            <ns3:hr>89</ns3:hr>
            <ns3:cad>0</ns3:cad>
          </ns3:TrackPointExtension>
        </extensions>
      </trkpt>
      <trkpt lat="38.02073649130761623382568359375" lon="-106.92812240682542324066162109375">
        <ele>4147.7998046875</ele>
        <time>2026-05-25T15:20:45.000Z</time>
        <extensions>
          <ns3:TrackPointExtension>
            <ns3:hr>90</ns3:hr>
            <ns3:cad>0</ns3:cad>
          </ns3:TrackPointExtension>
        </extensions>
      </trkpt>
      <trkpt lat="38.0207293666899204254150390625" lon="-106.92811721004545688629150390625">
        <ele>4146.7998046875</ele>
        <time>2026-05-25T15:20:51.000Z</time>
        <extensions>
          <ns3:TrackPointExtension>
            <ns3:hr>89</ns3:hr>
            <ns3:cad>62</ns3:cad>
          </ns3:TrackPointExtension>
        </extensions>
      </trkpt>
      <trkpt lat="38.020730875432491302490234375" lon="-106.9281159527599811553955078125">
        <ele>4146.7998046875</ele>
        <time>2026-05-25T15:20:55.000Z</time>
        <extensions>
          <ns3:TrackPointExtension>
            <ns3:hr>88</ns3:hr>
            <ns3:cad>0</ns3:cad>
          </ns3:TrackPointExtension>
        </extensions>
      </trkpt>
      <trkpt lat="38.0207280255854129791259765625" lon="-106.9281172938644886016845703125">
        <ele>4147</ele>
        <time>2026-05-25T15:21:00.000Z</time>
        <extensions>
          <ns3:TrackPointExtension>
            <ns3:hr>86</ns3:hr>
            <ns3:cad>79</ns3:cad>
          </ns3:TrackPointExtension>
        </extensions>
      </trkpt>
      <trkpt lat="38.0207303725183010101318359375" lon="-106.9281179644167423248291015625">
        <ele>4146.60009765625</ele>
        <time>2026-05-25T15:21:06.000Z</time>
        <extensions>
          <ns3:TrackPointExtension>
            <ns3:hr>83</ns3:hr>
            <ns3:cad>0</ns3:cad>
          </ns3:TrackPointExtension>
        </extensions>
      </trkpt>
      <trkpt lat="38.02073162980377674102783203125" lon="-106.92811855114996433258056640625">
        <ele>4146.60009765625</ele>
        <time>2026-05-25T15:21:08.000Z</time>
        <extensions>
          <ns3:TrackPointExtension>
            <ns3:hr>83</ns3:hr>
            <ns3:cad>0</ns3:cad>
          </ns3:TrackPointExtension>
        </extensions>
      </trkpt>
      <trkpt lat="38.02072760649025440216064453125" lon="-106.92812358029186725616455078125">
        <ele>4146.7998046875</ele>
        <time>2026-05-25T15:21:10.000Z</time>
        <extensions>
          <ns3:TrackPointExtension>
            <ns3:hr>78</ns3:hr>
            <ns3:cad>0</ns3:cad>
          </ns3:TrackPointExtension>
        </extensions>
      </trkpt>
      <trkpt lat="38.0207189731299877166748046875" lon="-106.92813565023243427276611328125">
        <ele>4146.7998046875</ele>
        <time>2026-05-25T15:21:12.000Z</time>
        <extensions>
          <ns3:TrackPointExtension>
            <ns3:hr>75</ns3:hr>
            <ns3:cad>0</ns3:cad>
          </ns3:TrackPointExtension>
        </extensions>
      </trkpt>
      <trkpt lat="38.020707406103610992431640625" lon="-106.9281654059886932373046875">
        <ele>4146.2001953125</ele>
        <time>2026-05-25T15:21:15.000Z</time>
        <extensions>
          <ns3:TrackPointExtension>
            <ns3:hr>76</ns3:hr>
            <ns3:cad>0</ns3:cad>
          </ns3:TrackPointExtension>
        </extensions>
      </trkpt>
      <trkpt lat="38.020683266222476959228515625" lon="-106.928212009370326995849609375">
        <ele>4145.2001953125</ele>
        <time>2026-05-25T15:21:19.000Z</time>
        <extensions>
          <ns3:TrackPointExtension>
            <ns3:hr>79</ns3:hr>
            <ns3:cad>56</ns3:cad>
          </ns3:TrackPointExtension>
        </extensions>
      </trkpt>
      <trkpt lat="38.020683266222476959228515625" lon="-106.928212009370326995849609375">
        <ele>4144.7998046875</ele>
        <time>2026-05-25T15:21:20.000Z</time>
        <extensions>
          <ns3:TrackPointExtension>
            <ns3:hr>82</ns3:hr>
            <ns3:cad>56</ns3:cad>
          </ns3:TrackPointExtension>
        </extensions>
      </trkpt>
      <trkpt lat="38.02067563869059085845947265625" lon="-106.928254924714565277099609375">
        <ele>4144</ele>
        <time>2026-05-25T15:21:22.000Z</time>
        <extensions>
          <ns3:TrackPointExtension>
            <ns3:hr>83</ns3:hr>
            <ns3:cad>57</ns3:cad>
          </ns3:TrackPointExtension>
        </extensions>
      </trkpt>
      <trkpt lat="38.02066675387322902679443359375" lon="-106.92826959304511547088623046875">
        <ele>4144</ele>
        <time>2026-05-25T15:21:23.000Z</time>
        <extensions>
          <ns3:TrackPointExtension>
            <ns3:hr>83</ns3:hr>
            <ns3:cad>57</ns3:cad>
          </ns3:TrackPointExtension>
        </extensions>
      </trkpt>
      <trkpt lat="38.02063004113733768463134765625" lon="-106.9283315353095531463623046875">
        <ele>4143.7998046875</ele>
        <time>2026-05-25T15:21:29.000Z</time>
        <extensions>
          <ns3:TrackPointExtension>
            <ns3:hr>82</ns3:hr>
            <ns3:cad>54</ns3:cad>
          </ns3:TrackPointExtension>
        </extensions>
      </trkpt>
      <trkpt lat="38.020623587071895599365234375" lon="-106.92835760302841663360595703125">
        <ele>4143.60009765625</ele>
        <time>2026-05-25T15:21:30.000Z</time>
        <extensions>
          <ns3:TrackPointExtension>
            <ns3:hr>81</ns3:hr>
            <ns3:cad>54</ns3:cad>
          </ns3:TrackPointExtension>
        </extensions>
      </trkpt>
      <trkpt lat="38.02061855792999267578125" lon="-106.928391046822071075439453125">
        <ele>4143.2001953125</ele>
        <time>2026-05-25T15:21:33.000Z</time>
        <extensions>
          <ns3:TrackPointExtension>
            <ns3:hr>78</ns3:hr>
            <ns3:cad>54</ns3:cad>
          </ns3:TrackPointExtension>
        </extensions>
      </trkpt>
      <trkpt lat="38.0206086672842502593994140625" lon="-106.92841376177966594696044921875">
        <ele>4143</ele>
        <time>2026-05-25T15:21:35.000Z</time>
        <extensions>
          <ns3:TrackPointExtension>
            <ns3:hr>77</ns3:hr>
            <ns3:cad>55</ns3:cad>
          </ns3:TrackPointExtension>
        </extensions>
      </trkpt>
      <trkpt lat="38.02059886045753955841064453125" lon="-106.92845181562006473541259765625">
        <ele>4142.60009765625</ele>
        <time>2026-05-25T15:21:38.000Z</time>
        <extensions>
          <ns3:TrackPointExtension>
            <ns3:hr>75</ns3:hr>
            <ns3:cad>56</ns3:cad>
          </ns3:TrackPointExtension>
        </extensions>
      </trkpt>
      <trkpt lat="38.02057773806154727935791015625" lon="-106.92852255888283252716064453125">
        <ele>4142.39990234375</ele>
        <time>2026-05-25T15:21:43.000Z</time>
        <extensions>
          <ns3:TrackPointExtension>
            <ns3:hr>72</ns3:hr>
            <ns3:cad>54</ns3:cad>
          </ns3:TrackPointExtension>
        </extensions>
      </trkpt>
      <trkpt lat="38.0205613933503627777099609375" lon="-106.92856346257030963897705078125">
        <ele>4141.7998046875</ele>
        <time>2026-05-25T15:21:46.000Z</time>
        <extensions>
          <ns3:TrackPointExtension>
            <ns3:hr>71</ns3:hr>
            <ns3:cad>56</ns3:cad>
          </ns3:TrackPointExtension>
        </extensions>
      </trkpt>
      <trkpt lat="38.02055661566555500030517578125" lon="-106.9285784661769866943359375">
        <ele>4141.7998046875</ele>
        <time>2026-05-25T15:21:47.000Z</time>
        <extensions>
          <ns3:TrackPointExtension>
            <ns3:hr>71</ns3:hr>
            <ns3:cad>56</ns3:cad>
          </ns3:TrackPointExtension>
        </extensions>
      </trkpt>
      <trkpt lat="38.02054739557206630706787109375" lon="-106.9286651350557804107666015625">
        <ele>4141</ele>
        <time>2026-05-25T15:21:53.000Z</time>
        <extensions>
          <ns3:TrackPointExtension>
            <ns3:hr>71</ns3:hr>
            <ns3:cad>54</ns3:cad>
          </ns3:TrackPointExtension>
        </extensions>
      </trkpt>
      <trkpt lat="38.02054739557206630706787109375" lon="-106.9286651350557804107666015625">
        <ele>4140.7998046875</ele>
        <time>2026-05-25T15:21:54.000Z</time>
        <extensions>
          <ns3:TrackPointExtension>
            <ns3:hr>71</ns3:hr>
            <ns3:cad>54</ns3:cad>
          </ns3:TrackPointExtension>
        </extensions>
      </trkpt>
      <trkpt lat="38.0205362476408481597900390625" lon="-106.92872758023440837860107421875">
        <ele>4139.60009765625</ele>
        <time>2026-05-25T15:21:58.000Z</time>
        <extensions>
          <ns3:TrackPointExtension>
            <ns3:hr>70</ns3:hr>
            <ns3:cad>53</ns3:cad>
          </ns3:TrackPointExtension>
        </extensions>
      </trkpt>
      <trkpt lat="38.02053012885153293609619140625" lon="-106.9287549890577793121337890625">
        <ele>4139.39990234375</ele>
        <time>2026-05-25T15:22:00.000Z</time>
        <extensions>
          <ns3:TrackPointExtension>
            <ns3:hr>69</ns3:hr>
            <ns3:cad>54</ns3:cad>
          </ns3:TrackPointExtension>
        </extensions>
      </trkpt>
      <trkpt lat="38.02051017992198467254638671875" lon="-106.928835622966289520263671875">
        <ele>4138.60009765625</ele>
        <time>2026-05-25T15:22:06.000Z</time>
        <extensions>
          <ns3:TrackPointExtension>
            <ns3:hr>68</ns3:hr>
            <ns3:cad>54</ns3:cad>
          </ns3:TrackPointExtension>
        </extensions>
      </trkpt>
      <trkpt lat="38.0205074138939380645751953125" lon="-106.92886353470385074615478515625">
        <ele>4138.7998046875</ele>
        <time>2026-05-25T15:22:08.000Z</time>
        <extensions>
          <ns3:TrackPointExtension>
            <ns3:hr>70</ns3:hr>
            <ns3:cad>54</ns3:cad>
          </ns3:TrackPointExtension>
        </extensions>
      </trkpt>
      <trkpt lat="38.0205074138939380645751953125" lon="-106.92886353470385074615478515625">
        <ele>4138.60009765625</ele>
        <time>2026-05-25T15:22:09.000Z</time>
        <extensions>
          <ns3:TrackPointExtension>
            <ns3:hr>72</ns3:hr>
            <ns3:cad>54</ns3:cad>
          </ns3:TrackPointExtension>
        </extensions>
      </trkpt>
      <trkpt lat="38.0205000378191471099853515625" lon="-106.9288827292621135711669921875">
        <ele>4138.7998046875</ele>
        <time>2026-05-25T15:22:11.000Z</time>
        <extensions>
          <ns3:TrackPointExtension>
            <ns3:hr>75</ns3:hr>
            <ns3:cad>54</ns3:cad>
          </ns3:TrackPointExtension>
        </extensions>
      </trkpt>
      <trkpt lat="38.02049291320145130157470703125" lon="-106.928889267146587371826171875">
        <ele>4139</ele>
        <time>2026-05-25T15:22:13.000Z</time>
        <extensions>
          <ns3:TrackPointExtension>
            <ns3:hr>76</ns3:hr>
            <ns3:cad>0</ns3:cad>
          </ns3:TrackPointExtension>
        </extensions>
      </trkpt>
      <trkpt lat="38.02049978636205196380615234375" lon="-106.92889069207012653350830078125">
        <ele>4139.39990234375</ele>
        <time>2026-05-25T15:22:15.000Z</time>
        <extensions>
          <ns3:TrackPointExtension>
            <ns3:hr>77</ns3:hr>
            <ns3:cad>0</ns3:cad>
          </ns3:TrackPointExtension>
        </extensions>
      </trkpt>
      <trkpt lat="38.0204997025430202484130859375" lon="-106.928890608251094818115234375">
        <ele>4139.2001953125</ele>
        <time>2026-05-25T15:22:21.000Z</time>
        <extensions>
          <ns3:TrackPointExtension>
            <ns3:hr>77</ns3:hr>
            <ns3:cad>0</ns3:cad>
          </ns3:TrackPointExtension>
        </extensions>
      </trkpt>
      <trkpt lat="38.0204997025430202484130859375" lon="-106.928890608251094818115234375">
        <ele>4138.7998046875</ele>
        <time>2026-05-25T15:22:24.000Z</time>
        <extensions>
          <ns3:TrackPointExtension>
            <ns3:hr>77</ns3:hr>
            <ns3:cad>0</ns3:cad>
          </ns3:TrackPointExtension>
        </extensions>
      </trkpt>
      <trkpt lat="38.0204997025430202484130859375" lon="-106.928890608251094818115234375">
        <ele>4139.60009765625</ele>
        <time>2026-05-25T15:22:28.000Z</time>
        <extensions>
          <ns3:TrackPointExtension>
            <ns3:hr>79</ns3:hr>
            <ns3:cad>0</ns3:cad>
          </ns3:TrackPointExtension>
        </extensions>
      </trkpt>
      <trkpt lat="38.0204997025430202484130859375" lon="-106.928890608251094818115234375">
        <ele>4139.39990234375</ele>
        <time>2026-05-25T15:22:34.000Z</time>
        <extensions>
          <ns3:TrackPointExtension>
            <ns3:hr>80</ns3:hr>
            <ns3:cad>0</ns3:cad>
          </ns3:TrackPointExtension>
        </extensions>
      </trkpt>
      <trkpt lat="38.0204997025430202484130859375" lon="-106.928890608251094818115234375">
        <ele>4139.39990234375</ele>
        <time>2026-05-25T15:22:36.000Z</time>
        <extensions>
          <ns3:TrackPointExtension>
            <ns3:hr>81</ns3:hr>
            <ns3:cad>0</ns3:cad>
          </ns3:TrackPointExtension>
        </extensions>
      </trkpt>
      <trkpt lat="38.0204997025430202484130859375" lon="-106.928890608251094818115234375">
        <ele>4139.2001953125</ele>
        <time>2026-05-25T15:22:42.000Z</time>
        <extensions>
          <ns3:TrackPointExtension>
            <ns3:hr>80</ns3:hr>
            <ns3:cad>0</ns3:cad>
          </ns3:TrackPointExtension>
        </extensions>
      </trkpt>
      <trkpt lat="38.0204997025430202484130859375" lon="-106.928890608251094818115234375">
        <ele>4139</ele>
        <time>2026-05-25T15:22:45.000Z</time>
        <extensions>
          <ns3:TrackPointExtension>
            <ns3:hr>81</ns3:hr>
            <ns3:cad>0</ns3:cad>
          </ns3:TrackPointExtension>
        </extensions>
      </trkpt>
      <trkpt lat="38.0204997025430202484130859375" lon="-106.928890608251094818115234375">
        <ele>4138.7998046875</ele>
        <time>2026-05-25T15:22:48.000Z</time>
        <extensions>
          <ns3:TrackPointExtension>
            <ns3:hr>78</ns3:hr>
            <ns3:cad>0</ns3:cad>
          </ns3:TrackPointExtension>
        </extensions>
      </trkpt>
      <trkpt lat="38.0204997025430202484130859375" lon="-106.928890608251094818115234375">
        <ele>4138.7998046875</ele>
        <time>2026-05-25T15:22:52.000Z</time>
        <extensions>
          <ns3:TrackPointExtension>
            <ns3:hr>81</ns3:hr>
            <ns3:cad>0</ns3:cad>
          </ns3:TrackPointExtension>
        </extensions>
      </trkpt>
      <trkpt lat="38.0204997025430202484130859375" lon="-106.928890608251094818115234375">
        <ele>4138.60009765625</ele>
        <time>2026-05-25T15:22:53.000Z</time>
        <extensions>
          <ns3:TrackPointExtension>
            <ns3:hr>83</ns3:hr>
            <ns3:cad>0</ns3:cad>
          </ns3:TrackPointExtension>
        </extensions>
      </trkpt>
      <trkpt lat="38.0204997025430202484130859375" lon="-106.928890608251094818115234375">
        <ele>4138.7998046875</ele>
        <time>2026-05-25T15:22:59.000Z</time>
        <extensions>
          <ns3:TrackPointExtension>
            <ns3:hr>83</ns3:hr>
            <ns3:cad>0</ns3:cad>
          </ns3:TrackPointExtension>
        </extensions>
      </trkpt>
      <trkpt lat="38.0204997025430202484130859375" lon="-106.928890608251094818115234375">
        <ele>4138.60009765625</ele>
        <time>2026-05-25T15:23:02.000Z</time>
        <extensions>
          <ns3:TrackPointExtension>
            <ns3:hr>84</ns3:hr>
            <ns3:cad>0</ns3:cad>
          </ns3:TrackPointExtension>
        </extensions>
      </trkpt>
      <trkpt lat="38.0204997025430202484130859375" lon="-106.928890608251094818115234375">
        <ele>4138</ele>
        <time>2026-05-25T15:23:08.000Z</time>
        <extensions>
          <ns3:TrackPointExtension>
            <ns3:hr>86</ns3:hr>
            <ns3:cad>0</ns3:cad>
          </ns3:TrackPointExtension>
        </extensions>
      </trkpt>
      <trkpt lat="38.0204997025430202484130859375" lon="-106.928890608251094818115234375">
        <ele>4138</ele>
        <time>2026-05-25T15:23:10.000Z</time>
        <extensions>
          <ns3:TrackPointExtension>
            <ns3:hr>86</ns3:hr>
            <ns3:cad>0</ns3:cad>
          </ns3:TrackPointExtension>
        </extensions>
      </trkpt>
      <trkpt lat="38.0204997025430202484130859375" lon="-106.928890608251094818115234375">
        <ele>4139</ele>
        <time>2026-05-25T15:23:15.000Z</time>
        <extensions>
          <ns3:TrackPointExtension>
            <ns3:hr>89</ns3:hr>
            <ns3:cad>0</ns3:cad>
          </ns3:TrackPointExtension>
        </extensions>
      </trkpt>
      <trkpt lat="38.0204997025430202484130859375" lon="-106.928890608251094818115234375">
        <ele>4139.2001953125</ele>
        <time>2026-05-25T15:23:18.000Z</time>
        <extensions>
          <ns3:TrackPointExtension>
            <ns3:hr>89</ns3:hr>
            <ns3:cad>0</ns3:cad>
          </ns3:TrackPointExtension>
        </extensions>
      </trkpt>
      <trkpt lat="38.0204997025430202484130859375" lon="-106.928890608251094818115234375">
        <ele>4139.39990234375</ele>
        <time>2026-05-25T15:23:24.000Z</time>
        <extensions>
          <ns3:TrackPointExtension>
            <ns3:hr>89</ns3:hr>
            <ns3:cad>0</ns3:cad>
          </ns3:TrackPointExtension>
        </extensions>
      </trkpt>
      <trkpt lat="38.0204997025430202484130859375" lon="-106.928890608251094818115234375">
        <ele>4138.7998046875</ele>
        <time>2026-05-25T15:23:27.000Z</time>
        <extensions>
          <ns3:TrackPointExtension>
            <ns3:hr>86</ns3:hr>
            <ns3:cad>0</ns3:cad>
          </ns3:TrackPointExtension>
        </extensions>
      </trkpt>
      <trkpt lat="38.0204997025430202484130859375" lon="-106.928890608251094818115234375">
        <ele>4138.39990234375</ele>
        <time>2026-05-25T15:23:28.000Z</time>
        <extensions>
          <ns3:TrackPointExtension>
            <ns3:hr>83</ns3:hr>
            <ns3:cad>0</ns3:cad>
          </ns3:TrackPointExtension>
        </extensions>
      </trkpt>
      <trkpt lat="38.02050389349460601806640625" lon="-106.92889370955526828765869140625">
        <ele>4138</ele>
        <time>2026-05-25T15:23:29.000Z</time>
        <extensions>
          <ns3:TrackPointExtension>
            <ns3:hr>74</ns3:hr>
            <ns3:cad>0</ns3:cad>
          </ns3:TrackPointExtension>
        </extensions>
      </trkpt>
      <trkpt lat="38.02050531841814517974853515625" lon="-106.9289048574864864349365234375">
        <ele>4137.60009765625</ele>
        <time>2026-05-25T15:23:30.000Z</time>
        <extensions>
          <ns3:TrackPointExtension>
            <ns3:hr>72</ns3:hr>
            <ns3:cad>0</ns3:cad>
          </ns3:TrackPointExtension>
        </extensions>
      </trkpt>
      <trkpt lat="38.02049274556338787078857421875" lon="-106.92895087413489818572998046875">
        <ele>4137.60009765625</ele>
        <time>2026-05-25T15:23:34.000Z</time>
        <extensions>
          <ns3:TrackPointExtension>
            <ns3:hr>73</ns3:hr>
            <ns3:cad>0</ns3:cad>
          </ns3:TrackPointExtension>
        </extensions>
      </trkpt>
      <trkpt lat="38.02048905752599239349365234375" lon="-106.92896177060902118682861328125">
        <ele>4137.7998046875</ele>
        <time>2026-05-25T15:23:38.000Z</time>
        <extensions>
          <ns3:TrackPointExtension>
            <ns3:hr>76</ns3:hr>
            <ns3:cad>0</ns3:cad>
          </ns3:TrackPointExtension>
        </extensions>
      </trkpt>
      <trkpt lat="38.02048905752599239349365234375" lon="-106.92896177060902118682861328125">
        <ele>4137.7998046875</ele>
        <time>2026-05-25T15:23:40.000Z</time>
        <extensions>
          <ns3:TrackPointExtension>
            <ns3:hr>76</ns3:hr>
            <ns3:cad>0</ns3:cad>
          </ns3:TrackPointExtension>
        </extensions>
      </trkpt>
      <trkpt lat="38.02048905752599239349365234375" lon="-106.92896177060902118682861328125">
        <ele>4139</ele>
        <time>2026-05-25T15:23:41.000Z</time>
        <extensions>
          <ns3:TrackPointExtension>
            <ns3:hr>76</ns3:hr>
            <ns3:cad>0</ns3:cad>
          </ns3:TrackPointExtension>
        </extensions>
      </trkpt>
      <trkpt lat="38.0204866267740726470947265625" lon="-106.9289843179285526275634765625">
        <ele>4139</ele>
        <time>2026-05-25T15:23:47.000Z</time>
        <extensions>
          <ns3:TrackPointExtension>
            <ns3:hr>76</ns3:hr>
            <ns3:cad>0</ns3:cad>
          </ns3:TrackPointExtension>
        </extensions>
      </trkpt>
      <trkpt lat="38.02047447301447391510009765625" lon="-106.9290154986083507537841796875">
        <ele>4137.39990234375</ele>
        <time>2026-05-25T15:23:49.000Z</time>
        <extensions>
          <ns3:TrackPointExtension>
            <ns3:hr>75</ns3:hr>
            <ns3:cad>0</ns3:cad>
          </ns3:TrackPointExtension>
        </extensions>
      </trkpt>
      <trkpt lat="38.02045963704586029052734375" lon="-106.9290513731539249420166015625">
        <ele>4136.2001953125</ele>
        <time>2026-05-25T15:23:52.000Z</time>
        <extensions>
          <ns3:TrackPointExtension>
            <ns3:hr>75</ns3:hr>
            <ns3:cad>55</ns3:cad>
          </ns3:TrackPointExtension>
        </extensions>
      </trkpt>
      <trkpt lat="38.02043373696506023406982421875" lon="-106.9291041791439056396484375">
        <ele>4136.39990234375</ele>
        <time>2026-05-25T15:23:56.000Z</time>
        <extensions>
          <ns3:TrackPointExtension>
            <ns3:hr>77</ns3:hr>
            <ns3:cad>60</ns3:cad>
          </ns3:TrackPointExtension>
        </extensions>
      </trkpt>
      <trkpt lat="38.0204115249216556549072265625" lon="-106.92915606312453746795654296875">
        <ele>4137.39990234375</ele>
        <time>2026-05-25T15:24:00.000Z</time>
        <extensions>
          <ns3:TrackPointExtension>
            <ns3:hr>80</ns3:hr>
            <ns3:cad>53</ns3:cad>
          </ns3:TrackPointExtension>
        </extensions>
      </trkpt>
      <trkpt lat="38.0203878879547119140625" lon="-106.9292005710303783416748046875">
        <ele>4137</ele>
        <time>2026-05-25T15:24:03.000Z</time>
        <extensions>
          <ns3:TrackPointExtension>
            <ns3:hr>80</ns3:hr>
            <ns3:cad>53</ns3:cad>
          </ns3:TrackPointExtension>
        </extensions>
      </trkpt>
      <trkpt lat="38.0203570425510406494140625" lon="-106.9292833842337131500244140625">
        <ele>4136.39990234375</ele>
        <time>2026-05-25T15:24:09.000Z</time>
        <extensions>
          <ns3:TrackPointExtension>
            <ns3:hr>80</ns3:hr>
            <ns3:cad>54</ns3:cad>
          </ns3:TrackPointExtension>
        </extensions>
      </trkpt>
      <trkpt lat="38.0203568749129772186279296875" lon="-106.92929989658296108245849609375">
        <ele>4135.7998046875</ele>
        <time>2026-05-25T15:24:11.000Z</time>
        <extensions>
          <ns3:TrackPointExtension>
            <ns3:hr>80</ns3:hr>
            <ns3:cad>54</ns3:cad>
          </ns3:TrackPointExtension>
        </extensions>
      </trkpt>
      <trkpt lat="38.02034564316272735595703125" lon="-106.929342560470104217529296875">
        <ele>4135</ele>
        <time>2026-05-25T15:24:13.000Z</time>
        <extensions>
          <ns3:TrackPointExtension>
            <ns3:hr>80</ns3:hr>
            <ns3:cad>54</ns3:cad>
          </ns3:TrackPointExtension>
        </extensions>
      </trkpt>
      <trkpt lat="38.02032016217708587646484375" lon="-106.92940257489681243896484375">
        <ele>4134.60009765625</ele>
        <time>2026-05-25T15:24:18.000Z</time>
        <extensions>
          <ns3:TrackPointExtension>
            <ns3:hr>80</ns3:hr>
            <ns3:cad>0</ns3:cad>
          </ns3:TrackPointExtension>
        </extensions>
      </trkpt>
      <trkpt lat="38.0203153006732463836669921875" lon="-106.92941908724606037139892578125">
        <ele>4134.7998046875</ele>
        <time>2026-05-25T15:24:19.000Z</time>
        <extensions>
          <ns3:TrackPointExtension>
            <ns3:hr>80</ns3:hr>
            <ns3:cad>0</ns3:cad>
          </ns3:TrackPointExtension>
        </extensions>
      </trkpt>
      <trkpt lat="38.02029560320079326629638671875" lon="-106.929506175220012664794921875">
        <ele>4134.39990234375</ele>
        <time>2026-05-25T15:24:25.000Z</time>
        <extensions>
          <ns3:TrackPointExtension>
            <ns3:hr>80</ns3:hr>
            <ns3:cad>49</ns3:cad>
          </ns3:TrackPointExtension>
        </extensions>
      </trkpt>
      <trkpt lat="38.0202908255159854888916015625" lon="-106.929518915712833404541015625">
        <ele>4133.7998046875</ele>
        <time>2026-05-25T15:24:27.000Z</time>
        <extensions>
          <ns3:TrackPointExtension>
            <ns3:hr>79</ns3:hr>
            <ns3:cad>49</ns3:cad>
          </ns3:TrackPointExtension>
        </extensions>
      </trkpt>
      <trkpt lat="38.0202800966799259185791015625" lon="-106.9295660220086574554443359375">
        <ele>4132.39990234375</ele>
        <time>2026-05-25T15:24:30.000Z</time>
        <extensions>
          <ns3:TrackPointExtension>
            <ns3:hr>80</ns3:hr>
            <ns3:cad>0</ns3:cad>
          </ns3:TrackPointExtension>
        </extensions>
      </trkpt>
      <trkpt lat="38.0202787555754184722900390625" lon="-106.9295827858150005340576171875">
        <ele>4132.2001953125</ele>
        <time>2026-05-25T15:24:32.000Z</time>
        <extensions>
          <ns3:TrackPointExtension>
            <ns3:hr>79</ns3:hr>
            <ns3:cad>0</ns3:cad>
          </ns3:TrackPointExtension>
        </extensions>
      </trkpt>
      <trkpt lat="38.0202700383961200714111328125" lon="-106.92965378053486347198486328125">
        <ele>4133</ele>
        <time>2026-05-25T15:24:38.000Z</time>
        <extensions>
          <ns3:TrackPointExtension>
            <ns3:hr>80</ns3:hr>
            <ns3:cad>0</ns3:cad>
          </ns3:TrackPointExtension>
        </extensions>
      </trkpt>
      <trkpt lat="38.0202633328735828399658203125" lon="-106.92968060262501239776611328125">
        <ele>4132.60009765625</ele>
        <time>2026-05-25T15:24:40.000Z</time>
        <extensions>
          <ns3:TrackPointExtension>
            <ns3:hr>80</ns3:hr>
            <ns3:cad>0</ns3:cad>
          </ns3:TrackPointExtension>
        </extensions>
      </trkpt>
      <trkpt lat="38.02024547941982746124267578125" lon="-106.92974950186908245086669921875">
        <ele>4131.39990234375</ele>
        <time>2026-05-25T15:24:46.000Z</time>
        <extensions>
          <ns3:TrackPointExtension>
            <ns3:hr>82</ns3:hr>
            <ns3:cad>51</ns3:cad>
          </ns3:TrackPointExtension>
        </extensions>
      </trkpt>
      <trkpt lat="38.0202376842498779296875" lon="-106.92978001199662685394287109375">
        <ele>4130.7998046875</ele>
        <time>2026-05-25T15:24:49.000Z</time>
        <extensions>
          <ns3:TrackPointExtension>
            <ns3:hr>84</ns3:hr>
            <ns3:cad>17</ns3:cad>
          </ns3:TrackPointExtension>
        </extensions>
      </trkpt>
      <trkpt lat="38.0202318169176578521728515625" lon="-106.92982477135956287384033203125">
        <ele>4130.39990234375</ele>
        <time>2026-05-25T15:24:51.000Z</time>
        <extensions>
          <ns3:TrackPointExtension>
            <ns3:hr>85</ns3:hr>
            <ns3:cad>17</ns3:cad>
          </ns3:TrackPointExtension>
        </extensions>
      </trkpt>
      <trkpt lat="38.02022251300513744354248046875" lon="-106.92989802919328212738037109375">
        <ele>4130.2001953125</ele>
        <time>2026-05-25T15:24:56.000Z</time>
        <extensions>
          <ns3:TrackPointExtension>
            <ns3:hr>84</ns3:hr>
            <ns3:cad>0</ns3:cad>
          </ns3:TrackPointExtension>
        </extensions>
      </trkpt>
      <trkpt lat="38.0202133767306804656982421875" lon="-106.92996374331414699554443359375">
        <ele>4129.60009765625</ele>
        <time>2026-05-25T15:25:02.000Z</time>
        <extensions>
          <ns3:TrackPointExtension>
            <ns3:hr>85</ns3:hr>
            <ns3:cad>52</ns3:cad>
          </ns3:TrackPointExtension>
        </extensions>
      </trkpt>
      <trkpt lat="38.020204491913318634033203125" lon="-106.9299908168613910675048828125">
        <ele>4129.7998046875</ele>
        <time>2026-05-25T15:25:03.000Z</time>
        <extensions>
          <ns3:TrackPointExtension>
            <ns3:hr>86</ns3:hr>
            <ns3:cad>53</ns3:cad>
          </ns3:TrackPointExtension>
        </extensions>
      </trkpt>
      <trkpt lat="38.02019082941114902496337890625" lon="-106.93006365559995174407958984375">
        <ele>4129.7998046875</ele>
        <time>2026-05-25T15:25:09.000Z</time>
        <extensions>
          <ns3:TrackPointExtension>
            <ns3:hr>86</ns3:hr>
            <ns3:cad>50</ns3:cad>
          </ns3:TrackPointExtension>
        </extensions>
      </trkpt>
      <trkpt lat="38.02018546499311923980712890625" lon="-106.9301165454089641571044921875">
        <ele>4129.39990234375</ele>
        <time>2026-05-25T15:25:13.000Z</time>
        <extensions>
          <ns3:TrackPointExtension>
            <ns3:hr>86</ns3:hr>
            <ns3:cad>51</ns3:cad>
          </ns3:TrackPointExtension>
        </extensions>
      </trkpt>
      <trkpt lat="38.020172975957393646240234375" lon="-106.9301527552306652069091796875">
        <ele>4128.60009765625</ele>
        <time>2026-05-25T15:25:16.000Z</time>
        <extensions>
          <ns3:TrackPointExtension>
            <ns3:hr>84</ns3:hr>
            <ns3:cad>50</ns3:cad>
          </ns3:TrackPointExtension>
        </extensions>
      </trkpt>
      <trkpt lat="38.0201557092368602752685546875" lon="-106.9302268512547016143798828125">
        <ele>4128.39990234375</ele>
        <time>2026-05-25T15:25:22.000Z</time>
        <extensions>
          <ns3:TrackPointExtension>
            <ns3:hr>85</ns3:hr>
            <ns3:cad>50</ns3:cad>
          </ns3:TrackPointExtension>
        </extensions>
      </trkpt>
      <trkpt lat="38.020152188837528228759765625" lon="-106.93023741245269775390625">
        <ele>4128.2001953125</ele>
        <time>2026-05-25T15:25:23.000Z</time>
        <extensions>
          <ns3:TrackPointExtension>
            <ns3:hr>85</ns3:hr>
            <ns3:cad>50</ns3:cad>
          </ns3:TrackPointExtension>
        </extensions>
      </trkpt>
      <trkpt lat="38.02015042863786220550537109375" lon="-106.9302627258002758026123046875">
        <ele>4127.60009765625</ele>
        <time>2026-05-25T15:25:25.000Z</time>
        <extensions>
          <ns3:TrackPointExtension>
            <ns3:hr>84</ns3:hr>
            <ns3:cad>0</ns3:cad>
          </ns3:TrackPointExtension>
        </extensions>
      </trkpt>
      <trkpt lat="38.02014456130564212799072265625" lon="-106.9303153641521930694580078125">
        <ele>4127.7998046875</ele>
        <time>2026-05-25T15:25:31.000Z</time>
        <extensions>
          <ns3:TrackPointExtension>
            <ns3:hr>83</ns3:hr>
            <ns3:cad>0</ns3:cad>
          </ns3:TrackPointExtension>
        </extensions>
      </trkpt>
      <trkpt lat="38.02012846805155277252197265625" lon="-106.9303656555712223052978515625">
        <ele>4127.7998046875</ele>
        <time>2026-05-25T15:25:37.000Z</time>
        <extensions>
          <ns3:TrackPointExtension>
            <ns3:hr>82</ns3:hr>
            <ns3:cad>0</ns3:cad>
          </ns3:TrackPointExtension>
        </extensions>
      </trkpt>
      <trkpt lat="38.02012762986123561859130859375" lon="-106.93037278018891811370849609375">
        <ele>4128</ele>
        <time>2026-05-25T15:25:38.000Z</time>
        <extensions>
          <ns3:TrackPointExtension>
            <ns3:hr>82</ns3:hr>
            <ns3:cad>0</ns3:cad>
          </ns3:TrackPointExtension>
        </extensions>
      </trkpt>
      <trkpt lat="38.020127378404140472412109375" lon="-106.9304296933114528656005859375">
        <ele>4127.60009765625</ele>
        <time>2026-05-25T15:25:44.000Z</time>
        <extensions>
          <ns3:TrackPointExtension>
            <ns3:hr>79</ns3:hr>
            <ns3:cad>0</ns3:cad>
          </ns3:TrackPointExtension>
        </extensions>
      </trkpt>
      <trkpt lat="38.020126707851886749267578125" lon="-106.930493898689746856689453125">
        <ele>4127.2001953125</ele>
        <time>2026-05-25T15:25:50.000Z</time>
        <extensions>
          <ns3:TrackPointExtension>
            <ns3:hr>78</ns3:hr>
            <ns3:cad>65</ns3:cad>
          </ns3:TrackPointExtension>
        </extensions>
      </trkpt>
      <trkpt lat="38.0201288871467113494873046875" lon="-106.93051611073315143585205078125">
        <ele>4127.2001953125</ele>
        <time>2026-05-25T15:25:53.000Z</time>
        <extensions>
          <ns3:TrackPointExtension>
            <ns3:hr>77</ns3:hr>
            <ns3:cad>65</ns3:cad>
          </ns3:TrackPointExtension>
        </extensions>
      </trkpt>
      <trkpt lat="38.020125366747379302978515625" lon="-106.930563636124134063720703125">
        <ele>4127</ele>
        <time>2026-05-25T15:25:56.000Z</time>
        <extensions>
          <ns3:TrackPointExtension>
            <ns3:hr>75</ns3:hr>
            <ns3:cad>65</ns3:cad>
          </ns3:TrackPointExtension>
        </extensions>
      </trkpt>
      <trkpt lat="38.0201248638331890106201171875" lon="-106.93060747347772121429443359375">
        <ele>4126.7998046875</ele>
        <time>2026-05-25T15:26:00.000Z</time>
        <extensions>
          <ns3:TrackPointExtension>
            <ns3:hr>73</ns3:hr>
            <ns3:cad>0</ns3:cad>
          </ns3:TrackPointExtension>
        </extensions>
      </trkpt>
      <trkpt lat="38.02012293599545955657958984375" lon="-106.93062524311244487762451171875">
        <ele>4125.7998046875</ele>
        <time>2026-05-25T15:26:03.000Z</time>
        <extensions>
          <ns3:TrackPointExtension>
            <ns3:hr>72</ns3:hr>
            <ns3:cad>0</ns3:cad>
          </ns3:TrackPointExtension>
        </extensions>
      </trkpt>
      <trkpt lat="38.02011472173035144805908203125" lon="-106.93068140186369419097900390625">
        <ele>4125.7998046875</ele>
        <time>2026-05-25T15:26:07.000Z</time>
        <extensions>
          <ns3:TrackPointExtension>
            <ns3:hr>71</ns3:hr>
            <ns3:cad>0</ns3:cad>
          </ns3:TrackPointExtension>
        </extensions>
      </trkpt>
      <trkpt lat="38.02010248415172100067138671875" lon="-106.93073990754783153533935546875">
        <ele>4126.60009765625</ele>
        <time>2026-05-25T15:26:12.000Z</time>
        <extensions>
          <ns3:TrackPointExtension>
            <ns3:hr>74</ns3:hr>
            <ns3:cad>0</ns3:cad>
          </ns3:TrackPointExtension>
        </extensions>
      </trkpt>
      <trkpt lat="38.0201020650565624237060546875" lon="-106.93075935356318950653076171875">
        <ele>4126.39990234375</ele>
        <time>2026-05-25T15:26:14.000Z</time>
        <extensions>
          <ns3:TrackPointExtension>
            <ns3:hr>75</ns3:hr>
            <ns3:cad>58</ns3:cad>
          </ns3:TrackPointExtension>
        </extensions>
      </trkpt>
      <trkpt lat="38.02009477280080318450927734375" lon="-106.930822469294071197509765625">
        <ele>4125.39990234375</ele>
        <time>2026-05-25T15:26:20.000Z</time>
        <extensions>
          <ns3:TrackPointExtension>
            <ns3:hr>75</ns3:hr>
            <ns3:cad>0</ns3:cad>
          </ns3:TrackPointExtension>
        </extensions>
      </trkpt>
      <trkpt lat="38.0200960300862789154052734375" lon="-106.93083663471043109893798828125">
        <ele>4125.2001953125</ele>
        <time>2026-05-25T15:26:21.000Z</time>
        <extensions>
          <ns3:TrackPointExtension>
            <ns3:hr>75</ns3:hr>
            <ns3:cad>0</ns3:cad>
          </ns3:TrackPointExtension>
        </extensions>
      </trkpt>
      <trkpt lat="38.020096533000469207763671875" lon="-106.93088851869106292724609375">
        <ele>4125.39990234375</ele>
        <time>2026-05-25T15:26:25.000Z</time>
        <extensions>
          <ns3:TrackPointExtension>
            <ns3:hr>72</ns3:hr>
            <ns3:cad>0</ns3:cad>
          </ns3:TrackPointExtension>
        </extensions>
      </trkpt>
      <trkpt lat="38.02009292878210544586181640625" lon="-106.93094157613813877105712890625">
        <ele>4125.2001953125</ele>
        <time>2026-05-25T15:26:29.000Z</time>
        <extensions>
          <ns3:TrackPointExtension>
            <ns3:hr>72</ns3:hr>
            <ns3:cad>0</ns3:cad>
          </ns3:TrackPointExtension>
        </extensions>
      </trkpt>
      <trkpt lat="38.02009292878210544586181640625" lon="-106.930974014103412628173828125">
        <ele>4124.7998046875</ele>
        <time>2026-05-25T15:26:32.000Z</time>
        <extensions>
          <ns3:TrackPointExtension>
            <ns3:hr>72</ns3:hr>
            <ns3:cad>57</ns3:cad>
          </ns3:TrackPointExtension>
        </extensions>
      </trkpt>
      <trkpt lat="38.02009661681950092315673828125" lon="-106.93099438212811946868896484375">
        <ele>4124.7998046875</ele>
        <time>2026-05-25T15:26:36.000Z</time>
        <extensions>
          <ns3:TrackPointExtension>
            <ns3:hr>72</ns3:hr>
            <ns3:cad>43</ns3:cad>
          </ns3:TrackPointExtension>
        </extensions>
      </trkpt>
      <trkpt lat="38.02009628154337406158447265625" lon="-106.93105724640190601348876953125">
        <ele>4124</ele>
        <time>2026-05-25T15:26:40.000Z</time>
        <extensions>
          <ns3:TrackPointExtension>
            <ns3:hr>69</ns3:hr>
            <ns3:cad>0</ns3:cad>
          </ns3:TrackPointExtension>
        </extensions>
      </trkpt>
      <trkpt lat="38.020095191895961761474609375" lon="-106.931071579456329345703125">
        <ele>4123.60009765625</ele>
        <time>2026-05-25T15:26:41.000Z</time>
        <extensions>
          <ns3:TrackPointExtension>
            <ns3:hr>69</ns3:hr>
            <ns3:cad>0</ns3:cad>
          </ns3:TrackPointExtension>
        </extensions>
      </trkpt>
      <trkpt lat="38.02009485661983489990234375" lon="-106.93109915591776371002197265625">
        <ele>4123.39990234375</ele>
        <time>2026-05-25T15:26:46.000Z</time>
        <extensions>
          <ns3:TrackPointExtension>
            <ns3:hr>68</ns3:hr>
            <ns3:cad>0</ns3:cad>
          </ns3:TrackPointExtension>
        </extensions>
      </trkpt>
      <trkpt lat="38.020094521343708038330078125" lon="-106.93114190362393856048583984375">
        <ele>4122.60009765625</ele>
        <time>2026-05-25T15:26:50.000Z</time>
        <extensions>
          <ns3:TrackPointExtension>
            <ns3:hr>65</ns3:hr>
            <ns3:cad>0</ns3:cad>
          </ns3:TrackPointExtension>
        </extensions>
      </trkpt>
      <trkpt lat="38.02009477280080318450927734375" lon="-106.931154392659664154052734375">
        <ele>4122.60009765625</ele>
        <time>2026-05-25T15:26:51.000Z</time>
        <extensions>
          <ns3:TrackPointExtension>
            <ns3:hr>65</ns3:hr>
            <ns3:cad>0</ns3:cad>
          </ns3:TrackPointExtension>
        </extensions>
      </trkpt>
      <trkpt lat="38.0200941860675811767578125" lon="-106.9311776943504810333251953125">
        <ele>4122.39990234375</ele>
        <time>2026-05-25T15:26:53.000Z</time>
        <extensions>
          <ns3:TrackPointExtension>
            <ns3:hr>65</ns3:hr>
            <ns3:cad>0</ns3:cad>
          </ns3:TrackPointExtension>
        </extensions>
      </trkpt>
      <trkpt lat="38.020099215209484100341796875" lon="-106.9312407262623310089111328125">
        <ele>4121.7998046875</ele>
        <time>2026-05-25T15:26:59.000Z</time>
        <extensions>
          <ns3:TrackPointExtension>
            <ns3:hr>65</ns3:hr>
            <ns3:cad>62</ns3:cad>
          </ns3:TrackPointExtension>
        </extensions>
      </trkpt>
      <trkpt lat="38.02009753882884979248046875" lon="-106.93124927580356597900390625">
        <ele>4121.7998046875</ele>
        <time>2026-05-25T15:27:01.000Z</time>
        <extensions>
          <ns3:TrackPointExtension>
            <ns3:hr>63</ns3:hr>
            <ns3:cad>62</ns3:cad>
          </ns3:TrackPointExtension>
        </extensions>
      </trkpt>
      <trkpt lat="38.02009695209562778472900390625" lon="-106.9312762655317783355712890625">
        <ele>4121.60009765625</ele>
        <time>2026-05-25T15:27:02.000Z</time>
        <extensions>
          <ns3:TrackPointExtension>
            <ns3:hr>63</ns3:hr>
            <ns3:cad>62</ns3:cad>
          </ns3:TrackPointExtension>
        </extensions>
      </trkpt>
      <trkpt lat="38.0200970359146595001220703125" lon="-106.9313520379364490509033203125">
        <ele>4121</ele>
        <time>2026-05-25T15:27:08.000Z</time>
        <extensions>
          <ns3:TrackPointExtension>
            <ns3:hr>63</ns3:hr>
            <ns3:cad>0</ns3:cad>
          </ns3:TrackPointExtension>
        </extensions>
      </trkpt>
      <trkpt lat="38.020091168582439422607421875" lon="-106.9313617609441280364990234375">
        <ele>4121</ele>
        <time>2026-05-25T15:27:09.000Z</time>
        <extensions>
          <ns3:TrackPointExtension>
            <ns3:hr>64</ns3:hr>
            <ns3:cad>0</ns3:cad>
          </ns3:TrackPointExtension>
        </extensions>
      </trkpt>
      <trkpt lat="38.0200869776308536529541015625" lon="-106.931386403739452362060546875">
        <ele>4120.60009765625</ele>
        <time>2026-05-25T15:27:11.000Z</time>
        <extensions>
          <ns3:TrackPointExtension>
            <ns3:hr>67</ns3:hr>
            <ns3:cad>0</ns3:cad>
          </ns3:TrackPointExtension>
        </extensions>
      </trkpt>
      <trkpt lat="38.0200861394405364990234375" lon="-106.9313993118703365325927734375">
        <ele>4120.60009765625</ele>
        <time>2026-05-25T15:27:12.000Z</time>
        <extensions>
          <ns3:TrackPointExtension>
            <ns3:hr>68</ns3:hr>
            <ns3:cad>0</ns3:cad>
          </ns3:TrackPointExtension>
        </extensions>
      </trkpt>
      <trkpt lat="38.020082451403141021728515625" lon="-106.9314403831958770751953125">
        <ele>4120.2001953125</ele>
        <time>2026-05-25T15:27:16.000Z</time>
        <extensions>
          <ns3:TrackPointExtension>
            <ns3:hr>70</ns3:hr>
            <ns3:cad>0</ns3:cad>
          </ns3:TrackPointExtension>
        </extensions>
      </trkpt>
      <trkpt lat="38.0200728960335254669189453125" lon="-106.9314884953200817108154296875">
        <ele>4119.7998046875</ele>
        <time>2026-05-25T15:27:22.000Z</time>
        <extensions>
          <ns3:TrackPointExtension>
            <ns3:hr>71</ns3:hr>
            <ns3:cad>0</ns3:cad>
          </ns3:TrackPointExtension>
        </extensions>
      </trkpt>
      <trkpt lat="38.0200682021677494049072265625" lon="-106.93150886334478855133056640625">
        <ele>4119.39990234375</ele>
        <time>2026-05-25T15:27:24.000Z</time>
        <extensions>
          <ns3:TrackPointExtension>
            <ns3:hr>72</ns3:hr>
            <ns3:cad>0</ns3:cad>
          </ns3:TrackPointExtension>
        </extensions>
      </trkpt>
      <trkpt lat="38.0200551263988018035888671875" lon="-106.93156418390572071075439453125">
        <ele>4119.2001953125</ele>
        <time>2026-05-25T15:27:30.000Z</time>
        <extensions>
          <ns3:TrackPointExtension>
            <ns3:hr>71</ns3:hr>
            <ns3:cad>0</ns3:cad>
          </ns3:TrackPointExtension>
        </extensions>
      </trkpt>
      <trkpt lat="38.02005202509462833404541015625" lon="-106.93157784640789031982421875">
        <ele>4119.2001953125</ele>
        <time>2026-05-25T15:27:31.000Z</time>
        <extensions>
          <ns3:TrackPointExtension>
            <ns3:hr>72</ns3:hr>
            <ns3:cad>0</ns3:cad>
          </ns3:TrackPointExtension>
        </extensions>
      </trkpt>
      <trkpt lat="38.02004565484821796417236328125" lon="-106.93163174204528331756591796875">
        <ele>4119.39990234375</ele>
        <time>2026-05-25T15:27:37.000Z</time>
        <extensions>
          <ns3:TrackPointExtension>
            <ns3:hr>71</ns3:hr>
            <ns3:cad>0</ns3:cad>
          </ns3:TrackPointExtension>
        </extensions>
      </trkpt>
      <trkpt lat="38.020056299865245819091796875" lon="-106.9316651858389377593994140625">
        <ele>4119.39990234375</ele>
        <time>2026-05-25T15:27:42.000Z</time>
        <extensions>
          <ns3:TrackPointExtension>
            <ns3:hr>74</ns3:hr>
            <ns3:cad>0</ns3:cad>
          </ns3:TrackPointExtension>
        </extensions>
      </trkpt>
      <trkpt lat="38.02005437202751636505126953125" lon="-106.93168203346431255340576171875">
        <ele>4119</ele>
        <time>2026-05-25T15:27:44.000Z</time>
        <extensions>
          <ns3:TrackPointExtension>
            <ns3:hr>74</ns3:hr>
            <ns3:cad>0</ns3:cad>
          </ns3:TrackPointExtension>
        </extensions>
      </trkpt>
      <trkpt lat="38.02004917524755001068115234375" lon="-106.93172344006597995758056640625">
        <ele>4118.39990234375</ele>
        <time>2026-05-25T15:27:49.000Z</time>
        <extensions>
          <ns3:TrackPointExtension>
            <ns3:hr>72</ns3:hr>
            <ns3:cad>0</ns3:cad>
          </ns3:TrackPointExtension>
        </extensions>
      </trkpt>
      <trkpt lat="38.02003677003085613250732421875" lon="-106.93175110034644603729248046875">
        <ele>4118</ele>
        <time>2026-05-25T15:27:53.000Z</time>
        <extensions>
          <ns3:TrackPointExtension>
            <ns3:hr>73</ns3:hr>
            <ns3:cad>0</ns3:cad>
          </ns3:TrackPointExtension>
        </extensions>
      </trkpt>
      <trkpt lat="38.02002671174705028533935546875" lon="-106.9318019784986972808837890625">
        <ele>4118.2001953125</ele>
        <time>2026-05-25T15:27:59.000Z</time>
        <extensions>
          <ns3:TrackPointExtension>
            <ns3:hr>72</ns3:hr>
            <ns3:cad>0</ns3:cad>
          </ns3:TrackPointExtension>
        </extensions>
      </trkpt>
      <trkpt lat="38.02003023214638233184814453125" lon="-106.9318345002830028533935546875">
        <ele>4118</ele>
        <time>2026-05-25T15:28:01.000Z</time>
        <extensions>
          <ns3:TrackPointExtension>
            <ns3:hr>72</ns3:hr>
            <ns3:cad>0</ns3:cad>
          </ns3:TrackPointExtension>
        </extensions>
      </trkpt>
      <trkpt lat="38.02003744058310985565185546875" lon="-106.931868530809879302978515625">
        <ele>4117.7998046875</ele>
        <time>2026-05-25T15:28:07.000Z</time>
        <extensions>
          <ns3:TrackPointExtension>
            <ns3:hr>69</ns3:hr>
            <ns3:cad>0</ns3:cad>
          </ns3:TrackPointExtension>
        </extensions>
      </trkpt>
      <trkpt lat="38.02002805285155773162841796875" lon="-106.9319057464599609375">
        <ele>4117.39990234375</ele>
        <time>2026-05-25T15:28:11.000Z</time>
        <extensions>
          <ns3:TrackPointExtension>
            <ns3:hr>66</ns3:hr>
            <ns3:cad>0</ns3:cad>
          </ns3:TrackPointExtension>
        </extensions>
      </trkpt>
      <trkpt lat="38.02002319134771823883056640625" lon="-106.93192007951438426971435546875">
        <ele>4117.2001953125</ele>
        <time>2026-05-25T15:28:12.000Z</time>
        <extensions>
          <ns3:TrackPointExtension>
            <ns3:hr>66</ns3:hr>
            <ns3:cad>0</ns3:cad>
          </ns3:TrackPointExtension>
        </extensions>
      </trkpt>
      <trkpt lat="38.020023442804813385009765625" lon="-106.93194262683391571044921875">
        <ele>4117</ele>
        <time>2026-05-25T15:28:14.000Z</time>
        <extensions>
          <ns3:TrackPointExtension>
            <ns3:hr>64</ns3:hr>
            <ns3:cad>0</ns3:cad>
          </ns3:TrackPointExtension>
        </extensions>
      </trkpt>
      <trkpt lat="38.0200256220996379852294921875" lon="-106.9319733045995235443115234375">
        <ele>4117.2001953125</ele>
        <time>2026-05-25T15:28:18.000Z</time>
        <extensions>
          <ns3:TrackPointExtension>
            <ns3:hr>61</ns3:hr>
            <ns3:cad>0</ns3:cad>
          </ns3:TrackPointExtension>
        </extensions>
      </trkpt>
      <trkpt lat="38.0200209282338619232177734375" lon="-106.9320085085928440093994140625">
        <ele>4117</ele>
        <time>2026-05-25T15:28:21.000Z</time>
        <extensions>
          <ns3:TrackPointExtension>
            <ns3:hr>61</ns3:hr>
            <ns3:cad>0</ns3:cad>
          </ns3:TrackPointExtension>
        </extensions>
      </trkpt>
      <trkpt lat="38.02002537064254283905029296875" lon="-106.932078413665294647216796875">
        <ele>4116.39990234375</ele>
        <time>2026-05-25T15:28:27.000Z</time>
        <extensions>
          <ns3:TrackPointExtension>
            <ns3:hr>58</ns3:hr>
            <ns3:cad>0</ns3:cad>
          </ns3:TrackPointExtension>
        </extensions>
      </trkpt>
      <trkpt lat="38.020022101700305938720703125" lon="-106.932106576859951019287109375">
        <ele>4116</ele>
        <time>2026-05-25T15:28:29.000Z</time>
        <extensions>
          <ns3:TrackPointExtension>
            <ns3:hr>57</ns3:hr>
            <ns3:cad>0</ns3:cad>
          </ns3:TrackPointExtension>
        </extensions>
      </trkpt>
      <trkpt lat="38.02001765929162502288818359375" lon="-106.93217103369534015655517578125">
        <ele>4115.7998046875</ele>
        <time>2026-05-25T15:28:35.000Z</time>
        <extensions>
          <ns3:TrackPointExtension>
            <ns3:hr>57</ns3:hr>
            <ns3:cad>0</ns3:cad>
          </ns3:TrackPointExtension>
        </extensions>
      </trkpt>
      <trkpt lat="38.01999771036207675933837890625" lon="-106.93224529735743999481201171875">
        <ele>4115.39990234375</ele>
        <time>2026-05-25T15:28:41.000Z</time>
        <extensions>
          <ns3:TrackPointExtension>
            <ns3:hr>57</ns3:hr>
            <ns3:cad>0</ns3:cad>
          </ns3:TrackPointExtension>
        </extensions>
      </trkpt>
      <trkpt lat="38.01999804563820362091064453125" lon="-106.93225535564124584197998046875">
        <ele>4115.2001953125</ele>
        <time>2026-05-25T15:28:43.000Z</time>
        <extensions>
          <ns3:TrackPointExtension>
            <ns3:hr>57</ns3:hr>
            <ns3:cad>0</ns3:cad>
          </ns3:TrackPointExtension>
        </extensions>
      </trkpt>
      <trkpt lat="38.0199843831360340118408203125" lon="-106.93231151439249515533447265625">
        <ele>4115</ele>
        <time>2026-05-25T15:28:48.000Z</time>
        <extensions>
          <ns3:TrackPointExtension>
            <ns3:hr>58</ns3:hr>
            <ns3:cad>0</ns3:cad>
          </ns3:TrackPointExtension>
        </extensions>
      </trkpt>
      <trkpt lat="38.0199843831360340118408203125" lon="-106.932319812476634979248046875">
        <ele>4115</ele>
        <time>2026-05-25T15:28:49.000Z</time>
        <extensions>
          <ns3:TrackPointExtension>
            <ns3:hr>58</ns3:hr>
            <ns3:cad>0</ns3:cad>
          </ns3:TrackPointExtension>
        </extensions>
      </trkpt>
      <trkpt lat="38.01999025046825408935546875" lon="-106.93237186409533023834228515625">
        <ele>4114.60009765625</ele>
        <time>2026-05-25T15:28:55.000Z</time>
        <extensions>
          <ns3:TrackPointExtension>
            <ns3:hr>58</ns3:hr>
            <ns3:cad>0</ns3:cad>
          </ns3:TrackPointExtension>
        </extensions>
      </trkpt>
      <trkpt lat="38.0199842154979705810546875" lon="-106.93242349661886692047119140625">
        <ele>4114.39990234375</ele>
        <time>2026-05-25T15:29:01.000Z</time>
        <extensions>
          <ns3:TrackPointExtension>
            <ns3:hr>57</ns3:hr>
            <ns3:cad>65</ns3:cad>
          </ns3:TrackPointExtension>
        </extensions>
      </trkpt>
      <trkpt lat="38.01996971480548381805419921875" lon="-106.93249222822487354278564453125">
        <ele>4114.60009765625</ele>
        <time>2026-05-25T15:29:07.000Z</time>
        <extensions>
          <ns3:TrackPointExtension>
            <ns3:hr>57</ns3:hr>
            <ns3:cad>0</ns3:cad>
          </ns3:TrackPointExtension>
        </extensions>
      </trkpt>
      <trkpt lat="38.01995881833136081695556640625" lon="-106.93252173252403736114501953125">
        <ele>4114.7998046875</ele>
        <time>2026-05-25T15:29:09.000Z</time>
        <extensions>
          <ns3:TrackPointExtension>
            <ns3:hr>58</ns3:hr>
            <ns3:cad>0</ns3:cad>
          </ns3:TrackPointExtension>
        </extensions>
      </trkpt>
      <trkpt lat="38.01994188688695430755615234375" lon="-106.9325680844485759735107421875">
        <ele>4115.2001953125</ele>
        <time>2026-05-25T15:29:15.000Z</time>
        <extensions>
          <ns3:TrackPointExtension>
            <ns3:hr>58</ns3:hr>
            <ns3:cad>0</ns3:cad>
          </ns3:TrackPointExtension>
        </extensions>
      </trkpt>
      <trkpt lat="38.0199451558291912078857421875" lon="-106.93257805891335010528564453125">
        <ele>4115.39990234375</ele>
        <time>2026-05-25T15:29:17.000Z</time>
        <extensions>
          <ns3:TrackPointExtension>
            <ns3:hr>58</ns3:hr>
            <ns3:cad>0</ns3:cad>
          </ns3:TrackPointExtension>
        </extensions>
      </trkpt>
      <trkpt lat="38.01994339562952518463134765625" lon="-106.93262784741818904876708984375">
        <ele>4116.2001953125</ele>
        <time>2026-05-25T15:29:22.000Z</time>
        <extensions>
          <ns3:TrackPointExtension>
            <ns3:hr>61</ns3:hr>
            <ns3:cad>0</ns3:cad>
          </ns3:TrackPointExtension>
        </extensions>
      </trkpt>
      <trkpt lat="38.01994423381984233856201171875" lon="-106.9326344691216945648193359375">
        <ele>4116.39990234375</ele>
        <time>2026-05-25T15:29:23.000Z</time>
        <extensions>
          <ns3:TrackPointExtension>
            <ns3:hr>63</ns3:hr>
            <ns3:cad>0</ns3:cad>
          </ns3:TrackPointExtension>
        </extensions>
      </trkpt>
      <trkpt lat="38.01994557492434978485107421875" lon="-106.93265743553638458251953125">
        <ele>4116.60009765625</ele>
        <time>2026-05-25T15:29:25.000Z</time>
        <extensions>
          <ns3:TrackPointExtension>
            <ns3:hr>67</ns3:hr>
            <ns3:cad>0</ns3:cad>
          </ns3:TrackPointExtension>
        </extensions>
      </trkpt>
      <trkpt lat="38.01994389854371547698974609375" lon="-106.93266690708696842193603515625">
        <ele>4116.60009765625</ele>
        <time>2026-05-25T15:29:26.000Z</time>
        <extensions>
          <ns3:TrackPointExtension>
            <ns3:hr>70</ns3:hr>
            <ns3:cad>0</ns3:cad>
          </ns3:TrackPointExtension>
        </extensions>
      </trkpt>
      <trkpt lat="38.01994306035339832305908203125" lon="-106.93268836475908756256103515625">
        <ele>4116.60009765625</ele>
        <time>2026-05-25T15:29:28.000Z</time>
        <extensions>
          <ns3:TrackPointExtension>
            <ns3:hr>73</ns3:hr>
            <ns3:cad>0</ns3:cad>
          </ns3:TrackPointExtension>
        </extensions>
      </trkpt>
      <trkpt lat="38.0199361033737659454345703125" lon="-106.93270714022219181060791015625">
        <ele>4116.60009765625</ele>
        <time>2026-05-25T15:29:30.000Z</time>
        <extensions>
          <ns3:TrackPointExtension>
            <ns3:hr>74</ns3:hr>
            <ns3:cad>0</ns3:cad>
          </ns3:TrackPointExtension>
        </extensions>
      </trkpt>
      <trkpt lat="38.01992990076541900634765625" lon="-106.932736225426197052001953125">
        <ele>4117.2001953125</ele>
        <time>2026-05-25T15:29:33.000Z</time>
        <extensions>
          <ns3:TrackPointExtension>
            <ns3:hr>75</ns3:hr>
            <ns3:cad>0</ns3:cad>
          </ns3:TrackPointExtension>
        </extensions>
      </trkpt>
      <trkpt lat="38.0199324153363704681396484375" lon="-106.93276950158178806304931640625">
        <ele>4117.7998046875</ele>
        <time>2026-05-25T15:29:37.000Z</time>
        <extensions>
          <ns3:TrackPointExtension>
            <ns3:hr>75</ns3:hr>
            <ns3:cad>0</ns3:cad>
          </ns3:TrackPointExtension>
        </extensions>
      </trkpt>
      <trkpt lat="38.0199310742318630218505859375" lon="-106.93282683379948139190673828125">
        <ele>4117.2001953125</ele>
        <time>2026-05-25T15:29:43.000Z</time>
        <extensions>
          <ns3:TrackPointExtension>
            <ns3:hr>75</ns3:hr>
            <ns3:cad>41</ns3:cad>
          </ns3:TrackPointExtension>
        </extensions>
      </trkpt>
      <trkpt lat="38.01993551664054393768310546875" lon="-106.93285323679447174072265625">
        <ele>4117</ele>
        <time>2026-05-25T15:29:46.000Z</time>
        <extensions>
          <ns3:TrackPointExtension>
            <ns3:hr>78</ns3:hr>
            <ns3:cad>41</ns3:cad>
          </ns3:TrackPointExtension>
        </extensions>
      </trkpt>
      <trkpt lat="38.01993635483086109161376953125" lon="-106.93287528119981288909912109375">
        <ele>4117</ele>
        <time>2026-05-25T15:29:48.000Z</time>
        <extensions>
          <ns3:TrackPointExtension>
            <ns3:hr>82</ns3:hr>
            <ns3:cad>41</ns3:cad>
          </ns3:TrackPointExtension>
        </extensions>
      </trkpt>
      <trkpt lat="38.01993752829730510711669921875" lon="-106.932884417474269866943359375">
        <ele>4117</ele>
        <time>2026-05-25T15:29:50.000Z</time>
        <extensions>
          <ns3:TrackPointExtension>
            <ns3:hr>85</ns3:hr>
            <ns3:cad>0</ns3:cad>
          </ns3:TrackPointExtension>
        </extensions>
      </trkpt>
      <trkpt lat="38.0199493467807769775390625" lon="-106.932924650609493255615234375">
        <ele>4117</ele>
        <time>2026-05-25T15:29:55.000Z</time>
        <extensions>
          <ns3:TrackPointExtension>
            <ns3:hr>87</ns3:hr>
            <ns3:cad>0</ns3:cad>
          </ns3:TrackPointExtension>
        </extensions>
      </trkpt>
      <trkpt lat="38.019946329295635223388671875" lon="-106.93298910744488239288330078125">
        <ele>4117.39990234375</ele>
        <time>2026-05-25T15:30:01.000Z</time>
        <extensions>
          <ns3:TrackPointExtension>
            <ns3:hr>88</ns3:hr>
            <ns3:cad>0</ns3:cad>
          </ns3:TrackPointExtension>
        </extensions>
      </trkpt>
      <trkpt lat="38.01993786357343196868896484375" lon="-106.93303889594972133636474609375">
        <ele>4117.60009765625</ele>
        <time>2026-05-25T15:30:05.000Z</time>
        <extensions>
          <ns3:TrackPointExtension>
            <ns3:hr>85</ns3:hr>
            <ns3:cad>44</ns3:cad>
          </ns3:TrackPointExtension>
        </extensions>
      </trkpt>
      <trkpt lat="38.0199283920228481292724609375" lon="-106.93308801390230655670166015625">
        <ele>4117.7998046875</ele>
        <time>2026-05-25T15:30:10.000Z</time>
        <extensions>
          <ns3:TrackPointExtension>
            <ns3:hr>87</ns3:hr>
            <ns3:cad>53</ns3:cad>
          </ns3:TrackPointExtension>
        </extensions>
      </trkpt>
      <trkpt lat="38.01992193795740604400634765625" lon="-106.9331226311624050140380859375">
        <ele>4117.39990234375</ele>
        <time>2026-05-25T15:30:14.000Z</time>
        <extensions>
          <ns3:TrackPointExtension>
            <ns3:hr>83</ns3:hr>
            <ns3:cad>0</ns3:cad>
          </ns3:TrackPointExtension>
        </extensions>
      </trkpt>
      <trkpt lat="38.01992445252835750579833984375" lon="-106.93313461728394031524658203125">
        <ele>4117.2001953125</ele>
        <time>2026-05-25T15:30:15.000Z</time>
        <extensions>
          <ns3:TrackPointExtension>
            <ns3:hr>80</ns3:hr>
            <ns3:cad>0</ns3:cad>
          </ns3:TrackPointExtension>
        </extensions>
      </trkpt>
      <trkpt lat="38.019926212728023529052734375" lon="-106.933149956166744232177734375">
        <ele>4117.2001953125</ele>
        <time>2026-05-25T15:30:16.000Z</time>
        <extensions>
          <ns3:TrackPointExtension>
            <ns3:hr>79</ns3:hr>
            <ns3:cad>0</ns3:cad>
          </ns3:TrackPointExtension>
        </extensions>
      </trkpt>
      <trkpt lat="38.0199250392615795135498046875" lon="-106.93320318125188350677490234375">
        <ele>4117.39990234375</ele>
        <time>2026-05-25T15:30:21.000Z</time>
        <extensions>
          <ns3:TrackPointExtension>
            <ns3:hr>79</ns3:hr>
            <ns3:cad>0</ns3:cad>
          </ns3:TrackPointExtension>
        </extensions>
      </trkpt>
      <trkpt lat="38.01992964930832386016845703125" lon="-106.93322296254336833953857421875">
        <ele>4117.7998046875</ele>
        <time>2026-05-25T15:30:25.000Z</time>
        <extensions>
          <ns3:TrackPointExtension>
            <ns3:hr>76</ns3:hr>
            <ns3:cad>0</ns3:cad>
          </ns3:TrackPointExtension>
        </extensions>
      </trkpt>
      <trkpt lat="38.01994071342051029205322265625" lon="-106.9332616031169891357421875">
        <ele>4118.2001953125</ele>
        <time>2026-05-25T15:30:29.000Z</time>
        <extensions>
          <ns3:TrackPointExtension>
            <ns3:hr>75</ns3:hr>
            <ns3:cad>0</ns3:cad>
          </ns3:TrackPointExtension>
        </extensions>
      </trkpt>
      <trkpt lat="38.0199464969336986541748046875" lon="-106.93332530558109283447265625">
        <ele>4118.60009765625</ele>
        <time>2026-05-25T15:30:35.000Z</time>
        <extensions>
          <ns3:TrackPointExtension>
            <ns3:hr>78</ns3:hr>
            <ns3:cad>0</ns3:cad>
          </ns3:TrackPointExtension>
        </extensions>
      </trkpt>
      <trkpt lat="38.01994976587593555450439453125" lon="-106.93335346877574920654296875">
        <ele>4119.39990234375</ele>
        <time>2026-05-25T15:30:38.000Z</time>
        <extensions>
          <ns3:TrackPointExtension>
            <ns3:hr>78</ns3:hr>
            <ns3:cad>0</ns3:cad>
          </ns3:TrackPointExtension>
        </extensions>
      </trkpt>
      <trkpt lat="38.01995563320815563201904296875" lon="-106.933365873992443084716796875">
        <ele>4119.60009765625</ele>
        <time>2026-05-25T15:30:41.000Z</time>
        <extensions>
          <ns3:TrackPointExtension>
            <ns3:hr>81</ns3:hr>
            <ns3:cad>0</ns3:cad>
          </ns3:TrackPointExtension>
        </extensions>
      </trkpt>
      <trkpt lat="38.0199682898819446563720703125" lon="-106.93338858895003795623779296875">
        <ele>4119</ele>
        <time>2026-05-25T15:30:45.000Z</time>
        <extensions>
          <ns3:TrackPointExtension>
            <ns3:hr>84</ns3:hr>
            <ns3:cad>0</ns3:cad>
          </ns3:TrackPointExtension>
        </extensions>
      </trkpt>
      <trkpt lat="38.0199709720909595489501953125" lon="-106.93339261226356029510498046875">
        <ele>4118.7998046875</ele>
        <time>2026-05-25T15:30:46.000Z</time>
        <extensions>
          <ns3:TrackPointExtension>
            <ns3:hr>85</ns3:hr>
            <ns3:cad>0</ns3:cad>
          </ns3:TrackPointExtension>
        </extensions>
      </trkpt>
      <trkpt lat="38.01997206173837184906005859375" lon="-106.93342496640980243682861328125">
        <ele>4118</ele>
        <time>2026-05-25T15:30:50.000Z</time>
        <extensions>
          <ns3:TrackPointExtension>
            <ns3:hr>84</ns3:hr>
            <ns3:cad>0</ns3:cad>
          </ns3:TrackPointExtension>
        </extensions>
      </trkpt>
      <trkpt lat="38.01996652968227863311767578125" lon="-106.9334493577480316162109375">
        <ele>4116.39990234375</ele>
        <time>2026-05-25T15:30:53.000Z</time>
        <extensions>
          <ns3:TrackPointExtension>
            <ns3:hr>83</ns3:hr>
            <ns3:cad>0</ns3:cad>
          </ns3:TrackPointExtension>
        </extensions>
      </trkpt>
      <trkpt lat="38.01996535621583461761474609375" lon="-106.93349554203450679779052734375">
        <ele>4116</ele>
        <time>2026-05-25T15:30:58.000Z</time>
        <extensions>
          <ns3:TrackPointExtension>
            <ns3:hr>84</ns3:hr>
            <ns3:cad>0</ns3:cad>
          </ns3:TrackPointExtension>
        </extensions>
      </trkpt>
      <trkpt lat="38.0199682898819446563720703125" lon="-106.93355890922248363494873046875">
        <ele>4117.60009765625</ele>
        <time>2026-05-25T15:31:03.000Z</time>
        <extensions>
          <ns3:TrackPointExtension>
            <ns3:hr>84</ns3:hr>
            <ns3:cad>0</ns3:cad>
          </ns3:TrackPointExtension>
        </extensions>
      </trkpt>
      <trkpt lat="38.01997289992868900299072265625" lon="-106.933569721877574920654296875">
        <ele>4118.2001953125</ele>
        <time>2026-05-25T15:31:05.000Z</time>
        <extensions>
          <ns3:TrackPointExtension>
            <ns3:hr>83</ns3:hr>
            <ns3:cad>0</ns3:cad>
          </ns3:TrackPointExtension>
        </extensions>
      </trkpt>
      <trkpt lat="38.01996619440615177154541015625" lon="-106.93360031582415103912353515625">
        <ele>4118.2001953125</ele>
        <time>2026-05-25T15:31:08.000Z</time>
        <extensions>
          <ns3:TrackPointExtension>
            <ns3:hr>79</ns3:hr>
            <ns3:cad>0</ns3:cad>
          </ns3:TrackPointExtension>
        </extensions>
      </trkpt>
      <trkpt lat="38.01996518857777118682861328125" lon="-106.93361909128725528717041015625">
        <ele>4118.60009765625</ele>
        <time>2026-05-25T15:31:12.000Z</time>
        <extensions>
          <ns3:TrackPointExtension>
            <ns3:hr>77</ns3:hr>
            <ns3:cad>0</ns3:cad>
          </ns3:TrackPointExtension>
        </extensions>
      </trkpt>
      <trkpt lat="38.0199622549116611480712890625" lon="-106.93362965248525142669677734375">
        <ele>4119</ele>
        <time>2026-05-25T15:31:13.000Z</time>
        <extensions>
          <ns3:TrackPointExtension>
            <ns3:hr>77</ns3:hr>
            <ns3:cad>0</ns3:cad>
          </ns3:TrackPointExtension>
        </extensions>
      </trkpt>
      <trkpt lat="38.0199619196355342864990234375" lon="-106.9336639344692230224609375">
        <ele>4120</ele>
        <time>2026-05-25T15:31:17.000Z</time>
        <extensions>
          <ns3:TrackPointExtension>
            <ns3:hr>77</ns3:hr>
            <ns3:cad>0</ns3:cad>
          </ns3:TrackPointExtension>
        </extensions>
      </trkpt>
      <trkpt lat="38.01996200345456600189208984375" lon="-106.93367675878107547760009765625">
        <ele>4120</ele>
        <time>2026-05-25T15:31:18.000Z</time>
        <extensions>
          <ns3:TrackPointExtension>
            <ns3:hr>78</ns3:hr>
            <ns3:cad>0</ns3:cad>
          </ns3:TrackPointExtension>
        </extensions>
      </trkpt>
      <trkpt lat="38.019955717027187347412109375" lon="-106.93370617926120758056640625">
        <ele>4120.39990234375</ele>
        <time>2026-05-25T15:31:21.000Z</time>
        <extensions>
          <ns3:TrackPointExtension>
            <ns3:hr>81</ns3:hr>
            <ns3:cad>0</ns3:cad>
          </ns3:TrackPointExtension>
        </extensions>
      </trkpt>
      <trkpt lat="38.01994389854371547698974609375" lon="-106.93373040296137332916259765625">
        <ele>4120.39990234375</ele>
        <time>2026-05-25T15:31:24.000Z</time>
        <extensions>
          <ns3:TrackPointExtension>
            <ns3:hr>85</ns3:hr>
            <ns3:cad>0</ns3:cad>
          </ns3:TrackPointExtension>
        </extensions>
      </trkpt>
      <trkpt lat="38.01994389854371547698974609375" lon="-106.93373040296137332916259765625">
        <ele>4120.60009765625</ele>
        <time>2026-05-25T15:31:25.000Z</time>
        <extensions>
          <ns3:TrackPointExtension>
            <ns3:hr>88</ns3:hr>
            <ns3:cad>0</ns3:cad>
          </ns3:TrackPointExtension>
        </extensions>
      </trkpt>
      <trkpt lat="38.01994599401950836181640625" lon="-106.93375504575669765472412109375">
        <ele>4121</ele>
        <time>2026-05-25T15:31:27.000Z</time>
        <extensions>
          <ns3:TrackPointExtension>
            <ns3:hr>90</ns3:hr>
            <ns3:cad>0</ns3:cad>
          </ns3:TrackPointExtension>
        </extensions>
      </trkpt>
      <trkpt lat="38.01994490437209606170654296875" lon="-106.93379192613065242767333984375">
        <ele>4121.2001953125</ele>
        <time>2026-05-25T15:31:32.000Z</time>
        <extensions>
          <ns3:TrackPointExtension>
            <ns3:hr>88</ns3:hr>
            <ns3:cad>0</ns3:cad>
          </ns3:TrackPointExtension>
        </extensions>
      </trkpt>
      <trkpt lat="38.019931577146053314208984375" lon="-106.93382830359041690826416015625">
        <ele>4122.2001953125</ele>
        <time>2026-05-25T15:31:36.000Z</time>
        <extensions>
          <ns3:TrackPointExtension>
            <ns3:hr>89</ns3:hr>
            <ns3:cad>0</ns3:cad>
          </ns3:TrackPointExtension>
        </extensions>
      </trkpt>
      <trkpt lat="38.0199280567467212677001953125" lon="-106.93386803381145000457763671875">
        <ele>4122.60009765625</ele>
        <time>2026-05-25T15:31:39.000Z</time>
        <extensions>
          <ns3:TrackPointExtension>
            <ns3:hr>89</ns3:hr>
            <ns3:cad>0</ns3:cad>
          </ns3:TrackPointExtension>
        </extensions>
      </trkpt>
      <trkpt lat="38.01992411725223064422607421875" lon="-106.93392335437238216400146484375">
        <ele>4123.2001953125</ele>
        <time>2026-05-25T15:31:45.000Z</time>
        <extensions>
          <ns3:TrackPointExtension>
            <ns3:hr>88</ns3:hr>
            <ns3:cad>0</ns3:cad>
          </ns3:TrackPointExtension>
        </extensions>
      </trkpt>
      <trkpt lat="38.01992093212902545928955078125" lon="-106.93393039517104625701904296875">
        <ele>4123.39990234375</ele>
        <time>2026-05-25T15:31:46.000Z</time>
        <extensions>
          <ns3:TrackPointExtension>
            <ns3:hr>88</ns3:hr>
            <ns3:cad>0</ns3:cad>
          </ns3:TrackPointExtension>
        </extensions>
      </trkpt>
      <trkpt lat="38.01991741172969341278076171875" lon="-106.93398722447454929351806640625">
        <ele>4123</ele>
        <time>2026-05-25T15:31:52.000Z</time>
        <extensions>
          <ns3:TrackPointExtension>
            <ns3:hr>89</ns3:hr>
            <ns3:cad>0</ns3:cad>
          </ns3:TrackPointExtension>
        </extensions>
      </trkpt>
      <trkpt lat="38.01991540007293224334716796875" lon="-106.93400516174733638763427734375">
        <ele>4123.2001953125</ele>
        <time>2026-05-25T15:31:54.000Z</time>
        <extensions>
          <ns3:TrackPointExtension>
            <ns3:hr>90</ns3:hr>
            <ns3:cad>0</ns3:cad>
          </ns3:TrackPointExtension>
        </extensions>
      </trkpt>
      <trkpt lat="38.01991053856909275054931640625" lon="-106.93406182341277599334716796875">
        <ele>4123.2001953125</ele>
        <time>2026-05-25T15:32:00.000Z</time>
        <extensions>
          <ns3:TrackPointExtension>
            <ns3:hr>89</ns3:hr>
            <ns3:cad>0</ns3:cad>
          </ns3:TrackPointExtension>
        </extensions>
      </trkpt>
      <trkpt lat="38.0199089460074901580810546875" lon="-106.93407372571527957916259765625">
        <ele>4123.2001953125</ele>
        <time>2026-05-25T15:32:01.000Z</time>
        <extensions>
          <ns3:TrackPointExtension>
            <ns3:hr>90</ns3:hr>
            <ns3:cad>0</ns3:cad>
          </ns3:TrackPointExtension>
        </extensions>
      </trkpt>
      <trkpt lat="38.01989612169563770294189453125" lon="-106.93410758860409259796142578125">
        <ele>4123</ele>
        <time>2026-05-25T15:32:06.000Z</time>
        <extensions>
          <ns3:TrackPointExtension>
            <ns3:hr>87</ns3:hr>
            <ns3:cad>0</ns3:cad>
          </ns3:TrackPointExtension>
        </extensions>
      </trkpt>
      <trkpt lat="38.019887991249561309814453125" lon="-106.9341247715055942535400390625">
        <ele>4123</ele>
        <time>2026-05-25T15:32:09.000Z</time>
        <extensions>
          <ns3:TrackPointExtension>
            <ns3:hr>84</ns3:hr>
            <ns3:cad>0</ns3:cad>
          </ns3:TrackPointExtension>
        </extensions>
      </trkpt>
      <trkpt lat="38.0198894999921321868896484375" lon="-106.934126280248165130615234375">
        <ele>4123.2001953125</ele>
        <time>2026-05-25T15:32:10.000Z</time>
        <extensions>
          <ns3:TrackPointExtension>
            <ns3:hr>83</ns3:hr>
            <ns3:cad>0</ns3:cad>
          </ns3:TrackPointExtension>
        </extensions>
      </trkpt>
      <trkpt lat="38.0198871530592441558837890625" lon="-106.9341398589313030242919921875">
        <ele>4124</ele>
        <time>2026-05-25T15:32:13.000Z</time>
        <extensions>
          <ns3:TrackPointExtension>
            <ns3:hr>80</ns3:hr>
            <ns3:cad>0</ns3:cad>
          </ns3:TrackPointExtension>
        </extensions>
      </trkpt>
      <trkpt lat="38.01988187246024608612060546875" lon="-106.93415821529924869537353515625">
        <ele>4124.39990234375</ele>
        <time>2026-05-25T15:32:15.000Z</time>
        <extensions>
          <ns3:TrackPointExtension>
            <ns3:hr>80</ns3:hr>
            <ns3:cad>0</ns3:cad>
          </ns3:TrackPointExtension>
        </extensions>
      </trkpt>
      <trkpt lat="38.01986846141517162322998046875" lon="-106.93418788723647594451904296875">
        <ele>4124</ele>
        <time>2026-05-25T15:32:18.000Z</time>
        <extensions>
          <ns3:TrackPointExtension>
            <ns3:hr>83</ns3:hr>
            <ns3:cad>0</ns3:cad>
          </ns3:TrackPointExtension>
        </extensions>
      </trkpt>
      <trkpt lat="38.01986091770231723785400390625" lon="-106.93423683755099773406982421875">
        <ele>4123.7998046875</ele>
        <time>2026-05-25T15:32:24.000Z</time>
        <extensions>
          <ns3:TrackPointExtension>
            <ns3:hr>84</ns3:hr>
            <ns3:cad>0</ns3:cad>
          </ns3:TrackPointExtension>
        </extensions>
      </trkpt>
      <trkpt lat="38.01986527629196643829345703125" lon="-106.93425737321376800537109375">
        <ele>4123.7998046875</ele>
        <time>2026-05-25T15:32:25.000Z</time>
        <extensions>
          <ns3:TrackPointExtension>
            <ns3:hr>84</ns3:hr>
            <ns3:cad>0</ns3:cad>
          </ns3:TrackPointExtension>
        </extensions>
      </trkpt>
      <trkpt lat="38.0198770947754383087158203125" lon="-106.934305317699909210205078125">
        <ele>4123.60009765625</ele>
        <time>2026-05-25T15:32:31.000Z</time>
        <extensions>
          <ns3:TrackPointExtension>
            <ns3:hr>81</ns3:hr>
            <ns3:cad>0</ns3:cad>
          </ns3:TrackPointExtension>
        </extensions>
      </trkpt>
      <trkpt lat="38.01987751387059688568115234375" lon="-106.9343252666294574737548828125">
        <ele>4123.39990234375</ele>
        <time>2026-05-25T15:32:33.000Z</time>
        <extensions>
          <ns3:TrackPointExtension>
            <ns3:hr>80</ns3:hr>
            <ns3:cad>0</ns3:cad>
          </ns3:TrackPointExtension>
        </extensions>
      </trkpt>
      <trkpt lat="38.0198814533650875091552734375" lon="-106.93437631241977214813232421875">
        <ele>4123.2001953125</ele>
        <time>2026-05-25T15:32:39.000Z</time>
        <extensions>
          <ns3:TrackPointExtension>
            <ns3:hr>79</ns3:hr>
            <ns3:cad>0</ns3:cad>
          </ns3:TrackPointExtension>
        </extensions>
      </trkpt>
      <trkpt lat="38.01988656632602214813232421875" lon="-106.93443934433162212371826171875">
        <ele>4122.60009765625</ele>
        <time>2026-05-25T15:32:45.000Z</time>
        <extensions>
          <ns3:TrackPointExtension>
            <ns3:hr>77</ns3:hr>
            <ns3:cad>0</ns3:cad>
          </ns3:TrackPointExtension>
        </extensions>
      </trkpt>
      <trkpt lat="38.01989193074405193328857421875" lon="-106.9344825111329555511474609375">
        <ele>4122.7998046875</ele>
        <time>2026-05-25T15:32:50.000Z</time>
        <extensions>
          <ns3:TrackPointExtension>
            <ns3:hr>74</ns3:hr>
            <ns3:cad>0</ns3:cad>
          </ns3:TrackPointExtension>
        </extensions>
      </trkpt>
      <trkpt lat="38.0198903381824493408203125" lon="-106.93449500016868114471435546875">
        <ele>4123</ele>
        <time>2026-05-25T15:32:52.000Z</time>
        <extensions>
          <ns3:TrackPointExtension>
            <ns3:hr>74</ns3:hr>
            <ns3:cad>0</ns3:cad>
          </ns3:TrackPointExtension>
        </extensions>
      </trkpt>
      <trkpt lat="38.01988421939313411712646484375" lon="-106.934547722339630126953125">
        <ele>4123.60009765625</ele>
        <time>2026-05-25T15:32:58.000Z</time>
        <extensions>
          <ns3:TrackPointExtension>
            <ns3:hr>75</ns3:hr>
            <ns3:cad>60</ns3:cad>
          </ns3:TrackPointExtension>
        </extensions>
      </trkpt>
      <trkpt lat="38.01988773979246616363525390625" lon="-106.9345747120678424835205078125">
        <ele>4124.2001953125</ele>
        <time>2026-05-25T15:33:00.000Z</time>
        <extensions>
          <ns3:TrackPointExtension>
            <ns3:hr>75</ns3:hr>
            <ns3:cad>0</ns3:cad>
          </ns3:TrackPointExtension>
        </extensions>
      </trkpt>
      <trkpt lat="38.01988539285957813262939453125" lon="-106.9345785677433013916015625">
        <ele>4124.39990234375</ele>
        <time>2026-05-25T15:33:01.000Z</time>
        <extensions>
          <ns3:TrackPointExtension>
            <ns3:hr>76</ns3:hr>
            <ns3:cad>0</ns3:cad>
          </ns3:TrackPointExtension>
        </extensions>
      </trkpt>
      <trkpt lat="38.01988187246024608612060546875" lon="-106.934616453945636749267578125">
        <ele>4125.39990234375</ele>
        <time>2026-05-25T15:33:06.000Z</time>
        <extensions>
          <ns3:TrackPointExtension>
            <ns3:hr>77</ns3:hr>
            <ns3:cad>0</ns3:cad>
          </ns3:TrackPointExtension>
        </extensions>
      </trkpt>
      <trkpt lat="38.01986594684422016143798828125" lon="-106.934656687080860137939453125">
        <ele>4126.39990234375</ele>
        <time>2026-05-25T15:33:12.000Z</time>
        <extensions>
          <ns3:TrackPointExtension>
            <ns3:hr>77</ns3:hr>
            <ns3:cad>0</ns3:cad>
          </ns3:TrackPointExtension>
        </extensions>
      </trkpt>
      <trkpt lat="38.01986217498779296875" lon="-106.93466297350823879241943359375">
        <ele>4126.39990234375</ele>
        <time>2026-05-25T15:33:14.000Z</time>
        <extensions>
          <ns3:TrackPointExtension>
            <ns3:hr>77</ns3:hr>
            <ns3:cad>0</ns3:cad>
          </ns3:TrackPointExtension>
        </extensions>
      </trkpt>
      <trkpt lat="38.0198472552001476287841796875" lon="-106.93468174897134304046630859375">
        <ele>4127.2001953125</ele>
        <time>2026-05-25T15:33:18.000Z</time>
        <extensions>
          <ns3:TrackPointExtension>
            <ns3:hr>82</ns3:hr>
            <ns3:cad>0</ns3:cad>
          </ns3:TrackPointExtension>
        </extensions>
      </trkpt>
      <trkpt lat="38.0198472552001476287841796875" lon="-106.93468174897134304046630859375">
        <ele>4127.39990234375</ele>
        <time>2026-05-25T15:33:19.000Z</time>
        <extensions>
          <ns3:TrackPointExtension>
            <ns3:hr>84</ns3:hr>
            <ns3:cad>0</ns3:cad>
          </ns3:TrackPointExtension>
        </extensions>
      </trkpt>
      <trkpt lat="38.0198469199240207672119140625" lon="-106.93468744866549968719482421875">
        <ele>4128</ele>
        <time>2026-05-25T15:33:20.000Z</time>
        <extensions>
          <ns3:TrackPointExtension>
            <ns3:hr>87</ns3:hr>
            <ns3:cad>0</ns3:cad>
          </ns3:TrackPointExtension>
        </extensions>
      </trkpt>
      <trkpt lat="38.019843064248561859130859375" lon="-106.93469189107418060302734375">
        <ele>4128.2001953125</ele>
        <time>2026-05-25T15:33:21.000Z</time>
        <extensions>
          <ns3:TrackPointExtension>
            <ns3:hr>91</ns3:hr>
            <ns3:cad>0</ns3:cad>
          </ns3:TrackPointExtension>
        </extensions>
      </trkpt>
      <trkpt lat="38.01983711309731006622314453125" lon="-106.93470672704279422760009765625">
        <ele>4128.60009765625</ele>
        <time>2026-05-25T15:33:22.000Z</time>
        <extensions>
          <ns3:TrackPointExtension>
            <ns3:hr>94</ns3:hr>
            <ns3:cad>0</ns3:cad>
          </ns3:TrackPointExtension>
        </extensions>
      </trkpt>
      <trkpt lat="38.0198308266699314117431640625" lon="-106.93474017083644866943359375">
        <ele>4129.2001953125</ele>
        <time>2026-05-25T15:33:25.000Z</time>
        <extensions>
          <ns3:TrackPointExtension>
            <ns3:hr>97</ns3:hr>
            <ns3:cad>56</ns3:cad>
          </ns3:TrackPointExtension>
        </extensions>
      </trkpt>
      <trkpt lat="38.0198304913938045501708984375" lon="-106.93473975174129009246826171875">
        <ele>4129.39990234375</ele>
        <time>2026-05-25T15:33:26.000Z</time>
        <extensions>
          <ns3:TrackPointExtension>
            <ns3:hr>97</ns3:hr>
            <ns3:cad>51</ns3:cad>
          </ns3:TrackPointExtension>
        </extensions>
      </trkpt>
      <trkpt lat="38.01981112919747829437255859375" lon="-106.9347617961466312408447265625">
        <ele>4129.39990234375</ele>
        <time>2026-05-25T15:33:31.000Z</time>
        <extensions>
          <ns3:TrackPointExtension>
            <ns3:hr>99</ns3:hr>
            <ns3:cad>0</ns3:cad>
          </ns3:TrackPointExtension>
        </extensions>
      </trkpt>
      <trkpt lat="38.01980224438011646270751953125" lon="-106.93477629683911800384521484375">
        <ele>4129.7998046875</ele>
        <time>2026-05-25T15:33:33.000Z</time>
        <extensions>
          <ns3:TrackPointExtension>
            <ns3:hr>100</ns3:hr>
            <ns3:cad>0</ns3:cad>
          </ns3:TrackPointExtension>
        </extensions>
      </trkpt>
      <trkpt lat="38.0197962932288646697998046875" lon="-106.9347943179309368133544921875">
        <ele>4130.2001953125</ele>
        <time>2026-05-25T15:33:37.000Z</time>
        <extensions>
          <ns3:TrackPointExtension>
            <ns3:hr>101</ns3:hr>
            <ns3:cad>0</ns3:cad>
          </ns3:TrackPointExtension>
        </extensions>
      </trkpt>
      <trkpt lat="38.01979218609631061553955078125" lon="-106.934812925755977630615234375">
        <ele>4130.7998046875</ele>
        <time>2026-05-25T15:33:40.000Z</time>
        <extensions>
          <ns3:TrackPointExtension>
            <ns3:hr>101</ns3:hr>
            <ns3:cad>0</ns3:cad>
          </ns3:TrackPointExtension>
        </extensions>
      </trkpt>
      <trkpt lat="38.01978564821183681488037109375" lon="-106.93482734262943267822265625">
        <ele>4131</ele>
        <time>2026-05-25T15:33:43.000Z</time>
        <extensions>
          <ns3:TrackPointExtension>
            <ns3:hr>99</ns3:hr>
            <ns3:cad>0</ns3:cad>
          </ns3:TrackPointExtension>
        </extensions>
      </trkpt>
      <trkpt lat="38.019777350127696990966796875" lon="-106.9348499737679958343505859375">
        <ele>4132</ele>
        <time>2026-05-25T15:33:47.000Z</time>
        <extensions>
          <ns3:TrackPointExtension>
            <ns3:hr>97</ns3:hr>
            <ns3:cad>0</ns3:cad>
          </ns3:TrackPointExtension>
        </extensions>
      </trkpt>
      <trkpt lat="38.01976494491100311279296875" lon="-106.93486480973660945892333984375">
        <ele>4132.2001953125</ele>
        <time>2026-05-25T15:33:50.000Z</time>
        <extensions>
          <ns3:TrackPointExtension>
            <ns3:hr>94</ns3:hr>
            <ns3:cad>45</ns3:cad>
          </ns3:TrackPointExtension>
        </extensions>
      </trkpt>
      <trkpt lat="38.01975815556943416595458984375" lon="-106.93487084470689296722412109375">
        <ele>4132.2001953125</ele>
        <time>2026-05-25T15:33:52.000Z</time>
        <extensions>
          <ns3:TrackPointExtension>
            <ns3:hr>91</ns3:hr>
            <ns3:cad>0</ns3:cad>
          </ns3:TrackPointExtension>
        </extensions>
      </trkpt>
      <trkpt lat="38.0197580717504024505615234375" lon="-106.93488358519971370697021484375">
        <ele>4132.60009765625</ele>
        <time>2026-05-25T15:33:55.000Z</time>
        <extensions>
          <ns3:TrackPointExtension>
            <ns3:hr>88</ns3:hr>
            <ns3:cad>0</ns3:cad>
          </ns3:TrackPointExtension>
        </extensions>
      </trkpt>
      <trkpt lat="38.019757568836212158203125" lon="-106.93488894961774349212646484375">
        <ele>4133</ele>
        <time>2026-05-25T15:33:56.000Z</time>
        <extensions>
          <ns3:TrackPointExtension>
            <ns3:hr>87</ns3:hr>
            <ns3:cad>0</ns3:cad>
          </ns3:TrackPointExtension>
        </extensions>
      </trkpt>
      <trkpt lat="38.01975714974105358123779296875" lon="-106.93489708006381988525390625">
        <ele>4133.2001953125</ele>
        <time>2026-05-25T15:33:57.000Z</time>
        <extensions>
          <ns3:TrackPointExtension>
            <ns3:hr>87</ns3:hr>
            <ns3:cad>0</ns3:cad>
          </ns3:TrackPointExtension>
        </extensions>
      </trkpt>
      <trkpt lat="38.019746504724025726318359375" lon="-106.93491476587951183319091796875">
        <ele>4134.2001953125</ele>
        <time>2026-05-25T15:34:01.000Z</time>
        <extensions>
          <ns3:TrackPointExtension>
            <ns3:hr>87</ns3:hr>
            <ns3:cad>0</ns3:cad>
          </ns3:TrackPointExtension>
        </extensions>
      </trkpt>
      <trkpt lat="38.01974072121083736419677734375" lon="-106.93492331542074680328369140625">
        <ele>4134.60009765625</ele>
        <time>2026-05-25T15:34:03.000Z</time>
        <extensions>
          <ns3:TrackPointExtension>
            <ns3:hr>87</ns3:hr>
            <ns3:cad>0</ns3:cad>
          </ns3:TrackPointExtension>
        </extensions>
      </trkpt>
      <trkpt lat="38.01972932182252407073974609375" lon="-106.93494192324578762054443359375">
        <ele>4135.2001953125</ele>
        <time>2026-05-25T15:34:07.000Z</time>
        <extensions>
          <ns3:TrackPointExtension>
            <ns3:hr>87</ns3:hr>
            <ns3:cad>0</ns3:cad>
          </ns3:TrackPointExtension>
        </extensions>
      </trkpt>
      <trkpt lat="38.01971792243421077728271484375" lon="-106.9349689967930316925048828125">
        <ele>4135.7998046875</ele>
        <time>2026-05-25T15:34:11.000Z</time>
        <extensions>
          <ns3:TrackPointExtension>
            <ns3:hr>89</ns3:hr>
            <ns3:cad>0</ns3:cad>
          </ns3:TrackPointExtension>
        </extensions>
      </trkpt>
      <trkpt lat="38.01971255801618099212646484375" lon="-106.93498433567583560943603515625">
        <ele>4136.39990234375</ele>
        <time>2026-05-25T15:34:14.000Z</time>
        <extensions>
          <ns3:TrackPointExtension>
            <ns3:hr>94</ns3:hr>
            <ns3:cad>0</ns3:cad>
          </ns3:TrackPointExtension>
        </extensions>
      </trkpt>
      <trkpt lat="38.01970518194139003753662109375" lon="-106.9349928013980388641357421875">
        <ele>4137</ele>
        <time>2026-05-25T15:34:17.000Z</time>
        <extensions>
          <ns3:TrackPointExtension>
            <ns3:hr>96</ns3:hr>
            <ns3:cad>0</ns3:cad>
          </ns3:TrackPointExtension>
        </extensions>
      </trkpt>
      <trkpt lat="38.01970434375107288360595703125" lon="-106.93501912057399749755859375">
        <ele>4137.60009765625</ele>
        <time>2026-05-25T15:34:20.000Z</time>
        <extensions>
          <ns3:TrackPointExtension>
            <ns3:hr>96</ns3:hr>
            <ns3:cad>0</ns3:cad>
          </ns3:TrackPointExtension>
        </extensions>
      </trkpt>
      <trkpt lat="38.0197061039507389068603515625" lon="-106.93504367955029010772705078125">
        <ele>4137.7998046875</ele>
        <time>2026-05-25T15:34:22.000Z</time>
        <extensions>
          <ns3:TrackPointExtension>
            <ns3:hr>97</ns3:hr>
            <ns3:cad>0</ns3:cad>
          </ns3:TrackPointExtension>
        </extensions>
      </trkpt>
      <trkpt lat="38.01969395019114017486572265625" lon="-106.93506178446114063262939453125">
        <ele>4137.60009765625</ele>
        <time>2026-05-25T15:34:26.000Z</time>
        <extensions>
          <ns3:TrackPointExtension>
            <ns3:hr>94</ns3:hr>
            <ns3:cad>0</ns3:cad>
          </ns3:TrackPointExtension>
        </extensions>
      </trkpt>
      <trkpt lat="38.0196839757263660430908203125" lon="-106.9350776262581348419189453125">
        <ele>4138</ele>
        <time>2026-05-25T15:34:28.000Z</time>
        <extensions>
          <ns3:TrackPointExtension>
            <ns3:hr>95</ns3:hr>
            <ns3:cad>0</ns3:cad>
          </ns3:TrackPointExtension>
        </extensions>
      </trkpt>
      <trkpt lat="38.0196715705096721649169921875" lon="-106.9350866787135601043701171875">
        <ele>4138.60009765625</ele>
        <time>2026-05-25T15:34:31.000Z</time>
        <extensions>
          <ns3:TrackPointExtension>
            <ns3:hr>95</ns3:hr>
            <ns3:cad>0</ns3:cad>
          </ns3:TrackPointExtension>
        </extensions>
      </trkpt>
      <trkpt lat="38.01965505816042423248291015625" lon="-106.93510721437633037567138671875">
        <ele>4139.60009765625</ele>
        <time>2026-05-25T15:34:36.000Z</time>
        <extensions>
          <ns3:TrackPointExtension>
            <ns3:hr>96</ns3:hr>
            <ns3:cad>0</ns3:cad>
          </ns3:TrackPointExtension>
        </extensions>
      </trkpt>
      <trkpt lat="38.01963494159281253814697265625" lon="-106.93514023907482624053955078125">
        <ele>4140.39990234375</ele>
        <time>2026-05-25T15:34:42.000Z</time>
        <extensions>
          <ns3:TrackPointExtension>
            <ns3:hr>93</ns3:hr>
            <ns3:cad>0</ns3:cad>
          </ns3:TrackPointExtension>
        </extensions>
      </trkpt>
      <trkpt lat="38.0196333490312099456787109375" lon="-106.9351445138454437255859375">
        <ele>4140.60009765625</ele>
        <time>2026-05-25T15:34:44.000Z</time>
        <extensions>
          <ns3:TrackPointExtension>
            <ns3:hr>93</ns3:hr>
            <ns3:cad>0</ns3:cad>
          </ns3:TrackPointExtension>
        </extensions>
      </trkpt>
      <trkpt lat="38.0196155793964862823486328125" lon="-106.935153566300868988037109375">
        <ele>4142</ele>
        <time>2026-05-25T15:34:48.000Z</time>
        <extensions>
          <ns3:TrackPointExtension>
            <ns3:hr>92</ns3:hr>
            <ns3:cad>0</ns3:cad>
          </ns3:TrackPointExtension>
        </extensions>
      </trkpt>
      <trkpt lat="38.0196128971874713897705078125" lon="-106.93516261875629425048828125">
        <ele>4142.2001953125</ele>
        <time>2026-05-25T15:34:49.000Z</time>
        <extensions>
          <ns3:TrackPointExtension>
            <ns3:hr>92</ns3:hr>
            <ns3:cad>0</ns3:cad>
          </ns3:TrackPointExtension>
        </extensions>
      </trkpt>
      <trkpt lat="38.0195981450378894805908203125" lon="-106.935188770294189453125">
        <ele>4142.7998046875</ele>
        <time>2026-05-25T15:34:55.000Z</time>
        <extensions>
          <ns3:TrackPointExtension>
            <ns3:hr>92</ns3:hr>
            <ns3:cad>0</ns3:cad>
          </ns3:TrackPointExtension>
        </extensions>
      </trkpt>
      <trkpt lat="38.01959470845758914947509765625" lon="-106.9351976551115512847900390625">
        <ele>4143</ele>
        <time>2026-05-25T15:34:57.000Z</time>
        <extensions>
          <ns3:TrackPointExtension>
            <ns3:hr>92</ns3:hr>
            <ns3:cad>0</ns3:cad>
          </ns3:TrackPointExtension>
        </extensions>
      </trkpt>
      <trkpt lat="38.01958951167762279510498046875" lon="-106.9352103956043720245361328125">
        <ele>4143.7998046875</ele>
        <time>2026-05-25T15:35:02.000Z</time>
        <extensions>
          <ns3:TrackPointExtension>
            <ns3:hr>92</ns3:hr>
            <ns3:cad>0</ns3:cad>
          </ns3:TrackPointExtension>
        </extensions>
      </trkpt>
      <trkpt lat="38.01958766765892505645751953125" lon="-106.9352115690708160400390625">
        <ele>4143.60009765625</ele>
        <time>2026-05-25T15:35:08.000Z</time>
        <extensions>
          <ns3:TrackPointExtension>
            <ns3:hr>93</ns3:hr>
            <ns3:cad>0</ns3:cad>
          </ns3:TrackPointExtension>
        </extensions>
      </trkpt>
      <trkpt lat="38.0195854045450687408447265625" lon="-106.93522020243108272552490234375">
        <ele>4144</ele>
        <time>2026-05-25T15:35:12.000Z</time>
        <extensions>
          <ns3:TrackPointExtension>
            <ns3:hr>93</ns3:hr>
            <ns3:cad>0</ns3:cad>
          </ns3:TrackPointExtension>
        </extensions>
      </trkpt>
      <trkpt lat="38.0195854045450687408447265625" lon="-106.93522020243108272552490234375">
        <ele>4144</ele>
        <time>2026-05-25T15:35:13.000Z</time>
        <extensions>
          <ns3:TrackPointExtension>
            <ns3:hr>94</ns3:hr>
            <ns3:cad>0</ns3:cad>
          </ns3:TrackPointExtension>
        </extensions>
      </trkpt>
      <trkpt lat="38.019581548869609832763671875" lon="-106.93523629568517208099365234375">
        <ele>4145</ele>
        <time>2026-05-25T15:35:17.000Z</time>
        <extensions>
          <ns3:TrackPointExtension>
            <ns3:hr>97</ns3:hr>
            <ns3:cad>0</ns3:cad>
          </ns3:TrackPointExtension>
        </extensions>
      </trkpt>
      <trkpt lat="38.0195763520896434783935546875" lon="-106.935237385332584381103515625">
        <ele>4145.2001953125</ele>
        <time>2026-05-25T15:35:18.000Z</time>
        <extensions>
          <ns3:TrackPointExtension>
            <ns3:hr>100</ns3:hr>
            <ns3:cad>0</ns3:cad>
          </ns3:TrackPointExtension>
        </extensions>
      </trkpt>
      <trkpt lat="38.01957023330032825469970703125" lon="-106.93524668924510478973388671875">
        <ele>4145.39990234375</ele>
        <time>2026-05-25T15:35:20.000Z</time>
        <extensions>
          <ns3:TrackPointExtension>
            <ns3:hr>102</ns3:hr>
            <ns3:cad>0</ns3:cad>
          </ns3:TrackPointExtension>
        </extensions>
      </trkpt>
      <trkpt lat="38.01956738345324993133544921875" lon="-106.9352536462247371673583984375">
        <ele>4145.60009765625</ele>
        <time>2026-05-25T15:35:22.000Z</time>
        <extensions>
          <ns3:TrackPointExtension>
            <ns3:hr>105</ns3:hr>
            <ns3:cad>0</ns3:cad>
          </ns3:TrackPointExtension>
        </extensions>
      </trkpt>
      <trkpt lat="38.01956201903522014617919921875" lon="-106.93526345305144786834716796875">
        <ele>4146</ele>
        <time>2026-05-25T15:35:25.000Z</time>
        <extensions>
          <ns3:TrackPointExtension>
            <ns3:hr>107</ns3:hr>
            <ns3:cad>0</ns3:cad>
          </ns3:TrackPointExtension>
        </extensions>
      </trkpt>
      <trkpt lat="38.01955162547528743743896484375" lon="-106.93528004921972751617431640625">
        <ele>4147</ele>
        <time>2026-05-25T15:35:29.000Z</time>
        <extensions>
          <ns3:TrackPointExtension>
            <ns3:hr>107</ns3:hr>
            <ns3:cad>0</ns3:cad>
          </ns3:TrackPointExtension>
        </extensions>
      </trkpt>
      <trkpt lat="38.01955162547528743743896484375" lon="-106.93528004921972751617431640625">
        <ele>4147.2001953125</ele>
        <time>2026-05-25T15:35:30.000Z</time>
        <extensions>
          <ns3:TrackPointExtension>
            <ns3:hr>107</ns3:hr>
            <ns3:cad>0</ns3:cad>
          </ns3:TrackPointExtension>
        </extensions>
      </trkpt>
      <trkpt lat="38.01953159272670745849609375" lon="-106.93530955351889133453369140625">
        <ele>4148.39990234375</ele>
        <time>2026-05-25T15:35:34.000Z</time>
        <extensions>
          <ns3:TrackPointExtension>
            <ns3:hr>108</ns3:hr>
            <ns3:cad>0</ns3:cad>
          </ns3:TrackPointExtension>
        </extensions>
      </trkpt>
      <trkpt lat="38.01952446810901165008544921875" lon="-106.93532916717231273651123046875">
        <ele>4149.2001953125</ele>
        <time>2026-05-25T15:35:38.000Z</time>
        <extensions>
          <ns3:TrackPointExtension>
            <ns3:hr>109</ns3:hr>
            <ns3:cad>0</ns3:cad>
          </ns3:TrackPointExtension>
        </extensions>
      </trkpt>
      <trkpt lat="38.01952312700450420379638671875" lon="-106.9353344477713108062744140625">
        <ele>4149.39990234375</ele>
        <time>2026-05-25T15:35:39.000Z</time>
        <extensions>
          <ns3:TrackPointExtension>
            <ns3:hr>109</ns3:hr>
            <ns3:cad>0</ns3:cad>
          </ns3:TrackPointExtension>
        </extensions>
      </trkpt>
      <trkpt lat="38.0195160023868083953857421875" lon="-106.9353535585105419158935546875">
        <ele>4150</ele>
        <time>2026-05-25T15:35:45.000Z</time>
        <extensions>
          <ns3:TrackPointExtension>
            <ns3:hr>108</ns3:hr>
            <ns3:cad>0</ns3:cad>
          </ns3:TrackPointExtension>
        </extensions>
      </trkpt>
      <trkpt lat="38.01951038651168346405029296875" lon="-106.93536386825144290924072265625">
        <ele>4150.60009765625</ele>
        <time>2026-05-25T15:35:48.000Z</time>
        <extensions>
          <ns3:TrackPointExtension>
            <ns3:hr>108</ns3:hr>
            <ns3:cad>0</ns3:cad>
          </ns3:TrackPointExtension>
        </extensions>
      </trkpt>
      <trkpt lat="38.019488342106342315673828125" lon="-106.93537727929651737213134765625">
        <ele>4151.2001953125</ele>
        <time>2026-05-25T15:35:53.000Z</time>
        <extensions>
          <ns3:TrackPointExtension>
            <ns3:hr>107</ns3:hr>
            <ns3:cad>0</ns3:cad>
          </ns3:TrackPointExtension>
        </extensions>
      </trkpt>
      <trkpt lat="38.0194898508489131927490234375" lon="-106.93538549356162548065185546875">
        <ele>4151.60009765625</ele>
        <time>2026-05-25T15:35:57.000Z</time>
        <extensions>
          <ns3:TrackPointExtension>
            <ns3:hr>104</ns3:hr>
            <ns3:cad>0</ns3:cad>
          </ns3:TrackPointExtension>
        </extensions>
      </trkpt>
      <trkpt lat="38.01948892883956432342529296875" lon="-106.935388930141925811767578125">
        <ele>4151.7998046875</ele>
        <time>2026-05-25T15:35:58.000Z</time>
        <extensions>
          <ns3:TrackPointExtension>
            <ns3:hr>103</ns3:hr>
            <ns3:cad>0</ns3:cad>
          </ns3:TrackPointExtension>
        </extensions>
      </trkpt>
      <trkpt lat="38.01948197185993194580078125" lon="-106.93541114218533039093017578125">
        <ele>4152.7998046875</ele>
        <time>2026-05-25T15:36:01.000Z</time>
        <extensions>
          <ns3:TrackPointExtension>
            <ns3:hr>102</ns3:hr>
            <ns3:cad>0</ns3:cad>
          </ns3:TrackPointExtension>
        </extensions>
      </trkpt>
      <trkpt lat="38.0194834806025028228759765625" lon="-106.9354108907282352447509765625">
        <ele>4153</ele>
        <time>2026-05-25T15:36:04.000Z</time>
        <extensions>
          <ns3:TrackPointExtension>
            <ns3:hr>100</ns3:hr>
            <ns3:cad>0</ns3:cad>
          </ns3:TrackPointExtension>
        </extensions>
      </trkpt>
      <trkpt lat="38.01947216503322124481201171875" lon="-106.93542203865945339202880859375">
        <ele>4153.7998046875</ele>
        <time>2026-05-25T15:36:08.000Z</time>
        <extensions>
          <ns3:TrackPointExtension>
            <ns3:hr>100</ns3:hr>
            <ns3:cad>0</ns3:cad>
          </ns3:TrackPointExtension>
        </extensions>
      </trkpt>
      <trkpt lat="38.01945908926427364349365234375" lon="-106.9354471005499362945556640625">
        <ele>4154.39990234375</ele>
        <time>2026-05-25T15:36:11.000Z</time>
        <extensions>
          <ns3:TrackPointExtension>
            <ns3:hr>99</ns3:hr>
            <ns3:cad>0</ns3:cad>
          </ns3:TrackPointExtension>
        </extensions>
      </trkpt>
      <trkpt lat="38.01945070736110210418701171875" lon="-106.9354591704905033111572265625">
        <ele>4154.7998046875</ele>
        <time>2026-05-25T15:36:17.000Z</time>
        <extensions>
          <ns3:TrackPointExtension>
            <ns3:hr>99</ns3:hr>
            <ns3:cad>0</ns3:cad>
          </ns3:TrackPointExtension>
        </extensions>
      </trkpt>
      <trkpt lat="38.019446432590484619140625" lon="-106.9354695640504360198974609375">
        <ele>4155</ele>
        <time>2026-05-25T15:36:18.000Z</time>
        <extensions>
          <ns3:TrackPointExtension>
            <ns3:hr>100</ns3:hr>
            <ns3:cad>0</ns3:cad>
          </ns3:TrackPointExtension>
        </extensions>
      </trkpt>
      <trkpt lat="38.0194499529898166656494140625" lon="-106.93547450937330722808837890625">
        <ele>4155.39990234375</ele>
        <time>2026-05-25T15:36:19.000Z</time>
        <extensions>
          <ns3:TrackPointExtension>
            <ns3:hr>103</ns3:hr>
            <ns3:cad>0</ns3:cad>
          </ns3:TrackPointExtension>
        </extensions>
      </trkpt>
      <trkpt lat="38.01945188082754611968994140625" lon="-106.93548238836228847503662109375">
        <ele>4155.7998046875</ele>
        <time>2026-05-25T15:36:20.000Z</time>
        <extensions>
          <ns3:TrackPointExtension>
            <ns3:hr>106</ns3:hr>
            <ns3:cad>0</ns3:cad>
          </ns3:TrackPointExtension>
        </extensions>
      </trkpt>
      <trkpt lat="38.01945188082754611968994140625" lon="-106.93548238836228847503662109375">
        <ele>4156</ele>
        <time>2026-05-25T15:36:21.000Z</time>
        <extensions>
          <ns3:TrackPointExtension>
            <ns3:hr>106</ns3:hr>
            <ns3:cad>0</ns3:cad>
          </ns3:TrackPointExtension>
        </extensions>
      </trkpt>
      <trkpt lat="38.019452132284641265869140625" lon="-106.93548674695193767547607421875">
        <ele>4156.2001953125</ele>
        <time>2026-05-25T15:36:22.000Z</time>
        <extensions>
          <ns3:TrackPointExtension>
            <ns3:hr>105</ns3:hr>
            <ns3:cad>0</ns3:cad>
          </ns3:TrackPointExtension>
        </extensions>
      </trkpt>
      <trkpt lat="38.01944400183856487274169921875" lon="-106.93549864925444126129150390625">
        <ele>4156.2001953125</ele>
        <time>2026-05-25T15:36:24.000Z</time>
        <extensions>
          <ns3:TrackPointExtension>
            <ns3:hr>104</ns3:hr>
            <ns3:cad>0</ns3:cad>
          </ns3:TrackPointExtension>
        </extensions>
      </trkpt>
      <trkpt lat="38.0194435827434062957763671875" lon="-106.93550569005310535430908203125">
        <ele>4156.39990234375</ele>
        <time>2026-05-25T15:36:27.000Z</time>
        <extensions>
          <ns3:TrackPointExtension>
            <ns3:hr>101</ns3:hr>
            <ns3:cad>0</ns3:cad>
          </ns3:TrackPointExtension>
        </extensions>
      </trkpt>
      <trkpt lat="38.01943830214440822601318359375" lon="-106.93551725707948207855224609375">
        <ele>4156.7998046875</ele>
        <time>2026-05-25T15:36:30.000Z</time>
        <extensions>
          <ns3:TrackPointExtension>
            <ns3:hr>98</ns3:hr>
            <ns3:cad>0</ns3:cad>
          </ns3:TrackPointExtension>
        </extensions>
      </trkpt>
      <trkpt lat="38.019434027373790740966796875" lon="-106.93552614189684391021728515625">
        <ele>4156.7998046875</ele>
        <time>2026-05-25T15:36:31.000Z</time>
        <extensions>
          <ns3:TrackPointExtension>
            <ns3:hr>98</ns3:hr>
            <ns3:cad>0</ns3:cad>
          </ns3:TrackPointExtension>
        </extensions>
      </trkpt>
      <trkpt lat="38.01942966878414154052734375" lon="-106.93556017242372035980224609375">
        <ele>4157.39990234375</ele>
        <time>2026-05-25T15:36:37.000Z</time>
        <extensions>
          <ns3:TrackPointExtension>
            <ns3:hr>99</ns3:hr>
            <ns3:cad>0</ns3:cad>
          </ns3:TrackPointExtension>
        </extensions>
      </trkpt>
      <trkpt lat="38.01942966878414154052734375" lon="-106.93556017242372035980224609375">
        <ele>4157.39990234375</ele>
        <time>2026-05-25T15:36:38.000Z</time>
        <extensions>
          <ns3:TrackPointExtension>
            <ns3:hr>99</ns3:hr>
            <ns3:cad>0</ns3:cad>
          </ns3:TrackPointExtension>
        </extensions>
      </trkpt>
      <trkpt lat="38.0194268189370632171630859375" lon="-106.93557056598365306854248046875">
        <ele>4158.39990234375</ele>
        <time>2026-05-25T15:36:43.000Z</time>
        <extensions>
          <ns3:TrackPointExtension>
            <ns3:hr>99</ns3:hr>
            <ns3:cad>0</ns3:cad>
          </ns3:TrackPointExtension>
        </extensions>
      </trkpt>
      <trkpt lat="38.0194209516048431396484375" lon="-106.935578025877475738525390625">
        <ele>4158.39990234375</ele>
        <time>2026-05-25T15:36:44.000Z</time>
        <extensions>
          <ns3:TrackPointExtension>
            <ns3:hr>98</ns3:hr>
            <ns3:cad>0</ns3:cad>
          </ns3:TrackPointExtension>
        </extensions>
      </trkpt>
      <trkpt lat="38.01941248588263988494873046875" lon="-106.935602165758609771728515625">
        <ele>4159</ele>
        <time>2026-05-25T15:36:47.000Z</time>
        <extensions>
          <ns3:TrackPointExtension>
            <ns3:hr>95</ns3:hr>
            <ns3:cad>0</ns3:cad>
          </ns3:TrackPointExtension>
        </extensions>
      </trkpt>
      <trkpt lat="38.0194077081978321075439453125" lon="-106.935608871281147003173828125">
        <ele>4159.39990234375</ele>
        <time>2026-05-25T15:36:49.000Z</time>
        <extensions>
          <ns3:TrackPointExtension>
            <ns3:hr>94</ns3:hr>
            <ns3:cad>0</ns3:cad>
          </ns3:TrackPointExtension>
        </extensions>
      </trkpt>
      <trkpt lat="38.0194026790559291839599609375" lon="-106.935614235699176788330078125">
        <ele>4159.60009765625</ele>
        <time>2026-05-25T15:36:50.000Z</time>
        <extensions>
          <ns3:TrackPointExtension>
            <ns3:hr>94</ns3:hr>
            <ns3:cad>0</ns3:cad>
          </ns3:TrackPointExtension>
        </extensions>
      </trkpt>
      <trkpt lat="38.0193902738392353057861328125" lon="-106.93563443608582019805908203125">
        <ele>4160.39990234375</ele>
        <time>2026-05-25T15:36:55.000Z</time>
        <extensions>
          <ns3:TrackPointExtension>
            <ns3:hr>95</ns3:hr>
            <ns3:cad>0</ns3:cad>
          </ns3:TrackPointExtension>
        </extensions>
      </trkpt>
      <trkpt lat="38.0193922854959964752197265625" lon="-106.9356459192931652069091796875">
        <ele>4161</ele>
        <time>2026-05-25T15:36:57.000Z</time>
        <extensions>
          <ns3:TrackPointExtension>
            <ns3:hr>95</ns3:hr>
            <ns3:cad>0</ns3:cad>
          </ns3:TrackPointExtension>
        </extensions>
      </trkpt>
      <trkpt lat="38.01938943564891815185546875" lon="-106.93567316047847270965576171875">
        <ele>4161</ele>
        <time>2026-05-25T15:37:01.000Z</time>
        <extensions>
          <ns3:TrackPointExtension>
            <ns3:hr>96</ns3:hr>
            <ns3:cad>0</ns3:cad>
          </ns3:TrackPointExtension>
        </extensions>
      </trkpt>
      <trkpt lat="38.019367642700672149658203125" lon="-106.935697384178638458251953125">
        <ele>4161.39990234375</ele>
        <time>2026-05-25T15:37:07.000Z</time>
        <extensions>
          <ns3:TrackPointExtension>
            <ns3:hr>95</ns3:hr>
            <ns3:cad>0</ns3:cad>
          </ns3:TrackPointExtension>
        </extensions>
      </trkpt>
      <trkpt lat="38.01934652030467987060546875" lon="-106.935728229582309722900390625">
        <ele>4162</ele>
        <time>2026-05-25T15:37:13.000Z</time>
        <extensions>
          <ns3:TrackPointExtension>
            <ns3:hr>96</ns3:hr>
            <ns3:cad>0</ns3:cad>
          </ns3:TrackPointExtension>
        </extensions>
      </trkpt>
      <trkpt lat="38.0193409882485866546630859375" lon="-106.9357330910861492156982421875">
        <ele>4162.60009765625</ele>
        <time>2026-05-25T15:37:15.000Z</time>
        <extensions>
          <ns3:TrackPointExtension>
            <ns3:hr>96</ns3:hr>
            <ns3:cad>0</ns3:cad>
          </ns3:TrackPointExtension>
        </extensions>
      </trkpt>
      <trkpt lat="38.01932799629867076873779296875" lon="-106.9357421435415744781494140625">
        <ele>4163.39990234375</ele>
        <time>2026-05-25T15:37:20.000Z</time>
        <extensions>
          <ns3:TrackPointExtension>
            <ns3:hr>97</ns3:hr>
            <ns3:cad>0</ns3:cad>
          </ns3:TrackPointExtension>
        </extensions>
      </trkpt>
      <trkpt lat="38.01932380534708499908447265625" lon="-106.93574256263673305511474609375">
        <ele>4163.60009765625</ele>
        <time>2026-05-25T15:37:21.000Z</time>
        <extensions>
          <ns3:TrackPointExtension>
            <ns3:hr>96</ns3:hr>
            <ns3:cad>0</ns3:cad>
          </ns3:TrackPointExtension>
        </extensions>
      </trkpt>
      <trkpt lat="38.01932246424257755279541015625" lon="-106.93574625067412853240966796875">
        <ele>4163.7998046875</ele>
        <time>2026-05-25T15:37:22.000Z</time>
        <extensions>
          <ns3:TrackPointExtension>
            <ns3:hr>103</ns3:hr>
            <ns3:cad>0</ns3:cad>
          </ns3:TrackPointExtension>
        </extensions>
      </trkpt>
      <trkpt lat="38.0193208716809749603271484375" lon="-106.9357468374073505401611328125">
        <ele>4164</ele>
        <time>2026-05-25T15:37:23.000Z</time>
        <extensions>
          <ns3:TrackPointExtension>
            <ns3:hr>111</ns3:hr>
            <ns3:cad>0</ns3:cad>
          </ns3:TrackPointExtension>
        </extensions>
      </trkpt>
      <trkpt lat="38.019316680729389190673828125" lon="-106.93574943579733371734619140625">
        <ele>4164.2001953125</ele>
        <time>2026-05-25T15:37:24.000Z</time>
        <extensions>
          <ns3:TrackPointExtension>
            <ns3:hr>115</ns3:hr>
            <ns3:cad>0</ns3:cad>
          </ns3:TrackPointExtension>
        </extensions>
      </trkpt>
      <trkpt lat="38.01930771209299564361572265625" lon="-106.93576402030885219573974609375">
        <ele>4165</ele>
        <time>2026-05-25T15:37:26.000Z</time>
        <extensions>
          <ns3:TrackPointExtension>
            <ns3:hr>116</ns3:hr>
            <ns3:cad>0</ns3:cad>
          </ns3:TrackPointExtension>
        </extensions>
      </trkpt>
      <trkpt lat="38.019302599132061004638671875" lon="-106.935775168240070343017578125">
        <ele>4165.39990234375</ele>
        <time>2026-05-25T15:37:28.000Z</time>
        <extensions>
          <ns3:TrackPointExtension>
            <ns3:hr>116</ns3:hr>
            <ns3:cad>0</ns3:cad>
          </ns3:TrackPointExtension>
        </extensions>
      </trkpt>
      <trkpt lat="38.019285835325717926025390625" lon="-106.9357877410948276519775390625">
        <ele>4166</ele>
        <time>2026-05-25T15:37:33.000Z</time>
        <extensions>
          <ns3:TrackPointExtension>
            <ns3:hr>112</ns3:hr>
            <ns3:cad>0</ns3:cad>
          </ns3:TrackPointExtension>
        </extensions>
      </trkpt>
      <trkpt lat="38.01928558386862277984619140625" lon="-106.935791261494159698486328125">
        <ele>4166.2001953125</ele>
        <time>2026-05-25T15:37:34.000Z</time>
        <extensions>
          <ns3:TrackPointExtension>
            <ns3:hr>112</ns3:hr>
            <ns3:cad>0</ns3:cad>
          </ns3:TrackPointExtension>
        </extensions>
      </trkpt>
      <trkpt lat="38.019282482564449310302734375" lon="-106.93579721264541149139404296875">
        <ele>4166.60009765625</ele>
        <time>2026-05-25T15:37:36.000Z</time>
        <extensions>
          <ns3:TrackPointExtension>
            <ns3:hr>111</ns3:hr>
            <ns3:cad>0</ns3:cad>
          </ns3:TrackPointExtension>
        </extensions>
      </trkpt>
      <trkpt lat="38.01927820779383182525634765625" lon="-106.935808025300502777099609375">
        <ele>4167.2001953125</ele>
        <time>2026-05-25T15:37:39.000Z</time>
        <extensions>
          <ns3:TrackPointExtension>
            <ns3:hr>112</ns3:hr>
            <ns3:cad>0</ns3:cad>
          </ns3:TrackPointExtension>
        </extensions>
      </trkpt>
      <trkpt lat="38.01927166990935802459716796875" lon="-106.9358192570507526397705078125">
        <ele>4167.60009765625</ele>
        <time>2026-05-25T15:37:44.000Z</time>
        <extensions>
          <ns3:TrackPointExtension>
            <ns3:hr>113</ns3:hr>
            <ns3:cad>0</ns3:cad>
          </ns3:TrackPointExtension>
        </extensions>
      </trkpt>
      <trkpt lat="38.01926345564424991607666015625" lon="-106.9358162395656108856201171875">
        <ele>4168</ele>
        <time>2026-05-25T15:37:48.000Z</time>
        <extensions>
          <ns3:TrackPointExtension>
            <ns3:hr>113</ns3:hr>
            <ns3:cad>0</ns3:cad>
          </ns3:TrackPointExtension>
        </extensions>
      </trkpt>
      <trkpt lat="38.01926345564424991607666015625" lon="-106.9358162395656108856201171875">
        <ele>4168.39990234375</ele>
        <time>2026-05-25T15:37:49.000Z</time>
        <extensions>
          <ns3:TrackPointExtension>
            <ns3:hr>111</ns3:hr>
            <ns3:cad>0</ns3:cad>
          </ns3:TrackPointExtension>
        </extensions>
      </trkpt>
      <trkpt lat="38.01925406791269779205322265625" lon="-106.93583317101001739501953125">
        <ele>4169.2001953125</ele>
        <time>2026-05-25T15:37:52.000Z</time>
        <extensions>
          <ns3:TrackPointExtension>
            <ns3:hr>108</ns3:hr>
            <ns3:cad>0</ns3:cad>
          </ns3:TrackPointExtension>
        </extensions>
      </trkpt>
      <trkpt lat="38.0192531459033489227294921875" lon="-106.935836859047412872314453125">
        <ele>4169.39990234375</ele>
        <time>2026-05-25T15:37:53.000Z</time>
        <extensions>
          <ns3:TrackPointExtension>
            <ns3:hr>107</ns3:hr>
            <ns3:cad>0</ns3:cad>
          </ns3:TrackPointExtension>
        </extensions>
      </trkpt>
      <trkpt lat="38.01925574429333209991455078125" lon="-106.9358437322080135345458984375">
        <ele>4169.7998046875</ele>
        <time>2026-05-25T15:37:55.000Z</time>
        <extensions>
          <ns3:TrackPointExtension>
            <ns3:hr>107</ns3:hr>
            <ns3:cad>0</ns3:cad>
          </ns3:TrackPointExtension>
        </extensions>
      </trkpt>
      <trkpt lat="38.01926429383456707000732421875" lon="-106.93583928979933261871337890625">
        <ele>4169.7998046875</ele>
        <time>2026-05-25T15:38:01.000Z</time>
        <extensions>
          <ns3:TrackPointExtension>
            <ns3:hr>108</ns3:hr>
            <ns3:cad>0</ns3:cad>
          </ns3:TrackPointExtension>
        </extensions>
      </trkpt>
      <trkpt lat="38.01926429383456707000732421875" lon="-106.93583928979933261871337890625">
        <ele>4169.7998046875</ele>
        <time>2026-05-25T15:38:07.000Z</time>
        <extensions>
          <ns3:TrackPointExtension>
            <ns3:hr>110</ns3:hr>
            <ns3:cad>0</ns3:cad>
          </ns3:TrackPointExtension>
        </extensions>
      </trkpt>
      <trkpt lat="38.01926429383456707000732421875" lon="-106.93583928979933261871337890625">
        <ele>4169.60009765625</ele>
        <time>2026-05-25T15:38:13.000Z</time>
        <extensions>
          <ns3:TrackPointExtension>
            <ns3:hr>110</ns3:hr>
            <ns3:cad>0</ns3:cad>
          </ns3:TrackPointExtension>
        </extensions>
      </trkpt>
      <trkpt lat="38.01926429383456707000732421875" lon="-106.93583928979933261871337890625">
        <ele>4169.39990234375</ele>
        <time>2026-05-25T15:38:14.000Z</time>
        <extensions>
          <ns3:TrackPointExtension>
            <ns3:hr>110</ns3:hr>
            <ns3:cad>0</ns3:cad>
          </ns3:TrackPointExtension>
        </extensions>
      </trkpt>
      <trkpt lat="38.01926429383456707000732421875" lon="-106.93583928979933261871337890625">
        <ele>4169.60009765625</ele>
        <time>2026-05-25T15:38:20.000Z</time>
        <extensions>
          <ns3:TrackPointExtension>
            <ns3:hr>109</ns3:hr>
            <ns3:cad>0</ns3:cad>
          </ns3:TrackPointExtension>
        </extensions>
      </trkpt>
      <trkpt lat="38.01926194690167903900146484375" lon="-106.9358400441706180572509765625">
        <ele>4169.2001953125</ele>
        <time>2026-05-25T15:38:25.000Z</time>
        <extensions>
          <ns3:TrackPointExtension>
            <ns3:hr>119</ns3:hr>
            <ns3:cad>0</ns3:cad>
          </ns3:TrackPointExtension>
        </extensions>
      </trkpt>
      <trkpt lat="38.0192598514258861541748046875" lon="-106.93584700115025043487548828125">
        <ele>4169.2001953125</ele>
        <time>2026-05-25T15:38:26.000Z</time>
        <extensions>
          <ns3:TrackPointExtension>
            <ns3:hr>128</ns3:hr>
            <ns3:cad>0</ns3:cad>
          </ns3:TrackPointExtension>
        </extensions>
      </trkpt>
      <trkpt lat="38.019254989922046661376953125" lon="-106.9358544610440731048583984375">
        <ele>4169.39990234375</ele>
        <time>2026-05-25T15:38:27.000Z</time>
        <extensions>
          <ns3:TrackPointExtension>
            <ns3:hr>132</ns3:hr>
            <ns3:cad>0</ns3:cad>
          </ns3:TrackPointExtension>
        </extensions>
      </trkpt>
      <trkpt lat="38.0192507989704608917236328125" lon="-106.93586594425141811370849609375">
        <ele>4169.39990234375</ele>
        <time>2026-05-25T15:38:28.000Z</time>
        <extensions>
          <ns3:TrackPointExtension>
            <ns3:hr>132</ns3:hr>
            <ns3:cad>0</ns3:cad>
          </ns3:TrackPointExtension>
        </extensions>
      </trkpt>
      <trkpt lat="38.01925105042755603790283203125" lon="-106.935887150466442108154296875">
        <ele>4170</ele>
        <time>2026-05-25T15:38:31.000Z</time>
        <extensions>
          <ns3:TrackPointExtension>
            <ns3:hr>133</ns3:hr>
            <ns3:cad>0</ns3:cad>
          </ns3:TrackPointExtension>
        </extensions>
      </trkpt>
      <trkpt lat="38.019242584705352783203125" lon="-106.93590600974857807159423828125">
        <ele>4170.60009765625</ele>
        <time>2026-05-25T15:38:34.000Z</time>
        <extensions>
          <ns3:TrackPointExtension>
            <ns3:hr>135</ns3:hr>
            <ns3:cad>0</ns3:cad>
          </ns3:TrackPointExtension>
        </extensions>
      </trkpt>
      <trkpt lat="38.01924459636211395263671875" lon="-106.9359116256237030029296875">
        <ele>4171</ele>
        <time>2026-05-25T15:38:36.000Z</time>
        <extensions>
          <ns3:TrackPointExtension>
            <ns3:hr>135</ns3:hr>
            <ns3:cad>0</ns3:cad>
          </ns3:TrackPointExtension>
        </extensions>
      </trkpt>
      <trkpt lat="38.01925130188465118408203125" lon="-106.935926377773284912109375">
        <ele>4171.60009765625</ele>
        <time>2026-05-25T15:38:38.000Z</time>
        <extensions>
          <ns3:TrackPointExtension>
            <ns3:hr>134</ns3:hr>
            <ns3:cad>0</ns3:cad>
          </ns3:TrackPointExtension>
        </extensions>
      </trkpt>
      <trkpt lat="38.019240237772464752197265625" lon="-106.93595160730183124542236328125">
        <ele>4172.39990234375</ele>
        <time>2026-05-25T15:38:42.000Z</time>
        <extensions>
          <ns3:TrackPointExtension>
            <ns3:hr>132</ns3:hr>
            <ns3:cad>0</ns3:cad>
          </ns3:TrackPointExtension>
        </extensions>
      </trkpt>
      <trkpt lat="38.01924132741987705230712890625" lon="-106.935950852930545806884765625">
        <ele>4172.60009765625</ele>
        <time>2026-05-25T15:38:44.000Z</time>
        <extensions>
          <ns3:TrackPointExtension>
            <ns3:hr>131</ns3:hr>
            <ns3:cad>0</ns3:cad>
          </ns3:TrackPointExtension>
        </extensions>
      </trkpt>
      <trkpt lat="38.01924300380051136016845703125" lon="-106.9359905831515789031982421875">
        <ele>4173.60009765625</ele>
        <time>2026-05-25T15:38:48.000Z</time>
        <extensions>
          <ns3:TrackPointExtension>
            <ns3:hr>131</ns3:hr>
            <ns3:cad>0</ns3:cad>
          </ns3:TrackPointExtension>
        </extensions>
      </trkpt>
      <trkpt lat="38.019245602190494537353515625" lon="-106.93599821068346500396728515625">
        <ele>4173.7998046875</ele>
        <time>2026-05-25T15:38:49.000Z</time>
        <extensions>
          <ns3:TrackPointExtension>
            <ns3:hr>130</ns3:hr>
            <ns3:cad>0</ns3:cad>
          </ns3:TrackPointExtension>
        </extensions>
      </trkpt>
      <trkpt lat="38.01925809122622013092041015625" lon="-106.93603576160967350006103515625">
        <ele>4174.60009765625</ele>
        <time>2026-05-25T15:38:55.000Z</time>
        <extensions>
          <ns3:TrackPointExtension>
            <ns3:hr>128</ns3:hr>
            <ns3:cad>0</ns3:cad>
          </ns3:TrackPointExtension>
        </extensions>
      </trkpt>
      <trkpt lat="38.01925742067396640777587890625" lon="-106.9360529445111751556396484375">
        <ele>4174.7998046875</ele>
        <time>2026-05-25T15:38:57.000Z</time>
        <extensions>
          <ns3:TrackPointExtension>
            <ns3:hr>128</ns3:hr>
            <ns3:cad>0</ns3:cad>
          </ns3:TrackPointExtension>
        </extensions>
      </trkpt>
      <trkpt lat="38.01925742067396640777587890625" lon="-106.936084292829036712646484375">
        <ele>4175.2001953125</ele>
        <time>2026-05-25T15:39:00.000Z</time>
        <extensions>
          <ns3:TrackPointExtension>
            <ns3:hr>130</ns3:hr>
            <ns3:cad>0</ns3:cad>
          </ns3:TrackPointExtension>
        </extensions>
      </trkpt>
      <trkpt lat="38.019261024892330169677734375" lon="-106.9361007213592529296875">
        <ele>4175.60009765625</ele>
        <time>2026-05-25T15:39:02.000Z</time>
        <extensions>
          <ns3:TrackPointExtension>
            <ns3:hr>133</ns3:hr>
            <ns3:cad>0</ns3:cad>
          </ns3:TrackPointExtension>
        </extensions>
      </trkpt>
      <trkpt lat="38.01926077343523502349853515625" lon="-106.93610851652920246124267578125">
        <ele>4176</ele>
        <time>2026-05-25T15:39:04.000Z</time>
        <extensions>
          <ns3:TrackPointExtension>
            <ns3:hr>132</ns3:hr>
            <ns3:cad>0</ns3:cad>
          </ns3:TrackPointExtension>
        </extensions>
      </trkpt>
      <trkpt lat="38.01927166990935802459716796875" lon="-106.93613567389547824859619140625">
        <ele>4176.7998046875</ele>
        <time>2026-05-25T15:39:08.000Z</time>
        <extensions>
          <ns3:TrackPointExtension>
            <ns3:hr>131</ns3:hr>
            <ns3:cad>0</ns3:cad>
          </ns3:TrackPointExtension>
        </extensions>
      </trkpt>
      <trkpt lat="38.019273765385150909423828125" lon="-106.93612880073487758636474609375">
        <ele>4177</ele>
        <time>2026-05-25T15:39:10.000Z</time>
        <extensions>
          <ns3:TrackPointExtension>
            <ns3:hr>129</ns3:hr>
            <ns3:cad>0</ns3:cad>
          </ns3:TrackPointExtension>
        </extensions>
      </trkpt>
      <trkpt lat="38.019273765385150909423828125" lon="-106.936129219830036163330078125">
        <ele>4177</ele>
        <time>2026-05-25T15:39:12.000Z</time>
        <extensions>
          <ns3:TrackPointExtension>
            <ns3:hr>125</ns3:hr>
            <ns3:cad>0</ns3:cad>
          </ns3:TrackPointExtension>
        </extensions>
      </trkpt>
      <trkpt lat="38.0192722566425800323486328125" lon="-106.93613835610449314117431640625">
        <ele>4177.2001953125</ele>
        <time>2026-05-25T15:39:13.000Z</time>
        <extensions>
          <ns3:TrackPointExtension>
            <ns3:hr>125</ns3:hr>
            <ns3:cad>0</ns3:cad>
          </ns3:TrackPointExtension>
        </extensions>
      </trkpt>
      <trkpt lat="38.01926295273005962371826171875" lon="-106.93616903387010097503662109375">
        <ele>4178</ele>
        <time>2026-05-25T15:39:19.000Z</time>
        <extensions>
          <ns3:TrackPointExtension>
            <ns3:hr>125</ns3:hr>
            <ns3:cad>0</ns3:cad>
          </ns3:TrackPointExtension>
        </extensions>
      </trkpt>
      <trkpt lat="38.01925222389400005340576171875" lon="-106.9361780025064945220947265625">
        <ele>4178.7998046875</ele>
        <time>2026-05-25T15:39:22.000Z</time>
        <extensions>
          <ns3:TrackPointExtension>
            <ns3:hr>125</ns3:hr>
            <ns3:cad>0</ns3:cad>
          </ns3:TrackPointExtension>
        </extensions>
      </trkpt>
      <trkpt lat="38.01923579536378383636474609375" lon="-106.93618454039096832275390625">
        <ele>4179</ele>
        <time>2026-05-25T15:39:24.000Z</time>
        <extensions>
          <ns3:TrackPointExtension>
            <ns3:hr>123</ns3:hr>
            <ns3:cad>0</ns3:cad>
          </ns3:TrackPointExtension>
        </extensions>
      </trkpt>
      <trkpt lat="38.019228167831897735595703125" lon="-106.9361887313425540924072265625">
        <ele>4179.2001953125</ele>
        <time>2026-05-25T15:39:25.000Z</time>
        <extensions>
          <ns3:TrackPointExtension>
            <ns3:hr>127</ns3:hr>
            <ns3:cad>0</ns3:cad>
          </ns3:TrackPointExtension>
        </extensions>
      </trkpt>
      <trkpt lat="38.0192209593951702117919921875" lon="-106.9361937604844570159912109375">
        <ele>4179.39990234375</ele>
        <time>2026-05-25T15:39:26.000Z</time>
        <extensions>
          <ns3:TrackPointExtension>
            <ns3:hr>130</ns3:hr>
            <ns3:cad>0</ns3:cad>
          </ns3:TrackPointExtension>
        </extensions>
      </trkpt>
      <trkpt lat="38.01922221668064594268798828125" lon="-106.9361957721412181854248046875">
        <ele>4179.60009765625</ele>
        <time>2026-05-25T15:39:28.000Z</time>
        <extensions>
          <ns3:TrackPointExtension>
            <ns3:hr>133</ns3:hr>
            <ns3:cad>0</ns3:cad>
          </ns3:TrackPointExtension>
        </extensions>
      </trkpt>
      <trkpt lat="38.01921567879617214202880859375" lon="-106.9362313114106655120849609375">
        <ele>4180</ele>
        <time>2026-05-25T15:39:34.000Z</time>
        <extensions>
          <ns3:TrackPointExtension>
            <ns3:hr>135</ns3:hr>
            <ns3:cad>0</ns3:cad>
          </ns3:TrackPointExtension>
        </extensions>
      </trkpt>
      <trkpt lat="38.019215427339076995849609375" lon="-106.93623340688645839691162109375">
        <ele>4180.2001953125</ele>
        <time>2026-05-25T15:39:36.000Z</time>
        <extensions>
          <ns3:TrackPointExtension>
            <ns3:hr>134</ns3:hr>
            <ns3:cad>0</ns3:cad>
          </ns3:TrackPointExtension>
        </extensions>
      </trkpt>
      <trkpt lat="38.01922825165092945098876953125" lon="-106.93625067360699176788330078125">
        <ele>4180.7998046875</ele>
        <time>2026-05-25T15:39:40.000Z</time>
        <extensions>
          <ns3:TrackPointExtension>
            <ns3:hr>132</ns3:hr>
            <ns3:cad>0</ns3:cad>
          </ns3:TrackPointExtension>
        </extensions>
      </trkpt>
      <trkpt lat="38.019232191145420074462890625" lon="-106.93625561892986297607421875">
        <ele>4181.2001953125</ele>
        <time>2026-05-25T15:39:41.000Z</time>
        <extensions>
          <ns3:TrackPointExtension>
            <ns3:hr>133</ns3:hr>
            <ns3:cad>0</ns3:cad>
          </ns3:TrackPointExtension>
        </extensions>
      </trkpt>
      <trkpt lat="38.01924736239016056060791015625" lon="-106.9362916611135005950927734375">
        <ele>4181.7998046875</ele>
        <time>2026-05-25T15:39:47.000Z</time>
        <extensions>
          <ns3:TrackPointExtension>
            <ns3:hr>134</ns3:hr>
            <ns3:cad>0</ns3:cad>
          </ns3:TrackPointExtension>
        </extensions>
      </trkpt>
      <trkpt lat="38.019246272742748260498046875" lon="-106.936298198997974395751953125">
        <ele>4182</ele>
        <time>2026-05-25T15:39:48.000Z</time>
        <extensions>
          <ns3:TrackPointExtension>
            <ns3:hr>134</ns3:hr>
            <ns3:cad>0</ns3:cad>
          </ns3:TrackPointExtension>
        </extensions>
      </trkpt>
      <trkpt lat="38.01925289444625377655029296875" lon="-106.93630431778728961944580078125">
        <ele>4182.2001953125</ele>
        <time>2026-05-25T15:39:50.000Z</time>
        <extensions>
          <ns3:TrackPointExtension>
            <ns3:hr>134</ns3:hr>
            <ns3:cad>0</ns3:cad>
          </ns3:TrackPointExtension>
        </extensions>
      </trkpt>
      <trkpt lat="38.0192625336349010467529296875" lon="-106.9363211654126644134521484375">
        <ele>4182.7998046875</ele>
        <time>2026-05-25T15:39:55.000Z</time>
        <extensions>
          <ns3:TrackPointExtension>
            <ns3:hr>133</ns3:hr>
            <ns3:cad>0</ns3:cad>
          </ns3:TrackPointExtension>
        </extensions>
      </trkpt>
      <trkpt lat="38.0192625336349010467529296875" lon="-106.9363349117338657379150390625">
        <ele>4183.60009765625</ele>
        <time>2026-05-25T15:39:59.000Z</time>
        <extensions>
          <ns3:TrackPointExtension>
            <ns3:hr>132</ns3:hr>
            <ns3:cad>0</ns3:cad>
          </ns3:TrackPointExtension>
        </extensions>
      </trkpt>
      <trkpt lat="38.0192598514258861541748046875" lon="-106.93634572438895702362060546875">
        <ele>4184</ele>
        <time>2026-05-25T15:40:01.000Z</time>
        <extensions>
          <ns3:TrackPointExtension>
            <ns3:hr>132</ns3:hr>
            <ns3:cad>0</ns3:cad>
          </ns3:TrackPointExtension>
        </extensions>
      </trkpt>
      <trkpt lat="38.01925532519817352294921875" lon="-106.936373971402645111083984375">
        <ele>4184.7998046875</ele>
        <time>2026-05-25T15:40:05.000Z</time>
        <extensions>
          <ns3:TrackPointExtension>
            <ns3:hr>131</ns3:hr>
            <ns3:cad>0</ns3:cad>
          </ns3:TrackPointExtension>
        </extensions>
      </trkpt>
      <trkpt lat="38.0192544870078563690185546875" lon="-106.936386711895465850830078125">
        <ele>4185.2001953125</ele>
        <time>2026-05-25T15:40:07.000Z</time>
        <extensions>
          <ns3:TrackPointExtension>
            <ns3:hr>128</ns3:hr>
            <ns3:cad>0</ns3:cad>
          </ns3:TrackPointExtension>
        </extensions>
      </trkpt>
      <trkpt lat="38.01925607956945896148681640625" lon="-106.9363905675709247589111328125">
        <ele>4185.7998046875</ele>
        <time>2026-05-25T15:40:10.000Z</time>
        <extensions>
          <ns3:TrackPointExtension>
            <ns3:hr>126</ns3:hr>
            <ns3:cad>0</ns3:cad>
          </ns3:TrackPointExtension>
        </extensions>
      </trkpt>
      <trkpt lat="38.01925406791269779205322265625" lon="-106.936396099627017974853515625">
        <ele>4185.7998046875</ele>
        <time>2026-05-25T15:40:11.000Z</time>
        <extensions>
          <ns3:TrackPointExtension>
            <ns3:hr>126</ns3:hr>
            <ns3:cad>0</ns3:cad>
          </ns3:TrackPointExtension>
        </extensions>
      </trkpt>
      <trkpt lat="38.01925423555076122283935546875" lon="-106.93640741519629955291748046875">
        <ele>4186.2001953125</ele>
        <time>2026-05-25T15:40:15.000Z</time>
        <extensions>
          <ns3:TrackPointExtension>
            <ns3:hr>126</ns3:hr>
            <ns3:cad>0</ns3:cad>
          </ns3:TrackPointExtension>
        </extensions>
      </trkpt>
      <trkpt lat="38.01925775595009326934814453125" lon="-106.936429627239704132080078125">
        <ele>4186.60009765625</ele>
        <time>2026-05-25T15:40:20.000Z</time>
        <extensions>
          <ns3:TrackPointExtension>
            <ns3:hr>129</ns3:hr>
            <ns3:cad>0</ns3:cad>
          </ns3:TrackPointExtension>
        </extensions>
      </trkpt>
      <trkpt lat="38.0192601867020130157470703125" lon="-106.93644412793219089508056640625">
        <ele>4187</ele>
        <time>2026-05-25T15:40:22.000Z</time>
        <extensions>
          <ns3:TrackPointExtension>
            <ns3:hr>130</ns3:hr>
            <ns3:cad>0</ns3:cad>
          </ns3:TrackPointExtension>
        </extensions>
      </trkpt>
      <trkpt lat="38.01927116699516773223876953125" lon="-106.9364613108336925506591796875">
        <ele>4188</ele>
        <time>2026-05-25T15:40:28.000Z</time>
        <extensions>
          <ns3:TrackPointExtension>
            <ns3:hr>131</ns3:hr>
            <ns3:cad>0</ns3:cad>
          </ns3:TrackPointExtension>
        </extensions>
      </trkpt>
      <trkpt lat="38.01926915533840656280517578125" lon="-106.93646240048110485076904296875">
        <ele>4188.2001953125</ele>
        <time>2026-05-25T15:40:29.000Z</time>
        <extensions>
          <ns3:TrackPointExtension>
            <ns3:hr>132</ns3:hr>
            <ns3:cad>0</ns3:cad>
          </ns3:TrackPointExtension>
        </extensions>
      </trkpt>
      <trkpt lat="38.0192668922245502471923828125" lon="-106.93648620508611202239990234375">
        <ele>4189.2001953125</ele>
        <time>2026-05-25T15:40:33.000Z</time>
        <extensions>
          <ns3:TrackPointExtension>
            <ns3:hr>126</ns3:hr>
            <ns3:cad>0</ns3:cad>
          </ns3:TrackPointExtension>
        </extensions>
      </trkpt>
      <trkpt lat="38.01926680840551853179931640625" lon="-106.9364909827709197998046875">
        <ele>4189.60009765625</ele>
        <time>2026-05-25T15:40:34.000Z</time>
        <extensions>
          <ns3:TrackPointExtension>
            <ns3:hr>119</ns3:hr>
            <ns3:cad>0</ns3:cad>
          </ns3:TrackPointExtension>
        </extensions>
      </trkpt>
      <trkpt lat="38.01926529966294765472412109375" lon="-106.9364978559315204620361328125">
        <ele>4189.7998046875</ele>
        <time>2026-05-25T15:40:35.000Z</time>
        <extensions>
          <ns3:TrackPointExtension>
            <ns3:hr>115</ns3:hr>
            <ns3:cad>0</ns3:cad>
          </ns3:TrackPointExtension>
        </extensions>
      </trkpt>
      <trkpt lat="38.019267730414867401123046875" lon="-106.9365414418280124664306640625">
        <ele>4190.2001953125</ele>
        <time>2026-05-25T15:40:41.000Z</time>
        <extensions>
          <ns3:TrackPointExtension>
            <ns3:hr>115</ns3:hr>
            <ns3:cad>0</ns3:cad>
          </ns3:TrackPointExtension>
        </extensions>
      </trkpt>
      <trkpt lat="38.01926982589066028594970703125" lon="-106.93654303438961505889892578125">
        <ele>4190.2001953125</ele>
        <time>2026-05-25T15:40:42.000Z</time>
        <extensions>
          <ns3:TrackPointExtension>
            <ns3:hr>115</ns3:hr>
            <ns3:cad>0</ns3:cad>
          </ns3:TrackPointExtension>
        </extensions>
      </trkpt>
      <trkpt lat="38.019264042377471923828125" lon="-106.93657488562166690826416015625">
        <ele>4190.60009765625</ele>
        <time>2026-05-25T15:40:48.000Z</time>
        <extensions>
          <ns3:TrackPointExtension>
            <ns3:hr>115</ns3:hr>
            <ns3:cad>0</ns3:cad>
          </ns3:TrackPointExtension>
        </extensions>
      </trkpt>
      <trkpt lat="38.0192568339407444000244140625" lon="-106.93657748401165008544921875">
        <ele>4191.39990234375</ele>
        <time>2026-05-25T15:40:52.000Z</time>
        <extensions>
          <ns3:TrackPointExtension>
            <ns3:hr>116</ns3:hr>
            <ns3:cad>0</ns3:cad>
          </ns3:TrackPointExtension>
        </extensions>
      </trkpt>
      <trkpt lat="38.01925792358815670013427734375" lon="-106.93657924421131610870361328125">
        <ele>4191.7998046875</ele>
        <time>2026-05-25T15:40:54.000Z</time>
        <extensions>
          <ns3:TrackPointExtension>
            <ns3:hr>118</ns3:hr>
            <ns3:cad>0</ns3:cad>
          </ns3:TrackPointExtension>
        </extensions>
      </trkpt>
      <trkpt lat="38.01924618892371654510498046875" lon="-106.93658896721899509429931640625">
        <ele>4192.60009765625</ele>
        <time>2026-05-25T15:40:57.000Z</time>
        <extensions>
          <ns3:TrackPointExtension>
            <ns3:hr>119</ns3:hr>
            <ns3:cad>0</ns3:cad>
          </ns3:TrackPointExtension>
        </extensions>
      </trkpt>
      <trkpt lat="38.0192437581717967987060546875" lon="-106.9366091676056385040283203125">
        <ele>4192.7998046875</ele>
        <time>2026-05-25T15:41:00.000Z</time>
        <extensions>
          <ns3:TrackPointExtension>
            <ns3:hr>120</ns3:hr>
            <ns3:cad>0</ns3:cad>
          </ns3:TrackPointExtension>
        </extensions>
      </trkpt>
      <trkpt lat="38.01924317143857479095458984375" lon="-106.936613023281097412109375">
        <ele>4193</ele>
        <time>2026-05-25T15:41:03.000Z</time>
        <extensions>
          <ns3:TrackPointExtension>
            <ns3:hr>123</ns3:hr>
            <ns3:cad>0</ns3:cad>
          </ns3:TrackPointExtension>
        </extensions>
      </trkpt>
      <trkpt lat="38.0192414112389087677001953125" lon="-106.93662048317492008209228515625">
        <ele>4193</ele>
        <time>2026-05-25T15:41:05.000Z</time>
        <extensions>
          <ns3:TrackPointExtension>
            <ns3:hr>125</ns3:hr>
            <ns3:cad>0</ns3:cad>
          </ns3:TrackPointExtension>
        </extensions>
      </trkpt>
      <trkpt lat="38.019242249429225921630859375" lon="-106.9366276077926158905029296875">
        <ele>4193.7998046875</ele>
        <time>2026-05-25T15:41:08.000Z</time>
        <extensions>
          <ns3:TrackPointExtension>
            <ns3:hr>127</ns3:hr>
            <ns3:cad>0</ns3:cad>
          </ns3:TrackPointExtension>
        </extensions>
      </trkpt>
      <trkpt lat="38.01924099214375019073486328125" lon="-106.9366292841732501983642578125">
        <ele>4194.39990234375</ele>
        <time>2026-05-25T15:41:10.000Z</time>
        <extensions>
          <ns3:TrackPointExtension>
            <ns3:hr>123</ns3:hr>
            <ns3:cad>0</ns3:cad>
          </ns3:TrackPointExtension>
        </extensions>
      </trkpt>
      <trkpt lat="38.0192400701344013214111328125" lon="-106.93666725419461727142333984375">
        <ele>4195</ele>
        <time>2026-05-25T15:41:16.000Z</time>
        <extensions>
          <ns3:TrackPointExtension>
            <ns3:hr>122</ns3:hr>
            <ns3:cad>0</ns3:cad>
          </ns3:TrackPointExtension>
        </extensions>
      </trkpt>
      <trkpt lat="38.01923965103924274444580078125" lon="-106.9366775639355182647705078125">
        <ele>4195.2001953125</ele>
        <time>2026-05-25T15:41:17.000Z</time>
        <extensions>
          <ns3:TrackPointExtension>
            <ns3:hr>123</ns3:hr>
            <ns3:cad>0</ns3:cad>
          </ns3:TrackPointExtension>
        </extensions>
      </trkpt>
      <trkpt lat="38.01924132741987705230712890625" lon="-106.9366775639355182647705078125">
        <ele>4195.39990234375</ele>
        <time>2026-05-25T15:41:21.000Z</time>
        <extensions>
          <ns3:TrackPointExtension>
            <ns3:hr>126</ns3:hr>
            <ns3:cad>0</ns3:cad>
          </ns3:TrackPointExtension>
        </extensions>
      </trkpt>
      <trkpt lat="38.01924199797213077545166015625" lon="-106.93668770603835582733154296875">
        <ele>4195.39990234375</ele>
        <time>2026-05-25T15:41:23.000Z</time>
        <extensions>
          <ns3:TrackPointExtension>
            <ns3:hr>126</ns3:hr>
            <ns3:cad>0</ns3:cad>
          </ns3:TrackPointExtension>
        </extensions>
      </trkpt>
      <trkpt lat="38.01922791637480258941650390625" lon="-106.93670614622533321380615234375">
        <ele>4195.7998046875</ele>
        <time>2026-05-25T15:41:28.000Z</time>
        <extensions>
          <ns3:TrackPointExtension>
            <ns3:hr>126</ns3:hr>
            <ns3:cad>0</ns3:cad>
          </ns3:TrackPointExtension>
        </extensions>
      </trkpt>
      <trkpt lat="38.019226826727390289306640625" lon="-106.936710588634014129638671875">
        <ele>4196</ele>
        <time>2026-05-25T15:41:29.000Z</time>
        <extensions>
          <ns3:TrackPointExtension>
            <ns3:hr>127</ns3:hr>
            <ns3:cad>0</ns3:cad>
          </ns3:TrackPointExtension>
        </extensions>
      </trkpt>
      <trkpt lat="38.0192202888429164886474609375" lon="-106.93673280067741870880126953125">
        <ele>4197</ele>
        <time>2026-05-25T15:41:33.000Z</time>
        <extensions>
          <ns3:TrackPointExtension>
            <ns3:hr>128</ns3:hr>
            <ns3:cad>0</ns3:cad>
          </ns3:TrackPointExtension>
        </extensions>
      </trkpt>
      <trkpt lat="38.01921844482421875" lon="-106.93673816509544849395751953125">
        <ele>4197.2001953125</ele>
        <time>2026-05-25T15:41:34.000Z</time>
        <extensions>
          <ns3:TrackPointExtension>
            <ns3:hr>128</ns3:hr>
            <ns3:cad>0</ns3:cad>
          </ns3:TrackPointExtension>
        </extensions>
      </trkpt>
      <trkpt lat="38.019217438995838165283203125" lon="-106.93675945512950420379638671875">
        <ele>4198.2001953125</ele>
        <time>2026-05-25T15:41:39.000Z</time>
        <extensions>
          <ns3:TrackPointExtension>
            <ns3:hr>128</ns3:hr>
            <ns3:cad>0</ns3:cad>
          </ns3:TrackPointExtension>
        </extensions>
      </trkpt>
      <trkpt lat="38.0192172713577747344970703125" lon="-106.93675928749144077301025390625">
        <ele>4198.60009765625</ele>
        <time>2026-05-25T15:41:40.000Z</time>
        <extensions>
          <ns3:TrackPointExtension>
            <ns3:hr>127</ns3:hr>
            <ns3:cad>0</ns3:cad>
          </ns3:TrackPointExtension>
        </extensions>
      </trkpt>
      <trkpt lat="38.019220121204853057861328125" lon="-106.9367838464677333831787109375">
        <ele>4199.60009765625</ele>
        <time>2026-05-25T15:41:43.000Z</time>
        <extensions>
          <ns3:TrackPointExtension>
            <ns3:hr>127</ns3:hr>
            <ns3:cad>62</ns3:cad>
          </ns3:TrackPointExtension>
        </extensions>
      </trkpt>
      <trkpt lat="38.01921869628131389617919921875" lon="-106.93678711540997028350830078125">
        <ele>4200</ele>
        <time>2026-05-25T15:41:46.000Z</time>
        <extensions>
          <ns3:TrackPointExtension>
            <ns3:hr>126</ns3:hr>
            <ns3:cad>0</ns3:cad>
          </ns3:TrackPointExtension>
        </extensions>
      </trkpt>
      <trkpt lat="38.0192186124622821807861328125" lon="-106.936787031590938568115234375">
        <ele>4200</ele>
        <time>2026-05-25T15:41:52.000Z</time>
        <extensions>
          <ns3:TrackPointExtension>
            <ns3:hr>125</ns3:hr>
            <ns3:cad>0</ns3:cad>
          </ns3:TrackPointExtension>
        </extensions>
      </trkpt>
      <trkpt lat="38.0192186124622821807861328125" lon="-106.936787031590938568115234375">
        <ele>4200</ele>
        <time>2026-05-25T15:41:58.000Z</time>
        <extensions>
          <ns3:TrackPointExtension>
            <ns3:hr>126</ns3:hr>
            <ns3:cad>0</ns3:cad>
          </ns3:TrackPointExtension>
        </extensions>
      </trkpt>
      <trkpt lat="38.0192186124622821807861328125" lon="-106.936787031590938568115234375">
        <ele>4199.39990234375</ele>
        <time>2026-05-25T15:42:04.000Z</time>
        <extensions>
          <ns3:TrackPointExtension>
            <ns3:hr>126</ns3:hr>
            <ns3:cad>0</ns3:cad>
          </ns3:TrackPointExtension>
        </extensions>
      </trkpt>
      <trkpt lat="38.0192186124622821807861328125" lon="-106.936787031590938568115234375">
        <ele>4200</ele>
        <time>2026-05-25T15:42:10.000Z</time>
        <extensions>
          <ns3:TrackPointExtension>
            <ns3:hr>125</ns3:hr>
            <ns3:cad>0</ns3:cad>
          </ns3:TrackPointExtension>
        </extensions>
      </trkpt>
      <trkpt lat="38.01922271959483623504638671875" lon="-106.9367818348109722137451171875">
        <ele>4199</ele>
        <time>2026-05-25T15:42:16.000Z</time>
        <extensions>
          <ns3:TrackPointExtension>
            <ns3:hr>124</ns3:hr>
            <ns3:cad>0</ns3:cad>
          </ns3:TrackPointExtension>
        </extensions>
      </trkpt>
      <trkpt lat="38.0192223004996776580810546875" lon="-106.93678007461130619049072265625">
        <ele>4199</ele>
        <time>2026-05-25T15:42:18.000Z</time>
        <extensions>
          <ns3:TrackPointExtension>
            <ns3:hr>123</ns3:hr>
            <ns3:cad>0</ns3:cad>
          </ns3:TrackPointExtension>
        </extensions>
      </trkpt>
      <trkpt lat="38.01922221668064594268798828125" lon="-106.936786361038684844970703125">
        <ele>4198.7998046875</ele>
        <time>2026-05-25T15:42:24.000Z</time>
        <extensions>
          <ns3:TrackPointExtension>
            <ns3:hr>123</ns3:hr>
            <ns3:cad>0</ns3:cad>
          </ns3:TrackPointExtension>
        </extensions>
      </trkpt>
      <trkpt lat="38.0192186124622821807861328125" lon="-106.936787031590938568115234375">
        <ele>4198.60009765625</ele>
        <time>2026-05-25T15:42:28.000Z</time>
        <extensions>
          <ns3:TrackPointExtension>
            <ns3:hr>120</ns3:hr>
            <ns3:cad>0</ns3:cad>
          </ns3:TrackPointExtension>
        </extensions>
      </trkpt>
      <trkpt lat="38.0192186124622821807861328125" lon="-106.936787031590938568115234375">
        <ele>4198.39990234375</ele>
        <time>2026-05-25T15:42:30.000Z</time>
        <extensions>
          <ns3:TrackPointExtension>
            <ns3:hr>118</ns3:hr>
            <ns3:cad>0</ns3:cad>
          </ns3:TrackPointExtension>
        </extensions>
      </trkpt>
      <trkpt lat="38.0192186124622821807861328125" lon="-106.936787031590938568115234375">
        <ele>4198.2001953125</ele>
        <time>2026-05-25T15:42:33.000Z</time>
        <extensions>
          <ns3:TrackPointExtension>
            <ns3:hr>115</ns3:hr>
            <ns3:cad>0</ns3:cad>
          </ns3:TrackPointExtension>
        </extensions>
      </trkpt>
      <trkpt lat="38.0192186124622821807861328125" lon="-106.936787031590938568115234375">
        <ele>4198.2001953125</ele>
        <time>2026-05-25T15:42:34.000Z</time>
        <extensions>
          <ns3:TrackPointExtension>
            <ns3:hr>114</ns3:hr>
            <ns3:cad>0</ns3:cad>
          </ns3:TrackPointExtension>
        </extensions>
      </trkpt>
      <trkpt lat="38.0192186124622821807861328125" lon="-106.936787031590938568115234375">
        <ele>4198.7998046875</ele>
        <time>2026-05-25T15:42:40.000Z</time>
        <extensions>
          <ns3:TrackPointExtension>
            <ns3:hr>111</ns3:hr>
            <ns3:cad>0</ns3:cad>
          </ns3:TrackPointExtension>
        </extensions>
      </trkpt>
      <trkpt lat="38.0192186124622821807861328125" lon="-106.936787031590938568115234375">
        <ele>4199</ele>
        <time>2026-05-25T15:42:42.000Z</time>
        <extensions>
          <ns3:TrackPointExtension>
            <ns3:hr>108</ns3:hr>
            <ns3:cad>0</ns3:cad>
          </ns3:TrackPointExtension>
        </extensions>
      </trkpt>
      <trkpt lat="38.0192186124622821807861328125" lon="-106.936787031590938568115234375">
        <ele>4199</ele>
        <time>2026-05-25T15:42:43.000Z</time>
        <extensions>
          <ns3:TrackPointExtension>
            <ns3:hr>105</ns3:hr>
            <ns3:cad>0</ns3:cad>
          </ns3:TrackPointExtension>
        </extensions>
      </trkpt>
      <trkpt lat="38.0192186124622821807861328125" lon="-106.936787031590938568115234375">
        <ele>4199</ele>
        <time>2026-05-25T15:42:46.000Z</time>
        <extensions>
          <ns3:TrackPointExtension>
            <ns3:hr>102</ns3:hr>
            <ns3:cad>0</ns3:cad>
          </ns3:TrackPointExtension>
        </extensions>
      </trkpt>
      <trkpt lat="38.0192186124622821807861328125" lon="-106.936787031590938568115234375">
        <ele>4199</ele>
        <time>2026-05-25T15:42:50.000Z</time>
        <extensions>
          <ns3:TrackPointExtension>
            <ns3:hr>102</ns3:hr>
            <ns3:cad>0</ns3:cad>
          </ns3:TrackPointExtension>
        </extensions>
      </trkpt>
      <trkpt lat="38.0192186124622821807861328125" lon="-106.936787031590938568115234375">
        <ele>4199.2001953125</ele>
        <time>2026-05-25T15:42:53.000Z</time>
        <extensions>
          <ns3:TrackPointExtension>
            <ns3:hr>105</ns3:hr>
            <ns3:cad>0</ns3:cad>
          </ns3:TrackPointExtension>
        </extensions>
      </trkpt>
      <trkpt lat="38.0192186124622821807861328125" lon="-106.936787031590938568115234375">
        <ele>4198.60009765625</ele>
        <time>2026-05-25T15:42:59.000Z</time>
        <extensions>
          <ns3:TrackPointExtension>
            <ns3:hr>107</ns3:hr>
            <ns3:cad>0</ns3:cad>
          </ns3:TrackPointExtension>
        </extensions>
      </trkpt>
      <trkpt lat="38.0192186124622821807861328125" lon="-106.936787031590938568115234375">
        <ele>4198.39990234375</ele>
        <time>2026-05-25T15:43:05.000Z</time>
        <extensions>
          <ns3:TrackPointExtension>
            <ns3:hr>107</ns3:hr>
            <ns3:cad>0</ns3:cad>
          </ns3:TrackPointExtension>
        </extensions>
      </trkpt>
      <trkpt lat="38.0192186124622821807861328125" lon="-106.936787031590938568115234375">
        <ele>4199</ele>
        <time>2026-05-25T15:43:08.000Z</time>
        <extensions>
          <ns3:TrackPointExtension>
            <ns3:hr>103</ns3:hr>
            <ns3:cad>0</ns3:cad>
          </ns3:TrackPointExtension>
        </extensions>
      </trkpt>
      <trkpt lat="38.0192186124622821807861328125" lon="-106.936787031590938568115234375">
        <ele>4199</ele>
        <time>2026-05-25T15:43:10.000Z</time>
        <extensions>
          <ns3:TrackPointExtension>
            <ns3:hr>99</ns3:hr>
            <ns3:cad>0</ns3:cad>
          </ns3:TrackPointExtension>
        </extensions>
      </trkpt>
      <trkpt lat="38.0192186124622821807861328125" lon="-106.936787031590938568115234375">
        <ele>4199</ele>
        <time>2026-05-25T15:43:13.000Z</time>
        <extensions>
          <ns3:TrackPointExtension>
            <ns3:hr>97</ns3:hr>
            <ns3:cad>0</ns3:cad>
          </ns3:TrackPointExtension>
        </extensions>
      </trkpt>
      <trkpt lat="38.0192186124622821807861328125" lon="-106.936787031590938568115234375">
        <ele>4198.60009765625</ele>
        <time>2026-05-25T15:43:16.000Z</time>
        <extensions>
          <ns3:TrackPointExtension>
            <ns3:hr>94</ns3:hr>
            <ns3:cad>0</ns3:cad>
          </ns3:TrackPointExtension>
        </extensions>
      </trkpt>
      <trkpt lat="38.0192186124622821807861328125" lon="-106.936787031590938568115234375">
        <ele>4199</ele>
        <time>2026-05-25T15:43:22.000Z</time>
        <extensions>
          <ns3:TrackPointExtension>
            <ns3:hr>95</ns3:hr>
            <ns3:cad>0</ns3:cad>
          </ns3:TrackPointExtension>
        </extensions>
      </trkpt>
      <trkpt lat="38.0192186124622821807861328125" lon="-106.936787031590938568115234375">
        <ele>4198.7998046875</ele>
        <time>2026-05-25T15:43:25.000Z</time>
        <extensions>
          <ns3:TrackPointExtension>
            <ns3:hr>106</ns3:hr>
            <ns3:cad>0</ns3:cad>
          </ns3:TrackPointExtension>
        </extensions>
      </trkpt>
      <trkpt lat="38.0192186124622821807861328125" lon="-106.936787031590938568115234375">
        <ele>4198.7998046875</ele>
        <time>2026-05-25T15:43:26.000Z</time>
        <extensions>
          <ns3:TrackPointExtension>
            <ns3:hr>106</ns3:hr>
            <ns3:cad>0</ns3:cad>
          </ns3:TrackPointExtension>
        </extensions>
      </trkpt>
      <trkpt lat="38.0192186124622821807861328125" lon="-106.936787031590938568115234375">
        <ele>4199</ele>
        <time>2026-05-25T15:43:32.000Z</time>
        <extensions>
          <ns3:TrackPointExtension>
            <ns3:hr>105</ns3:hr>
            <ns3:cad>0</ns3:cad>
          </ns3:TrackPointExtension>
        </extensions>
      </trkpt>
      <trkpt lat="38.0192186124622821807861328125" lon="-106.936787031590938568115234375">
        <ele>4199.39990234375</ele>
        <time>2026-05-25T15:43:38.000Z</time>
        <extensions>
          <ns3:TrackPointExtension>
            <ns3:cad>0</ns3:cad>
          </ns3:TrackPointExtension>
        </extensions>
      </trkpt>
      <trkpt lat="38.0192186124622821807861328125" lon="-106.936787031590938568115234375">
        <ele>4199.39990234375</ele>
        <time>2026-05-25T15:43:44.000Z</time>
        <extensions>
          <ns3:TrackPointExtension>
            <ns3:hr>105</ns3:hr>
            <ns3:cad>0</ns3:cad>
          </ns3:TrackPointExtension>
        </extensions>
      </trkpt>
      <trkpt lat="38.0192186124622821807861328125" lon="-106.936787031590938568115234375">
        <ele>4199.39990234375</ele>
        <time>2026-05-25T15:43:45.000Z</time>
        <extensions>
          <ns3:TrackPointExtension>
            <ns3:cad>0</ns3:cad>
          </ns3:TrackPointExtension>
        </extensions>
      </trkpt>
      <trkpt lat="38.0192186124622821807861328125" lon="-106.936787031590938568115234375">
        <ele>4199.39990234375</ele>
        <time>2026-05-25T15:43:51.000Z</time>
        <extensions>
          <ns3:TrackPointExtension>
            <ns3:hr>106</ns3:hr>
            <ns3:cad>0</ns3:cad>
          </ns3:TrackPointExtension>
        </extensions>
      </trkpt>
      <trkpt lat="38.01921064965426921844482421875" lon="-106.936772279441356658935546875">
        <ele>4199.39990234375</ele>
        <time>2026-05-25T15:43:57.000Z</time>
        <extensions>
          <ns3:TrackPointExtension>
            <ns3:hr>105</ns3:hr>
            <ns3:cad>0</ns3:cad>
          </ns3:TrackPointExtension>
        </extensions>
      </trkpt>
      <trkpt lat="38.01920570433139801025390625" lon="-106.93677353672683238983154296875">
        <ele>4199.60009765625</ele>
        <time>2026-05-25T15:44:03.000Z</time>
        <extensions>
          <ns3:TrackPointExtension>
            <ns3:hr>105</ns3:hr>
            <ns3:cad>0</ns3:cad>
          </ns3:TrackPointExtension>
        </extensions>
      </trkpt>
      <trkpt lat="38.01921081729233264923095703125" lon="-106.93677269853651523590087890625">
        <ele>4199.39990234375</ele>
        <time>2026-05-25T15:44:04.000Z</time>
        <extensions>
          <ns3:TrackPointExtension>
            <ns3:hr>105</ns3:hr>
            <ns3:cad>0</ns3:cad>
          </ns3:TrackPointExtension>
        </extensions>
      </trkpt>
      <trkpt lat="38.01921081729233264923095703125" lon="-106.93677269853651523590087890625">
        <ele>4199.39990234375</ele>
        <time>2026-05-25T15:44:10.000Z</time>
        <extensions>
          <ns3:TrackPointExtension>
            <ns3:hr>106</ns3:hr>
            <ns3:cad>0</ns3:cad>
          </ns3:TrackPointExtension>
        </extensions>
      </trkpt>
      <trkpt lat="38.0192144215106964111328125" lon="-106.9367779791355133056640625">
        <ele>4199.7998046875</ele>
        <time>2026-05-25T15:44:12.000Z</time>
        <extensions>
          <ns3:TrackPointExtension>
            <ns3:hr>106</ns3:hr>
            <ns3:cad>0</ns3:cad>
          </ns3:TrackPointExtension>
        </extensions>
      </trkpt>
      <trkpt lat="38.01921081729233264923095703125" lon="-106.93677269853651523590087890625">
        <ele>4200</ele>
        <time>2026-05-25T15:44:18.000Z</time>
        <extensions>
          <ns3:TrackPointExtension>
            <ns3:hr>105</ns3:hr>
            <ns3:cad>0</ns3:cad>
          </ns3:TrackPointExtension>
        </extensions>
      </trkpt>
      <trkpt lat="38.01921081729233264923095703125" lon="-106.93677269853651523590087890625">
        <ele>4200</ele>
        <time>2026-05-25T15:44:20.000Z</time>
        <extensions>
          <ns3:TrackPointExtension>
            <ns3:hr>105</ns3:hr>
            <ns3:cad>0</ns3:cad>
          </ns3:TrackPointExtension>
        </extensions>
      </trkpt>
      <trkpt lat="38.01921081729233264923095703125" lon="-106.93677269853651523590087890625">
        <ele>4199.7998046875</ele>
        <time>2026-05-25T15:44:26.000Z</time>
        <extensions>
          <ns3:TrackPointExtension>
            <ns3:hr>107</ns3:hr>
            <ns3:cad>0</ns3:cad>
          </ns3:TrackPointExtension>
        </extensions>
      </trkpt>
      <trkpt lat="38.01921081729233264923095703125" lon="-106.93677269853651523590087890625">
        <ele>4200</ele>
        <time>2026-05-25T15:44:32.000Z</time>
        <extensions>
          <ns3:TrackPointExtension>
            <ns3:hr>107</ns3:hr>
            <ns3:cad>0</ns3:cad>
          </ns3:TrackPointExtension>
        </extensions>
      </trkpt>
      <trkpt lat="38.01921081729233264923095703125" lon="-106.93677269853651523590087890625">
        <ele>4200.2001953125</ele>
        <time>2026-05-25T15:44:38.000Z</time>
        <extensions>
          <ns3:TrackPointExtension>
            <ns3:hr>106</ns3:hr>
            <ns3:cad>0</ns3:cad>
          </ns3:TrackPointExtension>
        </extensions>
      </trkpt>
      <trkpt lat="38.01921081729233264923095703125" lon="-106.93677269853651523590087890625">
        <ele>4200.39990234375</ele>
        <time>2026-05-25T15:44:44.000Z</time>
        <extensions>
          <ns3:TrackPointExtension>
            <ns3:hr>106</ns3:hr>
            <ns3:cad>0</ns3:cad>
          </ns3:TrackPointExtension>
        </extensions>
      </trkpt>
      <trkpt lat="38.01921081729233264923095703125" lon="-106.93677269853651523590087890625">
        <ele>4200.39990234375</ele>
        <time>2026-05-25T15:44:49.000Z</time>
        <extensions>
          <ns3:TrackPointExtension>
            <ns3:hr>105</ns3:hr>
            <ns3:cad>0</ns3:cad>
          </ns3:TrackPointExtension>
        </extensions>
      </trkpt>
      <trkpt lat="38.01921081729233264923095703125" lon="-106.93677269853651523590087890625">
        <ele>4200.60009765625</ele>
        <time>2026-05-25T15:44:53.000Z</time>
        <extensions>
          <ns3:TrackPointExtension>
            <ns3:hr>108</ns3:hr>
            <ns3:cad>0</ns3:cad>
          </ns3:TrackPointExtension>
        </extensions>
      </trkpt>
      <trkpt lat="38.01921081729233264923095703125" lon="-106.93677269853651523590087890625">
        <ele>4200.7998046875</ele>
        <time>2026-05-25T15:44:55.000Z</time>
        <extensions>
          <ns3:TrackPointExtension>
            <ns3:hr>114</ns3:hr>
            <ns3:cad>0</ns3:cad>
          </ns3:TrackPointExtension>
        </extensions>
      </trkpt>
      <trkpt lat="38.01921081729233264923095703125" lon="-106.93677269853651523590087890625">
        <ele>4200.7998046875</ele>
        <time>2026-05-25T15:44:56.000Z</time>
        <extensions>
          <ns3:TrackPointExtension>
            <ns3:hr>114</ns3:hr>
            <ns3:cad>0</ns3:cad>
          </ns3:TrackPointExtension>
        </extensions>
      </trkpt>
      <trkpt lat="38.01921081729233264923095703125" lon="-106.93677269853651523590087890625">
        <ele>4200.60009765625</ele>
        <time>2026-05-25T15:44:58.000Z</time>
        <extensions>
          <ns3:TrackPointExtension>
            <ns3:hr>114</ns3:hr>
            <ns3:cad>0</ns3:cad>
          </ns3:TrackPointExtension>
        </extensions>
      </trkpt>
      <trkpt lat="38.01921081729233264923095703125" lon="-106.93677269853651523590087890625">
        <ele>4200.39990234375</ele>
        <time>2026-05-25T15:45:02.000Z</time>
        <extensions>
          <ns3:TrackPointExtension>
            <ns3:hr>108</ns3:hr>
            <ns3:cad>0</ns3:cad>
          </ns3:TrackPointExtension>
        </extensions>
      </trkpt>
      <trkpt lat="38.01921081729233264923095703125" lon="-106.93677269853651523590087890625">
        <ele>4200.60009765625</ele>
        <time>2026-05-25T15:45:04.000Z</time>
        <extensions>
          <ns3:TrackPointExtension>
            <ns3:hr>101</ns3:hr>
            <ns3:cad>0</ns3:cad>
          </ns3:TrackPointExtension>
        </extensions>
      </trkpt>
      <trkpt lat="38.01921081729233264923095703125" lon="-106.93677269853651523590087890625">
        <ele>4200.60009765625</ele>
        <time>2026-05-25T15:45:05.000Z</time>
        <extensions>
          <ns3:TrackPointExtension>
            <ns3:hr>97</ns3:hr>
            <ns3:cad>0</ns3:cad>
          </ns3:TrackPointExtension>
        </extensions>
      </trkpt>
      <trkpt lat="38.01921081729233264923095703125" lon="-106.93677269853651523590087890625">
        <ele>4201</ele>
        <time>2026-05-25T15:45:10.000Z</time>
        <extensions>
          <ns3:TrackPointExtension>
            <ns3:hr>94</ns3:hr>
            <ns3:cad>0</ns3:cad>
          </ns3:TrackPointExtension>
        </extensions>
      </trkpt>
      <trkpt lat="38.01921081729233264923095703125" lon="-106.93677269853651523590087890625">
        <ele>4200.60009765625</ele>
        <time>2026-05-25T15:45:16.000Z</time>
        <extensions>
          <ns3:TrackPointExtension>
            <ns3:hr>94</ns3:hr>
            <ns3:cad>0</ns3:cad>
          </ns3:TrackPointExtension>
        </extensions>
      </trkpt>
      <trkpt lat="38.01921081729233264923095703125" lon="-106.93677269853651523590087890625">
        <ele>4200.2001953125</ele>
        <time>2026-05-25T15:45:21.000Z</time>
        <extensions>
          <ns3:TrackPointExtension>
            <ns3:hr>93</ns3:hr>
            <ns3:cad>0</ns3:cad>
          </ns3:TrackPointExtension>
        </extensions>
      </trkpt>
      <trkpt lat="38.01921081729233264923095703125" lon="-106.93677269853651523590087890625">
        <ele>4200.7998046875</ele>
        <time>2026-05-25T15:45:27.000Z</time>
        <extensions>
          <ns3:TrackPointExtension>
            <ns3:hr>91</ns3:hr>
            <ns3:cad>0</ns3:cad>
          </ns3:TrackPointExtension>
        </extensions>
      </trkpt>
      <trkpt lat="38.01921081729233264923095703125" lon="-106.93677269853651523590087890625">
        <ele>4200.39990234375</ele>
        <time>2026-05-25T15:45:33.000Z</time>
        <extensions>
          <ns3:TrackPointExtension>
            <ns3:hr>90</ns3:hr>
            <ns3:cad>0</ns3:cad>
          </ns3:TrackPointExtension>
        </extensions>
      </trkpt>
      <trkpt lat="38.01921081729233264923095703125" lon="-106.93677269853651523590087890625">
        <ele>4200.2001953125</ele>
        <time>2026-05-25T15:45:37.000Z</time>
        <extensions>
          <ns3:TrackPointExtension>
            <ns3:hr>90</ns3:hr>
            <ns3:cad>0</ns3:cad>
          </ns3:TrackPointExtension>
        </extensions>
      </trkpt>
      <trkpt lat="38.01921081729233264923095703125" lon="-106.93677269853651523590087890625">
        <ele>4200.7998046875</ele>
        <time>2026-05-25T15:45:43.000Z</time>
        <extensions>
          <ns3:TrackPointExtension>
            <ns3:hr>93</ns3:hr>
            <ns3:cad>0</ns3:cad>
          </ns3:TrackPointExtension>
        </extensions>
      </trkpt>
      <trkpt lat="38.01921081729233264923095703125" lon="-106.93677269853651523590087890625">
        <ele>4200.7998046875</ele>
        <time>2026-05-25T15:45:45.000Z</time>
        <extensions>
          <ns3:TrackPointExtension>
            <ns3:hr>97</ns3:hr>
            <ns3:cad>0</ns3:cad>
          </ns3:TrackPointExtension>
        </extensions>
      </trkpt>
      <trkpt lat="38.01921081729233264923095703125" lon="-106.93677269853651523590087890625">
        <ele>4201</ele>
        <time>2026-05-25T15:45:47.000Z</time>
        <extensions>
          <ns3:TrackPointExtension>
            <ns3:hr>100</ns3:hr>
            <ns3:cad>0</ns3:cad>
          </ns3:TrackPointExtension>
        </extensions>
      </trkpt>
      <trkpt lat="38.01921081729233264923095703125" lon="-106.93677269853651523590087890625">
        <ele>4201.2001953125</ele>
        <time>2026-05-25T15:45:48.000Z</time>
        <extensions>
          <ns3:TrackPointExtension>
            <ns3:hr>100</ns3:hr>
            <ns3:cad>0</ns3:cad>
          </ns3:TrackPointExtension>
        </extensions>
      </trkpt>
      <trkpt lat="38.01921081729233264923095703125" lon="-106.93677269853651523590087890625">
        <ele>4201.60009765625</ele>
        <time>2026-05-25T15:45:50.000Z</time>
        <extensions>
          <ns3:TrackPointExtension>
            <ns3:hr>100</ns3:hr>
            <ns3:cad>0</ns3:cad>
          </ns3:TrackPointExtension>
        </extensions>
      </trkpt>
      <trkpt lat="38.01921081729233264923095703125" lon="-106.93677269853651523590087890625">
        <ele>4202</ele>
        <time>2026-05-25T15:45:56.000Z</time>
        <extensions>
          <ns3:TrackPointExtension>
            <ns3:hr>100</ns3:hr>
            <ns3:cad>0</ns3:cad>
          </ns3:TrackPointExtension>
        </extensions>
      </trkpt>
      <trkpt lat="38.01921081729233264923095703125" lon="-106.93677269853651523590087890625">
        <ele>4201.60009765625</ele>
        <time>2026-05-25T15:45:58.000Z</time>
        <extensions>
          <ns3:TrackPointExtension>
            <ns3:hr>100</ns3:hr>
            <ns3:cad>0</ns3:cad>
          </ns3:TrackPointExtension>
        </extensions>
      </trkpt>
      <trkpt lat="38.01921081729233264923095703125" lon="-106.93677269853651523590087890625">
        <ele>4201.7998046875</ele>
        <time>2026-05-25T15:46:02.000Z</time>
        <extensions>
          <ns3:TrackPointExtension>
            <ns3:hr>103</ns3:hr>
            <ns3:cad>0</ns3:cad>
          </ns3:TrackPointExtension>
        </extensions>
      </trkpt>
      <trkpt lat="38.01921081729233264923095703125" lon="-106.93677269853651523590087890625">
        <ele>4202</ele>
        <time>2026-05-25T15:46:08.000Z</time>
        <extensions>
          <ns3:TrackPointExtension>
            <ns3:hr>103</ns3:hr>
            <ns3:cad>0</ns3:cad>
          </ns3:TrackPointExtension>
        </extensions>
      </trkpt>
      <trkpt lat="38.01921081729233264923095703125" lon="-106.93677269853651523590087890625">
        <ele>4202</ele>
        <time>2026-05-25T15:46:12.000Z</time>
        <extensions>
          <ns3:TrackPointExtension>
            <ns3:hr>102</ns3:hr>
            <ns3:cad>0</ns3:cad>
          </ns3:TrackPointExtension>
        </extensions>
      </trkpt>
      <trkpt lat="38.01921081729233264923095703125" lon="-106.93677269853651523590087890625">
        <ele>4202</ele>
        <time>2026-05-25T15:46:18.000Z</time>
        <extensions>
          <ns3:TrackPointExtension>
            <ns3:hr>100</ns3:hr>
            <ns3:cad>0</ns3:cad>
          </ns3:TrackPointExtension>
        </extensions>
      </trkpt>
      <trkpt lat="38.01921081729233264923095703125" lon="-106.93677269853651523590087890625">
        <ele>4202.2001953125</ele>
        <time>2026-05-25T15:46:22.000Z</time>
        <extensions>
          <ns3:TrackPointExtension>
            <ns3:hr>97</ns3:hr>
            <ns3:cad>0</ns3:cad>
          </ns3:TrackPointExtension>
        </extensions>
      </trkpt>
      <trkpt lat="38.01921081729233264923095703125" lon="-106.93677269853651523590087890625">
        <ele>4201.7998046875</ele>
        <time>2026-05-25T15:46:25.000Z</time>
        <extensions>
          <ns3:TrackPointExtension>
            <ns3:hr>95</ns3:hr>
            <ns3:cad>0</ns3:cad>
          </ns3:TrackPointExtension>
        </extensions>
      </trkpt>
      <trkpt lat="38.01922422833740711212158203125" lon="-106.93677186034619808197021484375">
        <ele>4201.39990234375</ele>
        <time>2026-05-25T15:46:30.000Z</time>
        <extensions>
          <ns3:TrackPointExtension>
            <ns3:hr>94</ns3:hr>
            <ns3:cad>0</ns3:cad>
          </ns3:TrackPointExtension>
        </extensions>
      </trkpt>
      <trkpt lat="38.019229508936405181884765625" lon="-106.936771608889102935791015625">
        <ele>4201.39990234375</ele>
        <time>2026-05-25T15:46:36.000Z</time>
        <extensions>
          <ns3:TrackPointExtension>
            <ns3:hr>95</ns3:hr>
            <ns3:cad>0</ns3:cad>
          </ns3:TrackPointExtension>
        </extensions>
      </trkpt>
      <trkpt lat="38.019229508936405181884765625" lon="-106.936771608889102935791015625">
        <ele>4201.2001953125</ele>
        <time>2026-05-25T15:46:42.000Z</time>
        <extensions>
          <ns3:TrackPointExtension>
            <ns3:hr>96</ns3:hr>
            <ns3:cad>0</ns3:cad>
          </ns3:TrackPointExtension>
        </extensions>
      </trkpt>
      <trkpt lat="38.019229508936405181884765625" lon="-106.936771608889102935791015625">
        <ele>4201.2001953125</ele>
        <time>2026-05-25T15:46:43.000Z</time>
        <extensions>
          <ns3:TrackPointExtension>
            <ns3:hr>97</ns3:hr>
            <ns3:cad>0</ns3:cad>
          </ns3:TrackPointExtension>
        </extensions>
      </trkpt>
      <trkpt lat="38.019229508936405181884765625" lon="-106.936771608889102935791015625">
        <ele>4201.39990234375</ele>
        <time>2026-05-25T15:46:49.000Z</time>
        <extensions>
          <ns3:TrackPointExtension>
            <ns3:hr>98</ns3:hr>
            <ns3:cad>0</ns3:cad>
          </ns3:TrackPointExtension>
        </extensions>
      </trkpt>
      <trkpt lat="38.019229508936405181884765625" lon="-106.936771608889102935791015625">
        <ele>4201.39990234375</ele>
        <time>2026-05-25T15:46:52.000Z</time>
        <extensions>
          <ns3:TrackPointExtension>
            <ns3:hr>97</ns3:hr>
            <ns3:cad>0</ns3:cad>
          </ns3:TrackPointExtension>
        </extensions>
      </trkpt>
      <trkpt lat="38.019229508936405181884765625" lon="-106.936771608889102935791015625">
        <ele>4201.60009765625</ele>
        <time>2026-05-25T15:46:58.000Z</time>
        <extensions>
          <ns3:TrackPointExtension>
            <ns3:hr>94</ns3:hr>
            <ns3:cad>0</ns3:cad>
          </ns3:TrackPointExtension>
        </extensions>
      </trkpt>
      <trkpt lat="38.019229508936405181884765625" lon="-106.936771608889102935791015625">
        <ele>4202</ele>
        <time>2026-05-25T15:47:04.000Z</time>
        <extensions>
          <ns3:TrackPointExtension>
            <ns3:hr>93</ns3:hr>
            <ns3:cad>0</ns3:cad>
          </ns3:TrackPointExtension>
        </extensions>
      </trkpt>
      <trkpt lat="38.019229508936405181884765625" lon="-106.936771608889102935791015625">
        <ele>4202</ele>
        <time>2026-05-25T15:47:10.000Z</time>
        <extensions>
          <ns3:TrackPointExtension>
            <ns3:hr>92</ns3:hr>
            <ns3:cad>0</ns3:cad>
          </ns3:TrackPointExtension>
        </extensions>
      </trkpt>
      <trkpt lat="38.019229508936405181884765625" lon="-106.936771608889102935791015625">
        <ele>4202.2001953125</ele>
        <time>2026-05-25T15:47:16.000Z</time>
        <extensions>
          <ns3:TrackPointExtension>
            <ns3:hr>91</ns3:hr>
            <ns3:cad>0</ns3:cad>
          </ns3:TrackPointExtension>
        </extensions>
      </trkpt>
      <trkpt lat="38.019229508936405181884765625" lon="-106.936771608889102935791015625">
        <ele>4202.2001953125</ele>
        <time>2026-05-25T15:47:20.000Z</time>
        <extensions>
          <ns3:TrackPointExtension>
            <ns3:hr>94</ns3:hr>
            <ns3:cad>0</ns3:cad>
          </ns3:TrackPointExtension>
        </extensions>
      </trkpt>
      <trkpt lat="38.019229508936405181884765625" lon="-106.936771608889102935791015625">
        <ele>4202</ele>
        <time>2026-05-25T15:47:26.000Z</time>
        <extensions>
          <ns3:TrackPointExtension>
            <ns3:hr>94</ns3:hr>
            <ns3:cad>0</ns3:cad>
          </ns3:TrackPointExtension>
        </extensions>
      </trkpt>
      <trkpt lat="38.019229508936405181884765625" lon="-106.936771608889102935791015625">
        <ele>4202.2001953125</ele>
        <time>2026-05-25T15:47:27.000Z</time>
        <extensions>
          <ns3:TrackPointExtension>
            <ns3:hr>93</ns3:hr>
            <ns3:cad>0</ns3:cad>
          </ns3:TrackPointExtension>
        </extensions>
      </trkpt>
      <trkpt lat="38.019229508936405181884765625" lon="-106.936771608889102935791015625">
        <ele>4202.39990234375</ele>
        <time>2026-05-25T15:47:33.000Z</time>
        <extensions>
          <ns3:TrackPointExtension>
            <ns3:hr>95</ns3:hr>
            <ns3:cad>0</ns3:cad>
          </ns3:TrackPointExtension>
        </extensions>
      </trkpt>
      <trkpt lat="38.019229508936405181884765625" lon="-106.936771608889102935791015625">
        <ele>4202.60009765625</ele>
        <time>2026-05-25T15:47:39.000Z</time>
        <extensions>
          <ns3:TrackPointExtension>
            <ns3:hr>96</ns3:hr>
            <ns3:cad>0</ns3:cad>
          </ns3:TrackPointExtension>
        </extensions>
      </trkpt>
      <trkpt lat="38.019229508936405181884765625" lon="-106.936771608889102935791015625">
        <ele>4202.7998046875</ele>
        <time>2026-05-25T15:47:43.000Z</time>
        <extensions>
          <ns3:TrackPointExtension>
            <ns3:hr>94</ns3:hr>
            <ns3:cad>0</ns3:cad>
          </ns3:TrackPointExtension>
        </extensions>
      </trkpt>
      <trkpt lat="38.019229508936405181884765625" lon="-106.936771608889102935791015625">
        <ele>4202.7998046875</ele>
        <time>2026-05-25T15:47:44.000Z</time>
        <extensions>
          <ns3:TrackPointExtension>
            <ns3:hr>94</ns3:hr>
            <ns3:cad>0</ns3:cad>
          </ns3:TrackPointExtension>
        </extensions>
      </trkpt>
      <trkpt lat="38.019229508936405181884765625" lon="-106.936771608889102935791015625">
        <ele>4202.7998046875</ele>
        <time>2026-05-25T15:47:50.000Z</time>
        <extensions>
          <ns3:TrackPointExtension>
            <ns3:hr>92</ns3:hr>
            <ns3:cad>0</ns3:cad>
          </ns3:TrackPointExtension>
        </extensions>
      </trkpt>
      <trkpt lat="38.019229508936405181884765625" lon="-106.936771608889102935791015625">
        <ele>4203</ele>
        <time>2026-05-25T15:47:51.000Z</time>
        <extensions>
          <ns3:TrackPointExtension>
            <ns3:hr>91</ns3:hr>
            <ns3:cad>0</ns3:cad>
          </ns3:TrackPointExtension>
        </extensions>
      </trkpt>
      <trkpt lat="38.019229508936405181884765625" lon="-106.936771608889102935791015625">
        <ele>4203.2001953125</ele>
        <time>2026-05-25T15:47:57.000Z</time>
        <extensions>
          <ns3:TrackPointExtension>
            <ns3:hr>89</ns3:hr>
            <ns3:cad>0</ns3:cad>
          </ns3:TrackPointExtension>
        </extensions>
      </trkpt>
      <trkpt lat="38.0192212946712970733642578125" lon="-106.9367654062807559967041015625">
        <ele>4203</ele>
        <time>2026-05-25T15:48:03.000Z</time>
        <extensions>
          <ns3:TrackPointExtension>
            <ns3:hr>93</ns3:hr>
            <ns3:cad>0</ns3:cad>
          </ns3:TrackPointExtension>
        </extensions>
      </trkpt>
      <trkpt lat="38.0191974900662899017333984375" lon="-106.9367154501378536224365234375">
        <ele>4203.39990234375</ele>
        <time>2026-05-25T15:48:08.000Z</time>
        <extensions>
          <ns3:TrackPointExtension>
            <ns3:hr>89</ns3:hr>
            <ns3:cad>0</ns3:cad>
          </ns3:TrackPointExtension>
        </extensions>
      </trkpt>
      <trkpt lat="38.01919723860919475555419921875" lon="-106.9367097504436969757080078125">
        <ele>4203.39990234375</ele>
        <time>2026-05-25T15:48:09.000Z</time>
        <extensions>
          <ns3:TrackPointExtension>
            <ns3:hr>88</ns3:hr>
            <ns3:cad>0</ns3:cad>
          </ns3:TrackPointExtension>
        </extensions>
      </trkpt>
      <trkpt lat="38.01919656805694103240966796875" lon="-106.93670430220663547515869140625">
        <ele>4202</ele>
        <time>2026-05-25T15:48:14.000Z</time>
        <extensions>
          <ns3:TrackPointExtension>
            <ns3:hr>85</ns3:hr>
            <ns3:cad>0</ns3:cad>
          </ns3:TrackPointExtension>
        </extensions>
      </trkpt>
      <trkpt lat="38.0192025192081928253173828125" lon="-106.93667446263134479522705078125">
        <ele>4201.60009765625</ele>
        <time>2026-05-25T15:48:16.000Z</time>
        <extensions>
          <ns3:TrackPointExtension>
            <ns3:hr>85</ns3:hr>
            <ns3:cad>0</ns3:cad>
          </ns3:TrackPointExtension>
        </extensions>
      </trkpt>
      <trkpt lat="38.01919656805694103240966796875" lon="-106.9366599619388580322265625">
        <ele>4201.2001953125</ele>
        <time>2026-05-25T15:48:20.000Z</time>
        <extensions>
          <ns3:TrackPointExtension>
            <ns3:hr>88</ns3:hr>
            <ns3:cad>0</ns3:cad>
          </ns3:TrackPointExtension>
        </extensions>
      </trkpt>
      <trkpt lat="38.0192031897604465484619140625" lon="-106.93665266968309879302978515625">
        <ele>4201</ele>
        <time>2026-05-25T15:48:22.000Z</time>
        <extensions>
          <ns3:TrackPointExtension>
            <ns3:hr>90</ns3:hr>
            <ns3:cad>0</ns3:cad>
          </ns3:TrackPointExtension>
        </extensions>
      </trkpt>
      <trkpt lat="38.01920545287430286407470703125" lon="-106.93664562888443470001220703125">
        <ele>4200.60009765625</ele>
        <time>2026-05-25T15:48:26.000Z</time>
        <extensions>
          <ns3:TrackPointExtension>
            <ns3:hr>92</ns3:hr>
            <ns3:cad>0</ns3:cad>
          </ns3:TrackPointExtension>
        </extensions>
      </trkpt>
      <trkpt lat="38.01920545287430286407470703125" lon="-106.93664562888443470001220703125">
        <ele>4200.39990234375</ele>
        <time>2026-05-25T15:48:27.000Z</time>
        <extensions>
          <ns3:TrackPointExtension>
            <ns3:hr>92</ns3:hr>
            <ns3:cad>0</ns3:cad>
          </ns3:TrackPointExtension>
        </extensions>
      </trkpt>
      <trkpt lat="38.019206710159778594970703125" lon="-106.9366235844790935516357421875">
        <ele>4199.39990234375</ele>
        <time>2026-05-25T15:48:32.000Z</time>
        <extensions>
          <ns3:TrackPointExtension>
            <ns3:hr>94</ns3:hr>
            <ns3:cad>0</ns3:cad>
          </ns3:TrackPointExtension>
        </extensions>
      </trkpt>
      <trkpt lat="38.0192065425217151641845703125" lon="-106.93660489283502101898193359375">
        <ele>4199.2001953125</ele>
        <time>2026-05-25T15:48:38.000Z</time>
        <extensions>
          <ns3:TrackPointExtension>
            <ns3:hr>93</ns3:hr>
            <ns3:cad>0</ns3:cad>
          </ns3:TrackPointExtension>
        </extensions>
      </trkpt>
      <trkpt lat="38.01920662634074687957763671875" lon="-106.93659718148410320281982421875">
        <ele>4198.2001953125</ele>
        <time>2026-05-25T15:48:43.000Z</time>
        <extensions>
          <ns3:TrackPointExtension>
            <ns3:hr>93</ns3:hr>
            <ns3:cad>0</ns3:cad>
          </ns3:TrackPointExtension>
        </extensions>
      </trkpt>
      <trkpt lat="38.01921132020652294158935546875" lon="-106.9365964271128177642822265625">
        <ele>4197.7998046875</ele>
        <time>2026-05-25T15:48:45.000Z</time>
        <extensions>
          <ns3:TrackPointExtension>
            <ns3:hr>93</ns3:hr>
            <ns3:cad>0</ns3:cad>
          </ns3:TrackPointExtension>
        </extensions>
      </trkpt>
      <trkpt lat="38.0192212946712970733642578125" lon="-106.936577148735523223876953125">
        <ele>4197.2001953125</ele>
        <time>2026-05-25T15:48:50.000Z</time>
        <extensions>
          <ns3:TrackPointExtension>
            <ns3:hr>93</ns3:hr>
            <ns3:cad>0</ns3:cad>
          </ns3:TrackPointExtension>
        </extensions>
      </trkpt>
      <trkpt lat="38.0192197859287261962890625" lon="-106.93655376322567462921142578125">
        <ele>4196.39990234375</ele>
        <time>2026-05-25T15:48:53.000Z</time>
        <extensions>
          <ns3:TrackPointExtension>
            <ns3:hr>93</ns3:hr>
            <ns3:cad>73</ns3:cad>
          </ns3:TrackPointExtension>
        </extensions>
      </trkpt>
      <trkpt lat="38.0192259885370731353759765625" lon="-106.9365414418280124664306640625">
        <ele>4196</ele>
        <time>2026-05-25T15:48:57.000Z</time>
        <extensions>
          <ns3:TrackPointExtension>
            <ns3:hr>93</ns3:hr>
            <ns3:cad>0</ns3:cad>
          </ns3:TrackPointExtension>
        </extensions>
      </trkpt>
      <trkpt lat="38.019226156175136566162109375" lon="-106.93653565831482410430908203125">
        <ele>4195.7998046875</ele>
        <time>2026-05-25T15:49:00.000Z</time>
        <extensions>
          <ns3:TrackPointExtension>
            <ns3:hr>94</ns3:hr>
            <ns3:cad>0</ns3:cad>
          </ns3:TrackPointExtension>
        </extensions>
      </trkpt>
      <trkpt lat="38.01922288723289966583251953125" lon="-106.93652459420263767242431640625">
        <ele>4194.7998046875</ele>
        <time>2026-05-25T15:49:04.000Z</time>
        <extensions>
          <ns3:TrackPointExtension>
            <ns3:hr>92</ns3:hr>
            <ns3:cad>0</ns3:cad>
          </ns3:TrackPointExtension>
        </extensions>
      </trkpt>
      <trkpt lat="38.0192273296415805816650390625" lon="-106.936519481241703033447265625">
        <ele>4194.60009765625</ele>
        <time>2026-05-25T15:49:06.000Z</time>
        <extensions>
          <ns3:TrackPointExtension>
            <ns3:hr>91</ns3:hr>
            <ns3:cad>0</ns3:cad>
          </ns3:TrackPointExtension>
        </extensions>
      </trkpt>
      <trkpt lat="38.0192506313323974609375" lon="-106.93650104105472564697265625">
        <ele>4193.7998046875</ele>
        <time>2026-05-25T15:49:10.000Z</time>
        <extensions>
          <ns3:TrackPointExtension>
            <ns3:hr>91</ns3:hr>
            <ns3:cad>0</ns3:cad>
          </ns3:TrackPointExtension>
        </extensions>
      </trkpt>
      <trkpt lat="38.01924535073339939117431640625" lon="-106.9364851154386997222900390625">
        <ele>4192.60009765625</ele>
        <time>2026-05-25T15:49:15.000Z</time>
        <extensions>
          <ns3:TrackPointExtension>
            <ns3:hr>92</ns3:hr>
            <ns3:cad>79</ns3:cad>
          </ns3:TrackPointExtension>
        </extensions>
      </trkpt>
      <trkpt lat="38.0192461051046848297119140625" lon="-106.936483941972255706787109375">
        <ele>4192.39990234375</ele>
        <time>2026-05-25T15:49:16.000Z</time>
        <extensions>
          <ns3:TrackPointExtension>
            <ns3:hr>92</ns3:hr>
            <ns3:cad>0</ns3:cad>
          </ns3:TrackPointExtension>
        </extensions>
      </trkpt>
      <trkpt lat="38.01926043815910816192626953125" lon="-106.93646977655589580535888671875">
        <ele>4191.39990234375</ele>
        <time>2026-05-25T15:49:20.000Z</time>
        <extensions>
          <ns3:TrackPointExtension>
            <ns3:hr>91</ns3:hr>
            <ns3:cad>0</ns3:cad>
          </ns3:TrackPointExtension>
        </extensions>
      </trkpt>
      <trkpt lat="38.0192588455975055694580078125" lon="-106.93646223284304141998291015625">
        <ele>4191.2001953125</ele>
        <time>2026-05-25T15:49:22.000Z</time>
        <extensions>
          <ns3:TrackPointExtension>
            <ns3:hr>92</ns3:hr>
            <ns3:cad>0</ns3:cad>
          </ns3:TrackPointExtension>
        </extensions>
      </trkpt>
      <trkpt lat="38.0192484520375728607177734375" lon="-106.9364346563816070556640625">
        <ele>4190.7998046875</ele>
        <time>2026-05-25T15:49:26.000Z</time>
        <extensions>
          <ns3:TrackPointExtension>
            <ns3:hr>96</ns3:hr>
            <ns3:cad>0</ns3:cad>
          </ns3:TrackPointExtension>
        </extensions>
      </trkpt>
      <trkpt lat="38.019242249429225921630859375" lon="-106.93642920814454555511474609375">
        <ele>4190.39990234375</ele>
        <time>2026-05-25T15:49:28.000Z</time>
        <extensions>
          <ns3:TrackPointExtension>
            <ns3:hr>101</ns3:hr>
            <ns3:cad>0</ns3:cad>
          </ns3:TrackPointExtension>
        </extensions>
      </trkpt>
      <trkpt lat="38.01923981867730617523193359375" lon="-106.93642334081232547760009765625">
        <ele>4189.7998046875</ele>
        <time>2026-05-25T15:49:34.000Z</time>
        <extensions>
          <ns3:TrackPointExtension>
            <ns3:hr>100</ns3:hr>
            <ns3:cad>0</ns3:cad>
          </ns3:TrackPointExtension>
        </extensions>
      </trkpt>
      <trkpt lat="38.0192363820970058441162109375" lon="-106.93642233498394489288330078125">
        <ele>4189.2001953125</ele>
        <time>2026-05-25T15:49:36.000Z</time>
        <extensions>
          <ns3:TrackPointExtension>
            <ns3:hr>99</ns3:hr>
            <ns3:cad>0</ns3:cad>
          </ns3:TrackPointExtension>
        </extensions>
      </trkpt>
      <trkpt lat="38.0192350409924983978271484375" lon="-106.93640003912150859832763671875">
        <ele>4188.39990234375</ele>
        <time>2026-05-25T15:49:42.000Z</time>
        <extensions>
          <ns3:TrackPointExtension>
            <ns3:hr>101</ns3:hr>
            <ns3:cad>0</ns3:cad>
          </ns3:TrackPointExtension>
        </extensions>
      </trkpt>
      <trkpt lat="38.0192326940596103668212890625" lon="-106.9363971054553985595703125">
        <ele>4188.2001953125</ele>
        <time>2026-05-25T15:49:43.000Z</time>
        <extensions>
          <ns3:TrackPointExtension>
            <ns3:hr>101</ns3:hr>
            <ns3:cad>0</ns3:cad>
          </ns3:TrackPointExtension>
        </extensions>
      </trkpt>
      <trkpt lat="38.01923043094575405120849609375" lon="-106.93638964556157588958740234375">
        <ele>4188</ele>
        <time>2026-05-25T15:49:44.000Z</time>
        <extensions>
          <ns3:TrackPointExtension>
            <ns3:hr>102</ns3:hr>
            <ns3:cad>0</ns3:cad>
          </ns3:TrackPointExtension>
        </extensions>
      </trkpt>
      <trkpt lat="38.019230850040912628173828125" lon="-106.93636768497526645660400390625">
        <ele>4187</ele>
        <time>2026-05-25T15:49:48.000Z</time>
        <extensions>
          <ns3:TrackPointExtension>
            <ns3:hr>101</ns3:hr>
            <ns3:cad>0</ns3:cad>
          </ns3:TrackPointExtension>
        </extensions>
      </trkpt>
      <trkpt lat="38.01923244260251522064208984375" lon="-106.93636449985206127166748046875">
        <ele>4186.7998046875</ele>
        <time>2026-05-25T15:49:49.000Z</time>
        <extensions>
          <ns3:TrackPointExtension>
            <ns3:hr>101</ns3:hr>
            <ns3:cad>0</ns3:cad>
          </ns3:TrackPointExtension>
        </extensions>
      </trkpt>
      <trkpt lat="38.01922716200351715087890625" lon="-106.9363541901111602783203125">
        <ele>4186</ele>
        <time>2026-05-25T15:49:55.000Z</time>
        <extensions>
          <ns3:TrackPointExtension>
            <ns3:hr>100</ns3:hr>
            <ns3:cad>43</ns3:cad>
          </ns3:TrackPointExtension>
        </extensions>
      </trkpt>
      <trkpt lat="38.0192266590893268585205078125" lon="-106.93635284900665283203125">
        <ele>4185.7998046875</ele>
        <time>2026-05-25T15:49:56.000Z</time>
        <extensions>
          <ns3:TrackPointExtension>
            <ns3:hr>100</ns3:hr>
            <ns3:cad>43</ns3:cad>
          </ns3:TrackPointExtension>
        </extensions>
      </trkpt>
      <trkpt lat="38.01922850310802459716796875" lon="-106.936348490417003631591796875">
        <ele>4185.60009765625</ele>
        <time>2026-05-25T15:49:57.000Z</time>
        <extensions>
          <ns3:TrackPointExtension>
            <ns3:hr>99</ns3:hr>
            <ns3:cad>43</ns3:cad>
          </ns3:TrackPointExtension>
        </extensions>
      </trkpt>
      <trkpt lat="38.01923596300184726715087890625" lon="-106.9363258592784404754638671875">
        <ele>4184.60009765625</ele>
        <time>2026-05-25T15:50:01.000Z</time>
        <extensions>
          <ns3:TrackPointExtension>
            <ns3:hr>99</ns3:hr>
            <ns3:cad>0</ns3:cad>
          </ns3:TrackPointExtension>
        </extensions>
      </trkpt>
      <trkpt lat="38.0192336998879909515380859375" lon="-106.936310939490795135498046875">
        <ele>4184.2001953125</ele>
        <time>2026-05-25T15:50:04.000Z</time>
        <extensions>
          <ns3:TrackPointExtension>
            <ns3:hr>99</ns3:hr>
            <ns3:cad>0</ns3:cad>
          </ns3:TrackPointExtension>
        </extensions>
      </trkpt>
      <trkpt lat="38.0192331969738006591796875" lon="-106.936296187341213226318359375">
        <ele>4183.39990234375</ele>
        <time>2026-05-25T15:50:09.000Z</time>
        <extensions>
          <ns3:TrackPointExtension>
            <ns3:hr>100</ns3:hr>
            <ns3:cad>0</ns3:cad>
          </ns3:TrackPointExtension>
        </extensions>
      </trkpt>
      <trkpt lat="38.01922892220318317413330078125" lon="-106.93629208020865917205810546875">
        <ele>4183.2001953125</ele>
        <time>2026-05-25T15:50:11.000Z</time>
        <extensions>
          <ns3:TrackPointExtension>
            <ns3:hr>101</ns3:hr>
            <ns3:cad>0</ns3:cad>
          </ns3:TrackPointExtension>
        </extensions>
      </trkpt>
      <trkpt lat="38.019202016294002532958984375" lon="-106.93627313710749149322509765625">
        <ele>4182.60009765625</ele>
        <time>2026-05-25T15:50:16.000Z</time>
        <extensions>
          <ns3:TrackPointExtension>
            <ns3:hr>98</ns3:hr>
            <ns3:cad>0</ns3:cad>
          </ns3:TrackPointExtension>
        </extensions>
      </trkpt>
      <trkpt lat="38.0192095600068569183349609375" lon="-106.93625922314822673797607421875">
        <ele>4182.2001953125</ele>
        <time>2026-05-25T15:50:18.000Z</time>
        <extensions>
          <ns3:TrackPointExtension>
            <ns3:hr>98</ns3:hr>
            <ns3:cad>0</ns3:cad>
          </ns3:TrackPointExtension>
        </extensions>
      </trkpt>
      <trkpt lat="38.0192152597010135650634765625" lon="-106.93625084124505519866943359375">
        <ele>4181</ele>
        <time>2026-05-25T15:50:22.000Z</time>
        <extensions>
          <ns3:TrackPointExtension>
            <ns3:hr>96</ns3:hr>
            <ns3:cad>0</ns3:cad>
          </ns3:TrackPointExtension>
        </extensions>
      </trkpt>
      <trkpt lat="38.01922020502388477325439453125" lon="-106.9362447224557399749755859375">
        <ele>4179.7998046875</ele>
        <time>2026-05-25T15:50:26.000Z</time>
        <extensions>
          <ns3:TrackPointExtension>
            <ns3:hr>95</ns3:hr>
            <ns3:cad>71</ns3:cad>
          </ns3:TrackPointExtension>
        </extensions>
      </trkpt>
      <trkpt lat="38.01921567879617214202880859375" lon="-106.93620960228145122528076171875">
        <ele>4179</ele>
        <time>2026-05-25T15:50:31.000Z</time>
        <extensions>
          <ns3:TrackPointExtension>
            <ns3:hr>94</ns3:hr>
            <ns3:cad>0</ns3:cad>
          </ns3:TrackPointExtension>
        </extensions>
      </trkpt>
      <trkpt lat="38.01921618171036243438720703125" lon="-106.93619954399764537811279296875">
        <ele>4178.7998046875</ele>
        <time>2026-05-25T15:50:32.000Z</time>
        <extensions>
          <ns3:TrackPointExtension>
            <ns3:hr>94</ns3:hr>
            <ns3:cad>0</ns3:cad>
          </ns3:TrackPointExtension>
        </extensions>
      </trkpt>
      <trkpt lat="38.019231520593166351318359375" lon="-106.936181522905826568603515625">
        <ele>4177.60009765625</ele>
        <time>2026-05-25T15:50:38.000Z</time>
        <extensions>
          <ns3:TrackPointExtension>
            <ns3:hr>96</ns3:hr>
            <ns3:cad>0</ns3:cad>
          </ns3:TrackPointExtension>
        </extensions>
      </trkpt>
      <trkpt lat="38.01924719475209712982177734375" lon="-106.93616853095591068267822265625">
        <ele>4177.2001953125</ele>
        <time>2026-05-25T15:50:44.000Z</time>
        <extensions>
          <ns3:TrackPointExtension>
            <ns3:hr>98</ns3:hr>
            <ns3:cad>0</ns3:cad>
          </ns3:TrackPointExtension>
        </extensions>
      </trkpt>
      <trkpt lat="38.0192494578659534454345703125" lon="-106.9361662678420543670654296875">
        <ele>4177.2001953125</ele>
        <time>2026-05-25T15:50:45.000Z</time>
        <extensions>
          <ns3:TrackPointExtension>
            <ns3:hr>98</ns3:hr>
            <ns3:cad>0</ns3:cad>
          </ns3:TrackPointExtension>
        </extensions>
      </trkpt>
      <trkpt lat="38.01925222389400005340576171875" lon="-106.936155371367931365966796875">
        <ele>4176.60009765625</ele>
        <time>2026-05-25T15:50:49.000Z</time>
        <extensions>
          <ns3:TrackPointExtension>
            <ns3:hr>96</ns3:hr>
            <ns3:cad>0</ns3:cad>
          </ns3:TrackPointExtension>
        </extensions>
      </trkpt>
      <trkpt lat="38.01925188861787319183349609375" lon="-106.93615411408245563507080078125">
        <ele>4175.60009765625</ele>
        <time>2026-05-25T15:50:54.000Z</time>
        <extensions>
          <ns3:TrackPointExtension>
            <ns3:hr>96</ns3:hr>
            <ns3:cad>0</ns3:cad>
          </ns3:TrackPointExtension>
        </extensions>
      </trkpt>
      <trkpt lat="38.01925188861787319183349609375" lon="-106.93615411408245563507080078125">
        <ele>4175.7998046875</ele>
        <time>2026-05-25T15:50:58.000Z</time>
        <extensions>
          <ns3:TrackPointExtension>
            <ns3:hr>92</ns3:hr>
            <ns3:cad>0</ns3:cad>
          </ns3:TrackPointExtension>
        </extensions>
      </trkpt>
      <trkpt lat="38.01925188861787319183349609375" lon="-106.93615411408245563507080078125">
        <ele>4175.7998046875</ele>
        <time>2026-05-25T15:51:04.000Z</time>
        <extensions>
          <ns3:TrackPointExtension>
            <ns3:hr>95</ns3:hr>
            <ns3:cad>0</ns3:cad>
          </ns3:TrackPointExtension>
        </extensions>
      </trkpt>
      <trkpt lat="38.01925188861787319183349609375" lon="-106.93615411408245563507080078125">
        <ele>4175.60009765625</ele>
        <time>2026-05-25T15:51:07.000Z</time>
        <extensions>
          <ns3:TrackPointExtension>
            <ns3:hr>98</ns3:hr>
            <ns3:cad>0</ns3:cad>
          </ns3:TrackPointExtension>
        </extensions>
      </trkpt>
      <trkpt lat="38.01925188861787319183349609375" lon="-106.93615411408245563507080078125">
        <ele>4175.7998046875</ele>
        <time>2026-05-25T15:51:09.000Z</time>
        <extensions>
          <ns3:TrackPointExtension>
            <ns3:hr>101</ns3:hr>
            <ns3:cad>0</ns3:cad>
          </ns3:TrackPointExtension>
        </extensions>
      </trkpt>
      <trkpt lat="38.01925188861787319183349609375" lon="-106.93615411408245563507080078125">
        <ele>4176</ele>
        <time>2026-05-25T15:51:11.000Z</time>
        <extensions>
          <ns3:TrackPointExtension>
            <ns3:hr>104</ns3:hr>
            <ns3:cad>0</ns3:cad>
          </ns3:TrackPointExtension>
        </extensions>
      </trkpt>
      <trkpt lat="38.019260354340076446533203125" lon="-106.93614640273153781890869140625">
        <ele>4175.2001953125</ele>
        <time>2026-05-25T15:51:16.000Z</time>
        <extensions>
          <ns3:TrackPointExtension>
            <ns3:hr>103</ns3:hr>
            <ns3:cad>0</ns3:cad>
          </ns3:TrackPointExtension>
        </extensions>
      </trkpt>
      <trkpt lat="38.0192635394632816314697265625" lon="-106.9361203350126743316650390625">
        <ele>4174.39990234375</ele>
        <time>2026-05-25T15:51:20.000Z</time>
        <extensions>
          <ns3:TrackPointExtension>
            <ns3:hr>103</ns3:hr>
            <ns3:cad>0</ns3:cad>
          </ns3:TrackPointExtension>
        </extensions>
      </trkpt>
      <trkpt lat="38.01926345564424991607666015625" lon="-106.936119832098484039306640625">
        <ele>4174</ele>
        <time>2026-05-25T15:51:22.000Z</time>
        <extensions>
          <ns3:TrackPointExtension>
            <ns3:hr>102</ns3:hr>
            <ns3:cad>0</ns3:cad>
          </ns3:TrackPointExtension>
        </extensions>
      </trkpt>
      <trkpt lat="38.0192492902278900146484375" lon="-106.9360972009599208831787109375">
        <ele>4173.39990234375</ele>
        <time>2026-05-25T15:51:24.000Z</time>
        <extensions>
          <ns3:TrackPointExtension>
            <ns3:hr>102</ns3:hr>
            <ns3:cad>0</ns3:cad>
          </ns3:TrackPointExtension>
        </extensions>
      </trkpt>
      <trkpt lat="38.0192558281123638153076171875" lon="-106.93606828339397907257080078125">
        <ele>4172.60009765625</ele>
        <time>2026-05-25T15:51:28.000Z</time>
        <extensions>
          <ns3:TrackPointExtension>
            <ns3:hr>103</ns3:hr>
            <ns3:cad>0</ns3:cad>
          </ns3:TrackPointExtension>
        </extensions>
      </trkpt>
      <trkpt lat="38.01925792358815670013427734375" lon="-106.93606115877628326416015625">
        <ele>4172.39990234375</ele>
        <time>2026-05-25T15:51:29.000Z</time>
        <extensions>
          <ns3:TrackPointExtension>
            <ns3:hr>104</ns3:hr>
            <ns3:cad>68</ns3:cad>
          </ns3:TrackPointExtension>
        </extensions>
      </trkpt>
      <trkpt lat="38.01926261745393276214599609375" lon="-106.93604632280766963958740234375">
        <ele>4171.39990234375</ele>
        <time>2026-05-25T15:51:32.000Z</time>
        <extensions>
          <ns3:TrackPointExtension>
            <ns3:hr>106</ns3:hr>
            <ns3:cad>68</ns3:cad>
          </ns3:TrackPointExtension>
        </extensions>
      </trkpt>
      <trkpt lat="38.0192803032696247100830078125" lon="-106.93602335639297962188720703125">
        <ele>4170.7998046875</ele>
        <time>2026-05-25T15:51:35.000Z</time>
        <extensions>
          <ns3:TrackPointExtension>
            <ns3:hr>104</ns3:hr>
            <ns3:cad>0</ns3:cad>
          </ns3:TrackPointExtension>
        </extensions>
      </trkpt>
      <trkpt lat="38.0192843265831470489501953125" lon="-106.93601556122303009033203125">
        <ele>4170.39990234375</ele>
        <time>2026-05-25T15:51:37.000Z</time>
        <extensions>
          <ns3:TrackPointExtension>
            <ns3:hr>103</ns3:hr>
            <ns3:cad>0</ns3:cad>
          </ns3:TrackPointExtension>
        </extensions>
      </trkpt>
      <trkpt lat="38.01928642205893993377685546875" lon="-106.9360090233385562896728515625">
        <ele>4170.2001953125</ele>
        <time>2026-05-25T15:51:38.000Z</time>
        <extensions>
          <ns3:TrackPointExtension>
            <ns3:hr>100</ns3:hr>
            <ns3:cad>0</ns3:cad>
          </ns3:TrackPointExtension>
        </extensions>
      </trkpt>
      <trkpt lat="38.019291870296001434326171875" lon="-106.935994438827037811279296875">
        <ele>4169.7998046875</ele>
        <time>2026-05-25T15:51:40.000Z</time>
        <extensions>
          <ns3:TrackPointExtension>
            <ns3:hr>97</ns3:hr>
            <ns3:cad>0</ns3:cad>
          </ns3:TrackPointExtension>
        </extensions>
      </trkpt>
      <trkpt lat="38.019295893609523773193359375" lon="-106.93597172386944293975830078125">
        <ele>4169.2001953125</ele>
        <time>2026-05-25T15:51:44.000Z</time>
        <extensions>
          <ns3:TrackPointExtension>
            <ns3:hr>94</ns3:hr>
            <ns3:cad>0</ns3:cad>
          </ns3:TrackPointExtension>
        </extensions>
      </trkpt>
      <trkpt lat="38.0193027667701244354248046875" lon="-106.9359505176544189453125">
        <ele>4168.60009765625</ele>
        <time>2026-05-25T15:51:48.000Z</time>
        <extensions>
          <ns3:TrackPointExtension>
            <ns3:hr>94</ns3:hr>
            <ns3:cad>0</ns3:cad>
          </ns3:TrackPointExtension>
        </extensions>
      </trkpt>
      <trkpt lat="38.01930218003690242767333984375" lon="-106.93594858981668949127197265625">
        <ele>4168.2001953125</ele>
        <time>2026-05-25T15:51:50.000Z</time>
        <extensions>
          <ns3:TrackPointExtension>
            <ns3:hr>94</ns3:hr>
            <ns3:cad>0</ns3:cad>
          </ns3:TrackPointExtension>
        </extensions>
      </trkpt>
      <trkpt lat="38.01930637098848819732666015625" lon="-106.93592662923038005828857421875">
        <ele>4167.2001953125</ele>
        <time>2026-05-25T15:51:55.000Z</time>
        <extensions>
          <ns3:TrackPointExtension>
            <ns3:hr>94</ns3:hr>
            <ns3:cad>0</ns3:cad>
          </ns3:TrackPointExtension>
        </extensions>
      </trkpt>
      <trkpt lat="38.01930184476077556610107421875" lon="-106.9359288923442363739013671875">
        <ele>4167</ele>
        <time>2026-05-25T15:51:56.000Z</time>
        <extensions>
          <ns3:TrackPointExtension>
            <ns3:hr>94</ns3:hr>
            <ns3:cad>0</ns3:cad>
          </ns3:TrackPointExtension>
        </extensions>
      </trkpt>
      <trkpt lat="38.01931039430201053619384765625" lon="-106.93591489456593990325927734375">
        <ele>4166.60009765625</ele>
        <time>2026-05-25T15:52:00.000Z</time>
        <extensions>
          <ns3:TrackPointExtension>
            <ns3:hr>97</ns3:hr>
            <ns3:cad>0</ns3:cad>
          </ns3:TrackPointExtension>
        </extensions>
      </trkpt>
      <trkpt lat="38.01931793801486492156982421875" lon="-106.93590047769248485565185546875">
        <ele>4166</ele>
        <time>2026-05-25T15:52:05.000Z</time>
        <extensions>
          <ns3:TrackPointExtension>
            <ns3:hr>96</ns3:hr>
            <ns3:cad>0</ns3:cad>
          </ns3:TrackPointExtension>
        </extensions>
      </trkpt>
      <trkpt lat="38.019322715699672698974609375" lon="-106.9358853064477443695068359375">
        <ele>4165.39990234375</ele>
        <time>2026-05-25T15:52:08.000Z</time>
        <extensions>
          <ns3:TrackPointExtension>
            <ns3:hr>94</ns3:hr>
            <ns3:cad>0</ns3:cad>
          </ns3:TrackPointExtension>
        </extensions>
      </trkpt>
      <trkpt lat="38.01932045258581638336181640625" lon="-106.93588413298130035400390625">
        <ele>4165</ele>
        <time>2026-05-25T15:52:10.000Z</time>
        <extensions>
          <ns3:TrackPointExtension>
            <ns3:hr>93</ns3:hr>
            <ns3:cad>0</ns3:cad>
          </ns3:TrackPointExtension>
        </extensions>
      </trkpt>
      <trkpt lat="38.01932145841419696807861328125" lon="-106.93588589318096637725830078125">
        <ele>4164.2001953125</ele>
        <time>2026-05-25T15:52:16.000Z</time>
        <extensions>
          <ns3:TrackPointExtension>
            <ns3:hr>90</ns3:hr>
            <ns3:cad>65</ns3:cad>
          </ns3:TrackPointExtension>
        </extensions>
      </trkpt>
      <trkpt lat="38.01932631991803646087646484375" lon="-106.9358853064477443695068359375">
        <ele>4164.2001953125</ele>
        <time>2026-05-25T15:52:17.000Z</time>
        <extensions>
          <ns3:TrackPointExtension>
            <ns3:hr>90</ns3:hr>
            <ns3:cad>65</ns3:cad>
          </ns3:TrackPointExtension>
        </extensions>
      </trkpt>
      <trkpt lat="38.01932833157479763031005859375" lon="-106.9358846358954906463623046875">
        <ele>4164</ele>
        <time>2026-05-25T15:52:18.000Z</time>
        <extensions>
          <ns3:TrackPointExtension>
            <ns3:hr>90</ns3:hr>
            <ns3:cad>65</ns3:cad>
          </ns3:TrackPointExtension>
        </extensions>
      </trkpt>
      <trkpt lat="38.01934652030467987060546875" lon="-106.93588505499064922332763671875">
        <ele>4163</ele>
        <time>2026-05-25T15:52:23.000Z</time>
        <extensions>
          <ns3:TrackPointExtension>
            <ns3:hr>90</ns3:hr>
            <ns3:cad>0</ns3:cad>
          </ns3:TrackPointExtension>
        </extensions>
      </trkpt>
      <trkpt lat="38.01935565657913684844970703125" lon="-106.93588321097195148468017578125">
        <ele>4162.7998046875</ele>
        <time>2026-05-25T15:52:24.000Z</time>
        <extensions>
          <ns3:TrackPointExtension>
            <ns3:hr>91</ns3:hr>
            <ns3:cad>0</ns3:cad>
          </ns3:TrackPointExtension>
        </extensions>
      </trkpt>
      <trkpt lat="38.019366301596164703369140625" lon="-106.935875415802001953125">
        <ele>4162.2001953125</ele>
        <time>2026-05-25T15:52:29.000Z</time>
        <extensions>
          <ns3:TrackPointExtension>
            <ns3:hr>94</ns3:hr>
            <ns3:cad>0</ns3:cad>
          </ns3:TrackPointExtension>
        </extensions>
      </trkpt>
      <trkpt lat="38.019372336566448211669921875" lon="-106.9358698837459087371826171875">
        <ele>4162</ele>
        <time>2026-05-25T15:52:30.000Z</time>
        <extensions>
          <ns3:TrackPointExtension>
            <ns3:hr>94</ns3:hr>
            <ns3:cad>0</ns3:cad>
          </ns3:TrackPointExtension>
        </extensions>
      </trkpt>
      <trkpt lat="38.019375689327716827392578125" lon="-106.93586778827011585235595703125">
        <ele>4161.7998046875</ele>
        <time>2026-05-25T15:52:31.000Z</time>
        <extensions>
          <ns3:TrackPointExtension>
            <ns3:hr>96</ns3:hr>
            <ns3:cad>0</ns3:cad>
          </ns3:TrackPointExtension>
        </extensions>
      </trkpt>
      <trkpt lat="38.0193896032869815826416015625" lon="-106.93586267530918121337890625">
        <ele>4160.7998046875</ele>
        <time>2026-05-25T15:52:37.000Z</time>
        <extensions>
          <ns3:TrackPointExtension>
            <ns3:hr>94</ns3:hr>
            <ns3:cad>0</ns3:cad>
          </ns3:TrackPointExtension>
        </extensions>
      </trkpt>
      <trkpt lat="38.0193989910185337066650390625" lon="-106.93586259149014949798583984375">
        <ele>4160.39990234375</ele>
        <time>2026-05-25T15:52:38.000Z</time>
        <extensions>
          <ns3:TrackPointExtension>
            <ns3:hr>94</ns3:hr>
            <ns3:cad>0</ns3:cad>
          </ns3:TrackPointExtension>
        </extensions>
      </trkpt>
      <trkpt lat="38.01941064186394214630126953125" lon="-106.93585571832954883575439453125">
        <ele>4159.7998046875</ele>
        <time>2026-05-25T15:52:42.000Z</time>
        <extensions>
          <ns3:TrackPointExtension>
            <ns3:hr>93</ns3:hr>
            <ns3:cad>0</ns3:cad>
          </ns3:TrackPointExtension>
        </extensions>
      </trkpt>
      <trkpt lat="38.019419610500335693359375" lon="-106.93584716878831386566162109375">
        <ele>4159.39990234375</ele>
        <time>2026-05-25T15:52:44.000Z</time>
        <extensions>
          <ns3:TrackPointExtension>
            <ns3:hr>93</ns3:hr>
            <ns3:cad>0</ns3:cad>
          </ns3:TrackPointExtension>
        </extensions>
      </trkpt>
      <trkpt lat="38.01942941732704639434814453125" lon="-106.93585152737796306610107421875">
        <ele>4158.7998046875</ele>
        <time>2026-05-25T15:52:50.000Z</time>
        <extensions>
          <ns3:TrackPointExtension>
            <ns3:hr>95</ns3:hr>
            <ns3:cad>0</ns3:cad>
          </ns3:TrackPointExtension>
        </extensions>
      </trkpt>
      <trkpt lat="38.01943075843155384063720703125" lon="-106.9358507730066776275634765625">
        <ele>4158.60009765625</ele>
        <time>2026-05-25T15:52:51.000Z</time>
        <extensions>
          <ns3:TrackPointExtension>
            <ns3:hr>95</ns3:hr>
            <ns3:cad>0</ns3:cad>
          </ns3:TrackPointExtension>
        </extensions>
      </trkpt>
      <trkpt lat="38.019448108971118927001953125" lon="-106.93583107553422451019287109375">
        <ele>4158.2001953125</ele>
        <time>2026-05-25T15:52:56.000Z</time>
        <extensions>
          <ns3:TrackPointExtension>
            <ns3:hr>94</ns3:hr>
            <ns3:cad>0</ns3:cad>
          </ns3:TrackPointExtension>
        </extensions>
      </trkpt>
      <trkpt lat="38.01946328021585941314697265625" lon="-106.935812048614025115966796875">
        <ele>4157.60009765625</ele>
        <time>2026-05-25T15:53:00.000Z</time>
        <extensions>
          <ns3:TrackPointExtension>
            <ns3:hr>94</ns3:hr>
            <ns3:cad>0</ns3:cad>
          </ns3:TrackPointExtension>
        </extensions>
      </trkpt>
      <trkpt lat="38.0194680579006671905517578125" lon="-106.935813724994659423828125">
        <ele>4157.2001953125</ele>
        <time>2026-05-25T15:53:02.000Z</time>
        <extensions>
          <ns3:TrackPointExtension>
            <ns3:hr>95</ns3:hr>
            <ns3:cad>0</ns3:cad>
          </ns3:TrackPointExtension>
        </extensions>
      </trkpt>
      <trkpt lat="38.01949412561953067779541015625" lon="-106.9357994757592678070068359375">
        <ele>4156.60009765625</ele>
        <time>2026-05-25T15:53:08.000Z</time>
        <extensions>
          <ns3:TrackPointExtension>
            <ns3:hr>93</ns3:hr>
            <ns3:cad>53</ns3:cad>
          </ns3:TrackPointExtension>
        </extensions>
      </trkpt>
      <trkpt lat="38.0195156671106815338134765625" lon="-106.9357894174754619598388671875">
        <ele>4155.60009765625</ele>
        <time>2026-05-25T15:53:14.000Z</time>
        <extensions>
          <ns3:TrackPointExtension>
            <ns3:hr>92</ns3:hr>
            <ns3:cad>0</ns3:cad>
          </ns3:TrackPointExtension>
        </extensions>
      </trkpt>
      <trkpt lat="38.01951826550066471099853515625" lon="-106.93578866310417652130126953125">
        <ele>4155.39990234375</ele>
        <time>2026-05-25T15:53:15.000Z</time>
        <extensions>
          <ns3:TrackPointExtension>
            <ns3:hr>92</ns3:hr>
            <ns3:cad>0</ns3:cad>
          </ns3:TrackPointExtension>
        </extensions>
      </trkpt>
      <trkpt lat="38.0195277370512485504150390625" lon="-106.935787908732891082763671875">
        <ele>4154.39990234375</ele>
        <time>2026-05-25T15:53:19.000Z</time>
        <extensions>
          <ns3:TrackPointExtension>
            <ns3:hr>91</ns3:hr>
            <ns3:cad>0</ns3:cad>
          </ns3:TrackPointExtension>
        </extensions>
      </trkpt>
      <trkpt lat="38.0195508711040019989013671875" lon="-106.93578262813389301300048828125">
        <ele>4153.39990234375</ele>
        <time>2026-05-25T15:53:22.000Z</time>
        <extensions>
          <ns3:TrackPointExtension>
            <ns3:hr>92</ns3:hr>
            <ns3:cad>0</ns3:cad>
          </ns3:TrackPointExtension>
        </extensions>
      </trkpt>
      <trkpt lat="38.01955045200884342193603515625" lon="-106.93577676080167293548583984375">
        <ele>4153.2001953125</ele>
        <time>2026-05-25T15:53:23.000Z</time>
        <extensions>
          <ns3:TrackPointExtension>
            <ns3:hr>93</ns3:hr>
            <ns3:cad>0</ns3:cad>
          </ns3:TrackPointExtension>
        </extensions>
      </trkpt>
      <trkpt lat="38.0195766873657703399658203125" lon="-106.93576720543205738067626953125">
        <ele>4152.60009765625</ele>
        <time>2026-05-25T15:53:29.000Z</time>
        <extensions>
          <ns3:TrackPointExtension>
            <ns3:hr>94</ns3:hr>
            <ns3:cad>0</ns3:cad>
          </ns3:TrackPointExtension>
        </extensions>
      </trkpt>
      <trkpt lat="38.019579537212848663330078125" lon="-106.9357682950794696807861328125">
        <ele>4152.39990234375</ele>
        <time>2026-05-25T15:53:30.000Z</time>
        <extensions>
          <ns3:TrackPointExtension>
            <ns3:hr>94</ns3:hr>
            <ns3:cad>0</ns3:cad>
          </ns3:TrackPointExtension>
        </extensions>
      </trkpt>
      <trkpt lat="38.019594289362430572509765625" lon="-106.93577349185943603515625">
        <ele>4152.2001953125</ele>
        <time>2026-05-25T15:53:36.000Z</time>
        <extensions>
          <ns3:TrackPointExtension>
            <ns3:hr>95</ns3:hr>
            <ns3:cad>0</ns3:cad>
          </ns3:TrackPointExtension>
        </extensions>
      </trkpt>
      <trkpt lat="38.019607029855251312255859375" lon="-106.935773827135562896728515625">
        <ele>4152.39990234375</ele>
        <time>2026-05-25T15:53:38.000Z</time>
        <extensions>
          <ns3:TrackPointExtension>
            <ns3:hr>95</ns3:hr>
            <ns3:cad>0</ns3:cad>
          </ns3:TrackPointExtension>
        </extensions>
      </trkpt>
      <trkpt lat="38.01962588913738727569580078125" lon="-106.9357696361839771270751953125">
        <ele>4153</ele>
        <time>2026-05-25T15:53:43.000Z</time>
        <extensions>
          <ns3:TrackPointExtension>
            <ns3:hr>92</ns3:hr>
            <ns3:cad>0</ns3:cad>
          </ns3:TrackPointExtension>
        </extensions>
      </trkpt>
      <trkpt lat="38.01963360048830509185791015625" lon="-106.93576569668948650360107421875">
        <ele>4152.7998046875</ele>
        <time>2026-05-25T15:53:45.000Z</time>
        <extensions>
          <ns3:TrackPointExtension>
            <ns3:hr>91</ns3:hr>
            <ns3:cad>0</ns3:cad>
          </ns3:TrackPointExtension>
        </extensions>
      </trkpt>
      <trkpt lat="38.01965036429464817047119140625" lon="-106.9357614219188690185546875">
        <ele>4151</ele>
        <time>2026-05-25T15:53:49.000Z</time>
        <extensions>
          <ns3:TrackPointExtension>
            <ns3:hr>90</ns3:hr>
            <ns3:cad>0</ns3:cad>
          </ns3:TrackPointExtension>
        </extensions>
      </trkpt>
      <trkpt lat="38.0196648649871349334716796875" lon="-106.93575832061469554901123046875">
        <ele>4150</ele>
        <time>2026-05-25T15:53:51.000Z</time>
        <extensions>
          <ns3:TrackPointExtension>
            <ns3:hr>90</ns3:hr>
            <ns3:cad>75</ns3:cad>
          </ns3:TrackPointExtension>
        </extensions>
      </trkpt>
      <trkpt lat="38.01967106759548187255859375" lon="-106.9357573986053466796875">
        <ele>4149.2001953125</ele>
        <time>2026-05-25T15:53:53.000Z</time>
        <extensions>
          <ns3:TrackPointExtension>
            <ns3:hr>90</ns3:hr>
            <ns3:cad>0</ns3:cad>
          </ns3:TrackPointExtension>
        </extensions>
      </trkpt>
      <trkpt lat="38.0196822993457317352294921875" lon="-106.93575295619666576385498046875">
        <ele>4148.60009765625</ele>
        <time>2026-05-25T15:53:55.000Z</time>
        <extensions>
          <ns3:TrackPointExtension>
            <ns3:hr>90</ns3:hr>
            <ns3:cad>0</ns3:cad>
          </ns3:TrackPointExtension>
        </extensions>
      </trkpt>
      <trkpt lat="38.01970233209431171417236328125" lon="-106.93575630895793437957763671875">
        <ele>4147.60009765625</ele>
        <time>2026-05-25T15:54:00.000Z</time>
        <extensions>
          <ns3:TrackPointExtension>
            <ns3:hr>90</ns3:hr>
            <ns3:cad>0</ns3:cad>
          </ns3:TrackPointExtension>
        </extensions>
      </trkpt>
      <trkpt lat="38.01970568485558032989501953125" lon="-106.935757733881473541259765625">
        <ele>4147.2001953125</ele>
        <time>2026-05-25T15:54:01.000Z</time>
        <extensions>
          <ns3:TrackPointExtension>
            <ns3:hr>90</ns3:hr>
            <ns3:cad>0</ns3:cad>
          </ns3:TrackPointExtension>
        </extensions>
      </trkpt>
      <trkpt lat="38.019712306559085845947265625" lon="-106.93575538694858551025390625">
        <ele>4146.39990234375</ele>
        <time>2026-05-25T15:54:06.000Z</time>
        <extensions>
          <ns3:TrackPointExtension>
            <ns3:hr>89</ns3:hr>
            <ns3:cad>0</ns3:cad>
          </ns3:TrackPointExtension>
        </extensions>
      </trkpt>
      <trkpt lat="38.019717670977115631103515625" lon="-106.93575714714825153350830078125">
        <ele>4146.39990234375</ele>
        <time>2026-05-25T15:54:08.000Z</time>
        <extensions>
          <ns3:TrackPointExtension>
            <ns3:hr>90</ns3:hr>
            <ns3:cad>0</ns3:cad>
          </ns3:TrackPointExtension>
        </extensions>
      </trkpt>
      <trkpt lat="38.0197376199066638946533203125" lon="-106.93576100282371044158935546875">
        <ele>4145.39990234375</ele>
        <time>2026-05-25T15:54:12.000Z</time>
        <extensions>
          <ns3:TrackPointExtension>
            <ns3:hr>90</ns3:hr>
            <ns3:cad>0</ns3:cad>
          </ns3:TrackPointExtension>
        </extensions>
      </trkpt>
      <trkpt lat="38.01975161768496036529541015625" lon="-106.93575379438698291778564453125">
        <ele>4145.2001953125</ele>
        <time>2026-05-25T15:54:15.000Z</time>
        <extensions>
          <ns3:TrackPointExtension>
            <ns3:hr>89</ns3:hr>
            <ns3:cad>0</ns3:cad>
          </ns3:TrackPointExtension>
        </extensions>
      </trkpt>
      <trkpt lat="38.01978128962218761444091796875" lon="-106.9357488490641117095947265625">
        <ele>4144.39990234375</ele>
        <time>2026-05-25T15:54:20.000Z</time>
        <extensions>
          <ns3:TrackPointExtension>
            <ns3:hr>91</ns3:hr>
            <ns3:cad>0</ns3:cad>
          </ns3:TrackPointExtension>
        </extensions>
      </trkpt>
      <trkpt lat="38.0197857320308685302734375" lon="-106.93574692122638225555419921875">
        <ele>4144.39990234375</ele>
        <time>2026-05-25T15:54:21.000Z</time>
        <extensions>
          <ns3:TrackPointExtension>
            <ns3:hr>92</ns3:hr>
            <ns3:cad>0</ns3:cad>
          </ns3:TrackPointExtension>
        </extensions>
      </trkpt>
      <trkpt lat="38.019797466695308685302734375" lon="-106.93574457429349422454833984375">
        <ele>4144.2001953125</ele>
        <time>2026-05-25T15:54:23.000Z</time>
        <extensions>
          <ns3:TrackPointExtension>
            <ns3:hr>95</ns3:hr>
            <ns3:cad>0</ns3:cad>
          </ns3:TrackPointExtension>
        </extensions>
      </trkpt>
      <trkpt lat="38.01981196738779544830322265625" lon="-106.9357465021312236785888671875">
        <ele>4143.7998046875</ele>
        <time>2026-05-25T15:54:27.000Z</time>
        <extensions>
          <ns3:TrackPointExtension>
            <ns3:hr>95</ns3:hr>
            <ns3:cad>0</ns3:cad>
          </ns3:TrackPointExtension>
        </extensions>
      </trkpt>
      <trkpt lat="38.01982395350933074951171875" lon="-106.93575329147279262542724609375">
        <ele>4143.39990234375</ele>
        <time>2026-05-25T15:54:29.000Z</time>
        <extensions>
          <ns3:TrackPointExtension>
            <ns3:hr>93</ns3:hr>
            <ns3:cad>0</ns3:cad>
          </ns3:TrackPointExtension>
        </extensions>
      </trkpt>
      <trkpt lat="38.0198447406291961669921875" lon="-106.935753710567951202392578125">
        <ele>4142.7998046875</ele>
        <time>2026-05-25T15:54:32.000Z</time>
        <extensions>
          <ns3:TrackPointExtension>
            <ns3:hr>90</ns3:hr>
            <ns3:cad>0</ns3:cad>
          </ns3:TrackPointExtension>
        </extensions>
      </trkpt>
      <trkpt lat="38.01985018886625766754150390625" lon="-106.9357548840343952178955078125">
        <ele>4142.60009765625</ele>
        <time>2026-05-25T15:54:33.000Z</time>
        <extensions>
          <ns3:TrackPointExtension>
            <ns3:hr>89</ns3:hr>
            <ns3:cad>0</ns3:cad>
          </ns3:TrackPointExtension>
        </extensions>
      </trkpt>
      <trkpt lat="38.01986217498779296875" lon="-106.93575781770050525665283203125">
        <ele>4142</ele>
        <time>2026-05-25T15:54:35.000Z</time>
        <extensions>
          <ns3:TrackPointExtension>
            <ns3:hr>87</ns3:hr>
            <ns3:cad>53</ns3:cad>
          </ns3:TrackPointExtension>
        </extensions>
      </trkpt>
      <trkpt lat="38.0198757536709308624267578125" lon="-106.93575798533856868743896484375">
        <ele>4140.7998046875</ele>
        <time>2026-05-25T15:54:39.000Z</time>
        <extensions>
          <ns3:TrackPointExtension>
            <ns3:hr>87</ns3:hr>
            <ns3:cad>0</ns3:cad>
          </ns3:TrackPointExtension>
        </extensions>
      </trkpt>
      <trkpt lat="38.01988153718411922454833984375" lon="-106.9357568956911563873291015625">
        <ele>4140.60009765625</ele>
        <time>2026-05-25T15:54:40.000Z</time>
        <extensions>
          <ns3:TrackPointExtension>
            <ns3:hr>87</ns3:hr>
            <ns3:cad>0</ns3:cad>
          </ns3:TrackPointExtension>
        </extensions>
      </trkpt>
      <trkpt lat="38.01991305314004421234130859375" lon="-106.9357488490641117095947265625">
        <ele>4140</ele>
        <time>2026-05-25T15:54:46.000Z</time>
        <extensions>
          <ns3:TrackPointExtension>
            <ns3:hr>88</ns3:hr>
            <ns3:cad>0</ns3:cad>
          </ns3:TrackPointExtension>
        </extensions>
      </trkpt>
      <trkpt lat="38.019923865795135498046875" lon="-106.9357471726834774017333984375">
        <ele>4139.60009765625</ele>
        <time>2026-05-25T15:54:47.000Z</time>
        <extensions>
          <ns3:TrackPointExtension>
            <ns3:hr>88</ns3:hr>
            <ns3:cad>0</ns3:cad>
          </ns3:TrackPointExtension>
        </extensions>
      </trkpt>
      <trkpt lat="38.01993736065924167633056640625" lon="-106.93574172444641590118408203125">
        <ele>4139.2001953125</ele>
        <time>2026-05-25T15:54:51.000Z</time>
        <extensions>
          <ns3:TrackPointExtension>
            <ns3:hr>89</ns3:hr>
            <ns3:cad>0</ns3:cad>
          </ns3:TrackPointExtension>
        </extensions>
      </trkpt>
      <trkpt lat="38.0199589021503925323486328125" lon="-106.9357424788177013397216796875">
        <ele>4138.39990234375</ele>
        <time>2026-05-25T15:54:55.000Z</time>
        <extensions>
          <ns3:TrackPointExtension>
            <ns3:hr>89</ns3:hr>
            <ns3:cad>0</ns3:cad>
          </ns3:TrackPointExtension>
        </extensions>
      </trkpt>
      <trkpt lat="38.01996954716742038726806640625" lon="-106.9357418082654476165771484375">
        <ele>4138</ele>
        <time>2026-05-25T15:54:58.000Z</time>
        <extensions>
          <ns3:TrackPointExtension>
            <ns3:hr>88</ns3:hr>
            <ns3:cad>0</ns3:cad>
          </ns3:TrackPointExtension>
        </extensions>
      </trkpt>
      <trkpt lat="38.02000123076140880584716796875" lon="-106.93573392927646636962890625">
        <ele>4137.2001953125</ele>
        <time>2026-05-25T15:55:04.000Z</time>
        <extensions>
          <ns3:TrackPointExtension>
            <ns3:hr>87</ns3:hr>
            <ns3:cad>0</ns3:cad>
          </ns3:TrackPointExtension>
        </extensions>
      </trkpt>
      <trkpt lat="38.02002754993736743927001953125" lon="-106.93573870696127414703369140625">
        <ele>4136.2001953125</ele>
        <time>2026-05-25T15:55:10.000Z</time>
        <extensions>
          <ns3:TrackPointExtension>
            <ns3:hr>86</ns3:hr>
            <ns3:cad>0</ns3:cad>
          </ns3:TrackPointExtension>
        </extensions>
      </trkpt>
      <trkpt lat="38.02003425545990467071533203125" lon="-106.93573535420000553131103515625">
        <ele>4136.2001953125</ele>
        <time>2026-05-25T15:55:11.000Z</time>
        <extensions>
          <ns3:TrackPointExtension>
            <ns3:hr>86</ns3:hr>
            <ns3:cad>0</ns3:cad>
          </ns3:TrackPointExtension>
        </extensions>
      </trkpt>
      <trkpt lat="38.02005839534103870391845703125" lon="-106.93573015742003917694091796875">
        <ele>4136</ele>
        <time>2026-05-25T15:55:17.000Z</time>
        <extensions>
          <ns3:TrackPointExtension>
            <ns3:hr>86</ns3:hr>
            <ns3:cad>0</ns3:cad>
          </ns3:TrackPointExtension>
        </extensions>
      </trkpt>
      <trkpt lat="38.02007985301315784454345703125" lon="-106.93572328425943851470947265625">
        <ele>4135</ele>
        <time>2026-05-25T15:55:20.000Z</time>
        <extensions>
          <ns3:TrackPointExtension>
            <ns3:hr>87</ns3:hr>
            <ns3:cad>45</ns3:cad>
          </ns3:TrackPointExtension>
        </extensions>
      </trkpt>
      <trkpt lat="38.0201027356088161468505859375" lon="-106.9357203505933284759521484375">
        <ele>4134.2001953125</ele>
        <time>2026-05-25T15:55:23.000Z</time>
        <extensions>
          <ns3:TrackPointExtension>
            <ns3:hr>87</ns3:hr>
            <ns3:cad>45</ns3:cad>
          </ns3:TrackPointExtension>
        </extensions>
      </trkpt>
      <trkpt lat="38.02010315470397472381591796875" lon="-106.93572185933589935302734375">
        <ele>4134</ele>
        <time>2026-05-25T15:55:24.000Z</time>
        <extensions>
          <ns3:TrackPointExtension>
            <ns3:hr>87</ns3:hr>
            <ns3:cad>45</ns3:cad>
          </ns3:TrackPointExtension>
        </extensions>
      </trkpt>
      <trkpt lat="38.02011338062584400177001953125" lon="-106.9357185065746307373046875">
        <ele>4134</ele>
        <time>2026-05-25T15:55:28.000Z</time>
        <extensions>
          <ns3:TrackPointExtension>
            <ns3:hr>87</ns3:hr>
            <ns3:cad>55</ns3:cad>
          </ns3:TrackPointExtension>
        </extensions>
      </trkpt>
      <trkpt lat="38.0201490037143230438232421875" lon="-106.93571356125175952911376953125">
        <ele>4134</ele>
        <time>2026-05-25T15:55:34.000Z</time>
        <extensions>
          <ns3:TrackPointExtension>
            <ns3:hr>88</ns3:hr>
            <ns3:cad>0</ns3:cad>
          </ns3:TrackPointExtension>
        </extensions>
      </trkpt>
      <trkpt lat="38.02017993293702602386474609375" lon="-106.93570400588214397430419921875">
        <ele>4133</ele>
        <time>2026-05-25T15:55:40.000Z</time>
        <extensions>
          <ns3:TrackPointExtension>
            <ns3:hr>87</ns3:hr>
            <ns3:cad>0</ns3:cad>
          </ns3:TrackPointExtension>
        </extensions>
      </trkpt>
      <trkpt lat="38.02018227986991405487060546875" lon="-106.93570576608180999755859375">
        <ele>4133</ele>
        <time>2026-05-25T15:55:41.000Z</time>
        <extensions>
          <ns3:TrackPointExtension>
            <ns3:hr>87</ns3:hr>
            <ns3:cad>0</ns3:cad>
          </ns3:TrackPointExtension>
        </extensions>
      </trkpt>
      <trkpt lat="38.02021714858710765838623046875" lon="-106.93571205250918865203857421875">
        <ele>4131.7998046875</ele>
        <time>2026-05-25T15:55:47.000Z</time>
        <extensions>
          <ns3:TrackPointExtension>
            <ns3:hr>87</ns3:hr>
            <ns3:cad>0</ns3:cad>
          </ns3:TrackPointExtension>
        </extensions>
      </trkpt>
      <trkpt lat="38.02025134675204753875732421875" lon="-106.93571356125175952911376953125">
        <ele>4131.2001953125</ele>
        <time>2026-05-25T15:55:53.000Z</time>
        <extensions>
          <ns3:TrackPointExtension>
            <ns3:hr>85</ns3:hr>
            <ns3:cad>64</ns3:cad>
          </ns3:TrackPointExtension>
        </extensions>
      </trkpt>
      <trkpt lat="38.02025335840880870819091796875" lon="-106.93571255542337894439697265625">
        <ele>4131</ele>
        <time>2026-05-25T15:55:54.000Z</time>
        <extensions>
          <ns3:TrackPointExtension>
            <ns3:hr>85</ns3:hr>
            <ns3:cad>64</ns3:cad>
          </ns3:TrackPointExtension>
        </extensions>
      </trkpt>
      <trkpt lat="38.02025503478944301605224609375" lon="-106.9357112981379032135009765625">
        <ele>4130.60009765625</ele>
        <time>2026-05-25T15:55:55.000Z</time>
        <extensions>
          <ns3:TrackPointExtension>
            <ns3:hr>85</ns3:hr>
            <ns3:cad>0</ns3:cad>
          </ns3:TrackPointExtension>
        </extensions>
      </trkpt>
      <trkpt lat="38.02025687880814075469970703125" lon="-106.93571154959499835968017578125">
        <ele>4129.60009765625</ele>
        <time>2026-05-25T15:55:58.000Z</time>
        <extensions>
          <ns3:TrackPointExtension>
            <ns3:hr>86</ns3:hr>
            <ns3:cad>0</ns3:cad>
          </ns3:TrackPointExtension>
        </extensions>
      </trkpt>
      <trkpt lat="38.02026383578777313232421875" lon="-106.93571255542337894439697265625">
        <ele>4129.60009765625</ele>
        <time>2026-05-25T15:56:02.000Z</time>
        <extensions>
          <ns3:TrackPointExtension>
            <ns3:hr>89</ns3:hr>
            <ns3:cad>0</ns3:cad>
          </ns3:TrackPointExtension>
        </extensions>
      </trkpt>
      <trkpt lat="38.020269535481929779052734375" lon="-106.93571406416594982147216796875">
        <ele>4129.60009765625</ele>
        <time>2026-05-25T15:56:03.000Z</time>
        <extensions>
          <ns3:TrackPointExtension>
            <ns3:hr>89</ns3:hr>
            <ns3:cad>0</ns3:cad>
          </ns3:TrackPointExtension>
        </extensions>
      </trkpt>
      <trkpt lat="38.020290993154048919677734375" lon="-106.93570584990084171295166015625">
        <ele>4128.7998046875</ele>
        <time>2026-05-25T15:56:09.000Z</time>
        <extensions>
          <ns3:TrackPointExtension>
            <ns3:hr>88</ns3:hr>
            <ns3:cad>0</ns3:cad>
          </ns3:TrackPointExtension>
        </extensions>
      </trkpt>
      <trkpt lat="38.02030163817107677459716796875" lon="-106.93570886738598346710205078125">
        <ele>4128.60009765625</ele>
        <time>2026-05-25T15:56:10.000Z</time>
        <extensions>
          <ns3:TrackPointExtension>
            <ns3:hr>88</ns3:hr>
            <ns3:cad>0</ns3:cad>
          </ns3:TrackPointExtension>
        </extensions>
      </trkpt>
      <trkpt lat="38.02031823433935642242431640625" lon="-106.93570601753890514373779296875">
        <ele>4127.60009765625</ele>
        <time>2026-05-25T15:56:14.000Z</time>
        <extensions>
          <ns3:TrackPointExtension>
            <ns3:hr>89</ns3:hr>
            <ns3:cad>0</ns3:cad>
          </ns3:TrackPointExtension>
        </extensions>
      </trkpt>
      <trkpt lat="38.020319826900959014892578125" lon="-106.93569478578865528106689453125">
        <ele>4127.39990234375</ele>
        <time>2026-05-25T15:56:16.000Z</time>
        <extensions>
          <ns3:TrackPointExtension>
            <ns3:hr>89</ns3:hr>
            <ns3:cad>0</ns3:cad>
          </ns3:TrackPointExtension>
        </extensions>
      </trkpt>
      <trkpt lat="38.02033902145922183990478515625" lon="-106.93568472750484943389892578125">
        <ele>4126.60009765625</ele>
        <time>2026-05-25T15:56:20.000Z</time>
        <extensions>
          <ns3:TrackPointExtension>
            <ns3:hr>90</ns3:hr>
            <ns3:cad>68</ns3:cad>
          </ns3:TrackPointExtension>
        </extensions>
      </trkpt>
      <trkpt lat="38.0203434638679027557373046875" lon="-106.935685314238071441650390625">
        <ele>4126.2001953125</ele>
        <time>2026-05-25T15:56:22.000Z</time>
        <extensions>
          <ns3:TrackPointExtension>
            <ns3:hr>90</ns3:hr>
            <ns3:cad>0</ns3:cad>
          </ns3:TrackPointExtension>
        </extensions>
      </trkpt>
      <trkpt lat="38.02036182023584842681884765625" lon="-106.93568523041903972625732421875">
        <ele>4125</ele>
        <time>2026-05-25T15:56:27.000Z</time>
        <extensions>
          <ns3:TrackPointExtension>
            <ns3:hr>89</ns3:hr>
            <ns3:cad>0</ns3:cad>
          </ns3:TrackPointExtension>
        </extensions>
      </trkpt>
      <trkpt lat="38.02040775306522846221923828125" lon="-106.9356777705252170562744140625">
        <ele>4124.2001953125</ele>
        <time>2026-05-25T15:56:33.000Z</time>
        <extensions>
          <ns3:TrackPointExtension>
            <ns3:hr>91</ns3:hr>
            <ns3:cad>59</ns3:cad>
          </ns3:TrackPointExtension>
        </extensions>
      </trkpt>
      <trkpt lat="38.02041730843484401702880859375" lon="-106.935678608715534210205078125">
        <ele>4124</ele>
        <time>2026-05-25T15:56:35.000Z</time>
        <extensions>
          <ns3:TrackPointExtension>
            <ns3:hr>91</ns3:hr>
            <ns3:cad>59</ns3:cad>
          </ns3:TrackPointExtension>
        </extensions>
      </trkpt>
      <trkpt lat="38.0204222537577152252197265625" lon="-106.93567835725843906402587890625">
        <ele>4123.7998046875</ele>
        <time>2026-05-25T15:56:36.000Z</time>
        <extensions>
          <ns3:TrackPointExtension>
            <ns3:hr>91</ns3:hr>
            <ns3:cad>59</ns3:cad>
          </ns3:TrackPointExtension>
        </extensions>
      </trkpt>
      <trkpt lat="38.02045452408492565155029296875" lon="-106.9356814585626125335693359375">
        <ele>4123</ele>
        <time>2026-05-25T15:56:41.000Z</time>
        <extensions>
          <ns3:TrackPointExtension>
            <ns3:hr>91</ns3:hr>
            <ns3:cad>18</ns3:cad>
          </ns3:TrackPointExtension>
        </extensions>
      </trkpt>
      <trkpt lat="38.020460642874240875244140625" lon="-106.93567953072488307952880859375">
        <ele>4122.60009765625</ele>
        <time>2026-05-25T15:56:43.000Z</time>
        <extensions>
          <ns3:TrackPointExtension>
            <ns3:hr>91</ns3:hr>
            <ns3:cad>18</ns3:cad>
          </ns3:TrackPointExtension>
        </extensions>
      </trkpt>
      <trkpt lat="38.02048034034669399261474609375" lon="-106.93567919544875621795654296875">
        <ele>4121.60009765625</ele>
        <time>2026-05-25T15:56:47.000Z</time>
        <extensions>
          <ns3:TrackPointExtension>
            <ns3:hr>90</ns3:hr>
            <ns3:cad>0</ns3:cad>
          </ns3:TrackPointExtension>
        </extensions>
      </trkpt>
      <trkpt lat="38.02048972807824611663818359375" lon="-106.935679279267787933349609375">
        <ele>4121.39990234375</ele>
        <time>2026-05-25T15:56:48.000Z</time>
        <extensions>
          <ns3:TrackPointExtension>
            <ns3:hr>91</ns3:hr>
            <ns3:cad>0</ns3:cad>
          </ns3:TrackPointExtension>
        </extensions>
      </trkpt>
      <trkpt lat="38.0205233395099639892578125" lon="-106.9356916844844818115234375">
        <ele>4120.60009765625</ele>
        <time>2026-05-25T15:56:54.000Z</time>
        <extensions>
          <ns3:TrackPointExtension>
            <ns3:hr>93</ns3:hr>
            <ns3:cad>0</ns3:cad>
          </ns3:TrackPointExtension>
        </extensions>
      </trkpt>
      <trkpt lat="38.0205372534692287445068359375" lon="-106.93569797091186046600341796875">
        <ele>4120.39990234375</ele>
        <time>2026-05-25T15:56:56.000Z</time>
        <extensions>
          <ns3:TrackPointExtension>
            <ns3:hr>95</ns3:hr>
            <ns3:cad>0</ns3:cad>
          </ns3:TrackPointExtension>
        </extensions>
      </trkpt>
      <trkpt lat="38.02054488100111484527587890625" lon="-106.93570065312087535858154296875">
        <ele>4119.7998046875</ele>
        <time>2026-05-25T15:57:00.000Z</time>
        <extensions>
          <ns3:TrackPointExtension>
            <ns3:hr>95</ns3:hr>
            <ns3:cad>0</ns3:cad>
          </ns3:TrackPointExtension>
        </extensions>
      </trkpt>
      <trkpt lat="38.02056265063583850860595703125" lon="-106.93570978939533233642578125">
        <ele>4119.2001953125</ele>
        <time>2026-05-25T15:57:02.000Z</time>
        <extensions>
          <ns3:TrackPointExtension>
            <ns3:hr>95</ns3:hr>
            <ns3:cad>0</ns3:cad>
          </ns3:TrackPointExtension>
        </extensions>
      </trkpt>
      <trkpt lat="38.02056868560612201690673828125" lon="-106.9357136450707912445068359375">
        <ele>4118.60009765625</ele>
        <time>2026-05-25T15:57:05.000Z</time>
        <extensions>
          <ns3:TrackPointExtension>
            <ns3:hr>96</ns3:hr>
            <ns3:cad>0</ns3:cad>
          </ns3:TrackPointExtension>
        </extensions>
      </trkpt>
      <trkpt lat="38.020581342279911041259765625" lon="-106.9357180036604404449462890625">
        <ele>4118.2001953125</ele>
        <time>2026-05-25T15:57:08.000Z</time>
        <extensions>
          <ns3:TrackPointExtension>
            <ns3:hr>96</ns3:hr>
            <ns3:cad>0</ns3:cad>
          </ns3:TrackPointExtension>
        </extensions>
      </trkpt>
      <trkpt lat="38.0206056497991085052490234375" lon="-106.935722865164279937744140625">
        <ele>4117.60009765625</ele>
        <time>2026-05-25T15:57:13.000Z</time>
        <extensions>
          <ns3:TrackPointExtension>
            <ns3:hr>96</ns3:hr>
            <ns3:cad>0</ns3:cad>
          </ns3:TrackPointExtension>
        </extensions>
      </trkpt>
      <trkpt lat="38.02062970586121082305908203125" lon="-106.93572320044040679931640625">
        <ele>4117</ele>
        <time>2026-05-25T15:57:16.000Z</time>
        <extensions>
          <ns3:TrackPointExtension>
            <ns3:hr>96</ns3:hr>
            <ns3:cad>0</ns3:cad>
          </ns3:TrackPointExtension>
        </extensions>
      </trkpt>
      <trkpt lat="38.020641021430492401123046875" lon="-106.93572378717362880706787109375">
        <ele>4116.60009765625</ele>
        <time>2026-05-25T15:57:19.000Z</time>
        <extensions>
          <ns3:TrackPointExtension>
            <ns3:hr>98</ns3:hr>
            <ns3:cad>0</ns3:cad>
          </ns3:TrackPointExtension>
        </extensions>
      </trkpt>
      <trkpt lat="38.02066222764551639556884765625" lon="-106.93572781048715114593505859375">
        <ele>4115.7998046875</ele>
        <time>2026-05-25T15:57:23.000Z</time>
        <extensions>
          <ns3:TrackPointExtension>
            <ns3:hr>101</ns3:hr>
            <ns3:cad>71</ns3:cad>
          </ns3:TrackPointExtension>
        </extensions>
      </trkpt>
      <trkpt lat="38.02066507749259471893310546875" lon="-106.935720182955265045166015625">
        <ele>4115.39990234375</ele>
        <time>2026-05-25T15:57:25.000Z</time>
        <extensions>
          <ns3:TrackPointExtension>
            <ns3:hr>98</ns3:hr>
            <ns3:cad>0</ns3:cad>
          </ns3:TrackPointExtension>
        </extensions>
      </trkpt>
      <trkpt lat="38.0206753872334957122802734375" lon="-106.93571607582271099090576171875">
        <ele>4114.7998046875</ele>
        <time>2026-05-25T15:57:27.000Z</time>
        <extensions>
          <ns3:TrackPointExtension>
            <ns3:hr>95</ns3:hr>
            <ns3:cad>0</ns3:cad>
          </ns3:TrackPointExtension>
        </extensions>
      </trkpt>
      <trkpt lat="38.02068133838474750518798828125" lon="-106.93571825511753559112548828125">
        <ele>4114.7998046875</ele>
        <time>2026-05-25T15:57:28.000Z</time>
        <extensions>
          <ns3:TrackPointExtension>
            <ns3:hr>94</ns3:hr>
            <ns3:cad>0</ns3:cad>
          </ns3:TrackPointExtension>
        </extensions>
      </trkpt>
      <trkpt lat="38.02068133838474750518798828125" lon="-106.93571825511753559112548828125">
        <ele>4114.60009765625</ele>
        <time>2026-05-25T15:57:29.000Z</time>
        <extensions>
          <ns3:TrackPointExtension>
            <ns3:hr>94</ns3:hr>
            <ns3:cad>0</ns3:cad>
          </ns3:TrackPointExtension>
        </extensions>
      </trkpt>
      <trkpt lat="38.0207069031894207000732421875" lon="-106.93572051823139190673828125">
        <ele>4113.60009765625</ele>
        <time>2026-05-25T15:57:35.000Z</time>
        <extensions>
          <ns3:TrackPointExtension>
            <ns3:hr>96</ns3:hr>
            <ns3:cad>60</ns3:cad>
          </ns3:TrackPointExtension>
        </extensions>
      </trkpt>
      <trkpt lat="38.02072777412831783294677734375" lon="-106.93572462536394596099853515625">
        <ele>4113.2001953125</ele>
        <time>2026-05-25T15:57:38.000Z</time>
        <extensions>
          <ns3:TrackPointExtension>
            <ns3:hr>98</ns3:hr>
            <ns3:cad>0</ns3:cad>
          </ns3:TrackPointExtension>
        </extensions>
      </trkpt>
      <trkpt lat="38.02074839361011981964111328125" lon="-106.935724206268787384033203125">
        <ele>4112.39990234375</ele>
        <time>2026-05-25T15:57:41.000Z</time>
        <extensions>
          <ns3:TrackPointExtension>
            <ns3:hr>99</ns3:hr>
            <ns3:cad>0</ns3:cad>
          </ns3:TrackPointExtension>
        </extensions>
      </trkpt>
      <trkpt lat="38.0207598768174648284912109375" lon="-106.93571490235626697540283203125">
        <ele>4111.39990234375</ele>
        <time>2026-05-25T15:57:44.000Z</time>
        <extensions>
          <ns3:TrackPointExtension>
            <ns3:hr>101</ns3:hr>
            <ns3:cad>0</ns3:cad>
          </ns3:TrackPointExtension>
        </extensions>
      </trkpt>
      <trkpt lat="38.02079248242080211639404296875" lon="-106.9357133097946643829345703125">
        <ele>4111</ele>
        <time>2026-05-25T15:57:50.000Z</time>
        <extensions>
          <ns3:TrackPointExtension>
            <ns3:hr>103</ns3:hr>
            <ns3:cad>0</ns3:cad>
          </ns3:TrackPointExtension>
        </extensions>
      </trkpt>
      <trkpt lat="38.0208061449229717254638671875" lon="-106.9357025809586048126220703125">
        <ele>4110.2001953125</ele>
        <time>2026-05-25T15:57:54.000Z</time>
        <extensions>
          <ns3:TrackPointExtension>
            <ns3:hr>103</ns3:hr>
            <ns3:cad>0</ns3:cad>
          </ns3:TrackPointExtension>
        </extensions>
      </trkpt>
      <trkpt lat="38.02081041969358921051025390625" lon="-106.93569294176995754241943359375">
        <ele>4109.60009765625</ele>
        <time>2026-05-25T15:57:57.000Z</time>
        <extensions>
          <ns3:TrackPointExtension>
            <ns3:hr>102</ns3:hr>
            <ns3:cad>76</ns3:cad>
          </ns3:TrackPointExtension>
        </extensions>
      </trkpt>
      <trkpt lat="38.02081779576838016510009765625" lon="-106.93569327704608440399169921875">
        <ele>4109.2001953125</ele>
        <time>2026-05-25T15:57:59.000Z</time>
        <extensions>
          <ns3:TrackPointExtension>
            <ns3:hr>102</ns3:hr>
            <ns3:cad>0</ns3:cad>
          </ns3:TrackPointExtension>
        </extensions>
      </trkpt>
      <trkpt lat="38.0208373256027698516845703125" lon="-106.93570635281503200531005859375">
        <ele>4108.60009765625</ele>
        <time>2026-05-25T15:58:05.000Z</time>
        <extensions>
          <ns3:TrackPointExtension>
            <ns3:hr>101</ns3:hr>
            <ns3:cad>0</ns3:cad>
          </ns3:TrackPointExtension>
        </extensions>
      </trkpt>
      <trkpt lat="38.02084780298173427581787109375" lon="-106.9357042573392391204833984375">
        <ele>4108</ele>
        <time>2026-05-25T15:58:08.000Z</time>
        <extensions>
          <ns3:TrackPointExtension>
            <ns3:hr>100</ns3:hr>
            <ns3:cad>51</ns3:cad>
          </ns3:TrackPointExtension>
        </extensions>
      </trkpt>
      <trkpt lat="38.02086674608290195465087890625" lon="-106.93569864146411418914794921875">
        <ele>4108.2001953125</ele>
        <time>2026-05-25T15:58:10.000Z</time>
        <extensions>
          <ns3:TrackPointExtension>
            <ns3:hr>95</ns3:hr>
            <ns3:cad>51</ns3:cad>
          </ns3:TrackPointExtension>
        </extensions>
      </trkpt>
      <trkpt lat="38.02087428979575634002685546875" lon="-106.9356962107121944427490234375">
        <ele>4108.2001953125</ele>
        <time>2026-05-25T15:58:11.000Z</time>
        <extensions>
          <ns3:TrackPointExtension>
            <ns3:hr>90</ns3:hr>
            <ns3:cad>51</ns3:cad>
          </ns3:TrackPointExtension>
        </extensions>
      </trkpt>
      <trkpt lat="38.02088049240410327911376953125" lon="-106.9356941990554332733154296875">
        <ele>4108.2001953125</ele>
        <time>2026-05-25T15:58:12.000Z</time>
        <extensions>
          <ns3:TrackPointExtension>
            <ns3:hr>88</ns3:hr>
            <ns3:cad>51</ns3:cad>
          </ns3:TrackPointExtension>
        </extensions>
      </trkpt>
      <trkpt lat="38.020900525152683258056640625" lon="-106.93568992428481578826904296875">
        <ele>4108</ele>
        <time>2026-05-25T15:58:16.000Z</time>
        <extensions>
          <ns3:TrackPointExtension>
            <ns3:hr>85</ns3:hr>
            <ns3:cad>0</ns3:cad>
          </ns3:TrackPointExtension>
        </extensions>
      </trkpt>
      <trkpt lat="38.020910918712615966796875" lon="-106.9356764294207096099853515625">
        <ele>4107.39990234375</ele>
        <time>2026-05-25T15:58:18.000Z</time>
        <extensions>
          <ns3:TrackPointExtension>
            <ns3:hr>83</ns3:hr>
            <ns3:cad>0</ns3:cad>
          </ns3:TrackPointExtension>
        </extensions>
      </trkpt>
      <trkpt lat="38.02092231810092926025390625" lon="-106.93567349575459957122802734375">
        <ele>4106.60009765625</ele>
        <time>2026-05-25T15:58:20.000Z</time>
        <extensions>
          <ns3:TrackPointExtension>
            <ns3:hr>80</ns3:hr>
            <ns3:cad>0</ns3:cad>
          </ns3:TrackPointExtension>
        </extensions>
      </trkpt>
      <trkpt lat="38.02095609717071056365966796875" lon="-106.9356700591742992401123046875">
        <ele>4105.60009765625</ele>
        <time>2026-05-25T15:58:24.000Z</time>
        <extensions>
          <ns3:TrackPointExtension>
            <ns3:hr>79</ns3:hr>
            <ns3:cad>0</ns3:cad>
          </ns3:TrackPointExtension>
        </extensions>
      </trkpt>
      <trkpt lat="38.02095609717071056365966796875" lon="-106.9356700591742992401123046875">
        <ele>4105.2001953125</ele>
        <time>2026-05-25T15:58:25.000Z</time>
        <extensions>
          <ns3:TrackPointExtension>
            <ns3:hr>79</ns3:hr>
            <ns3:cad>0</ns3:cad>
          </ns3:TrackPointExtension>
        </extensions>
      </trkpt>
      <trkpt lat="38.0209711007773876190185546875" lon="-106.9356663711369037628173828125">
        <ele>4104.60009765625</ele>
        <time>2026-05-25T15:58:27.000Z</time>
        <extensions>
          <ns3:TrackPointExtension>
            <ns3:hr>79</ns3:hr>
            <ns3:cad>54</ns3:cad>
          </ns3:TrackPointExtension>
        </extensions>
      </trkpt>
      <trkpt lat="38.02098979242146015167236328125" lon="-106.9356541335582733154296875">
        <ele>4103.7998046875</ele>
        <time>2026-05-25T15:58:31.000Z</time>
        <extensions>
          <ns3:TrackPointExtension>
            <ns3:hr>81</ns3:hr>
            <ns3:cad>0</ns3:cad>
          </ns3:TrackPointExtension>
        </extensions>
      </trkpt>
      <trkpt lat="38.02099666558206081390380859375" lon="-106.9356492720544338226318359375">
        <ele>4103.39990234375</ele>
        <time>2026-05-25T15:58:34.000Z</time>
        <extensions>
          <ns3:TrackPointExtension>
            <ns3:hr>82</ns3:hr>
            <ns3:cad>0</ns3:cad>
          </ns3:TrackPointExtension>
        </extensions>
      </trkpt>
      <trkpt lat="38.02101711742579936981201171875" lon="-106.93564415909349918365478515625">
        <ele>4103</ele>
        <time>2026-05-25T15:58:38.000Z</time>
        <extensions>
          <ns3:TrackPointExtension>
            <ns3:hr>81</ns3:hr>
            <ns3:cad>0</ns3:cad>
          </ns3:TrackPointExtension>
        </extensions>
      </trkpt>
      <trkpt lat="38.02103572525084018707275390625" lon="-106.93563108332455158233642578125">
        <ele>4102.39990234375</ele>
        <time>2026-05-25T15:58:42.000Z</time>
        <extensions>
          <ns3:TrackPointExtension>
            <ns3:hr>80</ns3:hr>
            <ns3:cad>0</ns3:cad>
          </ns3:TrackPointExtension>
        </extensions>
      </trkpt>
      <trkpt lat="38.0210535787045955657958984375" lon="-106.93563066422939300537109375">
        <ele>4101.60009765625</ele>
        <time>2026-05-25T15:58:45.000Z</time>
        <extensions>
          <ns3:TrackPointExtension>
            <ns3:hr>80</ns3:hr>
            <ns3:cad>0</ns3:cad>
          </ns3:TrackPointExtension>
        </extensions>
      </trkpt>
      <trkpt lat="38.02105617709457874298095703125" lon="-106.935630999505519866943359375">
        <ele>4101.39990234375</ele>
        <time>2026-05-25T15:58:46.000Z</time>
        <extensions>
          <ns3:TrackPointExtension>
            <ns3:hr>80</ns3:hr>
            <ns3:cad>0</ns3:cad>
          </ns3:TrackPointExtension>
        </extensions>
      </trkpt>
      <trkpt lat="38.0210830830037593841552734375" lon="-106.9356224499642848968505859375">
        <ele>4100.2001953125</ele>
        <time>2026-05-25T15:58:50.000Z</time>
        <extensions>
          <ns3:TrackPointExtension>
            <ns3:hr>80</ns3:hr>
            <ns3:cad>0</ns3:cad>
          </ns3:TrackPointExtension>
        </extensions>
      </trkpt>
      <trkpt lat="38.02109758369624614715576171875" lon="-106.935614235699176788330078125">
        <ele>4100</ele>
        <time>2026-05-25T15:58:52.000Z</time>
        <extensions>
          <ns3:TrackPointExtension>
            <ns3:hr>79</ns3:hr>
            <ns3:cad>0</ns3:cad>
          </ns3:TrackPointExtension>
        </extensions>
      </trkpt>
      <trkpt lat="38.02113630808889865875244140625" lon="-106.93560518324375152587890625">
        <ele>4099.2001953125</ele>
        <time>2026-05-25T15:58:57.000Z</time>
        <extensions>
          <ns3:TrackPointExtension>
            <ns3:hr>80</ns3:hr>
            <ns3:cad>52</ns3:cad>
          </ns3:TrackPointExtension>
        </extensions>
      </trkpt>
      <trkpt lat="38.0211464501917362213134765625" lon="-106.93560224957764148712158203125">
        <ele>4098.2001953125</ele>
        <time>2026-05-25T15:59:00.000Z</time>
        <extensions>
          <ns3:TrackPointExtension>
            <ns3:hr>80</ns3:hr>
            <ns3:cad>55</ns3:cad>
          </ns3:TrackPointExtension>
        </extensions>
      </trkpt>
      <trkpt lat="38.021151982247829437255859375" lon="-106.93560292012989521026611328125">
        <ele>4097.7998046875</ele>
        <time>2026-05-25T15:59:01.000Z</time>
        <extensions>
          <ns3:TrackPointExtension>
            <ns3:hr>81</ns3:hr>
            <ns3:cad>55</ns3:cad>
          </ns3:TrackPointExtension>
        </extensions>
      </trkpt>
      <trkpt lat="38.02117310464382171630859375" lon="-106.93561063148081302642822265625">
        <ele>4097.2001953125</ele>
        <time>2026-05-25T15:59:05.000Z</time>
        <extensions>
          <ns3:TrackPointExtension>
            <ns3:hr>80</ns3:hr>
            <ns3:cad>55</ns3:cad>
          </ns3:TrackPointExtension>
        </extensions>
      </trkpt>
      <trkpt lat="38.02116933278739452362060546875" lon="-106.935608871281147003173828125">
        <ele>4096.7998046875</ele>
        <time>2026-05-25T15:59:07.000Z</time>
        <extensions>
          <ns3:TrackPointExtension>
            <ns3:hr>81</ns3:hr>
            <ns3:cad>0</ns3:cad>
          </ns3:TrackPointExtension>
        </extensions>
      </trkpt>
      <trkpt lat="38.021187521517276763916015625" lon="-106.9356164149940013885498046875">
        <ele>4096.39990234375</ele>
        <time>2026-05-25T15:59:12.000Z</time>
        <extensions>
          <ns3:TrackPointExtension>
            <ns3:hr>84</ns3:hr>
            <ns3:cad>0</ns3:cad>
          </ns3:TrackPointExtension>
        </extensions>
      </trkpt>
      <trkpt lat="38.0211994238197803497314453125" lon="-106.93562102504074573516845703125">
        <ele>4096</ele>
        <time>2026-05-25T15:59:14.000Z</time>
        <extensions>
          <ns3:TrackPointExtension>
            <ns3:hr>85</ns3:hr>
            <ns3:cad>0</ns3:cad>
          </ns3:TrackPointExtension>
        </extensions>
      </trkpt>
      <trkpt lat="38.02120822481811046600341796875" lon="-106.93562395870685577392578125">
        <ele>4095.60009765625</ele>
        <time>2026-05-25T15:59:16.000Z</time>
        <extensions>
          <ns3:TrackPointExtension>
            <ns3:hr>88</ns3:hr>
            <ns3:cad>0</ns3:cad>
          </ns3:TrackPointExtension>
        </extensions>
      </trkpt>
      <trkpt lat="38.02123303525149822235107421875" lon="-106.93564030341804027557373046875">
        <ele>4094.800048828125</ele>
        <time>2026-05-25T15:59:19.000Z</time>
        <extensions>
          <ns3:TrackPointExtension>
            <ns3:hr>89</ns3:hr>
            <ns3:cad>0</ns3:cad>
          </ns3:TrackPointExtension>
        </extensions>
      </trkpt>
      <trkpt lat="38.021263293921947479248046875" lon="-106.9356623478233814239501953125">
        <ele>4094.60009765625</ele>
        <time>2026-05-25T15:59:22.000Z</time>
        <extensions>
          <ns3:TrackPointExtension>
            <ns3:hr>89</ns3:hr>
            <ns3:cad>0</ns3:cad>
          </ns3:TrackPointExtension>
        </extensions>
      </trkpt>
      <trkpt lat="38.02131048403680324554443359375" lon="-106.93569512106478214263916015625">
        <ele>4093.800048828125</ele>
        <time>2026-05-25T15:59:28.000Z</time>
        <extensions>
          <ns3:TrackPointExtension>
            <ns3:hr>91</ns3:hr>
            <ns3:cad>0</ns3:cad>
          </ns3:TrackPointExtension>
        </extensions>
      </trkpt>
      <trkpt lat="38.02131618373095989227294921875" lon="-106.93569637835025787353515625">
        <ele>4093.60009765625</ele>
        <time>2026-05-25T15:59:29.000Z</time>
        <extensions>
          <ns3:TrackPointExtension>
            <ns3:hr>91</ns3:hr>
            <ns3:cad>0</ns3:cad>
          </ns3:TrackPointExtension>
        </extensions>
      </trkpt>
      <trkpt lat="38.0213439278304576873779296875" lon="-106.935709454119205474853515625">
        <ele>4092.60009765625</ele>
        <time>2026-05-25T15:59:34.000Z</time>
        <extensions>
          <ns3:TrackPointExtension>
            <ns3:hr>91</ns3:hr>
            <ns3:cad>0</ns3:cad>
          </ns3:TrackPointExtension>
        </extensions>
      </trkpt>
      <trkpt lat="38.0213606916368007659912109375" lon="-106.93571305833756923675537109375">
        <ele>4092.199951171875</ele>
        <time>2026-05-25T15:59:37.000Z</time>
        <extensions>
          <ns3:TrackPointExtension>
            <ns3:hr>91</ns3:hr>
            <ns3:cad>0</ns3:cad>
          </ns3:TrackPointExtension>
        </extensions>
      </trkpt>
      <trkpt lat="38.02138608880341053009033203125" lon="-106.9357216916978359222412109375">
        <ele>4091.39990234375</ele>
        <time>2026-05-25T15:59:41.000Z</time>
        <extensions>
          <ns3:TrackPointExtension>
            <ns3:hr>89</ns3:hr>
            <ns3:cad>0</ns3:cad>
          </ns3:TrackPointExtension>
        </extensions>
      </trkpt>
      <trkpt lat="38.0213962309062480926513671875" lon="-106.935726888477802276611328125">
        <ele>4090.60009765625</ele>
        <time>2026-05-25T15:59:44.000Z</time>
        <extensions>
          <ns3:TrackPointExtension>
            <ns3:hr>89</ns3:hr>
            <ns3:cad>0</ns3:cad>
          </ns3:TrackPointExtension>
        </extensions>
      </trkpt>
      <trkpt lat="38.02140176296234130859375" lon="-106.93572261370718479156494140625">
        <ele>4090.39990234375</ele>
        <time>2026-05-25T15:59:45.000Z</time>
        <extensions>
          <ns3:TrackPointExtension>
            <ns3:hr>90</ns3:hr>
            <ns3:cad>0</ns3:cad>
          </ns3:TrackPointExtension>
        </extensions>
      </trkpt>
      <trkpt lat="38.02141450345516204833984375" lon="-106.93571406416594982147216796875">
        <ele>4090</ele>
        <time>2026-05-25T15:59:46.000Z</time>
        <extensions>
          <ns3:TrackPointExtension>
            <ns3:hr>90</ns3:hr>
            <ns3:cad>0</ns3:cad>
          </ns3:TrackPointExtension>
        </extensions>
      </trkpt>
      <trkpt lat="38.02143319509923458099365234375" lon="-106.9357012398540973663330078125">
        <ele>4089.60009765625</ele>
        <time>2026-05-25T15:59:48.000Z</time>
        <extensions>
          <ns3:TrackPointExtension>
            <ns3:hr>91</ns3:hr>
            <ns3:cad>0</ns3:cad>
          </ns3:TrackPointExtension>
        </extensions>
      </trkpt>
      <trkpt lat="38.02145280875265598297119140625" lon="-106.93569679744541645050048828125">
        <ele>4089.39990234375</ele>
        <time>2026-05-25T15:59:51.000Z</time>
        <extensions>
          <ns3:TrackPointExtension>
            <ns3:hr>90</ns3:hr>
            <ns3:cad>0</ns3:cad>
          </ns3:TrackPointExtension>
        </extensions>
      </trkpt>
      <trkpt lat="38.0214797146618366241455078125" lon="-106.93568707443773746490478515625">
        <ele>4088.60009765625</ele>
        <time>2026-05-25T15:59:54.000Z</time>
        <extensions>
          <ns3:TrackPointExtension>
            <ns3:hr>90</ns3:hr>
            <ns3:cad>0</ns3:cad>
          </ns3:TrackPointExtension>
        </extensions>
      </trkpt>
      <trkpt lat="38.021489940583705902099609375" lon="-106.935679279267787933349609375">
        <ele>4088</ele>
        <time>2026-05-25T15:59:55.000Z</time>
        <extensions>
          <ns3:TrackPointExtension>
            <ns3:hr>91</ns3:hr>
            <ns3:cad>0</ns3:cad>
          </ns3:TrackPointExtension>
        </extensions>
      </trkpt>
      <trkpt lat="38.021512739360332489013671875" lon="-106.935675255954265594482421875">
        <ele>4086.800048828125</ele>
        <time>2026-05-25T15:59:58.000Z</time>
        <extensions>
          <ns3:TrackPointExtension>
            <ns3:hr>91</ns3:hr>
            <ns3:cad>0</ns3:cad>
          </ns3:TrackPointExtension>
        </extensions>
      </trkpt>
      <trkpt lat="38.02151910960674285888671875" lon="-106.93567617796361446380615234375">
        <ele>4086</ele>
        <time>2026-05-25T16:00:00.000Z</time>
        <extensions>
          <ns3:TrackPointExtension>
            <ns3:hr>91</ns3:hr>
            <ns3:cad>0</ns3:cad>
          </ns3:TrackPointExtension>
        </extensions>
      </trkpt>
      <trkpt lat="38.0215370468795299530029296875" lon="-106.93566343747079372406005859375">
        <ele>4085.60009765625</ele>
        <time>2026-05-25T16:00:02.000Z</time>
        <extensions>
          <ns3:TrackPointExtension>
            <ns3:hr>91</ns3:hr>
            <ns3:cad>0</ns3:cad>
          </ns3:TrackPointExtension>
        </extensions>
      </trkpt>
      <trkpt lat="38.0215694010257720947265625" lon="-106.93565472029149532318115234375">
        <ele>4085.39990234375</ele>
        <time>2026-05-25T16:00:06.000Z</time>
        <extensions>
          <ns3:TrackPointExtension>
            <ns3:hr>90</ns3:hr>
            <ns3:cad>0</ns3:cad>
          </ns3:TrackPointExtension>
        </extensions>
      </trkpt>
      <trkpt lat="38.0215890146791934967041015625" lon="-106.93564231507480144500732421875">
        <ele>4084.60009765625</ele>
        <time>2026-05-25T16:00:09.000Z</time>
        <extensions>
          <ns3:TrackPointExtension>
            <ns3:hr>88</ns3:hr>
            <ns3:cad>0</ns3:cad>
          </ns3:TrackPointExtension>
        </extensions>
      </trkpt>
      <trkpt lat="38.02161625586450099945068359375" lon="-106.9356351904571056365966796875">
        <ele>4083.199951171875</ele>
        <time>2026-05-25T16:00:13.000Z</time>
        <extensions>
          <ns3:TrackPointExtension>
            <ns3:hr>87</ns3:hr>
            <ns3:cad>52</ns3:cad>
          </ns3:TrackPointExtension>
        </extensions>
      </trkpt>
      <trkpt lat="38.0216721631586551666259765625" lon="-106.93562739528715610504150390625">
        <ele>4082.39990234375</ele>
        <time>2026-05-25T16:00:19.000Z</time>
        <extensions>
          <ns3:TrackPointExtension>
            <ns3:hr>86</ns3:hr>
            <ns3:cad>0</ns3:cad>
          </ns3:TrackPointExtension>
        </extensions>
      </trkpt>
      <trkpt lat="38.02168029360473155975341796875" lon="-106.93562588654458522796630859375">
        <ele>4082.199951171875</ele>
        <time>2026-05-25T16:00:20.000Z</time>
        <extensions>
          <ns3:TrackPointExtension>
            <ns3:hr>86</ns3:hr>
            <ns3:cad>0</ns3:cad>
          </ns3:TrackPointExtension>
        </extensions>
      </trkpt>
      <trkpt lat="38.021710216999053955078125" lon="-106.93561012856662273406982421875">
        <ele>4081.60009765625</ele>
        <time>2026-05-25T16:00:24.000Z</time>
        <extensions>
          <ns3:TrackPointExtension>
            <ns3:hr>90</ns3:hr>
            <ns3:cad>0</ns3:cad>
          </ns3:TrackPointExtension>
        </extensions>
      </trkpt>
      <trkpt lat="38.0217315070331096649169921875" lon="-106.93558917380869388580322265625">
        <ele>4081</ele>
        <time>2026-05-25T16:00:26.000Z</time>
        <extensions>
          <ns3:TrackPointExtension>
            <ns3:hr>94</ns3:hr>
            <ns3:cad>0</ns3:cad>
          </ns3:TrackPointExtension>
        </extensions>
      </trkpt>
      <trkpt lat="38.021735362708568572998046875" lon="-106.9355791993439197540283203125">
        <ele>4080.800048828125</ele>
        <time>2026-05-25T16:00:27.000Z</time>
        <extensions>
          <ns3:TrackPointExtension>
            <ns3:hr>95</ns3:hr>
            <ns3:cad>0</ns3:cad>
          </ns3:TrackPointExtension>
        </extensions>
      </trkpt>
      <trkpt lat="38.0217519588768482208251953125" lon="-106.9355634413659572601318359375">
        <ele>4079.800048828125</ele>
        <time>2026-05-25T16:00:31.000Z</time>
        <extensions>
          <ns3:TrackPointExtension>
            <ns3:hr>93</ns3:hr>
            <ns3:cad>0</ns3:cad>
          </ns3:TrackPointExtension>
        </extensions>
      </trkpt>
      <trkpt lat="38.02177249453961849212646484375" lon="-106.9355634413659572601318359375">
        <ele>4079.199951171875</ele>
        <time>2026-05-25T16:00:34.000Z</time>
        <extensions>
          <ns3:TrackPointExtension>
            <ns3:hr>94</ns3:hr>
            <ns3:cad>0</ns3:cad>
          </ns3:TrackPointExtension>
        </extensions>
      </trkpt>
      <trkpt lat="38.02179294638335704803466796875" lon="-106.93556017242372035980224609375">
        <ele>4078.60009765625</ele>
        <time>2026-05-25T16:00:37.000Z</time>
        <extensions>
          <ns3:TrackPointExtension>
            <ns3:hr>96</ns3:hr>
            <ns3:cad>0</ns3:cad>
          </ns3:TrackPointExtension>
        </extensions>
      </trkpt>
      <trkpt lat="38.02181172184646129608154296875" lon="-106.93555363453924655914306640625">
        <ele>4078.199951171875</ele>
        <time>2026-05-25T16:00:41.000Z</time>
        <extensions>
          <ns3:TrackPointExtension>
            <ns3:hr>99</ns3:hr>
            <ns3:cad>61</ns3:cad>
          </ns3:TrackPointExtension>
        </extensions>
      </trkpt>
      <trkpt lat="38.02181549370288848876953125" lon="-106.93554659374058246612548828125">
        <ele>4078.199951171875</ele>
        <time>2026-05-25T16:00:42.000Z</time>
        <extensions>
          <ns3:TrackPointExtension>
            <ns3:hr>99</ns3:hr>
            <ns3:cad>61</ns3:cad>
          </ns3:TrackPointExtension>
        </extensions>
      </trkpt>
      <trkpt lat="38.02184273488819599151611328125" lon="-106.93551692180335521697998046875">
        <ele>4077.60009765625</ele>
        <time>2026-05-25T16:00:48.000Z</time>
        <extensions>
          <ns3:TrackPointExtension>
            <ns3:hr>98</ns3:hr>
            <ns3:cad>0</ns3:cad>
          </ns3:TrackPointExtension>
        </extensions>
      </trkpt>
      <trkpt lat="38.02186318673193454742431640625" lon="-106.9355034269392490386962890625">
        <ele>4076.60009765625</ele>
        <time>2026-05-25T16:00:53.000Z</time>
        <extensions>
          <ns3:TrackPointExtension>
            <ns3:hr>97</ns3:hr>
            <ns3:cad>0</ns3:cad>
          </ns3:TrackPointExtension>
        </extensions>
      </trkpt>
      <trkpt lat="38.02186151035130023956298828125" lon="-106.93550652824342250823974609375">
        <ele>4076.39990234375</ele>
        <time>2026-05-25T16:00:54.000Z</time>
        <extensions>
          <ns3:TrackPointExtension>
            <ns3:hr>97</ns3:hr>
            <ns3:cad>0</ns3:cad>
          </ns3:TrackPointExtension>
        </extensions>
      </trkpt>
      <trkpt lat="38.021880872547626495361328125" lon="-106.935519017279148101806640625">
        <ele>4075.60009765625</ele>
        <time>2026-05-25T16:01:00.000Z</time>
        <extensions>
          <ns3:TrackPointExtension>
            <ns3:hr>96</ns3:hr>
            <ns3:cad>0</ns3:cad>
          </ns3:TrackPointExtension>
        </extensions>
      </trkpt>
      <trkpt lat="38.02188632078468799591064453125" lon="-106.9355292432010173797607421875">
        <ele>4075.39990234375</ele>
        <time>2026-05-25T16:01:01.000Z</time>
        <extensions>
          <ns3:TrackPointExtension>
            <ns3:hr>96</ns3:hr>
            <ns3:cad>0</ns3:cad>
          </ns3:TrackPointExtension>
        </extensions>
      </trkpt>
      <trkpt lat="38.02190325222909450531005859375" lon="-106.9355403073132038116455078125">
        <ele>4074.60009765625</ele>
        <time>2026-05-25T16:01:04.000Z</time>
        <extensions>
          <ns3:TrackPointExtension>
            <ns3:hr>95</ns3:hr>
            <ns3:cad>0</ns3:cad>
          </ns3:TrackPointExtension>
        </extensions>
      </trkpt>
      <trkpt lat="38.02191632799804210662841796875" lon="-106.93553938530385494232177734375">
        <ele>4073.60009765625</ele>
        <time>2026-05-25T16:01:07.000Z</time>
        <extensions>
          <ns3:TrackPointExtension>
            <ns3:hr>94</ns3:hr>
            <ns3:cad>0</ns3:cad>
          </ns3:TrackPointExtension>
        </extensions>
      </trkpt>
      <trkpt lat="38.02192755974829196929931640625" lon="-106.9355522096157073974609375">
        <ele>4073.60009765625</ele>
        <time>2026-05-25T16:01:10.000Z</time>
        <extensions>
          <ns3:TrackPointExtension>
            <ns3:hr>93</ns3:hr>
            <ns3:cad>0</ns3:cad>
          </ns3:TrackPointExtension>
        </extensions>
      </trkpt>
      <trkpt lat="38.021938540041446685791015625" lon="-106.9355550594627857208251953125">
        <ele>4072.800048828125</ele>
        <time>2026-05-25T16:01:14.000Z</time>
        <extensions>
          <ns3:TrackPointExtension>
            <ns3:hr>90</ns3:hr>
            <ns3:cad>0</ns3:cad>
          </ns3:TrackPointExtension>
        </extensions>
      </trkpt>
      <trkpt lat="38.02194717340171337127685546875" lon="-106.93557391874492168426513671875">
        <ele>4072.60009765625</ele>
        <time>2026-05-25T16:01:18.000Z</time>
        <extensions>
          <ns3:TrackPointExtension>
            <ns3:hr>87</ns3:hr>
            <ns3:cad>0</ns3:cad>
          </ns3:TrackPointExtension>
        </extensions>
      </trkpt>
      <trkpt lat="38.02194968797266483306884765625" lon="-106.93557525984942913055419921875">
        <ele>4072.39990234375</ele>
        <time>2026-05-25T16:01:20.000Z</time>
        <extensions>
          <ns3:TrackPointExtension>
            <ns3:hr>88</ns3:hr>
            <ns3:cad>0</ns3:cad>
          </ns3:TrackPointExtension>
        </extensions>
      </trkpt>
      <trkpt lat="38.02195522002875804901123046875" lon="-106.93557894788682460784912109375">
        <ele>4072</ele>
        <time>2026-05-25T16:01:22.000Z</time>
        <extensions>
          <ns3:TrackPointExtension>
            <ns3:hr>87</ns3:hr>
            <ns3:cad>0</ns3:cad>
          </ns3:TrackPointExtension>
        </extensions>
      </trkpt>
      <trkpt lat="38.02196578122675418853759765625" lon="-106.9355745054781436920166015625">
        <ele>4071.199951171875</ele>
        <time>2026-05-25T16:01:25.000Z</time>
        <extensions>
          <ns3:TrackPointExtension>
            <ns3:hr>87</ns3:hr>
            <ns3:cad>0</ns3:cad>
          </ns3:TrackPointExtension>
        </extensions>
      </trkpt>
      <trkpt lat="38.0219799466431140899658203125" lon="-106.9355688057839870452880859375">
        <ele>4070.60009765625</ele>
        <time>2026-05-25T16:01:28.000Z</time>
        <extensions>
          <ns3:TrackPointExtension>
            <ns3:hr>86</ns3:hr>
            <ns3:cad>0</ns3:cad>
          </ns3:TrackPointExtension>
        </extensions>
      </trkpt>
      <trkpt lat="38.021995536983013153076171875" lon="-106.935573332011699676513671875">
        <ele>4070.199951171875</ele>
        <time>2026-05-25T16:01:31.000Z</time>
        <extensions>
          <ns3:TrackPointExtension>
            <ns3:hr>84</ns3:hr>
            <ns3:cad>0</ns3:cad>
          </ns3:TrackPointExtension>
        </extensions>
      </trkpt>
      <trkpt lat="38.02202177233994007110595703125" lon="-106.935586743056774139404296875">
        <ele>4068.800048828125</ele>
        <time>2026-05-25T16:01:35.000Z</time>
        <extensions>
          <ns3:TrackPointExtension>
            <ns3:hr>84</ns3:hr>
            <ns3:cad>0</ns3:cad>
          </ns3:TrackPointExtension>
        </extensions>
      </trkpt>
      <trkpt lat="38.02206150256097316741943359375" lon="-106.93559755571186542510986328125">
        <ele>4067.800048828125</ele>
        <time>2026-05-25T16:01:41.000Z</time>
        <extensions>
          <ns3:TrackPointExtension>
            <ns3:hr>84</ns3:hr>
            <ns3:cad>0</ns3:cad>
          </ns3:TrackPointExtension>
        </extensions>
      </trkpt>
      <trkpt lat="38.02207089029252529144287109375" lon="-106.93559202365577220916748046875">
        <ele>4067.800048828125</ele>
        <time>2026-05-25T16:01:42.000Z</time>
        <extensions>
          <ns3:TrackPointExtension>
            <ns3:hr>83</ns3:hr>
            <ns3:cad>0</ns3:cad>
          </ns3:TrackPointExtension>
        </extensions>
      </trkpt>
      <trkpt lat="38.0220979638397693634033203125" lon="-106.93557894788682460784912109375">
        <ele>4067.39990234375</ele>
        <time>2026-05-25T16:01:47.000Z</time>
        <extensions>
          <ns3:TrackPointExtension>
            <ns3:hr>83</ns3:hr>
            <ns3:cad>0</ns3:cad>
          </ns3:TrackPointExtension>
        </extensions>
      </trkpt>
      <trkpt lat="38.02211330272257328033447265625" lon="-106.93557039834558963775634765625">
        <ele>4066.60009765625</ele>
        <time>2026-05-25T16:01:50.000Z</time>
        <extensions>
          <ns3:TrackPointExtension>
            <ns3:hr>85</ns3:hr>
            <ns3:cad>0</ns3:cad>
          </ns3:TrackPointExtension>
        </extensions>
      </trkpt>
      <trkpt lat="38.0221324972808361053466796875" lon="-106.9355570711195468902587890625">
        <ele>4066</ele>
        <time>2026-05-25T16:01:53.000Z</time>
        <extensions>
          <ns3:TrackPointExtension>
            <ns3:hr>84</ns3:hr>
            <ns3:cad>0</ns3:cad>
          </ns3:TrackPointExtension>
        </extensions>
      </trkpt>
      <trkpt lat="38.02215068601071834564208984375" lon="-106.93555480800569057464599609375">
        <ele>4065.39990234375</ele>
        <time>2026-05-25T16:01:55.000Z</time>
        <extensions>
          <ns3:TrackPointExtension>
            <ns3:hr>83</ns3:hr>
            <ns3:cad>0</ns3:cad>
          </ns3:TrackPointExtension>
        </extensions>
      </trkpt>
      <trkpt lat="38.02217960357666015625" lon="-106.93555111996829509735107421875">
        <ele>4064.199951171875</ele>
        <time>2026-05-25T16:02:00.000Z</time>
        <extensions>
          <ns3:TrackPointExtension>
            <ns3:hr>83</ns3:hr>
            <ns3:cad>0</ns3:cad>
          </ns3:TrackPointExtension>
        </extensions>
      </trkpt>
      <trkpt lat="38.0221905000507831573486328125" lon="-106.93554215133190155029296875">
        <ele>4063.199951171875</ele>
        <time>2026-05-25T16:02:04.000Z</time>
        <extensions>
          <ns3:TrackPointExtension>
            <ns3:hr>83</ns3:hr>
            <ns3:cad>0</ns3:cad>
          </ns3:TrackPointExtension>
        </extensions>
      </trkpt>
      <trkpt lat="38.02219259552657604217529296875" lon="-106.9355426542460918426513671875">
        <ele>4063.199951171875</ele>
        <time>2026-05-25T16:02:06.000Z</time>
        <extensions>
          <ns3:TrackPointExtension>
            <ns3:hr>83</ns3:hr>
            <ns3:cad>0</ns3:cad>
          </ns3:TrackPointExtension>
        </extensions>
      </trkpt>
      <trkpt lat="38.0222072638571262359619140625" lon="-106.93552211858332157135009765625">
        <ele>4062.800048828125</ele>
        <time>2026-05-25T16:02:10.000Z</time>
        <extensions>
          <ns3:TrackPointExtension>
            <ns3:hr>86</ns3:hr>
            <ns3:cad>0</ns3:cad>
          </ns3:TrackPointExtension>
        </extensions>
      </trkpt>
      <trkpt lat="38.0222173221409320831298828125" lon="-106.935523040592670440673828125">
        <ele>4062.60009765625</ele>
        <time>2026-05-25T16:02:12.000Z</time>
        <extensions>
          <ns3:TrackPointExtension>
            <ns3:hr>88</ns3:hr>
            <ns3:cad>0</ns3:cad>
          </ns3:TrackPointExtension>
        </extensions>
      </trkpt>
      <trkpt lat="38.02222008816897869110107421875" lon="-106.9355227053165435791015625">
        <ele>4062</ele>
        <time>2026-05-25T16:02:14.000Z</time>
        <extensions>
          <ns3:TrackPointExtension>
            <ns3:hr>88</ns3:hr>
            <ns3:cad>0</ns3:cad>
          </ns3:TrackPointExtension>
        </extensions>
      </trkpt>
      <trkpt lat="38.02223400212824344635009765625" lon="-106.93552195094525814056396484375">
        <ele>4061.199951171875</ele>
        <time>2026-05-25T16:02:19.000Z</time>
        <extensions>
          <ns3:TrackPointExtension>
            <ns3:hr>89</ns3:hr>
            <ns3:cad>68</ns3:cad>
          </ns3:TrackPointExtension>
        </extensions>
      </trkpt>
      <trkpt lat="38.0222461558878421783447265625" lon="-106.93552060984075069427490234375">
        <ele>4061</ele>
        <time>2026-05-25T16:02:23.000Z</time>
        <extensions>
          <ns3:TrackPointExtension>
            <ns3:hr>90</ns3:hr>
            <ns3:cad>0</ns3:cad>
          </ns3:TrackPointExtension>
        </extensions>
      </trkpt>
      <trkpt lat="38.02226208150386810302734375" lon="-106.93552731536328792572021484375">
        <ele>4060.60009765625</ele>
        <time>2026-05-25T16:02:26.000Z</time>
        <extensions>
          <ns3:TrackPointExtension>
            <ns3:hr>91</ns3:hr>
            <ns3:cad>0</ns3:cad>
          </ns3:TrackPointExtension>
        </extensions>
      </trkpt>
      <trkpt lat="38.02229435183107852935791015625" lon="-106.93553418852388858795166015625">
        <ele>4059.800048828125</ele>
        <time>2026-05-25T16:02:31.000Z</time>
        <extensions>
          <ns3:TrackPointExtension>
            <ns3:hr>91</ns3:hr>
            <ns3:cad>0</ns3:cad>
          </ns3:TrackPointExtension>
        </extensions>
      </trkpt>
      <trkpt lat="38.02229871042072772979736328125" lon="-106.93554055877029895782470703125">
        <ele>4059.60009765625</ele>
        <time>2026-05-25T16:02:32.000Z</time>
        <extensions>
          <ns3:TrackPointExtension>
            <ns3:hr>92</ns3:hr>
            <ns3:cad>0</ns3:cad>
          </ns3:TrackPointExtension>
        </extensions>
      </trkpt>
      <trkpt lat="38.022313378751277923583984375" lon="-106.93554776720702648162841796875">
        <ele>4058.800048828125</ele>
        <time>2026-05-25T16:02:35.000Z</time>
        <extensions>
          <ns3:TrackPointExtension>
            <ns3:hr>93</ns3:hr>
            <ns3:cad>0</ns3:cad>
          </ns3:TrackPointExtension>
        </extensions>
      </trkpt>
      <trkpt lat="38.0223195813596248626708984375" lon="-106.93554349243640899658203125">
        <ele>4058.199951171875</ele>
        <time>2026-05-25T16:02:38.000Z</time>
        <extensions>
          <ns3:TrackPointExtension>
            <ns3:hr>93</ns3:hr>
            <ns3:cad>0</ns3:cad>
          </ns3:TrackPointExtension>
        </extensions>
      </trkpt>
      <trkpt lat="38.02232519723474979400634765625" lon="-106.935544498264789581298828125">
        <ele>4057.60009765625</ele>
        <time>2026-05-25T16:02:41.000Z</time>
        <extensions>
          <ns3:TrackPointExtension>
            <ns3:hr>92</ns3:hr>
            <ns3:cad>0</ns3:cad>
          </ns3:TrackPointExtension>
        </extensions>
      </trkpt>
      <trkpt lat="38.02236325107514858245849609375" lon="-106.9355436600744724273681640625">
        <ele>4056.800048828125</ele>
        <time>2026-05-25T16:02:46.000Z</time>
        <extensions>
          <ns3:TrackPointExtension>
            <ns3:hr>92</ns3:hr>
            <ns3:cad>0</ns3:cad>
          </ns3:TrackPointExtension>
        </extensions>
      </trkpt>
      <trkpt lat="38.02237113006412982940673828125" lon="-106.93554609082639217376708984375">
        <ele>4056.60009765625</ele>
        <time>2026-05-25T16:02:47.000Z</time>
        <extensions>
          <ns3:TrackPointExtension>
            <ns3:hr>92</ns3:hr>
            <ns3:cad>0</ns3:cad>
          </ns3:TrackPointExtension>
        </extensions>
      </trkpt>
      <trkpt lat="38.0224049091339111328125" lon="-106.93554617464542388916015625">
        <ele>4055.39990234375</ele>
        <time>2026-05-25T16:02:52.000Z</time>
        <extensions>
          <ns3:TrackPointExtension>
            <ns3:hr>93</ns3:hr>
            <ns3:cad>52</ns3:cad>
          </ns3:TrackPointExtension>
        </extensions>
      </trkpt>
      <trkpt lat="38.022412620484828948974609375" lon="-106.935549192130565643310546875">
        <ele>4055.199951171875</ele>
        <time>2026-05-25T16:02:53.000Z</time>
        <extensions>
          <ns3:TrackPointExtension>
            <ns3:hr>94</ns3:hr>
            <ns3:cad>17</ns3:cad>
          </ns3:TrackPointExtension>
        </extensions>
      </trkpt>
      <trkpt lat="38.02246081642806529998779296875" lon="-106.93554751574993133544921875">
        <ele>4054.199951171875</ele>
        <time>2026-05-25T16:02:59.000Z</time>
        <extensions>
          <ns3:TrackPointExtension>
            <ns3:hr>94</ns3:hr>
            <ns3:cad>0</ns3:cad>
          </ns3:TrackPointExtension>
        </extensions>
      </trkpt>
      <trkpt lat="38.02247523330152034759521484375" lon="-106.93553988821804523468017578125">
        <ele>4053.60009765625</ele>
        <time>2026-05-25T16:03:02.000Z</time>
        <extensions>
          <ns3:TrackPointExtension>
            <ns3:hr>94</ns3:hr>
            <ns3:cad>0</ns3:cad>
          </ns3:TrackPointExtension>
        </extensions>
      </trkpt>
      <trkpt lat="38.02248378284275531768798828125" lon="-106.93554022349417209625244140625">
        <ele>4053.199951171875</ele>
        <time>2026-05-25T16:03:04.000Z</time>
        <extensions>
          <ns3:TrackPointExtension>
            <ns3:hr>94</ns3:hr>
            <ns3:cad>0</ns3:cad>
          </ns3:TrackPointExtension>
        </extensions>
      </trkpt>
      <trkpt lat="38.02250088192522525787353515625" lon="-106.9355416484177112579345703125">
        <ele>4052.60009765625</ele>
        <time>2026-05-25T16:03:08.000Z</time>
        <extensions>
          <ns3:TrackPointExtension>
            <ns3:hr>91</ns3:hr>
            <ns3:cad>0</ns3:cad>
          </ns3:TrackPointExtension>
        </extensions>
      </trkpt>
      <trkpt lat="38.02251613698899745941162109375" lon="-106.935537122189998626708984375">
        <ele>4052.199951171875</ele>
        <time>2026-05-25T16:03:10.000Z</time>
        <extensions>
          <ns3:TrackPointExtension>
            <ns3:hr>92</ns3:hr>
            <ns3:cad>0</ns3:cad>
          </ns3:TrackPointExtension>
        </extensions>
      </trkpt>
      <trkpt lat="38.022522591054439544677734375" lon="-106.93554751574993133544921875">
        <ele>4052</ele>
        <time>2026-05-25T16:03:11.000Z</time>
        <extensions>
          <ns3:TrackPointExtension>
            <ns3:hr>92</ns3:hr>
            <ns3:cad>0</ns3:cad>
          </ns3:TrackPointExtension>
        </extensions>
      </trkpt>
      <trkpt lat="38.022540695965290069580078125" lon="-106.935576014220714569091796875">
        <ele>4051.199951171875</ele>
        <time>2026-05-25T16:03:15.000Z</time>
        <extensions>
          <ns3:TrackPointExtension>
            <ns3:hr>93</ns3:hr>
            <ns3:cad>0</ns3:cad>
          </ns3:TrackPointExtension>
        </extensions>
      </trkpt>
      <trkpt lat="38.022548742592334747314453125" lon="-106.93558649159967899322509765625">
        <ele>4051</ele>
        <time>2026-05-25T16:03:16.000Z</time>
        <extensions>
          <ns3:TrackPointExtension>
            <ns3:hr>93</ns3:hr>
            <ns3:cad>0</ns3:cad>
          </ns3:TrackPointExtension>
        </extensions>
      </trkpt>
      <trkpt lat="38.02258486859500408172607421875" lon="-106.93558800034224987030029296875">
        <ele>4050.39990234375</ele>
        <time>2026-05-25T16:03:21.000Z</time>
        <extensions>
          <ns3:TrackPointExtension>
            <ns3:hr>92</ns3:hr>
            <ns3:cad>0</ns3:cad>
          </ns3:TrackPointExtension>
        </extensions>
      </trkpt>
      <trkpt lat="38.02261152304708957672119140625" lon="-106.9355838932096958160400390625">
        <ele>4049.800048828125</ele>
        <time>2026-05-25T16:03:24.000Z</time>
        <extensions>
          <ns3:TrackPointExtension>
            <ns3:hr>91</ns3:hr>
            <ns3:cad>0</ns3:cad>
          </ns3:TrackPointExtension>
        </extensions>
      </trkpt>
      <trkpt lat="38.022638596594333648681640625" lon="-106.93558028899133205413818359375">
        <ele>4049.199951171875</ele>
        <time>2026-05-25T16:03:28.000Z</time>
        <extensions>
          <ns3:TrackPointExtension>
            <ns3:hr>90</ns3:hr>
            <ns3:cad>0</ns3:cad>
          </ns3:TrackPointExtension>
        </extensions>
      </trkpt>
      <trkpt lat="38.02265812642872333526611328125" lon="-106.93558515049517154693603515625">
        <ele>4048.800048828125</ele>
        <time>2026-05-25T16:03:30.000Z</time>
        <extensions>
          <ns3:TrackPointExtension>
            <ns3:hr>89</ns3:hr>
            <ns3:cad>0</ns3:cad>
          </ns3:TrackPointExtension>
        </extensions>
      </trkpt>
      <trkpt lat="38.02267757244408130645751953125" lon="-106.93559177219867706298828125">
        <ele>4047.800048828125</ele>
        <time>2026-05-25T16:03:33.000Z</time>
        <extensions>
          <ns3:TrackPointExtension>
            <ns3:hr>88</ns3:hr>
            <ns3:cad>0</ns3:cad>
          </ns3:TrackPointExtension>
        </extensions>
      </trkpt>
      <trkpt lat="38.0226823501288890838623046875" lon="-106.93559671752154827117919921875">
        <ele>4047.800048828125</ele>
        <time>2026-05-25T16:03:34.000Z</time>
        <extensions>
          <ns3:TrackPointExtension>
            <ns3:hr>88</ns3:hr>
            <ns3:cad>0</ns3:cad>
          </ns3:TrackPointExtension>
        </extensions>
      </trkpt>
      <trkpt lat="38.022707663476467132568359375" lon="-106.935606859624385833740234375">
        <ele>4046.60009765625</ele>
        <time>2026-05-25T16:03:39.000Z</time>
        <extensions>
          <ns3:TrackPointExtension>
            <ns3:hr>88</ns3:hr>
            <ns3:cad>0</ns3:cad>
          </ns3:TrackPointExtension>
        </extensions>
      </trkpt>
      <trkpt lat="38.0227145366370677947998046875" lon="-106.9356071949005126953125">
        <ele>4046.39990234375</ele>
        <time>2026-05-25T16:03:40.000Z</time>
        <extensions>
          <ns3:TrackPointExtension>
            <ns3:hr>89</ns3:hr>
            <ns3:cad>0</ns3:cad>
          </ns3:TrackPointExtension>
        </extensions>
      </trkpt>
      <trkpt lat="38.02273674868047237396240234375" lon="-106.93562320433557033538818359375">
        <ele>4045.60009765625</ele>
        <time>2026-05-25T16:03:45.000Z</time>
        <extensions>
          <ns3:TrackPointExtension>
            <ns3:hr>89</ns3:hr>
            <ns3:cad>0</ns3:cad>
          </ns3:TrackPointExtension>
        </extensions>
      </trkpt>
      <trkpt lat="38.022745214402675628662109375" lon="-106.9356271438300609588623046875">
        <ele>4045</ele>
        <time>2026-05-25T16:03:48.000Z</time>
        <extensions>
          <ns3:TrackPointExtension>
            <ns3:hr>90</ns3:hr>
            <ns3:cad>0</ns3:cad>
          </ns3:TrackPointExtension>
        </extensions>
      </trkpt>
      <trkpt lat="38.02277144975960254669189453125" lon="-106.93563493900001049041748046875">
        <ele>4044.39990234375</ele>
        <time>2026-05-25T16:03:51.000Z</time>
        <extensions>
          <ns3:TrackPointExtension>
            <ns3:hr>89</ns3:hr>
            <ns3:cad>0</ns3:cad>
          </ns3:TrackPointExtension>
        </extensions>
      </trkpt>
      <trkpt lat="38.02280120551586151123046875" lon="-106.9356247968971729278564453125">
        <ele>4044</ele>
        <time>2026-05-25T16:03:54.000Z</time>
        <extensions>
          <ns3:TrackPointExtension>
            <ns3:hr>88</ns3:hr>
            <ns3:cad>0</ns3:cad>
          </ns3:TrackPointExtension>
        </extensions>
      </trkpt>
      <trkpt lat="38.022820316255092620849609375" lon="-106.93561817519366741180419921875">
        <ele>4043.39990234375</ele>
        <time>2026-05-25T16:03:57.000Z</time>
        <extensions>
          <ns3:TrackPointExtension>
            <ns3:hr>86</ns3:hr>
            <ns3:cad>0</ns3:cad>
          </ns3:TrackPointExtension>
        </extensions>
      </trkpt>
      <trkpt lat="38.02286013029515743255615234375" lon="-106.93562605418264865875244140625">
        <ele>4042.60009765625</ele>
        <time>2026-05-25T16:04:01.000Z</time>
        <extensions>
          <ns3:TrackPointExtension>
            <ns3:hr>85</ns3:hr>
            <ns3:cad>0</ns3:cad>
          </ns3:TrackPointExtension>
        </extensions>
      </trkpt>
      <trkpt lat="38.0228731222450733184814453125" lon="-106.9356237910687923431396484375">
        <ele>4042.39990234375</ele>
        <time>2026-05-25T16:04:03.000Z</time>
        <extensions>
          <ns3:TrackPointExtension>
            <ns3:hr>85</ns3:hr>
            <ns3:cad>0</ns3:cad>
          </ns3:TrackPointExtension>
        </extensions>
      </trkpt>
      <trkpt lat="38.0229016207158565521240234375" lon="-106.93562353961169719696044921875">
        <ele>4042</ele>
        <time>2026-05-25T16:04:07.000Z</time>
        <extensions>
          <ns3:TrackPointExtension>
            <ns3:hr>87</ns3:hr>
            <ns3:cad>72</ns3:cad>
          </ns3:TrackPointExtension>
        </extensions>
      </trkpt>
      <trkpt lat="38.02292752079665660858154296875" lon="-106.935626305639743804931640625">
        <ele>4041.199951171875</ele>
        <time>2026-05-25T16:04:10.000Z</time>
        <extensions>
          <ns3:TrackPointExtension>
            <ns3:hr>87</ns3:hr>
            <ns3:cad>56</ns3:cad>
          </ns3:TrackPointExtension>
        </extensions>
      </trkpt>
      <trkpt lat="38.02294327877461910247802734375" lon="-106.9356258027255535125732421875">
        <ele>4040.800048828125</ele>
        <time>2026-05-25T16:04:12.000Z</time>
        <extensions>
          <ns3:TrackPointExtension>
            <ns3:hr>88</ns3:hr>
            <ns3:cad>0</ns3:cad>
          </ns3:TrackPointExtension>
        </extensions>
      </trkpt>
      <trkpt lat="38.02296590991318225860595703125" lon="-106.9356190972030162811279296875">
        <ele>4040.199951171875</ele>
        <time>2026-05-25T16:04:17.000Z</time>
        <extensions>
          <ns3:TrackPointExtension>
            <ns3:hr>90</ns3:hr>
            <ns3:cad>0</ns3:cad>
          </ns3:TrackPointExtension>
        </extensions>
      </trkpt>
      <trkpt lat="38.02296590991318225860595703125" lon="-106.9356190972030162811279296875">
        <ele>4040.199951171875</ele>
        <time>2026-05-25T16:04:18.000Z</time>
        <extensions>
          <ns3:TrackPointExtension>
            <ns3:hr>90</ns3:hr>
            <ns3:cad>0</ns3:cad>
          </ns3:TrackPointExtension>
        </extensions>
      </trkpt>
      <trkpt lat="38.02299541421234607696533203125" lon="-106.93562018685042858123779296875">
        <ele>4040</ele>
        <time>2026-05-25T16:04:24.000Z</time>
        <extensions>
          <ns3:TrackPointExtension>
            <ns3:hr>90</ns3:hr>
            <ns3:cad>0</ns3:cad>
          </ns3:TrackPointExtension>
        </extensions>
      </trkpt>
      <trkpt lat="38.02303296513855457305908203125" lon="-106.93558766506612300872802734375">
        <ele>4039.39990234375</ele>
        <time>2026-05-25T16:04:30.000Z</time>
        <extensions>
          <ns3:TrackPointExtension>
            <ns3:hr>90</ns3:hr>
            <ns3:cad>0</ns3:cad>
          </ns3:TrackPointExtension>
        </extensions>
      </trkpt>
      <trkpt lat="38.0230360664427280426025390625" lon="-106.93558816798031330108642578125">
        <ele>4039.199951171875</ele>
        <time>2026-05-25T16:04:31.000Z</time>
        <extensions>
          <ns3:TrackPointExtension>
            <ns3:hr>91</ns3:hr>
            <ns3:cad>0</ns3:cad>
          </ns3:TrackPointExtension>
        </extensions>
      </trkpt>
      <trkpt lat="38.023040257394313812255859375" lon="-106.9355862401425838470458984375">
        <ele>4039</ele>
        <time>2026-05-25T16:04:32.000Z</time>
        <extensions>
          <ns3:TrackPointExtension>
            <ns3:hr>91</ns3:hr>
            <ns3:cad>0</ns3:cad>
          </ns3:TrackPointExtension>
        </extensions>
      </trkpt>
      <trkpt lat="38.02305760793387889862060546875" lon="-106.935588754713535308837890625">
        <ele>4038</ele>
        <time>2026-05-25T16:04:35.000Z</time>
        <extensions>
          <ns3:TrackPointExtension>
            <ns3:hr>91</ns3:hr>
            <ns3:cad>0</ns3:cad>
          </ns3:TrackPointExtension>
        </extensions>
      </trkpt>
      <trkpt lat="38.0230682529509067535400390625" lon="-106.9355808757245540618896484375">
        <ele>4037.199951171875</ele>
        <time>2026-05-25T16:04:38.000Z</time>
        <extensions>
          <ns3:TrackPointExtension>
            <ns3:hr>91</ns3:hr>
            <ns3:cad>73</ns3:cad>
          </ns3:TrackPointExtension>
        </extensions>
      </trkpt>
      <trkpt lat="38.0230700969696044921875" lon="-106.93558112718164920806884765625">
        <ele>4037</ele>
        <time>2026-05-25T16:04:41.000Z</time>
        <extensions>
          <ns3:TrackPointExtension>
            <ns3:hr>91</ns3:hr>
            <ns3:cad>0</ns3:cad>
          </ns3:TrackPointExtension>
        </extensions>
      </trkpt>
      <trkpt lat="38.0230887047946453094482421875" lon="-106.93562001921236515045166015625">
        <ele>4036.39990234375</ele>
        <time>2026-05-25T16:04:47.000Z</time>
        <extensions>
          <ns3:TrackPointExtension>
            <ns3:hr>89</ns3:hr>
            <ns3:cad>0</ns3:cad>
          </ns3:TrackPointExtension>
        </extensions>
      </trkpt>
      <trkpt lat="38.023120053112506866455078125" lon="-106.9356418959796428680419921875">
        <ele>4036.39990234375</ele>
        <time>2026-05-25T16:04:52.000Z</time>
        <extensions>
          <ns3:TrackPointExtension>
            <ns3:hr>89</ns3:hr>
            <ns3:cad>57</ns3:cad>
          </ns3:TrackPointExtension>
        </extensions>
      </trkpt>
      <trkpt lat="38.02315500564873218536376953125" lon="-106.935655139386653900146484375">
        <ele>4036</ele>
        <time>2026-05-25T16:04:58.000Z</time>
        <extensions>
          <ns3:TrackPointExtension>
            <ns3:hr>89</ns3:hr>
            <ns3:cad>0</ns3:cad>
          </ns3:TrackPointExtension>
        </extensions>
      </trkpt>
      <trkpt lat="38.02316355518996715545654296875" lon="-106.9356576539576053619384765625">
        <ele>4036</ele>
        <time>2026-05-25T16:04:59.000Z</time>
        <extensions>
          <ns3:TrackPointExtension>
            <ns3:hr>89</ns3:hr>
            <ns3:cad>0</ns3:cad>
          </ns3:TrackPointExtension>
        </extensions>
      </trkpt>
      <trkpt lat="38.02317512221634387969970703125" lon="-106.93565622903406620025634765625">
        <ele>4035.800048828125</ele>
        <time>2026-05-25T16:05:01.000Z</time>
        <extensions>
          <ns3:TrackPointExtension>
            <ns3:hr>89</ns3:hr>
            <ns3:cad>51</ns3:cad>
          </ns3:TrackPointExtension>
        </extensions>
      </trkpt>
      <trkpt lat="38.0231859348714351654052734375" lon="-106.93565002642571926116943359375">
        <ele>4035.199951171875</ele>
        <time>2026-05-25T16:05:04.000Z</time>
        <extensions>
          <ns3:TrackPointExtension>
            <ns3:hr>92</ns3:hr>
            <ns3:cad>0</ns3:cad>
          </ns3:TrackPointExtension>
        </extensions>
      </trkpt>
      <trkpt lat="38.023195825517177581787109375" lon="-106.93564952351152896881103515625">
        <ele>4035</ele>
        <time>2026-05-25T16:05:06.000Z</time>
        <extensions>
          <ns3:TrackPointExtension>
            <ns3:hr>97</ns3:hr>
            <ns3:cad>0</ns3:cad>
          </ns3:TrackPointExtension>
        </extensions>
      </trkpt>
      <trkpt lat="38.023201189935207366943359375" lon="-106.93564734421670436859130859375">
        <ele>4034.800048828125</ele>
        <time>2026-05-25T16:05:07.000Z</time>
        <extensions>
          <ns3:TrackPointExtension>
            <ns3:hr>98</ns3:hr>
            <ns3:cad>0</ns3:cad>
          </ns3:TrackPointExtension>
        </extensions>
      </trkpt>
      <trkpt lat="38.0232110805809497833251953125" lon="-106.93564399145543575286865234375">
        <ele>4034.39990234375</ele>
        <time>2026-05-25T16:05:10.000Z</time>
        <extensions>
          <ns3:TrackPointExtension>
            <ns3:hr>101</ns3:hr>
            <ns3:cad>77</ns3:cad>
          </ns3:TrackPointExtension>
        </extensions>
      </trkpt>
      <trkpt lat="38.0232228152453899383544921875" lon="-106.93564030341804027557373046875">
        <ele>4034</ele>
        <time>2026-05-25T16:05:12.000Z</time>
        <extensions>
          <ns3:TrackPointExtension>
            <ns3:hr>101</ns3:hr>
            <ns3:cad>0</ns3:cad>
          </ns3:TrackPointExtension>
        </extensions>
      </trkpt>
      <trkpt lat="38.0232243239879608154296875" lon="-106.93563938140869140625">
        <ele>4033.60009765625</ele>
        <time>2026-05-25T16:05:13.000Z</time>
        <extensions>
          <ns3:TrackPointExtension>
            <ns3:hr>101</ns3:hr>
            <ns3:cad>0</ns3:cad>
          </ns3:TrackPointExtension>
        </extensions>
      </trkpt>
      <trkpt lat="38.0232415907084941864013671875" lon="-106.93563376553356647491455078125">
        <ele>4033</ele>
        <time>2026-05-25T16:05:19.000Z</time>
        <extensions>
          <ns3:TrackPointExtension>
            <ns3:hr>100</ns3:hr>
            <ns3:cad>0</ns3:cad>
          </ns3:TrackPointExtension>
        </extensions>
      </trkpt>
      <trkpt lat="38.0232436023652553558349609375" lon="-106.93563225679099559783935546875">
        <ele>4033</ele>
        <time>2026-05-25T16:05:20.000Z</time>
        <extensions>
          <ns3:TrackPointExtension>
            <ns3:hr>101</ns3:hr>
            <ns3:cad>0</ns3:cad>
          </ns3:TrackPointExtension>
        </extensions>
      </trkpt>
      <trkpt lat="38.02325852215290069580078125" lon="-106.935627646744251251220703125">
        <ele>4032.60009765625</ele>
        <time>2026-05-25T16:05:23.000Z</time>
        <extensions>
          <ns3:TrackPointExtension>
            <ns3:hr>100</ns3:hr>
            <ns3:cad>0</ns3:cad>
          </ns3:TrackPointExtension>
        </extensions>
      </trkpt>
      <trkpt lat="38.02327059209346771240234375" lon="-106.9356284849345684051513671875">
        <ele>4032.60009765625</ele>
        <time>2026-05-25T16:05:26.000Z</time>
        <extensions>
          <ns3:TrackPointExtension>
            <ns3:hr>98</ns3:hr>
            <ns3:cad>79</ns3:cad>
          </ns3:TrackPointExtension>
        </extensions>
      </trkpt>
      <trkpt lat="38.023298084735870361328125" lon="-106.93564415909349918365478515625">
        <ele>4031.60009765625</ele>
        <time>2026-05-25T16:05:32.000Z</time>
        <extensions>
          <ns3:TrackPointExtension>
            <ns3:hr>97</ns3:hr>
            <ns3:cad>40</ns3:cad>
          </ns3:TrackPointExtension>
        </extensions>
      </trkpt>
      <trkpt lat="38.0233056284487247467041015625" lon="-106.935647428035736083984375">
        <ele>4031.60009765625</ele>
        <time>2026-05-25T16:05:33.000Z</time>
        <extensions>
          <ns3:TrackPointExtension>
            <ns3:hr>97</ns3:hr>
            <ns3:cad>0</ns3:cad>
          </ns3:TrackPointExtension>
        </extensions>
      </trkpt>
      <trkpt lat="38.02331275306642055511474609375" lon="-106.93565346300601959228515625">
        <ele>4031.199951171875</ele>
        <time>2026-05-25T16:05:35.000Z</time>
        <extensions>
          <ns3:TrackPointExtension>
            <ns3:hr>96</ns3:hr>
            <ns3:cad>0</ns3:cad>
          </ns3:TrackPointExtension>
        </extensions>
      </trkpt>
      <trkpt lat="38.02333094179630279541015625" lon="-106.93566259928047657012939453125">
        <ele>4030.39990234375</ele>
        <time>2026-05-25T16:05:38.000Z</time>
        <extensions>
          <ns3:TrackPointExtension>
            <ns3:hr>97</ns3:hr>
            <ns3:cad>0</ns3:cad>
          </ns3:TrackPointExtension>
        </extensions>
      </trkpt>
      <trkpt lat="38.02335633896291255950927734375" lon="-106.9356861524283885955810546875">
        <ele>4030.199951171875</ele>
        <time>2026-05-25T16:05:42.000Z</time>
        <extensions>
          <ns3:TrackPointExtension>
            <ns3:hr>97</ns3:hr>
            <ns3:cad>0</ns3:cad>
          </ns3:TrackPointExtension>
        </extensions>
      </trkpt>
      <trkpt lat="38.02337578497827053070068359375" lon="-106.935690678656101226806640625">
        <ele>4029.60009765625</ele>
        <time>2026-05-25T16:05:45.000Z</time>
        <extensions>
          <ns3:TrackPointExtension>
            <ns3:hr>100</ns3:hr>
            <ns3:cad>0</ns3:cad>
          </ns3:TrackPointExtension>
        </extensions>
      </trkpt>
      <trkpt lat="38.02337796427309513092041015625" lon="-106.93569730035960674285888671875">
        <ele>4029.39990234375</ele>
        <time>2026-05-25T16:05:47.000Z</time>
        <extensions>
          <ns3:TrackPointExtension>
            <ns3:hr>101</ns3:hr>
            <ns3:cad>0</ns3:cad>
          </ns3:TrackPointExtension>
        </extensions>
      </trkpt>
      <trkpt lat="38.0233877710998058319091796875" lon="-106.9357131421566009521484375">
        <ele>4029</ele>
        <time>2026-05-25T16:05:49.000Z</time>
        <extensions>
          <ns3:TrackPointExtension>
            <ns3:hr>100</ns3:hr>
            <ns3:cad>0</ns3:cad>
          </ns3:TrackPointExtension>
        </extensions>
      </trkpt>
      <trkpt lat="38.02339355461299419403076171875" lon="-106.93573384545743465423583984375">
        <ele>4028.60009765625</ele>
        <time>2026-05-25T16:05:51.000Z</time>
        <extensions>
          <ns3:TrackPointExtension>
            <ns3:hr>96</ns3:hr>
            <ns3:cad>0</ns3:cad>
          </ns3:TrackPointExtension>
        </extensions>
      </trkpt>
      <trkpt lat="38.02340813912451267242431640625" lon="-106.93575144745409488677978515625">
        <ele>4028.39990234375</ele>
        <time>2026-05-25T16:05:53.000Z</time>
        <extensions>
          <ns3:TrackPointExtension>
            <ns3:hr>92</ns3:hr>
            <ns3:cad>0</ns3:cad>
          </ns3:TrackPointExtension>
        </extensions>
      </trkpt>
      <trkpt lat="38.02341668866574764251708984375" lon="-106.93576016463339328765869140625">
        <ele>4028.199951171875</ele>
        <time>2026-05-25T16:05:54.000Z</time>
        <extensions>
          <ns3:TrackPointExtension>
            <ns3:hr>92</ns3:hr>
            <ns3:cad>0</ns3:cad>
          </ns3:TrackPointExtension>
        </extensions>
      </trkpt>
      <trkpt lat="38.0234565027058124542236328125" lon="-106.935765109956264495849609375">
        <ele>4027.60009765625</ele>
        <time>2026-05-25T16:06:00.000Z</time>
        <extensions>
          <ns3:TrackPointExtension>
            <ns3:hr>90</ns3:hr>
            <ns3:cad>0</ns3:cad>
          </ns3:TrackPointExtension>
        </extensions>
      </trkpt>
      <trkpt lat="38.02346530370414257049560546875" lon="-106.93577349185943603515625">
        <ele>4027.199951171875</ele>
        <time>2026-05-25T16:06:02.000Z</time>
        <extensions>
          <ns3:TrackPointExtension>
            <ns3:hr>89</ns3:hr>
            <ns3:cad>64</ns3:cad>
          </ns3:TrackPointExtension>
        </extensions>
      </trkpt>
      <trkpt lat="38.02347737364470958709716796875" lon="-106.93578514270484447479248046875">
        <ele>4026.39990234375</ele>
        <time>2026-05-25T16:06:06.000Z</time>
        <extensions>
          <ns3:TrackPointExtension>
            <ns3:hr>88</ns3:hr>
            <ns3:cad>0</ns3:cad>
          </ns3:TrackPointExtension>
        </extensions>
      </trkpt>
      <trkpt lat="38.02350721322000026702880859375" lon="-106.9357813708484172821044921875">
        <ele>4026</ele>
        <time>2026-05-25T16:06:11.000Z</time>
        <extensions>
          <ns3:TrackPointExtension>
            <ns3:hr>88</ns3:hr>
            <ns3:cad>0</ns3:cad>
          </ns3:TrackPointExtension>
        </extensions>
      </trkpt>
      <trkpt lat="38.02351660095155239105224609375" lon="-106.93578447215259075164794921875">
        <ele>4025.800048828125</ele>
        <time>2026-05-25T16:06:13.000Z</time>
        <extensions>
          <ns3:TrackPointExtension>
            <ns3:hr>88</ns3:hr>
            <ns3:cad>0</ns3:cad>
          </ns3:TrackPointExtension>
        </extensions>
      </trkpt>
      <trkpt lat="38.0235327780246734619140625" lon="-106.9358058460056781768798828125">
        <ele>4025.39990234375</ele>
        <time>2026-05-25T16:06:16.000Z</time>
        <extensions>
          <ns3:TrackPointExtension>
            <ns3:hr>92</ns3:hr>
            <ns3:cad>0</ns3:cad>
          </ns3:TrackPointExtension>
        </extensions>
      </trkpt>
      <trkpt lat="38.02354509942233562469482421875" lon="-106.93582068197429180145263671875">
        <ele>4025.199951171875</ele>
        <time>2026-05-25T16:06:18.000Z</time>
        <extensions>
          <ns3:TrackPointExtension>
            <ns3:hr>93</ns3:hr>
            <ns3:cad>0</ns3:cad>
          </ns3:TrackPointExtension>
        </extensions>
      </trkpt>
      <trkpt lat="38.02355222404003143310546875" lon="-106.93583057262003421783447265625">
        <ele>4025</ele>
        <time>2026-05-25T16:06:19.000Z</time>
        <extensions>
          <ns3:TrackPointExtension>
            <ns3:hr>94</ns3:hr>
            <ns3:cad>68</ns3:cad>
          </ns3:TrackPointExtension>
        </extensions>
      </trkpt>
      <trkpt lat="38.02359648048877716064453125" lon="-106.935871057212352752685546875">
        <ele>4024.39990234375</ele>
        <time>2026-05-25T16:06:24.000Z</time>
        <extensions>
          <ns3:TrackPointExtension>
            <ns3:hr>91</ns3:hr>
            <ns3:cad>69</ns3:cad>
          </ns3:TrackPointExtension>
        </extensions>
      </trkpt>
      <trkpt lat="38.02360444329679012298583984375" lon="-106.93587935529649257659912109375">
        <ele>4024.199951171875</ele>
        <time>2026-05-25T16:06:25.000Z</time>
        <extensions>
          <ns3:TrackPointExtension>
            <ns3:hr>91</ns3:hr>
            <ns3:cad>57</ns3:cad>
          </ns3:TrackPointExtension>
        </extensions>
      </trkpt>
      <trkpt lat="38.02362657152116298675537109375" lon="-106.9359027408063411712646484375">
        <ele>4024</ele>
        <time>2026-05-25T16:06:28.000Z</time>
        <extensions>
          <ns3:TrackPointExtension>
            <ns3:hr>91</ns3:hr>
            <ns3:cad>56</ns3:cad>
          </ns3:TrackPointExtension>
        </extensions>
      </trkpt>
      <trkpt lat="38.02364652045071125030517578125" lon="-106.9359357655048370361328125">
        <ele>4023.800048828125</ele>
        <time>2026-05-25T16:06:31.000Z</time>
        <extensions>
          <ns3:TrackPointExtension>
            <ns3:hr>90</ns3:hr>
            <ns3:cad>52</ns3:cad>
          </ns3:TrackPointExtension>
        </extensions>
      </trkpt>
      <trkpt lat="38.023681305348873138427734375" lon="-106.9359936006367206573486328125">
        <ele>4023.60009765625</ele>
        <time>2026-05-25T16:06:37.000Z</time>
        <extensions>
          <ns3:TrackPointExtension>
            <ns3:hr>92</ns3:hr>
            <ns3:cad>47</ns3:cad>
          </ns3:TrackPointExtension>
        </extensions>
      </trkpt>
      <trkpt lat="38.02370284684002399444580078125" lon="-106.93602033890783786773681640625">
        <ele>4023.199951171875</ele>
        <time>2026-05-25T16:06:40.000Z</time>
        <extensions>
          <ns3:TrackPointExtension>
            <ns3:hr>92</ns3:hr>
            <ns3:cad>52</ns3:cad>
          </ns3:TrackPointExtension>
        </extensions>
      </trkpt>
      <trkpt lat="38.0237173475325107574462890625" lon="-106.9360412098467350006103515625">
        <ele>4022.800048828125</ele>
        <time>2026-05-25T16:06:42.000Z</time>
        <extensions>
          <ns3:TrackPointExtension>
            <ns3:hr>92</ns3:hr>
            <ns3:cad>0</ns3:cad>
          </ns3:TrackPointExtension>
        </extensions>
      </trkpt>
      <trkpt lat="38.0237609334290027618408203125" lon="-106.9360925070941448211669921875">
        <ele>4022.60009765625</ele>
        <time>2026-05-25T16:06:47.000Z</time>
        <extensions>
          <ns3:TrackPointExtension>
            <ns3:hr>89</ns3:hr>
            <ns3:cad>0</ns3:cad>
          </ns3:TrackPointExtension>
        </extensions>
      </trkpt>
      <trkpt lat="38.0237746797502040863037109375" lon="-106.9361035712063312530517578125">
        <ele>4022.39990234375</ele>
        <time>2026-05-25T16:06:49.000Z</time>
        <extensions>
          <ns3:TrackPointExtension>
            <ns3:hr>89</ns3:hr>
            <ns3:cad>0</ns3:cad>
          </ns3:TrackPointExtension>
        </extensions>
      </trkpt>
      <trkpt lat="38.02378817461431026458740234375" lon="-106.9361478276550769805908203125">
        <ele>4022</ele>
        <time>2026-05-25T16:06:55.000Z</time>
        <extensions>
          <ns3:TrackPointExtension>
            <ns3:hr>89</ns3:hr>
            <ns3:cad>0</ns3:cad>
          </ns3:TrackPointExtension>
        </extensions>
      </trkpt>
      <trkpt lat="38.02381617017090320587158203125" lon="-106.936217732727527618408203125">
        <ele>4022.800048828125</ele>
        <time>2026-05-25T16:07:01.000Z</time>
        <extensions>
          <ns3:TrackPointExtension>
            <ns3:hr>90</ns3:hr>
            <ns3:cad>16</ns3:cad>
          </ns3:TrackPointExtension>
        </extensions>
      </trkpt>
      <trkpt lat="38.02386243827641010284423828125" lon="-106.93624631501734256744384765625">
        <ele>4022.199951171875</ele>
        <time>2026-05-25T16:07:06.000Z</time>
        <extensions>
          <ns3:TrackPointExtension>
            <ns3:hr>91</ns3:hr>
            <ns3:cad>0</ns3:cad>
          </ns3:TrackPointExtension>
        </extensions>
      </trkpt>
      <trkpt lat="38.02388691343367099761962890625" lon="-106.93626844324171543121337890625">
        <ele>4021.800048828125</ele>
        <time>2026-05-25T16:07:09.000Z</time>
        <extensions>
          <ns3:TrackPointExtension>
            <ns3:hr>92</ns3:hr>
            <ns3:cad>18</ns3:cad>
          </ns3:TrackPointExtension>
        </extensions>
      </trkpt>
      <trkpt lat="38.023899905383586883544921875" lon="-106.9362829439342021942138671875">
        <ele>4021.60009765625</ele>
        <time>2026-05-25T16:07:12.000Z</time>
        <extensions>
          <ns3:TrackPointExtension>
            <ns3:hr>91</ns3:hr>
            <ns3:cad>0</ns3:cad>
          </ns3:TrackPointExtension>
        </extensions>
      </trkpt>
      <trkpt lat="38.023956231772899627685546875" lon="-106.93632812239229679107666015625">
        <ele>4021</ele>
        <time>2026-05-25T16:07:18.000Z</time>
        <extensions>
          <ns3:TrackPointExtension>
            <ns3:hr>90</ns3:hr>
            <ns3:cad>51</ns3:cad>
          </ns3:TrackPointExtension>
        </extensions>
      </trkpt>
      <trkpt lat="38.02398950792849063873291015625" lon="-106.9363620691001415252685546875">
        <ele>4020.60009765625</ele>
        <time>2026-05-25T16:07:22.000Z</time>
        <extensions>
          <ns3:TrackPointExtension>
            <ns3:hr>90</ns3:hr>
            <ns3:cad>0</ns3:cad>
          </ns3:TrackPointExtension>
        </extensions>
      </trkpt>
      <trkpt lat="38.02401532419025897979736328125" lon="-106.93637908436357975006103515625">
        <ele>4020.199951171875</ele>
        <time>2026-05-25T16:07:24.000Z</time>
        <extensions>
          <ns3:TrackPointExtension>
            <ns3:hr>94</ns3:hr>
            <ns3:cad>0</ns3:cad>
          </ns3:TrackPointExtension>
        </extensions>
      </trkpt>
      <trkpt lat="38.02402873523533344268798828125" lon="-106.9363875500857830047607421875">
        <ele>4020</ele>
        <time>2026-05-25T16:07:25.000Z</time>
        <extensions>
          <ns3:TrackPointExtension>
            <ns3:hr>95</ns3:hr>
            <ns3:cad>0</ns3:cad>
          </ns3:TrackPointExtension>
        </extensions>
      </trkpt>
      <trkpt lat="38.024086318910121917724609375" lon="-106.93642166443169116973876953125">
        <ele>4020</ele>
        <time>2026-05-25T16:07:31.000Z</time>
        <extensions>
          <ns3:TrackPointExtension>
            <ns3:hr>95</ns3:hr>
            <ns3:cad>53</ns3:cad>
          </ns3:TrackPointExtension>
        </extensions>
      </trkpt>
      <trkpt lat="38.024092353880405426025390625" lon="-106.936430297791957855224609375">
        <ele>4020</ele>
        <time>2026-05-25T16:07:32.000Z</time>
        <extensions>
          <ns3:TrackPointExtension>
            <ns3:hr>94</ns3:hr>
            <ns3:cad>52</ns3:cad>
          </ns3:TrackPointExtension>
        </extensions>
      </trkpt>
      <trkpt lat="38.0241475068032741546630859375" lon="-106.93646843545138835906982421875">
        <ele>4019.60009765625</ele>
        <time>2026-05-25T16:07:38.000Z</time>
        <extensions>
          <ns3:TrackPointExtension>
            <ns3:hr>92</ns3:hr>
            <ns3:cad>0</ns3:cad>
          </ns3:TrackPointExtension>
        </extensions>
      </trkpt>
      <trkpt lat="38.02416871301829814910888671875" lon="-106.9364750571548938751220703125">
        <ele>4019.60009765625</ele>
        <time>2026-05-25T16:07:40.000Z</time>
        <extensions>
          <ns3:TrackPointExtension>
            <ns3:hr>91</ns3:hr>
            <ns3:cad>50</ns3:cad>
          </ns3:TrackPointExtension>
        </extensions>
      </trkpt>
      <trkpt lat="38.0242169089615345001220703125" lon="-106.936514787375926971435546875">
        <ele>4019</ele>
        <time>2026-05-25T16:07:46.000Z</time>
        <extensions>
          <ns3:TrackPointExtension>
            <ns3:hr>88</ns3:hr>
            <ns3:cad>52</ns3:cad>
          </ns3:TrackPointExtension>
        </extensions>
      </trkpt>
      <trkpt lat="38.02428237162530422210693359375" lon="-106.93655845709145069122314453125">
        <ele>4018.60009765625</ele>
        <time>2026-05-25T16:07:52.000Z</time>
        <extensions>
          <ns3:TrackPointExtension>
            <ns3:hr>86</ns3:hr>
            <ns3:cad>0</ns3:cad>
          </ns3:TrackPointExtension>
        </extensions>
      </trkpt>
      <trkpt lat="38.02433677017688751220703125" lon="-106.936587207019329071044921875">
        <ele>4018.199951171875</ele>
        <time>2026-05-25T16:07:57.000Z</time>
        <extensions>
          <ns3:TrackPointExtension>
            <ns3:hr>85</ns3:hr>
            <ns3:cad>0</ns3:cad>
          </ns3:TrackPointExtension>
        </extensions>
      </trkpt>
      <trkpt lat="38.0244029872119426727294921875" lon="-106.93661763332784175872802734375">
        <ele>4018.39990234375</ele>
        <time>2026-05-25T16:08:02.000Z</time>
        <extensions>
          <ns3:TrackPointExtension>
            <ns3:hr>85</ns3:hr>
            <ns3:cad>0</ns3:cad>
          </ns3:TrackPointExtension>
        </extensions>
      </trkpt>
      <trkpt lat="38.0244541168212890625" lon="-106.9366289488971233367919921875">
        <ele>4019.199951171875</ele>
        <time>2026-05-25T16:08:07.000Z</time>
        <extensions>
          <ns3:TrackPointExtension>
            <ns3:hr>86</ns3:hr>
            <ns3:cad>0</ns3:cad>
          </ns3:TrackPointExtension>
        </extensions>
      </trkpt>
      <trkpt lat="38.02451740019023418426513671875" lon="-106.93664663471281528472900390625">
        <ele>4019.39990234375</ele>
        <time>2026-05-25T16:08:13.000Z</time>
        <extensions>
          <ns3:TrackPointExtension>
            <ns3:hr>87</ns3:hr>
            <ns3:cad>47</ns3:cad>
          </ns3:TrackPointExtension>
        </extensions>
      </trkpt>
      <trkpt lat="38.0245243571698665618896484375" lon="-106.9366510771214962005615234375">
        <ele>4019.39990234375</ele>
        <time>2026-05-25T16:08:14.000Z</time>
        <extensions>
          <ns3:TrackPointExtension>
            <ns3:hr>87</ns3:hr>
            <ns3:cad>49</ns3:cad>
          </ns3:TrackPointExtension>
        </extensions>
      </trkpt>
      <trkpt lat="38.02457238547503948211669921875" lon="-106.936677396297454833984375">
        <ele>4019.39990234375</ele>
        <time>2026-05-25T16:08:20.000Z</time>
        <extensions>
          <ns3:TrackPointExtension>
            <ns3:hr>89</ns3:hr>
            <ns3:cad>49</ns3:cad>
          </ns3:TrackPointExtension>
        </extensions>
      </trkpt>
      <trkpt lat="38.02464815787971019744873046875" lon="-106.93672022782266139984130859375">
        <ele>4019</ele>
        <time>2026-05-25T16:08:26.000Z</time>
        <extensions>
          <ns3:TrackPointExtension>
            <ns3:hr>91</ns3:hr>
            <ns3:cad>50</ns3:cad>
          </ns3:TrackPointExtension>
        </extensions>
      </trkpt>
      <trkpt lat="38.02470557391643524169921875" lon="-106.9367546774446964263916015625">
        <ele>4019.199951171875</ele>
        <time>2026-05-25T16:08:32.000Z</time>
        <extensions>
          <ns3:TrackPointExtension>
            <ns3:hr>92</ns3:hr>
            <ns3:cad>50</ns3:cad>
          </ns3:TrackPointExtension>
        </extensions>
      </trkpt>
      <trkpt lat="38.024715967476367950439453125" lon="-106.93676666356623172760009765625">
        <ele>4019.199951171875</ele>
        <time>2026-05-25T16:08:33.000Z</time>
        <extensions>
          <ns3:TrackPointExtension>
            <ns3:hr>92</ns3:hr>
            <ns3:cad>50</ns3:cad>
          </ns3:TrackPointExtension>
        </extensions>
      </trkpt>
      <trkpt lat="38.02475058473646640777587890625" lon="-106.936803124845027923583984375">
        <ele>4019.60009765625</ele>
        <time>2026-05-25T16:08:38.000Z</time>
        <extensions>
          <ns3:TrackPointExtension>
            <ns3:hr>91</ns3:hr>
            <ns3:cad>52</ns3:cad>
          </ns3:TrackPointExtension>
        </extensions>
      </trkpt>
      <trkpt lat="38.02481998689472675323486328125" lon="-106.93683774210512638092041015625">
        <ele>4020.199951171875</ele>
        <time>2026-05-25T16:08:44.000Z</time>
        <extensions>
          <ns3:TrackPointExtension>
            <ns3:hr>92</ns3:hr>
            <ns3:cad>49</ns3:cad>
          </ns3:TrackPointExtension>
        </extensions>
      </trkpt>
      <trkpt lat="38.02487664856016635894775390625" lon="-106.93686716258525848388671875">
        <ele>4020.39990234375</ele>
        <time>2026-05-25T16:08:50.000Z</time>
        <extensions>
          <ns3:TrackPointExtension>
            <ns3:hr>92</ns3:hr>
            <ns3:cad>49</ns3:cad>
          </ns3:TrackPointExtension>
        </extensions>
      </trkpt>
      <trkpt lat="38.024883270263671875" lon="-106.9368731975555419921875">
        <ele>4020.39990234375</ele>
        <time>2026-05-25T16:08:51.000Z</time>
        <extensions>
          <ns3:TrackPointExtension>
            <ns3:hr>92</ns3:hr>
            <ns3:cad>0</ns3:cad>
          </ns3:TrackPointExtension>
        </extensions>
      </trkpt>
      <trkpt lat="38.02493029274046421051025390625" lon="-106.9368933141231536865234375">
        <ele>4019.60009765625</ele>
        <time>2026-05-25T16:08:57.000Z</time>
        <extensions>
          <ns3:TrackPointExtension>
            <ns3:hr>91</ns3:hr>
            <ns3:cad>61</ns3:cad>
          </ns3:TrackPointExtension>
        </extensions>
      </trkpt>
      <trkpt lat="38.0249655805528163909912109375" lon="-106.936902366578578948974609375">
        <ele>4019.800048828125</ele>
        <time>2026-05-25T16:08:59.000Z</time>
        <extensions>
          <ns3:TrackPointExtension>
            <ns3:hr>94</ns3:hr>
            <ns3:cad>0</ns3:cad>
          </ns3:TrackPointExtension>
        </extensions>
      </trkpt>
      <trkpt lat="38.0249873735010623931884765625" lon="-106.936913430690765380859375">
        <ele>4019.60009765625</ele>
        <time>2026-05-25T16:09:01.000Z</time>
        <extensions>
          <ns3:TrackPointExtension>
            <ns3:hr>97</ns3:hr>
            <ns3:cad>0</ns3:cad>
          </ns3:TrackPointExtension>
        </extensions>
      </trkpt>
      <trkpt lat="38.02503758110105991363525390625" lon="-106.9369337148964405059814453125">
        <ele>4019.199951171875</ele>
        <time>2026-05-25T16:09:06.000Z</time>
        <extensions>
          <ns3:TrackPointExtension>
            <ns3:hr>100</ns3:hr>
            <ns3:cad>42</ns3:cad>
          </ns3:TrackPointExtension>
        </extensions>
      </trkpt>
      <trkpt lat="38.02505015395581722259521484375" lon="-106.9369461201131343841552734375">
        <ele>4019.199951171875</ele>
        <time>2026-05-25T16:09:08.000Z</time>
        <extensions>
          <ns3:TrackPointExtension>
            <ns3:hr>103</ns3:hr>
            <ns3:cad>51</ns3:cad>
          </ns3:TrackPointExtension>
        </extensions>
      </trkpt>
      <trkpt lat="38.0251161195337772369384765625" lon="-106.9369657337665557861328125">
        <ele>4019.199951171875</ele>
        <time>2026-05-25T16:09:14.000Z</time>
        <extensions>
          <ns3:TrackPointExtension>
            <ns3:hr>105</ns3:hr>
            <ns3:cad>51</ns3:cad>
          </ns3:TrackPointExtension>
        </extensions>
      </trkpt>
      <trkpt lat="38.02515794523060321807861328125" lon="-106.936988197267055511474609375">
        <ele>4018.60009765625</ele>
        <time>2026-05-25T16:09:18.000Z</time>
        <extensions>
          <ns3:TrackPointExtension>
            <ns3:hr>107</ns3:hr>
            <ns3:cad>51</ns3:cad>
          </ns3:TrackPointExtension>
        </extensions>
      </trkpt>
      <trkpt lat="38.0251707695424556732177734375" lon="-106.93699683062732219696044921875">
        <ele>4018.39990234375</ele>
        <time>2026-05-25T16:09:19.000Z</time>
        <extensions>
          <ns3:TrackPointExtension>
            <ns3:hr>107</ns3:hr>
            <ns3:cad>53</ns3:cad>
          </ns3:TrackPointExtension>
        </extensions>
      </trkpt>
      <trkpt lat="38.0252217315137386322021484375" lon="-106.93701141513884067535400390625">
        <ele>4018.60009765625</ele>
        <time>2026-05-25T16:09:25.000Z</time>
        <extensions>
          <ns3:TrackPointExtension>
            <ns3:hr>105</ns3:hr>
            <ns3:cad>0</ns3:cad>
          </ns3:TrackPointExtension>
        </extensions>
      </trkpt>
      <trkpt lat="38.025290966033935546875" lon="-106.9370296038687229156494140625">
        <ele>4018.800048828125</ele>
        <time>2026-05-25T16:09:31.000Z</time>
        <extensions>
          <ns3:TrackPointExtension>
            <ns3:hr>105</ns3:hr>
            <ns3:cad>50</ns3:cad>
          </ns3:TrackPointExtension>
        </extensions>
      </trkpt>
      <trkpt lat="38.02531753666698932647705078125" lon="-106.93703203462064266204833984375">
        <ele>4019.199951171875</ele>
        <time>2026-05-25T16:09:33.000Z</time>
        <extensions>
          <ns3:TrackPointExtension>
            <ns3:hr>103</ns3:hr>
            <ns3:cad>0</ns3:cad>
          </ns3:TrackPointExtension>
        </extensions>
      </trkpt>
      <trkpt lat="38.02533547393977642059326171875" lon="-106.93703857250511646270751953125">
        <ele>4019.199951171875</ele>
        <time>2026-05-25T16:09:35.000Z</time>
        <extensions>
          <ns3:TrackPointExtension>
            <ns3:hr>100</ns3:hr>
            <ns3:cad>0</ns3:cad>
          </ns3:TrackPointExtension>
        </extensions>
      </trkpt>
      <trkpt lat="38.02536942064762115478515625" lon="-106.9370473735034465789794921875">
        <ele>4018.60009765625</ele>
        <time>2026-05-25T16:09:38.000Z</time>
        <extensions>
          <ns3:TrackPointExtension>
            <ns3:hr>98</ns3:hr>
            <ns3:cad>0</ns3:cad>
          </ns3:TrackPointExtension>
        </extensions>
      </trkpt>
      <trkpt lat="38.025423400104045867919921875" lon="-106.937061958014965057373046875">
        <ele>4018.199951171875</ele>
        <time>2026-05-25T16:09:43.000Z</time>
        <extensions>
          <ns3:TrackPointExtension>
            <ns3:hr>96</ns3:hr>
            <ns3:cad>0</ns3:cad>
          </ns3:TrackPointExtension>
        </extensions>
      </trkpt>
      <trkpt lat="38.025473020970821380615234375" lon="-106.9370701722800731658935546875">
        <ele>4017.60009765625</ele>
        <time>2026-05-25T16:09:48.000Z</time>
        <extensions>
          <ns3:TrackPointExtension>
            <ns3:hr>94</ns3:hr>
            <ns3:cad>0</ns3:cad>
          </ns3:TrackPointExtension>
        </extensions>
      </trkpt>
      <trkpt lat="38.02548743784427642822265625" lon="-106.93707159720361232757568359375">
        <ele>4017.39990234375</ele>
        <time>2026-05-25T16:09:49.000Z</time>
        <extensions>
          <ns3:TrackPointExtension>
            <ns3:hr>94</ns3:hr>
            <ns3:cad>0</ns3:cad>
          </ns3:TrackPointExtension>
        </extensions>
      </trkpt>
      <trkpt lat="38.02555038593709468841552734375" lon="-106.937090791761875152587890625">
        <ele>4017.800048828125</ele>
        <time>2026-05-25T16:09:55.000Z</time>
        <extensions>
          <ns3:TrackPointExtension>
            <ns3:hr>92</ns3:hr>
            <ns3:cad>0</ns3:cad>
          </ns3:TrackPointExtension>
        </extensions>
      </trkpt>
      <trkpt lat="38.0255566723644733428955078125" lon="-106.937087439000606536865234375">
        <ele>4017.60009765625</ele>
        <time>2026-05-25T16:09:56.000Z</time>
        <extensions>
          <ns3:TrackPointExtension>
            <ns3:hr>92</ns3:hr>
            <ns3:cad>0</ns3:cad>
          </ns3:TrackPointExtension>
        </extensions>
      </trkpt>
      <trkpt lat="38.02555591799318790435791015625" lon="-106.93708266131579875946044921875">
        <ele>4018</ele>
        <time>2026-05-25T16:10:01.000Z</time>
        <extensions>
          <ns3:TrackPointExtension>
            <ns3:hr>90</ns3:hr>
            <ns3:cad>0</ns3:cad>
          </ns3:TrackPointExtension>
        </extensions>
      </trkpt>
      <trkpt lat="38.02557268179953098297119140625" lon="-106.93709850311279296875">
        <ele>4017.60009765625</ele>
        <time>2026-05-25T16:10:04.000Z</time>
        <extensions>
          <ns3:TrackPointExtension>
            <ns3:hr>87</ns3:hr>
            <ns3:cad>0</ns3:cad>
          </ns3:TrackPointExtension>
        </extensions>
      </trkpt>
      <trkpt lat="38.02560101263225078582763671875" lon="-106.9371100701391696929931640625">
        <ele>4017.39990234375</ele>
        <time>2026-05-25T16:10:07.000Z</time>
        <extensions>
          <ns3:TrackPointExtension>
            <ns3:hr>85</ns3:hr>
            <ns3:cad>0</ns3:cad>
          </ns3:TrackPointExtension>
        </extensions>
      </trkpt>
      <trkpt lat="38.025656081736087799072265625" lon="-106.9371251575648784637451171875">
        <ele>4017.199951171875</ele>
        <time>2026-05-25T16:10:13.000Z</time>
        <extensions>
          <ns3:TrackPointExtension>
            <ns3:hr>87</ns3:hr>
            <ns3:cad>45</ns3:cad>
          </ns3:TrackPointExtension>
        </extensions>
      </trkpt>
      <trkpt lat="38.025683574378490447998046875" lon="-106.93712255917489528656005859375">
        <ele>4017.39990234375</ele>
        <time>2026-05-25T16:10:14.000Z</time>
        <extensions>
          <ns3:TrackPointExtension>
            <ns3:hr>87</ns3:hr>
            <ns3:cad>47</ns3:cad>
          </ns3:TrackPointExtension>
        </extensions>
      </trkpt>
      <trkpt lat="38.02573646418750286102294921875" lon="-106.93712356500327587127685546875">
        <ele>4017.39990234375</ele>
        <time>2026-05-25T16:10:18.000Z</time>
        <extensions>
          <ns3:TrackPointExtension>
            <ns3:hr>84</ns3:hr>
            <ns3:cad>47</ns3:cad>
          </ns3:TrackPointExtension>
        </extensions>
      </trkpt>
      <trkpt lat="38.02576345391571521759033203125" lon="-106.93713027052581310272216796875">
        <ele>4017.60009765625</ele>
        <time>2026-05-25T16:10:21.000Z</time>
        <extensions>
          <ns3:TrackPointExtension>
            <ns3:hr>82</ns3:hr>
            <ns3:cad>47</ns3:cad>
          </ns3:TrackPointExtension>
        </extensions>
      </trkpt>
      <trkpt lat="38.02580603398382663726806640625" lon="-106.9371399097144603729248046875">
        <ele>4018</ele>
        <time>2026-05-25T16:10:27.000Z</time>
        <extensions>
          <ns3:TrackPointExtension>
            <ns3:hr>84</ns3:hr>
            <ns3:cad>16</ns3:cad>
          </ns3:TrackPointExtension>
        </extensions>
      </trkpt>
      <trkpt lat="38.02582271397113800048828125" lon="-106.9371452741324901580810546875">
        <ele>4018</ele>
        <time>2026-05-25T16:10:28.000Z</time>
        <extensions>
          <ns3:TrackPointExtension>
            <ns3:hr>85</ns3:hr>
            <ns3:cad>16</ns3:cad>
          </ns3:TrackPointExtension>
        </extensions>
      </trkpt>
      <trkpt lat="38.02587258629500865936279296875" lon="-106.93714921362698078155517578125">
        <ele>4018.199951171875</ele>
        <time>2026-05-25T16:10:34.000Z</time>
        <extensions>
          <ns3:TrackPointExtension>
            <ns3:hr>86</ns3:hr>
            <ns3:cad>0</ns3:cad>
          </ns3:TrackPointExtension>
        </extensions>
      </trkpt>
      <trkpt lat="38.02587258629500865936279296875" lon="-106.93714921362698078155517578125">
        <ele>4018.199951171875</ele>
        <time>2026-05-25T16:10:35.000Z</time>
        <extensions>
          <ns3:TrackPointExtension>
            <ns3:hr>86</ns3:hr>
            <ns3:cad>0</ns3:cad>
          </ns3:TrackPointExtension>
        </extensions>
      </trkpt>
      <trkpt lat="38.0259065330028533935546875" lon="-106.93716798909008502960205078125">
        <ele>4018.199951171875</ele>
        <time>2026-05-25T16:10:39.000Z</time>
        <extensions>
          <ns3:TrackPointExtension>
            <ns3:hr>84</ns3:hr>
            <ns3:cad>0</ns3:cad>
          </ns3:TrackPointExtension>
        </extensions>
      </trkpt>
      <trkpt lat="38.02591332234442234039306640625" lon="-106.9371771253645420074462890625">
        <ele>4018.39990234375</ele>
        <time>2026-05-25T16:10:41.000Z</time>
        <extensions>
          <ns3:TrackPointExtension>
            <ns3:hr>84</ns3:hr>
            <ns3:cad>0</ns3:cad>
          </ns3:TrackPointExtension>
        </extensions>
      </trkpt>
      <trkpt lat="38.025921285152435302734375" lon="-106.9371848367154598236083984375">
        <ele>4018.800048828125</ele>
        <time>2026-05-25T16:10:42.000Z</time>
        <extensions>
          <ns3:TrackPointExtension>
            <ns3:hr>83</ns3:hr>
            <ns3:cad>0</ns3:cad>
          </ns3:TrackPointExtension>
        </extensions>
      </trkpt>
      <trkpt lat="38.02594006061553955078125" lon="-106.93720302544534206390380859375">
        <ele>4019.60009765625</ele>
        <time>2026-05-25T16:10:44.000Z</time>
        <extensions>
          <ns3:TrackPointExtension>
            <ns3:hr>86</ns3:hr>
            <ns3:cad>0</ns3:cad>
          </ns3:TrackPointExtension>
        </extensions>
      </trkpt>
      <trkpt lat="38.02594433538615703582763671875" lon="-106.9372079707682132720947265625">
        <ele>4020</ele>
        <time>2026-05-25T16:10:45.000Z</time>
        <extensions>
          <ns3:TrackPointExtension>
            <ns3:hr>87</ns3:hr>
            <ns3:cad>0</ns3:cad>
          </ns3:TrackPointExtension>
        </extensions>
      </trkpt>
      <trkpt lat="38.02595087327063083648681640625" lon="-106.9372176937758922576904296875">
        <ele>4020.39990234375</ele>
        <time>2026-05-25T16:10:46.000Z</time>
        <extensions>
          <ns3:TrackPointExtension>
            <ns3:hr>87</ns3:hr>
            <ns3:cad>0</ns3:cad>
          </ns3:TrackPointExtension>
        </extensions>
      </trkpt>
      <trkpt lat="38.02595959044992923736572265625" lon="-106.937226913869380950927734375">
        <ele>4021</ele>
        <time>2026-05-25T16:10:48.000Z</time>
        <extensions>
          <ns3:TrackPointExtension>
            <ns3:hr>88</ns3:hr>
            <ns3:cad>0</ns3:cad>
          </ns3:TrackPointExtension>
        </extensions>
      </trkpt>
      <trkpt lat="38.0259683914482593536376953125" lon="-106.9372361339628696441650390625">
        <ele>4021.60009765625</ele>
        <time>2026-05-25T16:10:50.000Z</time>
        <extensions>
          <ns3:TrackPointExtension>
            <ns3:hr>91</ns3:hr>
            <ns3:cad>0</ns3:cad>
          </ns3:TrackPointExtension>
        </extensions>
      </trkpt>
      <trkpt lat="38.0259727500379085540771484375" lon="-106.93723269738256931304931640625">
        <ele>4021.60009765625</ele>
        <time>2026-05-25T16:10:51.000Z</time>
        <extensions>
          <ns3:TrackPointExtension>
            <ns3:hr>92</ns3:hr>
            <ns3:cad>0</ns3:cad>
          </ns3:TrackPointExtension>
        </extensions>
      </trkpt>
      <trkpt lat="38.025983311235904693603515625" lon="-106.93724141456186771392822265625">
        <ele>4022</ele>
        <time>2026-05-25T16:10:53.000Z</time>
        <extensions>
          <ns3:TrackPointExtension>
            <ns3:hr>97</ns3:hr>
            <ns3:cad>0</ns3:cad>
          </ns3:TrackPointExtension>
        </extensions>
      </trkpt>
      <trkpt lat="38.025983311235904693603515625" lon="-106.93724141456186771392822265625">
        <ele>4022.199951171875</ele>
        <time>2026-05-25T16:10:54.000Z</time>
        <extensions>
          <ns3:TrackPointExtension>
            <ns3:hr>100</ns3:hr>
            <ns3:cad>0</ns3:cad>
          </ns3:TrackPointExtension>
        </extensions>
      </trkpt>
      <trkpt lat="38.02600242197513580322265625" lon="-106.9372500479221343994140625">
        <ele>4022.39990234375</ele>
        <time>2026-05-25T16:10:55.000Z</time>
        <extensions>
          <ns3:TrackPointExtension>
            <ns3:hr>103</ns3:hr>
            <ns3:cad>0</ns3:cad>
          </ns3:TrackPointExtension>
        </extensions>
      </trkpt>
      <trkpt lat="38.02603117190301418304443359375" lon="-106.93726102821528911590576171875">
        <ele>4023</ele>
        <time>2026-05-25T16:10:58.000Z</time>
        <extensions>
          <ns3:TrackPointExtension>
            <ns3:hr>107</ns3:hr>
            <ns3:cad>0</ns3:cad>
          </ns3:TrackPointExtension>
        </extensions>
      </trkpt>
      <trkpt lat="38.0260398052632808685302734375" lon="-106.9372656382620334625244140625">
        <ele>4023.199951171875</ele>
        <time>2026-05-25T16:10:59.000Z</time>
        <extensions>
          <ns3:TrackPointExtension>
            <ns3:hr>108</ns3:hr>
            <ns3:cad>0</ns3:cad>
          </ns3:TrackPointExtension>
        </extensions>
      </trkpt>
      <trkpt lat="38.026075176894664764404296875" lon="-106.93727661855518817901611328125">
        <ele>4023.39990234375</ele>
        <time>2026-05-25T16:11:03.000Z</time>
        <extensions>
          <ns3:TrackPointExtension>
            <ns3:hr>108</ns3:hr>
            <ns3:cad>0</ns3:cad>
          </ns3:TrackPointExtension>
        </extensions>
      </trkpt>
      <trkpt lat="38.02610644139349460601806640625" lon="-106.93729036487638950347900390625">
        <ele>4024</ele>
        <time>2026-05-25T16:11:07.000Z</time>
        <extensions>
          <ns3:TrackPointExtension>
            <ns3:hr>111</ns3:hr>
            <ns3:cad>0</ns3:cad>
          </ns3:TrackPointExtension>
        </extensions>
      </trkpt>
      <trkpt lat="38.026119768619537353515625" lon="-106.93730042316019535064697265625">
        <ele>4024</ele>
        <time>2026-05-25T16:11:10.000Z</time>
        <extensions>
          <ns3:TrackPointExtension>
            <ns3:hr>112</ns3:hr>
            <ns3:cad>0</ns3:cad>
          </ns3:TrackPointExtension>
        </extensions>
      </trkpt>
      <trkpt lat="38.02614784799516201019287109375" lon="-106.937318108975887298583984375">
        <ele>4023.800048828125</ele>
        <time>2026-05-25T16:11:13.000Z</time>
        <extensions>
          <ns3:TrackPointExtension>
            <ns3:hr>109</ns3:hr>
            <ns3:cad>0</ns3:cad>
          </ns3:TrackPointExtension>
        </extensions>
      </trkpt>
      <trkpt lat="38.02616260014474391937255859375" lon="-106.9373135827481746673583984375">
        <ele>4023.800048828125</ele>
        <time>2026-05-25T16:11:14.000Z</time>
        <extensions>
          <ns3:TrackPointExtension>
            <ns3:hr>108</ns3:hr>
            <ns3:cad>0</ns3:cad>
          </ns3:TrackPointExtension>
        </extensions>
      </trkpt>
      <trkpt lat="38.0261792801320552825927734375" lon="-106.9373142533004283905029296875">
        <ele>4024.199951171875</ele>
        <time>2026-05-25T16:11:17.000Z</time>
        <extensions>
          <ns3:TrackPointExtension>
            <ns3:hr>108</ns3:hr>
            <ns3:cad>0</ns3:cad>
          </ns3:TrackPointExtension>
        </extensions>
      </trkpt>
      <trkpt lat="38.02618347108364105224609375" lon="-106.93732020445168018341064453125">
        <ele>4024.39990234375</ele>
        <time>2026-05-25T16:11:18.000Z</time>
        <extensions>
          <ns3:TrackPointExtension>
            <ns3:hr>108</ns3:hr>
            <ns3:cad>68</ns3:cad>
          </ns3:TrackPointExtension>
        </extensions>
      </trkpt>
      <trkpt lat="38.02620668895542621612548828125" lon="-106.93734350614249706268310546875">
        <ele>4025.39990234375</ele>
        <time>2026-05-25T16:11:21.000Z</time>
        <extensions>
          <ns3:TrackPointExtension>
            <ns3:hr>109</ns3:hr>
            <ns3:cad>68</ns3:cad>
          </ns3:TrackPointExtension>
        </extensions>
      </trkpt>
      <trkpt lat="38.02623250521719455718994140625" lon="-106.9373705796897411346435546875">
        <ele>4025.60009765625</ele>
        <time>2026-05-25T16:11:25.000Z</time>
        <extensions>
          <ns3:TrackPointExtension>
            <ns3:hr>111</ns3:hr>
            <ns3:cad>0</ns3:cad>
          </ns3:TrackPointExtension>
        </extensions>
      </trkpt>
      <trkpt lat="38.026236109435558319091796875" lon="-106.937375776469707489013671875">
        <ele>4025.60009765625</ele>
        <time>2026-05-25T16:11:27.000Z</time>
        <extensions>
          <ns3:TrackPointExtension>
            <ns3:hr>114</ns3:hr>
            <ns3:cad>0</ns3:cad>
          </ns3:TrackPointExtension>
        </extensions>
      </trkpt>
      <trkpt lat="38.0262418091297149658203125" lon="-106.937379799783229827880859375">
        <ele>4025.800048828125</ele>
        <time>2026-05-25T16:11:28.000Z</time>
        <extensions>
          <ns3:TrackPointExtension>
            <ns3:hr>118</ns3:hr>
            <ns3:cad>0</ns3:cad>
          </ns3:TrackPointExtension>
        </extensions>
      </trkpt>
      <trkpt lat="38.02627273835241794586181640625" lon="-106.9374109804630279541015625">
        <ele>4026.199951171875</ele>
        <time>2026-05-25T16:11:32.000Z</time>
        <extensions>
          <ns3:TrackPointExtension>
            <ns3:hr>120</ns3:hr>
            <ns3:cad>0</ns3:cad>
          </ns3:TrackPointExtension>
        </extensions>
      </trkpt>
      <trkpt lat="38.0262825451791286468505859375" lon="-106.937420032918453216552734375">
        <ele>4026.39990234375</ele>
        <time>2026-05-25T16:11:33.000Z</time>
        <extensions>
          <ns3:TrackPointExtension>
            <ns3:hr>119</ns3:hr>
            <ns3:cad>40</ns3:cad>
          </ns3:TrackPointExtension>
        </extensions>
      </trkpt>
      <trkpt lat="38.02631263621151447296142578125" lon="-106.9374351203441619873046875">
        <ele>4027</ele>
        <time>2026-05-25T16:11:38.000Z</time>
        <extensions>
          <ns3:TrackPointExtension>
            <ns3:hr>120</ns3:hr>
            <ns3:cad>0</ns3:cad>
          </ns3:TrackPointExtension>
        </extensions>
      </trkpt>
      <trkpt lat="38.02633979357779026031494140625" lon="-106.9374483637511730194091796875">
        <ele>4027.39990234375</ele>
        <time>2026-05-25T16:11:44.000Z</time>
        <extensions>
          <ns3:TrackPointExtension>
            <ns3:hr>118</ns3:hr>
            <ns3:cad>0</ns3:cad>
          </ns3:TrackPointExtension>
        </extensions>
      </trkpt>
      <trkpt lat="38.0263485945761203765869140625" lon="-106.9374520517885684967041015625">
        <ele>4027.800048828125</ele>
        <time>2026-05-25T16:11:45.000Z</time>
        <extensions>
          <ns3:TrackPointExtension>
            <ns3:hr>118</ns3:hr>
            <ns3:cad>0</ns3:cad>
          </ns3:TrackPointExtension>
        </extensions>
      </trkpt>
      <trkpt lat="38.02640282548964023590087890625" lon="-106.93745951168239116668701171875">
        <ele>4028.199951171875</ele>
        <time>2026-05-25T16:11:51.000Z</time>
        <extensions>
          <ns3:TrackPointExtension>
            <ns3:hr>116</ns3:hr>
            <ns3:cad>0</ns3:cad>
          </ns3:TrackPointExtension>
        </extensions>
      </trkpt>
      <trkpt lat="38.0264153145253658294677734375" lon="-106.9374631159007549285888671875">
        <ele>4028.199951171875</ele>
        <time>2026-05-25T16:11:52.000Z</time>
        <extensions>
          <ns3:TrackPointExtension>
            <ns3:hr>116</ns3:hr>
            <ns3:cad>0</ns3:cad>
          </ns3:TrackPointExtension>
        </extensions>
      </trkpt>
      <trkpt lat="38.0264438129961490631103515625" lon="-106.93747426383197307586669921875">
        <ele>4028.800048828125</ele>
        <time>2026-05-25T16:11:56.000Z</time>
        <extensions>
          <ns3:TrackPointExtension>
            <ns3:hr>114</ns3:hr>
            <ns3:cad>42</ns3:cad>
          </ns3:TrackPointExtension>
        </extensions>
      </trkpt>
      <trkpt lat="38.02645395509898662567138671875" lon="-106.93747929297387599945068359375">
        <ele>4029</ele>
        <time>2026-05-25T16:11:57.000Z</time>
        <extensions>
          <ns3:TrackPointExtension>
            <ns3:hr>113</ns3:hr>
            <ns3:cad>0</ns3:cad>
          </ns3:TrackPointExtension>
        </extensions>
      </trkpt>
      <trkpt lat="38.02646786905825138092041015625" lon="-106.93748465739190578460693359375">
        <ele>4030</ele>
        <time>2026-05-25T16:12:02.000Z</time>
        <extensions>
          <ns3:TrackPointExtension>
            <ns3:hr>112</ns3:hr>
            <ns3:cad>0</ns3:cad>
          </ns3:TrackPointExtension>
        </extensions>
      </trkpt>
      <trkpt lat="38.02649251185357570648193359375" lon="-106.937490440905094146728515625">
        <ele>4030.199951171875</ele>
        <time>2026-05-25T16:12:04.000Z</time>
        <extensions>
          <ns3:TrackPointExtension>
            <ns3:hr>111</ns3:hr>
            <ns3:cad>0</ns3:cad>
          </ns3:TrackPointExtension>
        </extensions>
      </trkpt>
      <trkpt lat="38.02652142941951751708984375" lon="-106.93750913254916667938232421875">
        <ele>4029.800048828125</ele>
        <time>2026-05-25T16:12:10.000Z</time>
        <extensions>
          <ns3:TrackPointExtension>
            <ns3:hr>114</ns3:hr>
            <ns3:cad>0</ns3:cad>
          </ns3:TrackPointExtension>
        </extensions>
      </trkpt>
      <trkpt lat="38.02653458900749683380126953125" lon="-106.937512569129467010498046875">
        <ele>4030</ele>
        <time>2026-05-25T16:12:12.000Z</time>
        <extensions>
          <ns3:TrackPointExtension>
            <ns3:hr>118</ns3:hr>
            <ns3:cad>0</ns3:cad>
          </ns3:TrackPointExtension>
        </extensions>
      </trkpt>
      <trkpt lat="38.0265477485954761505126953125" lon="-106.93751516751945018768310546875">
        <ele>4030.39990234375</ele>
        <time>2026-05-25T16:12:14.000Z</time>
        <extensions>
          <ns3:TrackPointExtension>
            <ns3:hr>121</ns3:hr>
            <ns3:cad>0</ns3:cad>
          </ns3:TrackPointExtension>
        </extensions>
      </trkpt>
      <trkpt lat="38.02656208164989948272705078125" lon="-106.9375155866146087646484375">
        <ele>4031</ele>
        <time>2026-05-25T16:12:17.000Z</time>
        <extensions>
          <ns3:TrackPointExtension>
            <ns3:hr>120</ns3:hr>
            <ns3:cad>0</ns3:cad>
          </ns3:TrackPointExtension>
        </extensions>
      </trkpt>
      <trkpt lat="38.0265973694622516632080078125" lon="-106.93753092549741268157958984375">
        <ele>4031.60009765625</ele>
        <time>2026-05-25T16:12:23.000Z</time>
        <extensions>
          <ns3:TrackPointExtension>
            <ns3:hr>119</ns3:hr>
            <ns3:cad>0</ns3:cad>
          </ns3:TrackPointExtension>
        </extensions>
      </trkpt>
      <trkpt lat="38.02660499699413776397705078125" lon="-106.9375375472009181976318359375">
        <ele>4031.60009765625</ele>
        <time>2026-05-25T16:12:24.000Z</time>
        <extensions>
          <ns3:TrackPointExtension>
            <ns3:hr>121</ns3:hr>
            <ns3:cad>0</ns3:cad>
          </ns3:TrackPointExtension>
        </extensions>
      </trkpt>
      <trkpt lat="38.026639781892299652099609375" lon="-106.93753913976252079010009765625">
        <ele>4032</ele>
        <time>2026-05-25T16:12:29.000Z</time>
        <extensions>
          <ns3:TrackPointExtension>
            <ns3:hr>120</ns3:hr>
            <ns3:cad>0</ns3:cad>
          </ns3:TrackPointExtension>
        </extensions>
      </trkpt>
      <trkpt lat="38.02665009163320064544677734375" lon="-106.937536709010601043701171875">
        <ele>4032.199951171875</ele>
        <time>2026-05-25T16:12:30.000Z</time>
        <extensions>
          <ns3:TrackPointExtension>
            <ns3:hr>117</ns3:hr>
            <ns3:cad>0</ns3:cad>
          </ns3:TrackPointExtension>
        </extensions>
      </trkpt>
      <trkpt lat="38.0266843736171722412109375" lon="-106.937535367906093597412109375">
        <ele>4033</ele>
        <time>2026-05-25T16:12:35.000Z</time>
        <extensions>
          <ns3:TrackPointExtension>
            <ns3:hr>117</ns3:hr>
            <ns3:cad>0</ns3:cad>
          </ns3:TrackPointExtension>
        </extensions>
      </trkpt>
      <trkpt lat="38.0266922526061534881591796875" lon="-106.9375405646860599517822265625">
        <ele>4033.199951171875</ele>
        <time>2026-05-25T16:12:36.000Z</time>
        <extensions>
          <ns3:TrackPointExtension>
            <ns3:hr>117</ns3:hr>
            <ns3:cad>0</ns3:cad>
          </ns3:TrackPointExtension>
        </extensions>
      </trkpt>
      <trkpt lat="38.02673223428428173065185546875" lon="-106.9375777803361415863037109375">
        <ele>4033.199951171875</ele>
        <time>2026-05-25T16:12:40.000Z</time>
        <extensions>
          <ns3:TrackPointExtension>
            <ns3:hr>118</ns3:hr>
            <ns3:cad>18</ns3:cad>
          </ns3:TrackPointExtension>
        </extensions>
      </trkpt>
      <trkpt lat="38.02676693536341190338134765625" lon="-106.9376059435307979583740234375">
        <ele>4033.199951171875</ele>
        <time>2026-05-25T16:12:45.000Z</time>
        <extensions>
          <ns3:TrackPointExtension>
            <ns3:hr>117</ns3:hr>
            <ns3:cad>0</ns3:cad>
          </ns3:TrackPointExtension>
        </extensions>
      </trkpt>
      <trkpt lat="38.0268069170415401458740234375" lon="-106.93761927075684070587158203125">
        <ele>4034</ele>
        <time>2026-05-25T16:12:51.000Z</time>
        <extensions>
          <ns3:TrackPointExtension>
            <ns3:hr>114</ns3:hr>
            <ns3:cad>0</ns3:cad>
          </ns3:TrackPointExtension>
        </extensions>
      </trkpt>
      <trkpt lat="38.026812784373760223388671875" lon="-106.93761860020458698272705078125">
        <ele>4034.199951171875</ele>
        <time>2026-05-25T16:12:52.000Z</time>
        <extensions>
          <ns3:TrackPointExtension>
            <ns3:hr>114</ns3:hr>
            <ns3:cad>0</ns3:cad>
          </ns3:TrackPointExtension>
        </extensions>
      </trkpt>
      <trkpt lat="38.02686341106891632080078125" lon="-106.9376391358673572540283203125">
        <ele>4034.800048828125</ele>
        <time>2026-05-25T16:12:58.000Z</time>
        <extensions>
          <ns3:TrackPointExtension>
            <ns3:hr>111</ns3:hr>
            <ns3:cad>0</ns3:cad>
          </ns3:TrackPointExtension>
        </extensions>
      </trkpt>
      <trkpt lat="38.02687338553369045257568359375" lon="-106.93764642812311649322509765625">
        <ele>4035</ele>
        <time>2026-05-25T16:12:59.000Z</time>
        <extensions>
          <ns3:TrackPointExtension>
            <ns3:hr>111</ns3:hr>
            <ns3:cad>0</ns3:cad>
          </ns3:TrackPointExtension>
        </extensions>
      </trkpt>
      <trkpt lat="38.02689601667225360870361328125" lon="-106.93766252137720584869384765625">
        <ele>4035.199951171875</ele>
        <time>2026-05-25T16:13:03.000Z</time>
        <extensions>
          <ns3:TrackPointExtension>
            <ns3:hr>108</ns3:hr>
            <ns3:cad>0</ns3:cad>
          </ns3:TrackPointExtension>
        </extensions>
      </trkpt>
      <trkpt lat="38.02690255455672740936279296875" lon="-106.93766176700592041015625">
        <ele>4035.39990234375</ele>
        <time>2026-05-25T16:13:04.000Z</time>
        <extensions>
          <ns3:TrackPointExtension>
            <ns3:hr>105</ns3:hr>
            <ns3:cad>0</ns3:cad>
          </ns3:TrackPointExtension>
        </extensions>
      </trkpt>
      <trkpt lat="38.026907332241535186767578125" lon="-106.937662102282047271728515625">
        <ele>4035.60009765625</ele>
        <time>2026-05-25T16:13:05.000Z</time>
        <extensions>
          <ns3:TrackPointExtension>
            <ns3:hr>103</ns3:hr>
            <ns3:cad>0</ns3:cad>
          </ns3:TrackPointExtension>
        </extensions>
      </trkpt>
      <trkpt lat="38.026930131018161773681640625" lon="-106.93765028379857540130615234375">
        <ele>4036.39990234375</ele>
        <time>2026-05-25T16:13:09.000Z</time>
        <extensions>
          <ns3:TrackPointExtension>
            <ns3:hr>102</ns3:hr>
            <ns3:cad>0</ns3:cad>
          </ns3:TrackPointExtension>
        </extensions>
      </trkpt>
      <trkpt lat="38.02696659229695796966552734375" lon="-106.93766109645366668701171875">
        <ele>4036.800048828125</ele>
        <time>2026-05-25T16:13:12.000Z</time>
        <extensions>
          <ns3:TrackPointExtension>
            <ns3:hr>102</ns3:hr>
            <ns3:cad>0</ns3:cad>
          </ns3:TrackPointExtension>
        </extensions>
      </trkpt>
      <trkpt lat="38.02699157036840915679931640625" lon="-106.93764810450375080108642578125">
        <ele>4037.60009765625</ele>
        <time>2026-05-25T16:13:16.000Z</time>
        <extensions>
          <ns3:TrackPointExtension>
            <ns3:hr>103</ns3:hr>
            <ns3:cad>0</ns3:cad>
          </ns3:TrackPointExtension>
        </extensions>
      </trkpt>
      <trkpt lat="38.0270111002027988433837890625" lon="-106.9376434944570064544677734375">
        <ele>4037.60009765625</ele>
        <time>2026-05-25T16:13:17.000Z</time>
        <extensions>
          <ns3:TrackPointExtension>
            <ns3:hr>103</ns3:hr>
            <ns3:cad>0</ns3:cad>
          </ns3:TrackPointExtension>
        </extensions>
      </trkpt>
      <trkpt lat="38.0270406045019626617431640625" lon="-106.93764106370508670806884765625">
        <ele>4037.60009765625</ele>
        <time>2026-05-25T16:13:22.000Z</time>
        <extensions>
          <ns3:TrackPointExtension>
            <ns3:hr>104</ns3:hr>
            <ns3:cad>0</ns3:cad>
          </ns3:TrackPointExtension>
        </extensions>
      </trkpt>
      <trkpt lat="38.027085363864898681640625" lon="-106.93764626048505306243896484375">
        <ele>4038.199951171875</ele>
        <time>2026-05-25T16:13:28.000Z</time>
        <extensions>
          <ns3:TrackPointExtension>
            <ns3:hr>105</ns3:hr>
            <ns3:cad>0</ns3:cad>
          </ns3:TrackPointExtension>
        </extensions>
      </trkpt>
      <trkpt lat="38.02709852345287799835205078125" lon="-106.9376468472182750701904296875">
        <ele>4038.39990234375</ele>
        <time>2026-05-25T16:13:30.000Z</time>
        <extensions>
          <ns3:TrackPointExtension>
            <ns3:hr>108</ns3:hr>
            <ns3:cad>0</ns3:cad>
          </ns3:TrackPointExtension>
        </extensions>
      </trkpt>
      <trkpt lat="38.02711662836372852325439453125" lon="-106.9376491941511631011962890625">
        <ele>4038.60009765625</ele>
        <time>2026-05-25T16:13:32.000Z</time>
        <extensions>
          <ns3:TrackPointExtension>
            <ns3:hr>111</ns3:hr>
            <ns3:cad>0</ns3:cad>
          </ns3:TrackPointExtension>
        </extensions>
      </trkpt>
      <trkpt lat="38.02712635137140750885009765625" lon="-106.9376445002853870391845703125">
        <ele>4038.800048828125</ele>
        <time>2026-05-25T16:13:34.000Z</time>
        <extensions>
          <ns3:TrackPointExtension>
            <ns3:hr>108</ns3:hr>
            <ns3:cad>0</ns3:cad>
          </ns3:TrackPointExtension>
        </extensions>
      </trkpt>
      <trkpt lat="38.0271364934742450714111328125" lon="-106.93763989023864269256591796875">
        <ele>4038.800048828125</ele>
        <time>2026-05-25T16:13:36.000Z</time>
        <extensions>
          <ns3:TrackPointExtension>
            <ns3:hr>105</ns3:hr>
            <ns3:cad>0</ns3:cad>
          </ns3:TrackPointExtension>
        </extensions>
      </trkpt>
      <trkpt lat="38.02717563696205615997314453125" lon="-106.9376274012029170989990234375">
        <ele>4039.60009765625</ele>
        <time>2026-05-25T16:13:41.000Z</time>
        <extensions>
          <ns3:TrackPointExtension>
            <ns3:hr>104</ns3:hr>
            <ns3:cad>76</ns3:cad>
          </ns3:TrackPointExtension>
        </extensions>
      </trkpt>
      <trkpt lat="38.027194999158382415771484375" lon="-106.93762597627937793731689453125">
        <ele>4039.800048828125</ele>
        <time>2026-05-25T16:13:44.000Z</time>
        <extensions>
          <ns3:TrackPointExtension>
            <ns3:hr>105</ns3:hr>
            <ns3:cad>76</ns3:cad>
          </ns3:TrackPointExtension>
        </extensions>
      </trkpt>
      <trkpt lat="38.0272374115884304046630859375" lon="-106.9376317597925662994384765625">
        <ele>4040.199951171875</ele>
        <time>2026-05-25T16:13:49.000Z</time>
        <extensions>
          <ns3:TrackPointExtension>
            <ns3:hr>108</ns3:hr>
            <ns3:cad>0</ns3:cad>
          </ns3:TrackPointExtension>
        </extensions>
      </trkpt>
      <trkpt lat="38.02724964916706085205078125" lon="-106.93763067014515399932861328125">
        <ele>4040.800048828125</ele>
        <time>2026-05-25T16:13:51.000Z</time>
        <extensions>
          <ns3:TrackPointExtension>
            <ns3:hr>107</ns3:hr>
            <ns3:cad>0</ns3:cad>
          </ns3:TrackPointExtension>
        </extensions>
      </trkpt>
      <trkpt lat="38.02730597555637359619140625" lon="-106.937621198594570159912109375">
        <ele>4041.60009765625</ele>
        <time>2026-05-25T16:13:57.000Z</time>
        <extensions>
          <ns3:TrackPointExtension>
            <ns3:hr>106</ns3:hr>
            <ns3:cad>0</ns3:cad>
          </ns3:TrackPointExtension>
        </extensions>
      </trkpt>
      <trkpt lat="38.02731025032699108123779296875" lon="-106.9376203604042530059814453125">
        <ele>4041.60009765625</ele>
        <time>2026-05-25T16:13:58.000Z</time>
        <extensions>
          <ns3:TrackPointExtension>
            <ns3:hr>107</ns3:hr>
            <ns3:cad>0</ns3:cad>
          </ns3:TrackPointExtension>
        </extensions>
      </trkpt>
      <trkpt lat="38.02733439020812511444091796875" lon="-106.9376351125538349151611328125">
        <ele>4042</ele>
        <time>2026-05-25T16:14:03.000Z</time>
        <extensions>
          <ns3:TrackPointExtension>
            <ns3:hr>109</ns3:hr>
            <ns3:cad>0</ns3:cad>
          </ns3:TrackPointExtension>
        </extensions>
      </trkpt>
      <trkpt lat="38.02734008990228176116943359375" lon="-106.93763938732445240020751953125">
        <ele>4042.60009765625</ele>
        <time>2026-05-25T16:14:05.000Z</time>
        <extensions>
          <ns3:TrackPointExtension>
            <ns3:hr>108</ns3:hr>
            <ns3:cad>0</ns3:cad>
          </ns3:TrackPointExtension>
        </extensions>
      </trkpt>
      <trkpt lat="38.0273446999490261077880859375" lon="-106.93764676339924335479736328125">
        <ele>4043.199951171875</ele>
        <time>2026-05-25T16:14:07.000Z</time>
        <extensions>
          <ns3:TrackPointExtension>
            <ns3:hr>108</ns3:hr>
            <ns3:cad>0</ns3:cad>
          </ns3:TrackPointExtension>
        </extensions>
      </trkpt>
      <trkpt lat="38.0273614637553691864013671875" lon="-106.93764592520892620086669921875">
        <ele>4043.60009765625</ele>
        <time>2026-05-25T16:14:11.000Z</time>
        <extensions>
          <ns3:TrackPointExtension>
            <ns3:hr>108</ns3:hr>
            <ns3:cad>0</ns3:cad>
          </ns3:TrackPointExtension>
        </extensions>
      </trkpt>
      <trkpt lat="38.02736188285052776336669921875" lon="-106.93764274008572101593017578125">
        <ele>4043.800048828125</ele>
        <time>2026-05-25T16:14:17.000Z</time>
        <extensions>
          <ns3:TrackPointExtension>
            <ns3:hr>109</ns3:hr>
            <ns3:cad>0</ns3:cad>
          </ns3:TrackPointExtension>
        </extensions>
      </trkpt>
      <trkpt lat="38.02736557088792324066162109375" lon="-106.93764642812311649322509765625">
        <ele>4043.39990234375</ele>
        <time>2026-05-25T16:14:20.000Z</time>
        <extensions>
          <ns3:TrackPointExtension>
            <ns3:hr>110</ns3:hr>
            <ns3:cad>0</ns3:cad>
          </ns3:TrackPointExtension>
        </extensions>
      </trkpt>
      <trkpt lat="38.027391135692596435546875" lon="-106.93766671232879161834716796875">
        <ele>4044.199951171875</ele>
        <time>2026-05-25T16:14:26.000Z</time>
        <extensions>
          <ns3:TrackPointExtension>
            <ns3:hr>112</ns3:hr>
            <ns3:cad>47</ns3:cad>
          </ns3:TrackPointExtension>
        </extensions>
      </trkpt>
      <trkpt lat="38.02739406935870647430419921875" lon="-106.93767811171710491180419921875">
        <ele>4044.60009765625</ele>
        <time>2026-05-25T16:14:27.000Z</time>
        <extensions>
          <ns3:TrackPointExtension>
            <ns3:hr>112</ns3:hr>
            <ns3:cad>0</ns3:cad>
          </ns3:TrackPointExtension>
        </extensions>
      </trkpt>
      <trkpt lat="38.02740865387022495269775390625" lon="-106.93769303150475025177001953125">
        <ele>4045.39990234375</ele>
        <time>2026-05-25T16:14:30.000Z</time>
        <extensions>
          <ns3:TrackPointExtension>
            <ns3:hr>111</ns3:hr>
            <ns3:cad>0</ns3:cad>
          </ns3:TrackPointExtension>
        </extensions>
      </trkpt>
      <trkpt lat="38.0274352245032787322998046875" lon="-106.93770267069339752197265625">
        <ele>4046.199951171875</ele>
        <time>2026-05-25T16:14:33.000Z</time>
        <extensions>
          <ns3:TrackPointExtension>
            <ns3:hr>112</ns3:hr>
            <ns3:cad>0</ns3:cad>
          </ns3:TrackPointExtension>
        </extensions>
      </trkpt>
      <trkpt lat="38.0274352245032787322998046875" lon="-106.93770267069339752197265625">
        <ele>4046.39990234375</ele>
        <time>2026-05-25T16:14:34.000Z</time>
        <extensions>
          <ns3:TrackPointExtension>
            <ns3:hr>111</ns3:hr>
            <ns3:cad>0</ns3:cad>
          </ns3:TrackPointExtension>
        </extensions>
      </trkpt>
      <trkpt lat="38.0274472944438457489013671875" lon="-106.93771264515817165374755859375">
        <ele>4047.39990234375</ele>
        <time>2026-05-25T16:14:38.000Z</time>
        <extensions>
          <ns3:TrackPointExtension>
            <ns3:hr>113</ns3:hr>
            <ns3:cad>0</ns3:cad>
          </ns3:TrackPointExtension>
        </extensions>
      </trkpt>
      <trkpt lat="38.02745609544217586517333984375" lon="-106.93771331571042537689208984375">
        <ele>4047.60009765625</ele>
        <time>2026-05-25T16:14:39.000Z</time>
        <extensions>
          <ns3:TrackPointExtension>
            <ns3:hr>114</ns3:hr>
            <ns3:cad>0</ns3:cad>
          </ns3:TrackPointExtension>
        </extensions>
      </trkpt>
      <trkpt lat="38.027471266686916351318359375" lon="-106.93772186525166034698486328125">
        <ele>4047.800048828125</ele>
        <time>2026-05-25T16:14:43.000Z</time>
        <extensions>
          <ns3:TrackPointExtension>
            <ns3:hr>117</ns3:hr>
            <ns3:cad>0</ns3:cad>
          </ns3:TrackPointExtension>
        </extensions>
      </trkpt>
      <trkpt lat="38.0274737812578678131103515625" lon="-106.9377253018319606781005859375">
        <ele>4048</ele>
        <time>2026-05-25T16:14:44.000Z</time>
        <extensions>
          <ns3:TrackPointExtension>
            <ns3:hr>117</ns3:hr>
            <ns3:cad>0</ns3:cad>
          </ns3:TrackPointExtension>
        </extensions>
      </trkpt>
      <trkpt lat="38.027503453195095062255859375" lon="-106.93773427046835422515869140625">
        <ele>4048.60009765625</ele>
        <time>2026-05-25T16:14:48.000Z</time>
        <extensions>
          <ns3:TrackPointExtension>
            <ns3:hr>120</ns3:hr>
            <ns3:cad>0</ns3:cad>
          </ns3:TrackPointExtension>
        </extensions>
      </trkpt>
      <trkpt lat="38.0275113321840763092041015625" lon="-106.9377377070486545562744140625">
        <ele>4048.800048828125</ele>
        <time>2026-05-25T16:14:49.000Z</time>
        <extensions>
          <ns3:TrackPointExtension>
            <ns3:hr>120</ns3:hr>
            <ns3:cad>0</ns3:cad>
          </ns3:TrackPointExtension>
        </extensions>
      </trkpt>
      <trkpt lat="38.0275267548859119415283203125" lon="-106.937727816402912139892578125">
        <ele>4050</ele>
        <time>2026-05-25T16:14:53.000Z</time>
        <extensions>
          <ns3:TrackPointExtension>
            <ns3:hr>121</ns3:hr>
            <ns3:cad>0</ns3:cad>
          </ns3:TrackPointExtension>
        </extensions>
      </trkpt>
      <trkpt lat="38.0275287665426731109619140625" lon="-106.93773075006902217864990234375">
        <ele>4050.199951171875</ele>
        <time>2026-05-25T16:14:54.000Z</time>
        <extensions>
          <ns3:TrackPointExtension>
            <ns3:hr>122</ns3:hr>
            <ns3:cad>0</ns3:cad>
          </ns3:TrackPointExtension>
        </extensions>
      </trkpt>
      <trkpt lat="38.02754293195903301239013671875" lon="-106.9377315044403076171875">
        <ele>4051</ele>
        <time>2026-05-25T16:14:58.000Z</time>
        <extensions>
          <ns3:TrackPointExtension>
            <ns3:hr>124</ns3:hr>
            <ns3:cad>0</ns3:cad>
          </ns3:TrackPointExtension>
        </extensions>
      </trkpt>
      <trkpt lat="38.02755868993699550628662109375" lon="-106.93774566985666751861572265625">
        <ele>4051</ele>
        <time>2026-05-25T16:15:01.000Z</time>
        <extensions>
          <ns3:TrackPointExtension>
            <ns3:hr>125</ns3:hr>
            <ns3:cad>0</ns3:cad>
          </ns3:TrackPointExtension>
        </extensions>
      </trkpt>
      <trkpt lat="38.0275834165513515472412109375" lon="-106.9377541355788707733154296875">
        <ele>4051</ele>
        <time>2026-05-25T16:15:07.000Z</time>
        <extensions>
          <ns3:TrackPointExtension>
            <ns3:hr>122</ns3:hr>
            <ns3:cad>0</ns3:cad>
          </ns3:TrackPointExtension>
        </extensions>
      </trkpt>
      <trkpt lat="38.0275837518274784088134765625" lon="-106.9377521239221096038818359375">
        <ele>4050.800048828125</ele>
        <time>2026-05-25T16:15:11.000Z</time>
        <extensions>
          <ns3:TrackPointExtension>
            <ns3:hr>119</ns3:hr>
            <ns3:cad>0</ns3:cad>
          </ns3:TrackPointExtension>
        </extensions>
      </trkpt>
      <trkpt lat="38.02758383564651012420654296875" lon="-106.9377517886459827423095703125">
        <ele>4050.800048828125</ele>
        <time>2026-05-25T16:15:14.000Z</time>
        <extensions>
          <ns3:TrackPointExtension>
            <ns3:hr>116</ns3:hr>
            <ns3:cad>0</ns3:cad>
          </ns3:TrackPointExtension>
        </extensions>
      </trkpt>
      <trkpt lat="38.0275891162455081939697265625" lon="-106.9377353601157665252685546875">
        <ele>4050.800048828125</ele>
        <time>2026-05-25T16:15:16.000Z</time>
        <extensions>
          <ns3:TrackPointExtension>
            <ns3:hr>115</ns3:hr>
            <ns3:cad>0</ns3:cad>
          </ns3:TrackPointExtension>
        </extensions>
      </trkpt>
      <trkpt lat="38.0275924690067768096923828125" lon="-106.937725804746150970458984375">
        <ele>4051</ele>
        <time>2026-05-25T16:15:20.000Z</time>
        <extensions>
          <ns3:TrackPointExtension>
            <ns3:hr>112</ns3:hr>
            <ns3:cad>0</ns3:cad>
          </ns3:TrackPointExtension>
        </extensions>
      </trkpt>
      <trkpt lat="38.0275924690067768096923828125" lon="-106.937725804746150970458984375">
        <ele>4051</ele>
        <time>2026-05-25T16:15:21.000Z</time>
        <extensions>
          <ns3:TrackPointExtension>
            <ns3:hr>115</ns3:hr>
            <ns3:cad>0</ns3:cad>
          </ns3:TrackPointExtension>
        </extensions>
      </trkpt>
      <trkpt lat="38.0275924690067768096923828125" lon="-106.937725804746150970458984375">
        <ele>4050.800048828125</ele>
        <time>2026-05-25T16:15:22.000Z</time>
        <extensions>
          <ns3:TrackPointExtension>
            <ns3:hr>124</ns3:hr>
            <ns3:cad>0</ns3:cad>
          </ns3:TrackPointExtension>
        </extensions>
      </trkpt>
      <trkpt lat="38.0275924690067768096923828125" lon="-106.937725804746150970458984375">
        <ele>4050.800048828125</ele>
        <time>2026-05-25T16:15:23.000Z</time>
        <extensions>
          <ns3:TrackPointExtension>
            <ns3:hr>130</ns3:hr>
            <ns3:cad>0</ns3:cad>
          </ns3:TrackPointExtension>
        </extensions>
      </trkpt>
      <trkpt lat="38.0275924690067768096923828125" lon="-106.937725804746150970458984375">
        <ele>4050.800048828125</ele>
        <time>2026-05-25T16:15:24.000Z</time>
        <extensions>
          <ns3:TrackPointExtension>
            <ns3:hr>132</ns3:hr>
            <ns3:cad>0</ns3:cad>
          </ns3:TrackPointExtension>
        </extensions>
      </trkpt>
      <trkpt lat="38.02759707905352115631103515625" lon="-106.93772010505199432373046875">
        <ele>4050.800048828125</ele>
        <time>2026-05-25T16:15:30.000Z</time>
        <extensions>
          <ns3:TrackPointExtension>
            <ns3:hr>130</ns3:hr>
            <ns3:cad>0</ns3:cad>
          </ns3:TrackPointExtension>
        </extensions>
      </trkpt>
      <trkpt lat="38.0275924690067768096923828125" lon="-106.937725804746150970458984375">
        <ele>4050.39990234375</ele>
        <time>2026-05-25T16:15:33.000Z</time>
        <extensions>
          <ns3:TrackPointExtension>
            <ns3:hr>128</ns3:hr>
            <ns3:cad>0</ns3:cad>
          </ns3:TrackPointExtension>
        </extensions>
      </trkpt>
      <trkpt lat="38.027621470391750335693359375" lon="-106.93771314807236194610595703125">
        <ele>4050.60009765625</ele>
        <time>2026-05-25T16:15:39.000Z</time>
        <extensions>
          <ns3:TrackPointExtension>
            <ns3:hr>125</ns3:hr>
            <ns3:cad>0</ns3:cad>
          </ns3:TrackPointExtension>
        </extensions>
      </trkpt>
      <trkpt lat="38.02764217369258403778076171875" lon="-106.93771163932979106903076171875">
        <ele>4050.60009765625</ele>
        <time>2026-05-25T16:15:41.000Z</time>
        <extensions>
          <ns3:TrackPointExtension>
            <ns3:hr>126</ns3:hr>
            <ns3:cad>75</ns3:cad>
          </ns3:TrackPointExtension>
        </extensions>
      </trkpt>
      <trkpt lat="38.02769958972930908203125" lon="-106.93770007230341434478759765625">
        <ele>4050</ele>
        <time>2026-05-25T16:15:47.000Z</time>
        <extensions>
          <ns3:TrackPointExtension>
            <ns3:hr>127</ns3:hr>
            <ns3:cad>75</ns3:cad>
          </ns3:TrackPointExtension>
        </extensions>
      </trkpt>
      <trkpt lat="38.0277108214795589447021484375" lon="-106.9377041794359683990478515625">
        <ele>4050</ele>
        <time>2026-05-25T16:15:48.000Z</time>
        <extensions>
          <ns3:TrackPointExtension>
            <ns3:hr>126</ns3:hr>
            <ns3:cad>75</ns3:cad>
          </ns3:TrackPointExtension>
        </extensions>
      </trkpt>
      <trkpt lat="38.02774191834032535552978515625" lon="-106.93770359270274639129638671875">
        <ele>4049.39990234375</ele>
        <time>2026-05-25T16:15:52.000Z</time>
        <extensions>
          <ns3:TrackPointExtension>
            <ns3:hr>123</ns3:hr>
            <ns3:cad>0</ns3:cad>
          </ns3:TrackPointExtension>
        </extensions>
      </trkpt>
      <trkpt lat="38.02779438905417919158935546875" lon="-106.9377162493765354156494140625">
        <ele>4050.199951171875</ele>
        <time>2026-05-25T16:15:57.000Z</time>
        <extensions>
          <ns3:TrackPointExtension>
            <ns3:hr>126</ns3:hr>
            <ns3:cad>0</ns3:cad>
          </ns3:TrackPointExtension>
        </extensions>
      </trkpt>
      <trkpt lat="38.02781417034566402435302734375" lon="-106.9377222843468189239501953125">
        <ele>4049.60009765625</ele>
        <time>2026-05-25T16:16:00.000Z</time>
        <extensions>
          <ns3:TrackPointExtension>
            <ns3:hr>126</ns3:hr>
            <ns3:cad>0</ns3:cad>
          </ns3:TrackPointExtension>
        </extensions>
      </trkpt>
      <trkpt lat="38.0278472788631916046142578125" lon="-106.937739886343479156494140625">
        <ele>4049.60009765625</ele>
        <time>2026-05-25T16:16:04.000Z</time>
        <extensions>
          <ns3:TrackPointExtension>
            <ns3:hr>123</ns3:hr>
            <ns3:cad>0</ns3:cad>
          </ns3:TrackPointExtension>
        </extensions>
      </trkpt>
      <trkpt lat="38.02786395885050296783447265625" lon="-106.9377437420189380645751953125">
        <ele>4049.800048828125</ele>
        <time>2026-05-25T16:16:06.000Z</time>
        <extensions>
          <ns3:TrackPointExtension>
            <ns3:hr>122</ns3:hr>
            <ns3:cad>0</ns3:cad>
          </ns3:TrackPointExtension>
        </extensions>
      </trkpt>
      <trkpt lat="38.02790938876569271087646484375" lon="-106.93775975145399570465087890625">
        <ele>4050</ele>
        <time>2026-05-25T16:16:12.000Z</time>
        <extensions>
          <ns3:TrackPointExtension>
            <ns3:hr>121</ns3:hr>
            <ns3:cad>0</ns3:cad>
          </ns3:TrackPointExtension>
        </extensions>
      </trkpt>
      <trkpt lat="38.0279042758047580718994140625" lon="-106.93775304593145847320556640625">
        <ele>4050.199951171875</ele>
        <time>2026-05-25T16:16:14.000Z</time>
        <extensions>
          <ns3:TrackPointExtension>
            <ns3:hr>121</ns3:hr>
            <ns3:cad>0</ns3:cad>
          </ns3:TrackPointExtension>
        </extensions>
      </trkpt>
      <trkpt lat="38.02792011760175228118896484375" lon="-106.937757320702075958251953125">
        <ele>4050.199951171875</ele>
        <time>2026-05-25T16:16:18.000Z</time>
        <extensions>
          <ns3:TrackPointExtension>
            <ns3:hr>118</ns3:hr>
            <ns3:cad>0</ns3:cad>
          </ns3:TrackPointExtension>
        </extensions>
      </trkpt>
      <trkpt lat="38.027927577495574951171875" lon="-106.9377569854259490966796875">
        <ele>4050.199951171875</ele>
        <time>2026-05-25T16:16:19.000Z</time>
        <extensions>
          <ns3:TrackPointExtension>
            <ns3:hr>115</ns3:hr>
            <ns3:cad>0</ns3:cad>
          </ns3:TrackPointExtension>
        </extensions>
      </trkpt>
      <trkpt lat="38.02795666269958019256591796875" lon="-106.93776092492043972015380859375">
        <ele>4049.60009765625</ele>
        <time>2026-05-25T16:16:22.000Z</time>
        <extensions>
          <ns3:TrackPointExtension>
            <ns3:hr>115</ns3:hr>
            <ns3:cad>0</ns3:cad>
          </ns3:TrackPointExtension>
        </extensions>
      </trkpt>
      <trkpt lat="38.02802002988755702972412109375" lon="-106.9377662055194377899169921875">
        <ele>4049.199951171875</ele>
        <time>2026-05-25T16:16:28.000Z</time>
        <extensions>
          <ns3:TrackPointExtension>
            <ns3:hr>114</ns3:hr>
            <ns3:cad>0</ns3:cad>
          </ns3:TrackPointExtension>
        </extensions>
      </trkpt>
      <trkpt lat="38.02804148755967617034912109375" lon="-106.937768049538135528564453125">
        <ele>4049</ele>
        <time>2026-05-25T16:16:30.000Z</time>
        <extensions>
          <ns3:TrackPointExtension>
            <ns3:hr>114</ns3:hr>
            <ns3:cad>0</ns3:cad>
          </ns3:TrackPointExtension>
        </extensions>
      </trkpt>
      <trkpt lat="38.02806244231760501861572265625" lon="-106.9377722404897212982177734375">
        <ele>4049</ele>
        <time>2026-05-25T16:16:32.000Z</time>
        <extensions>
          <ns3:TrackPointExtension>
            <ns3:hr>113</ns3:hr>
            <ns3:cad>0</ns3:cad>
          </ns3:TrackPointExtension>
        </extensions>
      </trkpt>
      <trkpt lat="38.02811105735599994659423828125" lon="-106.93777819164097309112548828125">
        <ele>4048.39990234375</ele>
        <time>2026-05-25T16:16:37.000Z</time>
        <extensions>
          <ns3:TrackPointExtension>
            <ns3:hr>112</ns3:hr>
            <ns3:cad>0</ns3:cad>
          </ns3:TrackPointExtension>
        </extensions>
      </trkpt>
      <trkpt lat="38.028126060962677001953125" lon="-106.9377789460122585296630859375">
        <ele>4048.199951171875</ele>
        <time>2026-05-25T16:16:39.000Z</time>
        <extensions>
          <ns3:TrackPointExtension>
            <ns3:hr>115</ns3:hr>
            <ns3:cad>0</ns3:cad>
          </ns3:TrackPointExtension>
        </extensions>
      </trkpt>
      <trkpt lat="38.02815279923379421234130859375" lon="-106.93777014501392841339111328125">
        <ele>4047.800048828125</ele>
        <time>2026-05-25T16:16:43.000Z</time>
        <extensions>
          <ns3:TrackPointExtension>
            <ns3:hr>117</ns3:hr>
            <ns3:cad>57</ns3:cad>
          </ns3:TrackPointExtension>
        </extensions>
      </trkpt>
      <trkpt lat="38.02817258052527904510498046875" lon="-106.93776494823396205902099609375">
        <ele>4047.800048828125</ele>
        <time>2026-05-25T16:16:44.000Z</time>
        <extensions>
          <ns3:TrackPointExtension>
            <ns3:hr>117</ns3:hr>
            <ns3:cad>57</ns3:cad>
          </ns3:TrackPointExtension>
        </extensions>
      </trkpt>
      <trkpt lat="38.02820292301476001739501953125" lon="-106.93775363266468048095703125">
        <ele>4047</ele>
        <time>2026-05-25T16:16:50.000Z</time>
        <extensions>
          <ns3:TrackPointExtension>
            <ns3:hr>115</ns3:hr>
            <ns3:cad>0</ns3:cad>
          </ns3:TrackPointExtension>
        </extensions>
      </trkpt>
      <trkpt lat="38.0282077006995677947998046875" lon="-106.937750615179538726806640625">
        <ele>4047</ele>
        <time>2026-05-25T16:16:51.000Z</time>
        <extensions>
          <ns3:TrackPointExtension>
            <ns3:hr>115</ns3:hr>
            <ns3:cad>0</ns3:cad>
          </ns3:TrackPointExtension>
        </extensions>
      </trkpt>
      <trkpt lat="38.02822572179138660430908203125" lon="-106.93775220774114131927490234375">
        <ele>4046.800048828125</ele>
        <time>2026-05-25T16:16:52.000Z</time>
        <extensions>
          <ns3:TrackPointExtension>
            <ns3:hr>115</ns3:hr>
            <ns3:cad>0</ns3:cad>
          </ns3:TrackPointExtension>
        </extensions>
      </trkpt>
      <trkpt lat="38.02825086750090122222900390625" lon="-106.93775539286434650421142578125">
        <ele>4046</ele>
        <time>2026-05-25T16:16:55.000Z</time>
        <extensions>
          <ns3:TrackPointExtension>
            <ns3:hr>112</ns3:hr>
            <ns3:cad>0</ns3:cad>
          </ns3:TrackPointExtension>
        </extensions>
      </trkpt>
      <trkpt lat="38.028261847794055938720703125" lon="-106.93775371648371219635009765625">
        <ele>4045.60009765625</ele>
        <time>2026-05-25T16:16:56.000Z</time>
        <extensions>
          <ns3:TrackPointExtension>
            <ns3:hr>111</ns3:hr>
            <ns3:cad>0</ns3:cad>
          </ns3:TrackPointExtension>
        </extensions>
      </trkpt>
      <trkpt lat="38.0283237062394618988037109375" lon="-106.93775857798755168914794921875">
        <ele>4044.60009765625</ele>
        <time>2026-05-25T16:17:02.000Z</time>
        <extensions>
          <ns3:TrackPointExtension>
            <ns3:hr>109</ns3:hr>
            <ns3:cad>0</ns3:cad>
          </ns3:TrackPointExtension>
        </extensions>
      </trkpt>
      <trkpt lat="38.02836871705949306488037109375" lon="-106.93774424493312835693359375">
        <ele>4044</ele>
        <time>2026-05-25T16:17:08.000Z</time>
        <extensions>
          <ns3:TrackPointExtension>
            <ns3:hr>109</ns3:hr>
            <ns3:cad>50</ns3:cad>
          </ns3:TrackPointExtension>
        </extensions>
      </trkpt>
      <trkpt lat="38.02838028408586978912353515625" lon="-106.93773795850574970245361328125">
        <ele>4043.800048828125</ele>
        <time>2026-05-25T16:17:09.000Z</time>
        <extensions>
          <ns3:TrackPointExtension>
            <ns3:hr>109</ns3:hr>
            <ns3:cad>50</ns3:cad>
          </ns3:TrackPointExtension>
        </extensions>
      </trkpt>
      <trkpt lat="38.0283887498080730438232421875" lon="-106.93773209117352962493896484375">
        <ele>4043.39990234375</ele>
        <time>2026-05-25T16:17:11.000Z</time>
        <extensions>
          <ns3:TrackPointExtension>
            <ns3:hr>109</ns3:hr>
            <ns3:cad>50</ns3:cad>
          </ns3:TrackPointExtension>
        </extensions>
      </trkpt>
      <trkpt lat="38.02840794436633586883544921875" lon="-106.9377316720783710479736328125">
        <ele>4043.199951171875</ele>
        <time>2026-05-25T16:17:12.000Z</time>
        <extensions>
          <ns3:TrackPointExtension>
            <ns3:hr>110</ns3:hr>
            <ns3:cad>0</ns3:cad>
          </ns3:TrackPointExtension>
        </extensions>
      </trkpt>
      <trkpt lat="38.0284537933766841888427734375" lon="-106.93772588856518268585205078125">
        <ele>4043</ele>
        <time>2026-05-25T16:17:16.000Z</time>
        <extensions>
          <ns3:TrackPointExtension>
            <ns3:hr>109</ns3:hr>
            <ns3:cad>0</ns3:cad>
          </ns3:TrackPointExtension>
        </extensions>
      </trkpt>
      <trkpt lat="38.028491847217082977294921875" lon="-106.93773041479289531707763671875">
        <ele>4042.800048828125</ele>
        <time>2026-05-25T16:17:19.000Z</time>
        <extensions>
          <ns3:TrackPointExtension>
            <ns3:hr>109</ns3:hr>
            <ns3:cad>0</ns3:cad>
          </ns3:TrackPointExtension>
        </extensions>
      </trkpt>
      <trkpt lat="38.02851590327918529510498046875" lon="-106.93772069178521633148193359375">
        <ele>4042.800048828125</ele>
        <time>2026-05-25T16:17:21.000Z</time>
        <extensions>
          <ns3:TrackPointExtension>
            <ns3:hr>108</ns3:hr>
            <ns3:cad>53</ns3:cad>
          </ns3:TrackPointExtension>
        </extensions>
      </trkpt>
      <trkpt lat="38.0285646021366119384765625" lon="-106.937702000141143798828125">
        <ele>4043.199951171875</ele>
        <time>2026-05-25T16:17:26.000Z</time>
        <extensions>
          <ns3:TrackPointExtension>
            <ns3:hr>111</ns3:hr>
            <ns3:cad>0</ns3:cad>
          </ns3:TrackPointExtension>
        </extensions>
      </trkpt>
      <trkpt lat="38.02858463488519191741943359375" lon="-106.9376988150179386138916015625">
        <ele>4043.39990234375</ele>
        <time>2026-05-25T16:17:28.000Z</time>
        <extensions>
          <ns3:TrackPointExtension>
            <ns3:hr>112</ns3:hr>
            <ns3:cad>0</ns3:cad>
          </ns3:TrackPointExtension>
        </extensions>
      </trkpt>
      <trkpt lat="38.0286495946347713470458984375" lon="-106.937687583267688751220703125">
        <ele>4044</ele>
        <time>2026-05-25T16:17:34.000Z</time>
        <extensions>
          <ns3:TrackPointExtension>
            <ns3:hr>113</ns3:hr>
            <ns3:cad>0</ns3:cad>
          </ns3:TrackPointExtension>
        </extensions>
      </trkpt>
      <trkpt lat="38.02866292186081409454345703125" lon="-106.93768833763897418975830078125">
        <ele>4044</ele>
        <time>2026-05-25T16:17:35.000Z</time>
        <extensions>
          <ns3:TrackPointExtension>
            <ns3:hr>113</ns3:hr>
            <ns3:cad>0</ns3:cad>
          </ns3:TrackPointExtension>
        </extensions>
      </trkpt>
      <trkpt lat="38.02870147861540317535400390625" lon="-106.93768649362027645111083984375">
        <ele>4044.60009765625</ele>
        <time>2026-05-25T16:17:38.000Z</time>
        <extensions>
          <ns3:TrackPointExtension>
            <ns3:hr>112</ns3:hr>
            <ns3:cad>48</ns3:cad>
          </ns3:TrackPointExtension>
        </extensions>
      </trkpt>
      <trkpt lat="38.02873198874294757843017578125" lon="-106.93767794407904148101806640625">
        <ele>4045.39990234375</ele>
        <time>2026-05-25T16:17:42.000Z</time>
        <extensions>
          <ns3:TrackPointExtension>
            <ns3:hr>111</ns3:hr>
            <ns3:cad>48</ns3:cad>
          </ns3:TrackPointExtension>
        </extensions>
      </trkpt>
      <trkpt lat="38.02880189381539821624755859375" lon="-106.9376699812710285186767578125">
        <ele>4045.199951171875</ele>
        <time>2026-05-25T16:17:48.000Z</time>
        <extensions>
          <ns3:TrackPointExtension>
            <ns3:hr>113</ns3:hr>
            <ns3:cad>53</ns3:cad>
          </ns3:TrackPointExtension>
        </extensions>
      </trkpt>
      <trkpt lat="38.02884330041706562042236328125" lon="-106.9376662932336330413818359375">
        <ele>4045.60009765625</ele>
        <time>2026-05-25T16:17:52.000Z</time>
        <extensions>
          <ns3:TrackPointExtension>
            <ns3:hr>116</ns3:hr>
            <ns3:cad>53</ns3:cad>
          </ns3:TrackPointExtension>
        </extensions>
      </trkpt>
      <trkpt lat="38.02887800149619579315185546875" lon="-106.93765698932111263275146484375">
        <ele>4045.800048828125</ele>
        <time>2026-05-25T16:17:56.000Z</time>
        <extensions>
          <ns3:TrackPointExtension>
            <ns3:hr>119</ns3:hr>
            <ns3:cad>53</ns3:cad>
          </ns3:TrackPointExtension>
        </extensions>
      </trkpt>
      <trkpt lat="38.028928376734256744384765625" lon="-106.93763435818254947662353515625">
        <ele>4045.199951171875</ele>
        <time>2026-05-25T16:18:02.000Z</time>
        <extensions>
          <ns3:TrackPointExtension>
            <ns3:hr>119</ns3:hr>
            <ns3:cad>19</ns3:cad>
          </ns3:TrackPointExtension>
        </extensions>
      </trkpt>
      <trkpt lat="38.028997443616390228271484375" lon="-106.93761591799557209014892578125">
        <ele>4044.60009765625</ele>
        <time>2026-05-25T16:18:08.000Z</time>
        <extensions>
          <ns3:TrackPointExtension>
            <ns3:hr>116</ns3:hr>
            <ns3:cad>0</ns3:cad>
          </ns3:TrackPointExtension>
        </extensions>
      </trkpt>
      <trkpt lat="38.0290418677031993865966796875" lon="-106.93760208785533905029296875">
        <ele>4044.39990234375</ele>
        <time>2026-05-25T16:18:13.000Z</time>
        <extensions>
          <ns3:TrackPointExtension>
            <ns3:hr>115</ns3:hr>
            <ns3:cad>0</ns3:cad>
          </ns3:TrackPointExtension>
        </extensions>
      </trkpt>
      <trkpt lat="38.0290686897933483123779296875" lon="-106.93760150112211704254150390625">
        <ele>4044.199951171875</ele>
        <time>2026-05-25T16:18:17.000Z</time>
        <extensions>
          <ns3:TrackPointExtension>
            <ns3:hr>112</ns3:hr>
            <ns3:cad>0</ns3:cad>
          </ns3:TrackPointExtension>
        </extensions>
      </trkpt>
      <trkpt lat="38.02911906503140926361083984375" lon="-106.93760451860725879669189453125">
        <ele>4044</ele>
        <time>2026-05-25T16:18:21.000Z</time>
        <extensions>
          <ns3:TrackPointExtension>
            <ns3:hr>110</ns3:hr>
            <ns3:cad>0</ns3:cad>
          </ns3:TrackPointExtension>
        </extensions>
      </trkpt>
      <trkpt lat="38.0291815102100372314453125" lon="-106.937607787549495697021484375">
        <ele>4044.199951171875</ele>
        <time>2026-05-25T16:18:27.000Z</time>
        <extensions>
          <ns3:TrackPointExtension>
            <ns3:hr>110</ns3:hr>
            <ns3:cad>0</ns3:cad>
          </ns3:TrackPointExtension>
        </extensions>
      </trkpt>
      <trkpt lat="38.02920095622539520263671875" lon="-106.9376106373965740203857421875">
        <ele>4044.199951171875</ele>
        <time>2026-05-25T16:18:28.000Z</time>
        <extensions>
          <ns3:TrackPointExtension>
            <ns3:hr>110</ns3:hr>
            <ns3:cad>0</ns3:cad>
          </ns3:TrackPointExtension>
        </extensions>
      </trkpt>
      <trkpt lat="38.02925250492990016937255859375" lon="-106.93760971538722515106201171875">
        <ele>4044.39990234375</ele>
        <time>2026-05-25T16:18:34.000Z</time>
        <extensions>
          <ns3:TrackPointExtension>
            <ns3:hr>111</ns3:hr>
            <ns3:cad>0</ns3:cad>
          </ns3:TrackPointExtension>
        </extensions>
      </trkpt>
      <trkpt lat="38.0292789079248905181884765625" lon="-106.9376121461391448974609375">
        <ele>4044.39990234375</ele>
        <time>2026-05-25T16:18:35.000Z</time>
        <extensions>
          <ns3:TrackPointExtension>
            <ns3:hr>111</ns3:hr>
            <ns3:cad>0</ns3:cad>
          </ns3:TrackPointExtension>
        </extensions>
      </trkpt>
      <trkpt lat="38.029343783855438232421875" lon="-106.93760837428271770477294921875">
        <ele>4044.800048828125</ele>
        <time>2026-05-25T16:18:41.000Z</time>
        <extensions>
          <ns3:TrackPointExtension>
            <ns3:hr>113</ns3:hr>
            <ns3:cad>0</ns3:cad>
          </ns3:TrackPointExtension>
        </extensions>
      </trkpt>
      <trkpt lat="38.02940572611987590789794921875" lon="-106.9376046024262905120849609375">
        <ele>4044.800048828125</ele>
        <time>2026-05-25T16:18:46.000Z</time>
        <extensions>
          <ns3:TrackPointExtension>
            <ns3:hr>111</ns3:hr>
            <ns3:cad>0</ns3:cad>
          </ns3:TrackPointExtension>
        </extensions>
      </trkpt>
      <trkpt lat="38.02948066033422946929931640625" lon="-106.9376136548817157745361328125">
        <ele>4044.199951171875</ele>
        <time>2026-05-25T16:18:52.000Z</time>
        <extensions>
          <ns3:TrackPointExtension>
            <ns3:hr>111</ns3:hr>
            <ns3:cad>52</ns3:cad>
          </ns3:TrackPointExtension>
        </extensions>
      </trkpt>
      <trkpt lat="38.02952282130718231201171875" lon="-106.9376015849411487579345703125">
        <ele>4044</ele>
        <time>2026-05-25T16:18:56.000Z</time>
        <extensions>
          <ns3:TrackPointExtension>
            <ns3:hr>108</ns3:hr>
            <ns3:cad>52</ns3:cad>
          </ns3:TrackPointExtension>
        </extensions>
      </trkpt>
      <trkpt lat="38.02955492399632930755615234375" lon="-106.9375972263514995574951171875">
        <ele>4043.39990234375</ele>
        <time>2026-05-25T16:18:59.000Z</time>
        <extensions>
          <ns3:TrackPointExtension>
            <ns3:hr>106</ns3:hr>
            <ns3:cad>52</ns3:cad>
          </ns3:TrackPointExtension>
        </extensions>
      </trkpt>
      <trkpt lat="38.02961242385208606719970703125" lon="-106.937560178339481353759765625">
        <ele>4044.39990234375</ele>
        <time>2026-05-25T16:19:05.000Z</time>
        <extensions>
          <ns3:TrackPointExtension>
            <ns3:hr>105</ns3:hr>
            <ns3:cad>51</ns3:cad>
          </ns3:TrackPointExtension>
        </extensions>
      </trkpt>
      <trkpt lat="38.02961242385208606719970703125" lon="-106.937560178339481353759765625">
        <ele>4044.39990234375</ele>
        <time>2026-05-25T16:19:06.000Z</time>
        <extensions>
          <ns3:TrackPointExtension>
            <ns3:hr>106</ns3:hr>
            <ns3:cad>51</ns3:cad>
          </ns3:TrackPointExtension>
        </extensions>
      </trkpt>
      <trkpt lat="38.029667995870113372802734375" lon="-106.937528662383556365966796875">
        <ele>4043.800048828125</ele>
        <time>2026-05-25T16:19:11.000Z</time>
        <extensions>
          <ns3:TrackPointExtension>
            <ns3:hr>109</ns3:hr>
            <ns3:cad>52</ns3:cad>
          </ns3:TrackPointExtension>
        </extensions>
      </trkpt>
      <trkpt lat="38.0296959914267063140869140625" lon="-106.937527321279048919677734375">
        <ele>4043.39990234375</ele>
        <time>2026-05-25T16:19:14.000Z</time>
        <extensions>
          <ns3:TrackPointExtension>
            <ns3:hr>108</ns3:hr>
            <ns3:cad>52</ns3:cad>
          </ns3:TrackPointExtension>
        </extensions>
      </trkpt>
      <trkpt lat="38.02974184043705463409423828125" lon="-106.93752706982195377349853515625">
        <ele>4043.60009765625</ele>
        <time>2026-05-25T16:19:20.000Z</time>
        <extensions>
          <ns3:TrackPointExtension>
            <ns3:hr>108</ns3:hr>
            <ns3:cad>0</ns3:cad>
          </ns3:TrackPointExtension>
        </extensions>
      </trkpt>
      <trkpt lat="38.0297412537038326263427734375" lon="-106.937524639070034027099609375">
        <ele>4043.60009765625</ele>
        <time>2026-05-25T16:19:22.000Z</time>
        <extensions>
          <ns3:TrackPointExtension>
            <ns3:hr>108</ns3:hr>
            <ns3:cad>0</ns3:cad>
          </ns3:TrackPointExtension>
        </extensions>
      </trkpt>
      <trkpt lat="38.0297412537038326263427734375" lon="-106.937524639070034027099609375">
        <ele>4043.39990234375</ele>
        <time>2026-05-25T16:19:25.000Z</time>
        <extensions>
          <ns3:TrackPointExtension>
            <ns3:hr>105</ns3:hr>
            <ns3:cad>0</ns3:cad>
          </ns3:TrackPointExtension>
        </extensions>
      </trkpt>
      <trkpt lat="38.0297412537038326263427734375" lon="-106.937524639070034027099609375">
        <ele>4043.39990234375</ele>
        <time>2026-05-25T16:19:31.000Z</time>
        <extensions>
          <ns3:TrackPointExtension>
            <ns3:hr>103</ns3:hr>
            <ns3:cad>0</ns3:cad>
          </ns3:TrackPointExtension>
        </extensions>
      </trkpt>
      <trkpt lat="38.0297412537038326263427734375" lon="-106.937524639070034027099609375">
        <ele>4043.39990234375</ele>
        <time>2026-05-25T16:19:37.000Z</time>
        <extensions>
          <ns3:TrackPointExtension>
            <ns3:hr>105</ns3:hr>
            <ns3:cad>0</ns3:cad>
          </ns3:TrackPointExtension>
        </extensions>
      </trkpt>
      <trkpt lat="38.0297412537038326263427734375" lon="-106.937524639070034027099609375">
        <ele>4043</ele>
        <time>2026-05-25T16:19:39.000Z</time>
        <extensions>
          <ns3:TrackPointExtension>
            <ns3:hr>105</ns3:hr>
            <ns3:cad>0</ns3:cad>
          </ns3:TrackPointExtension>
        </extensions>
      </trkpt>
      <trkpt lat="38.0297412537038326263427734375" lon="-106.937524639070034027099609375">
        <ele>4042.39990234375</ele>
        <time>2026-05-25T16:19:41.000Z</time>
        <extensions>
          <ns3:TrackPointExtension>
            <ns3:hr>105</ns3:hr>
            <ns3:cad>0</ns3:cad>
          </ns3:TrackPointExtension>
        </extensions>
      </trkpt>
      <trkpt lat="38.02974619902670383453369140625" lon="-106.93751935847103595733642578125">
        <ele>4042.800048828125</ele>
        <time>2026-05-25T16:19:47.000Z</time>
        <extensions>
          <ns3:TrackPointExtension>
            <ns3:hr>105</ns3:hr>
            <ns3:cad>0</ns3:cad>
          </ns3:TrackPointExtension>
        </extensions>
      </trkpt>
      <trkpt lat="38.02977721206843852996826171875" lon="-106.9375217892229557037353515625">
        <ele>4043</ele>
        <time>2026-05-25T16:19:50.000Z</time>
        <extensions>
          <ns3:TrackPointExtension>
            <ns3:hr>105</ns3:hr>
            <ns3:cad>0</ns3:cad>
          </ns3:TrackPointExtension>
        </extensions>
      </trkpt>
      <trkpt lat="38.02981627173721790313720703125" lon="-106.93753746338188648223876953125">
        <ele>4043.60009765625</ele>
        <time>2026-05-25T16:19:53.000Z</time>
        <extensions>
          <ns3:TrackPointExtension>
            <ns3:hr>105</ns3:hr>
            <ns3:cad>49</ns3:cad>
          </ns3:TrackPointExtension>
        </extensions>
      </trkpt>
      <trkpt lat="38.0298415012657642364501953125" lon="-106.9375509582459926605224609375">
        <ele>4044.199951171875</ele>
        <time>2026-05-25T16:19:56.000Z</time>
        <extensions>
          <ns3:TrackPointExtension>
            <ns3:hr>106</ns3:hr>
            <ns3:cad>49</ns3:cad>
          </ns3:TrackPointExtension>
        </extensions>
      </trkpt>
      <trkpt lat="38.029900677502155303955078125" lon="-106.9375818036496639251708984375">
        <ele>4044.60009765625</ele>
        <time>2026-05-25T16:20:01.000Z</time>
        <extensions>
          <ns3:TrackPointExtension>
            <ns3:hr>105</ns3:hr>
            <ns3:cad>0</ns3:cad>
          </ns3:TrackPointExtension>
        </extensions>
      </trkpt>
      <trkpt lat="38.02991040050983428955078125" lon="-106.93758842535316944122314453125">
        <ele>4044.60009765625</ele>
        <time>2026-05-25T16:20:02.000Z</time>
        <extensions>
          <ns3:TrackPointExtension>
            <ns3:hr>104</ns3:hr>
            <ns3:cad>0</ns3:cad>
          </ns3:TrackPointExtension>
        </extensions>
      </trkpt>
      <trkpt lat="38.02995725534856319427490234375" lon="-106.93762279115617275238037109375">
        <ele>4045.39990234375</ele>
        <time>2026-05-25T16:20:08.000Z</time>
        <extensions>
          <ns3:TrackPointExtension>
            <ns3:hr>103</ns3:hr>
            <ns3:cad>0</ns3:cad>
          </ns3:TrackPointExtension>
        </extensions>
      </trkpt>
      <trkpt lat="38.029963038861751556396484375" lon="-106.93763251416385173797607421875">
        <ele>4045.39990234375</ele>
        <time>2026-05-25T16:20:09.000Z</time>
        <extensions>
          <ns3:TrackPointExtension>
            <ns3:hr>103</ns3:hr>
            <ns3:cad>0</ns3:cad>
          </ns3:TrackPointExtension>
        </extensions>
      </trkpt>
      <trkpt lat="38.02998407743871212005615234375" lon="-106.937637291848659515380859375">
        <ele>4045.800048828125</ele>
        <time>2026-05-25T16:20:12.000Z</time>
        <extensions>
          <ns3:TrackPointExtension>
            <ns3:hr>104</ns3:hr>
            <ns3:cad>0</ns3:cad>
          </ns3:TrackPointExtension>
        </extensions>
      </trkpt>
      <trkpt lat="38.02999162115156650543212890625" lon="-106.9376424886286258697509765625">
        <ele>4046</ele>
        <time>2026-05-25T16:20:13.000Z</time>
        <extensions>
          <ns3:TrackPointExtension>
            <ns3:hr>104</ns3:hr>
            <ns3:cad>0</ns3:cad>
          </ns3:TrackPointExtension>
        </extensions>
      </trkpt>
      <trkpt lat="38.03000570274889469146728515625" lon="-106.93767048418521881103515625">
        <ele>4046.800048828125</ele>
        <time>2026-05-25T16:20:16.000Z</time>
        <extensions>
          <ns3:TrackPointExtension>
            <ns3:hr>105</ns3:hr>
            <ns3:cad>0</ns3:cad>
          </ns3:TrackPointExtension>
        </extensions>
      </trkpt>
      <trkpt lat="38.0300222150981426239013671875" lon="-106.93772136233747005462646484375">
        <ele>4047.800048828125</ele>
        <time>2026-05-25T16:20:20.000Z</time>
        <extensions>
          <ns3:TrackPointExtension>
            <ns3:hr>107</ns3:hr>
            <ns3:cad>0</ns3:cad>
          </ns3:TrackPointExtension>
        </extensions>
      </trkpt>
      <trkpt lat="38.03004744462668895721435546875" lon="-106.93774960935115814208984375">
        <ele>4048.39990234375</ele>
        <time>2026-05-25T16:20:23.000Z</time>
        <extensions>
          <ns3:TrackPointExtension>
            <ns3:hr>111</ns3:hr>
            <ns3:cad>0</ns3:cad>
          </ns3:TrackPointExtension>
        </extensions>
      </trkpt>
      <trkpt lat="38.03006638772785663604736328125" lon="-106.93774919025599956512451171875">
        <ele>4048.60009765625</ele>
        <time>2026-05-25T16:20:25.000Z</time>
        <extensions>
          <ns3:TrackPointExtension>
            <ns3:hr>112</ns3:hr>
            <ns3:cad>0</ns3:cad>
          </ns3:TrackPointExtension>
        </extensions>
      </trkpt>
      <trkpt lat="38.03008482791483402252197265625" lon="-106.93775673396885395050048828125">
        <ele>4049</ele>
        <time>2026-05-25T16:20:27.000Z</time>
        <extensions>
          <ns3:TrackPointExtension>
            <ns3:hr>114</ns3:hr>
            <ns3:cad>0</ns3:cad>
          </ns3:TrackPointExtension>
        </extensions>
      </trkpt>
      <trkpt lat="38.03012036718428134918212890625" lon="-106.93777483887970447540283203125">
        <ele>4049.39990234375</ele>
        <time>2026-05-25T16:20:31.000Z</time>
        <extensions>
          <ns3:TrackPointExtension>
            <ns3:hr>116</ns3:hr>
            <ns3:cad>0</ns3:cad>
          </ns3:TrackPointExtension>
        </extensions>
      </trkpt>
      <trkpt lat="38.03015875630080699920654296875" lon="-106.9378050975501537322998046875">
        <ele>4050</ele>
        <time>2026-05-25T16:20:36.000Z</time>
        <extensions>
          <ns3:TrackPointExtension>
            <ns3:hr>118</ns3:hr>
            <ns3:cad>0</ns3:cad>
          </ns3:TrackPointExtension>
        </extensions>
      </trkpt>
      <trkpt lat="38.03021273575723171234130859375" lon="-106.93782445974647998809814453125">
        <ele>4050.39990234375</ele>
        <time>2026-05-25T16:20:41.000Z</time>
        <extensions>
          <ns3:TrackPointExtension>
            <ns3:hr>117</ns3:hr>
            <ns3:cad>0</ns3:cad>
          </ns3:TrackPointExtension>
        </extensions>
      </trkpt>
      <trkpt lat="38.03023687563836574554443359375" lon="-106.9378205202519893646240234375">
        <ele>4050.60009765625</ele>
        <time>2026-05-25T16:20:47.000Z</time>
        <extensions>
          <ns3:TrackPointExtension>
            <ns3:hr>115</ns3:hr>
            <ns3:cad>0</ns3:cad>
          </ns3:TrackPointExtension>
        </extensions>
      </trkpt>
      <trkpt lat="38.03024324588477611541748046875" lon="-106.93782026879489421844482421875">
        <ele>4051</ele>
        <time>2026-05-25T16:20:49.000Z</time>
        <extensions>
          <ns3:TrackPointExtension>
            <ns3:hr>116</ns3:hr>
            <ns3:cad>0</ns3:cad>
          </ns3:TrackPointExtension>
        </extensions>
      </trkpt>
      <trkpt lat="38.03029554896056652069091796875" lon="-106.93781666457653045654296875">
        <ele>4050.199951171875</ele>
        <time>2026-05-25T16:20:55.000Z</time>
        <extensions>
          <ns3:TrackPointExtension>
            <ns3:hr>117</ns3:hr>
            <ns3:cad>0</ns3:cad>
          </ns3:TrackPointExtension>
        </extensions>
      </trkpt>
      <trkpt lat="38.0303075350821018218994140625" lon="-106.93783367983996868133544921875">
        <ele>4049.800048828125</ele>
        <time>2026-05-25T16:20:56.000Z</time>
        <extensions>
          <ns3:TrackPointExtension>
            <ns3:hr>117</ns3:hr>
            <ns3:cad>0</ns3:cad>
          </ns3:TrackPointExtension>
        </extensions>
      </trkpt>
      <trkpt lat="38.03032672964036464691162109375" lon="-106.937849186360836029052734375">
        <ele>4050</ele>
        <time>2026-05-25T16:21:00.000Z</time>
        <extensions>
          <ns3:TrackPointExtension>
            <ns3:hr>116</ns3:hr>
            <ns3:cad>0</ns3:cad>
          </ns3:TrackPointExtension>
        </extensions>
      </trkpt>
      <trkpt lat="38.03037383593618869781494140625" lon="-106.9378436543047428131103515625">
        <ele>4050.199951171875</ele>
        <time>2026-05-25T16:21:05.000Z</time>
        <extensions>
          <ns3:TrackPointExtension>
            <ns3:hr>113</ns3:hr>
            <ns3:cad>0</ns3:cad>
          </ns3:TrackPointExtension>
        </extensions>
      </trkpt>
      <trkpt lat="38.03040736354887485504150390625" lon="-106.9378299079835414886474609375">
        <ele>4049</ele>
        <time>2026-05-25T16:21:11.000Z</time>
        <extensions>
          <ns3:TrackPointExtension>
            <ns3:hr>110</ns3:hr>
            <ns3:cad>0</ns3:cad>
          </ns3:TrackPointExtension>
        </extensions>
      </trkpt>
      <trkpt lat="38.03041197359561920166015625" lon="-106.9378294050693511962890625">
        <ele>4048.60009765625</ele>
        <time>2026-05-25T16:21:13.000Z</time>
        <extensions>
          <ns3:TrackPointExtension>
            <ns3:hr>112</ns3:hr>
            <ns3:cad>0</ns3:cad>
          </ns3:TrackPointExtension>
        </extensions>
      </trkpt>
      <trkpt lat="38.03046352230012416839599609375" lon="-106.93780786357820034027099609375">
        <ele>4048.800048828125</ele>
        <time>2026-05-25T16:21:17.000Z</time>
        <extensions>
          <ns3:TrackPointExtension>
            <ns3:hr>114</ns3:hr>
            <ns3:cad>0</ns3:cad>
          </ns3:TrackPointExtension>
        </extensions>
      </trkpt>
      <trkpt lat="38.0305093713104724884033203125" lon="-106.9377972185611724853515625">
        <ele>4049</ele>
        <time>2026-05-25T16:21:23.000Z</time>
        <extensions>
          <ns3:TrackPointExtension>
            <ns3:hr>112</ns3:hr>
            <ns3:cad>46</ns3:cad>
          </ns3:TrackPointExtension>
        </extensions>
      </trkpt>
      <trkpt lat="38.03052772767841815948486328125" lon="-106.9377879984676837921142578125">
        <ele>4049</ele>
        <time>2026-05-25T16:21:24.000Z</time>
        <extensions>
          <ns3:TrackPointExtension>
            <ns3:hr>112</ns3:hr>
            <ns3:cad>0</ns3:cad>
          </ns3:TrackPointExtension>
        </extensions>
      </trkpt>
      <trkpt lat="38.03056620061397552490234375" lon="-106.9377588294446468353271484375">
        <ele>4048.199951171875</ele>
        <time>2026-05-25T16:21:30.000Z</time>
        <extensions>
          <ns3:TrackPointExtension>
            <ns3:hr>112</ns3:hr>
            <ns3:cad>0</ns3:cad>
          </ns3:TrackPointExtension>
        </extensions>
      </trkpt>
      <trkpt lat="38.03060970269143581390380859375" lon="-106.937706358730792999267578125">
        <ele>4048.39990234375</ele>
        <time>2026-05-25T16:21:36.000Z</time>
        <extensions>
          <ns3:TrackPointExtension>
            <ns3:hr>111</ns3:hr>
            <ns3:cad>0</ns3:cad>
          </ns3:TrackPointExtension>
        </extensions>
      </trkpt>
      <trkpt lat="38.03067214787006378173828125" lon="-106.93767492659389972686767578125">
        <ele>4047.60009765625</ele>
        <time>2026-05-25T16:21:42.000Z</time>
        <extensions>
          <ns3:TrackPointExtension>
            <ns3:hr>112</ns3:hr>
            <ns3:cad>51</ns3:cad>
          </ns3:TrackPointExtension>
        </extensions>
      </trkpt>
      <trkpt lat="38.03068421781063079833984375" lon="-106.9376706518232822418212890625">
        <ele>4047.39990234375</ele>
        <time>2026-05-25T16:21:43.000Z</time>
        <extensions>
          <ns3:TrackPointExtension>
            <ns3:hr>112</ns3:hr>
            <ns3:cad>51</ns3:cad>
          </ns3:TrackPointExtension>
        </extensions>
      </trkpt>
      <trkpt lat="38.03074481897056102752685546875" lon="-106.9376106373965740203857421875">
        <ele>4047</ele>
        <time>2026-05-25T16:21:49.000Z</time>
        <extensions>
          <ns3:TrackPointExtension>
            <ns3:hr>111</ns3:hr>
            <ns3:cad>0</ns3:cad>
          </ns3:TrackPointExtension>
        </extensions>
      </trkpt>
      <trkpt lat="38.03081053309142589569091796875" lon="-106.9375673867762088775634765625">
        <ele>4047</ele>
        <time>2026-05-25T16:21:55.000Z</time>
        <extensions>
          <ns3:TrackPointExtension>
            <ns3:hr>111</ns3:hr>
            <ns3:cad>58</ns3:cad>
          </ns3:TrackPointExtension>
        </extensions>
      </trkpt>
      <trkpt lat="38.03081053309142589569091796875" lon="-106.9375673867762088775634765625">
        <ele>4047</ele>
        <time>2026-05-25T16:21:56.000Z</time>
        <extensions>
          <ns3:TrackPointExtension>
            <ns3:hr>111</ns3:hr>
            <ns3:cad>58</ns3:cad>
          </ns3:TrackPointExtension>
        </extensions>
      </trkpt>
      <trkpt lat="38.0308982916176319122314453125" lon="-106.9375459291040897369384765625">
        <ele>4047.60009765625</ele>
        <time>2026-05-25T16:22:02.000Z</time>
        <extensions>
          <ns3:TrackPointExtension>
            <ns3:hr>110</ns3:hr>
            <ns3:cad>53</ns3:cad>
          </ns3:TrackPointExtension>
        </extensions>
      </trkpt>
      <trkpt lat="38.03091086447238922119140625" lon="-106.93754710257053375244140625">
        <ele>4047.800048828125</ele>
        <time>2026-05-25T16:22:03.000Z</time>
        <extensions>
          <ns3:TrackPointExtension>
            <ns3:hr>110</ns3:hr>
            <ns3:cad>53</ns3:cad>
          </ns3:TrackPointExtension>
        </extensions>
      </trkpt>
      <trkpt lat="38.03098739124834537506103515625" lon="-106.9375388883054256439208984375">
        <ele>4047.60009765625</ele>
        <time>2026-05-25T16:22:09.000Z</time>
        <extensions>
          <ns3:TrackPointExtension>
            <ns3:hr>109</ns3:hr>
            <ns3:cad>53</ns3:cad>
          </ns3:TrackPointExtension>
        </extensions>
      </trkpt>
      <trkpt lat="38.0310008861124515533447265625" lon="-106.9375345297157764434814453125">
        <ele>4047.800048828125</ele>
        <time>2026-05-25T16:22:10.000Z</time>
        <extensions>
          <ns3:TrackPointExtension>
            <ns3:hr>109</ns3:hr>
            <ns3:cad>53</ns3:cad>
          </ns3:TrackPointExtension>
        </extensions>
      </trkpt>
      <trkpt lat="38.03107087500393390655517578125" lon="-106.93753863684833049774169921875">
        <ele>4048.199951171875</ele>
        <time>2026-05-25T16:22:16.000Z</time>
        <extensions>
          <ns3:TrackPointExtension>
            <ns3:hr>110</ns3:hr>
            <ns3:cad>53</ns3:cad>
          </ns3:TrackPointExtension>
        </extensions>
      </trkpt>
      <trkpt lat="38.03108043037354946136474609375" lon="-106.93754039704799652099609375">
        <ele>4048.199951171875</ele>
        <time>2026-05-25T16:22:17.000Z</time>
        <extensions>
          <ns3:TrackPointExtension>
            <ns3:hr>109</ns3:hr>
            <ns3:cad>53</ns3:cad>
          </ns3:TrackPointExtension>
        </extensions>
      </trkpt>
      <trkpt lat="38.0311336554586887359619140625" lon="-106.9375308416783809661865234375">
        <ele>4048.800048828125</ele>
        <time>2026-05-25T16:22:22.000Z</time>
        <extensions>
          <ns3:TrackPointExtension>
            <ns3:hr>108</ns3:hr>
            <ns3:cad>53</ns3:cad>
          </ns3:TrackPointExtension>
        </extensions>
      </trkpt>
      <trkpt lat="38.031145222485065460205078125" lon="-106.9375251419842243194580078125">
        <ele>4049</ele>
        <time>2026-05-25T16:22:23.000Z</time>
        <extensions>
          <ns3:TrackPointExtension>
            <ns3:hr>108</ns3:hr>
            <ns3:cad>53</ns3:cad>
          </ns3:TrackPointExtension>
        </extensions>
      </trkpt>
      <trkpt lat="38.031153939664363861083984375" lon="-106.93751466460525989532470703125">
        <ele>4049.199951171875</ele>
        <time>2026-05-25T16:22:25.000Z</time>
        <extensions>
          <ns3:TrackPointExtension>
            <ns3:hr>108</ns3:hr>
            <ns3:cad>47</ns3:cad>
          </ns3:TrackPointExtension>
        </extensions>
      </trkpt>
      <trkpt lat="38.03120515309274196624755859375" lon="-106.93748918361961841583251953125">
        <ele>4049.199951171875</ele>
        <time>2026-05-25T16:22:29.000Z</time>
        <extensions>
          <ns3:TrackPointExtension>
            <ns3:hr>110</ns3:hr>
            <ns3:cad>0</ns3:cad>
          </ns3:TrackPointExtension>
        </extensions>
      </trkpt>
      <trkpt lat="38.031233064830303192138671875" lon="-106.9374771974980831146240234375">
        <ele>4049.60009765625</ele>
        <time>2026-05-25T16:22:32.000Z</time>
        <extensions>
          <ns3:TrackPointExtension>
            <ns3:hr>114</ns3:hr>
            <ns3:cad>0</ns3:cad>
          </ns3:TrackPointExtension>
        </extensions>
      </trkpt>
      <trkpt lat="38.03124974481761455535888671875" lon="-106.9374726712703704833984375">
        <ele>4050</ele>
        <time>2026-05-25T16:22:34.000Z</time>
        <extensions>
          <ns3:TrackPointExtension>
            <ns3:hr>118</ns3:hr>
            <ns3:cad>0</ns3:cad>
          </ns3:TrackPointExtension>
        </extensions>
      </trkpt>
      <trkpt lat="38.0312684364616870880126953125" lon="-106.9374674744904041290283203125">
        <ele>4050.199951171875</ele>
        <time>2026-05-25T16:22:36.000Z</time>
        <extensions>
          <ns3:TrackPointExtension>
            <ns3:hr>122</ns3:hr>
            <ns3:cad>0</ns3:cad>
          </ns3:TrackPointExtension>
        </extensions>
      </trkpt>
      <trkpt lat="38.031274639070034027099609375" lon="-106.9374619424343109130859375">
        <ele>4050.39990234375</ele>
        <time>2026-05-25T16:22:37.000Z</time>
        <extensions>
          <ns3:TrackPointExtension>
            <ns3:hr>125</ns3:hr>
            <ns3:cad>0</ns3:cad>
          </ns3:TrackPointExtension>
        </extensions>
      </trkpt>
      <trkpt lat="38.0312795005738735198974609375" lon="-106.937455572187900543212890625">
        <ele>4050.39990234375</ele>
        <time>2026-05-25T16:22:38.000Z</time>
        <extensions>
          <ns3:TrackPointExtension>
            <ns3:hr>125</ns3:hr>
            <ns3:cad>0</ns3:cad>
          </ns3:TrackPointExtension>
        </extensions>
      </trkpt>
      <trkpt lat="38.03134010173380374908447265625" lon="-106.937431432306766510009765625">
        <ele>4050.60009765625</ele>
        <time>2026-05-25T16:22:44.000Z</time>
        <extensions>
          <ns3:TrackPointExtension>
            <ns3:hr>126</ns3:hr>
            <ns3:cad>0</ns3:cad>
          </ns3:TrackPointExtension>
        </extensions>
      </trkpt>
      <trkpt lat="38.0313489027321338653564453125" lon="-106.93742799572646617889404296875">
        <ele>4051</ele>
        <time>2026-05-25T16:22:46.000Z</time>
        <extensions>
          <ns3:TrackPointExtension>
            <ns3:hr>125</ns3:hr>
            <ns3:cad>0</ns3:cad>
          </ns3:TrackPointExtension>
        </extensions>
      </trkpt>
      <trkpt lat="38.03142760880291461944580078125" lon="-106.93737368099391460418701171875">
        <ele>4050.800048828125</ele>
        <time>2026-05-25T16:22:52.000Z</time>
        <extensions>
          <ns3:TrackPointExtension>
            <ns3:hr>124</ns3:hr>
            <ns3:cad>0</ns3:cad>
          </ns3:TrackPointExtension>
        </extensions>
      </trkpt>
      <trkpt lat="38.03148075006902217864990234375" lon="-106.9373585097491741180419921875">
        <ele>4050.800048828125</ele>
        <time>2026-05-25T16:22:57.000Z</time>
        <extensions>
          <ns3:TrackPointExtension>
            <ns3:hr>123</ns3:hr>
            <ns3:cad>0</ns3:cad>
          </ns3:TrackPointExtension>
        </extensions>
      </trkpt>
      <trkpt lat="38.0315064825117588043212890625" lon="-106.93735172040760517120361328125">
        <ele>4051.39990234375</ele>
        <time>2026-05-25T16:23:01.000Z</time>
        <extensions>
          <ns3:TrackPointExtension>
            <ns3:hr>122</ns3:hr>
            <ns3:cad>0</ns3:cad>
          </ns3:TrackPointExtension>
        </extensions>
      </trkpt>
      <trkpt lat="38.0315514095127582550048828125" lon="-106.93733646534383296966552734375">
        <ele>4051.800048828125</ele>
        <time>2026-05-25T16:23:05.000Z</time>
        <extensions>
          <ns3:TrackPointExtension>
            <ns3:hr>118</ns3:hr>
            <ns3:cad>0</ns3:cad>
          </ns3:TrackPointExtension>
        </extensions>
      </trkpt>
      <trkpt lat="38.03157010115683078765869140625" lon="-106.937326490879058837890625">
        <ele>4052</ele>
        <time>2026-05-25T16:23:06.000Z</time>
        <extensions>
          <ns3:TrackPointExtension>
            <ns3:hr>115</ns3:hr>
            <ns3:cad>0</ns3:cad>
          </ns3:TrackPointExtension>
        </extensions>
      </trkpt>
      <trkpt lat="38.03157881833612918853759765625" lon="-106.9373222999274730682373046875">
        <ele>4052.39990234375</ele>
        <time>2026-05-25T16:23:07.000Z</time>
        <extensions>
          <ns3:TrackPointExtension>
            <ns3:hr>115</ns3:hr>
            <ns3:cad>0</ns3:cad>
          </ns3:TrackPointExtension>
        </extensions>
      </trkpt>
      <trkpt lat="38.031636737287044525146484375" lon="-106.9372917897999286651611328125">
        <ele>4052.199951171875</ele>
        <time>2026-05-25T16:23:13.000Z</time>
        <extensions>
          <ns3:TrackPointExtension>
            <ns3:hr>115</ns3:hr>
            <ns3:cad>48</ns3:cad>
          </ns3:TrackPointExtension>
        </extensions>
      </trkpt>
      <trkpt lat="38.0316788144409656524658203125" lon="-106.9372770376503467559814453125">
        <ele>4052.800048828125</ele>
        <time>2026-05-25T16:23:18.000Z</time>
        <extensions>
          <ns3:TrackPointExtension>
            <ns3:hr>115</ns3:hr>
            <ns3:cad>0</ns3:cad>
          </ns3:TrackPointExtension>
        </extensions>
      </trkpt>
      <trkpt lat="38.03169138729572296142578125" lon="-106.9372753612697124481201171875">
        <ele>4053.199951171875</ele>
        <time>2026-05-25T16:23:20.000Z</time>
        <extensions>
          <ns3:TrackPointExtension>
            <ns3:hr>116</ns3:hr>
            <ns3:cad>0</ns3:cad>
          </ns3:TrackPointExtension>
        </extensions>
      </trkpt>
      <trkpt lat="38.03174712695181369781494140625" lon="-106.93728399462997913360595703125">
        <ele>4054.199951171875</ele>
        <time>2026-05-25T16:23:24.000Z</time>
        <extensions>
          <ns3:TrackPointExtension>
            <ns3:hr>118</ns3:hr>
            <ns3:cad>0</ns3:cad>
          </ns3:TrackPointExtension>
        </extensions>
      </trkpt>
      <trkpt lat="38.03175433538854122161865234375" lon="-106.9372837431728839874267578125">
        <ele>4054.39990234375</ele>
        <time>2026-05-25T16:23:25.000Z</time>
        <extensions>
          <ns3:TrackPointExtension>
            <ns3:hr>118</ns3:hr>
            <ns3:cad>0</ns3:cad>
          </ns3:TrackPointExtension>
        </extensions>
      </trkpt>
      <trkpt lat="38.03179071284830570220947265625" lon="-106.937262117862701416015625">
        <ele>4055.199951171875</ele>
        <time>2026-05-25T16:23:29.000Z</time>
        <extensions>
          <ns3:TrackPointExtension>
            <ns3:hr>119</ns3:hr>
            <ns3:cad>0</ns3:cad>
          </ns3:TrackPointExtension>
        </extensions>
      </trkpt>
      <trkpt lat="38.0317954905331134796142578125" lon="-106.93725532852113246917724609375">
        <ele>4055.39990234375</ele>
        <time>2026-05-25T16:23:30.000Z</time>
        <extensions>
          <ns3:TrackPointExtension>
            <ns3:hr>119</ns3:hr>
            <ns3:cad>0</ns3:cad>
          </ns3:TrackPointExtension>
        </extensions>
      </trkpt>
      <trkpt lat="38.03180529735982418060302734375" lon="-106.937257088720798492431640625">
        <ele>4055.800048828125</ele>
        <time>2026-05-25T16:23:32.000Z</time>
        <extensions>
          <ns3:TrackPointExtension>
            <ns3:hr>119</ns3:hr>
            <ns3:cad>0</ns3:cad>
          </ns3:TrackPointExtension>
        </extensions>
      </trkpt>
      <trkpt lat="38.0318333767354488372802734375" lon="-106.937241666018962860107421875">
        <ele>4055.800048828125</ele>
        <time>2026-05-25T16:23:36.000Z</time>
        <extensions>
          <ns3:TrackPointExtension>
            <ns3:hr>120</ns3:hr>
            <ns3:cad>0</ns3:cad>
          </ns3:TrackPointExtension>
        </extensions>
      </trkpt>
      <trkpt lat="38.0318422615528106689453125" lon="-106.937224231660366058349609375">
        <ele>4056.199951171875</ele>
        <time>2026-05-25T16:23:39.000Z</time>
        <extensions>
          <ns3:TrackPointExtension>
            <ns3:hr>123</ns3:hr>
            <ns3:cad>0</ns3:cad>
          </ns3:TrackPointExtension>
        </extensions>
      </trkpt>
      <trkpt lat="38.03185810334980487823486328125" lon="-106.9372042827308177947998046875">
        <ele>4056.60009765625</ele>
        <time>2026-05-25T16:23:41.000Z</time>
        <extensions>
          <ns3:TrackPointExtension>
            <ns3:hr>123</ns3:hr>
            <ns3:cad>46</ns3:cad>
          </ns3:TrackPointExtension>
        </extensions>
      </trkpt>
      <trkpt lat="38.031866066157817840576171875" lon="-106.937192715704441070556640625">
        <ele>4056.800048828125</ele>
        <time>2026-05-25T16:23:42.000Z</time>
        <extensions>
          <ns3:TrackPointExtension>
            <ns3:hr>123</ns3:hr>
            <ns3:cad>0</ns3:cad>
          </ns3:TrackPointExtension>
        </extensions>
      </trkpt>
      <trkpt lat="38.0318917147815227508544921875" lon="-106.93717771209776401519775390625">
        <ele>4057.39990234375</ele>
        <time>2026-05-25T16:23:45.000Z</time>
        <extensions>
          <ns3:TrackPointExtension>
            <ns3:hr>124</ns3:hr>
            <ns3:cad>0</ns3:cad>
          </ns3:TrackPointExtension>
        </extensions>
      </trkpt>
      <trkpt lat="38.0319141782820224761962890625" lon="-106.9371741078794002532958984375">
        <ele>4057.39990234375</ele>
        <time>2026-05-25T16:23:47.000Z</time>
        <extensions>
          <ns3:TrackPointExtension>
            <ns3:hr>124</ns3:hr>
            <ns3:cad>0</ns3:cad>
          </ns3:TrackPointExtension>
        </extensions>
      </trkpt>
      <trkpt lat="38.03196824155747890472412109375" lon="-106.93715943954885005950927734375">
        <ele>4057.60009765625</ele>
        <time>2026-05-25T16:23:52.000Z</time>
        <extensions>
          <ns3:TrackPointExtension>
            <ns3:hr>125</ns3:hr>
            <ns3:cad>0</ns3:cad>
          </ns3:TrackPointExtension>
        </extensions>
      </trkpt>
      <trkpt lat="38.03198802284896373748779296875" lon="-106.9371513091027736663818359375">
        <ele>4057.60009765625</ele>
        <time>2026-05-25T16:23:54.000Z</time>
        <extensions>
          <ns3:TrackPointExtension>
            <ns3:hr>128</ns3:hr>
            <ns3:cad>0</ns3:cad>
          </ns3:TrackPointExtension>
        </extensions>
      </trkpt>
      <trkpt lat="38.03201082162559032440185546875" lon="-106.937149800360202789306640625">
        <ele>4057.60009765625</ele>
        <time>2026-05-25T16:23:57.000Z</time>
        <extensions>
          <ns3:TrackPointExtension>
            <ns3:hr>133</ns3:hr>
            <ns3:cad>0</ns3:cad>
          </ns3:TrackPointExtension>
        </extensions>
      </trkpt>
      <trkpt lat="38.03202557377517223358154296875" lon="-106.93715474568307399749755859375">
        <ele>4057.60009765625</ele>
        <time>2026-05-25T16:23:58.000Z</time>
        <extensions>
          <ns3:TrackPointExtension>
            <ns3:hr>135</ns3:hr>
            <ns3:cad>0</ns3:cad>
          </ns3:TrackPointExtension>
        </extensions>
      </trkpt>
      <trkpt lat="38.0320663936436176300048828125" lon="-106.93714569322764873504638671875">
        <ele>4057.800048828125</ele>
        <time>2026-05-25T16:24:02.000Z</time>
        <extensions>
          <ns3:TrackPointExtension>
            <ns3:hr>138</ns3:hr>
            <ns3:cad>0</ns3:cad>
          </ns3:TrackPointExtension>
        </extensions>
      </trkpt>
      <trkpt lat="38.03207385353744029998779296875" lon="-106.93714074790477752685546875">
        <ele>4057.800048828125</ele>
        <time>2026-05-25T16:24:03.000Z</time>
        <extensions>
          <ns3:TrackPointExtension>
            <ns3:hr>138</ns3:hr>
            <ns3:cad>0</ns3:cad>
          </ns3:TrackPointExtension>
        </extensions>
      </trkpt>
      <trkpt lat="38.032102771103382110595703125" lon="-106.9371347129344940185546875">
        <ele>4058</ele>
        <time>2026-05-25T16:24:06.000Z</time>
        <extensions>
          <ns3:TrackPointExtension>
            <ns3:hr>135</ns3:hr>
            <ns3:cad>0</ns3:cad>
          </ns3:TrackPointExtension>
        </extensions>
      </trkpt>
      <trkpt lat="38.032122887670993804931640625" lon="-106.93713244982063770294189453125">
        <ele>4057.800048828125</ele>
        <time>2026-05-25T16:24:09.000Z</time>
        <extensions>
          <ns3:TrackPointExtension>
            <ns3:hr>135</ns3:hr>
            <ns3:cad>0</ns3:cad>
          </ns3:TrackPointExtension>
        </extensions>
      </trkpt>
      <trkpt lat="38.03221173584461212158203125" lon="-106.9371204636991024017333984375">
        <ele>4057.800048828125</ele>
        <time>2026-05-25T16:24:15.000Z</time>
        <extensions>
          <ns3:TrackPointExtension>
            <ns3:hr>134</ns3:hr>
            <ns3:cad>0</ns3:cad>
          </ns3:TrackPointExtension>
        </extensions>
      </trkpt>
      <trkpt lat="38.0322196148335933685302734375" lon="-106.93711903877556324005126953125">
        <ele>4057.800048828125</ele>
        <time>2026-05-25T16:24:16.000Z</time>
        <extensions>
          <ns3:TrackPointExtension>
            <ns3:hr>135</ns3:hr>
            <ns3:cad>0</ns3:cad>
          </ns3:TrackPointExtension>
        </extensions>
      </trkpt>
      <trkpt lat="38.0322806350886821746826171875" lon="-106.93710076622664928436279296875">
        <ele>4057.800048828125</ele>
        <time>2026-05-25T16:24:22.000Z</time>
        <extensions>
          <ns3:TrackPointExtension>
            <ns3:hr>134</ns3:hr>
            <ns3:cad>48</ns3:cad>
          </ns3:TrackPointExtension>
        </extensions>
      </trkpt>
      <trkpt lat="38.03230301477015018463134765625" lon="-106.9370886124670505523681640625">
        <ele>4057.60009765625</ele>
        <time>2026-05-25T16:24:24.000Z</time>
        <extensions>
          <ns3:TrackPointExtension>
            <ns3:hr>132</ns3:hr>
            <ns3:cad>48</ns3:cad>
          </ns3:TrackPointExtension>
        </extensions>
      </trkpt>
      <trkpt lat="38.03233168087899684906005859375" lon="-106.93708618171513080596923828125">
        <ele>4056.60009765625</ele>
        <time>2026-05-25T16:24:28.000Z</time>
        <extensions>
          <ns3:TrackPointExtension>
            <ns3:hr>130</ns3:hr>
            <ns3:cad>0</ns3:cad>
          </ns3:TrackPointExtension>
        </extensions>
      </trkpt>
      <trkpt lat="38.0323590897023677825927734375" lon="-106.93708551116287708282470703125">
        <ele>4055.60009765625</ele>
        <time>2026-05-25T16:24:32.000Z</time>
        <extensions>
          <ns3:TrackPointExtension>
            <ns3:hr>129</ns3:hr>
            <ns3:cad>0</ns3:cad>
          </ns3:TrackPointExtension>
        </extensions>
      </trkpt>
      <trkpt lat="38.0323986522853374481201171875" lon="-106.93708031438291072845458984375">
        <ele>4055</ele>
        <time>2026-05-25T16:24:37.000Z</time>
        <extensions>
          <ns3:TrackPointExtension>
            <ns3:hr>126</ns3:hr>
            <ns3:cad>0</ns3:cad>
          </ns3:TrackPointExtension>
        </extensions>
      </trkpt>
      <trkpt lat="38.0324080400168895721435546875" lon="-106.9370812363922595977783203125">
        <ele>4054.800048828125</ele>
        <time>2026-05-25T16:24:38.000Z</time>
        <extensions>
          <ns3:TrackPointExtension>
            <ns3:hr>126</ns3:hr>
            <ns3:cad>0</ns3:cad>
          </ns3:TrackPointExtension>
        </extensions>
      </trkpt>
      <trkpt lat="38.0324221216142177581787109375" lon="-106.9370810687541961669921875">
        <ele>4054.60009765625</ele>
        <time>2026-05-25T16:24:39.000Z</time>
        <extensions>
          <ns3:TrackPointExtension>
            <ns3:hr>125</ns3:hr>
            <ns3:cad>0</ns3:cad>
          </ns3:TrackPointExtension>
        </extensions>
      </trkpt>
      <trkpt lat="38.032497055828571319580078125" lon="-106.93710193969309329986572265625">
        <ele>4054</ele>
        <time>2026-05-25T16:24:44.000Z</time>
        <extensions>
          <ns3:TrackPointExtension>
            <ns3:hr>123</ns3:hr>
            <ns3:cad>0</ns3:cad>
          </ns3:TrackPointExtension>
        </extensions>
      </trkpt>
      <trkpt lat="38.0325374566018581390380859375" lon="-106.9371241517364978790283203125">
        <ele>4053.800048828125</ele>
        <time>2026-05-25T16:24:49.000Z</time>
        <extensions>
          <ns3:TrackPointExtension>
            <ns3:hr>120</ns3:hr>
            <ns3:cad>0</ns3:cad>
          </ns3:TrackPointExtension>
        </extensions>
      </trkpt>
      <trkpt lat="38.032549358904361724853515625" lon="-106.93713177926838397979736328125">
        <ele>4053.800048828125</ele>
        <time>2026-05-25T16:24:50.000Z</time>
        <extensions>
          <ns3:TrackPointExtension>
            <ns3:hr>120</ns3:hr>
            <ns3:cad>53</ns3:cad>
          </ns3:TrackPointExtension>
        </extensions>
      </trkpt>
      <trkpt lat="38.03261012770235538482666015625" lon="-106.93715424276888370513916015625">
        <ele>4053.39990234375</ele>
        <time>2026-05-25T16:24:54.000Z</time>
        <extensions>
          <ns3:TrackPointExtension>
            <ns3:hr>119</ns3:hr>
            <ns3:cad>53</ns3:cad>
          </ns3:TrackPointExtension>
        </extensions>
      </trkpt>
      <trkpt lat="38.03262387402355670928955078125" lon="-106.9371596910059452056884765625">
        <ele>4053.39990234375</ele>
        <time>2026-05-25T16:24:57.000Z</time>
        <extensions>
          <ns3:TrackPointExtension>
            <ns3:hr>117</ns3:hr>
            <ns3:cad>55</ns3:cad>
          </ns3:TrackPointExtension>
        </extensions>
      </trkpt>
      <trkpt lat="38.0326802842319011688232421875" lon="-106.93718475289642810821533203125">
        <ele>4053.39990234375</ele>
        <time>2026-05-25T16:25:02.000Z</time>
        <extensions>
          <ns3:TrackPointExtension>
            <ns3:hr>114</ns3:hr>
            <ns3:cad>0</ns3:cad>
          </ns3:TrackPointExtension>
        </extensions>
      </trkpt>
      <trkpt lat="38.03269227035343647003173828125" lon="-106.93718693219125270843505859375">
        <ele>4053.199951171875</ele>
        <time>2026-05-25T16:25:04.000Z</time>
        <extensions>
          <ns3:TrackPointExtension>
            <ns3:hr>113</ns3:hr>
            <ns3:cad>0</ns3:cad>
          </ns3:TrackPointExtension>
        </extensions>
      </trkpt>
      <trkpt lat="38.03274541161954402923583984375" lon="-106.93716061301529407501220703125">
        <ele>4053</ele>
        <time>2026-05-25T16:25:09.000Z</time>
        <extensions>
          <ns3:TrackPointExtension>
            <ns3:hr>112</ns3:hr>
            <ns3:cad>0</ns3:cad>
          </ns3:TrackPointExtension>
        </extensions>
      </trkpt>
      <trkpt lat="38.0328266322612762451171875" lon="-106.9371633790433406829833984375">
        <ele>4052.60009765625</ele>
        <time>2026-05-25T16:25:15.000Z</time>
        <extensions>
          <ns3:TrackPointExtension>
            <ns3:hr>114</ns3:hr>
            <ns3:cad>0</ns3:cad>
          </ns3:TrackPointExtension>
        </extensions>
      </trkpt>
      <trkpt lat="38.03288069553673267364501953125" lon="-106.937176287174224853515625">
        <ele>4053.199951171875</ele>
        <time>2026-05-25T16:25:21.000Z</time>
        <extensions>
          <ns3:TrackPointExtension>
            <ns3:hr>115</ns3:hr>
            <ns3:cad>50</ns3:cad>
          </ns3:TrackPointExtension>
        </extensions>
      </trkpt>
      <trkpt lat="38.0328995548188686370849609375" lon="-106.9371814839541912078857421875">
        <ele>4053.199951171875</ele>
        <time>2026-05-25T16:25:22.000Z</time>
        <extensions>
          <ns3:TrackPointExtension>
            <ns3:hr>115</ns3:hr>
            <ns3:cad>50</ns3:cad>
          </ns3:TrackPointExtension>
        </extensions>
      </trkpt>
      <trkpt lat="38.032953701913356781005859375" lon="-106.93718500435352325439453125">
        <ele>4053.60009765625</ele>
        <time>2026-05-25T16:25:27.000Z</time>
        <extensions>
          <ns3:TrackPointExtension>
            <ns3:hr>112</ns3:hr>
            <ns3:cad>0</ns3:cad>
          </ns3:TrackPointExtension>
        </extensions>
      </trkpt>
      <trkpt lat="38.032953701913356781005859375" lon="-106.93718500435352325439453125">
        <ele>4053.39990234375</ele>
        <time>2026-05-25T16:25:28.000Z</time>
        <extensions>
          <ns3:TrackPointExtension>
            <ns3:hr>112</ns3:hr>
            <ns3:cad>0</ns3:cad>
          </ns3:TrackPointExtension>
        </extensions>
      </trkpt>
      <trkpt lat="38.0329840444028377532958984375" lon="-106.9371576793491840362548828125">
        <ele>4052.800048828125</ele>
        <time>2026-05-25T16:25:32.000Z</time>
        <extensions>
          <ns3:TrackPointExtension>
            <ns3:hr>111</ns3:hr>
            <ns3:cad>0</ns3:cad>
          </ns3:TrackPointExtension>
        </extensions>
      </trkpt>
      <trkpt lat="38.03299435414373874664306640625" lon="-106.93715122528374195098876953125">
        <ele>4052.39990234375</ele>
        <time>2026-05-25T16:25:34.000Z</time>
        <extensions>
          <ns3:TrackPointExtension>
            <ns3:hr>110</ns3:hr>
            <ns3:cad>0</ns3:cad>
          </ns3:TrackPointExtension>
        </extensions>
      </trkpt>
      <trkpt lat="38.0330143868923187255859375" lon="-106.93712004460394382476806640625">
        <ele>4052.199951171875</ele>
        <time>2026-05-25T16:25:39.000Z</time>
        <extensions>
          <ns3:TrackPointExtension>
            <ns3:hr>110</ns3:hr>
            <ns3:cad>0</ns3:cad>
          </ns3:TrackPointExtension>
        </extensions>
      </trkpt>
      <trkpt lat="38.03303861059248447418212890625" lon="-106.937107555568218231201171875">
        <ele>4051.199951171875</ele>
        <time>2026-05-25T16:25:43.000Z</time>
        <extensions>
          <ns3:TrackPointExtension>
            <ns3:hr>112</ns3:hr>
            <ns3:cad>0</ns3:cad>
          </ns3:TrackPointExtension>
        </extensions>
      </trkpt>
      <trkpt lat="38.03304498083889484405517578125" lon="-106.93710277788341045379638671875">
        <ele>4050.39990234375</ele>
        <time>2026-05-25T16:25:45.000Z</time>
        <extensions>
          <ns3:TrackPointExtension>
            <ns3:hr>111</ns3:hr>
            <ns3:cad>0</ns3:cad>
          </ns3:TrackPointExtension>
        </extensions>
      </trkpt>
      <trkpt lat="38.03306224755942821502685546875" lon="-106.93709640763700008392333984375">
        <ele>4049.800048828125</ele>
        <time>2026-05-25T16:25:47.000Z</time>
        <extensions>
          <ns3:TrackPointExtension>
            <ns3:hr>111</ns3:hr>
            <ns3:cad>0</ns3:cad>
          </ns3:TrackPointExtension>
        </extensions>
      </trkpt>
      <trkpt lat="38.03310533054172992706298828125" lon="-106.93707746453583240509033203125">
        <ele>4049.199951171875</ele>
        <time>2026-05-25T16:25:52.000Z</time>
        <extensions>
          <ns3:TrackPointExtension>
            <ns3:hr>110</ns3:hr>
            <ns3:cad>55</ns3:cad>
          </ns3:TrackPointExtension>
        </extensions>
      </trkpt>
      <trkpt lat="38.03310851566493511199951171875" lon="-106.93707494996488094329833984375">
        <ele>4048.800048828125</ele>
        <time>2026-05-25T16:25:54.000Z</time>
        <extensions>
          <ns3:TrackPointExtension>
            <ns3:hr>109</ns3:hr>
            <ns3:cad>55</ns3:cad>
          </ns3:TrackPointExtension>
        </extensions>
      </trkpt>
      <trkpt lat="38.0331339128315448760986328125" lon="-106.93706120364367961883544921875">
        <ele>4047.800048828125</ele>
        <time>2026-05-25T16:26:00.000Z</time>
        <extensions>
          <ns3:TrackPointExtension>
            <ns3:hr>110</ns3:hr>
            <ns3:cad>53</ns3:cad>
          </ns3:TrackPointExtension>
        </extensions>
      </trkpt>
      <trkpt lat="38.03315461613237857818603515625" lon="-106.93706170655786991119384765625">
        <ele>4047.199951171875</ele>
        <time>2026-05-25T16:26:02.000Z</time>
        <extensions>
          <ns3:TrackPointExtension>
            <ns3:hr>109</ns3:hr>
            <ns3:cad>53</ns3:cad>
          </ns3:TrackPointExtension>
        </extensions>
      </trkpt>
      <trkpt lat="38.0331758223474025726318359375" lon="-106.93706254474818706512451171875">
        <ele>4046.60009765625</ele>
        <time>2026-05-25T16:26:04.000Z</time>
        <extensions>
          <ns3:TrackPointExtension>
            <ns3:hr>107</ns3:hr>
            <ns3:cad>53</ns3:cad>
          </ns3:TrackPointExtension>
        </extensions>
      </trkpt>
      <trkpt lat="38.03321362473070621490478515625" lon="-106.9370443560183048248291015625">
        <ele>4046.39990234375</ele>
        <time>2026-05-25T16:26:09.000Z</time>
        <extensions>
          <ns3:TrackPointExtension>
            <ns3:hr>105</ns3:hr>
            <ns3:cad>0</ns3:cad>
          </ns3:TrackPointExtension>
        </extensions>
      </trkpt>
      <trkpt lat="38.03321882151067256927490234375" lon="-106.9370403327047824859619140625">
        <ele>4046.39990234375</ele>
        <time>2026-05-25T16:26:10.000Z</time>
        <extensions>
          <ns3:TrackPointExtension>
            <ns3:hr>105</ns3:hr>
            <ns3:cad>0</ns3:cad>
          </ns3:TrackPointExtension>
        </extensions>
      </trkpt>
      <trkpt lat="38.0332277901470661163330078125" lon="-106.93703907541930675506591796875">
        <ele>4045.60009765625</ele>
        <time>2026-05-25T16:26:14.000Z</time>
        <extensions>
          <ns3:TrackPointExtension>
            <ns3:hr>102</ns3:hr>
            <ns3:cad>0</ns3:cad>
          </ns3:TrackPointExtension>
        </extensions>
      </trkpt>
      <trkpt lat="38.033244051039218902587890625" lon="-106.93703454919159412384033203125">
        <ele>4044.39990234375</ele>
        <time>2026-05-25T16:26:17.000Z</time>
        <extensions>
          <ns3:TrackPointExtension>
            <ns3:hr>104</ns3:hr>
            <ns3:cad>0</ns3:cad>
          </ns3:TrackPointExtension>
        </extensions>
      </trkpt>
      <trkpt lat="38.033244051039218902587890625" lon="-106.93703454919159412384033203125">
        <ele>4044.199951171875</ele>
        <time>2026-05-25T16:26:18.000Z</time>
        <extensions>
          <ns3:TrackPointExtension>
            <ns3:hr>105</ns3:hr>
            <ns3:cad>0</ns3:cad>
          </ns3:TrackPointExtension>
        </extensions>
      </trkpt>
      <trkpt lat="38.03327682428061962127685546875" lon="-106.93700001575052738189697265625">
        <ele>4043.199951171875</ele>
        <time>2026-05-25T16:26:22.000Z</time>
        <extensions>
          <ns3:TrackPointExtension>
            <ns3:hr>107</ns3:hr>
            <ns3:cad>0</ns3:cad>
          </ns3:TrackPointExtension>
        </extensions>
      </trkpt>
      <trkpt lat="38.0332992039620876312255859375" lon="-106.93698274902999401092529296875">
        <ele>4042.60009765625</ele>
        <time>2026-05-25T16:26:24.000Z</time>
        <extensions>
          <ns3:TrackPointExtension>
            <ns3:hr>107</ns3:hr>
            <ns3:cad>0</ns3:cad>
          </ns3:TrackPointExtension>
        </extensions>
      </trkpt>
      <trkpt lat="38.03330481983721256256103515625" lon="-106.93697520531713962554931640625">
        <ele>4042</ele>
        <time>2026-05-25T16:26:26.000Z</time>
        <extensions>
          <ns3:TrackPointExtension>
            <ns3:hr>106</ns3:hr>
            <ns3:cad>0</ns3:cad>
          </ns3:TrackPointExtension>
        </extensions>
      </trkpt>
      <trkpt lat="38.0333622358739376068115234375" lon="-106.93694167770445346832275390625">
        <ele>4041.60009765625</ele>
        <time>2026-05-25T16:26:32.000Z</time>
        <extensions>
          <ns3:TrackPointExtension>
            <ns3:hr>106</ns3:hr>
            <ns3:cad>79</ns3:cad>
          </ns3:TrackPointExtension>
        </extensions>
      </trkpt>
      <trkpt lat="38.03338746540248394012451171875" lon="-106.936938576400279998779296875">
        <ele>4040.60009765625</ele>
        <time>2026-05-25T16:26:35.000Z</time>
        <extensions>
          <ns3:TrackPointExtension>
            <ns3:hr>105</ns3:hr>
            <ns3:cad>0</ns3:cad>
          </ns3:TrackPointExtension>
        </extensions>
      </trkpt>
      <trkpt lat="38.0334044806659221649169921875" lon="-106.9369377382099628448486328125">
        <ele>4039.39990234375</ele>
        <time>2026-05-25T16:26:38.000Z</time>
        <extensions>
          <ns3:TrackPointExtension>
            <ns3:hr>105</ns3:hr>
            <ns3:cad>61</ns3:cad>
          </ns3:TrackPointExtension>
        </extensions>
      </trkpt>
      <trkpt lat="38.03344110958278179168701171875" lon="-106.9369417615234851837158203125">
        <ele>4039</ele>
        <time>2026-05-25T16:26:41.000Z</time>
        <extensions>
          <ns3:TrackPointExtension>
            <ns3:hr>105</ns3:hr>
            <ns3:cad>0</ns3:cad>
          </ns3:TrackPointExtension>
        </extensions>
      </trkpt>
      <trkpt lat="38.0334658361971378326416015625" lon="-106.93694603629410266876220703125">
        <ele>4038.39990234375</ele>
        <time>2026-05-25T16:26:45.000Z</time>
        <extensions>
          <ns3:TrackPointExtension>
            <ns3:hr>106</ns3:hr>
            <ns3:cad>0</ns3:cad>
          </ns3:TrackPointExtension>
        </extensions>
      </trkpt>
      <trkpt lat="38.0335174687206745147705078125" lon="-106.9369464553892612457275390625">
        <ele>4039</ele>
        <time>2026-05-25T16:26:49.000Z</time>
        <extensions>
          <ns3:TrackPointExtension>
            <ns3:hr>106</ns3:hr>
            <ns3:cad>19</ns3:cad>
          </ns3:TrackPointExtension>
        </extensions>
      </trkpt>
      <trkpt lat="38.03356298245489597320556640625" lon="-106.936933211982250213623046875">
        <ele>4038</ele>
        <time>2026-05-25T16:26:53.000Z</time>
        <extensions>
          <ns3:TrackPointExtension>
            <ns3:hr>109</ns3:hr>
            <ns3:cad>53</ns3:cad>
          </ns3:TrackPointExtension>
        </extensions>
      </trkpt>
      <trkpt lat="38.0335841886699199676513671875" lon="-106.9369263388216495513916015625">
        <ele>4037.800048828125</ele>
        <time>2026-05-25T16:26:55.000Z</time>
        <extensions>
          <ns3:TrackPointExtension>
            <ns3:hr>108</ns3:hr>
            <ns3:cad>56</ns3:cad>
          </ns3:TrackPointExtension>
        </extensions>
      </trkpt>
      <trkpt lat="38.0336381681263446807861328125" lon="-106.9369203038513660430908203125">
        <ele>4037.39990234375</ele>
        <time>2026-05-25T16:27:01.000Z</time>
        <extensions>
          <ns3:TrackPointExtension>
            <ns3:hr>105</ns3:hr>
            <ns3:cad>54</ns3:cad>
          </ns3:TrackPointExtension>
        </extensions>
      </trkpt>
      <trkpt lat="38.03365602158010005950927734375" lon="-106.9369162805378437042236328125">
        <ele>4037.39990234375</ele>
        <time>2026-05-25T16:27:02.000Z</time>
        <extensions>
          <ns3:TrackPointExtension>
            <ns3:hr>105</ns3:hr>
            <ns3:cad>54</ns3:cad>
          </ns3:TrackPointExtension>
        </extensions>
      </trkpt>
      <trkpt lat="38.0337171256542205810546875" lon="-106.9369209744036197662353515625">
        <ele>4036.60009765625</ele>
        <time>2026-05-25T16:27:07.000Z</time>
        <extensions>
          <ns3:TrackPointExtension>
            <ns3:hr>106</ns3:hr>
            <ns3:cad>54</ns3:cad>
          </ns3:TrackPointExtension>
        </extensions>
      </trkpt>
      <trkpt lat="38.03373011760413646697998046875" lon="-106.9369239918887615203857421875">
        <ele>4036.39990234375</ele>
        <time>2026-05-25T16:27:08.000Z</time>
        <extensions>
          <ns3:TrackPointExtension>
            <ns3:hr>107</ns3:hr>
            <ns3:cad>57</ns3:cad>
          </ns3:TrackPointExtension>
        </extensions>
      </trkpt>
      <trkpt lat="38.03382433019578456878662109375" lon="-106.9369333796203136444091796875">
        <ele>4036</ele>
        <time>2026-05-25T16:27:14.000Z</time>
        <extensions>
          <ns3:TrackPointExtension>
            <ns3:hr>109</ns3:hr>
            <ns3:cad>55</ns3:cad>
          </ns3:TrackPointExtension>
        </extensions>
      </trkpt>
      <trkpt lat="38.03388333879411220550537109375" lon="-106.9369281828403472900390625">
        <ele>4035.60009765625</ele>
        <time>2026-05-25T16:27:20.000Z</time>
        <extensions>
          <ns3:TrackPointExtension>
            <ns3:hr>108</ns3:hr>
            <ns3:cad>0</ns3:cad>
          </ns3:TrackPointExtension>
        </extensions>
      </trkpt>
      <trkpt lat="38.0339100770652294158935546875" lon="-106.93692893721163272857666015625">
        <ele>4035.199951171875</ele>
        <time>2026-05-25T16:27:22.000Z</time>
        <extensions>
          <ns3:TrackPointExtension>
            <ns3:hr>108</ns3:hr>
            <ns3:cad>66</ns3:cad>
          </ns3:TrackPointExtension>
        </extensions>
      </trkpt>
      <trkpt lat="38.0339100770652294158935546875" lon="-106.93692893721163272857666015625">
        <ele>4035</ele>
        <time>2026-05-25T16:27:23.000Z</time>
        <extensions>
          <ns3:TrackPointExtension>
            <ns3:hr>108</ns3:hr>
            <ns3:cad>71</ns3:cad>
          </ns3:TrackPointExtension>
        </extensions>
      </trkpt>
      <trkpt lat="38.0339754559099674224853515625" lon="-106.93695140071213245391845703125">
        <ele>4035.199951171875</ele>
        <time>2026-05-25T16:27:29.000Z</time>
        <extensions>
          <ns3:TrackPointExtension>
            <ns3:hr>108</ns3:hr>
            <ns3:cad>0</ns3:cad>
          </ns3:TrackPointExtension>
        </extensions>
      </trkpt>
      <trkpt lat="38.0339754559099674224853515625" lon="-106.93695140071213245391845703125">
        <ele>4035.199951171875</ele>
        <time>2026-05-25T16:27:30.000Z</time>
        <extensions>
          <ns3:TrackPointExtension>
            <ns3:hr>108</ns3:hr>
            <ns3:cad>0</ns3:cad>
          </ns3:TrackPointExtension>
        </extensions>
      </trkpt>
      <trkpt lat="38.034032285213470458984375" lon="-106.93698040209710597991943359375">
        <ele>4035.39990234375</ele>
        <time>2026-05-25T16:27:35.000Z</time>
        <extensions>
          <ns3:TrackPointExtension>
            <ns3:hr>108</ns3:hr>
            <ns3:cad>0</ns3:cad>
          </ns3:TrackPointExtension>
        </extensions>
      </trkpt>
      <trkpt lat="38.0340706743299961090087890625" lon="-106.9369933940470218658447265625">
        <ele>4036.39990234375</ele>
        <time>2026-05-25T16:27:39.000Z</time>
        <extensions>
          <ns3:TrackPointExtension>
            <ns3:hr>108</ns3:hr>
            <ns3:cad>0</ns3:cad>
          </ns3:TrackPointExtension>
        </extensions>
      </trkpt>
      <trkpt lat="38.03409271873533725738525390625" lon="-106.93699917756021022796630859375">
        <ele>4037</ele>
        <time>2026-05-25T16:27:42.000Z</time>
        <extensions>
          <ns3:TrackPointExtension>
            <ns3:hr>109</ns3:hr>
            <ns3:cad>0</ns3:cad>
          </ns3:TrackPointExtension>
        </extensions>
      </trkpt>
      <trkpt lat="38.034135214984416961669921875" lon="-106.93701200187206268310546875">
        <ele>4036.800048828125</ele>
        <time>2026-05-25T16:27:46.000Z</time>
        <extensions>
          <ns3:TrackPointExtension>
            <ns3:hr>112</ns3:hr>
            <ns3:cad>0</ns3:cad>
          </ns3:TrackPointExtension>
        </extensions>
      </trkpt>
      <trkpt lat="38.0341598577797412872314453125" lon="-106.93701602518558502197265625">
        <ele>4036.60009765625</ele>
        <time>2026-05-25T16:27:48.000Z</time>
        <extensions>
          <ns3:TrackPointExtension>
            <ns3:hr>115</ns3:hr>
            <ns3:cad>0</ns3:cad>
          </ns3:TrackPointExtension>
        </extensions>
      </trkpt>
      <trkpt lat="38.03419430740177631378173828125" lon="-106.9370202161371707916259765625">
        <ele>4036.39990234375</ele>
        <time>2026-05-25T16:27:51.000Z</time>
        <extensions>
          <ns3:TrackPointExtension>
            <ns3:hr>116</ns3:hr>
            <ns3:cad>0</ns3:cad>
          </ns3:TrackPointExtension>
        </extensions>
      </trkpt>
      <trkpt lat="38.0342617817223072052001953125" lon="-106.93703438155353069305419921875">
        <ele>4036.199951171875</ele>
        <time>2026-05-25T16:27:57.000Z</time>
        <extensions>
          <ns3:TrackPointExtension>
            <ns3:hr>115</ns3:hr>
            <ns3:cad>0</ns3:cad>
          </ns3:TrackPointExtension>
        </extensions>
      </trkpt>
      <trkpt lat="38.03428265266120433807373046875" lon="-106.93703949451446533203125">
        <ele>4036.199951171875</ele>
        <time>2026-05-25T16:27:59.000Z</time>
        <extensions>
          <ns3:TrackPointExtension>
            <ns3:hr>116</ns3:hr>
            <ns3:cad>0</ns3:cad>
          </ns3:TrackPointExtension>
        </extensions>
      </trkpt>
      <trkpt lat="38.0343278311192989349365234375" lon="-106.937058269977569580078125">
        <ele>4035.199951171875</ele>
        <time>2026-05-25T16:28:04.000Z</time>
        <extensions>
          <ns3:TrackPointExtension>
            <ns3:hr>117</ns3:hr>
            <ns3:cad>0</ns3:cad>
          </ns3:TrackPointExtension>
        </extensions>
      </trkpt>
      <trkpt lat="38.03437183611094951629638671875" lon="-106.93705768324434757232666015625">
        <ele>4035.199951171875</ele>
        <time>2026-05-25T16:28:07.000Z</time>
        <extensions>
          <ns3:TrackPointExtension>
            <ns3:hr>116</ns3:hr>
            <ns3:cad>0</ns3:cad>
          </ns3:TrackPointExtension>
        </extensions>
      </trkpt>
      <trkpt lat="38.034398071467876434326171875" lon="-106.93705466575920581817626953125">
        <ele>4034.800048828125</ele>
        <time>2026-05-25T16:28:12.000Z</time>
        <extensions>
          <ns3:TrackPointExtension>
            <ns3:hr>113</ns3:hr>
            <ns3:cad>0</ns3:cad>
          </ns3:TrackPointExtension>
        </extensions>
      </trkpt>
      <trkpt lat="38.0343891866505146026611328125" lon="-106.93705164827406406402587890625">
        <ele>4034.800048828125</ele>
        <time>2026-05-25T16:28:15.000Z</time>
        <extensions>
          <ns3:TrackPointExtension>
            <ns3:hr>114</ns3:hr>
            <ns3:cad>0</ns3:cad>
          </ns3:TrackPointExtension>
        </extensions>
      </trkpt>
      <trkpt lat="38.0343885160982608795166015625" lon="-106.9370515644550323486328125">
        <ele>4034.60009765625</ele>
        <time>2026-05-25T16:28:21.000Z</time>
        <extensions>
          <ns3:TrackPointExtension>
            <ns3:hr>113</ns3:hr>
            <ns3:cad>0</ns3:cad>
          </ns3:TrackPointExtension>
        </extensions>
      </trkpt>
      <trkpt lat="38.0343885160982608795166015625" lon="-106.9370515644550323486328125">
        <ele>4034.60009765625</ele>
        <time>2026-05-25T16:28:23.000Z</time>
        <extensions>
          <ns3:TrackPointExtension>
            <ns3:hr>116</ns3:hr>
            <ns3:cad>0</ns3:cad>
          </ns3:TrackPointExtension>
        </extensions>
      </trkpt>
      <trkpt lat="38.0343885160982608795166015625" lon="-106.9370515644550323486328125">
        <ele>4034.60009765625</ele>
        <time>2026-05-25T16:28:24.000Z</time>
        <extensions>
          <ns3:TrackPointExtension>
            <ns3:hr>119</ns3:hr>
            <ns3:cad>0</ns3:cad>
          </ns3:TrackPointExtension>
        </extensions>
      </trkpt>
      <trkpt lat="38.0343885160982608795166015625" lon="-106.9370515644550323486328125">
        <ele>4034.60009765625</ele>
        <time>2026-05-25T16:28:25.000Z</time>
        <extensions>
          <ns3:TrackPointExtension>
            <ns3:hr>120</ns3:hr>
            <ns3:cad>0</ns3:cad>
          </ns3:TrackPointExtension>
        </extensions>
      </trkpt>
      <trkpt lat="38.03438826464116573333740234375" lon="-106.937051229178905487060546875">
        <ele>4034.800048828125</ele>
        <time>2026-05-25T16:28:27.000Z</time>
        <extensions>
          <ns3:TrackPointExtension>
            <ns3:hr>119</ns3:hr>
            <ns3:cad>0</ns3:cad>
          </ns3:TrackPointExtension>
        </extensions>
      </trkpt>
      <trkpt lat="38.0343854986131191253662109375" lon="-106.93705064244568347930908203125">
        <ele>4035</ele>
        <time>2026-05-25T16:28:28.000Z</time>
        <extensions>
          <ns3:TrackPointExtension>
            <ns3:hr>119</ns3:hr>
            <ns3:cad>0</ns3:cad>
          </ns3:TrackPointExtension>
        </extensions>
      </trkpt>
      <trkpt lat="38.0343885160982608795166015625" lon="-106.9370515644550323486328125">
        <ele>4035.60009765625</ele>
        <time>2026-05-25T16:28:32.000Z</time>
        <extensions>
          <ns3:TrackPointExtension>
            <ns3:hr>116</ns3:hr>
            <ns3:cad>0</ns3:cad>
          </ns3:TrackPointExtension>
        </extensions>
      </trkpt>
      <trkpt lat="38.0343885160982608795166015625" lon="-106.9370515644550323486328125">
        <ele>4036</ele>
        <time>2026-05-25T16:28:35.000Z</time>
        <extensions>
          <ns3:TrackPointExtension>
            <ns3:hr>116</ns3:hr>
            <ns3:cad>0</ns3:cad>
          </ns3:TrackPointExtension>
        </extensions>
      </trkpt>
      <trkpt lat="38.0343885160982608795166015625" lon="-106.9370515644550323486328125">
        <ele>4035.800048828125</ele>
        <time>2026-05-25T16:28:41.000Z</time>
        <extensions>
          <ns3:TrackPointExtension>
            <ns3:hr>113</ns3:hr>
            <ns3:cad>0</ns3:cad>
          </ns3:TrackPointExtension>
        </extensions>
      </trkpt>
      <trkpt lat="38.0343885160982608795166015625" lon="-106.9370515644550323486328125">
        <ele>4036.199951171875</ele>
        <time>2026-05-25T16:28:43.000Z</time>
        <extensions>
          <ns3:TrackPointExtension>
            <ns3:hr>110</ns3:hr>
            <ns3:cad>0</ns3:cad>
          </ns3:TrackPointExtension>
        </extensions>
      </trkpt>
      <trkpt lat="38.0343885160982608795166015625" lon="-106.9370515644550323486328125">
        <ele>4037</ele>
        <time>2026-05-25T16:28:48.000Z</time>
        <extensions>
          <ns3:TrackPointExtension>
            <ns3:hr>107</ns3:hr>
            <ns3:cad>0</ns3:cad>
          </ns3:TrackPointExtension>
        </extensions>
      </trkpt>
      <trkpt lat="38.0343885160982608795166015625" lon="-106.9370515644550323486328125">
        <ele>4035.800048828125</ele>
        <time>2026-05-25T16:28:54.000Z</time>
        <extensions>
          <ns3:TrackPointExtension>
            <ns3:hr>105</ns3:hr>
            <ns3:cad>0</ns3:cad>
          </ns3:TrackPointExtension>
        </extensions>
      </trkpt>
      <trkpt lat="38.0343885160982608795166015625" lon="-106.9370515644550323486328125">
        <ele>4035.199951171875</ele>
        <time>2026-05-25T16:28:58.000Z</time>
        <extensions>
          <ns3:TrackPointExtension>
            <ns3:hr>105</ns3:hr>
            <ns3:cad>0</ns3:cad>
          </ns3:TrackPointExtension>
        </extensions>
      </trkpt>
      <trkpt lat="38.0343885160982608795166015625" lon="-106.9370515644550323486328125">
        <ele>4035.199951171875</ele>
        <time>2026-05-25T16:29:04.000Z</time>
        <extensions>
          <ns3:TrackPointExtension>
            <ns3:hr>104</ns3:hr>
            <ns3:cad>0</ns3:cad>
          </ns3:TrackPointExtension>
        </extensions>
      </trkpt>
      <trkpt lat="38.0343885160982608795166015625" lon="-106.9370515644550323486328125">
        <ele>4035.199951171875</ele>
        <time>2026-05-25T16:29:09.000Z</time>
        <extensions>
          <ns3:TrackPointExtension>
            <ns3:hr>101</ns3:hr>
            <ns3:cad>0</ns3:cad>
          </ns3:TrackPointExtension>
        </extensions>
      </trkpt>
      <trkpt lat="38.0343885160982608795166015625" lon="-106.9370515644550323486328125">
        <ele>4034.800048828125</ele>
        <time>2026-05-25T16:29:15.000Z</time>
        <extensions>
          <ns3:TrackPointExtension>
            <ns3:hr>100</ns3:hr>
            <ns3:cad>0</ns3:cad>
          </ns3:TrackPointExtension>
        </extensions>
      </trkpt>
      <trkpt lat="38.0343885160982608795166015625" lon="-106.9370515644550323486328125">
        <ele>4034.800048828125</ele>
        <time>2026-05-25T16:29:21.000Z</time>
        <extensions>
          <ns3:TrackPointExtension>
            <ns3:hr>101</ns3:hr>
            <ns3:cad>0</ns3:cad>
          </ns3:TrackPointExtension>
        </extensions>
      </trkpt>
      <trkpt lat="38.0343885160982608795166015625" lon="-106.9370515644550323486328125">
        <ele>4034.60009765625</ele>
        <time>2026-05-25T16:29:27.000Z</time>
        <extensions>
          <ns3:TrackPointExtension>
            <ns3:hr>101</ns3:hr>
            <ns3:cad>0</ns3:cad>
          </ns3:TrackPointExtension>
        </extensions>
      </trkpt>
      <trkpt lat="38.0343885160982608795166015625" lon="-106.9370515644550323486328125">
        <ele>4034.60009765625</ele>
        <time>2026-05-25T16:29:29.000Z</time>
        <extensions>
          <ns3:TrackPointExtension>
            <ns3:hr>101</ns3:hr>
            <ns3:cad>0</ns3:cad>
          </ns3:TrackPointExtension>
        </extensions>
      </trkpt>
      <trkpt lat="38.0343885160982608795166015625" lon="-106.9370515644550323486328125">
        <ele>4034.60009765625</ele>
        <time>2026-05-25T16:29:32.000Z</time>
        <extensions>
          <ns3:TrackPointExtension>
            <ns3:hr>98</ns3:hr>
            <ns3:cad>0</ns3:cad>
          </ns3:TrackPointExtension>
        </extensions>
      </trkpt>
      <trkpt lat="38.0343885160982608795166015625" lon="-106.9370515644550323486328125">
        <ele>4034.39990234375</ele>
        <time>2026-05-25T16:29:38.000Z</time>
        <extensions>
          <ns3:TrackPointExtension>
            <ns3:hr>97</ns3:hr>
            <ns3:cad>0</ns3:cad>
          </ns3:TrackPointExtension>
        </extensions>
      </trkpt>
      <trkpt lat="38.0343885160982608795166015625" lon="-106.9370515644550323486328125">
        <ele>4034.60009765625</ele>
        <time>2026-05-25T16:29:43.000Z</time>
        <extensions>
          <ns3:TrackPointExtension>
            <ns3:hr>100</ns3:hr>
            <ns3:cad>0</ns3:cad>
          </ns3:TrackPointExtension>
        </extensions>
      </trkpt>
      <trkpt lat="38.0343885160982608795166015625" lon="-106.9370515644550323486328125">
        <ele>4034.60009765625</ele>
        <time>2026-05-25T16:29:44.000Z</time>
        <extensions>
          <ns3:TrackPointExtension>
            <ns3:hr>101</ns3:hr>
            <ns3:cad>0</ns3:cad>
          </ns3:TrackPointExtension>
        </extensions>
      </trkpt>
      <trkpt lat="38.0343885160982608795166015625" lon="-106.9370515644550323486328125">
        <ele>4034.60009765625</ele>
        <time>2026-05-25T16:29:50.000Z</time>
        <extensions>
          <ns3:TrackPointExtension>
            <ns3:hr>101</ns3:hr>
            <ns3:cad>0</ns3:cad>
          </ns3:TrackPointExtension>
        </extensions>
      </trkpt>
      <trkpt lat="38.03439178504049777984619140625" lon="-106.93705365993082523345947265625">
        <ele>4034.199951171875</ele>
        <time>2026-05-25T16:29:52.000Z</time>
        <extensions>
          <ns3:TrackPointExtension>
            <ns3:hr>101</ns3:hr>
            <ns3:cad>0</ns3:cad>
          </ns3:TrackPointExtension>
        </extensions>
      </trkpt>
      <trkpt lat="38.034432940185070037841796875" lon="-106.93706455640494823455810546875">
        <ele>4034</ele>
        <time>2026-05-25T16:29:54.000Z</time>
        <extensions>
          <ns3:TrackPointExtension>
            <ns3:hr>100</ns3:hr>
            <ns3:cad>0</ns3:cad>
          </ns3:TrackPointExtension>
        </extensions>
      </trkpt>
      <trkpt lat="38.03449069149792194366455078125" lon="-106.937131024897098541259765625">
        <ele>4034.39990234375</ele>
        <time>2026-05-25T16:30:00.000Z</time>
        <extensions>
          <ns3:TrackPointExtension>
            <ns3:hr>101</ns3:hr>
            <ns3:cad>0</ns3:cad>
          </ns3:TrackPointExtension>
        </extensions>
      </trkpt>
      <trkpt lat="38.03456076420843601226806640625" lon="-106.9371861778199672698974609375">
        <ele>4034.60009765625</ele>
        <time>2026-05-25T16:30:06.000Z</time>
        <extensions>
          <ns3:TrackPointExtension>
            <ns3:hr>101</ns3:hr>
            <ns3:cad>52</ns3:cad>
          </ns3:TrackPointExtension>
        </extensions>
      </trkpt>
      <trkpt lat="38.0345705710351467132568359375" lon="-106.93720134906470775604248046875">
        <ele>4034.60009765625</ele>
        <time>2026-05-25T16:30:07.000Z</time>
        <extensions>
          <ns3:TrackPointExtension>
            <ns3:hr>101</ns3:hr>
            <ns3:cad>52</ns3:cad>
          </ns3:TrackPointExtension>
        </extensions>
      </trkpt>
      <trkpt lat="38.03461273200809955596923828125" lon="-106.93725449033081531524658203125">
        <ele>4034.60009765625</ele>
        <time>2026-05-25T16:30:13.000Z</time>
        <extensions>
          <ns3:TrackPointExtension>
            <ns3:hr>100</ns3:hr>
            <ns3:cad>68</ns3:cad>
          </ns3:TrackPointExtension>
        </extensions>
      </trkpt>
      <trkpt lat="38.0346329323947429656982421875" lon="-106.937277205288410186767578125">
        <ele>4034.60009765625</ele>
        <time>2026-05-25T16:30:15.000Z</time>
        <extensions>
          <ns3:TrackPointExtension>
            <ns3:hr>100</ns3:hr>
            <ns3:cad>53</ns3:cad>
          </ns3:TrackPointExtension>
        </extensions>
      </trkpt>
      <trkpt lat="38.0346993170678615570068359375" lon="-106.937342919409275054931640625">
        <ele>4034.800048828125</ele>
        <time>2026-05-25T16:30:21.000Z</time>
        <extensions>
          <ns3:TrackPointExtension>
            <ns3:hr>100</ns3:hr>
            <ns3:cad>54</ns3:cad>
          </ns3:TrackPointExtension>
        </extensions>
      </trkpt>
      <trkpt lat="38.03470694459974765777587890625" lon="-106.93735272623598575592041015625">
        <ele>4034.800048828125</ele>
        <time>2026-05-25T16:30:22.000Z</time>
        <extensions>
          <ns3:TrackPointExtension>
            <ns3:hr>99</ns3:hr>
            <ns3:cad>0</ns3:cad>
          </ns3:TrackPointExtension>
        </extensions>
      </trkpt>
      <trkpt lat="38.034737370908260345458984375" lon="-106.93738189525902271270751953125">
        <ele>4035.39990234375</ele>
        <time>2026-05-25T16:30:26.000Z</time>
        <extensions>
          <ns3:TrackPointExtension>
            <ns3:hr>99</ns3:hr>
            <ns3:cad>0</ns3:cad>
          </ns3:TrackPointExtension>
        </extensions>
      </trkpt>
      <trkpt lat="38.03477634675800800323486328125" lon="-106.93741106428205966949462890625">
        <ele>4035.199951171875</ele>
        <time>2026-05-25T16:30:29.000Z</time>
        <extensions>
          <ns3:TrackPointExtension>
            <ns3:hr>100</ns3:hr>
            <ns3:cad>0</ns3:cad>
          </ns3:TrackPointExtension>
        </extensions>
      </trkpt>
      <trkpt lat="38.03481213748455047607421875" lon="-106.93744777701795101165771484375">
        <ele>4034.800048828125</ele>
        <time>2026-05-25T16:30:32.000Z</time>
        <extensions>
          <ns3:TrackPointExtension>
            <ns3:hr>103</ns3:hr>
            <ns3:cad>0</ns3:cad>
          </ns3:TrackPointExtension>
        </extensions>
      </trkpt>
      <trkpt lat="38.0348367802798748016357421875" lon="-106.93748080171644687652587890625">
        <ele>4035</ele>
        <time>2026-05-25T16:30:35.000Z</time>
        <extensions>
          <ns3:TrackPointExtension>
            <ns3:hr>104</ns3:hr>
            <ns3:cad>0</ns3:cad>
          </ns3:TrackPointExtension>
        </extensions>
      </trkpt>
      <trkpt lat="38.0348746664822101593017578125" lon="-106.937557496130466461181640625">
        <ele>4035.199951171875</ele>
        <time>2026-05-25T16:30:41.000Z</time>
        <extensions>
          <ns3:TrackPointExtension>
            <ns3:hr>103</ns3:hr>
            <ns3:cad>0</ns3:cad>
          </ns3:TrackPointExtension>
        </extensions>
      </trkpt>
      <trkpt lat="38.03490844555199146270751953125" lon="-106.9375945441424846649169921875">
        <ele>4034.800048828125</ele>
        <time>2026-05-25T16:30:46.000Z</time>
        <extensions>
          <ns3:TrackPointExtension>
            <ns3:hr>99</ns3:hr>
            <ns3:cad>54</ns3:cad>
          </ns3:TrackPointExtension>
        </extensions>
      </trkpt>
      <trkpt lat="38.03492344915866851806640625" lon="-106.9376166723668575286865234375">
        <ele>4034.800048828125</ele>
        <time>2026-05-25T16:30:47.000Z</time>
        <extensions>
          <ns3:TrackPointExtension>
            <ns3:hr>95</ns3:hr>
            <ns3:cad>54</ns3:cad>
          </ns3:TrackPointExtension>
        </extensions>
      </trkpt>
      <trkpt lat="38.03493124432861804962158203125" lon="-106.93763251416385173797607421875">
        <ele>4034.800048828125</ele>
        <time>2026-05-25T16:30:48.000Z</time>
        <extensions>
          <ns3:TrackPointExtension>
            <ns3:hr>87</ns3:hr>
            <ns3:cad>54</ns3:cad>
          </ns3:TrackPointExtension>
        </extensions>
      </trkpt>
      <trkpt lat="38.034937866032123565673828125" lon="-106.93764500319957733154296875">
        <ele>4034.60009765625</ele>
        <time>2026-05-25T16:30:49.000Z</time>
        <extensions>
          <ns3:TrackPointExtension>
            <ns3:hr>83</ns3:hr>
            <ns3:cad>54</ns3:cad>
          </ns3:TrackPointExtension>
        </extensions>
      </trkpt>
      <trkpt lat="38.03497499786317348480224609375" lon="-106.9376833923161029815673828125">
        <ele>4034.199951171875</ele>
        <time>2026-05-25T16:30:53.000Z</time>
        <extensions>
          <ns3:TrackPointExtension>
            <ns3:hr>82</ns3:hr>
            <ns3:cad>55</ns3:cad>
          </ns3:TrackPointExtension>
        </extensions>
      </trkpt>
      <trkpt lat="38.03500701673328876495361328125" lon="-106.93772940896451473236083984375">
        <ele>4033.60009765625</ele>
        <time>2026-05-25T16:30:57.000Z</time>
        <extensions>
          <ns3:TrackPointExtension>
            <ns3:hr>82</ns3:hr>
            <ns3:cad>55</ns3:cad>
          </ns3:TrackPointExtension>
        </extensions>
      </trkpt>
      <trkpt lat="38.03507105447351932525634765625" lon="-106.93779193796217441558837890625">
        <ele>4033.60009765625</ele>
        <time>2026-05-25T16:31:03.000Z</time>
        <extensions>
          <ns3:TrackPointExtension>
            <ns3:hr>79</ns3:hr>
            <ns3:cad>53</ns3:cad>
          </ns3:TrackPointExtension>
        </extensions>
      </trkpt>
      <trkpt lat="38.035081364214420318603515625" lon="-106.93779964931309223175048828125">
        <ele>4033.39990234375</ele>
        <time>2026-05-25T16:31:04.000Z</time>
        <extensions>
          <ns3:TrackPointExtension>
            <ns3:hr>79</ns3:hr>
            <ns3:cad>53</ns3:cad>
          </ns3:TrackPointExtension>
        </extensions>
      </trkpt>
      <trkpt lat="38.0351063422858715057373046875" lon="-106.93782848306000232696533203125">
        <ele>4033</ele>
        <time>2026-05-25T16:31:08.000Z</time>
        <extensions>
          <ns3:TrackPointExtension>
            <ns3:hr>77</ns3:hr>
            <ns3:cad>53</ns3:cad>
          </ns3:TrackPointExtension>
        </extensions>
      </trkpt>
      <trkpt lat="38.03514146246016025543212890625" lon="-106.937857232987880706787109375">
        <ele>4033.199951171875</ele>
        <time>2026-05-25T16:31:10.000Z</time>
        <extensions>
          <ns3:TrackPointExtension>
            <ns3:hr>78</ns3:hr>
            <ns3:cad>54</ns3:cad>
          </ns3:TrackPointExtension>
        </extensions>
      </trkpt>
      <trkpt lat="38.0352022312581539154052734375" lon="-106.9378884136676788330078125">
        <ele>4033.199951171875</ele>
        <time>2026-05-25T16:31:16.000Z</time>
        <extensions>
          <ns3:TrackPointExtension>
            <ns3:hr>80</ns3:hr>
            <ns3:cad>0</ns3:cad>
          </ns3:TrackPointExtension>
        </extensions>
      </trkpt>
      <trkpt lat="38.03521337918937206268310546875" lon="-106.93788564763963222503662109375">
        <ele>4033</ele>
        <time>2026-05-25T16:31:17.000Z</time>
        <extensions>
          <ns3:TrackPointExtension>
            <ns3:hr>80</ns3:hr>
            <ns3:cad>0</ns3:cad>
          </ns3:TrackPointExtension>
        </extensions>
      </trkpt>
      <trkpt lat="38.035282529890537261962890625" lon="-106.937912888824939727783203125">
        <ele>4032.800048828125</ele>
        <time>2026-05-25T16:31:23.000Z</time>
        <extensions>
          <ns3:TrackPointExtension>
            <ns3:hr>82</ns3:hr>
            <ns3:cad>61</ns3:cad>
          </ns3:TrackPointExtension>
        </extensions>
      </trkpt>
      <trkpt lat="38.035293258726596832275390625" lon="-106.9379150681197643280029296875">
        <ele>4032.39990234375</ele>
        <time>2026-05-25T16:31:25.000Z</time>
        <extensions>
          <ns3:TrackPointExtension>
            <ns3:hr>82</ns3:hr>
            <ns3:cad>61</ns3:cad>
          </ns3:TrackPointExtension>
        </extensions>
      </trkpt>
      <trkpt lat="38.0353085137903690338134765625" lon="-106.9379100389778614044189453125">
        <ele>4032.199951171875</ele>
        <time>2026-05-25T16:31:26.000Z</time>
        <extensions>
          <ns3:TrackPointExtension>
            <ns3:hr>82</ns3:hr>
            <ns3:cad>61</ns3:cad>
          </ns3:TrackPointExtension>
        </extensions>
      </trkpt>
      <trkpt lat="38.03534246049821376800537109375" lon="-106.937927640974521636962890625">
        <ele>4032</ele>
        <time>2026-05-25T16:31:30.000Z</time>
        <extensions>
          <ns3:TrackPointExtension>
            <ns3:hr>82</ns3:hr>
            <ns3:cad>61</ns3:cad>
          </ns3:TrackPointExtension>
        </extensions>
      </trkpt>
      <trkpt lat="38.0354174785315990447998046875" lon="-106.93796795792877674102783203125">
        <ele>4031.60009765625</ele>
        <time>2026-05-25T16:31:36.000Z</time>
        <extensions>
          <ns3:TrackPointExtension>
            <ns3:hr>82</ns3:hr>
            <ns3:cad>0</ns3:cad>
          </ns3:TrackPointExtension>
        </extensions>
      </trkpt>
      <trkpt lat="38.0354174785315990447998046875" lon="-106.93796795792877674102783203125">
        <ele>4031.800048828125</ele>
        <time>2026-05-25T16:31:37.000Z</time>
        <extensions>
          <ns3:TrackPointExtension>
            <ns3:hr>82</ns3:hr>
            <ns3:cad>0</ns3:cad>
          </ns3:TrackPointExtension>
        </extensions>
      </trkpt>
      <trkpt lat="38.03547925315797328948974609375" lon="-106.93803082220256328582763671875">
        <ele>4033</ele>
        <time>2026-05-25T16:31:43.000Z</time>
        <extensions>
          <ns3:TrackPointExtension>
            <ns3:hr>80</ns3:hr>
            <ns3:cad>54</ns3:cad>
          </ns3:TrackPointExtension>
        </extensions>
      </trkpt>
      <trkpt lat="38.0354900658130645751953125" lon="-106.9380434788763523101806640625">
        <ele>4033.199951171875</ele>
        <time>2026-05-25T16:31:44.000Z</time>
        <extensions>
          <ns3:TrackPointExtension>
            <ns3:hr>80</ns3:hr>
            <ns3:cad>54</ns3:cad>
          </ns3:TrackPointExtension>
        </extensions>
      </trkpt>
      <trkpt lat="38.03554111160337924957275390625" lon="-106.93806887604296207427978515625">
        <ele>4033.60009765625</ele>
        <time>2026-05-25T16:31:50.000Z</time>
        <extensions>
          <ns3:TrackPointExtension>
            <ns3:hr>81</ns3:hr>
            <ns3:cad>50</ns3:cad>
          </ns3:TrackPointExtension>
        </extensions>
      </trkpt>
      <trkpt lat="38.0355549417436122894287109375" lon="-106.93807692267000675201416015625">
        <ele>4033.60009765625</ele>
        <time>2026-05-25T16:31:51.000Z</time>
        <extensions>
          <ns3:TrackPointExtension>
            <ns3:hr>82</ns3:hr>
            <ns3:cad>50</ns3:cad>
          </ns3:TrackPointExtension>
        </extensions>
      </trkpt>
      <trkpt lat="38.0355663411319255828857421875" lon="-106.9380788505077362060546875">
        <ele>4033.39990234375</ele>
        <time>2026-05-25T16:31:52.000Z</time>
        <extensions>
          <ns3:TrackPointExtension>
            <ns3:hr>85</ns3:hr>
            <ns3:cad>50</ns3:cad>
          </ns3:TrackPointExtension>
        </extensions>
      </trkpt>
      <trkpt lat="38.03558352403342723846435546875" lon="-106.93808094598352909088134765625">
        <ele>4033.60009765625</ele>
        <time>2026-05-25T16:31:53.000Z</time>
        <extensions>
          <ns3:TrackPointExtension>
            <ns3:hr>88</ns3:hr>
            <ns3:cad>50</ns3:cad>
          </ns3:TrackPointExtension>
        </extensions>
      </trkpt>
      <trkpt lat="38.03559911437332630157470703125" lon="-106.93808865733444690704345703125">
        <ele>4033.60009765625</ele>
        <time>2026-05-25T16:31:55.000Z</time>
        <extensions>
          <ns3:TrackPointExtension>
            <ns3:hr>92</ns3:hr>
            <ns3:cad>0</ns3:cad>
          </ns3:TrackPointExtension>
        </extensions>
      </trkpt>
      <trkpt lat="38.03560816682875156402587890625" lon="-106.93809653632342815399169921875">
        <ele>4033.60009765625</ele>
        <time>2026-05-25T16:31:56.000Z</time>
        <extensions>
          <ns3:TrackPointExtension>
            <ns3:hr>93</ns3:hr>
            <ns3:cad>0</ns3:cad>
          </ns3:TrackPointExtension>
        </extensions>
      </trkpt>
      <trkpt lat="38.035660050809383392333984375" lon="-106.93812302313745021820068359375">
        <ele>4033.39990234375</ele>
        <time>2026-05-25T16:32:02.000Z</time>
        <extensions>
          <ns3:TrackPointExtension>
            <ns3:hr>94</ns3:hr>
            <ns3:cad>46</ns3:cad>
          </ns3:TrackPointExtension>
        </extensions>
      </trkpt>
      <trkpt lat="38.03568058647215366363525390625" lon="-106.9381303153932094573974609375">
        <ele>4033.39990234375</ele>
        <time>2026-05-25T16:32:04.000Z</time>
        <extensions>
          <ns3:TrackPointExtension>
            <ns3:hr>92</ns3:hr>
            <ns3:cad>0</ns3:cad>
          </ns3:TrackPointExtension>
        </extensions>
      </trkpt>
      <trkpt lat="38.03573490120470523834228515625" lon="-106.93815554492175579071044921875">
        <ele>4032.800048828125</ele>
        <time>2026-05-25T16:32:10.000Z</time>
        <extensions>
          <ns3:TrackPointExtension>
            <ns3:hr>93</ns3:hr>
            <ns3:cad>50</ns3:cad>
          </ns3:TrackPointExtension>
        </extensions>
      </trkpt>
      <trkpt lat="38.03574378602206707000732421875" lon="-106.938163340091705322265625">
        <ele>4033</ele>
        <time>2026-05-25T16:32:12.000Z</time>
        <extensions>
          <ns3:TrackPointExtension>
            <ns3:hr>94</ns3:hr>
            <ns3:cad>50</ns3:cad>
          </ns3:TrackPointExtension>
        </extensions>
      </trkpt>
      <trkpt lat="38.03581017069518566131591796875" lon="-106.93821254186332225799560546875">
        <ele>4033.60009765625</ele>
        <time>2026-05-25T16:32:18.000Z</time>
        <extensions>
          <ns3:TrackPointExtension>
            <ns3:hr>94</ns3:hr>
            <ns3:cad>0</ns3:cad>
          </ns3:TrackPointExtension>
        </extensions>
      </trkpt>
      <trkpt lat="38.035821653902530670166015625" lon="-106.93822142668068408966064453125">
        <ele>4033.800048828125</ele>
        <time>2026-05-25T16:32:19.000Z</time>
        <extensions>
          <ns3:TrackPointExtension>
            <ns3:hr>95</ns3:hr>
            <ns3:cad>0</ns3:cad>
          </ns3:TrackPointExtension>
        </extensions>
      </trkpt>
      <trkpt lat="38.0358670838177204132080078125" lon="-106.9382707960903644561767578125">
        <ele>4034.199951171875</ele>
        <time>2026-05-25T16:32:25.000Z</time>
        <extensions>
          <ns3:TrackPointExtension>
            <ns3:hr>92</ns3:hr>
            <ns3:cad>0</ns3:cad>
          </ns3:TrackPointExtension>
        </extensions>
      </trkpt>
      <trkpt lat="38.03587337024509906768798828125" lon="-106.93828328512609004974365234375">
        <ele>4034.39990234375</ele>
        <time>2026-05-25T16:32:26.000Z</time>
        <extensions>
          <ns3:TrackPointExtension>
            <ns3:hr>92</ns3:hr>
            <ns3:cad>0</ns3:cad>
          </ns3:TrackPointExtension>
        </extensions>
      </trkpt>
      <trkpt lat="38.035919554531574249267578125" lon="-106.938331313431262969970703125">
        <ele>4034.39990234375</ele>
        <time>2026-05-25T16:32:30.000Z</time>
        <extensions>
          <ns3:TrackPointExtension>
            <ns3:hr>89</ns3:hr>
            <ns3:cad>0</ns3:cad>
          </ns3:TrackPointExtension>
        </extensions>
      </trkpt>
      <trkpt lat="38.03593254648149013519287109375" lon="-106.9383492507040500640869140625">
        <ele>4034.800048828125</ele>
        <time>2026-05-25T16:32:32.000Z</time>
        <extensions>
          <ns3:TrackPointExtension>
            <ns3:hr>88</ns3:hr>
            <ns3:cad>0</ns3:cad>
          </ns3:TrackPointExtension>
        </extensions>
      </trkpt>
      <trkpt lat="38.03595668636262416839599609375" lon="-106.9383958540856838226318359375">
        <ele>4035</ele>
        <time>2026-05-25T16:32:37.000Z</time>
        <extensions>
          <ns3:TrackPointExtension>
            <ns3:hr>89</ns3:hr>
            <ns3:cad>0</ns3:cad>
          </ns3:TrackPointExtension>
        </extensions>
      </trkpt>
      <trkpt lat="38.0360032059252262115478515625" lon="-106.93843684159219264984130859375">
        <ele>4035.199951171875</ele>
        <time>2026-05-25T16:32:42.000Z</time>
        <extensions>
          <ns3:TrackPointExtension>
            <ns3:hr>89</ns3:hr>
            <ns3:cad>50</ns3:cad>
          </ns3:TrackPointExtension>
        </extensions>
      </trkpt>
      <trkpt lat="38.03604595363140106201171875" lon="-106.93846332840621471405029296875">
        <ele>4035.39990234375</ele>
        <time>2026-05-25T16:32:45.000Z</time>
        <extensions>
          <ns3:TrackPointExtension>
            <ns3:hr>89</ns3:hr>
            <ns3:cad>0</ns3:cad>
          </ns3:TrackPointExtension>
        </extensions>
      </trkpt>
      <trkpt lat="38.036113679409027099609375" lon="-106.93849434144794940948486328125">
        <ele>4035.60009765625</ele>
        <time>2026-05-25T16:32:51.000Z</time>
        <extensions>
          <ns3:TrackPointExtension>
            <ns3:hr>89</ns3:hr>
            <ns3:cad>57</ns3:cad>
          </ns3:TrackPointExtension>
        </extensions>
      </trkpt>
      <trkpt lat="38.0361225642263889312744140625" lon="-106.93849652074277400970458984375">
        <ele>4035.60009765625</ele>
        <time>2026-05-25T16:32:52.000Z</time>
        <extensions>
          <ns3:TrackPointExtension>
            <ns3:hr>89</ns3:hr>
            <ns3:cad>57</ns3:cad>
          </ns3:TrackPointExtension>
        </extensions>
      </trkpt>
      <trkpt lat="38.036163635551929473876953125" lon="-106.93851940333843231201171875">
        <ele>4035.199951171875</ele>
        <time>2026-05-25T16:32:58.000Z</time>
        <extensions>
          <ns3:TrackPointExtension>
            <ns3:hr>89</ns3:hr>
            <ns3:cad>52</ns3:cad>
          </ns3:TrackPointExtension>
        </extensions>
      </trkpt>
      <trkpt lat="38.03617713041603565216064453125" lon="-106.93853256292641162872314453125">
        <ele>4034.800048828125</ele>
        <time>2026-05-25T16:33:00.000Z</time>
        <extensions>
          <ns3:TrackPointExtension>
            <ns3:hr>88</ns3:hr>
            <ns3:cad>52</ns3:cad>
          </ns3:TrackPointExtension>
        </extensions>
      </trkpt>
      <trkpt lat="38.0362301878631114959716796875" lon="-106.938592158257961273193359375">
        <ele>4034.199951171875</ele>
        <time>2026-05-25T16:33:06.000Z</time>
        <extensions>
          <ns3:TrackPointExtension>
            <ns3:hr>89</ns3:hr>
            <ns3:cad>53</ns3:cad>
          </ns3:TrackPointExtension>
        </extensions>
      </trkpt>
      <trkpt lat="38.036282993853092193603515625" lon="-106.9386211596429347991943359375">
        <ele>4033.60009765625</ele>
        <time>2026-05-25T16:33:12.000Z</time>
        <extensions>
          <ns3:TrackPointExtension>
            <ns3:hr>87</ns3:hr>
            <ns3:cad>53</ns3:cad>
          </ns3:TrackPointExtension>
        </extensions>
      </trkpt>
      <trkpt lat="38.03628944791853427886962890625" lon="-106.93862476386129856109619140625">
        <ele>4033.60009765625</ele>
        <time>2026-05-25T16:33:13.000Z</time>
        <extensions>
          <ns3:TrackPointExtension>
            <ns3:hr>87</ns3:hr>
            <ns3:cad>53</ns3:cad>
          </ns3:TrackPointExtension>
        </extensions>
      </trkpt>
      <trkpt lat="38.03630336187779903411865234375" lon="-106.93862224929034709930419921875">
        <ele>4033.39990234375</ele>
        <time>2026-05-25T16:33:15.000Z</time>
        <extensions>
          <ns3:TrackPointExtension>
            <ns3:hr>88</ns3:hr>
            <ns3:cad>53</ns3:cad>
          </ns3:TrackPointExtension>
        </extensions>
      </trkpt>
      <trkpt lat="38.036311157047748565673828125" lon="-106.9386164657771587371826171875">
        <ele>4033</ele>
        <time>2026-05-25T16:33:17.000Z</time>
        <extensions>
          <ns3:TrackPointExtension>
            <ns3:hr>86</ns3:hr>
            <ns3:cad>53</ns3:cad>
          </ns3:TrackPointExtension>
        </extensions>
      </trkpt>
      <trkpt lat="38.03631241433322429656982421875" lon="-106.9385983608663082122802734375">
        <ele>4032.800048828125</ele>
        <time>2026-05-25T16:33:18.000Z</time>
        <extensions>
          <ns3:TrackPointExtension>
            <ns3:hr>86</ns3:hr>
            <ns3:cad>53</ns3:cad>
          </ns3:TrackPointExtension>
        </extensions>
      </trkpt>
      <trkpt lat="38.036325909197330474853515625" lon="-106.93858788348734378814697265625">
        <ele>4032.60009765625</ele>
        <time>2026-05-25T16:33:20.000Z</time>
        <extensions>
          <ns3:TrackPointExtension>
            <ns3:hr>86</ns3:hr>
            <ns3:cad>53</ns3:cad>
          </ns3:TrackPointExtension>
        </extensions>
      </trkpt>
      <trkpt lat="38.036355078220367431640625" lon="-106.93857246078550815582275390625">
        <ele>4032</ele>
        <time>2026-05-25T16:33:23.000Z</time>
        <extensions>
          <ns3:TrackPointExtension>
            <ns3:hr>86</ns3:hr>
            <ns3:cad>56</ns3:cad>
          </ns3:TrackPointExtension>
        </extensions>
      </trkpt>
      <trkpt lat="38.03639036603271961212158203125" lon="-106.9385621510446071624755859375">
        <ele>4031</ele>
        <time>2026-05-25T16:33:26.000Z</time>
        <extensions>
          <ns3:TrackPointExtension>
            <ns3:hr>86</ns3:hr>
            <ns3:cad>56</ns3:cad>
          </ns3:TrackPointExtension>
        </extensions>
      </trkpt>
      <trkpt lat="38.03639841265976428985595703125" lon="-106.93855988793075084686279296875">
        <ele>4030.800048828125</ele>
        <time>2026-05-25T16:33:27.000Z</time>
        <extensions>
          <ns3:TrackPointExtension>
            <ns3:hr>86</ns3:hr>
            <ns3:cad>0</ns3:cad>
          </ns3:TrackPointExtension>
        </extensions>
      </trkpt>
      <trkpt lat="38.03645239211618900299072265625" lon="-106.93857195787131786346435546875">
        <ele>4029.60009765625</ele>
        <time>2026-05-25T16:33:32.000Z</time>
        <extensions>
          <ns3:TrackPointExtension>
            <ns3:hr>88</ns3:hr>
            <ns3:cad>0</ns3:cad>
          </ns3:TrackPointExtension>
        </extensions>
      </trkpt>
      <trkpt lat="38.0364860035479068756103515625" lon="-106.9385886378586292266845703125">
        <ele>4029</ele>
        <time>2026-05-25T16:33:35.000Z</time>
        <extensions>
          <ns3:TrackPointExtension>
            <ns3:hr>88</ns3:hr>
            <ns3:cad>57</ns3:cad>
          </ns3:TrackPointExtension>
        </extensions>
      </trkpt>
      <trkpt lat="38.036516010761260986328125" lon="-106.938593499362468719482421875">
        <ele>4028.60009765625</ele>
        <time>2026-05-25T16:33:39.000Z</time>
        <extensions>
          <ns3:TrackPointExtension>
            <ns3:hr>86</ns3:hr>
            <ns3:cad>56</ns3:cad>
          </ns3:TrackPointExtension>
        </extensions>
      </trkpt>
      <trkpt lat="38.0365711636841297149658203125" lon="-106.93861420266330242156982421875">
        <ele>4028</ele>
        <time>2026-05-25T16:33:43.000Z</time>
        <extensions>
          <ns3:TrackPointExtension>
            <ns3:hr>85</ns3:hr>
            <ns3:cad>0</ns3:cad>
          </ns3:TrackPointExtension>
        </extensions>
      </trkpt>
      <trkpt lat="38.03659857250750064849853515625" lon="-106.9386238418519496917724609375">
        <ele>4027.60009765625</ele>
        <time>2026-05-25T16:33:45.000Z</time>
        <extensions>
          <ns3:TrackPointExtension>
            <ns3:hr>84</ns3:hr>
            <ns3:cad>0</ns3:cad>
          </ns3:TrackPointExtension>
        </extensions>
      </trkpt>
      <trkpt lat="38.036649115383625030517578125" lon="-106.93864320404827594757080078125">
        <ele>4026.800048828125</ele>
        <time>2026-05-25T16:33:50.000Z</time>
        <extensions>
          <ns3:TrackPointExtension>
            <ns3:hr>82</ns3:hr>
            <ns3:cad>56</ns3:cad>
          </ns3:TrackPointExtension>
        </extensions>
      </trkpt>
      <trkpt lat="38.03672312758862972259521484375" lon="-106.93866969086229801177978515625">
        <ele>4026.39990234375</ele>
        <time>2026-05-25T16:33:55.000Z</time>
        <extensions>
          <ns3:TrackPointExtension>
            <ns3:hr>82</ns3:hr>
            <ns3:cad>0</ns3:cad>
          </ns3:TrackPointExtension>
        </extensions>
      </trkpt>
      <trkpt lat="38.03672312758862972259521484375" lon="-106.93866969086229801177978515625">
        <ele>4026.199951171875</ele>
        <time>2026-05-25T16:33:56.000Z</time>
        <extensions>
          <ns3:TrackPointExtension>
            <ns3:hr>82</ns3:hr>
            <ns3:cad>0</ns3:cad>
          </ns3:TrackPointExtension>
        </extensions>
      </trkpt>
      <trkpt lat="38.0368105508387088775634765625" lon="-106.93870355375111103057861328125">
        <ele>4025.800048828125</ele>
        <time>2026-05-25T16:34:02.000Z</time>
        <extensions>
          <ns3:TrackPointExtension>
            <ns3:hr>86</ns3:hr>
            <ns3:cad>0</ns3:cad>
          </ns3:TrackPointExtension>
        </extensions>
      </trkpt>
      <trkpt lat="38.036818094551563262939453125" lon="-106.938707493245601654052734375">
        <ele>4025.39990234375</ele>
        <time>2026-05-25T16:34:04.000Z</time>
        <extensions>
          <ns3:TrackPointExtension>
            <ns3:hr>86</ns3:hr>
            <ns3:cad>0</ns3:cad>
          </ns3:TrackPointExtension>
        </extensions>
      </trkpt>
      <trkpt lat="38.03690467961132526397705078125" lon="-106.93873666226863861083984375">
        <ele>4024.60009765625</ele>
        <time>2026-05-25T16:34:10.000Z</time>
        <extensions>
          <ns3:TrackPointExtension>
            <ns3:hr>84</ns3:hr>
            <ns3:cad>54</ns3:cad>
          </ns3:TrackPointExtension>
        </extensions>
      </trkpt>
      <trkpt lat="38.03691624663770198822021484375" lon="-106.93874043412506580352783203125">
        <ele>4024.39990234375</ele>
        <time>2026-05-25T16:34:11.000Z</time>
        <extensions>
          <ns3:TrackPointExtension>
            <ns3:hr>84</ns3:hr>
            <ns3:cad>54</ns3:cad>
          </ns3:TrackPointExtension>
        </extensions>
      </trkpt>
      <trkpt lat="38.03697609342634677886962890625" lon="-106.93876214325428009033203125">
        <ele>4024.60009765625</ele>
        <time>2026-05-25T16:34:17.000Z</time>
        <extensions>
          <ns3:TrackPointExtension>
            <ns3:hr>82</ns3:hr>
            <ns3:cad>56</ns3:cad>
          </ns3:TrackPointExtension>
        </extensions>
      </trkpt>
      <trkpt lat="38.03700626827776432037353515625" lon="-106.9387720339000225067138671875">
        <ele>4024.39990234375</ele>
        <time>2026-05-25T16:34:18.000Z</time>
        <extensions>
          <ns3:TrackPointExtension>
            <ns3:hr>82</ns3:hr>
            <ns3:cad>56</ns3:cad>
          </ns3:TrackPointExtension>
        </extensions>
      </trkpt>
      <trkpt lat="38.0370197631418704986572265625" lon="-106.93877513520419597625732421875">
        <ele>4024.199951171875</ele>
        <time>2026-05-25T16:34:19.000Z</time>
        <extensions>
          <ns3:TrackPointExtension>
            <ns3:hr>82</ns3:hr>
            <ns3:cad>52</ns3:cad>
          </ns3:TrackPointExtension>
        </extensions>
      </trkpt>
      <trkpt lat="38.03707768209278583526611328125" lon="-106.9387938268482685089111328125">
        <ele>4024.199951171875</ele>
        <time>2026-05-25T16:34:25.000Z</time>
        <extensions>
          <ns3:TrackPointExtension>
            <ns3:hr>81</ns3:hr>
            <ns3:cad>56</ns3:cad>
          </ns3:TrackPointExtension>
        </extensions>
      </trkpt>
      <trkpt lat="38.0371521972119808197021484375" lon="-106.93881955929100513458251953125">
        <ele>4024.800048828125</ele>
        <time>2026-05-25T16:34:31.000Z</time>
        <extensions>
          <ns3:TrackPointExtension>
            <ns3:hr>81</ns3:hr>
            <ns3:cad>55</ns3:cad>
          </ns3:TrackPointExtension>
        </extensions>
      </trkpt>
      <trkpt lat="38.03722654469311237335205078125" lon="-106.9388625584542751312255859375">
        <ele>4025.199951171875</ele>
        <time>2026-05-25T16:34:37.000Z</time>
        <extensions>
          <ns3:TrackPointExtension>
            <ns3:hr>81</ns3:hr>
            <ns3:cad>57</ns3:cad>
          </ns3:TrackPointExtension>
        </extensions>
      </trkpt>
      <trkpt lat="38.03722654469311237335205078125" lon="-106.9388625584542751312255859375">
        <ele>4025.39990234375</ele>
        <time>2026-05-25T16:34:38.000Z</time>
        <extensions>
          <ns3:TrackPointExtension>
            <ns3:hr>82</ns3:hr>
            <ns3:cad>57</ns3:cad>
          </ns3:TrackPointExtension>
        </extensions>
      </trkpt>
      <trkpt lat="38.0372544564306735992431640625" lon="-106.93887990899384021759033203125">
        <ele>4025.60009765625</ele>
        <time>2026-05-25T16:34:40.000Z</time>
        <extensions>
          <ns3:TrackPointExtension>
            <ns3:hr>81</ns3:hr>
            <ns3:cad>54</ns3:cad>
          </ns3:TrackPointExtension>
        </extensions>
      </trkpt>
      <trkpt lat="38.03734808228909969329833984375" lon="-106.9389141909778118133544921875">
        <ele>4025.60009765625</ele>
        <time>2026-05-25T16:34:46.000Z</time>
        <extensions>
          <ns3:TrackPointExtension>
            <ns3:hr>83</ns3:hr>
            <ns3:cad>55</ns3:cad>
          </ns3:TrackPointExtension>
        </extensions>
      </trkpt>
      <trkpt lat="38.03740474395453929901123046875" lon="-106.93894126452505588531494140625">
        <ele>4026</ele>
        <time>2026-05-25T16:34:52.000Z</time>
        <extensions>
          <ns3:TrackPointExtension>
            <ns3:hr>86</ns3:hr>
            <ns3:cad>55</ns3:cad>
          </ns3:TrackPointExtension>
        </extensions>
      </trkpt>
      <trkpt lat="38.0374318175017833709716796875" lon="-106.93896909244358539581298828125">
        <ele>4026.199951171875</ele>
        <time>2026-05-25T16:34:54.000Z</time>
        <extensions>
          <ns3:TrackPointExtension>
            <ns3:hr>87</ns3:hr>
            <ns3:cad>55</ns3:cad>
          </ns3:TrackPointExtension>
        </extensions>
      </trkpt>
      <trkpt lat="38.03745553828775882720947265625" lon="-106.9389792345464229583740234375">
        <ele>4026.39990234375</ele>
        <time>2026-05-25T16:34:56.000Z</time>
        <extensions>
          <ns3:TrackPointExtension>
            <ns3:hr>90</ns3:hr>
            <ns3:cad>55</ns3:cad>
          </ns3:TrackPointExtension>
        </extensions>
      </trkpt>
      <trkpt lat="38.037502728402614593505859375" lon="-106.93899147212505340576171875">
        <ele>4025.800048828125</ele>
        <time>2026-05-25T16:35:01.000Z</time>
        <extensions>
          <ns3:TrackPointExtension>
            <ns3:hr>93</ns3:hr>
            <ns3:cad>0</ns3:cad>
          </ns3:TrackPointExtension>
        </extensions>
      </trkpt>
      <trkpt lat="38.0375754833221435546875" lon="-106.93902374245226383209228515625">
        <ele>4026.199951171875</ele>
        <time>2026-05-25T16:35:07.000Z</time>
        <extensions>
          <ns3:TrackPointExtension>
            <ns3:hr>92</ns3:hr>
            <ns3:cad>52</ns3:cad>
          </ns3:TrackPointExtension>
        </extensions>
      </trkpt>
      <trkpt lat="38.0375957675278186798095703125" lon="-106.939026005566120147705078125">
        <ele>4026.39990234375</ele>
        <time>2026-05-25T16:35:09.000Z</time>
        <extensions>
          <ns3:TrackPointExtension>
            <ns3:hr>92</ns3:hr>
            <ns3:cad>52</ns3:cad>
          </ns3:TrackPointExtension>
        </extensions>
      </trkpt>
      <trkpt lat="38.03764362819492816925048828125" lon="-106.93905408494174480438232421875">
        <ele>4026.39990234375</ele>
        <time>2026-05-25T16:35:14.000Z</time>
        <extensions>
          <ns3:TrackPointExtension>
            <ns3:hr>92</ns3:hr>
            <ns3:cad>52</ns3:cad>
          </ns3:TrackPointExtension>
        </extensions>
      </trkpt>
      <trkpt lat="38.03766055963933467864990234375" lon="-106.93905710242688655853271484375">
        <ele>4026.800048828125</ele>
        <time>2026-05-25T16:35:19.000Z</time>
        <extensions>
          <ns3:TrackPointExtension>
            <ns3:hr>91</ns3:hr>
            <ns3:cad>0</ns3:cad>
          </ns3:TrackPointExtension>
        </extensions>
      </trkpt>
      <trkpt lat="38.0376594699919223785400390625" lon="-106.93906657397747039794921875">
        <ele>4026.800048828125</ele>
        <time>2026-05-25T16:35:24.000Z</time>
        <extensions>
          <ns3:TrackPointExtension>
            <ns3:hr>89</ns3:hr>
            <ns3:cad>0</ns3:cad>
          </ns3:TrackPointExtension>
        </extensions>
      </trkpt>
      <trkpt lat="38.03765485994517803192138671875" lon="-106.93906481377780437469482421875">
        <ele>4026.60009765625</ele>
        <time>2026-05-25T16:35:30.000Z</time>
        <extensions>
          <ns3:TrackPointExtension>
            <ns3:hr>88</ns3:hr>
            <ns3:cad>0</ns3:cad>
          </ns3:TrackPointExtension>
        </extensions>
      </trkpt>
      <trkpt lat="38.0376500822603702545166015625" lon="-106.93906414322555065155029296875">
        <ele>4026.199951171875</ele>
        <time>2026-05-25T16:35:33.000Z</time>
        <extensions>
          <ns3:TrackPointExtension>
            <ns3:hr>85</ns3:hr>
            <ns3:cad>0</ns3:cad>
          </ns3:TrackPointExtension>
        </extensions>
      </trkpt>
      <trkpt lat="38.037650585174560546875" lon="-106.939062885940074920654296875">
        <ele>4026.60009765625</ele>
        <time>2026-05-25T16:35:38.000Z</time>
        <extensions>
          <ns3:TrackPointExtension>
            <ns3:hr>85</ns3:hr>
            <ns3:cad>0</ns3:cad>
          </ns3:TrackPointExtension>
        </extensions>
      </trkpt>
      <trkpt lat="38.037650585174560546875" lon="-106.939062885940074920654296875">
        <ele>4026.800048828125</ele>
        <time>2026-05-25T16:35:41.000Z</time>
        <extensions>
          <ns3:TrackPointExtension>
            <ns3:hr>82</ns3:hr>
            <ns3:cad>0</ns3:cad>
          </ns3:TrackPointExtension>
        </extensions>
      </trkpt>
      <trkpt lat="38.037650585174560546875" lon="-106.939062885940074920654296875">
        <ele>4026.800048828125</ele>
        <time>2026-05-25T16:35:42.000Z</time>
        <extensions>
          <ns3:TrackPointExtension>
            <ns3:hr>79</ns3:hr>
            <ns3:cad>0</ns3:cad>
          </ns3:TrackPointExtension>
        </extensions>
      </trkpt>
      <trkpt lat="38.037650585174560546875" lon="-106.939062885940074920654296875">
        <ele>4026.800048828125</ele>
        <time>2026-05-25T16:35:48.000Z</time>
        <extensions>
          <ns3:TrackPointExtension>
            <ns3:hr>79</ns3:hr>
            <ns3:cad>0</ns3:cad>
          </ns3:TrackPointExtension>
        </extensions>
      </trkpt>
      <trkpt lat="38.037650585174560546875" lon="-106.939062885940074920654296875">
        <ele>4026.39990234375</ele>
        <time>2026-05-25T16:35:50.000Z</time>
        <extensions>
          <ns3:TrackPointExtension>
            <ns3:hr>81</ns3:hr>
            <ns3:cad>0</ns3:cad>
          </ns3:TrackPointExtension>
        </extensions>
      </trkpt>
      <trkpt lat="38.037650585174560546875" lon="-106.939062885940074920654296875">
        <ele>4026.39990234375</ele>
        <time>2026-05-25T16:35:52.000Z</time>
        <extensions>
          <ns3:TrackPointExtension>
            <ns3:hr>85</ns3:hr>
            <ns3:cad>0</ns3:cad>
          </ns3:TrackPointExtension>
        </extensions>
      </trkpt>
      <trkpt lat="38.037647902965545654296875" lon="-106.939064227044582366943359375">
        <ele>4026.60009765625</ele>
        <time>2026-05-25T16:35:58.000Z</time>
        <extensions>
          <ns3:TrackPointExtension>
            <ns3:hr>85</ns3:hr>
            <ns3:cad>0</ns3:cad>
          </ns3:TrackPointExtension>
        </extensions>
      </trkpt>
      <trkpt lat="38.03764723241329193115234375" lon="-106.9390657357871532440185546875">
        <ele>4026.60009765625</ele>
        <time>2026-05-25T16:35:59.000Z</time>
        <extensions>
          <ns3:TrackPointExtension>
            <ns3:hr>85</ns3:hr>
            <ns3:cad>0</ns3:cad>
          </ns3:TrackPointExtension>
        </extensions>
      </trkpt>
      <trkpt lat="38.037650585174560546875" lon="-106.939062885940074920654296875">
        <ele>4026.39990234375</ele>
        <time>2026-05-25T16:36:04.000Z</time>
        <extensions>
          <ns3:TrackPointExtension>
            <ns3:hr>80</ns3:hr>
            <ns3:cad>0</ns3:cad>
          </ns3:TrackPointExtension>
        </extensions>
      </trkpt>
      <trkpt lat="38.037650585174560546875" lon="-106.939062885940074920654296875">
        <ele>4026.39990234375</ele>
        <time>2026-05-25T16:36:05.000Z</time>
        <extensions>
          <ns3:TrackPointExtension>
            <ns3:hr>76</ns3:hr>
            <ns3:cad>0</ns3:cad>
          </ns3:TrackPointExtension>
        </extensions>
      </trkpt>
      <trkpt lat="38.037650585174560546875" lon="-106.939062885940074920654296875">
        <ele>4026.39990234375</ele>
        <time>2026-05-25T16:36:06.000Z</time>
        <extensions>
          <ns3:TrackPointExtension>
            <ns3:hr>72</ns3:hr>
            <ns3:cad>0</ns3:cad>
          </ns3:TrackPointExtension>
        </extensions>
      </trkpt>
      <trkpt lat="38.037650585174560546875" lon="-106.939062885940074920654296875">
        <ele>4026.199951171875</ele>
        <time>2026-05-25T16:36:08.000Z</time>
        <extensions>
          <ns3:TrackPointExtension>
            <ns3:hr>67</ns3:hr>
            <ns3:cad>0</ns3:cad>
          </ns3:TrackPointExtension>
        </extensions>
      </trkpt>
      <trkpt lat="38.037650585174560546875" lon="-106.939062885940074920654296875">
        <ele>4026</ele>
        <time>2026-05-25T16:36:10.000Z</time>
        <extensions>
          <ns3:TrackPointExtension>
            <ns3:hr>65</ns3:hr>
            <ns3:cad>0</ns3:cad>
          </ns3:TrackPointExtension>
        </extensions>
      </trkpt>
      <trkpt lat="38.037650585174560546875" lon="-106.939062885940074920654296875">
        <ele>4026.800048828125</ele>
        <time>2026-05-25T16:36:14.000Z</time>
        <extensions>
          <ns3:TrackPointExtension>
            <ns3:hr>68</ns3:hr>
            <ns3:cad>0</ns3:cad>
          </ns3:TrackPointExtension>
        </extensions>
      </trkpt>
      <trkpt lat="38.037650585174560546875" lon="-106.939062885940074920654296875">
        <ele>4027</ele>
        <time>2026-05-25T16:36:17.000Z</time>
        <extensions>
          <ns3:TrackPointExtension>
            <ns3:hr>71</ns3:hr>
            <ns3:cad>0</ns3:cad>
          </ns3:TrackPointExtension>
        </extensions>
      </trkpt>
      <trkpt lat="38.037650585174560546875" lon="-106.939062885940074920654296875">
        <ele>4026.800048828125</ele>
        <time>2026-05-25T16:36:20.000Z</time>
        <extensions>
          <ns3:TrackPointExtension>
            <ns3:hr>71</ns3:hr>
            <ns3:cad>0</ns3:cad>
          </ns3:TrackPointExtension>
        </extensions>
      </trkpt>
      <trkpt lat="38.0376571230590343475341796875" lon="-106.9390553422272205352783203125">
        <ele>4027.39990234375</ele>
        <time>2026-05-25T16:36:25.000Z</time>
        <extensions>
          <ns3:TrackPointExtension>
            <ns3:hr>72</ns3:hr>
            <ns3:cad>0</ns3:cad>
          </ns3:TrackPointExtension>
        </extensions>
      </trkpt>
      <trkpt lat="38.0376608110964298248291015625" lon="-106.939053498208522796630859375">
        <ele>4028</ele>
        <time>2026-05-25T16:36:27.000Z</time>
        <extensions>
          <ns3:TrackPointExtension>
            <ns3:hr>72</ns3:hr>
            <ns3:cad>0</ns3:cad>
          </ns3:TrackPointExtension>
        </extensions>
      </trkpt>
      <trkpt lat="38.0376626551151275634765625" lon="-106.93905274383723735809326171875">
        <ele>4027.39990234375</ele>
        <time>2026-05-25T16:36:33.000Z</time>
        <extensions>
          <ns3:TrackPointExtension>
            <ns3:hr>71</ns3:hr>
            <ns3:cad>0</ns3:cad>
          </ns3:TrackPointExtension>
        </extensions>
      </trkpt>
      <trkpt lat="38.0376626551151275634765625" lon="-106.93905274383723735809326171875">
        <ele>4027.199951171875</ele>
        <time>2026-05-25T16:36:35.000Z</time>
        <extensions>
          <ns3:TrackPointExtension>
            <ns3:hr>76</ns3:hr>
            <ns3:cad>0</ns3:cad>
          </ns3:TrackPointExtension>
        </extensions>
      </trkpt>
      <trkpt lat="38.0376628227531909942626953125" lon="-106.93905240856111049652099609375">
        <ele>4027.39990234375</ele>
        <time>2026-05-25T16:36:36.000Z</time>
        <extensions>
          <ns3:TrackPointExtension>
            <ns3:hr>80</ns3:hr>
            <ns3:cad>0</ns3:cad>
          </ns3:TrackPointExtension>
        </extensions>
      </trkpt>
      <trkpt lat="38.0376628227531909942626953125" lon="-106.93905240856111049652099609375">
        <ele>4027.60009765625</ele>
        <time>2026-05-25T16:36:37.000Z</time>
        <extensions>
          <ns3:TrackPointExtension>
            <ns3:hr>79</ns3:hr>
            <ns3:cad>0</ns3:cad>
          </ns3:TrackPointExtension>
        </extensions>
      </trkpt>
      <trkpt lat="38.037669025361537933349609375" lon="-106.939051151275634765625">
        <ele>4028</ele>
        <time>2026-05-25T16:36:38.000Z</time>
        <extensions>
          <ns3:TrackPointExtension>
            <ns3:hr>79</ns3:hr>
            <ns3:cad>0</ns3:cad>
          </ns3:TrackPointExtension>
        </extensions>
      </trkpt>
      <trkpt lat="38.0376748926937580108642578125" lon="-106.939064227044582366943359375">
        <ele>4028.60009765625</ele>
        <time>2026-05-25T16:36:40.000Z</time>
        <extensions>
          <ns3:TrackPointExtension>
            <ns3:hr>77</ns3:hr>
            <ns3:cad>0</ns3:cad>
          </ns3:TrackPointExtension>
        </extensions>
      </trkpt>
      <trkpt lat="38.03767665289342403411865234375" lon="-106.9390684179961681365966796875">
        <ele>4028.800048828125</ele>
        <time>2026-05-25T16:36:43.000Z</time>
        <extensions>
          <ns3:TrackPointExtension>
            <ns3:hr>80</ns3:hr>
            <ns3:cad>0</ns3:cad>
          </ns3:TrackPointExtension>
        </extensions>
      </trkpt>
      <trkpt lat="38.0376765690743923187255859375" lon="-106.93906850181519985198974609375">
        <ele>4029</ele>
        <time>2026-05-25T16:36:44.000Z</time>
        <extensions>
          <ns3:TrackPointExtension>
            <ns3:hr>85</ns3:hr>
            <ns3:cad>0</ns3:cad>
          </ns3:TrackPointExtension>
        </extensions>
      </trkpt>
      <trkpt lat="38.0376765690743923187255859375" lon="-106.93906850181519985198974609375">
        <ele>4029</ele>
        <time>2026-05-25T16:36:45.000Z</time>
        <extensions>
          <ns3:TrackPointExtension>
            <ns3:hr>85</ns3:hr>
            <ns3:cad>0</ns3:cad>
          </ns3:TrackPointExtension>
        </extensions>
      </trkpt>
      <trkpt lat="38.0376765690743923187255859375" lon="-106.93906850181519985198974609375">
        <ele>4029</ele>
        <time>2026-05-25T16:36:49.000Z</time>
        <extensions>
          <ns3:TrackPointExtension>
            <ns3:hr>82</ns3:hr>
            <ns3:cad>0</ns3:cad>
          </ns3:TrackPointExtension>
        </extensions>
      </trkpt>
      <trkpt lat="38.0376765690743923187255859375" lon="-106.93906850181519985198974609375">
        <ele>4029</ele>
        <time>2026-05-25T16:36:52.000Z</time>
        <extensions>
          <ns3:TrackPointExtension>
            <ns3:hr>78</ns3:hr>
            <ns3:cad>0</ns3:cad>
          </ns3:TrackPointExtension>
        </extensions>
      </trkpt>
      <trkpt lat="38.0376765690743923187255859375" lon="-106.93906850181519985198974609375">
        <ele>4028.800048828125</ele>
        <time>2026-05-25T16:36:58.000Z</time>
        <extensions>
          <ns3:TrackPointExtension>
            <ns3:hr>76</ns3:hr>
            <ns3:cad>0</ns3:cad>
          </ns3:TrackPointExtension>
        </extensions>
      </trkpt>
      <trkpt lat="38.0376765690743923187255859375" lon="-106.93906850181519985198974609375">
        <ele>4028.199951171875</ele>
        <time>2026-05-25T16:37:02.000Z</time>
        <extensions>
          <ns3:TrackPointExtension>
            <ns3:hr>77</ns3:hr>
            <ns3:cad>0</ns3:cad>
          </ns3:TrackPointExtension>
        </extensions>
      </trkpt>
      <trkpt lat="38.0376765690743923187255859375" lon="-106.93906850181519985198974609375">
        <ele>4027.39990234375</ele>
        <time>2026-05-25T16:37:07.000Z</time>
        <extensions>
          <ns3:TrackPointExtension>
            <ns3:hr>78</ns3:hr>
            <ns3:cad>0</ns3:cad>
          </ns3:TrackPointExtension>
        </extensions>
      </trkpt>
      <trkpt lat="38.0376765690743923187255859375" lon="-106.93906850181519985198974609375">
        <ele>4027.60009765625</ele>
        <time>2026-05-25T16:37:10.000Z</time>
        <extensions>
          <ns3:TrackPointExtension>
            <ns3:hr>81</ns3:hr>
            <ns3:cad>0</ns3:cad>
          </ns3:TrackPointExtension>
        </extensions>
      </trkpt>
      <trkpt lat="38.0376765690743923187255859375" lon="-106.93906850181519985198974609375">
        <ele>4027.800048828125</ele>
        <time>2026-05-25T16:37:13.000Z</time>
        <extensions>
          <ns3:TrackPointExtension>
            <ns3:hr>82</ns3:hr>
            <ns3:cad>0</ns3:cad>
          </ns3:TrackPointExtension>
        </extensions>
      </trkpt>
      <trkpt lat="38.03766776807606220245361328125" lon="-106.93907252512872219085693359375">
        <ele>4026.60009765625</ele>
        <time>2026-05-25T16:37:19.000Z</time>
        <extensions>
          <ns3:TrackPointExtension>
            <ns3:hr>80</ns3:hr>
            <ns3:cad>0</ns3:cad>
          </ns3:TrackPointExtension>
        </extensions>
      </trkpt>
      <trkpt lat="38.0376765690743923187255859375" lon="-106.93906850181519985198974609375">
        <ele>4026.60009765625</ele>
        <time>2026-05-25T16:37:25.000Z</time>
        <extensions>
          <ns3:TrackPointExtension>
            <ns3:hr>77</ns3:hr>
            <ns3:cad>0</ns3:cad>
          </ns3:TrackPointExtension>
        </extensions>
      </trkpt>
      <trkpt lat="38.0376765690743923187255859375" lon="-106.93906850181519985198974609375">
        <ele>4026.60009765625</ele>
        <time>2026-05-25T16:37:26.000Z</time>
        <extensions>
          <ns3:TrackPointExtension>
            <ns3:hr>77</ns3:hr>
            <ns3:cad>0</ns3:cad>
          </ns3:TrackPointExtension>
        </extensions>
      </trkpt>
      <trkpt lat="38.0376765690743923187255859375" lon="-106.93906850181519985198974609375">
        <ele>4026.800048828125</ele>
        <time>2026-05-25T16:37:32.000Z</time>
        <extensions>
          <ns3:TrackPointExtension>
            <ns3:hr>75</ns3:hr>
            <ns3:cad>0</ns3:cad>
          </ns3:TrackPointExtension>
        </extensions>
      </trkpt>
      <trkpt lat="38.0376765690743923187255859375" lon="-106.93906850181519985198974609375">
        <ele>4026.800048828125</ele>
        <time>2026-05-25T16:37:36.000Z</time>
        <extensions>
          <ns3:TrackPointExtension>
            <ns3:hr>72</ns3:hr>
            <ns3:cad>0</ns3:cad>
          </ns3:TrackPointExtension>
        </extensions>
      </trkpt>
      <trkpt lat="38.0376765690743923187255859375" lon="-106.93906850181519985198974609375">
        <ele>4027.199951171875</ele>
        <time>2026-05-25T16:37:37.000Z</time>
        <extensions>
          <ns3:TrackPointExtension>
            <ns3:hr>68</ns3:hr>
            <ns3:cad>0</ns3:cad>
          </ns3:TrackPointExtension>
        </extensions>
      </trkpt>
      <trkpt lat="38.0376765690743923187255859375" lon="-106.93906850181519985198974609375">
        <ele>4027.39990234375</ele>
        <time>2026-05-25T16:37:39.000Z</time>
        <extensions>
          <ns3:TrackPointExtension>
            <ns3:hr>65</ns3:hr>
            <ns3:cad>0</ns3:cad>
          </ns3:TrackPointExtension>
        </extensions>
      </trkpt>
      <trkpt lat="38.0376765690743923187255859375" lon="-106.93906850181519985198974609375">
        <ele>4028</ele>
        <time>2026-05-25T16:37:45.000Z</time>
        <extensions>
          <ns3:TrackPointExtension>
            <ns3:hr>66</ns3:hr>
            <ns3:cad>0</ns3:cad>
          </ns3:TrackPointExtension>
        </extensions>
      </trkpt>
      <trkpt lat="38.0376765690743923187255859375" lon="-106.93906850181519985198974609375">
        <ele>4028</ele>
        <time>2026-05-25T16:37:46.000Z</time>
        <extensions>
          <ns3:TrackPointExtension>
            <ns3:hr>66</ns3:hr>
            <ns3:cad>0</ns3:cad>
          </ns3:TrackPointExtension>
        </extensions>
      </trkpt>
      <trkpt lat="38.0376765690743923187255859375" lon="-106.93906850181519985198974609375">
        <ele>4028</ele>
        <time>2026-05-25T16:37:52.000Z</time>
        <extensions>
          <ns3:TrackPointExtension>
            <ns3:hr>66</ns3:hr>
            <ns3:cad>0</ns3:cad>
          </ns3:TrackPointExtension>
        </extensions>
      </trkpt>
      <trkpt lat="38.0376765690743923187255859375" lon="-106.93906850181519985198974609375">
        <ele>4027.800048828125</ele>
        <time>2026-05-25T16:37:58.000Z</time>
        <extensions>
          <ns3:TrackPointExtension>
            <ns3:hr>68</ns3:hr>
            <ns3:cad>0</ns3:cad>
          </ns3:TrackPointExtension>
        </extensions>
      </trkpt>
      <trkpt lat="38.0376765690743923187255859375" lon="-106.93906850181519985198974609375">
        <ele>4028</ele>
        <time>2026-05-25T16:38:04.000Z</time>
        <extensions>
          <ns3:TrackPointExtension>
            <ns3:hr>69</ns3:hr>
            <ns3:cad>0</ns3:cad>
          </ns3:TrackPointExtension>
        </extensions>
      </trkpt>
      <trkpt lat="38.0376765690743923187255859375" lon="-106.93906850181519985198974609375">
        <ele>4028.199951171875</ele>
        <time>2026-05-25T16:38:10.000Z</time>
        <extensions>
          <ns3:TrackPointExtension>
            <ns3:hr>71</ns3:hr>
            <ns3:cad>0</ns3:cad>
          </ns3:TrackPointExtension>
        </extensions>
      </trkpt>
      <trkpt lat="38.0376765690743923187255859375" lon="-106.93906850181519985198974609375">
        <ele>4027.800048828125</ele>
        <time>2026-05-25T16:38:16.000Z</time>
        <extensions>
          <ns3:TrackPointExtension>
            <ns3:hr>68</ns3:hr>
            <ns3:cad>0</ns3:cad>
          </ns3:TrackPointExtension>
        </extensions>
      </trkpt>
      <trkpt lat="38.0376765690743923187255859375" lon="-106.93906850181519985198974609375">
        <ele>4028</ele>
        <time>2026-05-25T16:38:22.000Z</time>
        <extensions>
          <ns3:TrackPointExtension>
            <ns3:hr>68</ns3:hr>
            <ns3:cad>0</ns3:cad>
          </ns3:TrackPointExtension>
        </extensions>
      </trkpt>
      <trkpt lat="38.0376765690743923187255859375" lon="-106.93906850181519985198974609375">
        <ele>4028</ele>
        <time>2026-05-25T16:38:23.000Z</time>
        <extensions>
          <ns3:TrackPointExtension>
            <ns3:hr>68</ns3:hr>
            <ns3:cad>0</ns3:cad>
          </ns3:TrackPointExtension>
        </extensions>
      </trkpt>
      <trkpt lat="38.0376765690743923187255859375" lon="-106.93906850181519985198974609375">
        <ele>4028</ele>
        <time>2026-05-25T16:38:29.000Z</time>
        <extensions>
          <ns3:TrackPointExtension>
            <ns3:hr>70</ns3:hr>
            <ns3:cad>0</ns3:cad>
          </ns3:TrackPointExtension>
        </extensions>
      </trkpt>
      <trkpt lat="38.03766542114317417144775390625" lon="-106.93907688371837139129638671875">
        <ele>4027.39990234375</ele>
        <time>2026-05-25T16:38:35.000Z</time>
        <extensions>
          <ns3:TrackPointExtension>
            <ns3:hr>68</ns3:hr>
            <ns3:cad>0</ns3:cad>
          </ns3:TrackPointExtension>
        </extensions>
      </trkpt>
      <trkpt lat="38.03766542114317417144775390625" lon="-106.93907688371837139129638671875">
        <ele>4027</ele>
        <time>2026-05-25T16:38:39.000Z</time>
        <extensions>
          <ns3:TrackPointExtension>
            <ns3:hr>64</ns3:hr>
            <ns3:cad>0</ns3:cad>
          </ns3:TrackPointExtension>
        </extensions>
      </trkpt>
      <trkpt lat="38.03768235258758068084716796875" lon="-106.9391022808849811553955078125">
        <ele>4028</ele>
        <time>2026-05-25T16:38:45.000Z</time>
        <extensions>
          <ns3:TrackPointExtension>
            <ns3:hr>62</ns3:hr>
            <ns3:cad>65</ns3:cad>
          </ns3:TrackPointExtension>
        </extensions>
      </trkpt>
      <trkpt lat="38.0377164669334888458251953125" lon="-106.9391197152435779571533203125">
        <ele>4028.800048828125</ele>
        <time>2026-05-25T16:38:47.000Z</time>
        <extensions>
          <ns3:TrackPointExtension>
            <ns3:hr>62</ns3:hr>
            <ns3:cad>0</ns3:cad>
          </ns3:TrackPointExtension>
        </extensions>
      </trkpt>
      <trkpt lat="38.03775896318256855010986328125" lon="-106.93913656286895275115966796875">
        <ele>4029</ele>
        <time>2026-05-25T16:38:51.000Z</time>
        <extensions>
          <ns3:TrackPointExtension>
            <ns3:hr>63</ns3:hr>
            <ns3:cad>0</ns3:cad>
          </ns3:TrackPointExtension>
        </extensions>
      </trkpt>
      <trkpt lat="38.03778477944433689117431640625" lon="-106.939150393009185791015625">
        <ele>4029</ele>
        <time>2026-05-25T16:38:53.000Z</time>
        <extensions>
          <ns3:TrackPointExtension>
            <ns3:hr>66</ns3:hr>
            <ns3:cad>0</ns3:cad>
          </ns3:TrackPointExtension>
        </extensions>
      </trkpt>
      <trkpt lat="38.037807159125804901123046875" lon="-106.939162127673625946044921875">
        <ele>4029.39990234375</ele>
        <time>2026-05-25T16:38:56.000Z</time>
        <extensions>
          <ns3:TrackPointExtension>
            <ns3:hr>69</ns3:hr>
            <ns3:cad>0</ns3:cad>
          </ns3:TrackPointExtension>
        </extensions>
      </trkpt>
      <trkpt lat="38.03785334341228008270263671875" lon="-106.9391797296702861785888671875">
        <ele>4029.39990234375</ele>
        <time>2026-05-25T16:38:59.000Z</time>
        <extensions>
          <ns3:TrackPointExtension>
            <ns3:hr>71</ns3:hr>
            <ns3:cad>0</ns3:cad>
          </ns3:TrackPointExtension>
        </extensions>
      </trkpt>
      <trkpt lat="38.03788368590176105499267578125" lon="-106.93918861448764801025390625">
        <ele>4029.60009765625</ele>
        <time>2026-05-25T16:39:02.000Z</time>
        <extensions>
          <ns3:TrackPointExtension>
            <ns3:hr>76</ns3:hr>
            <ns3:cad>0</ns3:cad>
          </ns3:TrackPointExtension>
        </extensions>
      </trkpt>
      <trkpt lat="38.037897683680057525634765625" lon="-106.93918886594474315643310546875">
        <ele>4029.60009765625</ele>
        <time>2026-05-25T16:39:03.000Z</time>
        <extensions>
          <ns3:TrackPointExtension>
            <ns3:hr>79</ns3:hr>
            <ns3:cad>0</ns3:cad>
          </ns3:TrackPointExtension>
        </extensions>
      </trkpt>
      <trkpt lat="38.03792006336152553558349609375" lon="-106.9391917996108531951904296875">
        <ele>4029.60009765625</ele>
        <time>2026-05-25T16:39:05.000Z</time>
        <extensions>
          <ns3:TrackPointExtension>
            <ns3:hr>80</ns3:hr>
            <ns3:cad>52</ns3:cad>
          </ns3:TrackPointExtension>
        </extensions>
      </trkpt>
      <trkpt lat="38.0379850231111049652099609375" lon="-106.93922239355742931365966796875">
        <ele>4029.800048828125</ele>
        <time>2026-05-25T16:39:11.000Z</time>
        <extensions>
          <ns3:TrackPointExtension>
            <ns3:hr>78</ns3:hr>
            <ns3:cad>51</ns3:cad>
          </ns3:TrackPointExtension>
        </extensions>
      </trkpt>
      <trkpt lat="38.037996925413608551025390625" lon="-106.93922893144190311431884765625">
        <ele>4030</ele>
        <time>2026-05-25T16:39:13.000Z</time>
        <extensions>
          <ns3:TrackPointExtension>
            <ns3:hr>77</ns3:hr>
            <ns3:cad>0</ns3:cad>
          </ns3:TrackPointExtension>
        </extensions>
      </trkpt>
      <trkpt lat="38.03807462565600872039794921875" lon="-106.9392590224742889404296875">
        <ele>4030</ele>
        <time>2026-05-25T16:39:19.000Z</time>
        <extensions>
          <ns3:TrackPointExtension>
            <ns3:hr>76</ns3:hr>
            <ns3:cad>51</ns3:cad>
          </ns3:TrackPointExtension>
        </extensions>
      </trkpt>
      <trkpt lat="38.03810949437320232391357421875" lon="-106.93926681764423847198486328125">
        <ele>4030</ele>
        <time>2026-05-25T16:39:22.000Z</time>
        <extensions>
          <ns3:TrackPointExtension>
            <ns3:hr>76</ns3:hr>
            <ns3:cad>52</ns3:cad>
          </ns3:TrackPointExtension>
        </extensions>
      </trkpt>
      <trkpt lat="38.03816020488739013671875" lon="-106.9392910413444042205810546875">
        <ele>4029.60009765625</ele>
        <time>2026-05-25T16:39:28.000Z</time>
        <extensions>
          <ns3:TrackPointExtension>
            <ns3:hr>76</ns3:hr>
            <ns3:cad>53</ns3:cad>
          </ns3:TrackPointExtension>
        </extensions>
      </trkpt>
      <trkpt lat="38.0381831713020801544189453125" lon="-106.93929330445826053619384765625">
        <ele>4029.60009765625</ele>
        <time>2026-05-25T16:39:29.000Z</time>
        <extensions>
          <ns3:TrackPointExtension>
            <ns3:hr>76</ns3:hr>
            <ns3:cad>51</ns3:cad>
          </ns3:TrackPointExtension>
        </extensions>
      </trkpt>
      <trkpt lat="38.0382445268332958221435546875" lon="-106.9393101520836353302001953125">
        <ele>4030.199951171875</ele>
        <time>2026-05-25T16:39:35.000Z</time>
        <extensions>
          <ns3:TrackPointExtension>
            <ns3:hr>74</ns3:hr>
            <ns3:cad>51</ns3:cad>
          </ns3:TrackPointExtension>
        </extensions>
      </trkpt>
      <trkpt lat="38.03826858289539813995361328125" lon="-106.93931794725358486175537109375">
        <ele>4030.199951171875</ele>
        <time>2026-05-25T16:39:37.000Z</time>
        <extensions>
          <ns3:TrackPointExtension>
            <ns3:hr>73</ns3:hr>
            <ns3:cad>51</ns3:cad>
          </ns3:TrackPointExtension>
        </extensions>
      </trkpt>
      <trkpt lat="38.03833664394915103912353515625" lon="-106.93934057839214801788330078125">
        <ele>4030.60009765625</ele>
        <time>2026-05-25T16:39:43.000Z</time>
        <extensions>
          <ns3:TrackPointExtension>
            <ns3:hr>73</ns3:hr>
            <ns3:cad>49</ns3:cad>
          </ns3:TrackPointExtension>
        </extensions>
      </trkpt>
      <trkpt lat="38.0383501388132572174072265625" lon="-106.93934141658246517181396484375">
        <ele>4030.800048828125</ele>
        <time>2026-05-25T16:39:44.000Z</time>
        <extensions>
          <ns3:TrackPointExtension>
            <ns3:hr>73</ns3:hr>
            <ns3:cad>49</ns3:cad>
          </ns3:TrackPointExtension>
        </extensions>
      </trkpt>
      <trkpt lat="38.03837402723729610443115234375" lon="-106.93935097195208072662353515625">
        <ele>4031</ele>
        <time>2026-05-25T16:39:46.000Z</time>
        <extensions>
          <ns3:TrackPointExtension>
            <ns3:hr>73</ns3:hr>
            <ns3:cad>50</ns3:cad>
          </ns3:TrackPointExtension>
        </extensions>
      </trkpt>
      <trkpt lat="38.03842683322727680206298828125" lon="-106.9393537379801273345947265625">
        <ele>4032</ele>
        <time>2026-05-25T16:39:52.000Z</time>
        <extensions>
          <ns3:TrackPointExtension>
            <ns3:hr>72</ns3:hr>
            <ns3:cad>49</ns3:cad>
          </ns3:TrackPointExtension>
        </extensions>
      </trkpt>
      <trkpt lat="38.0384393222630023956298828125" lon="-106.939359605312347412109375">
        <ele>4032</ele>
        <time>2026-05-25T16:39:53.000Z</time>
        <extensions>
          <ns3:TrackPointExtension>
            <ns3:hr>72</ns3:hr>
            <ns3:cad>49</ns3:cad>
          </ns3:TrackPointExtension>
        </extensions>
      </trkpt>
      <trkpt lat="38.03851551376283168792724609375" lon="-106.93936371244490146636962890625">
        <ele>4032</ele>
        <time>2026-05-25T16:39:59.000Z</time>
        <extensions>
          <ns3:TrackPointExtension>
            <ns3:hr>74</ns3:hr>
            <ns3:cad>0</ns3:cad>
          </ns3:TrackPointExtension>
        </extensions>
      </trkpt>
      <trkpt lat="38.0385690741240978240966796875" lon="-106.93938215263187885284423828125">
        <ele>4032.60009765625</ele>
        <time>2026-05-25T16:40:05.000Z</time>
        <extensions>
          <ns3:TrackPointExtension>
            <ns3:hr>77</ns3:hr>
            <ns3:cad>0</ns3:cad>
          </ns3:TrackPointExtension>
        </extensions>
      </trkpt>
      <trkpt lat="38.03858332335948944091796875" lon="-106.93938919343054294586181640625">
        <ele>4032.800048828125</ele>
        <time>2026-05-25T16:40:06.000Z</time>
        <extensions>
          <ns3:TrackPointExtension>
            <ns3:hr>77</ns3:hr>
            <ns3:cad>0</ns3:cad>
          </ns3:TrackPointExtension>
        </extensions>
      </trkpt>
      <trkpt lat="38.0386160127818584442138671875" lon="-106.93940629251301288604736328125">
        <ele>4033</ele>
        <time>2026-05-25T16:40:09.000Z</time>
        <extensions>
          <ns3:TrackPointExtension>
            <ns3:hr>77</ns3:hr>
            <ns3:cad>0</ns3:cad>
          </ns3:TrackPointExtension>
        </extensions>
      </trkpt>
      <trkpt lat="38.0386448465287685394287109375" lon="-106.9394157640635967254638671875">
        <ele>4033.60009765625</ele>
        <time>2026-05-25T16:40:13.000Z</time>
        <extensions>
          <ns3:TrackPointExtension>
            <ns3:hr>80</ns3:hr>
            <ns3:cad>0</ns3:cad>
          </ns3:TrackPointExtension>
        </extensions>
      </trkpt>
      <trkpt lat="38.0387139134109020233154296875" lon="-106.93944535218179225921630859375">
        <ele>4033.39990234375</ele>
        <time>2026-05-25T16:40:19.000Z</time>
        <extensions>
          <ns3:TrackPointExtension>
            <ns3:hr>82</ns3:hr>
            <ns3:cad>53</ns3:cad>
          </ns3:TrackPointExtension>
        </extensions>
      </trkpt>
      <trkpt lat="38.03874987177550792694091796875" lon="-106.9394573383033275604248046875">
        <ele>4034</ele>
        <time>2026-05-25T16:40:24.000Z</time>
        <extensions>
          <ns3:TrackPointExtension>
            <ns3:hr>84</ns3:hr>
            <ns3:cad>59</ns3:cad>
          </ns3:TrackPointExtension>
        </extensions>
      </trkpt>
      <trkpt lat="38.038758672773838043212890625" lon="-106.9394583441317081451416015625">
        <ele>4034.199951171875</ele>
        <time>2026-05-25T16:40:25.000Z</time>
        <extensions>
          <ns3:TrackPointExtension>
            <ns3:hr>84</ns3:hr>
            <ns3:cad>71</ns3:cad>
          </ns3:TrackPointExtension>
        </extensions>
      </trkpt>
      <trkpt lat="38.03883871994912624359130859375" lon="-106.93946261890232563018798828125">
        <ele>4035</ele>
        <time>2026-05-25T16:40:31.000Z</time>
        <extensions>
          <ns3:TrackPointExtension>
            <ns3:hr>82</ns3:hr>
            <ns3:cad>0</ns3:cad>
          </ns3:TrackPointExtension>
        </extensions>
      </trkpt>
      <trkpt lat="38.0388416536152362823486328125" lon="-106.9394610263407230377197265625">
        <ele>4035.199951171875</ele>
        <time>2026-05-25T16:40:32.000Z</time>
        <extensions>
          <ns3:TrackPointExtension>
            <ns3:hr>82</ns3:hr>
            <ns3:cad>0</ns3:cad>
          </ns3:TrackPointExtension>
        </extensions>
      </trkpt>
      <trkpt lat="38.03886227309703826904296875" lon="-106.93946714513003826141357421875">
        <ele>4035.60009765625</ele>
        <time>2026-05-25T16:40:35.000Z</time>
        <extensions>
          <ns3:TrackPointExtension>
            <ns3:hr>82</ns3:hr>
            <ns3:cad>0</ns3:cad>
          </ns3:TrackPointExtension>
        </extensions>
      </trkpt>
      <trkpt lat="38.0389045178890228271484375" lon="-106.9394709169864654541015625">
        <ele>4035.60009765625</ele>
        <time>2026-05-25T16:40:39.000Z</time>
        <extensions>
          <ns3:TrackPointExtension>
            <ns3:hr>85</ns3:hr>
            <ns3:cad>0</ns3:cad>
          </ns3:TrackPointExtension>
        </extensions>
      </trkpt>
      <trkpt lat="38.038944415748119354248046875" lon="-106.9394673965871334075927734375">
        <ele>4035.60009765625</ele>
        <time>2026-05-25T16:40:42.000Z</time>
        <extensions>
          <ns3:TrackPointExtension>
            <ns3:hr>84</ns3:hr>
            <ns3:cad>53</ns3:cad>
          </ns3:TrackPointExtension>
        </extensions>
      </trkpt>
      <trkpt lat="38.0389955453574657440185546875" lon="-106.9394704140722751617431640625">
        <ele>4035.800048828125</ele>
        <time>2026-05-25T16:40:47.000Z</time>
        <extensions>
          <ns3:TrackPointExtension>
            <ns3:hr>84</ns3:hr>
            <ns3:cad>50</ns3:cad>
          </ns3:TrackPointExtension>
        </extensions>
      </trkpt>
      <trkpt lat="38.03904390893876552581787109375" lon="-106.93948072381317615509033203125">
        <ele>4036.39990234375</ele>
        <time>2026-05-25T16:40:51.000Z</time>
        <extensions>
          <ns3:TrackPointExtension>
            <ns3:hr>82</ns3:hr>
            <ns3:cad>46</ns3:cad>
          </ns3:TrackPointExtension>
        </extensions>
      </trkpt>
      <trkpt lat="38.03907928057014942169189453125" lon="-106.93948307074606418609619140625">
        <ele>4036.39990234375</ele>
        <time>2026-05-25T16:40:54.000Z</time>
        <extensions>
          <ns3:TrackPointExtension>
            <ns3:hr>81</ns3:hr>
            <ns3:cad>49</ns3:cad>
          </ns3:TrackPointExtension>
        </extensions>
      </trkpt>
      <trkpt lat="38.03912739269435405731201171875" lon="-106.93947686813771724700927734375">
        <ele>4036.199951171875</ele>
        <time>2026-05-25T16:40:59.000Z</time>
        <extensions>
          <ns3:TrackPointExtension>
            <ns3:hr>82</ns3:hr>
            <ns3:cad>53</ns3:cad>
          </ns3:TrackPointExtension>
        </extensions>
      </trkpt>
      <trkpt lat="38.0391672067344188690185546875" lon="-106.93948055617511272430419921875">
        <ele>4036.199951171875</ele>
        <time>2026-05-25T16:41:03.000Z</time>
        <extensions>
          <ns3:TrackPointExtension>
            <ns3:hr>81</ns3:hr>
            <ns3:cad>53</ns3:cad>
          </ns3:TrackPointExtension>
        </extensions>
      </trkpt>
      <trkpt lat="38.03921473212540149688720703125" lon="-106.93948768079280853271484375">
        <ele>4037</ele>
        <time>2026-05-25T16:41:08.000Z</time>
        <extensions>
          <ns3:TrackPointExtension>
            <ns3:hr>85</ns3:hr>
            <ns3:cad>0</ns3:cad>
          </ns3:TrackPointExtension>
        </extensions>
      </trkpt>
      <trkpt lat="38.0392537079751491546630859375" lon="-106.93948365747928619384765625">
        <ele>4037.39990234375</ele>
        <time>2026-05-25T16:41:10.000Z</time>
        <extensions>
          <ns3:TrackPointExtension>
            <ns3:hr>86</ns3:hr>
            <ns3:cad>0</ns3:cad>
          </ns3:TrackPointExtension>
        </extensions>
      </trkpt>
      <trkpt lat="38.03931615315377712249755859375" lon="-106.93949212320148944854736328125">
        <ele>4037.39990234375</ele>
        <time>2026-05-25T16:41:16.000Z</time>
        <extensions>
          <ns3:TrackPointExtension>
            <ns3:hr>87</ns3:hr>
            <ns3:cad>68</ns3:cad>
          </ns3:TrackPointExtension>
        </extensions>
      </trkpt>
      <trkpt lat="38.0393811129033565521240234375" lon="-106.93951852619647979736328125">
        <ele>4037.60009765625</ele>
        <time>2026-05-25T16:41:22.000Z</time>
        <extensions>
          <ns3:TrackPointExtension>
            <ns3:hr>85</ns3:hr>
            <ns3:cad>0</ns3:cad>
          </ns3:TrackPointExtension>
        </extensions>
      </trkpt>
      <trkpt lat="38.03944422863423824310302734375" lon="-106.939540319144725799560546875">
        <ele>4037.60009765625</ele>
        <time>2026-05-25T16:41:27.000Z</time>
        <extensions>
          <ns3:TrackPointExtension>
            <ns3:hr>81</ns3:hr>
            <ns3:cad>0</ns3:cad>
          </ns3:TrackPointExtension>
        </extensions>
      </trkpt>
      <trkpt lat="38.03945462219417095184326171875" lon="-106.93954744376242160797119140625">
        <ele>4037.800048828125</ele>
        <time>2026-05-25T16:41:28.000Z</time>
        <extensions>
          <ns3:TrackPointExtension>
            <ns3:hr>80</ns3:hr>
            <ns3:cad>0</ns3:cad>
          </ns3:TrackPointExtension>
        </extensions>
      </trkpt>
      <trkpt lat="38.03951798938214778900146484375" lon="-106.9395689852535724639892578125">
        <ele>4038.199951171875</ele>
        <time>2026-05-25T16:41:34.000Z</time>
        <extensions>
          <ns3:TrackPointExtension>
            <ns3:hr>79</ns3:hr>
            <ns3:cad>0</ns3:cad>
          </ns3:TrackPointExtension>
        </extensions>
      </trkpt>
      <trkpt lat="38.03953626193106174468994140625" lon="-106.9395746849477291107177734375">
        <ele>4038.39990234375</ele>
        <time>2026-05-25T16:41:36.000Z</time>
        <extensions>
          <ns3:TrackPointExtension>
            <ns3:hr>79</ns3:hr>
            <ns3:cad>0</ns3:cad>
          </ns3:TrackPointExtension>
        </extensions>
      </trkpt>
      <trkpt lat="38.03956911899149417877197265625" lon="-106.93960377015173435211181640625">
        <ele>4038.60009765625</ele>
        <time>2026-05-25T16:41:42.000Z</time>
        <extensions>
          <ns3:TrackPointExtension>
            <ns3:hr>81</ns3:hr>
            <ns3:cad>0</ns3:cad>
          </ns3:TrackPointExtension>
        </extensions>
      </trkpt>
      <trkpt lat="38.03962091915309429168701171875" lon="-106.939622126519680023193359375">
        <ele>4039</ele>
        <time>2026-05-25T16:41:48.000Z</time>
        <extensions>
          <ns3:TrackPointExtension>
            <ns3:hr>81</ns3:hr>
            <ns3:cad>0</ns3:cad>
          </ns3:TrackPointExtension>
        </extensions>
      </trkpt>
      <trkpt lat="38.03967808373272418975830078125" lon="-106.93965238519012928009033203125">
        <ele>4039.60009765625</ele>
        <time>2026-05-25T16:41:52.000Z</time>
        <extensions>
          <ns3:TrackPointExtension>
            <ns3:hr>80</ns3:hr>
            <ns3:cad>0</ns3:cad>
          </ns3:TrackPointExtension>
        </extensions>
      </trkpt>
      <trkpt lat="38.03970289416611194610595703125" lon="-106.939669065177440643310546875">
        <ele>4039.800048828125</ele>
        <time>2026-05-25T16:41:54.000Z</time>
        <extensions>
          <ns3:TrackPointExtension>
            <ns3:hr>81</ns3:hr>
            <ns3:cad>0</ns3:cad>
          </ns3:TrackPointExtension>
        </extensions>
      </trkpt>
      <trkpt lat="38.0397442169487476348876953125" lon="-106.93968960084021091461181640625">
        <ele>4040.199951171875</ele>
        <time>2026-05-25T16:41:59.000Z</time>
        <extensions>
          <ns3:TrackPointExtension>
            <ns3:hr>81</ns3:hr>
            <ns3:cad>51</ns3:cad>
          </ns3:TrackPointExtension>
        </extensions>
      </trkpt>
      <trkpt lat="38.0397735536098480224609375" lon="-106.93969563581049442291259765625">
        <ele>4040.60009765625</ele>
        <time>2026-05-25T16:42:01.000Z</time>
        <extensions>
          <ns3:TrackPointExtension>
            <ns3:hr>81</ns3:hr>
            <ns3:cad>51</ns3:cad>
          </ns3:TrackPointExtension>
        </extensions>
      </trkpt>
      <trkpt lat="38.03979090414941310882568359375" lon="-106.93970435298979282379150390625">
        <ele>4041</ele>
        <time>2026-05-25T16:42:04.000Z</time>
        <extensions>
          <ns3:TrackPointExtension>
            <ns3:hr>81</ns3:hr>
            <ns3:cad>47</ns3:cad>
          </ns3:TrackPointExtension>
        </extensions>
      </trkpt>
      <trkpt lat="38.0398030579090118408203125" lon="-106.93972446955740451812744140625">
        <ele>4041</ele>
        <time>2026-05-25T16:42:05.000Z</time>
        <extensions>
          <ns3:TrackPointExtension>
            <ns3:hr>82</ns3:hr>
            <ns3:cad>47</ns3:cad>
          </ns3:TrackPointExtension>
        </extensions>
      </trkpt>
      <trkpt lat="38.039838261902332305908203125" lon="-106.93974609486758708953857421875">
        <ele>4041.199951171875</ele>
        <time>2026-05-25T16:42:09.000Z</time>
        <extensions>
          <ns3:TrackPointExtension>
            <ns3:hr>82</ns3:hr>
            <ns3:cad>0</ns3:cad>
          </ns3:TrackPointExtension>
        </extensions>
      </trkpt>
      <trkpt lat="38.039875812828540802001953125" lon="-106.939768977463245391845703125">
        <ele>4041.800048828125</ele>
        <time>2026-05-25T16:42:13.000Z</time>
        <extensions>
          <ns3:TrackPointExtension>
            <ns3:hr>83</ns3:hr>
            <ns3:cad>48</ns3:cad>
          </ns3:TrackPointExtension>
        </extensions>
      </trkpt>
      <trkpt lat="38.03989215753972530364990234375" lon="-106.93977694027125835418701171875">
        <ele>4042.39990234375</ele>
        <time>2026-05-25T16:42:15.000Z</time>
        <extensions>
          <ns3:TrackPointExtension>
            <ns3:hr>83</ns3:hr>
            <ns3:cad>48</ns3:cad>
          </ns3:TrackPointExtension>
        </extensions>
      </trkpt>
      <trkpt lat="38.0399021320044994354248046875" lon="-106.93977735936641693115234375">
        <ele>4043</ele>
        <time>2026-05-25T16:42:17.000Z</time>
        <extensions>
          <ns3:TrackPointExtension>
            <ns3:hr>84</ns3:hr>
            <ns3:cad>48</ns3:cad>
          </ns3:TrackPointExtension>
        </extensions>
      </trkpt>
      <trkpt lat="38.03992551751434803009033203125" lon="-106.93977333605289459228515625">
        <ele>4043.60009765625</ele>
        <time>2026-05-25T16:42:19.000Z</time>
        <extensions>
          <ns3:TrackPointExtension>
            <ns3:hr>87</ns3:hr>
            <ns3:cad>48</ns3:cad>
          </ns3:TrackPointExtension>
        </extensions>
      </trkpt>
      <trkpt lat="38.039932139217853546142578125" lon="-106.9397664628922939300537109375">
        <ele>4043.800048828125</ele>
        <time>2026-05-25T16:42:20.000Z</time>
        <extensions>
          <ns3:TrackPointExtension>
            <ns3:hr>93</ns3:hr>
            <ns3:cad>0</ns3:cad>
          </ns3:TrackPointExtension>
        </extensions>
      </trkpt>
      <trkpt lat="38.03993926383554935455322265625" lon="-106.93976906128227710723876953125">
        <ele>4044</ele>
        <time>2026-05-25T16:42:21.000Z</time>
        <extensions>
          <ns3:TrackPointExtension>
            <ns3:hr>101</ns3:hr>
            <ns3:cad>0</ns3:cad>
          </ns3:TrackPointExtension>
        </extensions>
      </trkpt>
      <trkpt lat="38.0399551056325435638427734375" lon="-106.9397714920341968536376953125">
        <ele>4044.199951171875</ele>
        <time>2026-05-25T16:42:22.000Z</time>
        <extensions>
          <ns3:TrackPointExtension>
            <ns3:hr>106</ns3:hr>
            <ns3:cad>0</ns3:cad>
          </ns3:TrackPointExtension>
        </extensions>
      </trkpt>
      <trkpt lat="38.0399742163717746734619140625" lon="-106.93977962248027324676513671875">
        <ele>4044.39990234375</ele>
        <time>2026-05-25T16:42:25.000Z</time>
        <extensions>
          <ns3:TrackPointExtension>
            <ns3:hr>109</ns3:hr>
            <ns3:cad>69</ns3:cad>
          </ns3:TrackPointExtension>
        </extensions>
      </trkpt>
      <trkpt lat="38.03999148309230804443359375" lon="-106.9397932849824428558349609375">
        <ele>4044.39990234375</ele>
        <time>2026-05-25T16:42:29.000Z</time>
        <extensions>
          <ns3:TrackPointExtension>
            <ns3:hr>108</ns3:hr>
            <ns3:cad>0</ns3:cad>
          </ns3:TrackPointExtension>
        </extensions>
      </trkpt>
      <trkpt lat="38.04002257995307445526123046875" lon="-106.93982471711933612823486328125">
        <ele>4045.199951171875</ele>
        <time>2026-05-25T16:42:32.000Z</time>
        <extensions>
          <ns3:TrackPointExtension>
            <ns3:hr>107</ns3:hr>
            <ns3:cad>0</ns3:cad>
          </ns3:TrackPointExtension>
        </extensions>
      </trkpt>
      <trkpt lat="38.04005208425223827362060546875" lon="-106.93983125500380992889404296875">
        <ele>4045.800048828125</ele>
        <time>2026-05-25T16:42:34.000Z</time>
        <extensions>
          <ns3:TrackPointExtension>
            <ns3:hr>108</ns3:hr>
            <ns3:cad>0</ns3:cad>
          </ns3:TrackPointExtension>
        </extensions>
      </trkpt>
      <trkpt lat="38.04006197489798069000244140625" lon="-106.93982019089162349700927734375">
        <ele>4046.199951171875</ele>
        <time>2026-05-25T16:42:36.000Z</time>
        <extensions>
          <ns3:TrackPointExtension>
            <ns3:hr>107</ns3:hr>
            <ns3:cad>56</ns3:cad>
          </ns3:TrackPointExtension>
        </extensions>
      </trkpt>
      <trkpt lat="38.04006197489798069000244140625" lon="-106.93982019089162349700927734375">
        <ele>4046.39990234375</ele>
        <time>2026-05-25T16:42:37.000Z</time>
        <extensions>
          <ns3:TrackPointExtension>
            <ns3:hr>106</ns3:hr>
            <ns3:cad>56</ns3:cad>
          </ns3:TrackPointExtension>
        </extensions>
      </trkpt>
      <trkpt lat="38.04006935097277164459228515625" lon="-106.93981683813035488128662109375">
        <ele>4046.60009765625</ele>
        <time>2026-05-25T16:42:38.000Z</time>
        <extensions>
          <ns3:TrackPointExtension>
            <ns3:hr>105</ns3:hr>
            <ns3:cad>56</ns3:cad>
          </ns3:TrackPointExtension>
        </extensions>
      </trkpt>
      <trkpt lat="38.04008536040782928466796875" lon="-106.93981759250164031982421875">
        <ele>4047.199951171875</ele>
        <time>2026-05-25T16:42:41.000Z</time>
        <extensions>
          <ns3:TrackPointExtension>
            <ns3:hr>105</ns3:hr>
            <ns3:cad>0</ns3:cad>
          </ns3:TrackPointExtension>
        </extensions>
      </trkpt>
      <trkpt lat="38.04008536040782928466796875" lon="-106.93981759250164031982421875">
        <ele>4047.39990234375</ele>
        <time>2026-05-25T16:42:42.000Z</time>
        <extensions>
          <ns3:TrackPointExtension>
            <ns3:hr>105</ns3:hr>
            <ns3:cad>0</ns3:cad>
          </ns3:TrackPointExtension>
        </extensions>
      </trkpt>
      <trkpt lat="38.04008678533136844635009765625" lon="-106.9398227892816066741943359375">
        <ele>4047.60009765625</ele>
        <time>2026-05-25T16:42:43.000Z</time>
        <extensions>
          <ns3:TrackPointExtension>
            <ns3:hr>105</ns3:hr>
            <ns3:cad>0</ns3:cad>
          </ns3:TrackPointExtension>
        </extensions>
      </trkpt>
      <trkpt lat="38.0400855280458927154541015625" lon="-106.93981935270130634307861328125">
        <ele>4047.800048828125</ele>
        <time>2026-05-25T16:42:44.000Z</time>
        <extensions>
          <ns3:TrackPointExtension>
            <ns3:hr>104</ns3:hr>
            <ns3:cad>0</ns3:cad>
          </ns3:TrackPointExtension>
        </extensions>
      </trkpt>
      <trkpt lat="38.04009877145290374755859375" lon="-106.939832679927349090576171875">
        <ele>4048.800048828125</ele>
        <time>2026-05-25T16:42:47.000Z</time>
        <extensions>
          <ns3:TrackPointExtension>
            <ns3:hr>103</ns3:hr>
            <ns3:cad>0</ns3:cad>
          </ns3:TrackPointExtension>
        </extensions>
      </trkpt>
      <trkpt lat="38.0401103384792804718017578125" lon="-106.93983712233603000640869140625">
        <ele>4049.39990234375</ele>
        <time>2026-05-25T16:42:49.000Z</time>
        <extensions>
          <ns3:TrackPointExtension>
            <ns3:hr>100</ns3:hr>
            <ns3:cad>0</ns3:cad>
          </ns3:TrackPointExtension>
        </extensions>
      </trkpt>
      <trkpt lat="38.040117211639881134033203125" lon="-106.93983946926891803741455078125">
        <ele>4050</ele>
        <time>2026-05-25T16:42:50.000Z</time>
        <extensions>
          <ns3:TrackPointExtension>
            <ns3:hr>99</ns3:hr>
            <ns3:cad>0</ns3:cad>
          </ns3:TrackPointExtension>
        </extensions>
      </trkpt>
      <trkpt lat="38.04012567736208438873291015625" lon="-106.9398429058492183685302734375">
        <ele>4050.60009765625</ele>
        <time>2026-05-25T16:42:52.000Z</time>
        <extensions>
          <ns3:TrackPointExtension>
            <ns3:hr>96</ns3:hr>
            <ns3:cad>0</ns3:cad>
          </ns3:TrackPointExtension>
        </extensions>
      </trkpt>
      <trkpt lat="38.04014026187360286712646484375" lon="-106.9398496113717555999755859375">
        <ele>4051</ele>
        <time>2026-05-25T16:42:53.000Z</time>
        <extensions>
          <ns3:TrackPointExtension>
            <ns3:hr>95</ns3:hr>
            <ns3:cad>0</ns3:cad>
          </ns3:TrackPointExtension>
        </extensions>
      </trkpt>
      <trkpt lat="38.04016674868762493133544921875" lon="-106.93986159749329090118408203125">
        <ele>4051.800048828125</ele>
        <time>2026-05-25T16:42:57.000Z</time>
        <extensions>
          <ns3:TrackPointExtension>
            <ns3:hr>92</ns3:hr>
            <ns3:cad>0</ns3:cad>
          </ns3:TrackPointExtension>
        </extensions>
      </trkpt>
      <trkpt lat="38.04022391326725482940673828125" lon="-106.9398812949657440185546875">
        <ele>4051.800048828125</ele>
        <time>2026-05-25T16:43:03.000Z</time>
        <extensions>
          <ns3:TrackPointExtension>
            <ns3:hr>94</ns3:hr>
            <ns3:cad>0</ns3:cad>
          </ns3:TrackPointExtension>
        </extensions>
      </trkpt>
      <trkpt lat="38.0402478016912937164306640625" lon="-106.93988556973636150360107421875">
        <ele>4051.60009765625</ele>
        <time>2026-05-25T16:43:06.000Z</time>
        <extensions>
          <ns3:TrackPointExtension>
            <ns3:hr>96</ns3:hr>
            <ns3:cad>0</ns3:cad>
          </ns3:TrackPointExtension>
        </extensions>
      </trkpt>
      <trkpt lat="38.04027604870498180389404296875" lon="-106.93989696912467479705810546875">
        <ele>4051.199951171875</ele>
        <time>2026-05-25T16:43:10.000Z</time>
        <extensions>
          <ns3:TrackPointExtension>
            <ns3:hr>99</ns3:hr>
            <ns3:cad>0</ns3:cad>
          </ns3:TrackPointExtension>
        </extensions>
      </trkpt>
      <trkpt lat="38.04029323160648345947265625" lon="-106.93990342319011688232421875">
        <ele>4051.39990234375</ele>
        <time>2026-05-25T16:43:12.000Z</time>
        <extensions>
          <ns3:TrackPointExtension>
            <ns3:hr>100</ns3:hr>
            <ns3:cad>0</ns3:cad>
          </ns3:TrackPointExtension>
        </extensions>
      </trkpt>
      <trkpt lat="38.040348552167415618896484375" lon="-106.93993552587926387786865234375">
        <ele>4051</ele>
        <time>2026-05-25T16:43:17.000Z</time>
        <extensions>
          <ns3:TrackPointExtension>
            <ns3:hr>102</ns3:hr>
            <ns3:cad>0</ns3:cad>
          </ns3:TrackPointExtension>
        </extensions>
      </trkpt>
      <trkpt lat="38.04039691574871540069580078125" lon="-106.93995648063719272613525390625">
        <ele>4050.800048828125</ele>
        <time>2026-05-25T16:43:23.000Z</time>
        <extensions>
          <ns3:TrackPointExtension>
            <ns3:hr>101</ns3:hr>
            <ns3:cad>48</ns3:cad>
          </ns3:TrackPointExtension>
        </extensions>
      </trkpt>
      <trkpt lat="38.04042289964854717254638671875" lon="-106.93996905349195003509521484375">
        <ele>4050.60009765625</ele>
        <time>2026-05-25T16:43:25.000Z</time>
        <extensions>
          <ns3:TrackPointExtension>
            <ns3:hr>101</ns3:hr>
            <ns3:cad>50</ns3:cad>
          </ns3:TrackPointExtension>
        </extensions>
      </trkpt>
      <trkpt lat="38.040470592677593231201171875" lon="-106.93998791277408599853515625">
        <ele>4051</ele>
        <time>2026-05-25T16:43:30.000Z</time>
        <extensions>
          <ns3:TrackPointExtension>
            <ns3:hr>104</ns3:hr>
            <ns3:cad>47</ns3:cad>
          </ns3:TrackPointExtension>
        </extensions>
      </trkpt>
      <trkpt lat="38.040470592677593231201171875" lon="-106.93998791277408599853515625">
        <ele>4051</ele>
        <time>2026-05-25T16:43:31.000Z</time>
        <extensions>
          <ns3:TrackPointExtension>
            <ns3:hr>103</ns3:hr>
            <ns3:cad>47</ns3:cad>
          </ns3:TrackPointExtension>
        </extensions>
      </trkpt>
      <trkpt lat="38.04054267704486846923828125" lon="-106.94001079536974430084228515625">
        <ele>4050.39990234375</ele>
        <time>2026-05-25T16:43:37.000Z</time>
        <extensions>
          <ns3:TrackPointExtension>
            <ns3:hr>105</ns3:hr>
            <ns3:cad>0</ns3:cad>
          </ns3:TrackPointExtension>
        </extensions>
      </trkpt>
      <trkpt lat="38.04055097512900829315185546875" lon="-106.940015070140361785888671875">
        <ele>4050.199951171875</ele>
        <time>2026-05-25T16:43:38.000Z</time>
        <extensions>
          <ns3:TrackPointExtension>
            <ns3:hr>105</ns3:hr>
            <ns3:cad>0</ns3:cad>
          </ns3:TrackPointExtension>
        </extensions>
      </trkpt>
      <trkpt lat="38.0405961535871028900146484375" lon="-106.94004281423985958099365234375">
        <ele>4050.199951171875</ele>
        <time>2026-05-25T16:43:44.000Z</time>
        <extensions>
          <ns3:TrackPointExtension>
            <ns3:hr>102</ns3:hr>
            <ns3:cad>49</ns3:cad>
          </ns3:TrackPointExtension>
        </extensions>
      </trkpt>
      <trkpt lat="38.04064728319644927978515625" lon="-106.9400718994438648223876953125">
        <ele>4050.199951171875</ele>
        <time>2026-05-25T16:43:48.000Z</time>
        <extensions>
          <ns3:TrackPointExtension>
            <ns3:hr>99</ns3:hr>
            <ns3:cad>0</ns3:cad>
          </ns3:TrackPointExtension>
        </extensions>
      </trkpt>
      <trkpt lat="38.04066195152699947357177734375" lon="-106.9400849752128124237060546875">
        <ele>4050.199951171875</ele>
        <time>2026-05-25T16:43:51.000Z</time>
        <extensions>
          <ns3:TrackPointExtension>
            <ns3:hr>98</ns3:hr>
            <ns3:cad>48</ns3:cad>
          </ns3:TrackPointExtension>
        </extensions>
      </trkpt>
      <trkpt lat="38.04069313220679759979248046875" lon="-106.94009511731564998626708984375">
        <ele>4050</ele>
        <time>2026-05-25T16:43:54.000Z</time>
        <extensions>
          <ns3:TrackPointExtension>
            <ns3:hr>96</ns3:hr>
            <ns3:cad>48</ns3:cad>
          </ns3:TrackPointExtension>
        </extensions>
      </trkpt>
      <trkpt lat="38.0407202057540416717529296875" lon="-106.9401218555867671966552734375">
        <ele>4049.199951171875</ele>
        <time>2026-05-25T16:43:57.000Z</time>
        <extensions>
          <ns3:TrackPointExtension>
            <ns3:hr>94</ns3:hr>
            <ns3:cad>0</ns3:cad>
          </ns3:TrackPointExtension>
        </extensions>
      </trkpt>
      <trkpt lat="38.0407346226274967193603515625" lon="-106.940141133964061737060546875">
        <ele>4048.800048828125</ele>
        <time>2026-05-25T16:43:59.000Z</time>
        <extensions>
          <ns3:TrackPointExtension>
            <ns3:hr>93</ns3:hr>
            <ns3:cad>71</ns3:cad>
          </ns3:TrackPointExtension>
        </extensions>
      </trkpt>
      <trkpt lat="38.04078130982816219329833984375" lon="-106.9401617534458637237548828125">
        <ele>4048</ele>
        <time>2026-05-25T16:44:04.000Z</time>
        <extensions>
          <ns3:TrackPointExtension>
            <ns3:hr>93</ns3:hr>
            <ns3:cad>71</ns3:cad>
          </ns3:TrackPointExtension>
        </extensions>
      </trkpt>
      <trkpt lat="38.04078700952231884002685546875" lon="-106.9401677884161472320556640625">
        <ele>4047.800048828125</ele>
        <time>2026-05-25T16:44:05.000Z</time>
        <extensions>
          <ns3:TrackPointExtension>
            <ns3:hr>93</ns3:hr>
            <ns3:cad>71</ns3:cad>
          </ns3:TrackPointExtension>
        </extensions>
      </trkpt>
      <trkpt lat="38.040842749178409576416015625" lon="-106.9402083568274974822998046875">
        <ele>4046.60009765625</ele>
        <time>2026-05-25T16:44:11.000Z</time>
        <extensions>
          <ns3:TrackPointExtension>
            <ns3:hr>90</ns3:hr>
            <ns3:cad>0</ns3:cad>
          </ns3:TrackPointExtension>
        </extensions>
      </trkpt>
      <trkpt lat="38.04084551520645618438720703125" lon="-106.9402174092829227447509765625">
        <ele>4046.39990234375</ele>
        <time>2026-05-25T16:44:12.000Z</time>
        <extensions>
          <ns3:TrackPointExtension>
            <ns3:hr>89</ns3:hr>
            <ns3:cad>0</ns3:cad>
          </ns3:TrackPointExtension>
        </extensions>
      </trkpt>
      <trkpt lat="38.04085574112832546234130859375" lon="-106.9402308203279972076416015625">
        <ele>4045.60009765625</ele>
        <time>2026-05-25T16:44:15.000Z</time>
        <extensions>
          <ns3:TrackPointExtension>
            <ns3:hr>88</ns3:hr>
            <ns3:cad>0</ns3:cad>
          </ns3:TrackPointExtension>
        </extensions>
      </trkpt>
      <trkpt lat="38.04088876582682132720947265625" lon="-106.94026342593133449554443359375">
        <ele>4044.800048828125</ele>
        <time>2026-05-25T16:44:20.000Z</time>
        <extensions>
          <ns3:TrackPointExtension>
            <ns3:hr>89</ns3:hr>
            <ns3:cad>0</ns3:cad>
          </ns3:TrackPointExtension>
        </extensions>
      </trkpt>
      <trkpt lat="38.04089698009192943572998046875" lon="-106.94028069265186786651611328125">
        <ele>4044.60009765625</ele>
        <time>2026-05-25T16:44:21.000Z</time>
        <extensions>
          <ns3:TrackPointExtension>
            <ns3:hr>90</ns3:hr>
            <ns3:cad>0</ns3:cad>
          </ns3:TrackPointExtension>
        </extensions>
      </trkpt>
      <trkpt lat="38.04091751575469970703125" lon="-106.9402975402772426605224609375">
        <ele>4043.39990234375</ele>
        <time>2026-05-25T16:44:24.000Z</time>
        <extensions>
          <ns3:TrackPointExtension>
            <ns3:hr>89</ns3:hr>
            <ns3:cad>56</ns3:cad>
          </ns3:TrackPointExtension>
        </extensions>
      </trkpt>
      <trkpt lat="38.04093402810394763946533203125" lon="-106.94030650891363620758056640625">
        <ele>4042.800048828125</ele>
        <time>2026-05-25T16:44:26.000Z</time>
        <extensions>
          <ns3:TrackPointExtension>
            <ns3:hr>88</ns3:hr>
            <ns3:cad>56</ns3:cad>
          </ns3:TrackPointExtension>
        </extensions>
      </trkpt>
      <trkpt lat="38.04094978608191013336181640625" lon="-106.9403045810759067535400390625">
        <ele>4042.39990234375</ele>
        <time>2026-05-25T16:44:29.000Z</time>
        <extensions>
          <ns3:TrackPointExtension>
            <ns3:hr>86</ns3:hr>
            <ns3:cad>56</ns3:cad>
          </ns3:TrackPointExtension>
        </extensions>
      </trkpt>
      <trkpt lat="38.0409562401473522186279296875" lon="-106.9403018988668918609619140625">
        <ele>4042.39990234375</ele>
        <time>2026-05-25T16:44:30.000Z</time>
        <extensions>
          <ns3:TrackPointExtension>
            <ns3:hr>85</ns3:hr>
            <ns3:cad>0</ns3:cad>
          </ns3:TrackPointExtension>
        </extensions>
      </trkpt>
      <trkpt lat="38.04097744636237621307373046875" lon="-106.9402921758592128753662109375">
        <ele>4041.39990234375</ele>
        <time>2026-05-25T16:44:33.000Z</time>
        <extensions>
          <ns3:TrackPointExtension>
            <ns3:hr>84</ns3:hr>
            <ns3:cad>0</ns3:cad>
          </ns3:TrackPointExtension>
        </extensions>
      </trkpt>
      <trkpt lat="38.04097744636237621307373046875" lon="-106.9402921758592128753662109375">
        <ele>4041</ele>
        <time>2026-05-25T16:44:34.000Z</time>
        <extensions>
          <ns3:TrackPointExtension>
            <ns3:hr>83</ns3:hr>
            <ns3:cad>0</ns3:cad>
          </ns3:TrackPointExtension>
        </extensions>
      </trkpt>
      <trkpt lat="38.041034527122974395751953125" lon="-106.94029125384986400604248046875">
        <ele>4040</ele>
        <time>2026-05-25T16:44:40.000Z</time>
        <extensions>
          <ns3:TrackPointExtension>
            <ns3:hr>82</ns3:hr>
            <ns3:cad>0</ns3:cad>
          </ns3:TrackPointExtension>
        </extensions>
      </trkpt>
      <trkpt lat="38.0410400591790676116943359375" lon="-106.940294019877910614013671875">
        <ele>4039.800048828125</ele>
        <time>2026-05-25T16:44:41.000Z</time>
        <extensions>
          <ns3:TrackPointExtension>
            <ns3:hr>82</ns3:hr>
            <ns3:cad>0</ns3:cad>
          </ns3:TrackPointExtension>
        </extensions>
      </trkpt>
      <trkpt lat="38.04105388931930065155029296875" lon="-106.94029896520078182220458984375">
        <ele>4038.800048828125</ele>
        <time>2026-05-25T16:44:45.000Z</time>
        <extensions>
          <ns3:TrackPointExtension>
            <ns3:hr>82</ns3:hr>
            <ns3:cad>0</ns3:cad>
          </ns3:TrackPointExtension>
        </extensions>
      </trkpt>
      <trkpt lat="38.0410605110228061676025390625" lon="-106.94029846228659152984619140625">
        <ele>4038.199951171875</ele>
        <time>2026-05-25T16:44:48.000Z</time>
        <extensions>
          <ns3:TrackPointExtension>
            <ns3:hr>82</ns3:hr>
            <ns3:cad>0</ns3:cad>
          </ns3:TrackPointExtension>
        </extensions>
      </trkpt>
      <trkpt lat="38.04106797091662883758544921875" lon="-106.9403122924268245697021484375">
        <ele>4037.800048828125</ele>
        <time>2026-05-25T16:44:51.000Z</time>
        <extensions>
          <ns3:TrackPointExtension>
            <ns3:hr>82</ns3:hr>
            <ns3:cad>75</ns3:cad>
          </ns3:TrackPointExtension>
        </extensions>
      </trkpt>
      <trkpt lat="38.0410806275904178619384765625" lon="-106.94032293744385242462158203125">
        <ele>4037</ele>
        <time>2026-05-25T16:44:54.000Z</time>
        <extensions>
          <ns3:TrackPointExtension>
            <ns3:hr>81</ns3:hr>
            <ns3:cad>75</ns3:cad>
          </ns3:TrackPointExtension>
        </extensions>
      </trkpt>
      <trkpt lat="38.0410923622548580169677734375" lon="-106.94032721221446990966796875">
        <ele>4036.60009765625</ele>
        <time>2026-05-25T16:44:55.000Z</time>
        <extensions>
          <ns3:TrackPointExtension>
            <ns3:hr>81</ns3:hr>
            <ns3:cad>0</ns3:cad>
          </ns3:TrackPointExtension>
        </extensions>
      </trkpt>
      <trkpt lat="38.04112471640110015869140625" lon="-106.94034154526889324188232421875">
        <ele>4035.60009765625</ele>
        <time>2026-05-25T16:45:01.000Z</time>
        <extensions>
          <ns3:TrackPointExtension>
            <ns3:hr>81</ns3:hr>
            <ns3:cad>0</ns3:cad>
          </ns3:TrackPointExtension>
        </extensions>
      </trkpt>
      <trkpt lat="38.04113351739943027496337890625" lon="-106.94036099128425121307373046875">
        <ele>4035.199951171875</ele>
        <time>2026-05-25T16:45:03.000Z</time>
        <extensions>
          <ns3:TrackPointExtension>
            <ns3:hr>81</ns3:hr>
            <ns3:cad>0</ns3:cad>
          </ns3:TrackPointExtension>
        </extensions>
      </trkpt>
      <trkpt lat="38.04114810191094875335693359375" lon="-106.94038663990795612335205078125">
        <ele>4034.60009765625</ele>
        <time>2026-05-25T16:45:07.000Z</time>
        <extensions>
          <ns3:TrackPointExtension>
            <ns3:hr>83</ns3:hr>
            <ns3:cad>0</ns3:cad>
          </ns3:TrackPointExtension>
        </extensions>
      </trkpt>
      <trkpt lat="38.0411533825099468231201171875" lon="-106.94039217196404933929443359375">
        <ele>4034.60009765625</ele>
        <time>2026-05-25T16:45:09.000Z</time>
        <extensions>
          <ns3:TrackPointExtension>
            <ns3:hr>83</ns3:hr>
            <ns3:cad>0</ns3:cad>
          </ns3:TrackPointExtension>
        </extensions>
      </trkpt>
      <trkpt lat="38.0411817133426666259765625" lon="-106.9404350034892559051513671875">
        <ele>4034.199951171875</ele>
        <time>2026-05-25T16:45:15.000Z</time>
        <extensions>
          <ns3:TrackPointExtension>
            <ns3:hr>83</ns3:hr>
            <ns3:cad>0</ns3:cad>
          </ns3:TrackPointExtension>
        </extensions>
      </trkpt>
      <trkpt lat="38.041183389723300933837890625" lon="-106.94043491967022418975830078125">
        <ele>4034.199951171875</ele>
        <time>2026-05-25T16:45:16.000Z</time>
        <extensions>
          <ns3:TrackPointExtension>
            <ns3:hr>84</ns3:hr>
            <ns3:cad>0</ns3:cad>
          </ns3:TrackPointExtension>
        </extensions>
      </trkpt>
      <trkpt lat="38.041183389723300933837890625" lon="-106.94043491967022418975830078125">
        <ele>4034</ele>
        <time>2026-05-25T16:45:21.000Z</time>
        <extensions>
          <ns3:TrackPointExtension>
            <ns3:hr>87</ns3:hr>
            <ns3:cad>0</ns3:cad>
          </ns3:TrackPointExtension>
        </extensions>
      </trkpt>
      <trkpt lat="38.04119168780744075775146484375" lon="-106.9404356740415096282958984375">
        <ele>4033.60009765625</ele>
        <time>2026-05-25T16:45:23.000Z</time>
        <extensions>
          <ns3:TrackPointExtension>
            <ns3:hr>86</ns3:hr>
            <ns3:cad>0</ns3:cad>
          </ns3:TrackPointExtension>
        </extensions>
      </trkpt>
      <trkpt lat="38.04122504778206348419189453125" lon="-106.9404450617730617523193359375">
        <ele>4033.199951171875</ele>
        <time>2026-05-25T16:45:26.000Z</time>
        <extensions>
          <ns3:TrackPointExtension>
            <ns3:hr>87</ns3:hr>
            <ns3:cad>0</ns3:cad>
          </ns3:TrackPointExtension>
        </extensions>
      </trkpt>
      <trkpt lat="38.04124784655869007110595703125" lon="-106.9404668547213077545166015625">
        <ele>4032.60009765625</ele>
        <time>2026-05-25T16:45:32.000Z</time>
        <extensions>
          <ns3:TrackPointExtension>
            <ns3:hr>89</ns3:hr>
            <ns3:cad>71</ns3:cad>
          </ns3:TrackPointExtension>
        </extensions>
      </trkpt>
      <trkpt lat="38.0412529595196247100830078125" lon="-106.9404725544154644012451171875">
        <ele>4032.39990234375</ele>
        <time>2026-05-25T16:45:33.000Z</time>
        <extensions>
          <ns3:TrackPointExtension>
            <ns3:hr>89</ns3:hr>
            <ns3:cad>71</ns3:cad>
          </ns3:TrackPointExtension>
        </extensions>
      </trkpt>
      <trkpt lat="38.04127492010593414306640625" lon="-106.94050331600010395050048828125">
        <ele>4031.199951171875</ele>
        <time>2026-05-25T16:45:38.000Z</time>
        <extensions>
          <ns3:TrackPointExtension>
            <ns3:hr>89</ns3:hr>
            <ns3:cad>0</ns3:cad>
          </ns3:TrackPointExtension>
        </extensions>
      </trkpt>
      <trkpt lat="38.04128254763782024383544921875" lon="-106.94051873870193958282470703125">
        <ele>4030.800048828125</ele>
        <time>2026-05-25T16:45:40.000Z</time>
        <extensions>
          <ns3:TrackPointExtension>
            <ns3:hr>89</ns3:hr>
            <ns3:cad>0</ns3:cad>
          </ns3:TrackPointExtension>
        </extensions>
      </trkpt>
      <trkpt lat="38.04129562340676784515380859375" lon="-106.940529383718967437744140625">
        <ele>4030.199951171875</ele>
        <time>2026-05-25T16:45:42.000Z</time>
        <extensions>
          <ns3:TrackPointExtension>
            <ns3:hr>90</ns3:hr>
            <ns3:cad>0</ns3:cad>
          </ns3:TrackPointExtension>
        </extensions>
      </trkpt>
      <trkpt lat="38.04131892509758472442626953125" lon="-106.94055662490427494049072265625">
        <ele>4029.39990234375</ele>
        <time>2026-05-25T16:45:45.000Z</time>
        <extensions>
          <ns3:TrackPointExtension>
            <ns3:hr>90</ns3:hr>
            <ns3:cad>0</ns3:cad>
          </ns3:TrackPointExtension>
        </extensions>
      </trkpt>
      <trkpt lat="38.041332922875881195068359375" lon="-106.9405808486044406890869140625">
        <ele>4029.199951171875</ele>
        <time>2026-05-25T16:45:47.000Z</time>
        <extensions>
          <ns3:TrackPointExtension>
            <ns3:hr>89</ns3:hr>
            <ns3:cad>0</ns3:cad>
          </ns3:TrackPointExtension>
        </extensions>
      </trkpt>
      <trkpt lat="38.041363768279552459716796875" lon="-106.9406043179333209991455078125">
        <ele>4028.39990234375</ele>
        <time>2026-05-25T16:45:50.000Z</time>
        <extensions>
          <ns3:TrackPointExtension>
            <ns3:hr>87</ns3:hr>
            <ns3:cad>0</ns3:cad>
          </ns3:TrackPointExtension>
        </extensions>
      </trkpt>
      <trkpt lat="38.041363768279552459716796875" lon="-106.9406043179333209991455078125">
        <ele>4028.199951171875</ele>
        <time>2026-05-25T16:45:51.000Z</time>
        <extensions>
          <ns3:TrackPointExtension>
            <ns3:hr>86</ns3:hr>
            <ns3:cad>0</ns3:cad>
          </ns3:TrackPointExtension>
        </extensions>
      </trkpt>
      <trkpt lat="38.0413855612277984619140625" lon="-106.9406135380268096923828125">
        <ele>4028</ele>
        <time>2026-05-25T16:45:52.000Z</time>
        <extensions>
          <ns3:TrackPointExtension>
            <ns3:hr>86</ns3:hr>
            <ns3:cad>0</ns3:cad>
          </ns3:TrackPointExtension>
        </extensions>
      </trkpt>
      <trkpt lat="38.04141196422278881072998046875" lon="-106.940659470856189727783203125">
        <ele>4027.199951171875</ele>
        <time>2026-05-25T16:45:58.000Z</time>
        <extensions>
          <ns3:TrackPointExtension>
            <ns3:hr>86</ns3:hr>
            <ns3:cad>52</ns3:cad>
          </ns3:TrackPointExtension>
        </extensions>
      </trkpt>
      <trkpt lat="38.04141447879374027252197265625" lon="-106.94066408090293407440185546875">
        <ele>4027</ele>
        <time>2026-05-25T16:46:00.000Z</time>
        <extensions>
          <ns3:TrackPointExtension>
            <ns3:hr>86</ns3:hr>
            <ns3:cad>0</ns3:cad>
          </ns3:TrackPointExtension>
        </extensions>
      </trkpt>
      <trkpt lat="38.04143342189490795135498046875" lon="-106.94070263765752315521240234375">
        <ele>4026.199951171875</ele>
        <time>2026-05-25T16:46:04.000Z</time>
        <extensions>
          <ns3:TrackPointExtension>
            <ns3:hr>84</ns3:hr>
            <ns3:cad>0</ns3:cad>
          </ns3:TrackPointExtension>
        </extensions>
      </trkpt>
      <trkpt lat="38.04143912158906459808349609375" lon="-106.94071051664650440216064453125">
        <ele>4025.800048828125</ele>
        <time>2026-05-25T16:46:05.000Z</time>
        <extensions>
          <ns3:TrackPointExtension>
            <ns3:hr>84</ns3:hr>
            <ns3:cad>0</ns3:cad>
          </ns3:TrackPointExtension>
        </extensions>
      </trkpt>
      <trkpt lat="38.0414467491209506988525390625" lon="-106.9407360814511775970458984375">
        <ele>4024.800048828125</ele>
        <time>2026-05-25T16:46:10.000Z</time>
        <extensions>
          <ns3:TrackPointExtension>
            <ns3:hr>84</ns3:hr>
            <ns3:cad>0</ns3:cad>
          </ns3:TrackPointExtension>
        </extensions>
      </trkpt>
      <trkpt lat="38.0414578132331371307373046875" lon="-106.9407541863620281219482421875">
        <ele>4024.60009765625</ele>
        <time>2026-05-25T16:46:12.000Z</time>
        <extensions>
          <ns3:TrackPointExtension>
            <ns3:hr>83</ns3:hr>
            <ns3:cad>0</ns3:cad>
          </ns3:TrackPointExtension>
        </extensions>
      </trkpt>
      <trkpt lat="38.04148538969457149505615234375" lon="-106.940815709531307220458984375">
        <ele>4024.199951171875</ele>
        <time>2026-05-25T16:46:17.000Z</time>
        <extensions>
          <ns3:TrackPointExtension>
            <ns3:hr>81</ns3:hr>
            <ns3:cad>0</ns3:cad>
          </ns3:TrackPointExtension>
        </extensions>
      </trkpt>
      <trkpt lat="38.04150349460542201995849609375" lon="-106.94084621965885162353515625">
        <ele>4023.800048828125</ele>
        <time>2026-05-25T16:46:20.000Z</time>
        <extensions>
          <ns3:TrackPointExtension>
            <ns3:hr>78</ns3:hr>
            <ns3:cad>0</ns3:cad>
          </ns3:TrackPointExtension>
        </extensions>
      </trkpt>
      <trkpt lat="38.04150349460542201995849609375" lon="-106.94084621965885162353515625">
        <ele>4023.800048828125</ele>
        <time>2026-05-25T16:46:21.000Z</time>
        <extensions>
          <ns3:TrackPointExtension>
            <ns3:hr>77</ns3:hr>
            <ns3:cad>0</ns3:cad>
          </ns3:TrackPointExtension>
        </extensions>
      </trkpt>
      <trkpt lat="38.0415322445333003997802734375" lon="-106.94090615026652812957763671875">
        <ele>4023</ele>
        <time>2026-05-25T16:46:26.000Z</time>
        <extensions>
          <ns3:TrackPointExtension>
            <ns3:hr>75</ns3:hr>
            <ns3:cad>72</ns3:cad>
          </ns3:TrackPointExtension>
        </extensions>
      </trkpt>
      <trkpt lat="38.04153509438037872314453125" lon="-106.9409300386905670166015625">
        <ele>4022.60009765625</ele>
        <time>2026-05-25T16:46:28.000Z</time>
        <extensions>
          <ns3:TrackPointExtension>
            <ns3:hr>75</ns3:hr>
            <ns3:cad>72</ns3:cad>
          </ns3:TrackPointExtension>
        </extensions>
      </trkpt>
      <trkpt lat="38.04154104553163051605224609375" lon="-106.94096532650291919708251953125">
        <ele>4022</ele>
        <time>2026-05-25T16:46:32.000Z</time>
        <extensions>
          <ns3:TrackPointExtension>
            <ns3:hr>78</ns3:hr>
            <ns3:cad>72</ns3:cad>
          </ns3:TrackPointExtension>
        </extensions>
      </trkpt>
      <trkpt lat="38.04154691286385059356689453125" lon="-106.94098007865250110626220703125">
        <ele>4022</ele>
        <time>2026-05-25T16:46:33.000Z</time>
        <extensions>
          <ns3:TrackPointExtension>
            <ns3:hr>79</ns3:hr>
            <ns3:cad>72</ns3:cad>
          </ns3:TrackPointExtension>
        </extensions>
      </trkpt>
      <trkpt lat="38.04155663587152957916259765625" lon="-106.94099231623113155364990234375">
        <ele>4021.60009765625</ele>
        <time>2026-05-25T16:46:36.000Z</time>
        <extensions>
          <ns3:TrackPointExtension>
            <ns3:hr>80</ns3:hr>
            <ns3:cad>40</ns3:cad>
          </ns3:TrackPointExtension>
        </extensions>
      </trkpt>
      <trkpt lat="38.041567616164684295654296875" lon="-106.941021569073200225830078125">
        <ele>4020.800048828125</ele>
        <time>2026-05-25T16:46:39.000Z</time>
        <extensions>
          <ns3:TrackPointExtension>
            <ns3:hr>80</ns3:hr>
            <ns3:cad>65</ns3:cad>
          </ns3:TrackPointExtension>
        </extensions>
      </trkpt>
      <trkpt lat="38.04157398641109466552734375" lon="-106.9410348124802112579345703125">
        <ele>4020.39990234375</ele>
        <time>2026-05-25T16:46:40.000Z</time>
        <extensions>
          <ns3:TrackPointExtension>
            <ns3:hr>80</ns3:hr>
            <ns3:cad>65</ns3:cad>
          </ns3:TrackPointExtension>
        </extensions>
      </trkpt>
      <trkpt lat="38.04160558618605136871337890625" lon="-106.94107043556869029998779296875">
        <ele>4019.60009765625</ele>
        <time>2026-05-25T16:46:43.000Z</time>
        <extensions>
          <ns3:TrackPointExtension>
            <ns3:hr>81</ns3:hr>
            <ns3:cad>61</ns3:cad>
          </ns3:TrackPointExtension>
        </extensions>
      </trkpt>
      <trkpt lat="38.04161363281309604644775390625" lon="-106.941070519387722015380859375">
        <ele>4019.39990234375</ele>
        <time>2026-05-25T16:46:44.000Z</time>
        <extensions>
          <ns3:TrackPointExtension>
            <ns3:hr>81</ns3:hr>
            <ns3:cad>0</ns3:cad>
          </ns3:TrackPointExtension>
        </extensions>
      </trkpt>
      <trkpt lat="38.0416288040578365325927734375" lon="-106.94107093848288059234619140625">
        <ele>4019.39990234375</ele>
        <time>2026-05-25T16:46:46.000Z</time>
        <extensions>
          <ns3:TrackPointExtension>
            <ns3:hr>82</ns3:hr>
            <ns3:cad>0</ns3:cad>
          </ns3:TrackPointExtension>
        </extensions>
      </trkpt>
      <trkpt lat="38.0416415445506572723388671875" lon="-106.9410941563546657562255859375">
        <ele>4018.800048828125</ele>
        <time>2026-05-25T16:46:49.000Z</time>
        <extensions>
          <ns3:TrackPointExtension>
            <ns3:hr>84</ns3:hr>
            <ns3:cad>0</ns3:cad>
          </ns3:TrackPointExtension>
        </extensions>
      </trkpt>
      <trkpt lat="38.04164900444447994232177734375" lon="-106.9411119259893894195556640625">
        <ele>4018.39990234375</ele>
        <time>2026-05-25T16:46:51.000Z</time>
        <extensions>
          <ns3:TrackPointExtension>
            <ns3:hr>85</ns3:hr>
            <ns3:cad>0</ns3:cad>
          </ns3:TrackPointExtension>
        </extensions>
      </trkpt>
      <trkpt lat="38.04166979156434535980224609375" lon="-106.941167749464511871337890625">
        <ele>4017.60009765625</ele>
        <time>2026-05-25T16:46:57.000Z</time>
        <extensions>
          <ns3:TrackPointExtension>
            <ns3:hr>83</ns3:hr>
            <ns3:cad>0</ns3:cad>
          </ns3:TrackPointExtension>
        </extensions>
      </trkpt>
      <trkpt lat="38.04167280904948711395263671875" lon="-106.94117839448153972625732421875">
        <ele>4017.39990234375</ele>
        <time>2026-05-25T16:46:58.000Z</time>
        <extensions>
          <ns3:TrackPointExtension>
            <ns3:hr>82</ns3:hr>
            <ns3:cad>0</ns3:cad>
          </ns3:TrackPointExtension>
        </extensions>
      </trkpt>
      <trkpt lat="38.04167750291526317596435546875" lon="-106.941183172166347503662109375">
        <ele>4017.199951171875</ele>
        <time>2026-05-25T16:46:59.000Z</time>
        <extensions>
          <ns3:TrackPointExtension>
            <ns3:hr>82</ns3:hr>
            <ns3:cad>0</ns3:cad>
          </ns3:TrackPointExtension>
        </extensions>
      </trkpt>
      <trkpt lat="38.04169627837836742401123046875" lon="-106.941193901002407073974609375">
        <ele>4016.39990234375</ele>
        <time>2026-05-25T16:47:02.000Z</time>
        <extensions>
          <ns3:TrackPointExtension>
            <ns3:hr>80</ns3:hr>
            <ns3:cad>0</ns3:cad>
          </ns3:TrackPointExtension>
        </extensions>
      </trkpt>
      <trkpt lat="38.0417101085186004638671875" lon="-106.94120085798203945159912109375">
        <ele>4016.199951171875</ele>
        <time>2026-05-25T16:47:03.000Z</time>
        <extensions>
          <ns3:TrackPointExtension>
            <ns3:hr>80</ns3:hr>
            <ns3:cad>0</ns3:cad>
          </ns3:TrackPointExtension>
        </extensions>
      </trkpt>
      <trkpt lat="38.0417129583656787872314453125" lon="-106.94120337255299091339111328125">
        <ele>4016</ele>
        <time>2026-05-25T16:47:04.000Z</time>
        <extensions>
          <ns3:TrackPointExtension>
            <ns3:hr>80</ns3:hr>
            <ns3:cad>54</ns3:cad>
          </ns3:TrackPointExtension>
        </extensions>
      </trkpt>
      <trkpt lat="38.04172360338270664215087890625" lon="-106.94122717715799808502197265625">
        <ele>4015.199951171875</ele>
        <time>2026-05-25T16:47:08.000Z</time>
        <extensions>
          <ns3:TrackPointExtension>
            <ns3:hr>77</ns3:hr>
            <ns3:cad>56</ns3:cad>
          </ns3:TrackPointExtension>
        </extensions>
      </trkpt>
      <trkpt lat="38.04172360338270664215087890625" lon="-106.94122717715799808502197265625">
        <ele>4015</ele>
        <time>2026-05-25T16:47:09.000Z</time>
        <extensions>
          <ns3:TrackPointExtension>
            <ns3:hr>78</ns3:hr>
            <ns3:cad>56</ns3:cad>
          </ns3:TrackPointExtension>
        </extensions>
      </trkpt>
      <trkpt lat="38.04172678850591182708740234375" lon="-106.94123916327953338623046875">
        <ele>4014.800048828125</ele>
        <time>2026-05-25T16:47:10.000Z</time>
        <extensions>
          <ns3:TrackPointExtension>
            <ns3:hr>77</ns3:hr>
            <ns3:cad>0</ns3:cad>
          </ns3:TrackPointExtension>
        </extensions>
      </trkpt>
      <trkpt lat="38.04173634387552738189697265625" lon="-106.94127445109188556671142578125">
        <ele>4013.800048828125</ele>
        <time>2026-05-25T16:47:14.000Z</time>
        <extensions>
          <ns3:TrackPointExtension>
            <ns3:hr>77</ns3:hr>
            <ns3:cad>41</ns3:cad>
          </ns3:TrackPointExtension>
        </extensions>
      </trkpt>
      <trkpt lat="38.04174070246517658233642578125" lon="-106.9413040392100811004638671875">
        <ele>4013.199951171875</ele>
        <time>2026-05-25T16:47:16.000Z</time>
        <extensions>
          <ns3:TrackPointExtension>
            <ns3:hr>78</ns3:hr>
            <ns3:cad>0</ns3:cad>
          </ns3:TrackPointExtension>
        </extensions>
      </trkpt>
      <trkpt lat="38.04176065139472484588623046875" lon="-106.9413231499493122100830078125">
        <ele>4012.800048828125</ele>
        <time>2026-05-25T16:47:20.000Z</time>
        <extensions>
          <ns3:TrackPointExtension>
            <ns3:hr>78</ns3:hr>
            <ns3:cad>0</ns3:cad>
          </ns3:TrackPointExtension>
        </extensions>
      </trkpt>
      <trkpt lat="38.04176065139472484588623046875" lon="-106.9413231499493122100830078125">
        <ele>4012.60009765625</ele>
        <time>2026-05-25T16:47:21.000Z</time>
        <extensions>
          <ns3:TrackPointExtension>
            <ns3:hr>78</ns3:hr>
            <ns3:cad>0</ns3:cad>
          </ns3:TrackPointExtension>
        </extensions>
      </trkpt>
      <trkpt lat="38.0417691171169281005859375" lon="-106.94135583937168121337890625">
        <ele>4011.800048828125</ele>
        <time>2026-05-25T16:47:27.000Z</time>
        <extensions>
          <ns3:TrackPointExtension>
            <ns3:hr>75</ns3:hr>
            <ns3:cad>0</ns3:cad>
          </ns3:TrackPointExtension>
        </extensions>
      </trkpt>
      <trkpt lat="38.04177339188754558563232421875" lon="-106.94136816076934337615966796875">
        <ele>4011.60009765625</ele>
        <time>2026-05-25T16:47:28.000Z</time>
        <extensions>
          <ns3:TrackPointExtension>
            <ns3:hr>75</ns3:hr>
            <ns3:cad>0</ns3:cad>
          </ns3:TrackPointExtension>
        </extensions>
      </trkpt>
      <trkpt lat="38.0417897365987300872802734375" lon="-106.941393725574016571044921875">
        <ele>4010.39990234375</ele>
        <time>2026-05-25T16:47:34.000Z</time>
        <extensions>
          <ns3:TrackPointExtension>
            <ns3:hr>76</ns3:hr>
            <ns3:cad>0</ns3:cad>
          </ns3:TrackPointExtension>
        </extensions>
      </trkpt>
      <trkpt lat="38.04178663529455661773681640625" lon="-106.941436640918254852294921875">
        <ele>4009.39990234375</ele>
        <time>2026-05-25T16:47:38.000Z</time>
        <extensions>
          <ns3:TrackPointExtension>
            <ns3:hr>76</ns3:hr>
            <ns3:cad>0</ns3:cad>
          </ns3:TrackPointExtension>
        </extensions>
      </trkpt>
      <trkpt lat="38.04178294725716114044189453125" lon="-106.94144477136433124542236328125">
        <ele>4009</ele>
        <time>2026-05-25T16:47:39.000Z</time>
        <extensions>
          <ns3:TrackPointExtension>
            <ns3:hr>76</ns3:hr>
            <ns3:cad>0</ns3:cad>
          </ns3:TrackPointExtension>
        </extensions>
      </trkpt>
      <trkpt lat="38.041771464049816131591796875" lon="-106.94148316048085689544677734375">
        <ele>4008.39990234375</ele>
        <time>2026-05-25T16:47:45.000Z</time>
        <extensions>
          <ns3:TrackPointExtension>
            <ns3:hr>74</ns3:hr>
            <ns3:cad>0</ns3:cad>
          </ns3:TrackPointExtension>
        </extensions>
      </trkpt>
      <trkpt lat="38.0417776666581630706787109375" lon="-106.94153244607150554656982421875">
        <ele>4008.39990234375</ele>
        <time>2026-05-25T16:47:51.000Z</time>
        <extensions>
          <ns3:TrackPointExtension>
            <ns3:hr>73</ns3:hr>
            <ns3:cad>56</ns3:cad>
          </ns3:TrackPointExtension>
        </extensions>
      </trkpt>
      <trkpt lat="38.041804991662502288818359375" lon="-106.9415715895593166351318359375">
        <ele>4007.199951171875</ele>
        <time>2026-05-25T16:47:56.000Z</time>
        <extensions>
          <ns3:TrackPointExtension>
            <ns3:hr>72</ns3:hr>
            <ns3:cad>0</ns3:cad>
          </ns3:TrackPointExtension>
        </extensions>
      </trkpt>
      <trkpt lat="38.041812367737293243408203125" lon="-106.94159480743110179901123046875">
        <ele>4006.199951171875</ele>
        <time>2026-05-25T16:47:59.000Z</time>
        <extensions>
          <ns3:TrackPointExtension>
            <ns3:hr>71</ns3:hr>
            <ns3:cad>0</ns3:cad>
          </ns3:TrackPointExtension>
        </extensions>
      </trkpt>
      <trkpt lat="38.0418323166668415069580078125" lon="-106.9416262395679950714111328125">
        <ele>4005.39990234375</ele>
        <time>2026-05-25T16:48:05.000Z</time>
        <extensions>
          <ns3:TrackPointExtension>
            <ns3:hr>68</ns3:hr>
            <ns3:cad>0</ns3:cad>
          </ns3:TrackPointExtension>
        </extensions>
      </trkpt>
      <trkpt lat="38.04184279404580593109130859375" lon="-106.9416336156427860260009765625">
        <ele>4005</ele>
        <time>2026-05-25T16:48:06.000Z</time>
        <extensions>
          <ns3:TrackPointExtension>
            <ns3:hr>68</ns3:hr>
            <ns3:cad>0</ns3:cad>
          </ns3:TrackPointExtension>
        </extensions>
      </trkpt>
      <trkpt lat="38.041853271424770355224609375" lon="-106.941638477146625518798828125">
        <ele>4004.800048828125</ele>
        <time>2026-05-25T16:48:08.000Z</time>
        <extensions>
          <ns3:TrackPointExtension>
            <ns3:hr>68</ns3:hr>
            <ns3:cad>0</ns3:cad>
          </ns3:TrackPointExtension>
        </extensions>
      </trkpt>
      <trkpt lat="38.04186693392693996429443359375" lon="-106.94164928980171680450439453125">
        <ele>4004</ele>
        <time>2026-05-25T16:48:11.000Z</time>
        <extensions>
          <ns3:TrackPointExtension>
            <ns3:hr>68</ns3:hr>
            <ns3:cad>0</ns3:cad>
          </ns3:TrackPointExtension>
        </extensions>
      </trkpt>
      <trkpt lat="38.04188051261007785797119140625" lon="-106.941667981445789337158203125">
        <ele>4003</ele>
        <time>2026-05-25T16:48:15.000Z</time>
        <extensions>
          <ns3:TrackPointExtension>
            <ns3:hr>67</ns3:hr>
            <ns3:cad>0</ns3:cad>
          </ns3:TrackPointExtension>
        </extensions>
      </trkpt>
      <trkpt lat="38.041912280023097991943359375" lon="-106.9416979886591434478759765625">
        <ele>4001.800048828125</ele>
        <time>2026-05-25T16:48:20.000Z</time>
        <extensions>
          <ns3:TrackPointExtension>
            <ns3:hr>70</ns3:hr>
            <ns3:cad>0</ns3:cad>
          </ns3:TrackPointExtension>
        </extensions>
      </trkpt>
      <trkpt lat="38.0419354140758514404296875" lon="-106.94172791205346584320068359375">
        <ele>4000.800048828125</ele>
        <time>2026-05-25T16:48:25.000Z</time>
        <extensions>
          <ns3:TrackPointExtension>
            <ns3:hr>71</ns3:hr>
            <ns3:cad>0</ns3:cad>
          </ns3:TrackPointExtension>
        </extensions>
      </trkpt>
      <trkpt lat="38.041942119598388671875" lon="-106.9417301751673221588134765625">
        <ele>4000.39990234375</ele>
        <time>2026-05-25T16:48:27.000Z</time>
        <extensions>
          <ns3:TrackPointExtension>
            <ns3:hr>71</ns3:hr>
            <ns3:cad>0</ns3:cad>
          </ns3:TrackPointExtension>
        </extensions>
      </trkpt>
      <trkpt lat="38.04195544682443141937255859375" lon="-106.941744424402713775634765625">
        <ele>3999.800048828125</ele>
        <time>2026-05-25T16:48:30.000Z</time>
        <extensions>
          <ns3:TrackPointExtension>
            <ns3:hr>72</ns3:hr>
            <ns3:cad>0</ns3:cad>
          </ns3:TrackPointExtension>
        </extensions>
      </trkpt>
      <trkpt lat="38.04197154007852077484130859375" lon="-106.94175188429653644561767578125">
        <ele>3999.199951171875</ele>
        <time>2026-05-25T16:48:33.000Z</time>
        <extensions>
          <ns3:TrackPointExtension>
            <ns3:hr>75</ns3:hr>
            <ns3:cad>0</ns3:cad>
          </ns3:TrackPointExtension>
        </extensions>
      </trkpt>
      <trkpt lat="38.04197154007852077484130859375" lon="-106.94175188429653644561767578125">
        <ele>3998.800048828125</ele>
        <time>2026-05-25T16:48:34.000Z</time>
        <extensions>
          <ns3:TrackPointExtension>
            <ns3:hr>78</ns3:hr>
            <ns3:cad>0</ns3:cad>
          </ns3:TrackPointExtension>
        </extensions>
      </trkpt>
      <trkpt lat="38.04197765886783599853515625" lon="-106.94175825454294681549072265625">
        <ele>3998.60009765625</ele>
        <time>2026-05-25T16:48:35.000Z</time>
        <extensions>
          <ns3:TrackPointExtension>
            <ns3:hr>78</ns3:hr>
            <ns3:cad>0</ns3:cad>
          </ns3:TrackPointExtension>
        </extensions>
      </trkpt>
      <trkpt lat="38.0420247651636600494384765625" lon="-106.94178306497633457183837890625">
        <ele>3997.60009765625</ele>
        <time>2026-05-25T16:48:39.000Z</time>
        <extensions>
          <ns3:TrackPointExtension>
            <ns3:hr>79</ns3:hr>
            <ns3:cad>0</ns3:cad>
          </ns3:TrackPointExtension>
        </extensions>
      </trkpt>
      <trkpt lat="38.04203775711357593536376953125" lon="-106.94177585653960704803466796875">
        <ele>3997.199951171875</ele>
        <time>2026-05-25T16:48:41.000Z</time>
        <extensions>
          <ns3:TrackPointExtension>
            <ns3:hr>79</ns3:hr>
            <ns3:cad>0</ns3:cad>
          </ns3:TrackPointExtension>
        </extensions>
      </trkpt>
      <trkpt lat="38.04205703549087047576904296875" lon="-106.94178826175630092620849609375">
        <ele>3996.39990234375</ele>
        <time>2026-05-25T16:48:44.000Z</time>
        <extensions>
          <ns3:TrackPointExtension>
            <ns3:hr>80</ns3:hr>
            <ns3:cad>0</ns3:cad>
          </ns3:TrackPointExtension>
        </extensions>
      </trkpt>
      <trkpt lat="38.0420971848070621490478515625" lon="-106.9417878426611423492431640625">
        <ele>3996</ele>
        <time>2026-05-25T16:48:48.000Z</time>
        <extensions>
          <ns3:TrackPointExtension>
            <ns3:hr>80</ns3:hr>
            <ns3:cad>0</ns3:cad>
          </ns3:TrackPointExtension>
        </extensions>
      </trkpt>
      <trkpt lat="38.04212593473494052886962890625" lon="-106.9418220408260822296142578125">
        <ele>3995.199951171875</ele>
        <time>2026-05-25T16:48:54.000Z</time>
        <extensions>
          <ns3:TrackPointExtension>
            <ns3:hr>81</ns3:hr>
            <ns3:cad>0</ns3:cad>
          </ns3:TrackPointExtension>
        </extensions>
      </trkpt>
      <trkpt lat="38.04214655421674251556396484375" lon="-106.94183863699436187744140625">
        <ele>3994.199951171875</ele>
        <time>2026-05-25T16:48:58.000Z</time>
        <extensions>
          <ns3:TrackPointExtension>
            <ns3:hr>81</ns3:hr>
            <ns3:cad>46</ns3:cad>
          </ns3:TrackPointExtension>
        </extensions>
      </trkpt>
      <trkpt lat="38.04215912707149982452392578125" lon="-106.9418528862297534942626953125">
        <ele>3993.60009765625</ele>
        <time>2026-05-25T16:49:00.000Z</time>
        <extensions>
          <ns3:TrackPointExtension>
            <ns3:hr>81</ns3:hr>
            <ns3:cad>46</ns3:cad>
          </ns3:TrackPointExtension>
        </extensions>
      </trkpt>
      <trkpt lat="38.04217907600104808807373046875" lon="-106.941872499883174896240234375">
        <ele>3993</ele>
        <time>2026-05-25T16:49:03.000Z</time>
        <extensions>
          <ns3:TrackPointExtension>
            <ns3:hr>81</ns3:hr>
            <ns3:cad>46</ns3:cad>
          </ns3:TrackPointExtension>
        </extensions>
      </trkpt>
      <trkpt lat="38.0422024615108966827392578125" lon="-106.94189521484076976776123046875">
        <ele>3991.800048828125</ele>
        <time>2026-05-25T16:49:07.000Z</time>
        <extensions>
          <ns3:TrackPointExtension>
            <ns3:hr>82</ns3:hr>
            <ns3:cad>19</ns3:cad>
          </ns3:TrackPointExtension>
        </extensions>
      </trkpt>
      <trkpt lat="38.042239844799041748046875" lon="-106.94192622788250446319580078125">
        <ele>3990.800048828125</ele>
        <time>2026-05-25T16:49:13.000Z</time>
        <extensions>
          <ns3:TrackPointExtension>
            <ns3:hr>83</ns3:hr>
            <ns3:cad>0</ns3:cad>
          </ns3:TrackPointExtension>
        </extensions>
      </trkpt>
      <trkpt lat="38.04224319756031036376953125" lon="-106.94193025119602680206298828125">
        <ele>3990.800048828125</ele>
        <time>2026-05-25T16:49:14.000Z</time>
        <extensions>
          <ns3:TrackPointExtension>
            <ns3:hr>84</ns3:hr>
            <ns3:cad>0</ns3:cad>
          </ns3:TrackPointExtension>
        </extensions>
      </trkpt>
      <trkpt lat="38.04227261804044246673583984375" lon="-106.94196327589452266693115234375">
        <ele>3989.60009765625</ele>
        <time>2026-05-25T16:49:20.000Z</time>
        <extensions>
          <ns3:TrackPointExtension>
            <ns3:hr>83</ns3:hr>
            <ns3:cad>0</ns3:cad>
          </ns3:TrackPointExtension>
        </extensions>
      </trkpt>
      <trkpt lat="38.042282424867153167724609375" lon="-106.9419950433075428009033203125">
        <ele>3988.39990234375</ele>
        <time>2026-05-25T16:49:25.000Z</time>
        <extensions>
          <ns3:TrackPointExtension>
            <ns3:hr>81</ns3:hr>
            <ns3:cad>0</ns3:cad>
          </ns3:TrackPointExtension>
        </extensions>
      </trkpt>
      <trkpt lat="38.0423006974160671234130859375" lon="-106.94201876409351825714111328125">
        <ele>3988</ele>
        <time>2026-05-25T16:49:27.000Z</time>
        <extensions>
          <ns3:TrackPointExtension>
            <ns3:hr>80</ns3:hr>
            <ns3:cad>0</ns3:cad>
          </ns3:TrackPointExtension>
        </extensions>
      </trkpt>
      <trkpt lat="38.04231301881372928619384765625" lon="-106.94203452207148075103759765625">
        <ele>3987.39990234375</ele>
        <time>2026-05-25T16:49:30.000Z</time>
        <extensions>
          <ns3:TrackPointExtension>
            <ns3:hr>78</ns3:hr>
            <ns3:cad>0</ns3:cad>
          </ns3:TrackPointExtension>
        </extensions>
      </trkpt>
      <trkpt lat="38.04231972433626651763916015625" lon="-106.9420399703085422515869140625">
        <ele>3986.800048828125</ele>
        <time>2026-05-25T16:49:32.000Z</time>
        <extensions>
          <ns3:TrackPointExtension>
            <ns3:hr>78</ns3:hr>
            <ns3:cad>0</ns3:cad>
          </ns3:TrackPointExtension>
        </extensions>
      </trkpt>
      <trkpt lat="38.0423296988010406494140625" lon="-106.9420574046671390533447265625">
        <ele>3986.199951171875</ele>
        <time>2026-05-25T16:49:35.000Z</time>
        <extensions>
          <ns3:TrackPointExtension>
            <ns3:hr>77</ns3:hr>
            <ns3:cad>66</ns3:cad>
          </ns3:TrackPointExtension>
        </extensions>
      </trkpt>
      <trkpt lat="38.04233330301940441131591796875" lon="-106.94206369109451770782470703125">
        <ele>3985.800048828125</ele>
        <time>2026-05-25T16:49:37.000Z</time>
        <extensions>
          <ns3:TrackPointExtension>
            <ns3:hr>77</ns3:hr>
            <ns3:cad>66</ns3:cad>
          </ns3:TrackPointExtension>
        </extensions>
      </trkpt>
      <trkpt lat="38.04234017618000507354736328125" lon="-106.94210392422974109649658203125">
        <ele>3985.199951171875</ele>
        <time>2026-05-25T16:49:41.000Z</time>
        <extensions>
          <ns3:TrackPointExtension>
            <ns3:hr>76</ns3:hr>
            <ns3:cad>0</ns3:cad>
          </ns3:TrackPointExtension>
        </extensions>
      </trkpt>
      <trkpt lat="38.04233514703810214996337890625" lon="-106.94212923757731914520263671875">
        <ele>3984.60009765625</ele>
        <time>2026-05-25T16:49:44.000Z</time>
        <extensions>
          <ns3:TrackPointExtension>
            <ns3:hr>76</ns3:hr>
            <ns3:cad>0</ns3:cad>
          </ns3:TrackPointExtension>
        </extensions>
      </trkpt>
      <trkpt lat="38.04233967326581478118896484375" lon="-106.942143738269805908203125">
        <ele>3983.800048828125</ele>
        <time>2026-05-25T16:49:46.000Z</time>
        <extensions>
          <ns3:TrackPointExtension>
            <ns3:hr>75</ns3:hr>
            <ns3:cad>0</ns3:cad>
          </ns3:TrackPointExtension>
        </extensions>
      </trkpt>
      <trkpt lat="38.042359538376331329345703125" lon="-106.9421610049903392791748046875">
        <ele>3983.199951171875</ele>
        <time>2026-05-25T16:49:50.000Z</time>
        <extensions>
          <ns3:TrackPointExtension>
            <ns3:hr>76</ns3:hr>
            <ns3:cad>0</ns3:cad>
          </ns3:TrackPointExtension>
        </extensions>
      </trkpt>
      <trkpt lat="38.04237118922173976898193359375" lon="-106.94218036718666553497314453125">
        <ele>3982.800048828125</ele>
        <time>2026-05-25T16:49:52.000Z</time>
        <extensions>
          <ns3:TrackPointExtension>
            <ns3:hr>75</ns3:hr>
            <ns3:cad>0</ns3:cad>
          </ns3:TrackPointExtension>
        </extensions>
      </trkpt>
      <trkpt lat="38.0423895455896854400634765625" lon="-106.94219847209751605987548828125">
        <ele>3981.800048828125</ele>
        <time>2026-05-25T16:49:56.000Z</time>
        <extensions>
          <ns3:TrackPointExtension>
            <ns3:hr>75</ns3:hr>
            <ns3:cad>0</ns3:cad>
          </ns3:TrackPointExtension>
        </extensions>
      </trkpt>
      <trkpt lat="38.04240882396697998046875" lon="-106.94222889840602874755859375">
        <ele>3980.60009765625</ele>
        <time>2026-05-25T16:50:00.000Z</time>
        <extensions>
          <ns3:TrackPointExtension>
            <ns3:hr>73</ns3:hr>
            <ns3:cad>0</ns3:cad>
          </ns3:TrackPointExtension>
        </extensions>
      </trkpt>
      <trkpt lat="38.04241494275629520416259765625" lon="-106.94223535247147083282470703125">
        <ele>3980.199951171875</ele>
        <time>2026-05-25T16:50:01.000Z</time>
        <extensions>
          <ns3:TrackPointExtension>
            <ns3:hr>73</ns3:hr>
            <ns3:cad>0</ns3:cad>
          </ns3:TrackPointExtension>
        </extensions>
      </trkpt>
      <trkpt lat="38.04243572987616062164306640625" lon="-106.94225815124809741973876953125">
        <ele>3979.60009765625</ele>
        <time>2026-05-25T16:50:03.000Z</time>
        <extensions>
          <ns3:TrackPointExtension>
            <ns3:hr>73</ns3:hr>
            <ns3:cad>0</ns3:cad>
          </ns3:TrackPointExtension>
        </extensions>
      </trkpt>
      <trkpt lat="38.04244168102741241455078125" lon="-106.94229989312589168548583984375">
        <ele>3978.800048828125</ele>
        <time>2026-05-25T16:50:07.000Z</time>
        <extensions>
          <ns3:TrackPointExtension>
            <ns3:hr>73</ns3:hr>
            <ns3:cad>0</ns3:cad>
          </ns3:TrackPointExtension>
        </extensions>
      </trkpt>
      <trkpt lat="38.04245249368250370025634765625" lon="-106.9423289783298969268798828125">
        <ele>3978.39990234375</ele>
        <time>2026-05-25T16:50:09.000Z</time>
        <extensions>
          <ns3:TrackPointExtension>
            <ns3:hr>73</ns3:hr>
            <ns3:cad>0</ns3:cad>
          </ns3:TrackPointExtension>
        </extensions>
      </trkpt>
      <trkpt lat="38.04246607236564159393310546875" lon="-106.9423521123826503753662109375">
        <ele>3977.39990234375</ele>
        <time>2026-05-25T16:50:13.000Z</time>
        <extensions>
          <ns3:TrackPointExtension>
            <ns3:hr>75</ns3:hr>
            <ns3:cad>0</ns3:cad>
          </ns3:TrackPointExtension>
        </extensions>
      </trkpt>
      <trkpt lat="38.04247093386948108673095703125" lon="-106.94235739298164844512939453125">
        <ele>3977.199951171875</ele>
        <time>2026-05-25T16:50:14.000Z</time>
        <extensions>
          <ns3:TrackPointExtension>
            <ns3:hr>75</ns3:hr>
            <ns3:cad>0</ns3:cad>
          </ns3:TrackPointExtension>
        </extensions>
      </trkpt>
      <trkpt lat="38.04247780703008174896240234375" lon="-106.94240751676261425018310546875">
        <ele>3976.199951171875</ele>
        <time>2026-05-25T16:50:19.000Z</time>
        <extensions>
          <ns3:TrackPointExtension>
            <ns3:hr>76</ns3:hr>
            <ns3:cad>0</ns3:cad>
          </ns3:TrackPointExtension>
        </extensions>
      </trkpt>
      <trkpt lat="38.0424941517412662506103515625" lon="-106.94242713041603565216064453125">
        <ele>3975</ele>
        <time>2026-05-25T16:50:23.000Z</time>
        <extensions>
          <ns3:TrackPointExtension>
            <ns3:hr>75</ns3:hr>
            <ns3:cad>0</ns3:cad>
          </ns3:TrackPointExtension>
        </extensions>
      </trkpt>
      <trkpt lat="38.04249490611255168914794921875" lon="-106.942446492612361907958984375">
        <ele>3974.800048828125</ele>
        <time>2026-05-25T16:50:25.000Z</time>
        <extensions>
          <ns3:TrackPointExtension>
            <ns3:hr>74</ns3:hr>
            <ns3:cad>0</ns3:cad>
          </ns3:TrackPointExtension>
        </extensions>
      </trkpt>
      <trkpt lat="38.042507059872150421142578125" lon="-106.94246769882738590240478515625">
        <ele>3974</ele>
        <time>2026-05-25T16:50:29.000Z</time>
        <extensions>
          <ns3:TrackPointExtension>
            <ns3:hr>73</ns3:hr>
            <ns3:cad>43</ns3:cad>
          </ns3:TrackPointExtension>
        </extensions>
      </trkpt>
      <trkpt lat="38.04251485504209995269775390625" lon="-106.94247893057763576507568359375">
        <ele>3973</ele>
        <time>2026-05-25T16:50:32.000Z</time>
        <extensions>
          <ns3:TrackPointExtension>
            <ns3:hr>75</ns3:hr>
            <ns3:cad>43</ns3:cad>
          </ns3:TrackPointExtension>
        </extensions>
      </trkpt>
      <trkpt lat="38.04254251532256603240966796875" lon="-106.94251589477062225341796875">
        <ele>3971.800048828125</ele>
        <time>2026-05-25T16:50:35.000Z</time>
        <extensions>
          <ns3:TrackPointExtension>
            <ns3:hr>76</ns3:hr>
            <ns3:cad>0</ns3:cad>
          </ns3:TrackPointExtension>
        </extensions>
      </trkpt>
      <trkpt lat="38.0425431020557880401611328125" lon="-106.9425251148641109466552734375">
        <ele>3971.60009765625</ele>
        <time>2026-05-25T16:50:36.000Z</time>
        <extensions>
          <ns3:TrackPointExtension>
            <ns3:hr>77</ns3:hr>
            <ns3:cad>0</ns3:cad>
          </ns3:TrackPointExtension>
        </extensions>
      </trkpt>
      <trkpt lat="38.04255726747214794158935546875" lon="-106.942551434040069580078125">
        <ele>3970.800048828125</ele>
        <time>2026-05-25T16:50:39.000Z</time>
        <extensions>
          <ns3:TrackPointExtension>
            <ns3:hr>76</ns3:hr>
            <ns3:cad>68</ns3:cad>
          </ns3:TrackPointExtension>
        </extensions>
      </trkpt>
      <trkpt lat="38.04256900213658809661865234375" lon="-106.942585296928882598876953125">
        <ele>3969.60009765625</ele>
        <time>2026-05-25T16:50:43.000Z</time>
        <extensions>
          <ns3:TrackPointExtension>
            <ns3:hr>77</ns3:hr>
            <ns3:cad>0</ns3:cad>
          </ns3:TrackPointExtension>
        </extensions>
      </trkpt>
      <trkpt lat="38.042572103440761566162109375" lon="-106.94259644486010074615478515625">
        <ele>3969.39990234375</ele>
        <time>2026-05-25T16:50:44.000Z</time>
        <extensions>
          <ns3:TrackPointExtension>
            <ns3:hr>77</ns3:hr>
            <ns3:cad>0</ns3:cad>
          </ns3:TrackPointExtension>
        </extensions>
      </trkpt>
      <trkpt lat="38.04258677177131175994873046875" lon="-106.94264958612620830535888671875">
        <ele>3969</ele>
        <time>2026-05-25T16:50:49.000Z</time>
        <extensions>
          <ns3:TrackPointExtension>
            <ns3:hr>76</ns3:hr>
            <ns3:cad>0</ns3:cad>
          </ns3:TrackPointExtension>
        </extensions>
      </trkpt>
      <trkpt lat="38.04260303266346454620361328125" lon="-106.94268613122403621673583984375">
        <ele>3968.60009765625</ele>
        <time>2026-05-25T16:50:53.000Z</time>
        <extensions>
          <ns3:TrackPointExtension>
            <ns3:hr>78</ns3:hr>
            <ns3:cad>0</ns3:cad>
          </ns3:TrackPointExtension>
        </extensions>
      </trkpt>
      <trkpt lat="38.04260822944343090057373046875" lon="-106.94270172156393527984619140625">
        <ele>3968</ele>
        <time>2026-05-25T16:50:55.000Z</time>
        <extensions>
          <ns3:TrackPointExtension>
            <ns3:hr>78</ns3:hr>
            <ns3:cad>0</ns3:cad>
          </ns3:TrackPointExtension>
        </extensions>
      </trkpt>
      <trkpt lat="38.0426218919456005096435546875" lon="-106.94271446205675601959228515625">
        <ele>3967.39990234375</ele>
        <time>2026-05-25T16:50:57.000Z</time>
        <extensions>
          <ns3:TrackPointExtension>
            <ns3:hr>79</ns3:hr>
            <ns3:cad>0</ns3:cad>
          </ns3:TrackPointExtension>
        </extensions>
      </trkpt>
      <trkpt lat="38.04265449754893779754638671875" lon="-106.94273994304239749908447265625">
        <ele>3966.39990234375</ele>
        <time>2026-05-25T16:51:02.000Z</time>
        <extensions>
          <ns3:TrackPointExtension>
            <ns3:hr>78</ns3:hr>
            <ns3:cad>0</ns3:cad>
          </ns3:TrackPointExtension>
        </extensions>
      </trkpt>
      <trkpt lat="38.042681403458118438720703125" lon="-106.94274866022169589996337890625">
        <ele>3965.39990234375</ele>
        <time>2026-05-25T16:51:07.000Z</time>
        <extensions>
          <ns3:TrackPointExtension>
            <ns3:hr>81</ns3:hr>
            <ns3:cad>0</ns3:cad>
          </ns3:TrackPointExtension>
        </extensions>
      </trkpt>
      <trkpt lat="38.042700849473476409912109375" lon="-106.942749917507171630859375">
        <ele>3965.199951171875</ele>
        <time>2026-05-25T16:51:09.000Z</time>
        <extensions>
          <ns3:TrackPointExtension>
            <ns3:hr>81</ns3:hr>
            <ns3:cad>79</ns3:cad>
          </ns3:TrackPointExtension>
        </extensions>
      </trkpt>
      <trkpt lat="38.04270814172923564910888671875" lon="-106.942758299410343170166015625">
        <ele>3965.199951171875</ele>
        <time>2026-05-25T16:51:10.000Z</time>
        <extensions>
          <ns3:TrackPointExtension>
            <ns3:hr>82</ns3:hr>
            <ns3:cad>79</ns3:cad>
          </ns3:TrackPointExtension>
        </extensions>
      </trkpt>
      <trkpt lat="38.0427293479442596435546875" lon="-106.9427826069295406341552734375">
        <ele>3964</ele>
        <time>2026-05-25T16:51:14.000Z</time>
        <extensions>
          <ns3:TrackPointExtension>
            <ns3:hr>83</ns3:hr>
            <ns3:cad>79</ns3:cad>
          </ns3:TrackPointExtension>
        </extensions>
      </trkpt>
      <trkpt lat="38.042743764817714691162109375" lon="-106.942801214754581451416015625">
        <ele>3963.60009765625</ele>
        <time>2026-05-25T16:51:16.000Z</time>
        <extensions>
          <ns3:TrackPointExtension>
            <ns3:hr>83</ns3:hr>
            <ns3:cad>59</ns3:cad>
          </ns3:TrackPointExtension>
        </extensions>
      </trkpt>
      <trkpt lat="38.04276287555694580078125" lon="-106.942840106785297393798828125">
        <ele>3963</ele>
        <time>2026-05-25T16:51:20.000Z</time>
        <extensions>
          <ns3:TrackPointExtension>
            <ns3:hr>81</ns3:hr>
            <ns3:cad>0</ns3:cad>
          </ns3:TrackPointExtension>
        </extensions>
      </trkpt>
      <trkpt lat="38.04278341121971607208251953125" lon="-106.94286483339965343475341796875">
        <ele>3962.199951171875</ele>
        <time>2026-05-25T16:51:24.000Z</time>
        <extensions>
          <ns3:TrackPointExtension>
            <ns3:hr>81</ns3:hr>
            <ns3:cad>60</ns3:cad>
          </ns3:TrackPointExtension>
        </extensions>
      </trkpt>
      <trkpt lat="38.04279263131320476531982421875" lon="-106.94287187419831752777099609375">
        <ele>3962</ele>
        <time>2026-05-25T16:51:25.000Z</time>
        <extensions>
          <ns3:TrackPointExtension>
            <ns3:hr>81</ns3:hr>
            <ns3:cad>0</ns3:cad>
          </ns3:TrackPointExtension>
        </extensions>
      </trkpt>
      <trkpt lat="38.04285147227346897125244140625" lon="-106.942892409861087799072265625">
        <ele>3961</ele>
        <time>2026-05-25T16:51:30.000Z</time>
        <extensions>
          <ns3:TrackPointExtension>
            <ns3:hr>82</ns3:hr>
            <ns3:cad>0</ns3:cad>
          </ns3:TrackPointExtension>
        </extensions>
      </trkpt>
      <trkpt lat="38.04286538623273372650146484375" lon="-106.9429059885442256927490234375">
        <ele>3960.60009765625</ele>
        <time>2026-05-25T16:51:32.000Z</time>
        <extensions>
          <ns3:TrackPointExtension>
            <ns3:hr>79</ns3:hr>
            <ns3:cad>0</ns3:cad>
          </ns3:TrackPointExtension>
        </extensions>
      </trkpt>
      <trkpt lat="38.04287351667881011962890625" lon="-106.94292451255023479461669921875">
        <ele>3960</ele>
        <time>2026-05-25T16:51:34.000Z</time>
        <extensions>
          <ns3:TrackPointExtension>
            <ns3:hr>77</ns3:hr>
            <ns3:cad>0</ns3:cad>
          </ns3:TrackPointExtension>
        </extensions>
      </trkpt>
      <trkpt lat="38.04288399405777454376220703125" lon="-106.942936666309833526611328125">
        <ele>3959.39990234375</ele>
        <time>2026-05-25T16:51:36.000Z</time>
        <extensions>
          <ns3:TrackPointExtension>
            <ns3:hr>76</ns3:hr>
            <ns3:cad>0</ns3:cad>
          </ns3:TrackPointExtension>
        </extensions>
      </trkpt>
      <trkpt lat="38.0428983271121978759765625" lon="-106.9429535977542400360107421875">
        <ele>3958.800048828125</ele>
        <time>2026-05-25T16:51:39.000Z</time>
        <extensions>
          <ns3:TrackPointExtension>
            <ns3:hr>76</ns3:hr>
            <ns3:cad>0</ns3:cad>
          </ns3:TrackPointExtension>
        </extensions>
      </trkpt>
      <trkpt lat="38.04291509091854095458984375" lon="-106.94298435933887958526611328125">
        <ele>3957.60009765625</ele>
        <time>2026-05-25T16:51:43.000Z</time>
        <extensions>
          <ns3:TrackPointExtension>
            <ns3:hr>75</ns3:hr>
            <ns3:cad>0</ns3:cad>
          </ns3:TrackPointExtension>
        </extensions>
      </trkpt>
      <trkpt lat="38.0429507978260517120361328125" lon="-106.94302895106375217437744140625">
        <ele>3956.39990234375</ele>
        <time>2026-05-25T16:51:49.000Z</time>
        <extensions>
          <ns3:TrackPointExtension>
            <ns3:hr>77</ns3:hr>
            <ns3:cad>0</ns3:cad>
          </ns3:TrackPointExtension>
        </extensions>
      </trkpt>
      <trkpt lat="38.04295758716762065887451171875" lon="-106.94303649477660655975341796875">
        <ele>3956.199951171875</ele>
        <time>2026-05-25T16:51:50.000Z</time>
        <extensions>
          <ns3:TrackPointExtension>
            <ns3:hr>77</ns3:hr>
            <ns3:cad>0</ns3:cad>
          </ns3:TrackPointExtension>
        </extensions>
      </trkpt>
      <trkpt lat="38.04297275841236114501953125" lon="-106.94304965436458587646484375">
        <ele>3955.39990234375</ele>
        <time>2026-05-25T16:51:54.000Z</time>
        <extensions>
          <ns3:TrackPointExtension>
            <ns3:hr>79</ns3:hr>
            <ns3:cad>0</ns3:cad>
          </ns3:TrackPointExtension>
        </extensions>
      </trkpt>
      <trkpt lat="38.04299832321703433990478515625" lon="-106.94307086057960987091064453125">
        <ele>3955</ele>
        <time>2026-05-25T16:51:56.000Z</time>
        <extensions>
          <ns3:TrackPointExtension>
            <ns3:hr>80</ns3:hr>
            <ns3:cad>0</ns3:cad>
          </ns3:TrackPointExtension>
        </extensions>
      </trkpt>
      <trkpt lat="38.04300720803439617156982421875" lon="-106.9430753029882907867431640625">
        <ele>3954.39990234375</ele>
        <time>2026-05-25T16:51:58.000Z</time>
        <extensions>
          <ns3:TrackPointExtension>
            <ns3:hr>80</ns3:hr>
            <ns3:cad>0</ns3:cad>
          </ns3:TrackPointExtension>
        </extensions>
      </trkpt>
      <trkpt lat="38.04301223717629909515380859375" lon="-106.94307790137827396392822265625">
        <ele>3954</ele>
        <time>2026-05-25T16:51:59.000Z</time>
        <extensions>
          <ns3:TrackPointExtension>
            <ns3:hr>80</ns3:hr>
            <ns3:cad>0</ns3:cad>
          </ns3:TrackPointExtension>
        </extensions>
      </trkpt>
      <trkpt lat="38.04305146448314189910888671875" lon="-106.94311444647610187530517578125">
        <ele>3953</ele>
        <time>2026-05-25T16:52:03.000Z</time>
        <extensions>
          <ns3:TrackPointExtension>
            <ns3:hr>80</ns3:hr>
            <ns3:cad>0</ns3:cad>
          </ns3:TrackPointExtension>
        </extensions>
      </trkpt>
      <trkpt lat="38.04305381141602993011474609375" lon="-106.94312634877860546112060546875">
        <ele>3952.800048828125</ele>
        <time>2026-05-25T16:52:04.000Z</time>
        <extensions>
          <ns3:TrackPointExtension>
            <ns3:hr>81</ns3:hr>
            <ns3:cad>0</ns3:cad>
          </ns3:TrackPointExtension>
        </extensions>
      </trkpt>
      <trkpt lat="38.04308465681970119476318359375" lon="-106.94314445368945598602294921875">
        <ele>3952.199951171875</ele>
        <time>2026-05-25T16:52:07.000Z</time>
        <extensions>
          <ns3:TrackPointExtension>
            <ns3:hr>81</ns3:hr>
            <ns3:cad>52</ns3:cad>
          </ns3:TrackPointExtension>
        </extensions>
      </trkpt>
      <trkpt lat="38.04310209117829799652099609375" lon="-106.94315887056291103363037109375">
        <ele>3951.800048828125</ele>
        <time>2026-05-25T16:52:09.000Z</time>
        <extensions>
          <ns3:TrackPointExtension>
            <ns3:hr>80</ns3:hr>
            <ns3:cad>0</ns3:cad>
          </ns3:TrackPointExtension>
        </extensions>
      </trkpt>
      <trkpt lat="38.04311617277562618255615234375" lon="-106.9431691803038120269775390625">
        <ele>3951.199951171875</ele>
        <time>2026-05-25T16:52:12.000Z</time>
        <extensions>
          <ns3:TrackPointExtension>
            <ns3:hr>80</ns3:hr>
            <ns3:cad>0</ns3:cad>
          </ns3:TrackPointExtension>
        </extensions>
      </trkpt>
      <trkpt lat="38.04313293658196926116943359375" lon="-106.94318770430982112884521484375">
        <ele>3950.800048828125</ele>
        <time>2026-05-25T16:52:15.000Z</time>
        <extensions>
          <ns3:TrackPointExtension>
            <ns3:hr>79</ns3:hr>
            <ns3:cad>0</ns3:cad>
          </ns3:TrackPointExtension>
        </extensions>
      </trkpt>
      <trkpt lat="38.0431419052183628082275390625" lon="-106.94320119917392730712890625">
        <ele>3949.800048828125</ele>
        <time>2026-05-25T16:52:18.000Z</time>
        <extensions>
          <ns3:TrackPointExtension>
            <ns3:hr>79</ns3:hr>
            <ns3:cad>0</ns3:cad>
          </ns3:TrackPointExtension>
        </extensions>
      </trkpt>
      <trkpt lat="38.0431472696363925933837890625" lon="-106.94321167655289173126220703125">
        <ele>3949.60009765625</ele>
        <time>2026-05-25T16:52:19.000Z</time>
        <extensions>
          <ns3:TrackPointExtension>
            <ns3:hr>79</ns3:hr>
            <ns3:cad>0</ns3:cad>
          </ns3:TrackPointExtension>
        </extensions>
      </trkpt>
      <trkpt lat="38.0431734211742877960205078125" lon="-106.943245120346546173095703125">
        <ele>3948.39990234375</ele>
        <time>2026-05-25T16:52:24.000Z</time>
        <extensions>
          <ns3:TrackPointExtension>
            <ns3:hr>79</ns3:hr>
            <ns3:cad>51</ns3:cad>
          </ns3:TrackPointExtension>
        </extensions>
      </trkpt>
      <trkpt lat="38.04317652247846126556396484375" lon="-106.9432635605335235595703125">
        <ele>3947.800048828125</ele>
        <time>2026-05-25T16:52:26.000Z</time>
        <extensions>
          <ns3:TrackPointExtension>
            <ns3:hr>79</ns3:hr>
            <ns3:cad>0</ns3:cad>
          </ns3:TrackPointExtension>
        </extensions>
      </trkpt>
      <trkpt lat="38.04318037815392017364501953125" lon="-106.9432711042463779449462890625">
        <ele>3947.39990234375</ele>
        <time>2026-05-25T16:52:28.000Z</time>
        <extensions>
          <ns3:TrackPointExtension>
            <ns3:hr>79</ns3:hr>
            <ns3:cad>0</ns3:cad>
          </ns3:TrackPointExtension>
        </extensions>
      </trkpt>
      <trkpt lat="38.043188340961933135986328125" lon="-106.94331008009612560272216796875">
        <ele>3946.800048828125</ele>
        <time>2026-05-25T16:52:32.000Z</time>
        <extensions>
          <ns3:TrackPointExtension>
            <ns3:hr>79</ns3:hr>
            <ns3:cad>0</ns3:cad>
          </ns3:TrackPointExtension>
        </extensions>
      </trkpt>
      <trkpt lat="38.04320217110216617584228515625" lon="-106.94333220832049846649169921875">
        <ele>3946.60009765625</ele>
        <time>2026-05-25T16:52:34.000Z</time>
        <extensions>
          <ns3:TrackPointExtension>
            <ns3:hr>80</ns3:hr>
            <ns3:cad>0</ns3:cad>
          </ns3:TrackPointExtension>
        </extensions>
      </trkpt>
      <trkpt lat="38.04321625269949436187744140625" lon="-106.94333120249211788177490234375">
        <ele>3946.199951171875</ele>
        <time>2026-05-25T16:52:36.000Z</time>
        <extensions>
          <ns3:TrackPointExtension>
            <ns3:hr>80</ns3:hr>
            <ns3:cad>0</ns3:cad>
          </ns3:TrackPointExtension>
        </extensions>
      </trkpt>
      <trkpt lat="38.04322446696460247039794921875" lon="-106.94333237595856189727783203125">
        <ele>3946.199951171875</ele>
        <time>2026-05-25T16:52:37.000Z</time>
        <extensions>
          <ns3:TrackPointExtension>
            <ns3:hr>81</ns3:hr>
            <ns3:cad>0</ns3:cad>
          </ns3:TrackPointExtension>
        </extensions>
      </trkpt>
      <trkpt lat="38.0432344414293766021728515625" lon="-106.94334293715655803680419921875">
        <ele>3945.800048828125</ele>
        <time>2026-05-25T16:52:39.000Z</time>
        <extensions>
          <ns3:TrackPointExtension>
            <ns3:hr>80</ns3:hr>
            <ns3:cad>0</ns3:cad>
          </ns3:TrackPointExtension>
        </extensions>
      </trkpt>
      <trkpt lat="38.04323963820934295654296875" lon="-106.943369172513484954833984375">
        <ele>3945.199951171875</ele>
        <time>2026-05-25T16:52:43.000Z</time>
        <extensions>
          <ns3:TrackPointExtension>
            <ns3:hr>79</ns3:hr>
            <ns3:cad>0</ns3:cad>
          </ns3:TrackPointExtension>
        </extensions>
      </trkpt>
      <trkpt lat="38.0432408116757869720458984375" lon="-106.94337462075054645538330078125">
        <ele>3945</ele>
        <time>2026-05-25T16:52:44.000Z</time>
        <extensions>
          <ns3:TrackPointExtension>
            <ns3:hr>79</ns3:hr>
            <ns3:cad>0</ns3:cad>
          </ns3:TrackPointExtension>
        </extensions>
      </trkpt>
      <trkpt lat="38.0432736687362194061279296875" lon="-106.9434068910777568817138671875">
        <ele>3944</ele>
        <time>2026-05-25T16:52:48.000Z</time>
        <extensions>
          <ns3:TrackPointExtension>
            <ns3:hr>77</ns3:hr>
            <ns3:cad>0</ns3:cad>
          </ns3:TrackPointExtension>
        </extensions>
      </trkpt>
      <trkpt lat="38.0432736687362194061279296875" lon="-106.9434068910777568817138671875">
        <ele>3943.60009765625</ele>
        <time>2026-05-25T16:52:49.000Z</time>
        <extensions>
          <ns3:TrackPointExtension>
            <ns3:hr>77</ns3:hr>
            <ns3:cad>0</ns3:cad>
          </ns3:TrackPointExtension>
        </extensions>
      </trkpt>
      <trkpt lat="38.04330443032085895538330078125" lon="-106.94342876784503459930419921875">
        <ele>3942.800048828125</ele>
        <time>2026-05-25T16:52:51.000Z</time>
        <extensions>
          <ns3:TrackPointExtension>
            <ns3:hr>77</ns3:hr>
            <ns3:cad>0</ns3:cad>
          </ns3:TrackPointExtension>
        </extensions>
      </trkpt>
      <trkpt lat="38.0433095432817935943603515625" lon="-106.94345341064035892486572265625">
        <ele>3942.39990234375</ele>
        <time>2026-05-25T16:52:53.000Z</time>
        <extensions>
          <ns3:TrackPointExtension>
            <ns3:hr>77</ns3:hr>
            <ns3:cad>0</ns3:cad>
          </ns3:TrackPointExtension>
        </extensions>
      </trkpt>
      <trkpt lat="38.04331230930984020233154296875" lon="-106.9434853456914424896240234375">
        <ele>3942.199951171875</ele>
        <time>2026-05-25T16:52:56.000Z</time>
        <extensions>
          <ns3:TrackPointExtension>
            <ns3:hr>76</ns3:hr>
            <ns3:cad>0</ns3:cad>
          </ns3:TrackPointExtension>
        </extensions>
      </trkpt>
      <trkpt lat="38.04331348277628421783447265625" lon="-106.943491213023662567138671875">
        <ele>3941.800048828125</ele>
        <time>2026-05-25T16:52:58.000Z</time>
        <extensions>
          <ns3:TrackPointExtension>
            <ns3:hr>77</ns3:hr>
            <ns3:cad>76</ns3:cad>
          </ns3:TrackPointExtension>
        </extensions>
      </trkpt>
      <trkpt lat="38.04332940839231014251708984375" lon="-106.94350286386907100677490234375">
        <ele>3941.60009765625</ele>
        <time>2026-05-25T16:52:59.000Z</time>
        <extensions>
          <ns3:TrackPointExtension>
            <ns3:hr>77</ns3:hr>
            <ns3:cad>76</ns3:cad>
          </ns3:TrackPointExtension>
        </extensions>
      </trkpt>
      <trkpt lat="38.04334399290382862091064453125" lon="-106.9435208849608898162841796875">
        <ele>3940.800048828125</ele>
        <time>2026-05-25T16:53:02.000Z</time>
        <extensions>
          <ns3:TrackPointExtension>
            <ns3:hr>77</ns3:hr>
            <ns3:cad>76</ns3:cad>
          </ns3:TrackPointExtension>
        </extensions>
      </trkpt>
      <trkpt lat="38.04335488937795162200927734375" lon="-106.9435366429388523101806640625">
        <ele>3940.39990234375</ele>
        <time>2026-05-25T16:53:03.000Z</time>
        <extensions>
          <ns3:TrackPointExtension>
            <ns3:hr>77</ns3:hr>
            <ns3:cad>0</ns3:cad>
          </ns3:TrackPointExtension>
        </extensions>
      </trkpt>
      <trkpt lat="38.0433786101639270782470703125" lon="-106.94357729516923427581787109375">
        <ele>3939.60009765625</ele>
        <time>2026-05-25T16:53:07.000Z</time>
        <extensions>
          <ns3:TrackPointExtension>
            <ns3:hr>78</ns3:hr>
            <ns3:cad>0</ns3:cad>
          </ns3:TrackPointExtension>
        </extensions>
      </trkpt>
      <trkpt lat="38.0434267222881317138671875" lon="-106.94361417554318904876708984375">
        <ele>3938.800048828125</ele>
        <time>2026-05-25T16:53:11.000Z</time>
        <extensions>
          <ns3:TrackPointExtension>
            <ns3:hr>79</ns3:hr>
            <ns3:cad>0</ns3:cad>
          </ns3:TrackPointExtension>
        </extensions>
      </trkpt>
      <trkpt lat="38.04343619383871555328369140625" lon="-106.94361870177090167999267578125">
        <ele>3938.39990234375</ele>
        <time>2026-05-25T16:53:12.000Z</time>
        <extensions>
          <ns3:TrackPointExtension>
            <ns3:hr>79</ns3:hr>
            <ns3:cad>0</ns3:cad>
          </ns3:TrackPointExtension>
        </extensions>
      </trkpt>
      <trkpt lat="38.04347055964171886444091796875" lon="-106.9436378963291645050048828125">
        <ele>3937.39990234375</ele>
        <time>2026-05-25T16:53:17.000Z</time>
        <extensions>
          <ns3:TrackPointExtension>
            <ns3:hr>79</ns3:hr>
            <ns3:cad>0</ns3:cad>
          </ns3:TrackPointExtension>
        </extensions>
      </trkpt>
      <trkpt lat="38.04348162375390529632568359375" lon="-106.94364854134619235992431640625">
        <ele>3937.199951171875</ele>
        <time>2026-05-25T16:53:18.000Z</time>
        <extensions>
          <ns3:TrackPointExtension>
            <ns3:hr>80</ns3:hr>
            <ns3:cad>68</ns3:cad>
          </ns3:TrackPointExtension>
        </extensions>
      </trkpt>
      <trkpt lat="38.04350785911083221435546875" lon="-106.94367201067507266998291015625">
        <ele>3935.800048828125</ele>
        <time>2026-05-25T16:53:24.000Z</time>
        <extensions>
          <ns3:TrackPointExtension>
            <ns3:hr>79</ns3:hr>
            <ns3:cad>0</ns3:cad>
          </ns3:TrackPointExtension>
        </extensions>
      </trkpt>
      <trkpt lat="38.04353292100131511688232421875" lon="-106.9436901994049549102783203125">
        <ele>3934.800048828125</ele>
        <time>2026-05-25T16:53:28.000Z</time>
        <extensions>
          <ns3:TrackPointExtension>
            <ns3:hr>78</ns3:hr>
            <ns3:cad>0</ns3:cad>
          </ns3:TrackPointExtension>
        </extensions>
      </trkpt>
      <trkpt lat="38.043570220470428466796875" lon="-106.943705789744853973388671875">
        <ele>3934</ele>
        <time>2026-05-25T16:53:31.000Z</time>
        <extensions>
          <ns3:TrackPointExtension>
            <ns3:hr>79</ns3:hr>
            <ns3:cad>0</ns3:cad>
          </ns3:TrackPointExtension>
        </extensions>
      </trkpt>
      <trkpt lat="38.043575584888458251953125" lon="-106.94371073506772518157958984375">
        <ele>3933.60009765625</ele>
        <time>2026-05-25T16:53:32.000Z</time>
        <extensions>
          <ns3:TrackPointExtension>
            <ns3:hr>79</ns3:hr>
            <ns3:cad>0</ns3:cad>
          </ns3:TrackPointExtension>
        </extensions>
      </trkpt>
      <trkpt lat="38.0435985513031482696533203125" lon="-106.94373755715787410736083984375">
        <ele>3932.800048828125</ele>
        <time>2026-05-25T16:53:36.000Z</time>
        <extensions>
          <ns3:TrackPointExtension>
            <ns3:hr>76</ns3:hr>
            <ns3:cad>0</ns3:cad>
          </ns3:TrackPointExtension>
        </extensions>
      </trkpt>
      <trkpt lat="38.04360383190214633941650390625" lon="-106.94374107755720615386962890625">
        <ele>3932.800048828125</ele>
        <time>2026-05-25T16:53:37.000Z</time>
        <extensions>
          <ns3:TrackPointExtension>
            <ns3:hr>76</ns3:hr>
            <ns3:cad>0</ns3:cad>
          </ns3:TrackPointExtension>
        </extensions>
      </trkpt>
      <trkpt lat="38.043610118329524993896484375" lon="-106.94374811835587024688720703125">
        <ele>3932.60009765625</ele>
        <time>2026-05-25T16:53:39.000Z</time>
        <extensions>
          <ns3:TrackPointExtension>
            <ns3:hr>75</ns3:hr>
            <ns3:cad>0</ns3:cad>
          </ns3:TrackPointExtension>
        </extensions>
      </trkpt>
      <trkpt lat="38.04361472837626934051513671875" lon="-106.9437636248767375946044921875">
        <ele>3931.800048828125</ele>
        <time>2026-05-25T16:53:43.000Z</time>
        <extensions>
          <ns3:TrackPointExtension>
            <ns3:hr>72</ns3:hr>
            <ns3:cad>0</ns3:cad>
          </ns3:TrackPointExtension>
        </extensions>
      </trkpt>
      <trkpt lat="38.0436176620423793792724609375" lon="-106.94376555271446704864501953125">
        <ele>3931.39990234375</ele>
        <time>2026-05-25T16:53:45.000Z</time>
        <extensions>
          <ns3:TrackPointExtension>
            <ns3:hr>73</ns3:hr>
            <ns3:cad>0</ns3:cad>
          </ns3:TrackPointExtension>
        </extensions>
      </trkpt>
      <trkpt lat="38.04362042807042598724365234375" lon="-106.9437626190483570098876953125">
        <ele>3931.199951171875</ele>
        <time>2026-05-25T16:53:46.000Z</time>
        <extensions>
          <ns3:TrackPointExtension>
            <ns3:hr>72</ns3:hr>
            <ns3:cad>0</ns3:cad>
          </ns3:TrackPointExtension>
        </extensions>
      </trkpt>
      <trkpt lat="38.0436478368937969207763671875" lon="-106.94377653300762176513671875">
        <ele>3930.39990234375</ele>
        <time>2026-05-25T16:53:50.000Z</time>
        <extensions>
          <ns3:TrackPointExtension>
            <ns3:hr>70</ns3:hr>
            <ns3:cad>0</ns3:cad>
          </ns3:TrackPointExtension>
        </extensions>
      </trkpt>
      <trkpt lat="38.0436575599014759063720703125" lon="-106.943794973194599151611328125">
        <ele>3929.60009765625</ele>
        <time>2026-05-25T16:53:52.000Z</time>
        <extensions>
          <ns3:TrackPointExtension>
            <ns3:hr>69</ns3:hr>
            <ns3:cad>0</ns3:cad>
          </ns3:TrackPointExtension>
        </extensions>
      </trkpt>
      <trkpt lat="38.0436595715582370758056640625" lon="-106.943812407553195953369140625">
        <ele>3929</ele>
        <time>2026-05-25T16:53:54.000Z</time>
        <extensions>
          <ns3:TrackPointExtension>
            <ns3:hr>69</ns3:hr>
            <ns3:cad>0</ns3:cad>
          </ns3:TrackPointExtension>
        </extensions>
      </trkpt>
      <trkpt lat="38.04366686381399631500244140625" lon="-106.94384216330945491790771484375">
        <ele>3927.800048828125</ele>
        <time>2026-05-25T16:53:58.000Z</time>
        <extensions>
          <ns3:TrackPointExtension>
            <ns3:hr>70</ns3:hr>
            <ns3:cad>0</ns3:cad>
          </ns3:TrackPointExtension>
        </extensions>
      </trkpt>
      <trkpt lat="38.0436815321445465087890625" lon="-106.9438722543418407440185546875">
        <ele>3927.60009765625</ele>
        <time>2026-05-25T16:53:59.000Z</time>
        <extensions>
          <ns3:TrackPointExtension>
            <ns3:hr>70</ns3:hr>
            <ns3:cad>0</ns3:cad>
          </ns3:TrackPointExtension>
        </extensions>
      </trkpt>
      <trkpt lat="38.04369829595088958740234375" lon="-106.94390485994517803192138671875">
        <ele>3926.60009765625</ele>
        <time>2026-05-25T16:54:02.000Z</time>
        <extensions>
          <ns3:TrackPointExtension>
            <ns3:hr>70</ns3:hr>
            <ns3:cad>0</ns3:cad>
          </ns3:TrackPointExtension>
        </extensions>
      </trkpt>
      <trkpt lat="38.04373023100197315216064453125" lon="-106.9439396448433399200439453125">
        <ele>3925.800048828125</ele>
        <time>2026-05-25T16:54:06.000Z</time>
        <extensions>
          <ns3:TrackPointExtension>
            <ns3:hr>70</ns3:hr>
            <ns3:cad>0</ns3:cad>
          </ns3:TrackPointExtension>
        </extensions>
      </trkpt>
      <trkpt lat="38.0437363497912883758544921875" lon="-106.94394559599459171295166015625">
        <ele>3925.60009765625</ele>
        <time>2026-05-25T16:54:07.000Z</time>
        <extensions>
          <ns3:TrackPointExtension>
            <ns3:hr>70</ns3:hr>
            <ns3:cad>0</ns3:cad>
          </ns3:TrackPointExtension>
        </extensions>
      </trkpt>
      <trkpt lat="38.04376375861465930938720703125" lon="-106.9439916126430034637451171875">
        <ele>3924.60009765625</ele>
        <time>2026-05-25T16:54:12.000Z</time>
        <extensions>
          <ns3:TrackPointExtension>
            <ns3:hr>69</ns3:hr>
            <ns3:cad>0</ns3:cad>
          </ns3:TrackPointExtension>
        </extensions>
      </trkpt>
      <trkpt lat="38.0437695421278476715087890625" lon="-106.94399873726069927215576171875">
        <ele>3924.199951171875</ele>
        <time>2026-05-25T16:54:13.000Z</time>
        <extensions>
          <ns3:TrackPointExtension>
            <ns3:hr>69</ns3:hr>
            <ns3:cad>0</ns3:cad>
          </ns3:TrackPointExtension>
        </extensions>
      </trkpt>
      <trkpt lat="38.0437755770981311798095703125" lon="-106.94400862790644168853759765625">
        <ele>3923.60009765625</ele>
        <time>2026-05-25T16:54:15.000Z</time>
        <extensions>
          <ns3:TrackPointExtension>
            <ns3:hr>69</ns3:hr>
            <ns3:cad>0</ns3:cad>
          </ns3:TrackPointExtension>
        </extensions>
      </trkpt>
      <trkpt lat="38.04380432702600955963134765625" lon="-106.94402723573148250579833984375">
        <ele>3922.39990234375</ele>
        <time>2026-05-25T16:54:19.000Z</time>
        <extensions>
          <ns3:TrackPointExtension>
            <ns3:hr>69</ns3:hr>
            <ns3:cad>0</ns3:cad>
          </ns3:TrackPointExtension>
        </extensions>
      </trkpt>
      <trkpt lat="38.04382343776524066925048828125" lon="-106.94405254907906055450439453125">
        <ele>3922.199951171875</ele>
        <time>2026-05-25T16:54:21.000Z</time>
        <extensions>
          <ns3:TrackPointExtension>
            <ns3:hr>70</ns3:hr>
            <ns3:cad>0</ns3:cad>
          </ns3:TrackPointExtension>
        </extensions>
      </trkpt>
      <trkpt lat="38.0438245274126529693603515625" lon="-106.94406512193381786346435546875">
        <ele>3922</ele>
        <time>2026-05-25T16:54:22.000Z</time>
        <extensions>
          <ns3:TrackPointExtension>
            <ns3:hr>71</ns3:hr>
            <ns3:cad>0</ns3:cad>
          </ns3:TrackPointExtension>
        </extensions>
      </trkpt>
      <trkpt lat="38.043840117752552032470703125" lon="-106.94406847469508647918701171875">
        <ele>3921.800048828125</ele>
        <time>2026-05-25T16:54:24.000Z</time>
        <extensions>
          <ns3:TrackPointExtension>
            <ns3:hr>72</ns3:hr>
            <ns3:cad>0</ns3:cad>
          </ns3:TrackPointExtension>
        </extensions>
      </trkpt>
      <trkpt lat="38.04386015050113201141357421875" lon="-106.94407291710376739501953125">
        <ele>3921.39990234375</ele>
        <time>2026-05-25T16:54:26.000Z</time>
        <extensions>
          <ns3:TrackPointExtension>
            <ns3:hr>73</ns3:hr>
            <ns3:cad>0</ns3:cad>
          </ns3:TrackPointExtension>
        </extensions>
      </trkpt>
      <trkpt lat="38.04387129843235015869140625" lon="-106.94407962262630462646484375">
        <ele>3921.199951171875</ele>
        <time>2026-05-25T16:54:27.000Z</time>
        <extensions>
          <ns3:TrackPointExtension>
            <ns3:hr>73</ns3:hr>
            <ns3:cad>0</ns3:cad>
          </ns3:TrackPointExtension>
        </extensions>
      </trkpt>
      <trkpt lat="38.04390289820730686187744140625" lon="-106.94409093819558620452880859375">
        <ele>3920.199951171875</ele>
        <time>2026-05-25T16:54:30.000Z</time>
        <extensions>
          <ns3:TrackPointExtension>
            <ns3:hr>72</ns3:hr>
            <ns3:cad>0</ns3:cad>
          </ns3:TrackPointExtension>
        </extensions>
      </trkpt>
      <trkpt lat="38.04395553655922412872314453125" lon="-106.94411826319992542266845703125">
        <ele>3919.39990234375</ele>
        <time>2026-05-25T16:54:34.000Z</time>
        <extensions>
          <ns3:TrackPointExtension>
            <ns3:hr>71</ns3:hr>
            <ns3:cad>0</ns3:cad>
          </ns3:TrackPointExtension>
        </extensions>
      </trkpt>
      <trkpt lat="38.043999373912811279296875" lon="-106.9441170059144496917724609375">
        <ele>3919.39990234375</ele>
        <time>2026-05-25T16:54:39.000Z</time>
        <extensions>
          <ns3:TrackPointExtension>
            <ns3:hr>74</ns3:hr>
            <ns3:cad>0</ns3:cad>
          </ns3:TrackPointExtension>
        </extensions>
      </trkpt>
      <trkpt lat="38.04403365589678287506103515625" lon="-106.94412547163665294647216796875">
        <ele>3919</ele>
        <time>2026-05-25T16:54:41.000Z</time>
        <extensions>
          <ns3:TrackPointExtension>
            <ns3:hr>75</ns3:hr>
            <ns3:cad>0</ns3:cad>
          </ns3:TrackPointExtension>
        </extensions>
      </trkpt>
      <trkpt lat="38.04403985850512981414794921875" lon="-106.94412698037922382354736328125">
        <ele>3918.800048828125</ele>
        <time>2026-05-25T16:54:42.000Z</time>
        <extensions>
          <ns3:TrackPointExtension>
            <ns3:hr>76</ns3:hr>
            <ns3:cad>0</ns3:cad>
          </ns3:TrackPointExtension>
        </extensions>
      </trkpt>
      <trkpt lat="38.0440843664109706878662109375" lon="-106.94412664510309696197509765625">
        <ele>3918</ele>
        <time>2026-05-25T16:54:46.000Z</time>
        <extensions>
          <ns3:TrackPointExtension>
            <ns3:hr>77</ns3:hr>
            <ns3:cad>77</ns3:cad>
          </ns3:TrackPointExtension>
        </extensions>
      </trkpt>
      <trkpt lat="38.04410590790212154388427734375" lon="-106.94413502700626850128173828125">
        <ele>3917.199951171875</ele>
        <time>2026-05-25T16:54:49.000Z</time>
        <extensions>
          <ns3:TrackPointExtension>
            <ns3:hr>78</ns3:hr>
            <ns3:cad>77</ns3:cad>
          </ns3:TrackPointExtension>
        </extensions>
      </trkpt>
      <trkpt lat="38.04411998949944972991943359375" lon="-106.9441488571465015411376953125">
        <ele>3917</ele>
        <time>2026-05-25T16:54:50.000Z</time>
        <extensions>
          <ns3:TrackPointExtension>
            <ns3:hr>79</ns3:hr>
            <ns3:cad>77</ns3:cad>
          </ns3:TrackPointExtension>
        </extensions>
      </trkpt>
      <trkpt lat="38.044128455221652984619140625" lon="-106.9441548921167850494384765625">
        <ele>3916.60009765625</ele>
        <time>2026-05-25T16:54:51.000Z</time>
        <extensions>
          <ns3:TrackPointExtension>
            <ns3:hr>79</ns3:hr>
            <ns3:cad>77</ns3:cad>
          </ns3:TrackPointExtension>
        </extensions>
      </trkpt>
      <trkpt lat="38.04415469057857990264892578125" lon="-106.9441894255578517913818359375">
        <ele>3915.800048828125</ele>
        <time>2026-05-25T16:54:55.000Z</time>
        <extensions>
          <ns3:TrackPointExtension>
            <ns3:hr>79</ns3:hr>
            <ns3:cad>77</ns3:cad>
          </ns3:TrackPointExtension>
        </extensions>
      </trkpt>
      <trkpt lat="38.044162653386592864990234375" lon="-106.9442050158977508544921875">
        <ele>3915.60009765625</ele>
        <time>2026-05-25T16:54:56.000Z</time>
        <extensions>
          <ns3:TrackPointExtension>
            <ns3:hr>78</ns3:hr>
            <ns3:cad>77</ns3:cad>
          </ns3:TrackPointExtension>
        </extensions>
      </trkpt>
      <trkpt lat="38.04417681880295276641845703125" lon="-106.9442425668239593505859375">
        <ele>3914.60009765625</ele>
        <time>2026-05-25T16:55:00.000Z</time>
        <extensions>
          <ns3:TrackPointExtension>
            <ns3:hr>77</ns3:hr>
            <ns3:cad>0</ns3:cad>
          </ns3:TrackPointExtension>
        </extensions>
      </trkpt>
      <trkpt lat="38.04418050684034824371337890625" lon="-106.9442517869174480438232421875">
        <ele>3914.39990234375</ele>
        <time>2026-05-25T16:55:01.000Z</time>
        <extensions>
          <ns3:TrackPointExtension>
            <ns3:hr>76</ns3:hr>
            <ns3:cad>0</ns3:cad>
          </ns3:TrackPointExtension>
        </extensions>
      </trkpt>
      <trkpt lat="38.04418972693383693695068359375" lon="-106.9443044252693653106689453125">
        <ele>3913.39990234375</ele>
        <time>2026-05-25T16:55:04.000Z</time>
        <extensions>
          <ns3:TrackPointExtension>
            <ns3:hr>75</ns3:hr>
            <ns3:cad>0</ns3:cad>
          </ns3:TrackPointExtension>
        </extensions>
      </trkpt>
      <trkpt lat="38.04421688430011272430419921875" lon="-106.94431037642061710357666015625">
        <ele>3913</ele>
        <time>2026-05-25T16:55:07.000Z</time>
        <extensions>
          <ns3:TrackPointExtension>
            <ns3:hr>74</ns3:hr>
            <ns3:cad>68</ns3:cad>
          </ns3:TrackPointExtension>
        </extensions>
      </trkpt>
      <trkpt lat="38.044218979775905609130859375" lon="-106.94431054405868053436279296875">
        <ele>3912.39990234375</ele>
        <time>2026-05-25T16:55:09.000Z</time>
        <extensions>
          <ns3:TrackPointExtension>
            <ns3:hr>74</ns3:hr>
            <ns3:cad>68</ns3:cad>
          </ns3:TrackPointExtension>
        </extensions>
      </trkpt>
      <trkpt lat="38.04422610439360141754150390625" lon="-106.94431775249540805816650390625">
        <ele>3912</ele>
        <time>2026-05-25T16:55:10.000Z</time>
        <extensions>
          <ns3:TrackPointExtension>
            <ns3:hr>74</ns3:hr>
            <ns3:cad>68</ns3:cad>
          </ns3:TrackPointExtension>
        </extensions>
      </trkpt>
      <trkpt lat="38.044253848493099212646484375" lon="-106.94432395510375499725341796875">
        <ele>3911.199951171875</ele>
        <time>2026-05-25T16:55:13.000Z</time>
        <extensions>
          <ns3:TrackPointExtension>
            <ns3:hr>74</ns3:hr>
            <ns3:cad>68</ns3:cad>
          </ns3:TrackPointExtension>
        </extensions>
      </trkpt>
      <trkpt lat="38.044311515986919403076171875" lon="-106.94432395510375499725341796875">
        <ele>3910.199951171875</ele>
        <time>2026-05-25T16:55:18.000Z</time>
        <extensions>
          <ns3:TrackPointExtension>
            <ns3:hr>74</ns3:hr>
            <ns3:cad>68</ns3:cad>
          </ns3:TrackPointExtension>
        </extensions>
      </trkpt>
      <trkpt lat="38.04436750710010528564453125" lon="-106.94433166645467281341552734375">
        <ele>3909</ele>
        <time>2026-05-25T16:55:24.000Z</time>
        <extensions>
          <ns3:TrackPointExtension>
            <ns3:hr>76</ns3:hr>
            <ns3:cad>68</ns3:cad>
          </ns3:TrackPointExtension>
        </extensions>
      </trkpt>
      <trkpt lat="38.0444001965224742889404296875" lon="-106.94433636032044887542724609375">
        <ele>3908.39990234375</ele>
        <time>2026-05-25T16:55:27.000Z</time>
        <extensions>
          <ns3:TrackPointExtension>
            <ns3:hr>76</ns3:hr>
            <ns3:cad>68</ns3:cad>
          </ns3:TrackPointExtension>
        </extensions>
      </trkpt>
      <trkpt lat="38.044422827661037445068359375" lon="-106.94434306584298610687255859375">
        <ele>3908</ele>
        <time>2026-05-25T16:55:29.000Z</time>
        <extensions>
          <ns3:TrackPointExtension>
            <ns3:hr>79</ns3:hr>
            <ns3:cad>0</ns3:cad>
          </ns3:TrackPointExtension>
        </extensions>
      </trkpt>
      <trkpt lat="38.0444352328777313232421875" lon="-106.9443506933748722076416015625">
        <ele>3907.199951171875</ele>
        <time>2026-05-25T16:55:32.000Z</time>
        <extensions>
          <ns3:TrackPointExtension>
            <ns3:hr>84</ns3:hr>
            <ns3:cad>0</ns3:cad>
          </ns3:TrackPointExtension>
        </extensions>
      </trkpt>
      <trkpt lat="38.0444545112550258636474609375" lon="-106.94436100311577320098876953125">
        <ele>3907</ele>
        <time>2026-05-25T16:55:34.000Z</time>
        <extensions>
          <ns3:TrackPointExtension>
            <ns3:hr>85</ns3:hr>
            <ns3:cad>0</ns3:cad>
          </ns3:TrackPointExtension>
        </extensions>
      </trkpt>
      <trkpt lat="38.044460378587245941162109375" lon="-106.9443691335618495941162109375">
        <ele>3906.800048828125</ele>
        <time>2026-05-25T16:55:35.000Z</time>
        <extensions>
          <ns3:TrackPointExtension>
            <ns3:hr>85</ns3:hr>
            <ns3:cad>0</ns3:cad>
          </ns3:TrackPointExtension>
        </extensions>
      </trkpt>
      <trkpt lat="38.04448108188807964324951171875" lon="-106.9443954527378082275390625">
        <ele>3905.60009765625</ele>
        <time>2026-05-25T16:55:39.000Z</time>
        <extensions>
          <ns3:TrackPointExtension>
            <ns3:hr>85</ns3:hr>
            <ns3:cad>0</ns3:cad>
          </ns3:TrackPointExtension>
        </extensions>
      </trkpt>
      <trkpt lat="38.04448761977255344390869140625" lon="-106.94440148770809173583984375">
        <ele>3905.199951171875</ele>
        <time>2026-05-25T16:55:40.000Z</time>
        <extensions>
          <ns3:TrackPointExtension>
            <ns3:hr>84</ns3:hr>
            <ns3:cad>0</ns3:cad>
          </ns3:TrackPointExtension>
        </extensions>
      </trkpt>
      <trkpt lat="38.0445239134132862091064453125" lon="-106.9444137252867221832275390625">
        <ele>3904.39990234375</ele>
        <time>2026-05-25T16:55:43.000Z</time>
        <extensions>
          <ns3:TrackPointExtension>
            <ns3:hr>83</ns3:hr>
            <ns3:cad>0</ns3:cad>
          </ns3:TrackPointExtension>
        </extensions>
      </trkpt>
      <trkpt lat="38.04456138052046298980712890625" lon="-106.94441464729607105255126953125">
        <ele>3903.60009765625</ele>
        <time>2026-05-25T16:55:47.000Z</time>
        <extensions>
          <ns3:TrackPointExtension>
            <ns3:hr>82</ns3:hr>
            <ns3:cad>0</ns3:cad>
          </ns3:TrackPointExtension>
        </extensions>
      </trkpt>
      <trkpt lat="38.0445678345859050750732421875" lon="-106.9444154016673564910888671875">
        <ele>3903.199951171875</ele>
        <time>2026-05-25T16:55:48.000Z</time>
        <extensions>
          <ns3:TrackPointExtension>
            <ns3:hr>83</ns3:hr>
            <ns3:cad>0</ns3:cad>
          </ns3:TrackPointExtension>
        </extensions>
      </trkpt>
      <trkpt lat="38.0445913039147853851318359375" lon="-106.94442294538021087646484375">
        <ele>3902.199951171875</ele>
        <time>2026-05-25T16:55:52.000Z</time>
        <extensions>
          <ns3:TrackPointExtension>
            <ns3:hr>82</ns3:hr>
            <ns3:cad>0</ns3:cad>
          </ns3:TrackPointExtension>
        </extensions>
      </trkpt>
      <trkpt lat="38.0446352250874042510986328125" lon="-106.9444321654736995697021484375">
        <ele>3901.199951171875</ele>
        <time>2026-05-25T16:55:55.000Z</time>
        <extensions>
          <ns3:TrackPointExtension>
            <ns3:hr>82</ns3:hr>
            <ns3:cad>57</ns3:cad>
          </ns3:TrackPointExtension>
        </extensions>
      </trkpt>
      <trkpt lat="38.0446352250874042510986328125" lon="-106.9444321654736995697021484375">
        <ele>3900.800048828125</ele>
        <time>2026-05-25T16:55:56.000Z</time>
        <extensions>
          <ns3:TrackPointExtension>
            <ns3:hr>82</ns3:hr>
            <ns3:cad>57</ns3:cad>
          </ns3:TrackPointExtension>
        </extensions>
      </trkpt>
      <trkpt lat="38.04467788897454738616943359375" lon="-106.94445571862161159515380859375">
        <ele>3899.800048828125</ele>
        <time>2026-05-25T16:56:00.000Z</time>
        <extensions>
          <ns3:TrackPointExtension>
            <ns3:hr>82</ns3:hr>
            <ns3:cad>57</ns3:cad>
          </ns3:TrackPointExtension>
        </extensions>
      </trkpt>
      <trkpt lat="38.04468643851578235626220703125" lon="-106.94446317851543426513671875">
        <ele>3899.60009765625</ele>
        <time>2026-05-25T16:56:01.000Z</time>
        <extensions>
          <ns3:TrackPointExtension>
            <ns3:hr>81</ns3:hr>
            <ns3:cad>57</ns3:cad>
          </ns3:TrackPointExtension>
        </extensions>
      </trkpt>
      <trkpt lat="38.04475030861794948577880859375" lon="-106.94448337890207767486572265625">
        <ele>3898.60009765625</ele>
        <time>2026-05-25T16:56:06.000Z</time>
        <extensions>
          <ns3:TrackPointExtension>
            <ns3:hr>82</ns3:hr>
            <ns3:cad>57</ns3:cad>
          </ns3:TrackPointExtension>
        </extensions>
      </trkpt>
      <trkpt lat="38.044767491519451141357421875" lon="-106.94448103196918964385986328125">
        <ele>3898.199951171875</ele>
        <time>2026-05-25T16:56:07.000Z</time>
        <extensions>
          <ns3:TrackPointExtension>
            <ns3:hr>82</ns3:hr>
            <ns3:cad>0</ns3:cad>
          </ns3:TrackPointExtension>
        </extensions>
      </trkpt>
      <trkpt lat="38.04479339160025119781494140625" lon="-106.944472901523113250732421875">
        <ele>3897.39990234375</ele>
        <time>2026-05-25T16:56:10.000Z</time>
        <extensions>
          <ns3:TrackPointExtension>
            <ns3:hr>82</ns3:hr>
            <ns3:cad>52</ns3:cad>
          </ns3:TrackPointExtension>
        </extensions>
      </trkpt>
      <trkpt lat="38.0448161065578460693359375" lon="-106.94446292705833911895751953125">
        <ele>3897.39990234375</ele>
        <time>2026-05-25T16:56:13.000Z</time>
        <extensions>
          <ns3:TrackPointExtension>
            <ns3:hr>80</ns3:hr>
            <ns3:cad>0</ns3:cad>
          </ns3:TrackPointExtension>
        </extensions>
      </trkpt>
      <trkpt lat="38.0448965728282928466796875" lon="-106.94441892206668853759765625">
        <ele>3896.60009765625</ele>
        <time>2026-05-25T16:56:19.000Z</time>
        <extensions>
          <ns3:TrackPointExtension>
            <ns3:hr>79</ns3:hr>
            <ns3:cad>0</ns3:cad>
          </ns3:TrackPointExtension>
        </extensions>
      </trkpt>
      <trkpt lat="38.0449014343321323394775390625" lon="-106.944417245686054229736328125">
        <ele>3896.39990234375</ele>
        <time>2026-05-25T16:56:21.000Z</time>
        <extensions>
          <ns3:TrackPointExtension>
            <ns3:hr>78</ns3:hr>
            <ns3:cad>0</ns3:cad>
          </ns3:TrackPointExtension>
        </extensions>
      </trkpt>
      <trkpt lat="38.04494191892445087432861328125" lon="-106.944413222372531890869140625">
        <ele>3895.800048828125</ele>
        <time>2026-05-25T16:56:25.000Z</time>
        <extensions>
          <ns3:TrackPointExtension>
            <ns3:hr>79</ns3:hr>
            <ns3:cad>0</ns3:cad>
          </ns3:TrackPointExtension>
        </extensions>
      </trkpt>
      <trkpt lat="38.04496739991009235382080078125" lon="-106.94440559484064579010009765625">
        <ele>3895.199951171875</ele>
        <time>2026-05-25T16:56:28.000Z</time>
        <extensions>
          <ns3:TrackPointExtension>
            <ns3:hr>78</ns3:hr>
            <ns3:cad>0</ns3:cad>
          </ns3:TrackPointExtension>
        </extensions>
      </trkpt>
      <trkpt lat="38.0450036935508251190185546875" lon="-106.944380365312099456787109375">
        <ele>3894</ele>
        <time>2026-05-25T16:56:32.000Z</time>
        <extensions>
          <ns3:TrackPointExtension>
            <ns3:hr>79</ns3:hr>
            <ns3:cad>0</ns3:cad>
          </ns3:TrackPointExtension>
        </extensions>
      </trkpt>
      <trkpt lat="38.04502875544130802154541015625" lon="-106.944382376968860626220703125">
        <ele>3893.60009765625</ele>
        <time>2026-05-25T16:56:36.000Z</time>
        <extensions>
          <ns3:TrackPointExtension>
            <ns3:hr>79</ns3:hr>
            <ns3:cad>0</ns3:cad>
          </ns3:TrackPointExtension>
        </extensions>
      </trkpt>
      <trkpt lat="38.0450570024549961090087890625" lon="-106.94437466561794281005859375">
        <ele>3892.800048828125</ele>
        <time>2026-05-25T16:56:39.000Z</time>
        <extensions>
          <ns3:TrackPointExtension>
            <ns3:hr>80</ns3:hr>
            <ns3:cad>54</ns3:cad>
          </ns3:TrackPointExtension>
        </extensions>
      </trkpt>
      <trkpt lat="38.04508206434547901153564453125" lon="-106.94434826262295246124267578125">
        <ele>3892</ele>
        <time>2026-05-25T16:56:43.000Z</time>
        <extensions>
          <ns3:TrackPointExtension>
            <ns3:hr>77</ns3:hr>
            <ns3:cad>0</ns3:cad>
          </ns3:TrackPointExtension>
        </extensions>
      </trkpt>
      <trkpt lat="38.04509262554347515106201171875" lon="-106.94434583187103271484375">
        <ele>3891.800048828125</ele>
        <time>2026-05-25T16:56:44.000Z</time>
        <extensions>
          <ns3:TrackPointExtension>
            <ns3:hr>76</ns3:hr>
            <ns3:cad>0</ns3:cad>
          </ns3:TrackPointExtension>
        </extensions>
      </trkpt>
      <trkpt lat="38.0451009236276149749755859375" lon="-106.94434625096619129180908203125">
        <ele>3891.60009765625</ele>
        <time>2026-05-25T16:56:45.000Z</time>
        <extensions>
          <ns3:TrackPointExtension>
            <ns3:hr>75</ns3:hr>
            <ns3:cad>0</ns3:cad>
          </ns3:TrackPointExtension>
        </extensions>
      </trkpt>
      <trkpt lat="38.0451193638145923614501953125" lon="-106.94435027427971363067626953125">
        <ele>3890.60009765625</ele>
        <time>2026-05-25T16:56:48.000Z</time>
        <extensions>
          <ns3:TrackPointExtension>
            <ns3:hr>73</ns3:hr>
            <ns3:cad>0</ns3:cad>
          </ns3:TrackPointExtension>
        </extensions>
      </trkpt>
      <trkpt lat="38.0451649613678455352783203125" lon="-106.94434558041393756866455078125">
        <ele>3889.39990234375</ele>
        <time>2026-05-25T16:56:51.000Z</time>
        <extensions>
          <ns3:TrackPointExtension>
            <ns3:hr>72</ns3:hr>
            <ns3:cad>0</ns3:cad>
          </ns3:TrackPointExtension>
        </extensions>
      </trkpt>
      <trkpt lat="38.04518750868737697601318359375" lon="-106.94434222765266895294189453125">
        <ele>3888.800048828125</ele>
        <time>2026-05-25T16:56:53.000Z</time>
        <extensions>
          <ns3:TrackPointExtension>
            <ns3:hr>71</ns3:hr>
            <ns3:cad>0</ns3:cad>
          </ns3:TrackPointExtension>
        </extensions>
      </trkpt>
      <trkpt lat="38.045212738215923309326171875" lon="-106.94434843026101589202880859375">
        <ele>3888.199951171875</ele>
        <time>2026-05-25T16:56:55.000Z</time>
        <extensions>
          <ns3:TrackPointExtension>
            <ns3:hr>71</ns3:hr>
            <ns3:cad>0</ns3:cad>
          </ns3:TrackPointExtension>
        </extensions>
      </trkpt>
      <trkpt lat="38.04524500854313373565673828125" lon="-106.944353543221950531005859375">
        <ele>3887.39990234375</ele>
        <time>2026-05-25T16:56:59.000Z</time>
        <extensions>
          <ns3:TrackPointExtension>
            <ns3:hr>69</ns3:hr>
            <ns3:cad>51</ns3:cad>
          </ns3:TrackPointExtension>
        </extensions>
      </trkpt>
      <trkpt lat="38.045252300798892974853515625" lon="-106.94435278885066509246826171875">
        <ele>3887.199951171875</ele>
        <time>2026-05-25T16:57:00.000Z</time>
        <extensions>
          <ns3:TrackPointExtension>
            <ns3:hr>69</ns3:hr>
            <ns3:cad>19</ns3:cad>
          </ns3:TrackPointExtension>
        </extensions>
      </trkpt>
      <trkpt lat="38.04530099965631961822509765625" lon="-106.94436720572412014007568359375">
        <ele>3886.199951171875</ele>
        <time>2026-05-25T16:57:05.000Z</time>
        <extensions>
          <ns3:TrackPointExtension>
            <ns3:hr>67</ns3:hr>
            <ns3:cad>19</ns3:cad>
          </ns3:TrackPointExtension>
        </extensions>
      </trkpt>
      <trkpt lat="38.04531960748136043548583984375" lon="-106.9443761743605136871337890625">
        <ele>3886</ele>
        <time>2026-05-25T16:57:06.000Z</time>
        <extensions>
          <ns3:TrackPointExtension>
            <ns3:hr>66</ns3:hr>
            <ns3:cad>19</ns3:cad>
          </ns3:TrackPointExtension>
        </extensions>
      </trkpt>
      <trkpt lat="38.04536000825464725494384765625" lon="-106.944381035864353179931640625">
        <ele>3885</ele>
        <time>2026-05-25T16:57:11.000Z</time>
        <extensions>
          <ns3:TrackPointExtension>
            <ns3:hr>66</ns3:hr>
            <ns3:cad>0</ns3:cad>
          </ns3:TrackPointExtension>
        </extensions>
      </trkpt>
      <trkpt lat="38.045408539474010467529296875" lon="-106.944393776357173919677734375">
        <ele>3884.39990234375</ele>
        <time>2026-05-25T16:57:16.000Z</time>
        <extensions>
          <ns3:TrackPointExtension>
            <ns3:hr>66</ns3:hr>
            <ns3:cad>0</ns3:cad>
          </ns3:TrackPointExtension>
        </extensions>
      </trkpt>
      <trkpt lat="38.04544785059988498687744140625" lon="-106.94443040527403354644775390625">
        <ele>3883.800048828125</ele>
        <time>2026-05-25T16:57:22.000Z</time>
        <extensions>
          <ns3:TrackPointExtension>
            <ns3:hr>66</ns3:hr>
            <ns3:cad>0</ns3:cad>
          </ns3:TrackPointExtension>
        </extensions>
      </trkpt>
      <trkpt lat="38.04548221640288829803466796875" lon="-106.9444321654736995697021484375">
        <ele>3882.60009765625</ele>
        <time>2026-05-25T16:57:25.000Z</time>
        <extensions>
          <ns3:TrackPointExtension>
            <ns3:hr>66</ns3:hr>
            <ns3:cad>0</ns3:cad>
          </ns3:TrackPointExtension>
        </extensions>
      </trkpt>
      <trkpt lat="38.04550233297049999237060546875" lon="-106.94442822597920894622802734375">
        <ele>3881.60009765625</ele>
        <time>2026-05-25T16:57:28.000Z</time>
        <extensions>
          <ns3:TrackPointExtension>
            <ns3:hr>66</ns3:hr>
            <ns3:cad>0</ns3:cad>
          </ns3:TrackPointExtension>
        </extensions>
      </trkpt>
      <trkpt lat="38.0455579049885272979736328125" lon="-106.94443157874047756195068359375">
        <ele>3880.39990234375</ele>
        <time>2026-05-25T16:57:33.000Z</time>
        <extensions>
          <ns3:TrackPointExtension>
            <ns3:hr>68</ns3:hr>
            <ns3:cad>0</ns3:cad>
          </ns3:TrackPointExtension>
        </extensions>
      </trkpt>
      <trkpt lat="38.0455766804516315460205078125" lon="-106.94443006999790668487548828125">
        <ele>3880.199951171875</ele>
        <time>2026-05-25T16:57:34.000Z</time>
        <extensions>
          <ns3:TrackPointExtension>
            <ns3:hr>68</ns3:hr>
            <ns3:cad>0</ns3:cad>
          </ns3:TrackPointExtension>
        </extensions>
      </trkpt>
      <trkpt lat="38.04561029188334941864013671875" lon="-106.94442336447536945343017578125">
        <ele>3879.199951171875</ele>
        <time>2026-05-25T16:57:38.000Z</time>
        <extensions>
          <ns3:TrackPointExtension>
            <ns3:hr>71</ns3:hr>
            <ns3:cad>0</ns3:cad>
          </ns3:TrackPointExtension>
        </extensions>
      </trkpt>
      <trkpt lat="38.04562521167099475860595703125" lon="-106.9444355182349681854248046875">
        <ele>3878.60009765625</ele>
        <time>2026-05-25T16:57:40.000Z</time>
        <extensions>
          <ns3:TrackPointExtension>
            <ns3:hr>70</ns3:hr>
            <ns3:cad>53</ns3:cad>
          </ns3:TrackPointExtension>
        </extensions>
      </trkpt>
      <trkpt lat="38.04565706290304660797119140625" lon="-106.944428645074367523193359375">
        <ele>3878</ele>
        <time>2026-05-25T16:57:44.000Z</time>
        <extensions>
          <ns3:TrackPointExtension>
            <ns3:hr>72</ns3:hr>
            <ns3:cad>56</ns3:cad>
          </ns3:TrackPointExtension>
        </extensions>
      </trkpt>
      <trkpt lat="38.045684807002544403076171875" lon="-106.94442839361727237701416015625">
        <ele>3877.199951171875</ele>
        <time>2026-05-25T16:57:47.000Z</time>
        <extensions>
          <ns3:TrackPointExtension>
            <ns3:hr>73</ns3:hr>
            <ns3:cad>0</ns3:cad>
          </ns3:TrackPointExtension>
        </extensions>
      </trkpt>
      <trkpt lat="38.0456920154392719268798828125" lon="-106.94443258456885814666748046875">
        <ele>3876.800048828125</ele>
        <time>2026-05-25T16:57:48.000Z</time>
        <extensions>
          <ns3:TrackPointExtension>
            <ns3:hr>73</ns3:hr>
            <ns3:cad>0</ns3:cad>
          </ns3:TrackPointExtension>
        </extensions>
      </trkpt>
      <trkpt lat="38.04572026245296001434326171875" lon="-106.9444439001381397247314453125">
        <ele>3875.60009765625</ele>
        <time>2026-05-25T16:57:52.000Z</time>
        <extensions>
          <ns3:TrackPointExtension>
            <ns3:hr>71</ns3:hr>
            <ns3:cad>18</ns3:cad>
          </ns3:TrackPointExtension>
        </extensions>
      </trkpt>
      <trkpt lat="38.04578329436480998992919921875" lon="-106.94446728564798831939697265625">
        <ele>3874.60009765625</ele>
        <time>2026-05-25T16:57:57.000Z</time>
        <extensions>
          <ns3:TrackPointExtension>
            <ns3:hr>70</ns3:hr>
            <ns3:cad>56</ns3:cad>
          </ns3:TrackPointExtension>
        </extensions>
      </trkpt>
      <trkpt lat="38.045818246901035308837890625" lon="-106.94449863396584987640380859375">
        <ele>3873.39990234375</ele>
        <time>2026-05-25T16:58:02.000Z</time>
        <extensions>
          <ns3:TrackPointExtension>
            <ns3:hr>70</ns3:hr>
            <ns3:cad>0</ns3:cad>
          </ns3:TrackPointExtension>
        </extensions>
      </trkpt>
      <trkpt lat="38.045847080647945404052734375" lon="-106.94451548159122467041015625">
        <ele>3873</ele>
        <time>2026-05-25T16:58:04.000Z</time>
        <extensions>
          <ns3:TrackPointExtension>
            <ns3:hr>71</ns3:hr>
            <ns3:cad>0</ns3:cad>
          </ns3:TrackPointExtension>
        </extensions>
      </trkpt>
      <trkpt lat="38.04587566293776035308837890625" lon="-106.9445367716252803802490234375">
        <ele>3872.39990234375</ele>
        <time>2026-05-25T16:58:07.000Z</time>
        <extensions>
          <ns3:TrackPointExtension>
            <ns3:hr>71</ns3:hr>
            <ns3:cad>0</ns3:cad>
          </ns3:TrackPointExtension>
        </extensions>
      </trkpt>
      <trkpt lat="38.04589544422924518585205078125" lon="-106.94454825483262538909912109375">
        <ele>3871.199951171875</ele>
        <time>2026-05-25T16:58:10.000Z</time>
        <extensions>
          <ns3:TrackPointExtension>
            <ns3:hr>73</ns3:hr>
            <ns3:cad>0</ns3:cad>
          </ns3:TrackPointExtension>
        </extensions>
      </trkpt>
      <trkpt lat="38.045904077589511871337890625" lon="-106.94455797784030437469482421875">
        <ele>3871</ele>
        <time>2026-05-25T16:58:11.000Z</time>
        <extensions>
          <ns3:TrackPointExtension>
            <ns3:hr>72</ns3:hr>
            <ns3:cad>0</ns3:cad>
          </ns3:TrackPointExtension>
        </extensions>
      </trkpt>
      <trkpt lat="38.0459639243781566619873046875" lon="-106.9445863924920558929443359375">
        <ele>3871</ele>
        <time>2026-05-25T16:58:17.000Z</time>
        <extensions>
          <ns3:TrackPointExtension>
            <ns3:hr>74</ns3:hr>
            <ns3:cad>0</ns3:cad>
          </ns3:TrackPointExtension>
        </extensions>
      </trkpt>
      <trkpt lat="38.04598487913608551025390625" lon="-106.9445894099771976470947265625">
        <ele>3870.199951171875</ele>
        <time>2026-05-25T16:58:19.000Z</time>
        <extensions>
          <ns3:TrackPointExtension>
            <ns3:hr>76</ns3:hr>
            <ns3:cad>0</ns3:cad>
          </ns3:TrackPointExtension>
        </extensions>
      </trkpt>
      <trkpt lat="38.045994937419891357421875" lon="-106.94458664394915103912353515625">
        <ele>3869.199951171875</ele>
        <time>2026-05-25T16:58:21.000Z</time>
        <extensions>
          <ns3:TrackPointExtension>
            <ns3:hr>79</ns3:hr>
            <ns3:cad>0</ns3:cad>
          </ns3:TrackPointExtension>
        </extensions>
      </trkpt>
      <trkpt lat="38.04601513780653476715087890625" lon="-106.94459150545299053192138671875">
        <ele>3868.800048828125</ele>
        <time>2026-05-25T16:58:22.000Z</time>
        <extensions>
          <ns3:TrackPointExtension>
            <ns3:hr>80</ns3:hr>
            <ns3:cad>0</ns3:cad>
          </ns3:TrackPointExtension>
        </extensions>
      </trkpt>
      <trkpt lat="38.04604045115411281585693359375" lon="-106.94459603168070316314697265625">
        <ele>3868.39990234375</ele>
        <time>2026-05-25T16:58:25.000Z</time>
        <extensions>
          <ns3:TrackPointExtension>
            <ns3:hr>82</ns3:hr>
            <ns3:cad>54</ns3:cad>
          </ns3:TrackPointExtension>
        </extensions>
      </trkpt>
      <trkpt lat="38.04606123827397823333740234375" lon="-106.94460458122193813323974609375">
        <ele>3867.800048828125</ele>
        <time>2026-05-25T16:58:29.000Z</time>
        <extensions>
          <ns3:TrackPointExtension>
            <ns3:hr>84</ns3:hr>
            <ns3:cad>0</ns3:cad>
          </ns3:TrackPointExtension>
        </extensions>
      </trkpt>
      <trkpt lat="38.0460847914218902587890625" lon="-106.94460927508771419525146484375">
        <ele>3867.199951171875</ele>
        <time>2026-05-25T16:58:31.000Z</time>
        <extensions>
          <ns3:TrackPointExtension>
            <ns3:hr>84</ns3:hr>
            <ns3:cad>0</ns3:cad>
          </ns3:TrackPointExtension>
        </extensions>
      </trkpt>
      <trkpt lat="38.04611287079751491546630859375" lon="-106.9446182437241077423095703125">
        <ele>3866.39990234375</ele>
        <time>2026-05-25T16:58:33.000Z</time>
        <extensions>
          <ns3:TrackPointExtension>
            <ns3:hr>81</ns3:hr>
            <ns3:cad>52</ns3:cad>
          </ns3:TrackPointExtension>
        </extensions>
      </trkpt>
      <trkpt lat="38.0461577139794826507568359375" lon="-106.9446219317615032196044921875">
        <ele>3865.39990234375</ele>
        <time>2026-05-25T16:58:37.000Z</time>
        <extensions>
          <ns3:TrackPointExtension>
            <ns3:hr>80</ns3:hr>
            <ns3:cad>52</ns3:cad>
          </ns3:TrackPointExtension>
        </extensions>
      </trkpt>
      <trkpt lat="38.04616685025393962860107421875" lon="-106.944627463817596435546875">
        <ele>3865.39990234375</ele>
        <time>2026-05-25T16:58:38.000Z</time>
        <extensions>
          <ns3:TrackPointExtension>
            <ns3:hr>79</ns3:hr>
            <ns3:cad>47</ns3:cad>
          </ns3:TrackPointExtension>
        </extensions>
      </trkpt>
      <trkpt lat="38.046219237148761749267578125" lon="-106.9446390308439731597900390625">
        <ele>3864.199951171875</ele>
        <time>2026-05-25T16:58:43.000Z</time>
        <extensions>
          <ns3:TrackPointExtension>
            <ns3:hr>80</ns3:hr>
            <ns3:cad>0</ns3:cad>
          </ns3:TrackPointExtension>
        </extensions>
      </trkpt>
      <trkpt lat="38.04623222909867763519287109375" lon="-106.9446447305381298065185546875">
        <ele>3863.800048828125</ele>
        <time>2026-05-25T16:58:45.000Z</time>
        <extensions>
          <ns3:TrackPointExtension>
            <ns3:hr>81</ns3:hr>
            <ns3:cad>0</ns3:cad>
          </ns3:TrackPointExtension>
        </extensions>
      </trkpt>
      <trkpt lat="38.0462750606238842010498046875" lon="-106.94464950822293758392333984375">
        <ele>3863.199951171875</ele>
        <time>2026-05-25T16:58:48.000Z</time>
        <extensions>
          <ns3:TrackPointExtension>
            <ns3:hr>82</ns3:hr>
            <ns3:cad>53</ns3:cad>
          </ns3:TrackPointExtension>
        </extensions>
      </trkpt>
      <trkpt lat="38.046296350657939910888671875" lon="-106.94464783184230327606201171875">
        <ele>3862.800048828125</ele>
        <time>2026-05-25T16:58:51.000Z</time>
        <extensions>
          <ns3:TrackPointExtension>
            <ns3:hr>82</ns3:hr>
            <ns3:cad>40</ns3:cad>
          </ns3:TrackPointExtension>
        </extensions>
      </trkpt>
      <trkpt lat="38.046352677047252655029296875" lon="-106.9446568004786968231201171875">
        <ele>3862</ele>
        <time>2026-05-25T16:58:56.000Z</time>
        <extensions>
          <ns3:TrackPointExtension>
            <ns3:hr>81</ns3:hr>
            <ns3:cad>76</ns3:cad>
          </ns3:TrackPointExtension>
        </extensions>
      </trkpt>
      <trkpt lat="38.046352677047252655029296875" lon="-106.9446568004786968231201171875">
        <ele>3861.800048828125</ele>
        <time>2026-05-25T16:58:57.000Z</time>
        <extensions>
          <ns3:TrackPointExtension>
            <ns3:hr>81</ns3:hr>
            <ns3:cad>0</ns3:cad>
          </ns3:TrackPointExtension>
        </extensions>
      </trkpt>
      <trkpt lat="38.046399615705013275146484375" lon="-106.9446531124413013458251953125">
        <ele>3861</ele>
        <time>2026-05-25T16:59:01.000Z</time>
        <extensions>
          <ns3:TrackPointExtension>
            <ns3:hr>80</ns3:hr>
            <ns3:cad>0</ns3:cad>
          </ns3:TrackPointExtension>
        </extensions>
      </trkpt>
      <trkpt lat="38.04641445167362689971923828125" lon="-106.94465604610741138458251953125">
        <ele>3860.800048828125</ele>
        <time>2026-05-25T16:59:02.000Z</time>
        <extensions>
          <ns3:TrackPointExtension>
            <ns3:hr>80</ns3:hr>
            <ns3:cad>0</ns3:cad>
          </ns3:TrackPointExtension>
        </extensions>
      </trkpt>
      <trkpt lat="38.0464380048215389251708984375" lon="-106.94465990178287029266357421875">
        <ele>3860</ele>
        <time>2026-05-25T16:59:05.000Z</time>
        <extensions>
          <ns3:TrackPointExtension>
            <ns3:hr>73</ns3:hr>
            <ns3:cad>0</ns3:cad>
          </ns3:TrackPointExtension>
        </extensions>
      </trkpt>
      <trkpt lat="38.04644764401018619537353515625" lon="-106.94466023705899715423583984375">
        <ele>3859.800048828125</ele>
        <time>2026-05-25T16:59:06.000Z</time>
        <extensions>
          <ns3:TrackPointExtension>
            <ns3:hr>70</ns3:hr>
            <ns3:cad>0</ns3:cad>
          </ns3:TrackPointExtension>
        </extensions>
      </trkpt>
      <trkpt lat="38.04645636118948459625244140625" lon="-106.94465973414480686187744140625">
        <ele>3859.199951171875</ele>
        <time>2026-05-25T16:59:08.000Z</time>
        <extensions>
          <ns3:TrackPointExtension>
            <ns3:hr>67</ns3:hr>
            <ns3:cad>0</ns3:cad>
          </ns3:TrackPointExtension>
        </extensions>
      </trkpt>
      <trkpt lat="38.04646767675876617431640625" lon="-106.94465688429772853851318359375">
        <ele>3859</ele>
        <time>2026-05-25T16:59:09.000Z</time>
        <extensions>
          <ns3:TrackPointExtension>
            <ns3:hr>65</ns3:hr>
            <ns3:cad>0</ns3:cad>
          </ns3:TrackPointExtension>
        </extensions>
      </trkpt>
      <trkpt lat="38.04648888297379016876220703125" lon="-106.9446631707251071929931640625">
        <ele>3858.800048828125</ele>
        <time>2026-05-25T16:59:10.000Z</time>
        <extensions>
          <ns3:TrackPointExtension>
            <ns3:hr>64</ns3:hr>
            <ns3:cad>0</ns3:cad>
          </ns3:TrackPointExtension>
        </extensions>
      </trkpt>
      <trkpt lat="38.046536743640899658203125" lon="-106.944665014743804931640625">
        <ele>3857.60009765625</ele>
        <time>2026-05-25T16:59:15.000Z</time>
        <extensions>
          <ns3:TrackPointExtension>
            <ns3:hr>62</ns3:hr>
            <ns3:cad>0</ns3:cad>
          </ns3:TrackPointExtension>
        </extensions>
      </trkpt>
      <trkpt lat="38.046591393649578094482421875" lon="-106.94464414380490779876708984375">
        <ele>3856.39990234375</ele>
        <time>2026-05-25T16:59:21.000Z</time>
        <extensions>
          <ns3:TrackPointExtension>
            <ns3:hr>62</ns3:hr>
            <ns3:cad>0</ns3:cad>
          </ns3:TrackPointExtension>
        </extensions>
      </trkpt>
      <trkpt lat="38.0465970933437347412109375" lon="-106.94464623928070068359375">
        <ele>3856.199951171875</ele>
        <time>2026-05-25T16:59:22.000Z</time>
        <extensions>
          <ns3:TrackPointExtension>
            <ns3:hr>62</ns3:hr>
            <ns3:cad>0</ns3:cad>
          </ns3:TrackPointExtension>
        </extensions>
      </trkpt>
      <trkpt lat="38.04663104005157947540283203125" lon="-106.94465118460357189178466796875">
        <ele>3855.199951171875</ele>
        <time>2026-05-25T16:59:25.000Z</time>
        <extensions>
          <ns3:TrackPointExtension>
            <ns3:hr>62</ns3:hr>
            <ns3:cad>0</ns3:cad>
          </ns3:TrackPointExtension>
        </extensions>
      </trkpt>
      <trkpt lat="38.0466482229530811309814453125" lon="-106.94464179687201976776123046875">
        <ele>3854.199951171875</ele>
        <time>2026-05-25T16:59:28.000Z</time>
        <extensions>
          <ns3:TrackPointExtension>
            <ns3:hr>61</ns3:hr>
            <ns3:cad>0</ns3:cad>
          </ns3:TrackPointExtension>
        </extensions>
      </trkpt>
      <trkpt lat="38.04666557349264621734619140625" lon="-106.94464045576751232147216796875">
        <ele>3853.39990234375</ele>
        <time>2026-05-25T16:59:31.000Z</time>
        <extensions>
          <ns3:TrackPointExtension>
            <ns3:hr>62</ns3:hr>
            <ns3:cad>55</ns3:cad>
          </ns3:TrackPointExtension>
        </extensions>
      </trkpt>
      <trkpt lat="38.04669566452503204345703125" lon="-106.9446299783885478973388671875">
        <ele>3852.800048828125</ele>
        <time>2026-05-25T16:59:33.000Z</time>
        <extensions>
          <ns3:TrackPointExtension>
            <ns3:hr>63</ns3:hr>
            <ns3:cad>56</ns3:cad>
          </ns3:TrackPointExtension>
        </extensions>
      </trkpt>
      <trkpt lat="38.0467303656041622161865234375" lon="-106.9446199201047420501708984375">
        <ele>3851.800048828125</ele>
        <time>2026-05-25T16:59:37.000Z</time>
        <extensions>
          <ns3:TrackPointExtension>
            <ns3:hr>65</ns3:hr>
            <ns3:cad>55</ns3:cad>
          </ns3:TrackPointExtension>
        </extensions>
      </trkpt>
      <trkpt lat="38.04679683409631252288818359375" lon="-106.94459066726267337799072265625">
        <ele>3850.800048828125</ele>
        <time>2026-05-25T16:59:43.000Z</time>
        <extensions>
          <ns3:TrackPointExtension>
            <ns3:hr>67</ns3:hr>
            <ns3:cad>57</ns3:cad>
          </ns3:TrackPointExtension>
        </extensions>
      </trkpt>
      <trkpt lat="38.04681510664522647857666015625" lon="-106.9445778429508209228515625">
        <ele>3850.60009765625</ele>
        <time>2026-05-25T16:59:44.000Z</time>
        <extensions>
          <ns3:TrackPointExtension>
            <ns3:hr>67</ns3:hr>
            <ns3:cad>57</ns3:cad>
          </ns3:TrackPointExtension>
        </extensions>
      </trkpt>
      <trkpt lat="38.04687813855707645416259765625" lon="-106.94455261342227458953857421875">
        <ele>3849.39990234375</ele>
        <time>2026-05-25T16:59:50.000Z</time>
        <extensions>
          <ns3:TrackPointExtension>
            <ns3:hr>70</ns3:hr>
            <ns3:cad>55</ns3:cad>
          </ns3:TrackPointExtension>
        </extensions>
      </trkpt>
      <trkpt lat="38.04687813855707645416259765625" lon="-106.94455261342227458953857421875">
        <ele>3849.199951171875</ele>
        <time>2026-05-25T16:59:51.000Z</time>
        <extensions>
          <ns3:TrackPointExtension>
            <ns3:hr>73</ns3:hr>
            <ns3:cad>55</ns3:cad>
          </ns3:TrackPointExtension>
        </extensions>
      </trkpt>
      <trkpt lat="38.0469057150185108184814453125" lon="-106.9445485062897205352783203125">
        <ele>3849</ele>
        <time>2026-05-25T16:59:53.000Z</time>
        <extensions>
          <ns3:TrackPointExtension>
            <ns3:hr>78</ns3:hr>
            <ns3:cad>55</ns3:cad>
          </ns3:TrackPointExtension>
        </extensions>
      </trkpt>
      <trkpt lat="38.04694804362952709197998046875" lon="-106.9445330835878849029541015625">
        <ele>3848.39990234375</ele>
        <time>2026-05-25T16:59:57.000Z</time>
        <extensions>
          <ns3:TrackPointExtension>
            <ns3:hr>80</ns3:hr>
            <ns3:cad>55</ns3:cad>
          </ns3:TrackPointExtension>
        </extensions>
      </trkpt>
      <trkpt lat="38.04697235114872455596923828125" lon="-106.94452327676117420196533203125">
        <ele>3848.199951171875</ele>
        <time>2026-05-25T16:59:58.000Z</time>
        <extensions>
          <ns3:TrackPointExtension>
            <ns3:hr>80</ns3:hr>
            <ns3:cad>55</ns3:cad>
          </ns3:TrackPointExtension>
        </extensions>
      </trkpt>
      <trkpt lat="38.04703253321349620819091796875" lon="-106.9445019029080867767333984375">
        <ele>3847</ele>
        <time>2026-05-25T17:00:03.000Z</time>
        <extensions>
          <ns3:TrackPointExtension>
            <ns3:hr>81</ns3:hr>
            <ns3:cad>53</ns3:cad>
          </ns3:TrackPointExtension>
        </extensions>
      </trkpt>
      <trkpt lat="38.04704376496374607086181640625" lon="-106.944497711956501007080078125">
        <ele>3846.60009765625</ele>
        <time>2026-05-25T17:00:05.000Z</time>
        <extensions>
          <ns3:TrackPointExtension>
            <ns3:hr>82</ns3:hr>
            <ns3:cad>53</ns3:cad>
          </ns3:TrackPointExtension>
        </extensions>
      </trkpt>
      <trkpt lat="38.0470934696495532989501953125" lon="-106.94447365589439868927001953125">
        <ele>3846</ele>
        <time>2026-05-25T17:00:09.000Z</time>
        <extensions>
          <ns3:TrackPointExtension>
            <ns3:hr>83</ns3:hr>
            <ns3:cad>0</ns3:cad>
          </ns3:TrackPointExtension>
        </extensions>
      </trkpt>
      <trkpt lat="38.04710025899112224578857421875" lon="-106.94447047077119350433349609375">
        <ele>3845.60009765625</ele>
        <time>2026-05-25T17:00:11.000Z</time>
        <extensions>
          <ns3:TrackPointExtension>
            <ns3:hr>83</ns3:hr>
            <ns3:cad>71</ns3:cad>
          </ns3:TrackPointExtension>
        </extensions>
      </trkpt>
      <trkpt lat="38.04714501835405826568603515625" lon="-106.94444029591977596282958984375">
        <ele>3844.800048828125</ele>
        <time>2026-05-25T17:00:16.000Z</time>
        <extensions>
          <ns3:TrackPointExtension>
            <ns3:hr>82</ns3:hr>
            <ns3:cad>71</ns3:cad>
          </ns3:TrackPointExtension>
        </extensions>
      </trkpt>
      <trkpt lat="38.04715440608561038970947265625" lon="-106.94443241693079471588134765625">
        <ele>3844.60009765625</ele>
        <time>2026-05-25T17:00:17.000Z</time>
        <extensions>
          <ns3:TrackPointExtension>
            <ns3:hr>82</ns3:hr>
            <ns3:cad>71</ns3:cad>
          </ns3:TrackPointExtension>
        </extensions>
      </trkpt>
      <trkpt lat="38.04717309772968292236328125" lon="-106.9444137252867221832275390625">
        <ele>3843.60009765625</ele>
        <time>2026-05-25T17:00:20.000Z</time>
        <extensions>
          <ns3:TrackPointExtension>
            <ns3:hr>80</ns3:hr>
            <ns3:cad>53</ns3:cad>
          </ns3:TrackPointExtension>
        </extensions>
      </trkpt>
      <trkpt lat="38.0472178570926189422607421875" lon="-106.94437122903764247894287109375">
        <ele>3842.800048828125</ele>
        <time>2026-05-25T17:00:24.000Z</time>
        <extensions>
          <ns3:TrackPointExtension>
            <ns3:hr>80</ns3:hr>
            <ns3:cad>56</ns3:cad>
          </ns3:TrackPointExtension>
        </extensions>
      </trkpt>
      <trkpt lat="38.047249205410480499267578125" lon="-106.94435345940291881561279296875">
        <ele>3842.39990234375</ele>
        <time>2026-05-25T17:00:28.000Z</time>
        <extensions>
          <ns3:TrackPointExtension>
            <ns3:hr>80</ns3:hr>
            <ns3:cad>56</ns3:cad>
          </ns3:TrackPointExtension>
        </extensions>
      </trkpt>
      <trkpt lat="38.04727057926356792449951171875" lon="-106.9443349353969097137451171875">
        <ele>3841.60009765625</ele>
        <time>2026-05-25T17:00:31.000Z</time>
        <extensions>
          <ns3:TrackPointExtension>
            <ns3:hr>82</ns3:hr>
            <ns3:cad>0</ns3:cad>
          </ns3:TrackPointExtension>
        </extensions>
      </trkpt>
      <trkpt lat="38.04729924537241458892822265625" lon="-106.9443235360085964202880859375">
        <ele>3841.199951171875</ele>
        <time>2026-05-25T17:00:33.000Z</time>
        <extensions>
          <ns3:TrackPointExtension>
            <ns3:hr>82</ns3:hr>
            <ns3:cad>0</ns3:cad>
          </ns3:TrackPointExtension>
        </extensions>
      </trkpt>
      <trkpt lat="38.04735221900045871734619140625" lon="-106.944301240146160125732421875">
        <ele>3840.199951171875</ele>
        <time>2026-05-25T17:00:38.000Z</time>
        <extensions>
          <ns3:TrackPointExtension>
            <ns3:hr>80</ns3:hr>
            <ns3:cad>59</ns3:cad>
          </ns3:TrackPointExtension>
        </extensions>
      </trkpt>
      <trkpt lat="38.047363199293613433837890625" lon="-106.944293193519115447998046875">
        <ele>3840</ele>
        <time>2026-05-25T17:00:39.000Z</time>
        <extensions>
          <ns3:TrackPointExtension>
            <ns3:hr>81</ns3:hr>
            <ns3:cad>59</ns3:cad>
          </ns3:TrackPointExtension>
        </extensions>
      </trkpt>
      <trkpt lat="38.047398068010807037353515625" lon="-106.94428506307303905487060546875">
        <ele>3839.199951171875</ele>
        <time>2026-05-25T17:00:43.000Z</time>
        <extensions>
          <ns3:TrackPointExtension>
            <ns3:hr>80</ns3:hr>
            <ns3:cad>59</ns3:cad>
          </ns3:TrackPointExtension>
        </extensions>
      </trkpt>
      <trkpt lat="38.04742715321481227874755859375" lon="-106.94427366368472576141357421875">
        <ele>3838</ele>
        <time>2026-05-25T17:00:46.000Z</time>
        <extensions>
          <ns3:TrackPointExtension>
            <ns3:hr>79</ns3:hr>
            <ns3:cad>55</ns3:cad>
          </ns3:TrackPointExtension>
        </extensions>
      </trkpt>
      <trkpt lat="38.0474481917917728424072265625" lon="-106.94427601061761379241943359375">
        <ele>3837.800048828125</ele>
        <time>2026-05-25T17:00:47.000Z</time>
        <extensions>
          <ns3:TrackPointExtension>
            <ns3:hr>79</ns3:hr>
            <ns3:cad>55</ns3:cad>
          </ns3:TrackPointExtension>
        </extensions>
      </trkpt>
      <trkpt lat="38.04747358895838260650634765625" lon="-106.94426469504833221435546875">
        <ele>3837.39990234375</ele>
        <time>2026-05-25T17:00:50.000Z</time>
        <extensions>
          <ns3:TrackPointExtension>
            <ns3:hr>76</ns3:hr>
            <ns3:cad>55</ns3:cad>
          </ns3:TrackPointExtension>
        </extensions>
      </trkpt>
      <trkpt lat="38.04749772883951663970947265625" lon="-106.94426159374415874481201171875">
        <ele>3837</ele>
        <time>2026-05-25T17:00:53.000Z</time>
        <extensions>
          <ns3:TrackPointExtension>
            <ns3:hr>74</ns3:hr>
            <ns3:cad>53</ns3:cad>
          </ns3:TrackPointExtension>
        </extensions>
      </trkpt>
      <trkpt lat="38.04749772883951663970947265625" lon="-106.94426159374415874481201171875">
        <ele>3836.800048828125</ele>
        <time>2026-05-25T17:00:54.000Z</time>
        <extensions>
          <ns3:TrackPointExtension>
            <ns3:hr>73</ns3:hr>
            <ns3:cad>53</ns3:cad>
          </ns3:TrackPointExtension>
        </extensions>
      </trkpt>
      <trkpt lat="38.04755724035203456878662109375" lon="-106.944256983697414398193359375">
        <ele>3835.800048828125</ele>
        <time>2026-05-25T17:00:58.000Z</time>
        <extensions>
          <ns3:TrackPointExtension>
            <ns3:hr>71</ns3:hr>
            <ns3:cad>54</ns3:cad>
          </ns3:TrackPointExtension>
        </extensions>
      </trkpt>
      <trkpt lat="38.047567047178745269775390625" lon="-106.94425396621227264404296875">
        <ele>3835.199951171875</ele>
        <time>2026-05-25T17:01:00.000Z</time>
        <extensions>
          <ns3:TrackPointExtension>
            <ns3:hr>71</ns3:hr>
            <ns3:cad>54</ns3:cad>
          </ns3:TrackPointExtension>
        </extensions>
      </trkpt>
      <trkpt lat="38.0475893430411815643310546875" lon="-106.94425941444933414459228515625">
        <ele>3834.800048828125</ele>
        <time>2026-05-25T17:01:02.000Z</time>
        <extensions>
          <ns3:TrackPointExtension>
            <ns3:hr>70</ns3:hr>
            <ns3:cad>0</ns3:cad>
          </ns3:TrackPointExtension>
        </extensions>
      </trkpt>
      <trkpt lat="38.047640807926654815673828125" lon="-106.94425438530743122100830078125">
        <ele>3834</ele>
        <time>2026-05-25T17:01:07.000Z</time>
        <extensions>
          <ns3:TrackPointExtension>
            <ns3:hr>69</ns3:hr>
            <ns3:cad>0</ns3:cad>
          </ns3:TrackPointExtension>
        </extensions>
      </trkpt>
      <trkpt lat="38.04765111766755580902099609375" lon="-106.9442524574697017669677734375">
        <ele>3833.60009765625</ele>
        <time>2026-05-25T17:01:08.000Z</time>
        <extensions>
          <ns3:TrackPointExtension>
            <ns3:hr>69</ns3:hr>
            <ns3:cad>19</ns3:cad>
          </ns3:TrackPointExtension>
        </extensions>
      </trkpt>
      <trkpt lat="38.04767140187323093414306640625" lon="-106.94426125846803188323974609375">
        <ele>3833.199951171875</ele>
        <time>2026-05-25T17:01:09.000Z</time>
        <extensions>
          <ns3:TrackPointExtension>
            <ns3:hr>69</ns3:hr>
            <ns3:cad>19</ns3:cad>
          </ns3:TrackPointExtension>
        </extensions>
      </trkpt>
      <trkpt lat="38.04768766276538372039794921875" lon="-106.944272406399250030517578125">
        <ele>3832.60009765625</ele>
        <time>2026-05-25T17:01:11.000Z</time>
        <extensions>
          <ns3:TrackPointExtension>
            <ns3:hr>70</ns3:hr>
            <ns3:cad>19</ns3:cad>
          </ns3:TrackPointExtension>
        </extensions>
      </trkpt>
      <trkpt lat="38.04770149290561676025390625" lon="-106.94427944719791412353515625">
        <ele>3832.199951171875</ele>
        <time>2026-05-25T17:01:13.000Z</time>
        <extensions>
          <ns3:TrackPointExtension>
            <ns3:hr>72</ns3:hr>
            <ns3:cad>19</ns3:cad>
          </ns3:TrackPointExtension>
        </extensions>
      </trkpt>
      <trkpt lat="38.04772269912064075469970703125" lon="-106.9442866556346416473388671875">
        <ele>3831.39990234375</ele>
        <time>2026-05-25T17:01:16.000Z</time>
        <extensions>
          <ns3:TrackPointExtension>
            <ns3:hr>73</ns3:hr>
            <ns3:cad>19</ns3:cad>
          </ns3:TrackPointExtension>
        </extensions>
      </trkpt>
      <trkpt lat="38.04774365387856960296630859375" lon="-106.94427349604666233062744140625">
        <ele>3831</ele>
        <time>2026-05-25T17:01:18.000Z</time>
        <extensions>
          <ns3:TrackPointExtension>
            <ns3:hr>74</ns3:hr>
            <ns3:cad>0</ns3:cad>
          </ns3:TrackPointExtension>
        </extensions>
      </trkpt>
      <trkpt lat="38.04774365387856960296630859375" lon="-106.94427349604666233062744140625">
        <ele>3830.800048828125</ele>
        <time>2026-05-25T17:01:19.000Z</time>
        <extensions>
          <ns3:TrackPointExtension>
            <ns3:hr>75</ns3:hr>
            <ns3:cad>0</ns3:cad>
          </ns3:TrackPointExtension>
        </extensions>
      </trkpt>
      <trkpt lat="38.04776947014033794403076171875" lon="-106.944244243204593658447265625">
        <ele>3830.39990234375</ele>
        <time>2026-05-25T17:01:23.000Z</time>
        <extensions>
          <ns3:TrackPointExtension>
            <ns3:hr>74</ns3:hr>
            <ns3:cad>0</ns3:cad>
          </ns3:TrackPointExtension>
        </extensions>
      </trkpt>
      <trkpt lat="38.04777198471128940582275390625" lon="-106.94422806613147258758544921875">
        <ele>3829.60009765625</ele>
        <time>2026-05-25T17:01:26.000Z</time>
        <extensions>
          <ns3:TrackPointExtension>
            <ns3:hr>72</ns3:hr>
            <ns3:cad>0</ns3:cad>
          </ns3:TrackPointExtension>
        </extensions>
      </trkpt>
      <trkpt lat="38.04776988923549652099609375" lon="-106.9442256353795528411865234375">
        <ele>3829.39990234375</ele>
        <time>2026-05-25T17:01:28.000Z</time>
        <extensions>
          <ns3:TrackPointExtension>
            <ns3:hr>72</ns3:hr>
            <ns3:cad>0</ns3:cad>
          </ns3:TrackPointExtension>
        </extensions>
      </trkpt>
      <trkpt lat="38.04778120480477809906005859375" lon="-106.94423963315784931182861328125">
        <ele>3829.199951171875</ele>
        <time>2026-05-25T17:01:32.000Z</time>
        <extensions>
          <ns3:TrackPointExtension>
            <ns3:hr>69</ns3:hr>
            <ns3:cad>0</ns3:cad>
          </ns3:TrackPointExtension>
        </extensions>
      </trkpt>
      <trkpt lat="38.04783769883215427398681640625" lon="-106.9442444108426570892333984375">
        <ele>3829</ele>
        <time>2026-05-25T17:01:38.000Z</time>
        <extensions>
          <ns3:TrackPointExtension>
            <ns3:hr>67</ns3:hr>
            <ns3:cad>52</ns3:cad>
          </ns3:TrackPointExtension>
        </extensions>
      </trkpt>
      <trkpt lat="38.04789620451629161834716796875" lon="-106.944236196577548980712890625">
        <ele>3828.199951171875</ele>
        <time>2026-05-25T17:01:43.000Z</time>
        <extensions>
          <ns3:TrackPointExtension>
            <ns3:hr>68</ns3:hr>
            <ns3:cad>0</ns3:cad>
          </ns3:TrackPointExtension>
        </extensions>
      </trkpt>
      <trkpt lat="38.04792436771094799041748046875" lon="-106.94422806613147258758544921875">
        <ele>3827.800048828125</ele>
        <time>2026-05-25T17:01:46.000Z</time>
        <extensions>
          <ns3:TrackPointExtension>
            <ns3:hr>68</ns3:hr>
            <ns3:cad>0</ns3:cad>
          </ns3:TrackPointExtension>
        </extensions>
      </trkpt>
      <trkpt lat="38.0479454062879085540771484375" lon="-106.94422873668372631072998046875">
        <ele>3827</ele>
        <time>2026-05-25T17:01:49.000Z</time>
        <extensions>
          <ns3:TrackPointExtension>
            <ns3:hr>68</ns3:hr>
            <ns3:cad>55</ns3:cad>
          </ns3:TrackPointExtension>
        </extensions>
      </trkpt>
      <trkpt lat="38.0479950271546840667724609375" lon="-106.94422806613147258758544921875">
        <ele>3826.199951171875</ele>
        <time>2026-05-25T17:01:54.000Z</time>
        <extensions>
          <ns3:TrackPointExtension>
            <ns3:hr>71</ns3:hr>
            <ns3:cad>53</ns3:cad>
          </ns3:TrackPointExtension>
        </extensions>
      </trkpt>
      <trkpt lat="38.04800550453364849090576171875" lon="-106.9442303292453289031982421875">
        <ele>3826.199951171875</ele>
        <time>2026-05-25T17:01:55.000Z</time>
        <extensions>
          <ns3:TrackPointExtension>
            <ns3:hr>71</ns3:hr>
            <ns3:cad>53</ns3:cad>
          </ns3:TrackPointExtension>
        </extensions>
      </trkpt>
      <trkpt lat="38.048025034368038177490234375" lon="-106.944232173264026641845703125">
        <ele>3825.800048828125</ele>
        <time>2026-05-25T17:01:57.000Z</time>
        <extensions>
          <ns3:TrackPointExtension>
            <ns3:hr>71</ns3:hr>
            <ns3:cad>53</ns3:cad>
          </ns3:TrackPointExtension>
        </extensions>
      </trkpt>
      <trkpt lat="38.04803484119474887847900390625" lon="-106.94423108361661434173583984375">
        <ele>3825.39990234375</ele>
        <time>2026-05-25T17:01:59.000Z</time>
        <extensions>
          <ns3:TrackPointExtension>
            <ns3:hr>74</ns3:hr>
            <ns3:cad>0</ns3:cad>
          </ns3:TrackPointExtension>
        </extensions>
      </trkpt>
      <trkpt lat="38.04805361665785312652587890625" lon="-106.9442279823124408721923828125">
        <ele>3824.800048828125</ele>
        <time>2026-05-25T17:02:01.000Z</time>
        <extensions>
          <ns3:TrackPointExtension>
            <ns3:hr>78</ns3:hr>
            <ns3:cad>52</ns3:cad>
          </ns3:TrackPointExtension>
        </extensions>
      </trkpt>
      <trkpt lat="38.04805965162813663482666015625" lon="-106.9442273117601871490478515625">
        <ele>3824.39990234375</ele>
        <time>2026-05-25T17:02:03.000Z</time>
        <extensions>
          <ns3:TrackPointExtension>
            <ns3:hr>78</ns3:hr>
            <ns3:cad>52</ns3:cad>
          </ns3:TrackPointExtension>
        </extensions>
      </trkpt>
      <trkpt lat="38.0480852164328098297119140625" lon="-106.94422119297087192535400390625">
        <ele>3824.39990234375</ele>
        <time>2026-05-25T17:02:06.000Z</time>
        <extensions>
          <ns3:TrackPointExtension>
            <ns3:hr>75</ns3:hr>
            <ns3:cad>0</ns3:cad>
          </ns3:TrackPointExtension>
        </extensions>
      </trkpt>
      <trkpt lat="38.04811681620776653289794921875" lon="-106.94421633146703243255615234375">
        <ele>3824</ele>
        <time>2026-05-25T17:02:09.000Z</time>
        <extensions>
          <ns3:TrackPointExtension>
            <ns3:hr>74</ns3:hr>
            <ns3:cad>0</ns3:cad>
          </ns3:TrackPointExtension>
        </extensions>
      </trkpt>
      <trkpt lat="38.04811681620776653289794921875" lon="-106.94421633146703243255615234375">
        <ele>3823.800048828125</ele>
        <time>2026-05-25T17:02:10.000Z</time>
        <extensions>
          <ns3:TrackPointExtension>
            <ns3:hr>70</ns3:hr>
            <ns3:cad>0</ns3:cad>
          </ns3:TrackPointExtension>
        </extensions>
      </trkpt>
      <trkpt lat="38.04812536574900150299072265625" lon="-106.944214738905429840087890625">
        <ele>3823.60009765625</ele>
        <time>2026-05-25T17:02:11.000Z</time>
        <extensions>
          <ns3:TrackPointExtension>
            <ns3:hr>71</ns3:hr>
            <ns3:cad>55</ns3:cad>
          </ns3:TrackPointExtension>
        </extensions>
      </trkpt>
      <trkpt lat="38.04815386421978473663330078125" lon="-106.9442232884466648101806640625">
        <ele>3822.39990234375</ele>
        <time>2026-05-25T17:02:14.000Z</time>
        <extensions>
          <ns3:TrackPointExtension>
            <ns3:hr>70</ns3:hr>
            <ns3:cad>55</ns3:cad>
          </ns3:TrackPointExtension>
        </extensions>
      </trkpt>
      <trkpt lat="38.04816425777971744537353515625" lon="-106.94422035478055477142333984375">
        <ele>3821.60009765625</ele>
        <time>2026-05-25T17:02:16.000Z</time>
        <extensions>
          <ns3:TrackPointExtension>
            <ns3:hr>69</ns3:hr>
            <ns3:cad>55</ns3:cad>
          </ns3:TrackPointExtension>
        </extensions>
      </trkpt>
      <trkpt lat="38.04817833937704563140869140625" lon="-106.94420191459357738494873046875">
        <ele>3821.39990234375</ele>
        <time>2026-05-25T17:02:18.000Z</time>
        <extensions>
          <ns3:TrackPointExtension>
            <ns3:hr>69</ns3:hr>
            <ns3:cad>0</ns3:cad>
          </ns3:TrackPointExtension>
        </extensions>
      </trkpt>
      <trkpt lat="38.0481992103159427642822265625" lon="-106.9441954605281352996826171875">
        <ele>3821.199951171875</ele>
        <time>2026-05-25T17:02:21.000Z</time>
        <extensions>
          <ns3:TrackPointExtension>
            <ns3:hr>69</ns3:hr>
            <ns3:cad>0</ns3:cad>
          </ns3:TrackPointExtension>
        </extensions>
      </trkpt>
      <trkpt lat="38.0482562072575092315673828125" lon="-106.94414106197655200958251953125">
        <ele>3820.199951171875</ele>
        <time>2026-05-25T17:02:27.000Z</time>
        <extensions>
          <ns3:TrackPointExtension>
            <ns3:hr>66</ns3:hr>
            <ns3:cad>0</ns3:cad>
          </ns3:TrackPointExtension>
        </extensions>
      </trkpt>
      <trkpt lat="38.04830557666718959808349609375" lon="-106.9441111385822296142578125">
        <ele>3819.199951171875</ele>
        <time>2026-05-25T17:02:32.000Z</time>
        <extensions>
          <ns3:TrackPointExtension>
            <ns3:hr>64</ns3:hr>
            <ns3:cad>0</ns3:cad>
          </ns3:TrackPointExtension>
        </extensions>
      </trkpt>
      <trkpt lat="38.04835905320942401885986328125" lon="-106.9441371224820613861083984375">
        <ele>3818.60009765625</ele>
        <time>2026-05-25T17:02:37.000Z</time>
        <extensions>
          <ns3:TrackPointExtension>
            <ns3:hr>62</ns3:hr>
            <ns3:cad>0</ns3:cad>
          </ns3:TrackPointExtension>
        </extensions>
      </trkpt>
      <trkpt lat="38.048381097614765167236328125" lon="-106.9441693089902400970458984375">
        <ele>3818.199951171875</ele>
        <time>2026-05-25T17:02:40.000Z</time>
        <extensions>
          <ns3:TrackPointExtension>
            <ns3:hr>61</ns3:hr>
            <ns3:cad>0</ns3:cad>
          </ns3:TrackPointExtension>
        </extensions>
      </trkpt>
      <trkpt lat="38.04839358665049076080322265625" lon="-106.94418850354850292205810546875">
        <ele>3818</ele>
        <time>2026-05-25T17:02:42.000Z</time>
        <extensions>
          <ns3:TrackPointExtension>
            <ns3:hr>63</ns3:hr>
            <ns3:cad>0</ns3:cad>
          </ns3:TrackPointExtension>
        </extensions>
      </trkpt>
      <trkpt lat="38.04840230382978916168212890625" lon="-106.94419562816619873046875">
        <ele>3817.800048828125</ele>
        <time>2026-05-25T17:02:44.000Z</time>
        <extensions>
          <ns3:TrackPointExtension>
            <ns3:hr>67</ns3:hr>
            <ns3:cad>0</ns3:cad>
          </ns3:TrackPointExtension>
        </extensions>
      </trkpt>
      <trkpt lat="38.0484315566718578338623046875" lon="-106.9442296586930751800537109375">
        <ele>3817</ele>
        <time>2026-05-25T17:02:48.000Z</time>
        <extensions>
          <ns3:TrackPointExtension>
            <ns3:hr>67</ns3:hr>
            <ns3:cad>0</ns3:cad>
          </ns3:TrackPointExtension>
        </extensions>
      </trkpt>
      <trkpt lat="38.048467934131622314453125" lon="-106.94425405003130435943603515625">
        <ele>3816.39990234375</ele>
        <time>2026-05-25T17:02:52.000Z</time>
        <extensions>
          <ns3:TrackPointExtension>
            <ns3:hr>67</ns3:hr>
            <ns3:cad>0</ns3:cad>
          </ns3:TrackPointExtension>
        </extensions>
      </trkpt>
      <trkpt lat="38.04846717976033687591552734375" lon="-106.9442571513354778289794921875">
        <ele>3816.39990234375</ele>
        <time>2026-05-25T17:02:58.000Z</time>
        <extensions>
          <ns3:TrackPointExtension>
            <ns3:hr>65</ns3:hr>
            <ns3:cad>0</ns3:cad>
          </ns3:TrackPointExtension>
        </extensions>
      </trkpt>
      <trkpt lat="38.04847992025315761566162109375" lon="-106.944271735846996307373046875">
        <ele>3816</ele>
        <time>2026-05-25T17:03:00.000Z</time>
        <extensions>
          <ns3:TrackPointExtension>
            <ns3:hr>64</ns3:hr>
            <ns3:cad>0</ns3:cad>
          </ns3:TrackPointExtension>
        </extensions>
      </trkpt>
      <trkpt lat="38.0485284514725208282470703125" lon="-106.9443081133067607879638671875">
        <ele>3815.39990234375</ele>
        <time>2026-05-25T17:03:06.000Z</time>
        <extensions>
          <ns3:TrackPointExtension>
            <ns3:hr>66</ns3:hr>
            <ns3:cad>47</ns3:cad>
          </ns3:TrackPointExtension>
        </extensions>
      </trkpt>
      <trkpt lat="38.0485334806144237518310546875" lon="-106.94431238807737827301025390625">
        <ele>3815.39990234375</ele>
        <time>2026-05-25T17:03:07.000Z</time>
        <extensions>
          <ns3:TrackPointExtension>
            <ns3:hr>66</ns3:hr>
            <ns3:cad>47</ns3:cad>
          </ns3:TrackPointExtension>
        </extensions>
      </trkpt>
      <trkpt lat="38.0485492385923862457275390625" lon="-106.94434306584298610687255859375">
        <ele>3815.199951171875</ele>
        <time>2026-05-25T17:03:09.000Z</time>
        <extensions>
          <ns3:TrackPointExtension>
            <ns3:hr>66</ns3:hr>
            <ns3:cad>69</ns3:cad>
          </ns3:TrackPointExtension>
        </extensions>
      </trkpt>
      <trkpt lat="38.048560135066509246826171875" lon="-106.9443439878523349761962890625">
        <ele>3815</ele>
        <time>2026-05-25T17:03:10.000Z</time>
        <extensions>
          <ns3:TrackPointExtension>
            <ns3:hr>66</ns3:hr>
            <ns3:cad>69</ns3:cad>
          </ns3:TrackPointExtension>
        </extensions>
      </trkpt>
      <trkpt lat="38.04859357886016368865966796875" lon="-106.9443563930690288543701171875">
        <ele>3814.60009765625</ele>
        <time>2026-05-25T17:03:13.000Z</time>
        <extensions>
          <ns3:TrackPointExtension>
            <ns3:hr>67</ns3:hr>
            <ns3:cad>69</ns3:cad>
          </ns3:TrackPointExtension>
        </extensions>
      </trkpt>
      <trkpt lat="38.04863716475665569305419921875" lon="-106.94435480050742626190185546875">
        <ele>3814</ele>
        <time>2026-05-25T17:03:19.000Z</time>
        <extensions>
          <ns3:TrackPointExtension>
            <ns3:hr>67</ns3:hr>
            <ns3:cad>0</ns3:cad>
          </ns3:TrackPointExtension>
        </extensions>
      </trkpt>
      <trkpt lat="38.04865191690623760223388671875" lon="-106.944366283714771270751953125">
        <ele>3814</ele>
        <time>2026-05-25T17:03:20.000Z</time>
        <extensions>
          <ns3:TrackPointExtension>
            <ns3:hr>68</ns3:hr>
            <ns3:cad>0</ns3:cad>
          </ns3:TrackPointExtension>
        </extensions>
      </trkpt>
      <trkpt lat="38.04866482503712177276611328125" lon="-106.9443785212934017181396484375">
        <ele>3813.199951171875</ele>
        <time>2026-05-25T17:03:24.000Z</time>
        <extensions>
          <ns3:TrackPointExtension>
            <ns3:hr>71</ns3:hr>
            <ns3:cad>0</ns3:cad>
          </ns3:TrackPointExtension>
        </extensions>
      </trkpt>
      <trkpt lat="38.04867002181708812713623046875" lon="-106.94438229314982891082763671875">
        <ele>3812.800048828125</ele>
        <time>2026-05-25T17:03:25.000Z</time>
        <extensions>
          <ns3:TrackPointExtension>
            <ns3:hr>71</ns3:hr>
            <ns3:cad>0</ns3:cad>
          </ns3:TrackPointExtension>
        </extensions>
      </trkpt>
      <trkpt lat="38.04872198961675167083740234375" lon="-106.94439352490007877349853515625">
        <ele>3812</ele>
        <time>2026-05-25T17:03:31.000Z</time>
        <extensions>
          <ns3:TrackPointExtension>
            <ns3:hr>71</ns3:hr>
            <ns3:cad>0</ns3:cad>
          </ns3:TrackPointExtension>
        </extensions>
      </trkpt>
      <trkpt lat="38.048745878040790557861328125" lon="-106.944405175745487213134765625">
        <ele>3811.60009765625</ele>
        <time>2026-05-25T17:03:33.000Z</time>
        <extensions>
          <ns3:TrackPointExtension>
            <ns3:hr>71</ns3:hr>
            <ns3:cad>0</ns3:cad>
          </ns3:TrackPointExtension>
        </extensions>
      </trkpt>
      <trkpt lat="38.04877362214028835296630859375" lon="-106.94442453794181346893310546875">
        <ele>3810.60009765625</ele>
        <time>2026-05-25T17:03:38.000Z</time>
        <extensions>
          <ns3:TrackPointExtension>
            <ns3:hr>72</ns3:hr>
            <ns3:cad>0</ns3:cad>
          </ns3:TrackPointExtension>
        </extensions>
      </trkpt>
      <trkpt lat="38.04880832321941852569580078125" lon="-106.94444918073713779449462890625">
        <ele>3809.199951171875</ele>
        <time>2026-05-25T17:03:42.000Z</time>
        <extensions>
          <ns3:TrackPointExtension>
            <ns3:hr>73</ns3:hr>
            <ns3:cad>0</ns3:cad>
          </ns3:TrackPointExtension>
        </extensions>
      </trkpt>
      <trkpt lat="38.04882575757801532745361328125" lon="-106.9444747455418109893798828125">
        <ele>3808.800048828125</ele>
        <time>2026-05-25T17:03:44.000Z</time>
        <extensions>
          <ns3:TrackPointExtension>
            <ns3:hr>73</ns3:hr>
            <ns3:cad>0</ns3:cad>
          </ns3:TrackPointExtension>
        </extensions>
      </trkpt>
      <trkpt lat="38.04886330850422382354736328125" lon="-106.9444982148706912994384765625">
        <ele>3808</ele>
        <time>2026-05-25T17:03:49.000Z</time>
        <extensions>
          <ns3:TrackPointExtension>
            <ns3:hr>71</ns3:hr>
            <ns3:cad>0</ns3:cad>
          </ns3:TrackPointExtension>
        </extensions>
      </trkpt>
      <trkpt lat="38.04889147169888019561767578125" lon="-106.944496370851993560791015625">
        <ele>3807.800048828125</ele>
        <time>2026-05-25T17:03:51.000Z</time>
        <extensions>
          <ns3:TrackPointExtension>
            <ns3:hr>71</ns3:hr>
            <ns3:cad>0</ns3:cad>
          </ns3:TrackPointExtension>
        </extensions>
      </trkpt>
      <trkpt lat="38.0489334650337696075439453125" lon="-106.9444827921688556671142578125">
        <ele>3807</ele>
        <time>2026-05-25T17:03:55.000Z</time>
        <extensions>
          <ns3:TrackPointExtension>
            <ns3:hr>69</ns3:hr>
            <ns3:cad>72</ns3:cad>
          </ns3:TrackPointExtension>
        </extensions>
      </trkpt>
      <trkpt lat="38.0489542521536350250244140625" lon="-106.94447600282728672027587890625">
        <ele>3806.199951171875</ele>
        <time>2026-05-25T17:03:58.000Z</time>
        <extensions>
          <ns3:TrackPointExtension>
            <ns3:hr>69</ns3:hr>
            <ns3:cad>72</ns3:cad>
          </ns3:TrackPointExtension>
        </extensions>
      </trkpt>
      <trkpt lat="38.048961125314235687255859375" lon="-106.944482624530792236328125">
        <ele>3805.800048828125</ele>
        <time>2026-05-25T17:03:59.000Z</time>
        <extensions>
          <ns3:TrackPointExtension>
            <ns3:hr>68</ns3:hr>
            <ns3:cad>72</ns3:cad>
          </ns3:TrackPointExtension>
        </extensions>
      </trkpt>
      <trkpt lat="38.04901443421840667724609375" lon="-106.94449645467102527618408203125">
        <ele>3804.800048828125</ele>
        <time>2026-05-25T17:04:03.000Z</time>
        <extensions>
          <ns3:TrackPointExtension>
            <ns3:hr>67</ns3:hr>
            <ns3:cad>0</ns3:cad>
          </ns3:TrackPointExtension>
        </extensions>
      </trkpt>
      <trkpt lat="38.04903329350054264068603515625" lon="-106.9444935210049152374267578125">
        <ele>3804.800048828125</ele>
        <time>2026-05-25T17:04:04.000Z</time>
        <extensions>
          <ns3:TrackPointExtension>
            <ns3:hr>67</ns3:hr>
            <ns3:cad>0</ns3:cad>
          </ns3:TrackPointExtension>
        </extensions>
      </trkpt>
      <trkpt lat="38.04906346835196018218994140625" lon="-106.9444978795945644378662109375">
        <ele>3804.39990234375</ele>
        <time>2026-05-25T17:04:07.000Z</time>
        <extensions>
          <ns3:TrackPointExtension>
            <ns3:hr>67</ns3:hr>
            <ns3:cad>0</ns3:cad>
          </ns3:TrackPointExtension>
        </extensions>
      </trkpt>
      <trkpt lat="38.04912096820771694183349609375" lon="-106.9445022381842136383056640625">
        <ele>3804.199951171875</ele>
        <time>2026-05-25T17:04:13.000Z</time>
        <extensions>
          <ns3:TrackPointExtension>
            <ns3:hr>67</ns3:hr>
            <ns3:cad>0</ns3:cad>
          </ns3:TrackPointExtension>
        </extensions>
      </trkpt>
      <trkpt lat="38.049131445586681365966796875" lon="-106.9445029087364673614501953125">
        <ele>3804.199951171875</ele>
        <time>2026-05-25T17:04:14.000Z</time>
        <extensions>
          <ns3:TrackPointExtension>
            <ns3:hr>68</ns3:hr>
            <ns3:cad>18</ns3:cad>
          </ns3:TrackPointExtension>
        </extensions>
      </trkpt>
      <trkpt lat="38.0491544120013713836669921875" lon="-106.94450232200324535369873046875">
        <ele>3803.800048828125</ele>
        <time>2026-05-25T17:04:16.000Z</time>
        <extensions>
          <ns3:TrackPointExtension>
            <ns3:hr>70</ns3:hr>
            <ns3:cad>18</ns3:cad>
          </ns3:TrackPointExtension>
        </extensions>
      </trkpt>
      <trkpt lat="38.04917796514928340911865234375" lon="-106.944508440792560577392578125">
        <ele>3803.199951171875</ele>
        <time>2026-05-25T17:04:18.000Z</time>
        <extensions>
          <ns3:TrackPointExtension>
            <ns3:hr>74</ns3:hr>
            <ns3:cad>54</ns3:cad>
          </ns3:TrackPointExtension>
        </extensions>
      </trkpt>
      <trkpt lat="38.0492016859352588653564453125" lon="-106.94451355375349521636962890625">
        <ele>3803</ele>
        <time>2026-05-25T17:04:20.000Z</time>
        <extensions>
          <ns3:TrackPointExtension>
            <ns3:hr>77</ns3:hr>
            <ns3:cad>54</ns3:cad>
          </ns3:TrackPointExtension>
        </extensions>
      </trkpt>
      <trkpt lat="38.04921233095228672027587890625" lon="-106.9445156492292881011962890625">
        <ele>3802.800048828125</ele>
        <time>2026-05-25T17:04:21.000Z</time>
        <extensions>
          <ns3:TrackPointExtension>
            <ns3:hr>78</ns3:hr>
            <ns3:cad>54</ns3:cad>
          </ns3:TrackPointExtension>
        </extensions>
      </trkpt>
      <trkpt lat="38.04921233095228672027587890625" lon="-106.9445156492292881011962890625">
        <ele>3802.60009765625</ele>
        <time>2026-05-25T17:04:22.000Z</time>
        <extensions>
          <ns3:TrackPointExtension>
            <ns3:hr>79</ns3:hr>
            <ns3:cad>54</ns3:cad>
          </ns3:TrackPointExtension>
        </extensions>
      </trkpt>
      <trkpt lat="38.04925558157265186309814453125" lon="-106.94452864117920398712158203125">
        <ele>3802</ele>
        <time>2026-05-25T17:04:27.000Z</time>
        <extensions>
          <ns3:TrackPointExtension>
            <ns3:hr>78</ns3:hr>
            <ns3:cad>0</ns3:cad>
          </ns3:TrackPointExtension>
        </extensions>
      </trkpt>
      <trkpt lat="38.04926656186580657958984375" lon="-106.94452780298888683319091796875">
        <ele>3802</ele>
        <time>2026-05-25T17:04:28.000Z</time>
        <extensions>
          <ns3:TrackPointExtension>
            <ns3:hr>78</ns3:hr>
            <ns3:cad>0</ns3:cad>
          </ns3:TrackPointExtension>
        </extensions>
      </trkpt>
      <trkpt lat="38.04927938617765903472900390625" lon="-106.944524534046649932861328125">
        <ele>3801.800048828125</ele>
        <time>2026-05-25T17:04:30.000Z</time>
        <extensions>
          <ns3:TrackPointExtension>
            <ns3:hr>74</ns3:hr>
            <ns3:cad>0</ns3:cad>
          </ns3:TrackPointExtension>
        </extensions>
      </trkpt>
      <trkpt lat="38.04929313249886035919189453125" lon="-106.94453719072043895721435546875">
        <ele>3801.60009765625</ele>
        <time>2026-05-25T17:04:33.000Z</time>
        <extensions>
          <ns3:TrackPointExtension>
            <ns3:hr>75</ns3:hr>
            <ns3:cad>0</ns3:cad>
          </ns3:TrackPointExtension>
        </extensions>
      </trkpt>
      <trkpt lat="38.049306459724903106689453125" lon="-106.9445550441741943359375">
        <ele>3801.39990234375</ele>
        <time>2026-05-25T17:04:36.000Z</time>
        <extensions>
          <ns3:TrackPointExtension>
            <ns3:hr>78</ns3:hr>
            <ns3:cad>0</ns3:cad>
          </ns3:TrackPointExtension>
        </extensions>
      </trkpt>
      <trkpt lat="38.04933219216763973236083984375" lon="-106.94456887431442737579345703125">
        <ele>3801.199951171875</ele>
        <time>2026-05-25T17:04:38.000Z</time>
        <extensions>
          <ns3:TrackPointExtension>
            <ns3:hr>81</ns3:hr>
            <ns3:cad>41</ns3:cad>
          </ns3:TrackPointExtension>
        </extensions>
      </trkpt>
      <trkpt lat="38.0493582598865032196044921875" lon="-106.94458647631108760833740234375">
        <ele>3801</ele>
        <time>2026-05-25T17:04:40.000Z</time>
        <extensions>
          <ns3:TrackPointExtension>
            <ns3:hr>84</ns3:hr>
            <ns3:cad>77</ns3:cad>
          </ns3:TrackPointExtension>
        </extensions>
      </trkpt>
      <trkpt lat="38.04939840920269489288330078125" lon="-106.9446055032312870025634765625">
        <ele>3800.800048828125</ele>
        <time>2026-05-25T17:04:42.000Z</time>
        <extensions>
          <ns3:TrackPointExtension>
            <ns3:hr>84</ns3:hr>
            <ns3:cad>77</ns3:cad>
          </ns3:TrackPointExtension>
        </extensions>
      </trkpt>
      <trkpt lat="38.04942992515861988067626953125" lon="-106.94463458843529224395751953125">
        <ele>3800.39990234375</ele>
        <time>2026-05-25T17:04:45.000Z</time>
        <extensions>
          <ns3:TrackPointExtension>
            <ns3:hr>85</ns3:hr>
            <ns3:cad>0</ns3:cad>
          </ns3:TrackPointExtension>
        </extensions>
      </trkpt>
      <trkpt lat="38.04943914525210857391357421875" lon="-106.944634504616260528564453125">
        <ele>3800</ele>
        <time>2026-05-25T17:04:47.000Z</time>
        <extensions>
          <ns3:TrackPointExtension>
            <ns3:hr>85</ns3:hr>
            <ns3:cad>0</ns3:cad>
          </ns3:TrackPointExtension>
        </extensions>
      </trkpt>
      <trkpt lat="38.04946772754192352294921875" lon="-106.9446507655084133148193359375">
        <ele>3799.39990234375</ele>
        <time>2026-05-25T17:04:50.000Z</time>
        <extensions>
          <ns3:TrackPointExtension>
            <ns3:hr>82</ns3:hr>
            <ns3:cad>0</ns3:cad>
          </ns3:TrackPointExtension>
        </extensions>
      </trkpt>
      <trkpt lat="38.04948440752923488616943359375" lon="-106.94464565254747867584228515625">
        <ele>3798.199951171875</ele>
        <time>2026-05-25T17:04:54.000Z</time>
        <extensions>
          <ns3:TrackPointExtension>
            <ns3:hr>81</ns3:hr>
            <ns3:cad>0</ns3:cad>
          </ns3:TrackPointExtension>
        </extensions>
      </trkpt>
      <trkpt lat="38.04948625154793262481689453125" lon="-106.94463911466300487518310546875">
        <ele>3798</ele>
        <time>2026-05-25T17:04:55.000Z</time>
        <extensions>
          <ns3:TrackPointExtension>
            <ns3:hr>81</ns3:hr>
            <ns3:cad>0</ns3:cad>
          </ns3:TrackPointExtension>
        </extensions>
      </trkpt>
      <trkpt lat="38.04950670339167118072509765625" lon="-106.94462134502828121185302734375">
        <ele>3798.199951171875</ele>
        <time>2026-05-25T17:05:00.000Z</time>
        <extensions>
          <ns3:TrackPointExtension>
            <ns3:hr>81</ns3:hr>
            <ns3:cad>0</ns3:cad>
          </ns3:TrackPointExtension>
        </extensions>
      </trkpt>
      <trkpt lat="38.04953101091086864471435546875" lon="-106.94459619931876659393310546875">
        <ele>3798</ele>
        <time>2026-05-25T17:05:03.000Z</time>
        <extensions>
          <ns3:TrackPointExtension>
            <ns3:hr>85</ns3:hr>
            <ns3:cad>0</ns3:cad>
          </ns3:TrackPointExtension>
        </extensions>
      </trkpt>
      <trkpt lat="38.04954324848949909210205078125" lon="-106.94455764256417751312255859375">
        <ele>3797.60009765625</ele>
        <time>2026-05-25T17:05:06.000Z</time>
        <extensions>
          <ns3:TrackPointExtension>
            <ns3:hr>87</ns3:hr>
            <ns3:cad>0</ns3:cad>
          </ns3:TrackPointExtension>
        </extensions>
      </trkpt>
      <trkpt lat="38.0495460145175457000732421875" lon="-106.94454339332878589630126953125">
        <ele>3797.199951171875</ele>
        <time>2026-05-25T17:05:10.000Z</time>
        <extensions>
          <ns3:TrackPointExtension>
            <ns3:hr>84</ns3:hr>
            <ns3:cad>0</ns3:cad>
          </ns3:TrackPointExtension>
        </extensions>
      </trkpt>
      <trkpt lat="38.0495460145175457000732421875" lon="-106.94454339332878589630126953125">
        <ele>3797.199951171875</ele>
        <time>2026-05-25T17:05:14.000Z</time>
        <extensions>
          <ns3:TrackPointExtension>
            <ns3:hr>88</ns3:hr>
            <ns3:cad>0</ns3:cad>
          </ns3:TrackPointExtension>
        </extensions>
      </trkpt>
      <trkpt lat="38.04955062456429004669189453125" lon="-106.9445340894162654876708984375">
        <ele>3797</ele>
        <time>2026-05-25T17:05:16.000Z</time>
        <extensions>
          <ns3:TrackPointExtension>
            <ns3:hr>91</ns3:hr>
            <ns3:cad>53</ns3:cad>
          </ns3:TrackPointExtension>
        </extensions>
      </trkpt>
      <trkpt lat="38.04955062456429004669189453125" lon="-106.9445340894162654876708984375">
        <ele>3796.800048828125</ele>
        <time>2026-05-25T17:05:17.000Z</time>
        <extensions>
          <ns3:TrackPointExtension>
            <ns3:hr>91</ns3:hr>
            <ns3:cad>53</ns3:cad>
          </ns3:TrackPointExtension>
        </extensions>
      </trkpt>
      <trkpt lat="38.0495567433536052703857421875" lon="-106.94452696479856967926025390625">
        <ele>3796.60009765625</ele>
        <time>2026-05-25T17:05:18.000Z</time>
        <extensions>
          <ns3:TrackPointExtension>
            <ns3:hr>94</ns3:hr>
            <ns3:cad>53</ns3:cad>
          </ns3:TrackPointExtension>
        </extensions>
      </trkpt>
      <trkpt lat="38.04957744665443897247314453125" lon="-106.94452394731342792510986328125">
        <ele>3796</ele>
        <time>2026-05-25T17:05:20.000Z</time>
        <extensions>
          <ns3:TrackPointExtension>
            <ns3:hr>96</ns3:hr>
            <ns3:cad>0</ns3:cad>
          </ns3:TrackPointExtension>
        </extensions>
      </trkpt>
      <trkpt lat="38.04959253408014774322509765625" lon="-106.9445213489234447479248046875">
        <ele>3796.199951171875</ele>
        <time>2026-05-25T17:05:24.000Z</time>
        <extensions>
          <ns3:TrackPointExtension>
            <ns3:hr>96</ns3:hr>
            <ns3:cad>0</ns3:cad>
          </ns3:TrackPointExtension>
        </extensions>
      </trkpt>
      <trkpt lat="38.0496308393776416778564453125" lon="-106.94448061287403106689453125">
        <ele>3796</ele>
        <time>2026-05-25T17:05:28.000Z</time>
        <extensions>
          <ns3:TrackPointExtension>
            <ns3:hr>96</ns3:hr>
            <ns3:cad>0</ns3:cad>
          </ns3:TrackPointExtension>
        </extensions>
      </trkpt>
      <trkpt lat="38.0496606789529323577880859375" lon="-106.94444398395717144012451171875">
        <ele>3795.39990234375</ele>
        <time>2026-05-25T17:05:34.000Z</time>
        <extensions>
          <ns3:TrackPointExtension>
            <ns3:hr>95</ns3:hr>
            <ns3:cad>55</ns3:cad>
          </ns3:TrackPointExtension>
        </extensions>
      </trkpt>
      <trkpt lat="38.0496767722070217132568359375" lon="-106.9444040022790431976318359375">
        <ele>3795.60009765625</ele>
        <time>2026-05-25T17:05:40.000Z</time>
        <extensions>
          <ns3:TrackPointExtension>
            <ns3:hr>92</ns3:hr>
            <ns3:cad>0</ns3:cad>
          </ns3:TrackPointExtension>
        </extensions>
      </trkpt>
      <trkpt lat="38.04967870004475116729736328125" lon="-106.944403834640979766845703125">
        <ele>3795.39990234375</ele>
        <time>2026-05-25T17:05:41.000Z</time>
        <extensions>
          <ns3:TrackPointExtension>
            <ns3:hr>92</ns3:hr>
            <ns3:cad>0</ns3:cad>
          </ns3:TrackPointExtension>
        </extensions>
      </trkpt>
      <trkpt lat="38.0496750958263874053955078125" lon="-106.94436083547770977020263671875">
        <ele>3795</ele>
        <time>2026-05-25T17:05:47.000Z</time>
        <extensions>
          <ns3:TrackPointExtension>
            <ns3:hr>92</ns3:hr>
            <ns3:cad>0</ns3:cad>
          </ns3:TrackPointExtension>
        </extensions>
      </trkpt>
      <trkpt lat="38.04967216216027736663818359375" lon="-106.94435480050742626190185546875">
        <ele>3795</ele>
        <time>2026-05-25T17:05:48.000Z</time>
        <extensions>
          <ns3:TrackPointExtension>
            <ns3:hr>91</ns3:hr>
            <ns3:cad>0</ns3:cad>
          </ns3:TrackPointExtension>
        </extensions>
      </trkpt>
      <trkpt lat="38.0497039295732975006103515625" lon="-106.94434088654816150665283203125">
        <ele>3795.199951171875</ele>
        <time>2026-05-25T17:05:52.000Z</time>
        <extensions>
          <ns3:TrackPointExtension>
            <ns3:hr>94</ns3:hr>
            <ns3:cad>61</ns3:cad>
          </ns3:TrackPointExtension>
        </extensions>
      </trkpt>
      <trkpt lat="38.04972077719867229461669921875" lon="-106.9443248771131038665771484375">
        <ele>3795.199951171875</ele>
        <time>2026-05-25T17:05:53.000Z</time>
        <extensions>
          <ns3:TrackPointExtension>
            <ns3:hr>95</ns3:hr>
            <ns3:cad>61</ns3:cad>
          </ns3:TrackPointExtension>
        </extensions>
      </trkpt>
      <trkpt lat="38.04972765035927295684814453125" lon="-106.94431188516318798065185546875">
        <ele>3794.800048828125</ele>
        <time>2026-05-25T17:05:55.000Z</time>
        <extensions>
          <ns3:TrackPointExtension>
            <ns3:hr>95</ns3:hr>
            <ns3:cad>49</ns3:cad>
          </ns3:TrackPointExtension>
        </extensions>
      </trkpt>
      <trkpt lat="38.04977509193122386932373046875" lon="-106.94423661567270755767822265625">
        <ele>3793.800048828125</ele>
        <time>2026-05-25T17:06:01.000Z</time>
        <extensions>
          <ns3:TrackPointExtension>
            <ns3:hr>93</ns3:hr>
            <ns3:cad>53</ns3:cad>
          </ns3:TrackPointExtension>
        </extensions>
      </trkpt>
      <trkpt lat="38.049795292317867279052734375" lon="-106.9442132301628589630126953125">
        <ele>3793.800048828125</ele>
        <time>2026-05-25T17:06:04.000Z</time>
        <extensions>
          <ns3:TrackPointExtension>
            <ns3:hr>92</ns3:hr>
            <ns3:cad>0</ns3:cad>
          </ns3:TrackPointExtension>
        </extensions>
      </trkpt>
      <trkpt lat="38.04980560205876827239990234375" lon="-106.9442259706556797027587890625">
        <ele>3793.39990234375</ele>
        <time>2026-05-25T17:06:06.000Z</time>
        <extensions>
          <ns3:TrackPointExtension>
            <ns3:hr>92</ns3:hr>
            <ns3:cad>0</ns3:cad>
          </ns3:TrackPointExtension>
        </extensions>
      </trkpt>
      <trkpt lat="38.0498719029128551483154296875" lon="-106.94425036199390888214111328125">
        <ele>3792.60009765625</ele>
        <time>2026-05-25T17:06:12.000Z</time>
        <extensions>
          <ns3:TrackPointExtension>
            <ns3:hr>91</ns3:hr>
            <ns3:cad>56</ns3:cad>
          </ns3:TrackPointExtension>
        </extensions>
      </trkpt>
      <trkpt lat="38.04991188459098339080810546875" lon="-106.9442675448954105377197265625">
        <ele>3791.60009765625</ele>
        <time>2026-05-25T17:06:16.000Z</time>
        <extensions>
          <ns3:TrackPointExtension>
            <ns3:hr>89</ns3:hr>
            <ns3:cad>56</ns3:cad>
          </ns3:TrackPointExtension>
        </extensions>
      </trkpt>
      <trkpt lat="38.049931414425373077392578125" lon="-106.94427567534148693084716796875">
        <ele>3791.199951171875</ele>
        <time>2026-05-25T17:06:19.000Z</time>
        <extensions>
          <ns3:TrackPointExtension>
            <ns3:hr>86</ns3:hr>
            <ns3:cad>55</ns3:cad>
          </ns3:TrackPointExtension>
        </extensions>
      </trkpt>
      <trkpt lat="38.04993149824440479278564453125" lon="-106.94425958208739757537841796875">
        <ele>3790.800048828125</ele>
        <time>2026-05-25T17:06:21.000Z</time>
        <extensions>
          <ns3:TrackPointExtension>
            <ns3:hr>85</ns3:hr>
            <ns3:cad>52</ns3:cad>
          </ns3:TrackPointExtension>
        </extensions>
      </trkpt>
      <trkpt lat="38.0499389581382274627685546875" lon="-106.94426176138222217559814453125">
        <ele>3790.60009765625</ele>
        <time>2026-05-25T17:06:23.000Z</time>
        <extensions>
          <ns3:TrackPointExtension>
            <ns3:hr>83</ns3:hr>
            <ns3:cad>0</ns3:cad>
          </ns3:TrackPointExtension>
        </extensions>
      </trkpt>
      <trkpt lat="38.049944825470447540283203125" lon="-106.9442514516413211822509765625">
        <ele>3790.60009765625</ele>
        <time>2026-05-25T17:06:25.000Z</time>
        <extensions>
          <ns3:TrackPointExtension>
            <ns3:hr>80</ns3:hr>
            <ns3:cad>0</ns3:cad>
          </ns3:TrackPointExtension>
        </extensions>
      </trkpt>
      <trkpt lat="38.0499879084527492523193359375" lon="-106.94416922517120838165283203125">
        <ele>3790</ele>
        <time>2026-05-25T17:06:31.000Z</time>
        <extensions>
          <ns3:TrackPointExtension>
            <ns3:hr>77</ns3:hr>
            <ns3:cad>56</ns3:cad>
          </ns3:TrackPointExtension>
        </extensions>
      </trkpt>
      <trkpt lat="38.0499994754791259765625" lon="-106.9441669620573520660400390625">
        <ele>3789.800048828125</ele>
        <time>2026-05-25T17:06:32.000Z</time>
        <extensions>
          <ns3:TrackPointExtension>
            <ns3:hr>76</ns3:hr>
            <ns3:cad>56</ns3:cad>
          </ns3:TrackPointExtension>
        </extensions>
      </trkpt>
      <trkpt lat="38.050010539591312408447265625" lon="-106.94416143000125885009765625">
        <ele>3789.60009765625</ele>
        <time>2026-05-25T17:06:33.000Z</time>
        <extensions>
          <ns3:TrackPointExtension>
            <ns3:hr>75</ns3:hr>
            <ns3:cad>55</ns3:cad>
          </ns3:TrackPointExtension>
        </extensions>
      </trkpt>
      <trkpt lat="38.05002688430249691009521484375" lon="-106.944152377545833587646484375">
        <ele>3789</ele>
        <time>2026-05-25T17:06:36.000Z</time>
        <extensions>
          <ns3:TrackPointExtension>
            <ns3:hr>75</ns3:hr>
            <ns3:cad>52</ns3:cad>
          </ns3:TrackPointExtension>
        </extensions>
      </trkpt>
      <trkpt lat="38.0500506050884723663330078125" lon="-106.944146342575550079345703125">
        <ele>3788.60009765625</ele>
        <time>2026-05-25T17:06:38.000Z</time>
        <extensions>
          <ns3:TrackPointExtension>
            <ns3:hr>77</ns3:hr>
            <ns3:cad>52</ns3:cad>
          </ns3:TrackPointExtension>
        </extensions>
      </trkpt>
      <trkpt lat="38.0501112900674343109130859375" lon="-106.944103427231311798095703125">
        <ele>3787.60009765625</ele>
        <time>2026-05-25T17:06:43.000Z</time>
        <extensions>
          <ns3:TrackPointExtension>
            <ns3:hr>78</ns3:hr>
            <ns3:cad>57</ns3:cad>
          </ns3:TrackPointExtension>
        </extensions>
      </trkpt>
      <trkpt lat="38.0501263774931430816650390625" lon="-106.944075264036655426025390625">
        <ele>3787.39990234375</ele>
        <time>2026-05-25T17:06:44.000Z</time>
        <extensions>
          <ns3:TrackPointExtension>
            <ns3:hr>78</ns3:hr>
            <ns3:cad>57</ns3:cad>
          </ns3:TrackPointExtension>
        </extensions>
      </trkpt>
      <trkpt lat="38.05011824704706668853759765625" lon="-106.94405657239258289337158203125">
        <ele>3787.199951171875</ele>
        <time>2026-05-25T17:06:45.000Z</time>
        <extensions>
          <ns3:TrackPointExtension>
            <ns3:hr>79</ns3:hr>
            <ns3:cad>57</ns3:cad>
          </ns3:TrackPointExtension>
        </extensions>
      </trkpt>
      <trkpt lat="38.0501136370003223419189453125" lon="-106.94403402507305145263671875">
        <ele>3787</ele>
        <time>2026-05-25T17:06:48.000Z</time>
        <extensions>
          <ns3:TrackPointExtension>
            <ns3:hr>78</ns3:hr>
            <ns3:cad>56</ns3:cad>
          </ns3:TrackPointExtension>
        </extensions>
      </trkpt>
      <trkpt lat="38.05011858232319355010986328125" lon="-106.943943835794925689697265625">
        <ele>3787.39990234375</ele>
        <time>2026-05-25T17:06:54.000Z</time>
        <extensions>
          <ns3:TrackPointExtension>
            <ns3:hr>79</ns3:hr>
            <ns3:cad>50</ns3:cad>
          </ns3:TrackPointExtension>
        </extensions>
      </trkpt>
      <trkpt lat="38.05011221207678318023681640625" lon="-106.9438769482076168060302734375">
        <ele>3787.199951171875</ele>
        <time>2026-05-25T17:07:00.000Z</time>
        <extensions>
          <ns3:TrackPointExtension>
            <ns3:hr>78</ns3:hr>
            <ns3:cad>48</ns3:cad>
          </ns3:TrackPointExtension>
        </extensions>
      </trkpt>
      <trkpt lat="38.05012755095958709716796875" lon="-106.9438290037214756011962890625">
        <ele>3787.39990234375</ele>
        <time>2026-05-25T17:07:03.000Z</time>
        <extensions>
          <ns3:TrackPointExtension>
            <ns3:hr>79</ns3:hr>
            <ns3:cad>46</ns3:cad>
          </ns3:TrackPointExtension>
        </extensions>
      </trkpt>
      <trkpt lat="38.05016552098095417022705078125" lon="-106.943813078105449676513671875">
        <ele>3787.199951171875</ele>
        <time>2026-05-25T17:07:05.000Z</time>
        <extensions>
          <ns3:TrackPointExtension>
            <ns3:hr>80</ns3:hr>
            <ns3:cad>46</ns3:cad>
          </ns3:TrackPointExtension>
        </extensions>
      </trkpt>
      <trkpt lat="38.050202988088130950927734375" lon="-106.94379329681396484375">
        <ele>3787</ele>
        <time>2026-05-25T17:07:08.000Z</time>
        <extensions>
          <ns3:TrackPointExtension>
            <ns3:hr>81</ns3:hr>
            <ns3:cad>0</ns3:cad>
          </ns3:TrackPointExtension>
        </extensions>
      </trkpt>
      <trkpt lat="38.05023643188178539276123046875" lon="-106.9437642954289913177490234375">
        <ele>3787.800048828125</ele>
        <time>2026-05-25T17:07:12.000Z</time>
        <extensions>
          <ns3:TrackPointExtension>
            <ns3:hr>84</ns3:hr>
            <ns3:cad>56</ns3:cad>
          </ns3:TrackPointExtension>
        </extensions>
      </trkpt>
      <trkpt lat="38.050275743007659912109375" lon="-106.9437354616820812225341796875">
        <ele>3788.39990234375</ele>
        <time>2026-05-25T17:07:15.000Z</time>
        <extensions>
          <ns3:TrackPointExtension>
            <ns3:hr>82</ns3:hr>
            <ns3:cad>56</ns3:cad>
          </ns3:TrackPointExtension>
        </extensions>
      </trkpt>
      <trkpt lat="38.05031723342835903167724609375" lon="-106.94367754273116588592529296875">
        <ele>3788.39990234375</ele>
        <time>2026-05-25T17:07:21.000Z</time>
        <extensions>
          <ns3:TrackPointExtension>
            <ns3:hr>85</ns3:hr>
            <ns3:cad>57</ns3:cad>
          </ns3:TrackPointExtension>
        </extensions>
      </trkpt>
      <trkpt lat="38.05032377131283283233642578125" lon="-106.94367050193250179290771484375">
        <ele>3788.39990234375</ele>
        <time>2026-05-25T17:07:22.000Z</time>
        <extensions>
          <ns3:TrackPointExtension>
            <ns3:hr>85</ns3:hr>
            <ns3:cad>57</ns3:cad>
          </ns3:TrackPointExtension>
        </extensions>
      </trkpt>
      <trkpt lat="38.0503221787512302398681640625" lon="-106.94367569871246814727783203125">
        <ele>3787.60009765625</ele>
        <time>2026-05-25T17:07:25.000Z</time>
        <extensions>
          <ns3:TrackPointExtension>
            <ns3:hr>89</ns3:hr>
            <ns3:cad>0</ns3:cad>
          </ns3:TrackPointExtension>
        </extensions>
      </trkpt>
      <trkpt lat="38.0503221787512302398681640625" lon="-106.94367569871246814727783203125">
        <ele>3787.199951171875</ele>
        <time>2026-05-25T17:07:27.000Z</time>
        <extensions>
          <ns3:TrackPointExtension>
            <ns3:hr>91</ns3:hr>
            <ns3:cad>0</ns3:cad>
          </ns3:TrackPointExtension>
        </extensions>
      </trkpt>
      <trkpt lat="38.05032201111316680908203125" lon="-106.9436761178076267242431640625">
        <ele>3785.39990234375</ele>
        <time>2026-05-25T17:07:28.000Z</time>
        <extensions>
          <ns3:TrackPointExtension>
            <ns3:hr>91</ns3:hr>
            <ns3:cad>0</ns3:cad>
          </ns3:TrackPointExtension>
        </extensions>
      </trkpt>
      <trkpt lat="38.0503241904079914093017578125" lon="-106.94368131458759307861328125">
        <ele>3784.39990234375</ele>
        <time>2026-05-25T17:07:29.000Z</time>
        <extensions>
          <ns3:TrackPointExtension>
            <ns3:hr>91</ns3:hr>
            <ns3:cad>0</ns3:cad>
          </ns3:TrackPointExtension>
        </extensions>
      </trkpt>
      <trkpt lat="38.0503272078931331634521484375" lon="-106.94368558935821056365966796875">
        <ele>3784.199951171875</ele>
        <time>2026-05-25T17:07:30.000Z</time>
        <extensions>
          <ns3:TrackPointExtension>
            <ns3:hr>91</ns3:hr>
            <ns3:cad>0</ns3:cad>
          </ns3:TrackPointExtension>
        </extensions>
      </trkpt>
      <trkpt lat="38.05033869110047817230224609375" lon="-106.9436818175017833709716796875">
        <ele>3783.39990234375</ele>
        <time>2026-05-25T17:07:33.000Z</time>
        <extensions>
          <ns3:TrackPointExtension>
            <ns3:hr>89</ns3:hr>
            <ns3:cad>0</ns3:cad>
          </ns3:TrackPointExtension>
        </extensions>
      </trkpt>
      <trkpt lat="38.05037037469446659088134765625" lon="-106.943650133907794952392578125">
        <ele>3783.199951171875</ele>
        <time>2026-05-25T17:07:37.000Z</time>
        <extensions>
          <ns3:TrackPointExtension>
            <ns3:hr>87</ns3:hr>
            <ns3:cad>0</ns3:cad>
          </ns3:TrackPointExtension>
        </extensions>
      </trkpt>
      <trkpt lat="38.05038730613887310028076171875" lon="-106.94358064793050289154052734375">
        <ele>3782.800048828125</ele>
        <time>2026-05-25T17:07:43.000Z</time>
        <extensions>
          <ns3:TrackPointExtension>
            <ns3:hr>88</ns3:hr>
            <ns3:cad>49</ns3:cad>
          </ns3:TrackPointExtension>
        </extensions>
      </trkpt>
      <trkpt lat="38.0503951013088226318359375" lon="-106.943576037883758544921875">
        <ele>3782.199951171875</ele>
        <time>2026-05-25T17:07:45.000Z</time>
        <extensions>
          <ns3:TrackPointExtension>
            <ns3:hr>88</ns3:hr>
            <ns3:cad>50</ns3:cad>
          </ns3:TrackPointExtension>
        </extensions>
      </trkpt>
      <trkpt lat="38.0504138767719268798828125" lon="-106.94353588856756687164306640625">
        <ele>3781.60009765625</ele>
        <time>2026-05-25T17:07:48.000Z</time>
        <extensions>
          <ns3:TrackPointExtension>
            <ns3:hr>89</ns3:hr>
            <ns3:cad>49</ns3:cad>
          </ns3:TrackPointExtension>
        </extensions>
      </trkpt>
      <trkpt lat="38.05042167194187641143798828125" lon="-106.9435264170169830322265625">
        <ele>3781.39990234375</ele>
        <time>2026-05-25T17:07:50.000Z</time>
        <extensions>
          <ns3:TrackPointExtension>
            <ns3:hr>89</ns3:hr>
            <ns3:cad>49</ns3:cad>
          </ns3:TrackPointExtension>
        </extensions>
      </trkpt>
      <trkpt lat="38.05044480599462985992431640625" lon="-106.943493895232677459716796875">
        <ele>3781.199951171875</ele>
        <time>2026-05-25T17:07:54.000Z</time>
        <extensions>
          <ns3:TrackPointExtension>
            <ns3:hr>88</ns3:hr>
            <ns3:cad>0</ns3:cad>
          </ns3:TrackPointExtension>
        </extensions>
      </trkpt>
      <trkpt lat="38.0504690296947956085205078125" lon="-106.94347352720797061920166015625">
        <ele>3780.60009765625</ele>
        <time>2026-05-25T17:07:56.000Z</time>
        <extensions>
          <ns3:TrackPointExtension>
            <ns3:hr>87</ns3:hr>
            <ns3:cad>49</ns3:cad>
          </ns3:TrackPointExtension>
        </extensions>
      </trkpt>
      <trkpt lat="38.050479255616664886474609375" lon="-106.943468749523162841796875">
        <ele>3780.199951171875</ele>
        <time>2026-05-25T17:07:57.000Z</time>
        <extensions>
          <ns3:TrackPointExtension>
            <ns3:hr>87</ns3:hr>
            <ns3:cad>49</ns3:cad>
          </ns3:TrackPointExtension>
        </extensions>
      </trkpt>
      <trkpt lat="38.0504904873669147491455078125" lon="-106.94346539676189422607421875">
        <ele>3779.60009765625</ele>
        <time>2026-05-25T17:07:58.000Z</time>
        <extensions>
          <ns3:TrackPointExtension>
            <ns3:hr>87</ns3:hr>
            <ns3:cad>54</ns3:cad>
          </ns3:TrackPointExtension>
        </extensions>
      </trkpt>
      <trkpt lat="38.05051244795322418212890625" lon="-106.9434575177729129791259765625">
        <ele>3778.39990234375</ele>
        <time>2026-05-25T17:08:01.000Z</time>
        <extensions>
          <ns3:TrackPointExtension>
            <ns3:hr>86</ns3:hr>
            <ns3:cad>55</ns3:cad>
          </ns3:TrackPointExtension>
        </extensions>
      </trkpt>
      <trkpt lat="38.05054974742233753204345703125" lon="-106.9434280134737491607666015625">
        <ele>3778</ele>
        <time>2026-05-25T17:08:05.000Z</time>
        <extensions>
          <ns3:TrackPointExtension>
            <ns3:hr>89</ns3:hr>
            <ns3:cad>55</ns3:cad>
          </ns3:TrackPointExtension>
        </extensions>
      </trkpt>
      <trkpt lat="38.05056877434253692626953125" lon="-106.94343262352049350738525390625">
        <ele>3777.60009765625</ele>
        <time>2026-05-25T17:08:07.000Z</time>
        <extensions>
          <ns3:TrackPointExtension>
            <ns3:hr>90</ns3:hr>
            <ns3:cad>53</ns3:cad>
          </ns3:TrackPointExtension>
        </extensions>
      </trkpt>
      <trkpt lat="38.0506028048694133758544921875" lon="-106.94342575035989284515380859375">
        <ele>3777.199951171875</ele>
        <time>2026-05-25T17:08:09.000Z</time>
        <extensions>
          <ns3:TrackPointExtension>
            <ns3:hr>91</ns3:hr>
            <ns3:cad>53</ns3:cad>
          </ns3:TrackPointExtension>
        </extensions>
      </trkpt>
      <trkpt lat="38.05063054896891117095947265625" lon="-106.9434057176113128662109375">
        <ele>3776.800048828125</ele>
        <time>2026-05-25T17:08:12.000Z</time>
        <extensions>
          <ns3:TrackPointExtension>
            <ns3:hr>91</ns3:hr>
            <ns3:cad>54</ns3:cad>
          </ns3:TrackPointExtension>
        </extensions>
      </trkpt>
      <trkpt lat="38.050656281411647796630859375" lon="-106.94338786415755748748779296875">
        <ele>3776.199951171875</ele>
        <time>2026-05-25T17:08:16.000Z</time>
        <extensions>
          <ns3:TrackPointExtension>
            <ns3:hr>91</ns3:hr>
            <ns3:cad>54</ns3:cad>
          </ns3:TrackPointExtension>
        </extensions>
      </trkpt>
      <trkpt lat="38.050715290009975433349609375" lon="-106.9433582760393619537353515625">
        <ele>3775.199951171875</ele>
        <time>2026-05-25T17:08:21.000Z</time>
        <extensions>
          <ns3:TrackPointExtension>
            <ns3:hr>91</ns3:hr>
            <ns3:cad>56</ns3:cad>
          </ns3:TrackPointExtension>
        </extensions>
      </trkpt>
      <trkpt lat="38.05077019147574901580810546875" lon="-106.943328939378261566162109375">
        <ele>3774.39990234375</ele>
        <time>2026-05-25T17:08:27.000Z</time>
        <extensions>
          <ns3:TrackPointExtension>
            <ns3:hr>92</ns3:hr>
            <ns3:cad>57</ns3:cad>
          </ns3:TrackPointExtension>
        </extensions>
      </trkpt>
      <trkpt lat="38.050788380205631256103515625" lon="-106.943312175571918487548828125">
        <ele>3774</ele>
        <time>2026-05-25T17:08:29.000Z</time>
        <extensions>
          <ns3:TrackPointExtension>
            <ns3:hr>94</ns3:hr>
            <ns3:cad>54</ns3:cad>
          </ns3:TrackPointExtension>
        </extensions>
      </trkpt>
      <trkpt lat="38.05083096027374267578125" lon="-106.9432654045522212982177734375">
        <ele>3773.60009765625</ele>
        <time>2026-05-25T17:08:35.000Z</time>
        <extensions>
          <ns3:TrackPointExtension>
            <ns3:hr>95</ns3:hr>
            <ns3:cad>52</ns3:cad>
          </ns3:TrackPointExtension>
        </extensions>
      </trkpt>
      <trkpt lat="38.050839006900787353515625" lon="-106.94325895048677921295166015625">
        <ele>3773.39990234375</ele>
        <time>2026-05-25T17:08:36.000Z</time>
        <extensions>
          <ns3:TrackPointExtension>
            <ns3:hr>95</ns3:hr>
            <ns3:cad>53</ns3:cad>
          </ns3:TrackPointExtension>
        </extensions>
      </trkpt>
      <trkpt lat="38.05084311403334140777587890625" lon="-106.94324771873652935028076171875">
        <ele>3773</ele>
        <time>2026-05-25T17:08:37.000Z</time>
        <extensions>
          <ns3:TrackPointExtension>
            <ns3:hr>95</ns3:hr>
            <ns3:cad>54</ns3:cad>
          </ns3:TrackPointExtension>
        </extensions>
      </trkpt>
      <trkpt lat="38.0508488975465297698974609375" lon="-106.94322005845606327056884765625">
        <ele>3772.60009765625</ele>
        <time>2026-05-25T17:08:38.000Z</time>
        <extensions>
          <ns3:TrackPointExtension>
            <ns3:hr>95</ns3:hr>
            <ns3:cad>54</ns3:cad>
          </ns3:TrackPointExtension>
        </extensions>
      </trkpt>
      <trkpt lat="38.05084646679461002349853515625" lon="-106.94319005124270915985107421875">
        <ele>3772</ele>
        <time>2026-05-25T17:08:41.000Z</time>
        <extensions>
          <ns3:TrackPointExtension>
            <ns3:hr>93</ns3:hr>
            <ns3:cad>53</ns3:cad>
          </ns3:TrackPointExtension>
        </extensions>
      </trkpt>
      <trkpt lat="38.0508488975465297698974609375" lon="-106.94317379035055637359619140625">
        <ele>3771.800048828125</ele>
        <time>2026-05-25T17:08:42.000Z</time>
        <extensions>
          <ns3:TrackPointExtension>
            <ns3:hr>92</ns3:hr>
            <ns3:cad>53</ns3:cad>
          </ns3:TrackPointExtension>
        </extensions>
      </trkpt>
      <trkpt lat="38.05086222477257251739501953125" lon="-106.94315166212618350982666015625">
        <ele>3771.60009765625</ele>
        <time>2026-05-25T17:08:44.000Z</time>
        <extensions>
          <ns3:TrackPointExtension>
            <ns3:hr>91</ns3:hr>
            <ns3:cad>57</ns3:cad>
          </ns3:TrackPointExtension>
        </extensions>
      </trkpt>
      <trkpt lat="38.0509020388126373291015625" lon="-106.9431266002357006072998046875">
        <ele>3771.39990234375</ele>
        <time>2026-05-25T17:08:47.000Z</time>
        <extensions>
          <ns3:TrackPointExtension>
            <ns3:hr>90</ns3:hr>
            <ns3:cad>57</ns3:cad>
          </ns3:TrackPointExtension>
        </extensions>
      </trkpt>
      <trkpt lat="38.05093221366405487060546875" lon="-106.94311645813286304473876953125">
        <ele>3770.800048828125</ele>
        <time>2026-05-25T17:08:50.000Z</time>
        <extensions>
          <ns3:TrackPointExtension>
            <ns3:hr>90</ns3:hr>
            <ns3:cad>57</ns3:cad>
          </ns3:TrackPointExtension>
        </extensions>
      </trkpt>
      <trkpt lat="38.05096171796321868896484375" lon="-106.94310388527810573577880859375">
        <ele>3770.199951171875</ele>
        <time>2026-05-25T17:08:54.000Z</time>
        <extensions>
          <ns3:TrackPointExtension>
            <ns3:hr>89</ns3:hr>
            <ns3:cad>57</ns3:cad>
          </ns3:TrackPointExtension>
        </extensions>
      </trkpt>
      <trkpt lat="38.05096465162932872772216796875" lon="-106.943087540566921234130859375">
        <ele>3770</ele>
        <time>2026-05-25T17:08:55.000Z</time>
        <extensions>
          <ns3:TrackPointExtension>
            <ns3:hr>89</ns3:hr>
            <ns3:cad>57</ns3:cad>
          </ns3:TrackPointExtension>
        </extensions>
      </trkpt>
      <trkpt lat="38.0509699322283267974853515625" lon="-106.94307220168411731719970703125">
        <ele>3769.800048828125</ele>
        <time>2026-05-25T17:08:56.000Z</time>
        <extensions>
          <ns3:TrackPointExtension>
            <ns3:hr>88</ns3:hr>
            <ns3:cad>57</ns3:cad>
          </ns3:TrackPointExtension>
        </extensions>
      </trkpt>
      <trkpt lat="38.05098761804401874542236328125" lon="-106.943043284118175506591796875">
        <ele>3769.60009765625</ele>
        <time>2026-05-25T17:08:59.000Z</time>
        <extensions>
          <ns3:TrackPointExtension>
            <ns3:hr>85</ns3:hr>
            <ns3:cad>0</ns3:cad>
          </ns3:TrackPointExtension>
        </extensions>
      </trkpt>
      <trkpt lat="38.05100253783166408538818359375" lon="-106.94304102100431919097900390625">
        <ele>3769.39990234375</ele>
        <time>2026-05-25T17:09:00.000Z</time>
        <extensions>
          <ns3:TrackPointExtension>
            <ns3:hr>85</ns3:hr>
            <ns3:cad>0</ns3:cad>
          </ns3:TrackPointExtension>
        </extensions>
      </trkpt>
      <trkpt lat="38.0510148592293262481689453125" lon="-106.943038590252399444580078125">
        <ele>3768.60009765625</ele>
        <time>2026-05-25T17:09:03.000Z</time>
        <extensions>
          <ns3:TrackPointExtension>
            <ns3:hr>88</ns3:hr>
            <ns3:cad>0</ns3:cad>
          </ns3:TrackPointExtension>
        </extensions>
      </trkpt>
      <trkpt lat="38.05102349258959293365478515625" lon="-106.943029202520847320556640625">
        <ele>3768.39990234375</ele>
        <time>2026-05-25T17:09:04.000Z</time>
        <extensions>
          <ns3:TrackPointExtension>
            <ns3:hr>89</ns3:hr>
            <ns3:cad>0</ns3:cad>
          </ns3:TrackPointExtension>
        </extensions>
      </trkpt>
      <trkpt lat="38.0510497279465198516845703125" lon="-106.94301788695156574249267578125">
        <ele>3768</ele>
        <time>2026-05-25T17:09:07.000Z</time>
        <extensions>
          <ns3:TrackPointExtension>
            <ns3:hr>89</ns3:hr>
            <ns3:cad>0</ns3:cad>
          </ns3:TrackPointExtension>
        </extensions>
      </trkpt>
      <trkpt lat="38.05108518339693546295166015625" lon="-106.9429961778223514556884765625">
        <ele>3767.60009765625</ele>
        <time>2026-05-25T17:09:09.000Z</time>
        <extensions>
          <ns3:TrackPointExtension>
            <ns3:hr>88</ns3:hr>
            <ns3:cad>0</ns3:cad>
          </ns3:TrackPointExtension>
        </extensions>
      </trkpt>
      <trkpt lat="38.05114167742431163787841796875" lon="-106.942972876131534576416015625">
        <ele>3766.39990234375</ele>
        <time>2026-05-25T17:09:14.000Z</time>
        <extensions>
          <ns3:TrackPointExtension>
            <ns3:hr>87</ns3:hr>
            <ns3:cad>0</ns3:cad>
          </ns3:TrackPointExtension>
        </extensions>
      </trkpt>
      <trkpt lat="38.05120705626904964447021484375" lon="-106.94293490611016750335693359375">
        <ele>3766</ele>
        <time>2026-05-25T17:09:19.000Z</time>
        <extensions>
          <ns3:TrackPointExtension>
            <ns3:hr>86</ns3:hr>
            <ns3:cad>57</ns3:cad>
          </ns3:TrackPointExtension>
        </extensions>
      </trkpt>
      <trkpt lat="38.05121711455285549163818359375" lon="-106.942928619682788848876953125">
        <ele>3765.39990234375</ele>
        <time>2026-05-25T17:09:21.000Z</time>
        <extensions>
          <ns3:TrackPointExtension>
            <ns3:hr>87</ns3:hr>
            <ns3:cad>56</ns3:cad>
          </ns3:TrackPointExtension>
        </extensions>
      </trkpt>
      <trkpt lat="38.05125600658357143402099609375" lon="-106.94290020503103733062744140625">
        <ele>3764.199951171875</ele>
        <time>2026-05-25T17:09:25.000Z</time>
        <extensions>
          <ns3:TrackPointExtension>
            <ns3:hr>86</ns3:hr>
            <ns3:cad>56</ns3:cad>
          </ns3:TrackPointExtension>
        </extensions>
      </trkpt>
      <trkpt lat="38.0512654781341552734375" lon="-106.942891739308834075927734375">
        <ele>3763.60009765625</ele>
        <time>2026-05-25T17:09:27.000Z</time>
        <extensions>
          <ns3:TrackPointExtension>
            <ns3:hr>85</ns3:hr>
            <ns3:cad>56</ns3:cad>
          </ns3:TrackPointExtension>
        </extensions>
      </trkpt>
      <trkpt lat="38.05127955973148345947265625" lon="-106.9428813457489013671875">
        <ele>3763</ele>
        <time>2026-05-25T17:09:29.000Z</time>
        <extensions>
          <ns3:TrackPointExtension>
            <ns3:hr>85</ns3:hr>
            <ns3:cad>56</ns3:cad>
          </ns3:TrackPointExtension>
        </extensions>
      </trkpt>
      <trkpt lat="38.05130143649876117706298828125" lon="-106.94287070073187351226806640625">
        <ele>3762</ele>
        <time>2026-05-25T17:09:32.000Z</time>
        <extensions>
          <ns3:TrackPointExtension>
            <ns3:hr>84</ns3:hr>
            <ns3:cad>59</ns3:cad>
          </ns3:TrackPointExtension>
        </extensions>
      </trkpt>
      <trkpt lat="38.051321469247341156005859375" lon="-106.9428590498864650726318359375">
        <ele>3761.199951171875</ele>
        <time>2026-05-25T17:09:34.000Z</time>
        <extensions>
          <ns3:TrackPointExtension>
            <ns3:hr>84</ns3:hr>
            <ns3:cad>0</ns3:cad>
          </ns3:TrackPointExtension>
        </extensions>
      </trkpt>
      <trkpt lat="38.05133043788373470306396484375" lon="-106.9428483210504055023193359375">
        <ele>3760.800048828125</ele>
        <time>2026-05-25T17:09:35.000Z</time>
        <extensions>
          <ns3:TrackPointExtension>
            <ns3:hr>84</ns3:hr>
            <ns3:cad>0</ns3:cad>
          </ns3:TrackPointExtension>
        </extensions>
      </trkpt>
      <trkpt lat="38.051357008516788482666015625" lon="-106.94281990639865398406982421875">
        <ele>3760.60009765625</ele>
        <time>2026-05-25T17:09:40.000Z</time>
        <extensions>
          <ns3:TrackPointExtension>
            <ns3:hr>86</ns3:hr>
            <ns3:cad>0</ns3:cad>
          </ns3:TrackPointExtension>
        </extensions>
      </trkpt>
      <trkpt lat="38.0513714253902435302734375" lon="-106.94279752671718597412109375">
        <ele>3760.60009765625</ele>
        <time>2026-05-25T17:09:42.000Z</time>
        <extensions>
          <ns3:TrackPointExtension>
            <ns3:hr>89</ns3:hr>
            <ns3:cad>0</ns3:cad>
          </ns3:TrackPointExtension>
        </extensions>
      </trkpt>
      <trkpt lat="38.05139715783298015594482421875" lon="-106.94278604350984096527099609375">
        <ele>3760.199951171875</ele>
        <time>2026-05-25T17:09:45.000Z</time>
        <extensions>
          <ns3:TrackPointExtension>
            <ns3:hr>90</ns3:hr>
            <ns3:cad>0</ns3:cad>
          </ns3:TrackPointExtension>
        </extensions>
      </trkpt>
      <trkpt lat="38.051415346562862396240234375" lon="-106.94278956390917301177978515625">
        <ele>3760</ele>
        <time>2026-05-25T17:09:46.000Z</time>
        <extensions>
          <ns3:TrackPointExtension>
            <ns3:hr>89</ns3:hr>
            <ns3:cad>0</ns3:cad>
          </ns3:TrackPointExtension>
        </extensions>
      </trkpt>
      <trkpt lat="38.05142263881862163543701171875" lon="-106.9427899830043315887451171875">
        <ele>3759.60009765625</ele>
        <time>2026-05-25T17:09:47.000Z</time>
        <extensions>
          <ns3:TrackPointExtension>
            <ns3:hr>89</ns3:hr>
            <ns3:cad>59</ns3:cad>
          </ns3:TrackPointExtension>
        </extensions>
      </trkpt>
      <trkpt lat="38.051452897489070892333984375" lon="-106.9427799247205257415771484375">
        <ele>3758.800048828125</ele>
        <time>2026-05-25T17:09:51.000Z</time>
        <extensions>
          <ns3:TrackPointExtension>
            <ns3:hr>88</ns3:hr>
            <ns3:cad>59</ns3:cad>
          </ns3:TrackPointExtension>
        </extensions>
      </trkpt>
      <trkpt lat="38.0514812283217906951904296875" lon="-106.94276073016226291656494140625">
        <ele>3758.60009765625</ele>
        <time>2026-05-25T17:09:53.000Z</time>
        <extensions>
          <ns3:TrackPointExtension>
            <ns3:hr>88</ns3:hr>
            <ns3:cad>57</ns3:cad>
          </ns3:TrackPointExtension>
        </extensions>
      </trkpt>
      <trkpt lat="38.05149019695818424224853515625" lon="-106.94275184534490108489990234375">
        <ele>3758.39990234375</ele>
        <time>2026-05-25T17:09:54.000Z</time>
        <extensions>
          <ns3:TrackPointExtension>
            <ns3:hr>87</ns3:hr>
            <ns3:cad>57</ns3:cad>
          </ns3:TrackPointExtension>
        </extensions>
      </trkpt>
      <trkpt lat="38.0515238083899021148681640625" lon="-106.9427222572267055511474609375">
        <ele>3757.60009765625</ele>
        <time>2026-05-25T17:09:59.000Z</time>
        <extensions>
          <ns3:TrackPointExtension>
            <ns3:hr>85</ns3:hr>
            <ns3:cad>56</ns3:cad>
          </ns3:TrackPointExtension>
        </extensions>
      </trkpt>
      <trkpt lat="38.051536045968532562255859375" lon="-106.94270608015358448028564453125">
        <ele>3757.199951171875</ele>
        <time>2026-05-25T17:10:01.000Z</time>
        <extensions>
          <ns3:TrackPointExtension>
            <ns3:hr>85</ns3:hr>
            <ns3:cad>56</ns3:cad>
          </ns3:TrackPointExtension>
        </extensions>
      </trkpt>
      <trkpt lat="38.0515737645328044891357421875" lon="-106.94267724640667438507080078125">
        <ele>3756.39990234375</ele>
        <time>2026-05-25T17:10:07.000Z</time>
        <extensions>
          <ns3:TrackPointExtension>
            <ns3:hr>86</ns3:hr>
            <ns3:cad>0</ns3:cad>
          </ns3:TrackPointExtension>
        </extensions>
      </trkpt>
      <trkpt lat="38.0515901930630207061767578125" lon="-106.94268512539565563201904296875">
        <ele>3756</ele>
        <time>2026-05-25T17:10:08.000Z</time>
        <extensions>
          <ns3:TrackPointExtension>
            <ns3:hr>86</ns3:hr>
            <ns3:cad>0</ns3:cad>
          </ns3:TrackPointExtension>
        </extensions>
      </trkpt>
      <trkpt lat="38.051613159477710723876953125" lon="-106.94268814288079738616943359375">
        <ele>3755</ele>
        <time>2026-05-25T17:10:11.000Z</time>
        <extensions>
          <ns3:TrackPointExtension>
            <ns3:hr>86</ns3:hr>
            <ns3:cad>0</ns3:cad>
          </ns3:TrackPointExtension>
        </extensions>
      </trkpt>
      <trkpt lat="38.05164165794849395751953125" lon="-106.94269023835659027099609375">
        <ele>3754.60009765625</ele>
        <time>2026-05-25T17:10:14.000Z</time>
        <extensions>
          <ns3:TrackPointExtension>
            <ns3:hr>85</ns3:hr>
            <ns3:cad>61</ns3:cad>
          </ns3:TrackPointExtension>
        </extensions>
      </trkpt>
      <trkpt lat="38.051678873598575592041015625" lon="-106.94266098551452159881591796875">
        <ele>3754.60009765625</ele>
        <time>2026-05-25T17:10:20.000Z</time>
        <extensions>
          <ns3:TrackPointExtension>
            <ns3:hr>85</ns3:hr>
            <ns3:cad>0</ns3:cad>
          </ns3:TrackPointExtension>
        </extensions>
      </trkpt>
      <trkpt lat="38.05168750695884227752685546875" lon="-106.94265226833522319793701171875">
        <ele>3754.39990234375</ele>
        <time>2026-05-25T17:10:21.000Z</time>
        <extensions>
          <ns3:TrackPointExtension>
            <ns3:hr>85</ns3:hr>
            <ns3:cad>0</ns3:cad>
          </ns3:TrackPointExtension>
        </extensions>
      </trkpt>
      <trkpt lat="38.05169488303363323211669921875" lon="-106.942646987736225128173828125">
        <ele>3754</ele>
        <time>2026-05-25T17:10:22.000Z</time>
        <extensions>
          <ns3:TrackPointExtension>
            <ns3:hr>85</ns3:hr>
            <ns3:cad>53</ns3:cad>
          </ns3:TrackPointExtension>
        </extensions>
      </trkpt>
      <trkpt lat="38.051736541092395782470703125" lon="-106.9426401145756244659423828125">
        <ele>3752.800048828125</ele>
        <time>2026-05-25T17:10:25.000Z</time>
        <extensions>
          <ns3:TrackPointExtension>
            <ns3:hr>84</ns3:hr>
            <ns3:cad>56</ns3:cad>
          </ns3:TrackPointExtension>
        </extensions>
      </trkpt>
      <trkpt lat="38.05176177062094211578369140625" lon="-106.94264807738363742828369140625">
        <ele>3751.60009765625</ele>
        <time>2026-05-25T17:10:28.000Z</time>
        <extensions>
          <ns3:TrackPointExtension>
            <ns3:hr>82</ns3:hr>
            <ns3:cad>56</ns3:cad>
          </ns3:TrackPointExtension>
        </extensions>
      </trkpt>
      <trkpt lat="38.05181357078254222869873046875" lon="-106.94264941848814487457275390625">
        <ele>3750.800048828125</ele>
        <time>2026-05-25T17:10:34.000Z</time>
        <extensions>
          <ns3:TrackPointExtension>
            <ns3:hr>82</ns3:hr>
            <ns3:cad>0</ns3:cad>
          </ns3:TrackPointExtension>
        </extensions>
      </trkpt>
      <trkpt lat="38.05181910283863544464111328125" lon="-106.94264858029782772064208984375">
        <ele>3750.60009765625</ele>
        <time>2026-05-25T17:10:35.000Z</time>
        <extensions>
          <ns3:TrackPointExtension>
            <ns3:hr>82</ns3:hr>
            <ns3:cad>0</ns3:cad>
          </ns3:TrackPointExtension>
        </extensions>
      </trkpt>
      <trkpt lat="38.051829747855663299560546875" lon="-106.94266584701836109161376953125">
        <ele>3750.39990234375</ele>
        <time>2026-05-25T17:10:36.000Z</time>
        <extensions>
          <ns3:TrackPointExtension>
            <ns3:hr>81</ns3:hr>
            <ns3:cad>0</ns3:cad>
          </ns3:TrackPointExtension>
        </extensions>
      </trkpt>
      <trkpt lat="38.05183804593980312347412109375" lon="-106.94267221726477146148681640625">
        <ele>3750</ele>
        <time>2026-05-25T17:10:37.000Z</time>
        <extensions>
          <ns3:TrackPointExtension>
            <ns3:hr>81</ns3:hr>
            <ns3:cad>0</ns3:cad>
          </ns3:TrackPointExtension>
        </extensions>
      </trkpt>
      <trkpt lat="38.0518543906509876251220703125" lon="-106.94268294610083103179931640625">
        <ele>3749.39990234375</ele>
        <time>2026-05-25T17:10:41.000Z</time>
        <extensions>
          <ns3:TrackPointExtension>
            <ns3:hr>84</ns3:hr>
            <ns3:cad>56</ns3:cad>
          </ns3:TrackPointExtension>
        </extensions>
      </trkpt>
      <trkpt lat="38.05187056772410869598388671875" lon="-106.942676492035388946533203125">
        <ele>3749.199951171875</ele>
        <time>2026-05-25T17:10:42.000Z</time>
        <extensions>
          <ns3:TrackPointExtension>
            <ns3:hr>85</ns3:hr>
            <ns3:cad>56</ns3:cad>
          </ns3:TrackPointExtension>
        </extensions>
      </trkpt>
      <trkpt lat="38.05187408812344074249267578125" lon="-106.9426689483225345611572265625">
        <ele>3749</ele>
        <time>2026-05-25T17:10:43.000Z</time>
        <extensions>
          <ns3:TrackPointExtension>
            <ns3:hr>88</ns3:hr>
            <ns3:cad>56</ns3:cad>
          </ns3:TrackPointExtension>
        </extensions>
      </trkpt>
      <trkpt lat="38.05189571343362331390380859375" lon="-106.9426461495459079742431640625">
        <ele>3748.39990234375</ele>
        <time>2026-05-25T17:10:46.000Z</time>
        <extensions>
          <ns3:TrackPointExtension>
            <ns3:hr>89</ns3:hr>
            <ns3:cad>68</ns3:cad>
          </ns3:TrackPointExtension>
        </extensions>
      </trkpt>
      <trkpt lat="38.051937706768512725830078125" lon="-106.94263332523405551910400390625">
        <ele>3747.39990234375</ele>
        <time>2026-05-25T17:10:51.000Z</time>
        <extensions>
          <ns3:TrackPointExtension>
            <ns3:hr>87</ns3:hr>
            <ns3:cad>68</ns3:cad>
          </ns3:TrackPointExtension>
        </extensions>
      </trkpt>
      <trkpt lat="38.051991350948810577392578125" lon="-106.9425737299025058746337890625">
        <ele>3746.60009765625</ele>
        <time>2026-05-25T17:10:57.000Z</time>
        <extensions>
          <ns3:TrackPointExtension>
            <ns3:hr>86</ns3:hr>
            <ns3:cad>53</ns3:cad>
          </ns3:TrackPointExtension>
        </extensions>
      </trkpt>
      <trkpt lat="38.051998727023601531982421875" lon="-106.94256761111319065093994140625">
        <ele>3746.39990234375</ele>
        <time>2026-05-25T17:10:58.000Z</time>
        <extensions>
          <ns3:TrackPointExtension>
            <ns3:hr>86</ns3:hr>
            <ns3:cad>53</ns3:cad>
          </ns3:TrackPointExtension>
        </extensions>
      </trkpt>
      <trkpt lat="38.05202119052410125732421875" lon="-106.942562498152256011962890625">
        <ele>3746.199951171875</ele>
        <time>2026-05-25T17:10:59.000Z</time>
        <extensions>
          <ns3:TrackPointExtension>
            <ns3:hr>86</ns3:hr>
            <ns3:cad>53</ns3:cad>
          </ns3:TrackPointExtension>
        </extensions>
      </trkpt>
      <trkpt lat="38.05205279029905796051025390625" lon="-106.94256979040801525115966796875">
        <ele>3745.800048828125</ele>
        <time>2026-05-25T17:11:03.000Z</time>
        <extensions>
          <ns3:TrackPointExtension>
            <ns3:hr>83</ns3:hr>
            <ns3:cad>0</ns3:cad>
          </ns3:TrackPointExtension>
        </extensions>
      </trkpt>
      <trkpt lat="38.05207609198987483978271484375" lon="-106.94255721755325794219970703125">
        <ele>3745.199951171875</ele>
        <time>2026-05-25T17:11:06.000Z</time>
        <extensions>
          <ns3:TrackPointExtension>
            <ns3:hr>81</ns3:hr>
            <ns3:cad>69</ns3:cad>
          </ns3:TrackPointExtension>
        </extensions>
      </trkpt>
      <trkpt lat="38.05209151469171047210693359375" lon="-106.9425408728420734405517578125">
        <ele>3744.60009765625</ele>
        <time>2026-05-25T17:11:10.000Z</time>
        <extensions>
          <ns3:TrackPointExtension>
            <ns3:hr>80</ns3:hr>
            <ns3:cad>0</ns3:cad>
          </ns3:TrackPointExtension>
        </extensions>
      </trkpt>
      <trkpt lat="38.0520951189100742340087890625" lon="-106.9425324909389019012451171875">
        <ele>3744.39990234375</ele>
        <time>2026-05-25T17:11:11.000Z</time>
        <extensions>
          <ns3:TrackPointExtension>
            <ns3:hr>80</ns3:hr>
            <ns3:cad>0</ns3:cad>
          </ns3:TrackPointExtension>
        </extensions>
      </trkpt>
      <trkpt lat="38.0520954541862010955810546875" lon="-106.94252737797796726226806640625">
        <ele>3744.199951171875</ele>
        <time>2026-05-25T17:11:13.000Z</time>
        <extensions>
          <ns3:TrackPointExtension>
            <ns3:hr>80</ns3:hr>
            <ns3:cad>0</ns3:cad>
          </ns3:TrackPointExtension>
        </extensions>
      </trkpt>
      <trkpt lat="38.05212755687534809112548828125" lon="-106.94248102605342864990234375">
        <ele>3744.199951171875</ele>
        <time>2026-05-25T17:11:17.000Z</time>
        <extensions>
          <ns3:TrackPointExtension>
            <ns3:hr>80</ns3:hr>
            <ns3:cad>0</ns3:cad>
          </ns3:TrackPointExtension>
        </extensions>
      </trkpt>
      <trkpt lat="38.052167035639286041259765625" lon="-106.94244473241269588470458984375">
        <ele>3743.60009765625</ele>
        <time>2026-05-25T17:11:23.000Z</time>
        <extensions>
          <ns3:TrackPointExtension>
            <ns3:hr>81</ns3:hr>
            <ns3:cad>50</ns3:cad>
          </ns3:TrackPointExtension>
        </extensions>
      </trkpt>
      <trkpt lat="38.052185811102390289306640625" lon="-106.94241841323673725128173828125">
        <ele>3743</ele>
        <time>2026-05-25T17:11:25.000Z</time>
        <extensions>
          <ns3:TrackPointExtension>
            <ns3:hr>81</ns3:hr>
            <ns3:cad>53</ns3:cad>
          </ns3:TrackPointExtension>
        </extensions>
      </trkpt>
      <trkpt lat="38.0522047542035579681396484375" lon="-106.94241371937096118927001953125">
        <ele>3743.39990234375</ele>
        <time>2026-05-25T17:11:29.000Z</time>
        <extensions>
          <ns3:TrackPointExtension>
            <ns3:hr>84</ns3:hr>
            <ns3:cad>53</ns3:cad>
          </ns3:TrackPointExtension>
        </extensions>
      </trkpt>
      <trkpt lat="38.05220869369804859161376953125" lon="-106.94241807796061038970947265625">
        <ele>3743.60009765625</ele>
        <time>2026-05-25T17:11:31.000Z</time>
        <extensions>
          <ns3:TrackPointExtension>
            <ns3:hr>85</ns3:hr>
            <ns3:cad>0</ns3:cad>
          </ns3:TrackPointExtension>
        </extensions>
      </trkpt>
      <trkpt lat="38.05224892683327198028564453125" lon="-106.94240592420101165771484375">
        <ele>3743</ele>
        <time>2026-05-25T17:11:35.000Z</time>
        <extensions>
          <ns3:TrackPointExtension>
            <ns3:hr>82</ns3:hr>
            <ns3:cad>45</ns3:cad>
          </ns3:TrackPointExtension>
        </extensions>
      </trkpt>
      <trkpt lat="38.05227055214345455169677734375" lon="-106.942382790148258209228515625">
        <ele>3741.800048828125</ele>
        <time>2026-05-25T17:11:41.000Z</time>
        <extensions>
          <ns3:TrackPointExtension>
            <ns3:hr>80</ns3:hr>
            <ns3:cad>51</ns3:cad>
          </ns3:TrackPointExtension>
        </extensions>
      </trkpt>
      <trkpt lat="38.0522718094289302825927734375" lon="-106.9423775933682918548583984375">
        <ele>3741.60009765625</ele>
        <time>2026-05-25T17:11:42.000Z</time>
        <extensions>
          <ns3:TrackPointExtension>
            <ns3:hr>80</ns3:hr>
            <ns3:cad>51</ns3:cad>
          </ns3:TrackPointExtension>
        </extensions>
      </trkpt>
      <trkpt lat="38.05227273143827915191650390625" lon="-106.94231816567480564117431640625">
        <ele>3742.199951171875</ele>
        <time>2026-05-25T17:11:48.000Z</time>
        <extensions>
          <ns3:TrackPointExtension>
            <ns3:hr>78</ns3:hr>
            <ns3:cad>0</ns3:cad>
          </ns3:TrackPointExtension>
        </extensions>
      </trkpt>
      <trkpt lat="38.05227197706699371337890625" lon="-106.94229955784976482391357421875">
        <ele>3742.199951171875</ele>
        <time>2026-05-25T17:11:54.000Z</time>
        <extensions>
          <ns3:TrackPointExtension>
            <ns3:hr>77</ns3:hr>
            <ns3:cad>0</ns3:cad>
          </ns3:TrackPointExtension>
        </extensions>
      </trkpt>
      <trkpt lat="38.05227197706699371337890625" lon="-106.94229955784976482391357421875">
        <ele>3741.800048828125</ele>
        <time>2026-05-25T17:12:00.000Z</time>
        <extensions>
          <ns3:TrackPointExtension>
            <ns3:hr>77</ns3:hr>
            <ns3:cad>0</ns3:cad>
          </ns3:TrackPointExtension>
        </extensions>
      </trkpt>
      <trkpt lat="38.05227256380021572113037109375" lon="-106.94228589534759521484375">
        <ele>3741.39990234375</ele>
        <time>2026-05-25T17:12:03.000Z</time>
        <extensions>
          <ns3:TrackPointExtension>
            <ns3:hr>80</ns3:hr>
            <ns3:cad>0</ns3:cad>
          </ns3:TrackPointExtension>
        </extensions>
      </trkpt>
      <trkpt lat="38.05227222852408885955810546875" lon="-106.94228581152856349945068359375">
        <ele>3741.39990234375</ele>
        <time>2026-05-25T17:12:04.000Z</time>
        <extensions>
          <ns3:TrackPointExtension>
            <ns3:hr>81</ns3:hr>
            <ns3:cad>0</ns3:cad>
          </ns3:TrackPointExtension>
        </extensions>
      </trkpt>
      <trkpt lat="38.052268289029598236083984375" lon="-106.9422803632915019989013671875">
        <ele>3741.39990234375</ele>
        <time>2026-05-25T17:12:08.000Z</time>
        <extensions>
          <ns3:TrackPointExtension>
            <ns3:hr>84</ns3:hr>
            <ns3:cad>0</ns3:cad>
          </ns3:TrackPointExtension>
        </extensions>
      </trkpt>
      <trkpt lat="38.0522583983838558197021484375" lon="-106.94226904772222042083740234375">
        <ele>3741.199951171875</ele>
        <time>2026-05-25T17:12:12.000Z</time>
        <extensions>
          <ns3:TrackPointExtension>
            <ns3:hr>85</ns3:hr>
            <ns3:cad>0</ns3:cad>
          </ns3:TrackPointExtension>
        </extensions>
      </trkpt>
      <trkpt lat="38.052246160805225372314453125" lon="-106.94222462363541126251220703125">
        <ele>3741.60009765625</ele>
        <time>2026-05-25T17:12:16.000Z</time>
        <extensions>
          <ns3:TrackPointExtension>
            <ns3:hr>82</ns3:hr>
            <ns3:cad>0</ns3:cad>
          </ns3:TrackPointExtension>
        </extensions>
      </trkpt>
      <trkpt lat="38.0522493459284305572509765625" lon="-106.94221079349517822265625">
        <ele>3741.800048828125</ele>
        <time>2026-05-25T17:12:18.000Z</time>
        <extensions>
          <ns3:TrackPointExtension>
            <ns3:hr>77</ns3:hr>
            <ns3:cad>0</ns3:cad>
          </ns3:TrackPointExtension>
        </extensions>
      </trkpt>
      <trkpt lat="38.0522547103464603424072265625" lon="-106.94219537079334259033203125">
        <ele>3742</ele>
        <time>2026-05-25T17:12:19.000Z</time>
        <extensions>
          <ns3:TrackPointExtension>
            <ns3:hr>74</ns3:hr>
            <ns3:cad>0</ns3:cad>
          </ns3:TrackPointExtension>
        </extensions>
      </trkpt>
      <trkpt lat="38.05225831456482410430908203125" lon="-106.9421928562223911285400390625">
        <ele>3742.199951171875</ele>
        <time>2026-05-25T17:12:20.000Z</time>
        <extensions>
          <ns3:TrackPointExtension>
            <ns3:hr>74</ns3:hr>
            <ns3:cad>0</ns3:cad>
          </ns3:TrackPointExtension>
        </extensions>
      </trkpt>
      <trkpt lat="38.05226334370672702789306640625" lon="-106.94219176657497882843017578125">
        <ele>3742.199951171875</ele>
        <time>2026-05-25T17:12:21.000Z</time>
        <extensions>
          <ns3:TrackPointExtension>
            <ns3:hr>74</ns3:hr>
            <ns3:cad>0</ns3:cad>
          </ns3:TrackPointExtension>
        </extensions>
      </trkpt>
      <trkpt lat="38.052301146090030670166015625" lon="-106.94218925200402736663818359375">
        <ele>3740.800048828125</ele>
        <time>2026-05-25T17:12:27.000Z</time>
        <extensions>
          <ns3:TrackPointExtension>
            <ns3:hr>75</ns3:hr>
            <ns3:cad>0</ns3:cad>
          </ns3:TrackPointExtension>
        </extensions>
      </trkpt>
      <trkpt lat="38.05230843834578990936279296875" lon="-106.9421799480915069580078125">
        <ele>3740.800048828125</ele>
        <time>2026-05-25T17:12:28.000Z</time>
        <extensions>
          <ns3:TrackPointExtension>
            <ns3:hr>76</ns3:hr>
            <ns3:cad>0</ns3:cad>
          </ns3:TrackPointExtension>
        </extensions>
      </trkpt>
      <trkpt lat="38.052374236285686492919921875" lon="-106.94212269969284534454345703125">
        <ele>3740</ele>
        <time>2026-05-25T17:12:34.000Z</time>
        <extensions>
          <ns3:TrackPointExtension>
            <ns3:hr>78</ns3:hr>
            <ns3:cad>0</ns3:cad>
          </ns3:TrackPointExtension>
        </extensions>
      </trkpt>
      <trkpt lat="38.05237901397049427032470703125" lon="-106.94211230613291263580322265625">
        <ele>3739.800048828125</ele>
        <time>2026-05-25T17:12:35.000Z</time>
        <extensions>
          <ns3:TrackPointExtension>
            <ns3:hr>79</ns3:hr>
            <ns3:cad>0</ns3:cad>
          </ns3:TrackPointExtension>
        </extensions>
      </trkpt>
      <trkpt lat="38.05238588713109493255615234375" lon="-106.942105852067470550537109375">
        <ele>3739.60009765625</ele>
        <time>2026-05-25T17:12:36.000Z</time>
        <extensions>
          <ns3:TrackPointExtension>
            <ns3:hr>79</ns3:hr>
            <ns3:cad>0</ns3:cad>
          </ns3:TrackPointExtension>
        </extensions>
      </trkpt>
      <trkpt lat="38.05240399204194545745849609375" lon="-106.94208716042339801788330078125">
        <ele>3738.60009765625</ele>
        <time>2026-05-25T17:12:39.000Z</time>
        <extensions>
          <ns3:TrackPointExtension>
            <ns3:hr>80</ns3:hr>
            <ns3:cad>0</ns3:cad>
          </ns3:TrackPointExtension>
        </extensions>
      </trkpt>
      <trkpt lat="38.05245981551706790924072265625" lon="-106.942041479051113128662109375">
        <ele>3738.199951171875</ele>
        <time>2026-05-25T17:12:43.000Z</time>
        <extensions>
          <ns3:TrackPointExtension>
            <ns3:hr>80</ns3:hr>
            <ns3:cad>53</ns3:cad>
          </ns3:TrackPointExtension>
        </extensions>
      </trkpt>
      <trkpt lat="38.05249460041522979736328125" lon="-106.9419953785836696624755859375">
        <ele>3737.39990234375</ele>
        <time>2026-05-25T17:12:49.000Z</time>
        <extensions>
          <ns3:TrackPointExtension>
            <ns3:hr>81</ns3:hr>
            <ns3:cad>53</ns3:cad>
          </ns3:TrackPointExtension>
        </extensions>
      </trkpt>
      <trkpt lat="38.05251530371606349945068359375" lon="-106.94197718985378742218017578125">
        <ele>3737</ele>
        <time>2026-05-25T17:12:50.000Z</time>
        <extensions>
          <ns3:TrackPointExtension>
            <ns3:hr>82</ns3:hr>
            <ns3:cad>53</ns3:cad>
          </ns3:TrackPointExtension>
        </extensions>
      </trkpt>
      <trkpt lat="38.05254128761589527130126953125" lon="-106.9419558160006999969482421875">
        <ele>3736.199951171875</ele>
        <time>2026-05-25T17:12:53.000Z</time>
        <extensions>
          <ns3:TrackPointExtension>
            <ns3:hr>82</ns3:hr>
            <ns3:cad>53</ns3:cad>
          </ns3:TrackPointExtension>
        </extensions>
      </trkpt>
      <trkpt lat="38.05258554406464099884033203125" lon="-106.94193427450954914093017578125">
        <ele>3735.39990234375</ele>
        <time>2026-05-25T17:12:58.000Z</time>
        <extensions>
          <ns3:TrackPointExtension>
            <ns3:hr>82</ns3:hr>
            <ns3:cad>0</ns3:cad>
          </ns3:TrackPointExtension>
        </extensions>
      </trkpt>
      <trkpt lat="38.0526121146976947784423828125" lon="-106.9419219531118869781494140625">
        <ele>3734.800048828125</ele>
        <time>2026-05-25T17:13:00.000Z</time>
        <extensions>
          <ns3:TrackPointExtension>
            <ns3:hr>82</ns3:hr>
            <ns3:cad>0</ns3:cad>
          </ns3:TrackPointExtension>
        </extensions>
      </trkpt>
      <trkpt lat="38.052661232650279998779296875" lon="-106.94190091453492641448974609375">
        <ele>3733.60009765625</ele>
        <time>2026-05-25T17:13:03.000Z</time>
        <extensions>
          <ns3:TrackPointExtension>
            <ns3:hr>83</ns3:hr>
            <ns3:cad>0</ns3:cad>
          </ns3:TrackPointExtension>
        </extensions>
      </trkpt>
      <trkpt lat="38.05267296731472015380859375" lon="-106.94190443493425846099853515625">
        <ele>3732.800048828125</ele>
        <time>2026-05-25T17:13:05.000Z</time>
        <extensions>
          <ns3:TrackPointExtension>
            <ns3:hr>83</ns3:hr>
            <ns3:cad>0</ns3:cad>
          </ns3:TrackPointExtension>
        </extensions>
      </trkpt>
      <trkpt lat="38.052695430815219879150390625" lon="-106.9419206120073795318603515625">
        <ele>3732.39990234375</ele>
        <time>2026-05-25T17:13:07.000Z</time>
        <extensions>
          <ns3:TrackPointExtension>
            <ns3:hr>84</ns3:hr>
            <ns3:cad>55</ns3:cad>
          </ns3:TrackPointExtension>
        </extensions>
      </trkpt>
      <trkpt lat="38.052738346159458160400390625" lon="-106.94193159230053424835205078125">
        <ele>3731.800048828125</ele>
        <time>2026-05-25T17:13:11.000Z</time>
        <extensions>
          <ns3:TrackPointExtension>
            <ns3:hr>83</ns3:hr>
            <ns3:cad>55</ns3:cad>
          </ns3:TrackPointExtension>
        </extensions>
      </trkpt>
      <trkpt lat="38.05276005528867244720458984375" lon="-106.94194014184176921844482421875">
        <ele>3731.800048828125</ele>
        <time>2026-05-25T17:13:14.000Z</time>
        <extensions>
          <ns3:TrackPointExtension>
            <ns3:hr>80</ns3:hr>
            <ns3:cad>55</ns3:cad>
          </ns3:TrackPointExtension>
        </extensions>
      </trkpt>
      <trkpt lat="38.05278159677982330322265625" lon="-106.94193578325212001800537109375">
        <ele>3731</ele>
        <time>2026-05-25T17:13:16.000Z</time>
        <extensions>
          <ns3:TrackPointExtension>
            <ns3:hr>79</ns3:hr>
            <ns3:cad>55</ns3:cad>
          </ns3:TrackPointExtension>
        </extensions>
      </trkpt>
      <trkpt lat="38.052829205989837646484375" lon="-106.941951625049114227294921875">
        <ele>3730</ele>
        <time>2026-05-25T17:13:19.000Z</time>
        <extensions>
          <ns3:TrackPointExtension>
            <ns3:hr>78</ns3:hr>
            <ns3:cad>57</ns3:cad>
          </ns3:TrackPointExtension>
        </extensions>
      </trkpt>
      <trkpt lat="38.05285292677581310272216796875" lon="-106.941941566765308380126953125">
        <ele>3729.800048828125</ele>
        <time>2026-05-25T17:13:22.000Z</time>
        <extensions>
          <ns3:TrackPointExtension>
            <ns3:hr>78</ns3:hr>
            <ns3:cad>57</ns3:cad>
          </ns3:TrackPointExtension>
        </extensions>
      </trkpt>
      <trkpt lat="38.0528748035430908203125" lon="-106.94193930365145206451416015625">
        <ele>3729</ele>
        <time>2026-05-25T17:13:25.000Z</time>
        <extensions>
          <ns3:TrackPointExtension>
            <ns3:hr>80</ns3:hr>
            <ns3:cad>57</ns3:cad>
          </ns3:TrackPointExtension>
        </extensions>
      </trkpt>
      <trkpt lat="38.0528962612152099609375" lon="-106.9419313408434391021728515625">
        <ele>3728.60009765625</ele>
        <time>2026-05-25T17:13:27.000Z</time>
        <extensions>
          <ns3:TrackPointExtension>
            <ns3:hr>80</ns3:hr>
            <ns3:cad>57</ns3:cad>
          </ns3:TrackPointExtension>
        </extensions>
      </trkpt>
      <trkpt lat="38.0529339797794818878173828125" lon="-106.94191130809485912322998046875">
        <ele>3727.800048828125</ele>
        <time>2026-05-25T17:13:31.000Z</time>
        <extensions>
          <ns3:TrackPointExtension>
            <ns3:hr>81</ns3:hr>
            <ns3:cad>59</ns3:cad>
          </ns3:TrackPointExtension>
        </extensions>
      </trkpt>
      <trkpt lat="38.05295233614742755889892578125" lon="-106.941887922585010528564453125">
        <ele>3727.60009765625</ele>
        <time>2026-05-25T17:13:32.000Z</time>
        <extensions>
          <ns3:TrackPointExtension>
            <ns3:hr>81</ns3:hr>
            <ns3:cad>0</ns3:cad>
          </ns3:TrackPointExtension>
        </extensions>
      </trkpt>
      <trkpt lat="38.05297463200986385345458984375" lon="-106.94187409244477748870849609375">
        <ele>3727.199951171875</ele>
        <time>2026-05-25T17:13:34.000Z</time>
        <extensions>
          <ns3:TrackPointExtension>
            <ns3:hr>80</ns3:hr>
            <ns3:cad>0</ns3:cad>
          </ns3:TrackPointExtension>
        </extensions>
      </trkpt>
      <trkpt lat="38.05299793370068073272705078125" lon="-106.9418666325509548187255859375">
        <ele>3726.60009765625</ele>
        <time>2026-05-25T17:13:36.000Z</time>
        <extensions>
          <ns3:TrackPointExtension>
            <ns3:hr>80</ns3:hr>
            <ns3:cad>0</ns3:cad>
          </ns3:TrackPointExtension>
        </extensions>
      </trkpt>
      <trkpt lat="38.0530442856252193450927734375" lon="-106.941853724420070648193359375">
        <ele>3725.39990234375</ele>
        <time>2026-05-25T17:13:40.000Z</time>
        <extensions>
          <ns3:TrackPointExtension>
            <ns3:hr>79</ns3:hr>
            <ns3:cad>0</ns3:cad>
          </ns3:TrackPointExtension>
        </extensions>
      </trkpt>
      <trkpt lat="38.05306146852672100067138671875" lon="-106.94183503277599811553955078125">
        <ele>3725</ele>
        <time>2026-05-25T17:13:42.000Z</time>
        <extensions>
          <ns3:TrackPointExtension>
            <ns3:hr>80</ns3:hr>
            <ns3:cad>0</ns3:cad>
          </ns3:TrackPointExtension>
        </extensions>
      </trkpt>
      <trkpt lat="38.05308929644525051116943359375" lon="-106.94181374274194240570068359375">
        <ele>3724.39990234375</ele>
        <time>2026-05-25T17:13:45.000Z</time>
        <extensions>
          <ns3:TrackPointExtension>
            <ns3:hr>79</ns3:hr>
            <ns3:cad>0</ns3:cad>
          </ns3:TrackPointExtension>
        </extensions>
      </trkpt>
      <trkpt lat="38.05312894284725189208984375" lon="-106.94178499281406402587890625">
        <ele>3723.800048828125</ele>
        <time>2026-05-25T17:13:50.000Z</time>
        <extensions>
          <ns3:TrackPointExtension>
            <ns3:hr>81</ns3:hr>
            <ns3:cad>56</ns3:cad>
          </ns3:TrackPointExtension>
        </extensions>
      </trkpt>
      <trkpt lat="38.05318300612270832061767578125" lon="-106.94174702279269695281982421875">
        <ele>3723.199951171875</ele>
        <time>2026-05-25T17:13:54.000Z</time>
        <extensions>
          <ns3:TrackPointExtension>
            <ns3:hr>82</ns3:hr>
            <ns3:cad>58</ns3:cad>
          </ns3:TrackPointExtension>
        </extensions>
      </trkpt>
      <trkpt lat="38.0532035417854785919189453125" lon="-106.9417341984808444976806640625">
        <ele>3722.60009765625</ele>
        <time>2026-05-25T17:13:56.000Z</time>
        <extensions>
          <ns3:TrackPointExtension>
            <ns3:hr>82</ns3:hr>
            <ns3:cad>58</ns3:cad>
          </ns3:TrackPointExtension>
        </extensions>
      </trkpt>
      <trkpt lat="38.05322156287729740142822265625" lon="-106.94171232171356678009033203125">
        <ele>3722.199951171875</ele>
        <time>2026-05-25T17:13:58.000Z</time>
        <extensions>
          <ns3:TrackPointExtension>
            <ns3:hr>82</ns3:hr>
            <ns3:cad>58</ns3:cad>
          </ns3:TrackPointExtension>
        </extensions>
      </trkpt>
      <trkpt lat="38.0532786436378955841064453125" lon="-106.94166965782642364501953125">
        <ele>3721.199951171875</ele>
        <time>2026-05-25T17:14:04.000Z</time>
        <extensions>
          <ns3:TrackPointExtension>
            <ns3:hr>83</ns3:hr>
            <ns3:cad>58</ns3:cad>
          </ns3:TrackPointExtension>
        </extensions>
      </trkpt>
      <trkpt lat="38.05329230614006519317626953125" lon="-106.94166622124612331390380859375">
        <ele>3721</ele>
        <time>2026-05-25T17:14:05.000Z</time>
        <extensions>
          <ns3:TrackPointExtension>
            <ns3:hr>83</ns3:hr>
            <ns3:cad>58</ns3:cad>
          </ns3:TrackPointExtension>
        </extensions>
      </trkpt>
      <trkpt lat="38.05331225506961345672607421875" lon="-106.94164685904979705810546875">
        <ele>3720.800048828125</ele>
        <time>2026-05-25T17:14:06.000Z</time>
        <extensions>
          <ns3:TrackPointExtension>
            <ns3:hr>84</ns3:hr>
            <ns3:cad>58</ns3:cad>
          </ns3:TrackPointExtension>
        </extensions>
      </trkpt>
      <trkpt lat="38.0533446930348873138427734375" lon="-106.941628754138946533203125">
        <ele>3720</ele>
        <time>2026-05-25T17:14:10.000Z</time>
        <extensions>
          <ns3:TrackPointExtension>
            <ns3:hr>85</ns3:hr>
            <ns3:cad>58</ns3:cad>
          </ns3:TrackPointExtension>
        </extensions>
      </trkpt>
      <trkpt lat="38.053356595337390899658203125" lon="-106.94162330590188503265380859375">
        <ele>3719.60009765625</ele>
        <time>2026-05-25T17:14:11.000Z</time>
        <extensions>
          <ns3:TrackPointExtension>
            <ns3:hr>83</ns3:hr>
            <ns3:cad>58</ns3:cad>
          </ns3:TrackPointExtension>
        </extensions>
      </trkpt>
      <trkpt lat="38.0533832497894763946533203125" lon="-106.9416071288287639617919921875">
        <ele>3718.800048828125</ele>
        <time>2026-05-25T17:14:14.000Z</time>
        <extensions>
          <ns3:TrackPointExtension>
            <ns3:hr>81</ns3:hr>
            <ns3:cad>58</ns3:cad>
          </ns3:TrackPointExtension>
        </extensions>
      </trkpt>
      <trkpt lat="38.0534181185066699981689453125" lon="-106.94156102836132049560546875">
        <ele>3718.39990234375</ele>
        <time>2026-05-25T17:14:17.000Z</time>
        <extensions>
          <ns3:TrackPointExtension>
            <ns3:hr>80</ns3:hr>
            <ns3:cad>0</ns3:cad>
          </ns3:TrackPointExtension>
        </extensions>
      </trkpt>
      <trkpt lat="38.05347117595374584197998046875" lon="-106.94152506999671459197998046875">
        <ele>3717.800048828125</ele>
        <time>2026-05-25T17:14:22.000Z</time>
        <extensions>
          <ns3:TrackPointExtension>
            <ns3:hr>79</ns3:hr>
            <ns3:cad>79</ns3:cad>
          </ns3:TrackPointExtension>
        </extensions>
      </trkpt>
      <trkpt lat="38.053520210087299346923828125" lon="-106.94150612689554691314697265625">
        <ele>3716.60009765625</ele>
        <time>2026-05-25T17:14:25.000Z</time>
        <extensions>
          <ns3:TrackPointExtension>
            <ns3:hr>78</ns3:hr>
            <ns3:cad>79</ns3:cad>
          </ns3:TrackPointExtension>
        </extensions>
      </trkpt>
      <trkpt lat="38.0535455234348773956298828125" lon="-106.9414777122437953948974609375">
        <ele>3716.199951171875</ele>
        <time>2026-05-25T17:14:28.000Z</time>
        <extensions>
          <ns3:TrackPointExtension>
            <ns3:hr>76</ns3:hr>
            <ns3:cad>55</ns3:cad>
          </ns3:TrackPointExtension>
        </extensions>
      </trkpt>
      <trkpt lat="38.05357963778078556060791015625" lon="-106.9414720125496387481689453125">
        <ele>3715.60009765625</ele>
        <time>2026-05-25T17:14:32.000Z</time>
        <extensions>
          <ns3:TrackPointExtension>
            <ns3:hr>74</ns3:hr>
            <ns3:cad>0</ns3:cad>
          </ns3:TrackPointExtension>
        </extensions>
      </trkpt>
      <trkpt lat="38.05362037383019924163818359375" lon="-106.9414394907653331756591796875">
        <ele>3714.800048828125</ele>
        <time>2026-05-25T17:14:35.000Z</time>
        <extensions>
          <ns3:TrackPointExtension>
            <ns3:hr>74</ns3:hr>
            <ns3:cad>0</ns3:cad>
          </ns3:TrackPointExtension>
        </extensions>
      </trkpt>
      <trkpt lat="38.05363948456943035125732421875" lon="-106.94142364896833896636962890625">
        <ele>3714.39990234375</ele>
        <time>2026-05-25T17:14:37.000Z</time>
        <extensions>
          <ns3:TrackPointExtension>
            <ns3:hr>74</ns3:hr>
            <ns3:cad>57</ns3:cad>
          </ns3:TrackPointExtension>
        </extensions>
      </trkpt>
      <trkpt lat="38.0536789633333683013916015625" lon="-106.94139364175498485565185546875">
        <ele>3713.199951171875</ele>
        <time>2026-05-25T17:14:41.000Z</time>
        <extensions>
          <ns3:TrackPointExtension>
            <ns3:hr>76</ns3:hr>
            <ns3:cad>55</ns3:cad>
          </ns3:TrackPointExtension>
        </extensions>
      </trkpt>
      <trkpt lat="38.053692542016506195068359375" lon="-106.94137805141508579254150390625">
        <ele>3713</ele>
        <time>2026-05-25T17:14:44.000Z</time>
        <extensions>
          <ns3:TrackPointExtension>
            <ns3:hr>79</ns3:hr>
            <ns3:cad>55</ns3:cad>
          </ns3:TrackPointExtension>
        </extensions>
      </trkpt>
      <trkpt lat="38.05370159447193145751953125" lon="-106.9413667358458042144775390625">
        <ele>3713</ele>
        <time>2026-05-25T17:14:45.000Z</time>
        <extensions>
          <ns3:TrackPointExtension>
            <ns3:hr>82</ns3:hr>
            <ns3:cad>55</ns3:cad>
          </ns3:TrackPointExtension>
        </extensions>
      </trkpt>
      <trkpt lat="38.05375129915773868560791015625" lon="-106.94130546413362026214599609375">
        <ele>3712</ele>
        <time>2026-05-25T17:14:49.000Z</time>
        <extensions>
          <ns3:TrackPointExtension>
            <ns3:hr>83</ns3:hr>
            <ns3:cad>53</ns3:cad>
          </ns3:TrackPointExtension>
        </extensions>
      </trkpt>
      <trkpt lat="38.05376152507960796356201171875" lon="-106.94129674695432186126708984375">
        <ele>3711.60009765625</ele>
        <time>2026-05-25T17:14:51.000Z</time>
        <extensions>
          <ns3:TrackPointExtension>
            <ns3:hr>86</ns3:hr>
            <ns3:cad>53</ns3:cad>
          </ns3:TrackPointExtension>
        </extensions>
      </trkpt>
      <trkpt lat="38.0538046918809413909912109375" lon="-106.9412651471793651580810546875">
        <ele>3711.39990234375</ele>
        <time>2026-05-25T17:14:54.000Z</time>
        <extensions>
          <ns3:TrackPointExtension>
            <ns3:hr>84</ns3:hr>
            <ns3:cad>53</ns3:cad>
          </ns3:TrackPointExtension>
        </extensions>
      </trkpt>
      <trkpt lat="38.05383210070431232452392578125" lon="-106.94124226458370685577392578125">
        <ele>3711.199951171875</ele>
        <time>2026-05-25T17:14:57.000Z</time>
        <extensions>
          <ns3:TrackPointExtension>
            <ns3:hr>86</ns3:hr>
            <ns3:cad>53</ns3:cad>
          </ns3:TrackPointExtension>
        </extensions>
      </trkpt>
      <trkpt lat="38.05384249426424503326416015625" lon="-106.94123706780374050140380859375">
        <ele>3711</ele>
        <time>2026-05-25T17:14:58.000Z</time>
        <extensions>
          <ns3:TrackPointExtension>
            <ns3:hr>88</ns3:hr>
            <ns3:cad>56</ns3:cad>
          </ns3:TrackPointExtension>
        </extensions>
      </trkpt>
      <trkpt lat="38.05386696942150592803955078125" lon="-106.94122902117669582366943359375">
        <ele>3709.800048828125</ele>
        <time>2026-05-25T17:15:01.000Z</time>
        <extensions>
          <ns3:TrackPointExtension>
            <ns3:hr>90</ns3:hr>
            <ns3:cad>56</ns3:cad>
          </ns3:TrackPointExtension>
        </extensions>
      </trkpt>
      <trkpt lat="38.05391483008861541748046875" lon="-106.9411833398044109344482421875">
        <ele>3709</ele>
        <time>2026-05-25T17:15:06.000Z</time>
        <extensions>
          <ns3:TrackPointExtension>
            <ns3:hr>92</ns3:hr>
            <ns3:cad>56</ns3:cad>
          </ns3:TrackPointExtension>
        </extensions>
      </trkpt>
      <trkpt lat="38.053941987454891204833984375" lon="-106.94114855490624904632568359375">
        <ele>3708.800048828125</ele>
        <time>2026-05-25T17:15:08.000Z</time>
        <extensions>
          <ns3:TrackPointExtension>
            <ns3:hr>95</ns3:hr>
            <ns3:cad>56</ns3:cad>
          </ns3:TrackPointExtension>
        </extensions>
      </trkpt>
      <trkpt lat="38.0539766885340213775634765625" lon="-106.9411432743072509765625">
        <ele>3708</ele>
        <time>2026-05-25T17:15:12.000Z</time>
        <extensions>
          <ns3:TrackPointExtension>
            <ns3:hr>98</ns3:hr>
            <ns3:cad>0</ns3:cad>
          </ns3:TrackPointExtension>
        </extensions>
      </trkpt>
      <trkpt lat="38.0539974756538867950439453125" lon="-106.94113799370825290679931640625">
        <ele>3707.60009765625</ele>
        <time>2026-05-25T17:15:14.000Z</time>
        <extensions>
          <ns3:TrackPointExtension>
            <ns3:hr>99</ns3:hr>
            <ns3:cad>0</ns3:cad>
          </ns3:TrackPointExtension>
        </extensions>
      </trkpt>
      <trkpt lat="38.0540370382368564605712890625" lon="-106.94111309945583343505859375">
        <ele>3707.199951171875</ele>
        <time>2026-05-25T17:15:17.000Z</time>
        <extensions>
          <ns3:TrackPointExtension>
            <ns3:hr>100</ns3:hr>
            <ns3:cad>68</ns3:cad>
          </ns3:TrackPointExtension>
        </extensions>
      </trkpt>
      <trkpt lat="38.054068721830844879150390625" lon="-106.94108468480408191680908203125">
        <ele>3706.39990234375</ele>
        <time>2026-05-25T17:15:20.000Z</time>
        <extensions>
          <ns3:TrackPointExtension>
            <ns3:hr>100</ns3:hr>
            <ns3:cad>68</ns3:cad>
          </ns3:TrackPointExtension>
        </extensions>
      </trkpt>
      <trkpt lat="38.05409680120646953582763671875" lon="-106.9410505704581737518310546875">
        <ele>3705.199951171875</ele>
        <time>2026-05-25T17:15:24.000Z</time>
        <extensions>
          <ns3:TrackPointExtension>
            <ns3:hr>98</ns3:hr>
            <ns3:cad>68</ns3:cad>
          </ns3:TrackPointExtension>
        </extensions>
      </trkpt>
      <trkpt lat="38.05410166271030902862548828125" lon="-106.94104294292628765106201171875">
        <ele>3704.800048828125</ele>
        <time>2026-05-25T17:15:25.000Z</time>
        <extensions>
          <ns3:TrackPointExtension>
            <ns3:hr>98</ns3:hr>
            <ns3:cad>68</ns3:cad>
          </ns3:TrackPointExtension>
        </extensions>
      </trkpt>
      <trkpt lat="38.05412965826690196990966796875" lon="-106.94101746194064617156982421875">
        <ele>3704</ele>
        <time>2026-05-25T17:15:28.000Z</time>
        <extensions>
          <ns3:TrackPointExtension>
            <ns3:hr>95</ns3:hr>
            <ns3:cad>68</ns3:cad>
          </ns3:TrackPointExtension>
        </extensions>
      </trkpt>
      <trkpt lat="38.0541912652552127838134765625" lon="-106.9409962557256221771240234375">
        <ele>3703.39990234375</ele>
        <time>2026-05-25T17:15:32.000Z</time>
        <extensions>
          <ns3:TrackPointExtension>
            <ns3:hr>94</ns3:hr>
            <ns3:cad>57</ns3:cad>
          </ns3:TrackPointExtension>
        </extensions>
      </trkpt>
      <trkpt lat="38.0542118847370147705078125" lon="-106.9409872032701969146728515625">
        <ele>3702.800048828125</ele>
        <time>2026-05-25T17:15:34.000Z</time>
        <extensions>
          <ns3:TrackPointExtension>
            <ns3:hr>93</ns3:hr>
            <ns3:cad>57</ns3:cad>
          </ns3:TrackPointExtension>
        </extensions>
      </trkpt>
      <trkpt lat="38.05424465797841548919677734375" lon="-106.9409694336354732513427734375">
        <ele>3701.800048828125</ele>
        <time>2026-05-25T17:15:38.000Z</time>
        <extensions>
          <ns3:TrackPointExtension>
            <ns3:hr>94</ns3:hr>
            <ns3:cad>58</ns3:cad>
          </ns3:TrackPointExtension>
        </extensions>
      </trkpt>
      <trkpt lat="38.05425387807190418243408203125" lon="-106.9409563578665256500244140625">
        <ele>3701.39990234375</ele>
        <time>2026-05-25T17:15:39.000Z</time>
        <extensions>
          <ns3:TrackPointExtension>
            <ns3:hr>93</ns3:hr>
            <ns3:cad>58</ns3:cad>
          </ns3:TrackPointExtension>
        </extensions>
      </trkpt>
      <trkpt lat="38.05429930798709392547607421875" lon="-106.9408732093870639801025390625">
        <ele>3700.60009765625</ele>
        <time>2026-05-25T17:15:45.000Z</time>
        <extensions>
          <ns3:TrackPointExtension>
            <ns3:hr>94</ns3:hr>
            <ns3:cad>54</ns3:cad>
          </ns3:TrackPointExtension>
        </extensions>
      </trkpt>
      <trkpt lat="38.0543055944144725799560546875" lon="-106.94085921160876750946044921875">
        <ele>3700.199951171875</ele>
        <time>2026-05-25T17:15:46.000Z</time>
        <extensions>
          <ns3:TrackPointExtension>
            <ns3:hr>94</ns3:hr>
            <ns3:cad>54</ns3:cad>
          </ns3:TrackPointExtension>
        </extensions>
      </trkpt>
      <trkpt lat="38.0543625913560390472412109375" lon="-106.94078461267054080963134765625">
        <ele>3699.60009765625</ele>
        <time>2026-05-25T17:15:52.000Z</time>
        <extensions>
          <ns3:TrackPointExtension>
            <ns3:hr>93</ns3:hr>
            <ns3:cad>56</ns3:cad>
          </ns3:TrackPointExtension>
        </extensions>
      </trkpt>
      <trkpt lat="38.05437675677239894866943359375" lon="-106.94078050553798675537109375">
        <ele>3699.39990234375</ele>
        <time>2026-05-25T17:15:53.000Z</time>
        <extensions>
          <ns3:TrackPointExtension>
            <ns3:hr>93</ns3:hr>
            <ns3:cad>0</ns3:cad>
          </ns3:TrackPointExtension>
        </extensions>
      </trkpt>
      <trkpt lat="38.05440106429159641265869140625" lon="-106.94078025408089160919189453125">
        <ele>3698.60009765625</ele>
        <time>2026-05-25T17:15:55.000Z</time>
        <extensions>
          <ns3:TrackPointExtension>
            <ns3:hr>94</ns3:hr>
            <ns3:cad>0</ns3:cad>
          </ns3:TrackPointExtension>
        </extensions>
      </trkpt>
      <trkpt lat="38.0544138886034488677978515625" lon="-106.9407709501683712005615234375">
        <ele>3698.199951171875</ele>
        <time>2026-05-25T17:15:56.000Z</time>
        <extensions>
          <ns3:TrackPointExtension>
            <ns3:hr>93</ns3:hr>
            <ns3:cad>0</ns3:cad>
          </ns3:TrackPointExtension>
        </extensions>
      </trkpt>
      <trkpt lat="38.0544252879917621612548828125" lon="-106.94076131097972393035888671875">
        <ele>3697.60009765625</ele>
        <time>2026-05-25T17:15:59.000Z</time>
        <extensions>
          <ns3:TrackPointExtension>
            <ns3:hr>96</ns3:hr>
            <ns3:cad>0</ns3:cad>
          </ns3:TrackPointExtension>
        </extensions>
      </trkpt>
      <trkpt lat="38.0544425547122955322265625" lon="-106.9407521747052669525146484375">
        <ele>3697.199951171875</ele>
        <time>2026-05-25T17:16:01.000Z</time>
        <extensions>
          <ns3:TrackPointExtension>
            <ns3:hr>99</ns3:hr>
            <ns3:cad>0</ns3:cad>
          </ns3:TrackPointExtension>
        </extensions>
      </trkpt>
      <trkpt lat="38.05450751446187496185302734375" lon="-106.940727196633815765380859375">
        <ele>3696</ele>
        <time>2026-05-25T17:16:06.000Z</time>
        <extensions>
          <ns3:TrackPointExtension>
            <ns3:hr>100</ns3:hr>
            <ns3:cad>0</ns3:cad>
          </ns3:TrackPointExtension>
        </extensions>
      </trkpt>
      <trkpt lat="38.054519332945346832275390625" lon="-106.94072376005351543426513671875">
        <ele>3695.800048828125</ele>
        <time>2026-05-25T17:16:07.000Z</time>
        <extensions>
          <ns3:TrackPointExtension>
            <ns3:hr>100</ns3:hr>
            <ns3:cad>0</ns3:cad>
          </ns3:TrackPointExtension>
        </extensions>
      </trkpt>
      <trkpt lat="38.054540455341339111328125" lon="-106.94072325713932514190673828125">
        <ele>3695</ele>
        <time>2026-05-25T17:16:10.000Z</time>
        <extensions>
          <ns3:TrackPointExtension>
            <ns3:hr>100</ns3:hr>
            <ns3:cad>0</ns3:cad>
          </ns3:TrackPointExtension>
        </extensions>
      </trkpt>
      <trkpt lat="38.054578006267547607421875" lon="-106.94071051664650440216064453125">
        <ele>3694.39990234375</ele>
        <time>2026-05-25T17:16:13.000Z</time>
        <extensions>
          <ns3:TrackPointExtension>
            <ns3:hr>99</ns3:hr>
            <ns3:cad>0</ns3:cad>
          </ns3:TrackPointExtension>
        </extensions>
      </trkpt>
      <trkpt lat="38.0546274594962596893310546875" lon="-106.9407112710177898406982421875">
        <ele>3693.800048828125</ele>
        <time>2026-05-25T17:16:16.000Z</time>
        <extensions>
          <ns3:TrackPointExtension>
            <ns3:hr>98</ns3:hr>
            <ns3:cad>0</ns3:cad>
          </ns3:TrackPointExtension>
        </extensions>
      </trkpt>
      <trkpt lat="38.0546569637954235076904296875" lon="-106.94071236066520214080810546875">
        <ele>3693</ele>
        <time>2026-05-25T17:16:20.000Z</time>
        <extensions>
          <ns3:TrackPointExtension>
            <ns3:hr>97</ns3:hr>
            <ns3:cad>0</ns3:cad>
          </ns3:TrackPointExtension>
        </extensions>
      </trkpt>
      <trkpt lat="38.05467196740210056304931640625" lon="-106.9407142885029315948486328125">
        <ele>3692.60009765625</ele>
        <time>2026-05-25T17:16:21.000Z</time>
        <extensions>
          <ns3:TrackPointExtension>
            <ns3:hr>97</ns3:hr>
            <ns3:cad>0</ns3:cad>
          </ns3:TrackPointExtension>
        </extensions>
      </trkpt>
      <trkpt lat="38.05470717139542102813720703125" lon="-106.94069375284016132354736328125">
        <ele>3692.39990234375</ele>
        <time>2026-05-25T17:16:24.000Z</time>
        <extensions>
          <ns3:TrackPointExtension>
            <ns3:hr>95</ns3:hr>
            <ns3:cad>0</ns3:cad>
          </ns3:TrackPointExtension>
        </extensions>
      </trkpt>
      <trkpt lat="38.05471253581345081329345703125" lon="-106.940684281289577484130859375">
        <ele>3692.39990234375</ele>
        <time>2026-05-25T17:16:25.000Z</time>
        <extensions>
          <ns3:TrackPointExtension>
            <ns3:hr>95</ns3:hr>
            <ns3:cad>0</ns3:cad>
          </ns3:TrackPointExtension>
        </extensions>
      </trkpt>
      <trkpt lat="38.05474891327321529388427734375" lon="-106.94067296572029590606689453125">
        <ele>3691.60009765625</ele>
        <time>2026-05-25T17:16:28.000Z</time>
        <extensions>
          <ns3:TrackPointExtension>
            <ns3:hr>94</ns3:hr>
            <ns3:cad>57</ns3:cad>
          </ns3:TrackPointExtension>
        </extensions>
      </trkpt>
      <trkpt lat="38.054765760898590087890625" lon="-106.9406546093523502349853515625">
        <ele>3690.800048828125</ele>
        <time>2026-05-25T17:16:31.000Z</time>
        <extensions>
          <ns3:TrackPointExtension>
            <ns3:hr>93</ns3:hr>
            <ns3:cad>57</ns3:cad>
          </ns3:TrackPointExtension>
        </extensions>
      </trkpt>
      <trkpt lat="38.05477607063949108123779296875" lon="-106.9406452216207981109619140625">
        <ele>3690.60009765625</ele>
        <time>2026-05-25T17:16:32.000Z</time>
        <extensions>
          <ns3:TrackPointExtension>
            <ns3:hr>93</ns3:hr>
            <ns3:cad>0</ns3:cad>
          </ns3:TrackPointExtension>
        </extensions>
      </trkpt>
      <trkpt lat="38.05479870177805423736572265625" lon="-106.94061395712196826934814453125">
        <ele>3690.199951171875</ele>
        <time>2026-05-25T17:16:34.000Z</time>
        <extensions>
          <ns3:TrackPointExtension>
            <ns3:hr>89</ns3:hr>
            <ns3:cad>0</ns3:cad>
          </ns3:TrackPointExtension>
        </extensions>
      </trkpt>
      <trkpt lat="38.054817728698253631591796875" lon="-106.94059140980243682861328125">
        <ele>3689.800048828125</ele>
        <time>2026-05-25T17:16:36.000Z</time>
        <extensions>
          <ns3:TrackPointExtension>
            <ns3:hr>86</ns3:hr>
            <ns3:cad>0</ns3:cad>
          </ns3:TrackPointExtension>
        </extensions>
      </trkpt>
      <trkpt lat="38.054817728698253631591796875" lon="-106.94059140980243682861328125">
        <ele>3689.39990234375</ele>
        <time>2026-05-25T17:16:37.000Z</time>
        <extensions>
          <ns3:TrackPointExtension>
            <ns3:hr>85</ns3:hr>
            <ns3:cad>0</ns3:cad>
          </ns3:TrackPointExtension>
        </extensions>
      </trkpt>
      <trkpt lat="38.05483960546553134918212890625" lon="-106.94055251777172088623046875">
        <ele>3689.199951171875</ele>
        <time>2026-05-25T17:16:39.000Z</time>
        <extensions>
          <ns3:TrackPointExtension>
            <ns3:hr>84</ns3:hr>
            <ns3:cad>58</ns3:cad>
          </ns3:TrackPointExtension>
        </extensions>
      </trkpt>
      <trkpt lat="38.054886125028133392333984375" lon="-106.940524689853191375732421875">
        <ele>3688.39990234375</ele>
        <time>2026-05-25T17:16:44.000Z</time>
        <extensions>
          <ns3:TrackPointExtension>
            <ns3:hr>84</ns3:hr>
            <ns3:cad>57</ns3:cad>
          </ns3:TrackPointExtension>
        </extensions>
      </trkpt>
      <trkpt lat="38.0549184791743755340576171875" lon="-106.94049677811563014984130859375">
        <ele>3687.60009765625</ele>
        <time>2026-05-25T17:16:47.000Z</time>
        <extensions>
          <ns3:TrackPointExtension>
            <ns3:hr>85</ns3:hr>
            <ns3:cad>57</ns3:cad>
          </ns3:TrackPointExtension>
        </extensions>
      </trkpt>
      <trkpt lat="38.05492845363914966583251953125" lon="-106.94048839621245861053466796875">
        <ele>3687.199951171875</ele>
        <time>2026-05-25T17:16:48.000Z</time>
        <extensions>
          <ns3:TrackPointExtension>
            <ns3:hr>86</ns3:hr>
            <ns3:cad>57</ns3:cad>
          </ns3:TrackPointExtension>
        </extensions>
      </trkpt>
      <trkpt lat="38.05498478002846240997314453125" lon="-106.94046123884618282318115234375">
        <ele>3686.39990234375</ele>
        <time>2026-05-25T17:16:52.000Z</time>
        <extensions>
          <ns3:TrackPointExtension>
            <ns3:hr>91</ns3:hr>
            <ns3:cad>57</ns3:cad>
          </ns3:TrackPointExtension>
        </extensions>
      </trkpt>
      <trkpt lat="38.05500020273029804229736328125" lon="-106.94046526215970516204833984375">
        <ele>3686.199951171875</ele>
        <time>2026-05-25T17:16:54.000Z</time>
        <extensions>
          <ns3:TrackPointExtension>
            <ns3:hr>95</ns3:hr>
            <ns3:cad>57</ns3:cad>
          </ns3:TrackPointExtension>
        </extensions>
      </trkpt>
      <trkpt lat="38.05501495487987995147705078125" lon="-106.9404403679072856903076171875">
        <ele>3686</ele>
        <time>2026-05-25T17:16:56.000Z</time>
        <extensions>
          <ns3:TrackPointExtension>
            <ns3:hr>98</ns3:hr>
            <ns3:cad>57</ns3:cad>
          </ns3:TrackPointExtension>
        </extensions>
      </trkpt>
      <trkpt lat="38.0550445429980754852294921875" lon="-106.94039502181112766265869140625">
        <ele>3685.800048828125</ele>
        <time>2026-05-25T17:16:59.000Z</time>
        <extensions>
          <ns3:TrackPointExtension>
            <ns3:hr>99</ns3:hr>
            <ns3:cad>58</ns3:cad>
          </ns3:TrackPointExtension>
        </extensions>
      </trkpt>
      <trkpt lat="38.0550817586481571197509765625" lon="-106.94037976674735546112060546875">
        <ele>3685</ele>
        <time>2026-05-25T17:17:02.000Z</time>
        <extensions>
          <ns3:TrackPointExtension>
            <ns3:hr>100</ns3:hr>
            <ns3:cad>58</ns3:cad>
          </ns3:TrackPointExtension>
        </extensions>
      </trkpt>
      <trkpt lat="38.0550988577306270599365234375" lon="-106.94035445339977741241455078125">
        <ele>3684.199951171875</ele>
        <time>2026-05-25T17:17:05.000Z</time>
        <extensions>
          <ns3:TrackPointExtension>
            <ns3:hr>100</ns3:hr>
            <ns3:cad>0</ns3:cad>
          </ns3:TrackPointExtension>
        </extensions>
      </trkpt>
      <trkpt lat="38.05509743280708789825439453125" lon="-106.94033249281346797943115234375">
        <ele>3684</ele>
        <time>2026-05-25T17:17:06.000Z</time>
        <extensions>
          <ns3:TrackPointExtension>
            <ns3:hr>100</ns3:hr>
            <ns3:cad>0</ns3:cad>
          </ns3:TrackPointExtension>
        </extensions>
      </trkpt>
      <trkpt lat="38.05509760044515132904052734375" lon="-106.94031338207423686981201171875">
        <ele>3684</ele>
        <time>2026-05-25T17:17:07.000Z</time>
        <extensions>
          <ns3:TrackPointExtension>
            <ns3:hr>100</ns3:hr>
            <ns3:cad>0</ns3:cad>
          </ns3:TrackPointExtension>
        </extensions>
      </trkpt>
      <trkpt lat="38.055115453898906707763671875" lon="-106.94026091136038303375244140625">
        <ele>3683.60009765625</ele>
        <time>2026-05-25T17:17:09.000Z</time>
        <extensions>
          <ns3:TrackPointExtension>
            <ns3:hr>100</ns3:hr>
            <ns3:cad>59</ns3:cad>
          </ns3:TrackPointExtension>
        </extensions>
      </trkpt>
      <trkpt lat="38.05512492544949054718017578125" lon="-106.940252780914306640625">
        <ele>3683.39990234375</ele>
        <time>2026-05-25T17:17:10.000Z</time>
        <extensions>
          <ns3:TrackPointExtension>
            <ns3:hr>100</ns3:hr>
            <ns3:cad>59</ns3:cad>
          </ns3:TrackPointExtension>
        </extensions>
      </trkpt>
      <trkpt lat="38.05513666011393070220947265625" lon="-106.94025185890495777130126953125">
        <ele>3682.60009765625</ele>
        <time>2026-05-25T17:17:12.000Z</time>
        <extensions>
          <ns3:TrackPointExtension>
            <ns3:hr>99</ns3:hr>
            <ns3:cad>59</ns3:cad>
          </ns3:TrackPointExtension>
        </extensions>
      </trkpt>
      <trkpt lat="38.05517890490591526031494140625" lon="-106.94024029187858104705810546875">
        <ele>3682</ele>
        <time>2026-05-25T17:17:15.000Z</time>
        <extensions>
          <ns3:TrackPointExtension>
            <ns3:hr>97</ns3:hr>
            <ns3:cad>59</ns3:cad>
          </ns3:TrackPointExtension>
        </extensions>
      </trkpt>
      <trkpt lat="38.05517890490591526031494140625" lon="-106.94024029187858104705810546875">
        <ele>3682</ele>
        <time>2026-05-25T17:17:16.000Z</time>
        <extensions>
          <ns3:TrackPointExtension>
            <ns3:hr>97</ns3:hr>
            <ns3:cad>59</ns3:cad>
          </ns3:TrackPointExtension>
        </extensions>
      </trkpt>
      <trkpt lat="38.05522014386951923370361328125" lon="-106.940206848084926605224609375">
        <ele>3681.60009765625</ele>
        <time>2026-05-25T17:17:20.000Z</time>
        <extensions>
          <ns3:TrackPointExtension>
            <ns3:hr>98</ns3:hr>
            <ns3:cad>60</ns3:cad>
          </ns3:TrackPointExtension>
        </extensions>
      </trkpt>
      <trkpt lat="38.05526725016534328460693359375" lon="-106.94017021916806697845458984375">
        <ele>3680.60009765625</ele>
        <time>2026-05-25T17:17:24.000Z</time>
        <extensions>
          <ns3:TrackPointExtension>
            <ns3:hr>99</ns3:hr>
            <ns3:cad>60</ns3:cad>
          </ns3:TrackPointExtension>
        </extensions>
      </trkpt>
      <trkpt lat="38.05527010001242160797119140625" lon="-106.94015596993267536163330078125">
        <ele>3680.60009765625</ele>
        <time>2026-05-25T17:17:25.000Z</time>
        <extensions>
          <ns3:TrackPointExtension>
            <ns3:hr>100</ns3:hr>
            <ns3:cad>62</ns3:cad>
          </ns3:TrackPointExtension>
        </extensions>
      </trkpt>
      <trkpt lat="38.0552738718688488006591796875" lon="-106.94014213979244232177734375">
        <ele>3680.39990234375</ele>
        <time>2026-05-25T17:17:26.000Z</time>
        <extensions>
          <ns3:TrackPointExtension>
            <ns3:hr>99</ns3:hr>
            <ns3:cad>62</ns3:cad>
          </ns3:TrackPointExtension>
        </extensions>
      </trkpt>
      <trkpt lat="38.05529876612126827239990234375" lon="-106.9401119649410247802734375">
        <ele>3679.60009765625</ele>
        <time>2026-05-25T17:17:30.000Z</time>
        <extensions>
          <ns3:TrackPointExtension>
            <ns3:hr>99</ns3:hr>
            <ns3:cad>62</ns3:cad>
          </ns3:TrackPointExtension>
        </extensions>
      </trkpt>
      <trkpt lat="38.05531016550958156585693359375" lon="-106.94010232575237751007080078125">
        <ele>3679.39990234375</ele>
        <time>2026-05-25T17:17:31.000Z</time>
        <extensions>
          <ns3:TrackPointExtension>
            <ns3:hr>99</ns3:hr>
            <ns3:cad>62</ns3:cad>
          </ns3:TrackPointExtension>
        </extensions>
      </trkpt>
      <trkpt lat="38.05535517632961273193359375" lon="-106.94005689583718776702880859375">
        <ele>3678.199951171875</ele>
        <time>2026-05-25T17:17:35.000Z</time>
        <extensions>
          <ns3:TrackPointExtension>
            <ns3:hr>98</ns3:hr>
            <ns3:cad>54</ns3:cad>
          </ns3:TrackPointExtension>
        </extensions>
      </trkpt>
      <trkpt lat="38.0553786456584930419921875" lon="-106.9400449097156524658203125">
        <ele>3677.800048828125</ele>
        <time>2026-05-25T17:17:38.000Z</time>
        <extensions>
          <ns3:TrackPointExtension>
            <ns3:hr>96</ns3:hr>
            <ns3:cad>56</ns3:cad>
          </ns3:TrackPointExtension>
        </extensions>
      </trkpt>
      <trkpt lat="38.0554260872304439544677734375" lon="-106.94001884199678897857666015625">
        <ele>3677</ele>
        <time>2026-05-25T17:17:42.000Z</time>
        <extensions>
          <ns3:TrackPointExtension>
            <ns3:hr>94</ns3:hr>
            <ns3:cad>54</ns3:cad>
          </ns3:TrackPointExtension>
        </extensions>
      </trkpt>
      <trkpt lat="38.05544209666550159454345703125" lon="-106.93999537266790866851806640625">
        <ele>3676.800048828125</ele>
        <time>2026-05-25T17:17:43.000Z</time>
        <extensions>
          <ns3:TrackPointExtension>
            <ns3:hr>94</ns3:hr>
            <ns3:cad>54</ns3:cad>
          </ns3:TrackPointExtension>
        </extensions>
      </trkpt>
      <trkpt lat="38.05545466952025890350341796875" lon="-106.9399671256542205810546875">
        <ele>3676.60009765625</ele>
        <time>2026-05-25T17:17:46.000Z</time>
        <extensions>
          <ns3:TrackPointExtension>
            <ns3:hr>92</ns3:hr>
            <ns3:cad>54</ns3:cad>
          </ns3:TrackPointExtension>
        </extensions>
      </trkpt>
      <trkpt lat="38.05549875833094120025634765625" lon="-106.939917504787445068359375">
        <ele>3676</ele>
        <time>2026-05-25T17:17:50.000Z</time>
        <extensions>
          <ns3:TrackPointExtension>
            <ns3:hr>91</ns3:hr>
            <ns3:cad>0</ns3:cad>
          </ns3:TrackPointExtension>
        </extensions>
      </trkpt>
      <trkpt lat="38.05553178302943706512451171875" lon="-106.9398851506412029266357421875">
        <ele>3675</ele>
        <time>2026-05-25T17:17:53.000Z</time>
        <extensions>
          <ns3:TrackPointExtension>
            <ns3:hr>92</ns3:hr>
            <ns3:cad>58</ns3:cad>
          </ns3:TrackPointExtension>
        </extensions>
      </trkpt>
      <trkpt lat="38.05554569698870182037353515625" lon="-106.93988691084086894989013671875">
        <ele>3674.800048828125</ele>
        <time>2026-05-25T17:17:54.000Z</time>
        <extensions>
          <ns3:TrackPointExtension>
            <ns3:hr>92</ns3:hr>
            <ns3:cad>58</ns3:cad>
          </ns3:TrackPointExtension>
        </extensions>
      </trkpt>
      <trkpt lat="38.05559632368385791778564453125" lon="-106.939875595271587371826171875">
        <ele>3674.199951171875</ele>
        <time>2026-05-25T17:17:59.000Z</time>
        <extensions>
          <ns3:TrackPointExtension>
            <ns3:hr>90</ns3:hr>
            <ns3:cad>57</ns3:cad>
          </ns3:TrackPointExtension>
        </extensions>
      </trkpt>
      <trkpt lat="38.05563278496265411376953125" lon="-106.939866542816162109375">
        <ele>3673.60009765625</ele>
        <time>2026-05-25T17:18:01.000Z</time>
        <extensions>
          <ns3:TrackPointExtension>
            <ns3:hr>89</ns3:hr>
            <ns3:cad>59</ns3:cad>
          </ns3:TrackPointExtension>
        </extensions>
      </trkpt>
      <trkpt lat="38.055664636194705963134765625" lon="-106.939832679927349090576171875">
        <ele>3672.800048828125</ele>
        <time>2026-05-25T17:18:04.000Z</time>
        <extensions>
          <ns3:TrackPointExtension>
            <ns3:hr>88</ns3:hr>
            <ns3:cad>58</ns3:cad>
          </ns3:TrackPointExtension>
        </extensions>
      </trkpt>
      <trkpt lat="38.05566631257534027099609375" lon="-106.9398184306919574737548828125">
        <ele>3672.60009765625</ele>
        <time>2026-05-25T17:18:05.000Z</time>
        <extensions>
          <ns3:TrackPointExtension>
            <ns3:hr>88</ns3:hr>
            <ns3:cad>59</ns3:cad>
          </ns3:TrackPointExtension>
        </extensions>
      </trkpt>
      <trkpt lat="38.05566606111824512481689453125" lon="-106.93979873321950435638427734375">
        <ele>3672.800048828125</ele>
        <time>2026-05-25T17:18:07.000Z</time>
        <extensions>
          <ns3:TrackPointExtension>
            <ns3:hr>88</ns3:hr>
            <ns3:cad>58</ns3:cad>
          </ns3:TrackPointExtension>
        </extensions>
      </trkpt>
      <trkpt lat="38.055684082210063934326171875" lon="-106.93978079594671726226806640625">
        <ele>3672.60009765625</ele>
        <time>2026-05-25T17:18:09.000Z</time>
        <extensions>
          <ns3:TrackPointExtension>
            <ns3:hr>88</ns3:hr>
            <ns3:cad>57</ns3:cad>
          </ns3:TrackPointExtension>
        </extensions>
      </trkpt>
      <trkpt lat="38.0557204596698284149169921875" lon="-106.939760930836200714111328125">
        <ele>3672</ele>
        <time>2026-05-25T17:18:11.000Z</time>
        <extensions>
          <ns3:TrackPointExtension>
            <ns3:hr>88</ns3:hr>
            <ns3:cad>57</ns3:cad>
          </ns3:TrackPointExtension>
        </extensions>
      </trkpt>
      <trkpt lat="38.0557204596698284149169921875" lon="-106.939760930836200714111328125">
        <ele>3671.60009765625</ele>
        <time>2026-05-25T17:18:12.000Z</time>
        <extensions>
          <ns3:TrackPointExtension>
            <ns3:hr>88</ns3:hr>
            <ns3:cad>57</ns3:cad>
          </ns3:TrackPointExtension>
        </extensions>
      </trkpt>
      <trkpt lat="38.0557268299162387847900390625" lon="-106.93973000161349773406982421875">
        <ele>3671.199951171875</ele>
        <time>2026-05-25T17:18:13.000Z</time>
        <extensions>
          <ns3:TrackPointExtension>
            <ns3:hr>89</ns3:hr>
            <ns3:cad>62</ns3:cad>
          </ns3:TrackPointExtension>
        </extensions>
      </trkpt>
      <trkpt lat="38.05572758428752422332763671875" lon="-106.939730755984783172607421875">
        <ele>3670.800048828125</ele>
        <time>2026-05-25T17:18:15.000Z</time>
        <extensions>
          <ns3:TrackPointExtension>
            <ns3:hr>90</ns3:hr>
            <ns3:cad>62</ns3:cad>
          </ns3:TrackPointExtension>
        </extensions>
      </trkpt>
      <trkpt lat="38.05572758428752422332763671875" lon="-106.939730755984783172607421875">
        <ele>3670.800048828125</ele>
        <time>2026-05-25T17:18:16.000Z</time>
        <extensions>
          <ns3:TrackPointExtension>
            <ns3:hr>91</ns3:hr>
            <ns3:cad>0</ns3:cad>
          </ns3:TrackPointExtension>
        </extensions>
      </trkpt>
      <trkpt lat="38.05573278106749057769775390625" lon="-106.9397285766899585723876953125">
        <ele>3670.800048828125</ele>
        <time>2026-05-25T17:18:17.000Z</time>
        <extensions>
          <ns3:TrackPointExtension>
            <ns3:hr>91</ns3:hr>
            <ns3:cad>0</ns3:cad>
          </ns3:TrackPointExtension>
        </extensions>
      </trkpt>
      <trkpt lat="38.0557311885058879852294921875" lon="-106.93972027860581874847412109375">
        <ele>3671.199951171875</ele>
        <time>2026-05-25T17:18:21.000Z</time>
        <extensions>
          <ns3:TrackPointExtension>
            <ns3:hr>91</ns3:hr>
            <ns3:cad>0</ns3:cad>
          </ns3:TrackPointExtension>
        </extensions>
      </trkpt>
      <trkpt lat="38.055731356143951416015625" lon="-106.93972128443419933319091796875">
        <ele>3671</ele>
        <time>2026-05-25T17:18:27.000Z</time>
        <extensions>
          <ns3:TrackPointExtension>
            <ns3:hr>93</ns3:hr>
            <ns3:cad>0</ns3:cad>
          </ns3:TrackPointExtension>
        </extensions>
      </trkpt>
      <trkpt lat="38.055731356143951416015625" lon="-106.93972128443419933319091796875">
        <ele>3671.60009765625</ele>
        <time>2026-05-25T17:18:33.000Z</time>
        <extensions>
          <ns3:TrackPointExtension>
            <ns3:hr>94</ns3:hr>
            <ns3:cad>0</ns3:cad>
          </ns3:TrackPointExtension>
        </extensions>
      </trkpt>
      <trkpt lat="38.055731356143951416015625" lon="-106.93972128443419933319091796875">
        <ele>3672.199951171875</ele>
        <time>2026-05-25T17:18:37.000Z</time>
        <extensions>
          <ns3:TrackPointExtension>
            <ns3:hr>94</ns3:hr>
            <ns3:cad>0</ns3:cad>
          </ns3:TrackPointExtension>
        </extensions>
      </trkpt>
      <trkpt lat="38.055731356143951416015625" lon="-106.93972128443419933319091796875">
        <ele>3671.800048828125</ele>
        <time>2026-05-25T17:18:43.000Z</time>
        <extensions>
          <ns3:TrackPointExtension>
            <ns3:hr>96</ns3:hr>
            <ns3:cad>0</ns3:cad>
          </ns3:TrackPointExtension>
        </extensions>
      </trkpt>
      <trkpt lat="38.055731356143951416015625" lon="-106.93972128443419933319091796875">
        <ele>3671.60009765625</ele>
        <time>2026-05-25T17:18:46.000Z</time>
        <extensions>
          <ns3:TrackPointExtension>
            <ns3:hr>99</ns3:hr>
            <ns3:cad>0</ns3:cad>
          </ns3:TrackPointExtension>
        </extensions>
      </trkpt>
      <trkpt lat="38.055731356143951416015625" lon="-106.93972128443419933319091796875">
        <ele>3670.800048828125</ele>
        <time>2026-05-25T17:18:52.000Z</time>
        <extensions>
          <ns3:TrackPointExtension>
            <ns3:hr>100</ns3:hr>
            <ns3:cad>0</ns3:cad>
          </ns3:TrackPointExtension>
        </extensions>
      </trkpt>
      <trkpt lat="38.055731356143951416015625" lon="-106.93972128443419933319091796875">
        <ele>3671</ele>
        <time>2026-05-25T17:18:54.000Z</time>
        <extensions>
          <ns3:TrackPointExtension>
            <ns3:hr>101</ns3:hr>
            <ns3:cad>0</ns3:cad>
          </ns3:TrackPointExtension>
        </extensions>
      </trkpt>
      <trkpt lat="38.055731356143951416015625" lon="-106.93972128443419933319091796875">
        <ele>3670.60009765625</ele>
        <time>2026-05-25T17:19:00.000Z</time>
        <extensions>
          <ns3:TrackPointExtension>
            <ns3:hr>101</ns3:hr>
            <ns3:cad>0</ns3:cad>
          </ns3:TrackPointExtension>
        </extensions>
      </trkpt>
      <trkpt lat="38.055731356143951416015625" lon="-106.93972128443419933319091796875">
        <ele>3670.60009765625</ele>
        <time>2026-05-25T17:19:05.000Z</time>
        <extensions>
          <ns3:TrackPointExtension>
            <ns3:hr>101</ns3:hr>
            <ns3:cad>0</ns3:cad>
          </ns3:TrackPointExtension>
        </extensions>
      </trkpt>
      <trkpt lat="38.055731356143951416015625" lon="-106.93972128443419933319091796875">
        <ele>3670.39990234375</ele>
        <time>2026-05-25T17:19:06.000Z</time>
        <extensions>
          <ns3:TrackPointExtension>
            <ns3:hr>97</ns3:hr>
            <ns3:cad>0</ns3:cad>
          </ns3:TrackPointExtension>
        </extensions>
      </trkpt>
      <trkpt lat="38.055731356143951416015625" lon="-106.93972128443419933319091796875">
        <ele>3670</ele>
        <time>2026-05-25T17:19:09.000Z</time>
        <extensions>
          <ns3:TrackPointExtension>
            <ns3:hr>94</ns3:hr>
            <ns3:cad>0</ns3:cad>
          </ns3:TrackPointExtension>
        </extensions>
      </trkpt>
      <trkpt lat="38.055731356143951416015625" lon="-106.93972128443419933319091796875">
        <ele>3669.800048828125</ele>
        <time>2026-05-25T17:19:12.000Z</time>
        <extensions>
          <ns3:TrackPointExtension>
            <ns3:hr>91</ns3:hr>
            <ns3:cad>0</ns3:cad>
          </ns3:TrackPointExtension>
        </extensions>
      </trkpt>
      <trkpt lat="38.055731356143951416015625" lon="-106.93972128443419933319091796875">
        <ele>3669.800048828125</ele>
        <time>2026-05-25T17:19:18.000Z</time>
        <extensions>
          <ns3:TrackPointExtension>
            <ns3:hr>90</ns3:hr>
            <ns3:cad>0</ns3:cad>
          </ns3:TrackPointExtension>
        </extensions>
      </trkpt>
      <trkpt lat="38.055731356143951416015625" lon="-106.93972128443419933319091796875">
        <ele>3670</ele>
        <time>2026-05-25T17:19:23.000Z</time>
        <extensions>
          <ns3:TrackPointExtension>
            <ns3:hr>89</ns3:hr>
            <ns3:cad>0</ns3:cad>
          </ns3:TrackPointExtension>
        </extensions>
      </trkpt>
      <trkpt lat="38.055731356143951416015625" lon="-106.93972128443419933319091796875">
        <ele>3669.60009765625</ele>
        <time>2026-05-25T17:19:29.000Z</time>
        <extensions>
          <ns3:TrackPointExtension>
            <ns3:hr>89</ns3:hr>
            <ns3:cad>0</ns3:cad>
          </ns3:TrackPointExtension>
        </extensions>
      </trkpt>
      <trkpt lat="38.055731356143951416015625" lon="-106.93972128443419933319091796875">
        <ele>3669.60009765625</ele>
        <time>2026-05-25T17:19:30.000Z</time>
        <extensions>
          <ns3:TrackPointExtension>
            <ns3:hr>89</ns3:hr>
            <ns3:cad>0</ns3:cad>
          </ns3:TrackPointExtension>
        </extensions>
      </trkpt>
      <trkpt lat="38.055731356143951416015625" lon="-106.93972128443419933319091796875">
        <ele>3669.800048828125</ele>
        <time>2026-05-25T17:19:34.000Z</time>
        <extensions>
          <ns3:TrackPointExtension>
            <ns3:hr>92</ns3:hr>
            <ns3:cad>0</ns3:cad>
          </ns3:TrackPointExtension>
        </extensions>
      </trkpt>
      <trkpt lat="38.055731356143951416015625" lon="-106.93972128443419933319091796875">
        <ele>3670.199951171875</ele>
        <time>2026-05-25T17:19:38.000Z</time>
        <extensions>
          <ns3:TrackPointExtension>
            <ns3:hr>90</ns3:hr>
            <ns3:cad>0</ns3:cad>
          </ns3:TrackPointExtension>
        </extensions>
      </trkpt>
      <trkpt lat="38.05573931895196437835693359375" lon="-106.93970904685556888580322265625">
        <ele>3670.199951171875</ele>
        <time>2026-05-25T17:19:44.000Z</time>
        <extensions>
          <ns3:TrackPointExtension>
            <ns3:hr>89</ns3:hr>
            <ns3:cad>0</ns3:cad>
          </ns3:TrackPointExtension>
        </extensions>
      </trkpt>
      <trkpt lat="38.05575826205313205718994140625" lon="-106.93969689309597015380859375">
        <ele>3670</ele>
        <time>2026-05-25T17:19:46.000Z</time>
        <extensions>
          <ns3:TrackPointExtension>
            <ns3:hr>89</ns3:hr>
            <ns3:cad>0</ns3:cad>
          </ns3:TrackPointExtension>
        </extensions>
      </trkpt>
      <trkpt lat="38.055788688361644744873046875" lon="-106.93967853672802448272705078125">
        <ele>3669.39990234375</ele>
        <time>2026-05-25T17:19:49.000Z</time>
        <extensions>
          <ns3:TrackPointExtension>
            <ns3:hr>90</ns3:hr>
            <ns3:cad>0</ns3:cad>
          </ns3:TrackPointExtension>
        </extensions>
      </trkpt>
      <trkpt lat="38.05579095147550106048583984375" lon="-106.93967719562351703643798828125">
        <ele>3669.199951171875</ele>
        <time>2026-05-25T17:19:53.000Z</time>
        <extensions>
          <ns3:TrackPointExtension>
            <ns3:hr>90</ns3:hr>
            <ns3:cad>0</ns3:cad>
          </ns3:TrackPointExtension>
        </extensions>
      </trkpt>
      <trkpt lat="38.05579095147550106048583984375" lon="-106.93967719562351703643798828125">
        <ele>3669</ele>
        <time>2026-05-25T17:19:59.000Z</time>
        <extensions>
          <ns3:TrackPointExtension>
            <ns3:hr>93</ns3:hr>
            <ns3:cad>0</ns3:cad>
          </ns3:TrackPointExtension>
        </extensions>
      </trkpt>
      <trkpt lat="38.05579095147550106048583984375" lon="-106.93967719562351703643798828125">
        <ele>3668.800048828125</ele>
        <time>2026-05-25T17:20:03.000Z</time>
        <extensions>
          <ns3:TrackPointExtension>
            <ns3:hr>89</ns3:hr>
            <ns3:cad>0</ns3:cad>
          </ns3:TrackPointExtension>
        </extensions>
      </trkpt>
      <trkpt lat="38.05579095147550106048583984375" lon="-106.93967719562351703643798828125">
        <ele>3668.800048828125</ele>
        <time>2026-05-25T17:20:04.000Z</time>
        <extensions>
          <ns3:TrackPointExtension>
            <ns3:hr>85</ns3:hr>
            <ns3:cad>0</ns3:cad>
          </ns3:TrackPointExtension>
        </extensions>
      </trkpt>
      <trkpt lat="38.05579095147550106048583984375" lon="-106.93967719562351703643798828125">
        <ele>3668.800048828125</ele>
        <time>2026-05-25T17:20:05.000Z</time>
        <extensions>
          <ns3:TrackPointExtension>
            <ns3:hr>81</ns3:hr>
            <ns3:cad>0</ns3:cad>
          </ns3:TrackPointExtension>
        </extensions>
      </trkpt>
      <trkpt lat="38.05579095147550106048583984375" lon="-106.93967719562351703643798828125">
        <ele>3668.800048828125</ele>
        <time>2026-05-25T17:20:11.000Z</time>
        <extensions>
          <ns3:TrackPointExtension>
            <ns3:hr>82</ns3:hr>
            <ns3:cad>0</ns3:cad>
          </ns3:TrackPointExtension>
        </extensions>
      </trkpt>
      <trkpt lat="38.05579095147550106048583984375" lon="-106.93967719562351703643798828125">
        <ele>3668.800048828125</ele>
        <time>2026-05-25T17:20:12.000Z</time>
        <extensions>
          <ns3:TrackPointExtension>
            <ns3:hr>91</ns3:hr>
            <ns3:cad>0</ns3:cad>
          </ns3:TrackPointExtension>
        </extensions>
      </trkpt>
      <trkpt lat="38.05579095147550106048583984375" lon="-106.93967719562351703643798828125">
        <ele>3668.800048828125</ele>
        <time>2026-05-25T17:20:13.000Z</time>
        <extensions>
          <ns3:TrackPointExtension>
            <ns3:hr>97</ns3:hr>
            <ns3:cad>0</ns3:cad>
          </ns3:TrackPointExtension>
        </extensions>
      </trkpt>
      <trkpt lat="38.05579095147550106048583984375" lon="-106.93967719562351703643798828125">
        <ele>3668.800048828125</ele>
        <time>2026-05-25T17:20:14.000Z</time>
        <extensions>
          <ns3:TrackPointExtension>
            <ns3:hr>98</ns3:hr>
            <ns3:cad>0</ns3:cad>
          </ns3:TrackPointExtension>
        </extensions>
      </trkpt>
      <trkpt lat="38.05579095147550106048583984375" lon="-106.93967719562351703643798828125">
        <ele>3669</ele>
        <time>2026-05-25T17:20:20.000Z</time>
        <extensions>
          <ns3:TrackPointExtension>
            <ns3:hr>99</ns3:hr>
            <ns3:cad>0</ns3:cad>
          </ns3:TrackPointExtension>
        </extensions>
      </trkpt>
      <trkpt lat="38.0557948909699916839599609375" lon="-106.93968214094638824462890625">
        <ele>3668.800048828125</ele>
        <time>2026-05-25T17:20:26.000Z</time>
        <extensions>
          <ns3:TrackPointExtension>
            <ns3:hr>100</ns3:hr>
            <ns3:cad>0</ns3:cad>
          </ns3:TrackPointExtension>
        </extensions>
      </trkpt>
      <trkpt lat="38.05581073276698589324951171875" lon="-106.93969152867794036865234375">
        <ele>3668.60009765625</ele>
        <time>2026-05-25T17:20:29.000Z</time>
        <extensions>
          <ns3:TrackPointExtension>
            <ns3:hr>100</ns3:hr>
            <ns3:cad>0</ns3:cad>
          </ns3:TrackPointExtension>
        </extensions>
      </trkpt>
      <trkpt lat="38.05584107525646686553955078125" lon="-106.9397069513797760009765625">
        <ele>3668.39990234375</ele>
        <time>2026-05-25T17:20:31.000Z</time>
        <extensions>
          <ns3:TrackPointExtension>
            <ns3:hr>99</ns3:hr>
            <ns3:cad>56</ns3:cad>
          </ns3:TrackPointExtension>
        </extensions>
      </trkpt>
      <trkpt lat="38.055872507393360137939453125" lon="-106.93969530053436756134033203125">
        <ele>3667.800048828125</ele>
        <time>2026-05-25T17:20:34.000Z</time>
        <extensions>
          <ns3:TrackPointExtension>
            <ns3:hr>97</ns3:hr>
            <ns3:cad>55</ns3:cad>
          </ns3:TrackPointExtension>
        </extensions>
      </trkpt>
      <trkpt lat="38.055904693901538848876953125" lon="-106.93968440406024456024169921875">
        <ele>3667.60009765625</ele>
        <time>2026-05-25T17:20:37.000Z</time>
        <extensions>
          <ns3:TrackPointExtension>
            <ns3:hr>99</ns3:hr>
            <ns3:cad>55</ns3:cad>
          </ns3:TrackPointExtension>
        </extensions>
      </trkpt>
      <trkpt lat="38.0559212900698184967041015625" lon="-106.93968205712735652923583984375">
        <ele>3667.800048828125</ele>
        <time>2026-05-25T17:20:40.000Z</time>
        <extensions>
          <ns3:TrackPointExtension>
            <ns3:hr>97</ns3:hr>
            <ns3:cad>55</ns3:cad>
          </ns3:TrackPointExtension>
        </extensions>
      </trkpt>
      <trkpt lat="38.055940568447113037109375" lon="-106.93967635743319988250732421875">
        <ele>3667.39990234375</ele>
        <time>2026-05-25T17:20:42.000Z</time>
        <extensions>
          <ns3:TrackPointExtension>
            <ns3:hr>97</ns3:hr>
            <ns3:cad>55</ns3:cad>
          </ns3:TrackPointExtension>
        </extensions>
      </trkpt>
      <trkpt lat="38.0559668876230716705322265625" lon="-106.9396745972335338592529296875">
        <ele>3666.60009765625</ele>
        <time>2026-05-25T17:20:44.000Z</time>
        <extensions>
          <ns3:TrackPointExtension>
            <ns3:hr>97</ns3:hr>
            <ns3:cad>59</ns3:cad>
          </ns3:TrackPointExtension>
        </extensions>
      </trkpt>
      <trkpt lat="38.0559789575636386871337890625" lon="-106.9396745972335338592529296875">
        <ele>3666.199951171875</ele>
        <time>2026-05-25T17:20:45.000Z</time>
        <extensions>
          <ns3:TrackPointExtension>
            <ns3:hr>97</ns3:hr>
            <ns3:cad>59</ns3:cad>
          </ns3:TrackPointExtension>
        </extensions>
      </trkpt>
      <trkpt lat="38.05599044077098369598388671875" lon="-106.9396722503006458282470703125">
        <ele>3666</ele>
        <time>2026-05-25T17:20:46.000Z</time>
        <extensions>
          <ns3:TrackPointExtension>
            <ns3:hr>97</ns3:hr>
            <ns3:cad>59</ns3:cad>
          </ns3:TrackPointExtension>
        </extensions>
      </trkpt>
      <trkpt lat="38.05601231753826141357421875" lon="-106.9396551512181758880615234375">
        <ele>3665.199951171875</ele>
        <time>2026-05-25T17:20:50.000Z</time>
        <extensions>
          <ns3:TrackPointExtension>
            <ns3:hr>98</ns3:hr>
            <ns3:cad>58</ns3:cad>
          </ns3:TrackPointExtension>
        </extensions>
      </trkpt>
      <trkpt lat="38.05602665059268474578857421875" lon="-106.9396239705383777618408203125">
        <ele>3664.60009765625</ele>
        <time>2026-05-25T17:20:54.000Z</time>
        <extensions>
          <ns3:TrackPointExtension>
            <ns3:hr>99</ns3:hr>
            <ns3:cad>52</ns3:cad>
          </ns3:TrackPointExtension>
        </extensions>
      </trkpt>
      <trkpt lat="38.05602162145078182220458984375" lon="-106.93962271325290203094482421875">
        <ele>3664.199951171875</ele>
        <time>2026-05-25T17:21:00.000Z</time>
        <extensions>
          <ns3:TrackPointExtension>
            <ns3:hr>98</ns3:hr>
            <ns3:cad>0</ns3:cad>
          </ns3:TrackPointExtension>
        </extensions>
      </trkpt>
      <trkpt lat="38.05602572858333587646484375" lon="-106.93962003104388713836669921875">
        <ele>3664.199951171875</ele>
        <time>2026-05-25T17:21:01.000Z</time>
        <extensions>
          <ns3:TrackPointExtension>
            <ns3:hr>99</ns3:hr>
            <ns3:cad>0</ns3:cad>
          </ns3:TrackPointExtension>
        </extensions>
      </trkpt>
      <trkpt lat="38.0560275726020336151123046875" lon="-106.9396172650158405303955078125">
        <ele>3664</ele>
        <time>2026-05-25T17:21:07.000Z</time>
        <extensions>
          <ns3:TrackPointExtension>
            <ns3:hr>97</ns3:hr>
            <ns3:cad>0</ns3:cad>
          </ns3:TrackPointExtension>
        </extensions>
      </trkpt>
      <trkpt lat="38.0560275726020336151123046875" lon="-106.9396172650158405303955078125">
        <ele>3664</ele>
        <time>2026-05-25T17:21:11.000Z</time>
        <extensions>
          <ns3:TrackPointExtension>
            <ns3:hr>99</ns3:hr>
            <ns3:cad>0</ns3:cad>
          </ns3:TrackPointExtension>
        </extensions>
      </trkpt>
      <trkpt lat="38.0560275726020336151123046875" lon="-106.9396172650158405303955078125">
        <ele>3664</ele>
        <time>2026-05-25T17:21:17.000Z</time>
        <extensions>
          <ns3:TrackPointExtension>
            <ns3:hr>98</ns3:hr>
            <ns3:cad>0</ns3:cad>
          </ns3:TrackPointExtension>
        </extensions>
      </trkpt>
      <trkpt lat="38.05608012713491916656494140625" lon="-106.93963847123086452484130859375">
        <ele>3664.800048828125</ele>
        <time>2026-05-25T17:21:23.000Z</time>
        <extensions>
          <ns3:TrackPointExtension>
            <ns3:hr>100</ns3:hr>
            <ns3:cad>0</ns3:cad>
          </ns3:TrackPointExtension>
        </extensions>
      </trkpt>
      <trkpt lat="38.05610158480703830718994140625" lon="-106.93962405435740947723388671875">
        <ele>3664.60009765625</ele>
        <time>2026-05-25T17:21:25.000Z</time>
        <extensions>
          <ns3:TrackPointExtension>
            <ns3:hr>100</ns3:hr>
            <ns3:cad>54</ns3:cad>
          </ns3:TrackPointExtension>
        </extensions>
      </trkpt>
      <trkpt lat="38.05611281655728816986083984375" lon="-106.939606703817844390869140625">
        <ele>3663.39990234375</ele>
        <time>2026-05-25T17:21:28.000Z</time>
        <extensions>
          <ns3:TrackPointExtension>
            <ns3:hr>100</ns3:hr>
            <ns3:cad>54</ns3:cad>
          </ns3:TrackPointExtension>
        </extensions>
      </trkpt>
      <trkpt lat="38.056117594242095947265625" lon="-106.93959941156208515167236328125">
        <ele>3663</ele>
        <time>2026-05-25T17:21:29.000Z</time>
        <extensions>
          <ns3:TrackPointExtension>
            <ns3:hr>100</ns3:hr>
            <ns3:cad>54</ns3:cad>
          </ns3:TrackPointExtension>
        </extensions>
      </trkpt>
      <trkpt lat="38.0561489425599575042724609375" lon="-106.93956948816776275634765625">
        <ele>3662.39990234375</ele>
        <time>2026-05-25T17:21:34.000Z</time>
        <extensions>
          <ns3:TrackPointExtension>
            <ns3:hr>99</ns3:hr>
            <ns3:cad>54</ns3:cad>
          </ns3:TrackPointExtension>
        </extensions>
      </trkpt>
      <trkpt lat="38.056217171251773834228515625" lon="-106.93953839130699634552001953125">
        <ele>3662</ele>
        <time>2026-05-25T17:21:39.000Z</time>
        <extensions>
          <ns3:TrackPointExtension>
            <ns3:hr>99</ns3:hr>
            <ns3:cad>0</ns3:cad>
          </ns3:TrackPointExtension>
        </extensions>
      </trkpt>
      <trkpt lat="38.05625631473958492279052734375" lon="-106.93951425142586231231689453125">
        <ele>3660.60009765625</ele>
        <time>2026-05-25T17:21:44.000Z</time>
        <extensions>
          <ns3:TrackPointExtension>
            <ns3:hr>99</ns3:hr>
            <ns3:cad>56</ns3:cad>
          </ns3:TrackPointExtension>
        </extensions>
      </trkpt>
      <trkpt lat="38.056282214820384979248046875" lon="-106.93946161307394504547119140625">
        <ele>3660.39990234375</ele>
        <time>2026-05-25T17:21:47.000Z</time>
        <extensions>
          <ns3:TrackPointExtension>
            <ns3:hr>98</ns3:hr>
            <ns3:cad>55</ns3:cad>
          </ns3:TrackPointExtension>
        </extensions>
      </trkpt>
      <trkpt lat="38.05632387287914752960205078125" lon="-106.93940981291234493255615234375">
        <ele>3659.199951171875</ele>
        <time>2026-05-25T17:21:52.000Z</time>
        <extensions>
          <ns3:TrackPointExtension>
            <ns3:hr>97</ns3:hr>
            <ns3:cad>58</ns3:cad>
          </ns3:TrackPointExtension>
        </extensions>
      </trkpt>
      <trkpt lat="38.056331835687160491943359375" lon="-106.93940092809498310089111328125">
        <ele>3659</ele>
        <time>2026-05-25T17:21:53.000Z</time>
        <extensions>
          <ns3:TrackPointExtension>
            <ns3:hr>97</ns3:hr>
            <ns3:cad>58</ns3:cad>
          </ns3:TrackPointExtension>
        </extensions>
      </trkpt>
      <trkpt lat="38.05634130723774433135986328125" lon="-106.93940042518079280853271484375">
        <ele>3658.60009765625</ele>
        <time>2026-05-25T17:21:54.000Z</time>
        <extensions>
          <ns3:TrackPointExtension>
            <ns3:hr>97</ns3:hr>
            <ns3:cad>56</ns3:cad>
          </ns3:TrackPointExtension>
        </extensions>
      </trkpt>
      <trkpt lat="38.05635572411119937896728515625" lon="-106.93940185010433197021484375">
        <ele>3658.199951171875</ele>
        <time>2026-05-25T17:21:55.000Z</time>
        <extensions>
          <ns3:TrackPointExtension>
            <ns3:hr>97</ns3:hr>
            <ns3:cad>56</ns3:cad>
          </ns3:TrackPointExtension>
        </extensions>
      </trkpt>
      <trkpt lat="38.056370727717876434326171875" lon="-106.939384080469608306884765625">
        <ele>3657.60009765625</ele>
        <time>2026-05-25T17:21:58.000Z</time>
        <extensions>
          <ns3:TrackPointExtension>
            <ns3:hr>96</ns3:hr>
            <ns3:cad>56</ns3:cad>
          </ns3:TrackPointExtension>
        </extensions>
      </trkpt>
      <trkpt lat="38.056388162076473236083984375" lon="-106.93929255008697509765625">
        <ele>3657.199951171875</ele>
        <time>2026-05-25T17:22:03.000Z</time>
        <extensions>
          <ns3:TrackPointExtension>
            <ns3:hr>96</ns3:hr>
            <ns3:cad>58</ns3:cad>
          </ns3:TrackPointExtension>
        </extensions>
      </trkpt>
      <trkpt lat="38.05639746598899364471435546875" lon="-106.93928182125091552734375">
        <ele>3657</ele>
        <time>2026-05-25T17:22:04.000Z</time>
        <extensions>
          <ns3:TrackPointExtension>
            <ns3:hr>96</ns3:hr>
            <ns3:cad>58</ns3:cad>
          </ns3:TrackPointExtension>
        </extensions>
      </trkpt>
      <trkpt lat="38.05641808547079563140869140625" lon="-106.939246617257595062255859375">
        <ele>3656.800048828125</ele>
        <time>2026-05-25T17:22:07.000Z</time>
        <extensions>
          <ns3:TrackPointExtension>
            <ns3:hr>92</ns3:hr>
            <ns3:cad>55</ns3:cad>
          </ns3:TrackPointExtension>
        </extensions>
      </trkpt>
      <trkpt lat="38.0564325861632823944091796875" lon="-106.9391773827373981475830078125">
        <ele>3656.60009765625</ele>
        <time>2026-05-25T17:22:12.000Z</time>
        <extensions>
          <ns3:TrackPointExtension>
            <ns3:hr>90</ns3:hr>
            <ns3:cad>0</ns3:cad>
          </ns3:TrackPointExtension>
        </extensions>
      </trkpt>
      <trkpt lat="38.05644909851253032684326171875" lon="-106.93915483541786670684814453125">
        <ele>3656.39990234375</ele>
        <time>2026-05-25T17:22:13.000Z</time>
        <extensions>
          <ns3:TrackPointExtension>
            <ns3:hr>90</ns3:hr>
            <ns3:cad>0</ns3:cad>
          </ns3:TrackPointExtension>
        </extensions>
      </trkpt>
      <trkpt lat="38.05647407658398151397705078125" lon="-106.93914192728698253631591796875">
        <ele>3656.199951171875</ele>
        <time>2026-05-25T17:22:15.000Z</time>
        <extensions>
          <ns3:TrackPointExtension>
            <ns3:hr>90</ns3:hr>
            <ns3:cad>61</ns3:cad>
          </ns3:TrackPointExtension>
        </extensions>
      </trkpt>
      <trkpt lat="38.05650156922638416290283203125" lon="-106.93913538940250873565673828125">
        <ele>3656.199951171875</ele>
        <time>2026-05-25T17:22:18.000Z</time>
        <extensions>
          <ns3:TrackPointExtension>
            <ns3:hr>90</ns3:hr>
            <ns3:cad>61</ns3:cad>
          </ns3:TrackPointExtension>
        </extensions>
      </trkpt>
      <trkpt lat="38.05656678043305873870849609375" lon="-106.93912021815776824951171875">
        <ele>3655</ele>
        <time>2026-05-25T17:22:23.000Z</time>
        <extensions>
          <ns3:TrackPointExtension>
            <ns3:hr>92</ns3:hr>
            <ns3:cad>61</ns3:cad>
          </ns3:TrackPointExtension>
        </extensions>
      </trkpt>
      <trkpt lat="38.05660106241703033447265625" lon="-106.9391049630939960479736328125">
        <ele>3653.800048828125</ele>
        <time>2026-05-25T17:22:26.000Z</time>
        <extensions>
          <ns3:TrackPointExtension>
            <ns3:hr>95</ns3:hr>
            <ns3:cad>0</ns3:cad>
          </ns3:TrackPointExtension>
        </extensions>
      </trkpt>
      <trkpt lat="38.05661070160567760467529296875" lon="-106.939076967537403106689453125">
        <ele>3653.60009765625</ele>
        <time>2026-05-25T17:22:28.000Z</time>
        <extensions>
          <ns3:TrackPointExtension>
            <ns3:hr>96</ns3:hr>
            <ns3:cad>0</ns3:cad>
          </ns3:TrackPointExtension>
        </extensions>
      </trkpt>
      <trkpt lat="38.05664406158030033111572265625" lon="-106.939038075506687164306640625">
        <ele>3652.800048828125</ele>
        <time>2026-05-25T17:22:33.000Z</time>
        <extensions>
          <ns3:TrackPointExtension>
            <ns3:hr>96</ns3:hr>
            <ns3:cad>55</ns3:cad>
          </ns3:TrackPointExtension>
        </extensions>
      </trkpt>
      <trkpt lat="38.0566661059856414794921875" lon="-106.9390271790325641632080078125">
        <ele>3652.60009765625</ele>
        <time>2026-05-25T17:22:35.000Z</time>
        <extensions>
          <ns3:TrackPointExtension>
            <ns3:hr>95</ns3:hr>
            <ns3:cad>56</ns3:cad>
          </ns3:TrackPointExtension>
        </extensions>
      </trkpt>
      <trkpt lat="38.05673039518296718597412109375" lon="-106.9389986805617809295654296875">
        <ele>3651.800048828125</ele>
        <time>2026-05-25T17:22:41.000Z</time>
        <extensions>
          <ns3:TrackPointExtension>
            <ns3:hr>93</ns3:hr>
            <ns3:cad>0</ns3:cad>
          </ns3:TrackPointExtension>
        </extensions>
      </trkpt>
      <trkpt lat="38.05673039518296718597412109375" lon="-106.9389986805617809295654296875">
        <ele>3651.60009765625</ele>
        <time>2026-05-25T17:22:42.000Z</time>
        <extensions>
          <ns3:TrackPointExtension>
            <ns3:hr>93</ns3:hr>
            <ns3:cad>0</ns3:cad>
          </ns3:TrackPointExtension>
        </extensions>
      </trkpt>
      <trkpt lat="38.05680516175925731658935546875" lon="-106.9389731995761394500732421875">
        <ele>3651</ele>
        <time>2026-05-25T17:22:48.000Z</time>
        <extensions>
          <ns3:TrackPointExtension>
            <ns3:hr>95</ns3:hr>
            <ns3:cad>0</ns3:cad>
          </ns3:TrackPointExtension>
        </extensions>
      </trkpt>
      <trkpt lat="38.05685394443571567535400390625" lon="-106.93891561590135097503662109375">
        <ele>3651.199951171875</ele>
        <time>2026-05-25T17:22:54.000Z</time>
        <extensions>
          <ns3:TrackPointExtension>
            <ns3:hr>94</ns3:hr>
            <ns3:cad>53</ns3:cad>
          </ns3:TrackPointExtension>
        </extensions>
      </trkpt>
      <trkpt lat="38.05688378401100635528564453125" lon="-106.9389168731868267059326171875">
        <ele>3650.60009765625</ele>
        <time>2026-05-25T17:22:56.000Z</time>
        <extensions>
          <ns3:TrackPointExtension>
            <ns3:hr>93</ns3:hr>
            <ns3:cad>56</ns3:cad>
          </ns3:TrackPointExtension>
        </extensions>
      </trkpt>
      <trkpt lat="38.0569448880851268768310546875" lon="-106.938922740519046783447265625">
        <ele>3649.60009765625</ele>
        <time>2026-05-25T17:23:02.000Z</time>
        <extensions>
          <ns3:TrackPointExtension>
            <ns3:hr>92</ns3:hr>
            <ns3:cad>56</ns3:cad>
          </ns3:TrackPointExtension>
        </extensions>
      </trkpt>
      <trkpt lat="38.05697129108011722564697265625" lon="-106.93893271498382091522216796875">
        <ele>3649.39990234375</ele>
        <time>2026-05-25T17:23:03.000Z</time>
        <extensions>
          <ns3:TrackPointExtension>
            <ns3:hr>92</ns3:hr>
            <ns3:cad>56</ns3:cad>
          </ns3:TrackPointExtension>
        </extensions>
      </trkpt>
      <trkpt lat="38.05702753365039825439453125" lon="-106.9389634765684604644775390625">
        <ele>3649.199951171875</ele>
        <time>2026-05-25T17:23:09.000Z</time>
        <extensions>
          <ns3:TrackPointExtension>
            <ns3:hr>93</ns3:hr>
            <ns3:cad>0</ns3:cad>
          </ns3:TrackPointExtension>
        </extensions>
      </trkpt>
      <trkpt lat="38.05705075152218341827392578125" lon="-106.9389651529490947723388671875">
        <ele>3649</ele>
        <time>2026-05-25T17:23:10.000Z</time>
        <extensions>
          <ns3:TrackPointExtension>
            <ns3:hr>93</ns3:hr>
            <ns3:cad>0</ns3:cad>
          </ns3:TrackPointExtension>
        </extensions>
      </trkpt>
      <trkpt lat="38.05706433020532131195068359375" lon="-106.9389561004936695098876953125">
        <ele>3648.800048828125</ele>
        <time>2026-05-25T17:23:12.000Z</time>
        <extensions>
          <ns3:TrackPointExtension>
            <ns3:hr>94</ns3:hr>
            <ns3:cad>0</ns3:cad>
          </ns3:TrackPointExtension>
        </extensions>
      </trkpt>
      <trkpt lat="38.05710473097860813140869140625" lon="-106.93892282433807849884033203125">
        <ele>3648.39990234375</ele>
        <time>2026-05-25T17:23:17.000Z</time>
        <extensions>
          <ns3:TrackPointExtension>
            <ns3:hr>95</ns3:hr>
            <ns3:cad>55</ns3:cad>
          </ns3:TrackPointExtension>
        </extensions>
      </trkpt>
      <trkpt lat="38.05712266825139522552490234375" lon="-106.93890538997948169708251953125">
        <ele>3648.199951171875</ele>
        <time>2026-05-25T17:23:18.000Z</time>
        <extensions>
          <ns3:TrackPointExtension>
            <ns3:hr>95</ns3:hr>
            <ns3:cad>55</ns3:cad>
          </ns3:TrackPointExtension>
        </extensions>
      </trkpt>
      <trkpt lat="38.0571554414927959442138671875" lon="-106.93884738720953464508056640625">
        <ele>3647.800048828125</ele>
        <time>2026-05-25T17:23:24.000Z</time>
        <extensions>
          <ns3:TrackPointExtension>
            <ns3:hr>93</ns3:hr>
            <ns3:cad>55</ns3:cad>
          </ns3:TrackPointExtension>
        </extensions>
      </trkpt>
      <trkpt lat="38.05716658942401409149169921875" lon="-106.9388404302299022674560546875">
        <ele>3647.60009765625</ele>
        <time>2026-05-25T17:23:25.000Z</time>
        <extensions>
          <ns3:TrackPointExtension>
            <ns3:hr>93</ns3:hr>
            <ns3:cad>55</ns3:cad>
          </ns3:TrackPointExtension>
        </extensions>
      </trkpt>
      <trkpt lat="38.05719961412250995635986328125" lon="-106.93880212493240833282470703125">
        <ele>3646.800048828125</ele>
        <time>2026-05-25T17:23:28.000Z</time>
        <extensions>
          <ns3:TrackPointExtension>
            <ns3:hr>94</ns3:hr>
            <ns3:cad>55</ns3:cad>
          </ns3:TrackPointExtension>
        </extensions>
      </trkpt>
      <trkpt lat="38.0572208203375339508056640625" lon="-106.93878519348800182342529296875">
        <ele>3646</ele>
        <time>2026-05-25T17:23:31.000Z</time>
        <extensions>
          <ns3:TrackPointExtension>
            <ns3:hr>96</ns3:hr>
            <ns3:cad>55</ns3:cad>
          </ns3:TrackPointExtension>
        </extensions>
      </trkpt>
      <trkpt lat="38.05726264603435993194580078125" lon="-106.9387093372642993927001953125">
        <ele>3646</ele>
        <time>2026-05-25T17:23:37.000Z</time>
        <extensions>
          <ns3:TrackPointExtension>
            <ns3:hr>97</ns3:hr>
            <ns3:cad>0</ns3:cad>
          </ns3:TrackPointExtension>
        </extensions>
      </trkpt>
      <trkpt lat="38.0572664178907871246337890625" lon="-106.93869617767632007598876953125">
        <ele>3645.800048828125</ele>
        <time>2026-05-25T17:23:38.000Z</time>
        <extensions>
          <ns3:TrackPointExtension>
            <ns3:hr>97</ns3:hr>
            <ns3:cad>0</ns3:cad>
          </ns3:TrackPointExtension>
        </extensions>
      </trkpt>
      <trkpt lat="38.0572697706520557403564453125" lon="-106.93868913687765598297119140625">
        <ele>3645.39990234375</ele>
        <time>2026-05-25T17:23:39.000Z</time>
        <extensions>
          <ns3:TrackPointExtension>
            <ns3:hr>98</ns3:hr>
            <ns3:cad>0</ns3:cad>
          </ns3:TrackPointExtension>
        </extensions>
      </trkpt>
      <trkpt lat="38.0572825111448764801025390625" lon="-106.93866734392940998077392578125">
        <ele>3644.39990234375</ele>
        <time>2026-05-25T17:23:42.000Z</time>
        <extensions>
          <ns3:TrackPointExtension>
            <ns3:hr>97</ns3:hr>
            <ns3:cad>40</ns3:cad>
          </ns3:TrackPointExtension>
        </extensions>
      </trkpt>
      <trkpt lat="38.05732081644237041473388671875" lon="-106.9386181421577930450439453125">
        <ele>3643.199951171875</ele>
        <time>2026-05-25T17:23:46.000Z</time>
        <extensions>
          <ns3:TrackPointExtension>
            <ns3:hr>97</ns3:hr>
            <ns3:cad>0</ns3:cad>
          </ns3:TrackPointExtension>
        </extensions>
      </trkpt>
      <trkpt lat="38.05733003653585910797119140625" lon="-106.93861017934978008270263671875">
        <ele>3643</ele>
        <time>2026-05-25T17:23:47.000Z</time>
        <extensions>
          <ns3:TrackPointExtension>
            <ns3:hr>98</ns3:hr>
            <ns3:cad>0</ns3:cad>
          </ns3:TrackPointExtension>
        </extensions>
      </trkpt>
      <trkpt lat="38.05736892856657505035400390625" lon="-106.93856558762490749359130859375">
        <ele>3642.60009765625</ele>
        <time>2026-05-25T17:23:53.000Z</time>
        <extensions>
          <ns3:TrackPointExtension>
            <ns3:hr>98</ns3:hr>
            <ns3:cad>52</ns3:cad>
          </ns3:TrackPointExtension>
        </extensions>
      </trkpt>
      <trkpt lat="38.05738292634487152099609375" lon="-106.9385463930666446685791015625">
        <ele>3643.199951171875</ele>
        <time>2026-05-25T17:23:55.000Z</time>
        <extensions>
          <ns3:TrackPointExtension>
            <ns3:hr>99</ns3:hr>
            <ns3:cad>0</ns3:cad>
          </ns3:TrackPointExtension>
        </extensions>
      </trkpt>
      <trkpt lat="38.0574082396924495697021484375" lon="-106.93850456736981868743896484375">
        <ele>3642.199951171875</ele>
        <time>2026-05-25T17:23:59.000Z</time>
        <extensions>
          <ns3:TrackPointExtension>
            <ns3:hr>97</ns3:hr>
            <ns3:cad>0</ns3:cad>
          </ns3:TrackPointExtension>
        </extensions>
      </trkpt>
      <trkpt lat="38.05742877535521984100341796875" lon="-106.938468106091022491455078125">
        <ele>3641</ele>
        <time>2026-05-25T17:24:01.000Z</time>
        <extensions>
          <ns3:TrackPointExtension>
            <ns3:hr>97</ns3:hr>
            <ns3:cad>0</ns3:cad>
          </ns3:TrackPointExtension>
        </extensions>
      </trkpt>
      <trkpt lat="38.05743162520229816436767578125" lon="-106.93845695815980434417724609375">
        <ele>3640.39990234375</ele>
        <time>2026-05-25T17:24:03.000Z</time>
        <extensions>
          <ns3:TrackPointExtension>
            <ns3:hr>98</ns3:hr>
            <ns3:cad>0</ns3:cad>
          </ns3:TrackPointExtension>
        </extensions>
      </trkpt>
      <trkpt lat="38.05743162520229816436767578125" lon="-106.9384317286312580108642578125">
        <ele>3640.199951171875</ele>
        <time>2026-05-25T17:24:04.000Z</time>
        <extensions>
          <ns3:TrackPointExtension>
            <ns3:hr>98</ns3:hr>
            <ns3:cad>0</ns3:cad>
          </ns3:TrackPointExtension>
        </extensions>
      </trkpt>
      <trkpt lat="38.0574447847902774810791015625" lon="-106.9384062476456165313720703125">
        <ele>3639.800048828125</ele>
        <time>2026-05-25T17:24:07.000Z</time>
        <extensions>
          <ns3:TrackPointExtension>
            <ns3:hr>98</ns3:hr>
            <ns3:cad>0</ns3:cad>
          </ns3:TrackPointExtension>
        </extensions>
      </trkpt>
      <trkpt lat="38.057467080652713775634765625" lon="-106.93839727900922298431396484375">
        <ele>3638.800048828125</ele>
        <time>2026-05-25T17:24:10.000Z</time>
        <extensions>
          <ns3:TrackPointExtension>
            <ns3:hr>97</ns3:hr>
            <ns3:cad>0</ns3:cad>
          </ns3:TrackPointExtension>
        </extensions>
      </trkpt>
      <trkpt lat="38.05748258717358112335205078125" lon="-106.93839409388601779937744140625">
        <ele>3638.60009765625</ele>
        <time>2026-05-25T17:24:11.000Z</time>
        <extensions>
          <ns3:TrackPointExtension>
            <ns3:hr>96</ns3:hr>
            <ns3:cad>0</ns3:cad>
          </ns3:TrackPointExtension>
        </extensions>
      </trkpt>
      <trkpt lat="38.0574960820376873016357421875" lon="-106.93837347440421581268310546875">
        <ele>3638.199951171875</ele>
        <time>2026-05-25T17:24:13.000Z</time>
        <extensions>
          <ns3:TrackPointExtension>
            <ns3:hr>95</ns3:hr>
            <ns3:cad>0</ns3:cad>
          </ns3:TrackPointExtension>
        </extensions>
      </trkpt>
      <trkpt lat="38.0575098283588886260986328125" lon="-106.93836157210171222686767578125">
        <ele>3637.800048828125</ele>
        <time>2026-05-25T17:24:14.000Z</time>
        <extensions>
          <ns3:TrackPointExtension>
            <ns3:hr>95</ns3:hr>
            <ns3:cad>0</ns3:cad>
          </ns3:TrackPointExtension>
        </extensions>
      </trkpt>
      <trkpt lat="38.05752349086105823516845703125" lon="-106.93836090154945850372314453125">
        <ele>3637.39990234375</ele>
        <time>2026-05-25T17:24:16.000Z</time>
        <extensions>
          <ns3:TrackPointExtension>
            <ns3:hr>94</ns3:hr>
            <ns3:cad>0</ns3:cad>
          </ns3:TrackPointExtension>
        </extensions>
      </trkpt>
      <trkpt lat="38.057539165019989013671875" lon="-106.9383631646633148193359375">
        <ele>3637</ele>
        <time>2026-05-25T17:24:17.000Z</time>
        <extensions>
          <ns3:TrackPointExtension>
            <ns3:hr>94</ns3:hr>
            <ns3:cad>0</ns3:cad>
          </ns3:TrackPointExtension>
        </extensions>
      </trkpt>
      <trkpt lat="38.05757411755621433258056640625" lon="-106.93837330676615238189697265625">
        <ele>3636.199951171875</ele>
        <time>2026-05-25T17:24:20.000Z</time>
        <extensions>
          <ns3:TrackPointExtension>
            <ns3:hr>94</ns3:hr>
            <ns3:cad>0</ns3:cad>
          </ns3:TrackPointExtension>
        </extensions>
      </trkpt>
      <trkpt lat="38.0576620437204837799072265625" lon="-106.9383743964135646820068359375">
        <ele>3635.199951171875</ele>
        <time>2026-05-25T17:24:26.000Z</time>
        <extensions>
          <ns3:TrackPointExtension>
            <ns3:hr>94</ns3:hr>
            <ns3:cad>55</ns3:cad>
          </ns3:TrackPointExtension>
        </extensions>
      </trkpt>
      <trkpt lat="38.05766095407307147979736328125" lon="-106.938372552394866943359375">
        <ele>3636</ele>
        <time>2026-05-25T17:24:32.000Z</time>
        <extensions>
          <ns3:TrackPointExtension>
            <ns3:hr>95</ns3:hr>
            <ns3:cad>0</ns3:cad>
          </ns3:TrackPointExtension>
        </extensions>
      </trkpt>
      <trkpt lat="38.05767218582332134246826171875" lon="-106.93837724626064300537109375">
        <ele>3635.800048828125</ele>
        <time>2026-05-25T17:24:37.000Z</time>
        <extensions>
          <ns3:TrackPointExtension>
            <ns3:hr>94</ns3:hr>
            <ns3:cad>0</ns3:cad>
          </ns3:TrackPointExtension>
        </extensions>
      </trkpt>
      <trkpt lat="38.05771962739527225494384765625" lon="-106.93838889710605144500732421875">
        <ele>3635</ele>
        <time>2026-05-25T17:24:41.000Z</time>
        <extensions>
          <ns3:TrackPointExtension>
            <ns3:hr>94</ns3:hr>
            <ns3:cad>0</ns3:cad>
          </ns3:TrackPointExtension>
        </extensions>
      </trkpt>
      <trkpt lat="38.05775198154151439666748046875" lon="-106.93838470615446567535400390625">
        <ele>3634.800048828125</ele>
        <time>2026-05-25T17:24:45.000Z</time>
        <extensions>
          <ns3:TrackPointExtension>
            <ns3:hr>95</ns3:hr>
            <ns3:cad>57</ns3:cad>
          </ns3:TrackPointExtension>
        </extensions>
      </trkpt>
      <trkpt lat="38.05778467096388339996337890625" lon="-106.93838085047900676727294921875">
        <ele>3635.199951171875</ele>
        <time>2026-05-25T17:24:50.000Z</time>
        <extensions>
          <ns3:TrackPointExtension>
            <ns3:hr>92</ns3:hr>
            <ns3:cad>53</ns3:cad>
          </ns3:TrackPointExtension>
        </extensions>
      </trkpt>
      <trkpt lat="38.05779607035219669342041015625" lon="-106.93837867118418216705322265625">
        <ele>3634.800048828125</ele>
        <time>2026-05-25T17:24:51.000Z</time>
        <extensions>
          <ns3:TrackPointExtension>
            <ns3:hr>92</ns3:hr>
            <ns3:cad>0</ns3:cad>
          </ns3:TrackPointExtension>
        </extensions>
      </trkpt>
      <trkpt lat="38.0578370578587055206298828125" lon="-106.93835654295980930328369140625">
        <ele>3633.800048828125</ele>
        <time>2026-05-25T17:24:54.000Z</time>
        <extensions>
          <ns3:TrackPointExtension>
            <ns3:hr>90</ns3:hr>
            <ns3:cad>55</ns3:cad>
          </ns3:TrackPointExtension>
        </extensions>
      </trkpt>
      <trkpt lat="38.05786698125302791595458984375" lon="-106.938319914042949676513671875">
        <ele>3634</ele>
        <time>2026-05-25T17:24:58.000Z</time>
        <extensions>
          <ns3:TrackPointExtension>
            <ns3:hr>88</ns3:hr>
            <ns3:cad>55</ns3:cad>
          </ns3:TrackPointExtension>
        </extensions>
      </trkpt>
      <trkpt lat="38.05790553800761699676513671875" lon="-106.93829007446765899658203125">
        <ele>3632.800048828125</ele>
        <time>2026-05-25T17:25:02.000Z</time>
        <extensions>
          <ns3:TrackPointExtension>
            <ns3:hr>85</ns3:hr>
            <ns3:cad>55</ns3:cad>
          </ns3:TrackPointExtension>
        </extensions>
      </trkpt>
      <trkpt lat="38.057912327349185943603515625" lon="-106.93827859126031398773193359375">
        <ele>3632.60009765625</ele>
        <time>2026-05-25T17:25:03.000Z</time>
        <extensions>
          <ns3:TrackPointExtension>
            <ns3:hr>85</ns3:hr>
            <ns3:cad>0</ns3:cad>
          </ns3:TrackPointExtension>
        </extensions>
      </trkpt>
      <trkpt lat="38.057919703423976898193359375" lon="-106.93827121518552303314208984375">
        <ele>3632.199951171875</ele>
        <time>2026-05-25T17:25:05.000Z</time>
        <extensions>
          <ns3:TrackPointExtension>
            <ns3:hr>86</ns3:hr>
            <ns3:cad>0</ns3:cad>
          </ns3:TrackPointExtension>
        </extensions>
      </trkpt>
      <trkpt lat="38.0579326115548610687255859375" lon="-106.938268952071666717529296875">
        <ele>3632.199951171875</ele>
        <time>2026-05-25T17:25:06.000Z</time>
        <extensions>
          <ns3:TrackPointExtension>
            <ns3:hr>86</ns3:hr>
            <ns3:cad>0</ns3:cad>
          </ns3:TrackPointExtension>
        </extensions>
      </trkpt>
      <trkpt lat="38.05797192268073558807373046875" lon="-106.93823249079287052154541015625">
        <ele>3632.60009765625</ele>
        <time>2026-05-25T17:25:10.000Z</time>
        <extensions>
          <ns3:TrackPointExtension>
            <ns3:hr>87</ns3:hr>
            <ns3:cad>0</ns3:cad>
          </ns3:TrackPointExtension>
        </extensions>
      </trkpt>
      <trkpt lat="38.05804274976253509521484375" lon="-106.938200891017913818359375">
        <ele>3632.199951171875</ele>
        <time>2026-05-25T17:25:16.000Z</time>
        <extensions>
          <ns3:TrackPointExtension>
            <ns3:hr>88</ns3:hr>
            <ns3:cad>0</ns3:cad>
          </ns3:TrackPointExtension>
        </extensions>
      </trkpt>
      <trkpt lat="38.058096058666706085205078125" lon="-106.93818706087768077850341796875">
        <ele>3631.60009765625</ele>
        <time>2026-05-25T17:25:22.000Z</time>
        <extensions>
          <ns3:TrackPointExtension>
            <ns3:hr>85</ns3:hr>
            <ns3:cad>55</ns3:cad>
          </ns3:TrackPointExtension>
        </extensions>
      </trkpt>
      <trkpt lat="38.05810687132179737091064453125" lon="-106.93818136118352413177490234375">
        <ele>3631.60009765625</ele>
        <time>2026-05-25T17:25:23.000Z</time>
        <extensions>
          <ns3:TrackPointExtension>
            <ns3:hr>85</ns3:hr>
            <ns3:cad>53</ns3:cad>
          </ns3:TrackPointExtension>
        </extensions>
      </trkpt>
      <trkpt lat="38.05810687132179737091064453125" lon="-106.93818136118352413177490234375">
        <ele>3631.60009765625</ele>
        <time>2026-05-25T17:25:24.000Z</time>
        <extensions>
          <ns3:TrackPointExtension>
            <ns3:hr>86</ns3:hr>
            <ns3:cad>53</ns3:cad>
          </ns3:TrackPointExtension>
        </extensions>
      </trkpt>
      <trkpt lat="38.05813930928707122802734375" lon="-106.93815085105597972869873046875">
        <ele>3632</ele>
        <time>2026-05-25T17:25:27.000Z</time>
        <extensions>
          <ns3:TrackPointExtension>
            <ns3:hr>89</ns3:hr>
            <ns3:cad>0</ns3:cad>
          </ns3:TrackPointExtension>
        </extensions>
      </trkpt>
      <trkpt lat="38.058163113892078399658203125" lon="-106.93815135397017002105712890625">
        <ele>3632</ele>
        <time>2026-05-25T17:25:30.000Z</time>
        <extensions>
          <ns3:TrackPointExtension>
            <ns3:hr>93</ns3:hr>
            <ns3:cad>56</ns3:cad>
          </ns3:TrackPointExtension>
        </extensions>
      </trkpt>
      <trkpt lat="38.05825992487370967864990234375" lon="-106.93818404339253902435302734375">
        <ele>3631.800048828125</ele>
        <time>2026-05-25T17:25:36.000Z</time>
        <extensions>
          <ns3:TrackPointExtension>
            <ns3:hr>95</ns3:hr>
            <ns3:cad>52</ns3:cad>
          </ns3:TrackPointExtension>
        </extensions>
      </trkpt>
      <trkpt lat="38.05831155739724636077880859375" lon="-106.93821019493043422698974609375">
        <ele>3631.39990234375</ele>
        <time>2026-05-25T17:25:42.000Z</time>
        <extensions>
          <ns3:TrackPointExtension>
            <ns3:hr>94</ns3:hr>
            <ns3:cad>54</ns3:cad>
          </ns3:TrackPointExtension>
        </extensions>
      </trkpt>
      <trkpt lat="38.05834877304732799530029296875" lon="-106.938215307891368865966796875">
        <ele>3631.199951171875</ele>
        <time>2026-05-25T17:25:44.000Z</time>
        <extensions>
          <ns3:TrackPointExtension>
            <ns3:hr>94</ns3:hr>
            <ns3:cad>0</ns3:cad>
          </ns3:TrackPointExtension>
        </extensions>
      </trkpt>
      <trkpt lat="38.0583909340202808380126953125" lon="-106.93816811777651309967041015625">
        <ele>3630.60009765625</ele>
        <time>2026-05-25T17:25:50.000Z</time>
        <extensions>
          <ns3:TrackPointExtension>
            <ns3:hr>93</ns3:hr>
            <ns3:cad>0</ns3:cad>
          </ns3:TrackPointExtension>
        </extensions>
      </trkpt>
      <trkpt lat="38.05840015411376953125" lon="-106.93815386854112148284912109375">
        <ele>3630.39990234375</ele>
        <time>2026-05-25T17:25:51.000Z</time>
        <extensions>
          <ns3:TrackPointExtension>
            <ns3:hr>91</ns3:hr>
            <ns3:cad>0</ns3:cad>
          </ns3:TrackPointExtension>
        </extensions>
      </trkpt>
      <trkpt lat="38.058403171598911285400390625" lon="-106.93812369368970394134521484375">
        <ele>3630</ele>
        <time>2026-05-25T17:25:53.000Z</time>
        <extensions>
          <ns3:TrackPointExtension>
            <ns3:hr>88</ns3:hr>
            <ns3:cad>0</ns3:cad>
          </ns3:TrackPointExtension>
        </extensions>
      </trkpt>
      <trkpt lat="38.05841214023530483245849609375" lon="-106.938061080873012542724609375">
        <ele>3629.60009765625</ele>
        <time>2026-05-25T17:25:56.000Z</time>
        <extensions>
          <ns3:TrackPointExtension>
            <ns3:hr>87</ns3:hr>
            <ns3:cad>0</ns3:cad>
          </ns3:TrackPointExtension>
        </extensions>
      </trkpt>
      <trkpt lat="38.0584087036550045013427734375" lon="-106.938028223812580108642578125">
        <ele>3629.39990234375</ele>
        <time>2026-05-25T17:25:59.000Z</time>
        <extensions>
          <ns3:TrackPointExtension>
            <ns3:hr>86</ns3:hr>
            <ns3:cad>56</ns3:cad>
          </ns3:TrackPointExtension>
        </extensions>
      </trkpt>
      <trkpt lat="38.05842337198555469512939453125" lon="-106.93790459074079990386962890625">
        <ele>3628.60009765625</ele>
        <time>2026-05-25T17:26:05.000Z</time>
        <extensions>
          <ns3:TrackPointExtension>
            <ns3:hr>87</ns3:hr>
            <ns3:cad>55</ns3:cad>
          </ns3:TrackPointExtension>
        </extensions>
      </trkpt>
      <trkpt lat="38.05843208916485309600830078125" lon="-106.93789352662861347198486328125">
        <ele>3628.39990234375</ele>
        <time>2026-05-25T17:26:06.000Z</time>
        <extensions>
          <ns3:TrackPointExtension>
            <ns3:hr>87</ns3:hr>
            <ns3:cad>56</ns3:cad>
          </ns3:TrackPointExtension>
        </extensions>
      </trkpt>
      <trkpt lat="38.05843560956418514251708984375" lon="-106.9378409720957279205322265625">
        <ele>3627.800048828125</ele>
        <time>2026-05-25T17:26:09.000Z</time>
        <extensions>
          <ns3:TrackPointExtension>
            <ns3:hr>90</ns3:hr>
            <ns3:cad>56</ns3:cad>
          </ns3:TrackPointExtension>
        </extensions>
      </trkpt>
      <trkpt lat="38.0584395490586757659912109375" lon="-106.93782580085098743438720703125">
        <ele>3627.800048828125</ele>
        <time>2026-05-25T17:26:11.000Z</time>
        <extensions>
          <ns3:TrackPointExtension>
            <ns3:hr>93</ns3:hr>
            <ns3:cad>55</ns3:cad>
          </ns3:TrackPointExtension>
        </extensions>
      </trkpt>
      <trkpt lat="38.05848129093647003173828125" lon="-106.937719769775867462158203125">
        <ele>3628.199951171875</ele>
        <time>2026-05-25T17:26:17.000Z</time>
        <extensions>
          <ns3:TrackPointExtension>
            <ns3:hr>94</ns3:hr>
            <ns3:cad>54</ns3:cad>
          </ns3:TrackPointExtension>
        </extensions>
      </trkpt>
      <trkpt lat="38.05849042721092700958251953125" lon="-106.93766604177653789520263671875">
        <ele>3628</ele>
        <time>2026-05-25T17:26:20.000Z</time>
        <extensions>
          <ns3:TrackPointExtension>
            <ns3:hr>94</ns3:hr>
            <ns3:cad>53</ns3:cad>
          </ns3:TrackPointExtension>
        </extensions>
      </trkpt>
      <trkpt lat="38.05852797813713550567626953125" lon="-106.93759395740926265716552734375">
        <ele>3627.60009765625</ele>
        <time>2026-05-25T17:26:26.000Z</time>
        <extensions>
          <ns3:TrackPointExtension>
            <ns3:hr>91</ns3:hr>
            <ns3:cad>56</ns3:cad>
          </ns3:TrackPointExtension>
        </extensions>
      </trkpt>
      <trkpt lat="38.05853568948805332183837890625" lon="-106.9375821389257907867431640625">
        <ele>3627.39990234375</ele>
        <time>2026-05-25T17:26:27.000Z</time>
        <extensions>
          <ns3:TrackPointExtension>
            <ns3:hr>90</ns3:hr>
            <ns3:cad>56</ns3:cad>
          </ns3:TrackPointExtension>
        </extensions>
      </trkpt>
      <trkpt lat="38.05854457430541515350341796875" lon="-106.93756177090108394622802734375">
        <ele>3627.199951171875</ele>
        <time>2026-05-25T17:26:28.000Z</time>
        <extensions>
          <ns3:TrackPointExtension>
            <ns3:hr>89</ns3:hr>
            <ns3:cad>56</ns3:cad>
          </ns3:TrackPointExtension>
        </extensions>
      </trkpt>
      <trkpt lat="38.05853954516351222991943359375" lon="-106.93754416890442371368408203125">
        <ele>3626.60009765625</ele>
        <time>2026-05-25T17:26:30.000Z</time>
        <extensions>
          <ns3:TrackPointExtension>
            <ns3:hr>89</ns3:hr>
            <ns3:cad>56</ns3:cad>
          </ns3:TrackPointExtension>
        </extensions>
      </trkpt>
      <trkpt lat="38.05856016464531421661376953125" lon="-106.9374941289424896240234375">
        <ele>3626.39990234375</ele>
        <time>2026-05-25T17:26:34.000Z</time>
        <extensions>
          <ns3:TrackPointExtension>
            <ns3:hr>89</ns3:hr>
            <ns3:cad>54</ns3:cad>
          </ns3:TrackPointExtension>
        </extensions>
      </trkpt>
      <trkpt lat="38.05856980383396148681640625" lon="-106.93739430047571659088134765625">
        <ele>3626</ele>
        <time>2026-05-25T17:26:40.000Z</time>
        <extensions>
          <ns3:TrackPointExtension>
            <ns3:hr>86</ns3:hr>
            <ns3:cad>0</ns3:cad>
          </ns3:TrackPointExtension>
        </extensions>
      </trkpt>
      <trkpt lat="38.058568798005580902099609375" lon="-106.9373819790780544281005859375">
        <ele>3626</ele>
        <time>2026-05-25T17:26:41.000Z</time>
        <extensions>
          <ns3:TrackPointExtension>
            <ns3:hr>86</ns3:hr>
            <ns3:cad>0</ns3:cad>
          </ns3:TrackPointExtension>
        </extensions>
      </trkpt>
      <trkpt lat="38.05858715437352657318115234375" lon="-106.9373283348977565765380859375">
        <ele>3625.199951171875</ele>
        <time>2026-05-25T17:26:45.000Z</time>
        <extensions>
          <ns3:TrackPointExtension>
            <ns3:hr>83</ns3:hr>
            <ns3:cad>56</ns3:cad>
          </ns3:TrackPointExtension>
        </extensions>
      </trkpt>
      <trkpt lat="38.05859285406768321990966796875" lon="-106.9372847490012645721435546875">
        <ele>3625</ele>
        <time>2026-05-25T17:26:48.000Z</time>
        <extensions>
          <ns3:TrackPointExtension>
            <ns3:hr>83</ns3:hr>
            <ns3:cad>56</ns3:cad>
          </ns3:TrackPointExtension>
        </extensions>
      </trkpt>
      <trkpt lat="38.0586544610559940338134765625" lon="-106.93722884170711040496826171875">
        <ele>3624</ele>
        <time>2026-05-25T17:26:54.000Z</time>
        <extensions>
          <ns3:TrackPointExtension>
            <ns3:hr>85</ns3:hr>
            <ns3:cad>0</ns3:cad>
          </ns3:TrackPointExtension>
        </extensions>
      </trkpt>
      <trkpt lat="38.05866611190140247344970703125" lon="-106.9372233934700489044189453125">
        <ele>3624</ele>
        <time>2026-05-25T17:26:55.000Z</time>
        <extensions>
          <ns3:TrackPointExtension>
            <ns3:hr>86</ns3:hr>
            <ns3:cad>0</ns3:cad>
          </ns3:TrackPointExtension>
        </extensions>
      </trkpt>
      <trkpt lat="38.05871665477752685546875" lon="-106.93716279231011867523193359375">
        <ele>3623.39990234375</ele>
        <time>2026-05-25T17:27:00.000Z</time>
        <extensions>
          <ns3:TrackPointExtension>
            <ns3:hr>89</ns3:hr>
            <ns3:cad>56</ns3:cad>
          </ns3:TrackPointExtension>
        </extensions>
      </trkpt>
      <trkpt lat="38.05872025899589061737060546875" lon="-106.93715415894985198974609375">
        <ele>3623.39990234375</ele>
        <time>2026-05-25T17:27:01.000Z</time>
        <extensions>
          <ns3:TrackPointExtension>
            <ns3:hr>89</ns3:hr>
            <ns3:cad>56</ns3:cad>
          </ns3:TrackPointExtension>
        </extensions>
      </trkpt>
      <trkpt lat="38.05873098783195018768310546875" lon="-106.93707478232681751251220703125">
        <ele>3623</ele>
        <time>2026-05-25T17:27:07.000Z</time>
        <extensions>
          <ns3:TrackPointExtension>
            <ns3:hr>88</ns3:hr>
            <ns3:cad>56</ns3:cad>
          </ns3:TrackPointExtension>
        </extensions>
      </trkpt>
      <trkpt lat="38.0587362684309482574462890625" lon="-106.93704511038959026336669921875">
        <ele>3623</ele>
        <time>2026-05-25T17:27:09.000Z</time>
        <extensions>
          <ns3:TrackPointExtension>
            <ns3:hr>88</ns3:hr>
            <ns3:cad>56</ns3:cad>
          </ns3:TrackPointExtension>
        </extensions>
      </trkpt>
      <trkpt lat="38.05872327648103237152099609375" lon="-106.93694871850311756134033203125">
        <ele>3622.60009765625</ele>
        <time>2026-05-25T17:27:14.000Z</time>
        <extensions>
          <ns3:TrackPointExtension>
            <ns3:hr>89</ns3:hr>
            <ns3:cad>0</ns3:cad>
          </ns3:TrackPointExtension>
        </extensions>
      </trkpt>
      <trkpt lat="38.0587211810052394866943359375" lon="-106.9368810765445232391357421875">
        <ele>3622</ele>
        <time>2026-05-25T17:27:20.000Z</time>
        <extensions>
          <ns3:TrackPointExtension>
            <ns3:hr>88</ns3:hr>
            <ns3:cad>0</ns3:cad>
          </ns3:TrackPointExtension>
        </extensions>
      </trkpt>
      <trkpt lat="38.05872092954814434051513671875" lon="-106.93686984479427337646484375">
        <ele>3622</ele>
        <time>2026-05-25T17:27:21.000Z</time>
        <extensions>
          <ns3:TrackPointExtension>
            <ns3:hr>89</ns3:hr>
            <ns3:cad>0</ns3:cad>
          </ns3:TrackPointExtension>
        </extensions>
      </trkpt>
      <trkpt lat="38.0587198399007320404052734375" lon="-106.9368555955588817596435546875">
        <ele>3621.800048828125</ele>
        <time>2026-05-25T17:27:22.000Z</time>
        <extensions>
          <ns3:TrackPointExtension>
            <ns3:hr>89</ns3:hr>
            <ns3:cad>0</ns3:cad>
          </ns3:TrackPointExtension>
        </extensions>
      </trkpt>
      <trkpt lat="38.0586702190339565277099609375" lon="-106.9367751292884349822998046875">
        <ele>3621</ele>
        <time>2026-05-25T17:27:27.000Z</time>
        <extensions>
          <ns3:TrackPointExtension>
            <ns3:hr>89</ns3:hr>
            <ns3:cad>57</ns3:cad>
          </ns3:TrackPointExtension>
        </extensions>
      </trkpt>
      <trkpt lat="38.05866099894046783447265625" lon="-106.93675811402499675750732421875">
        <ele>3620.60009765625</ele>
        <time>2026-05-25T17:27:29.000Z</time>
        <extensions>
          <ns3:TrackPointExtension>
            <ns3:hr>89</ns3:hr>
            <ns3:cad>57</ns3:cad>
          </ns3:TrackPointExtension>
        </extensions>
      </trkpt>
      <trkpt lat="38.05862772278487682342529296875" lon="-106.93668167106807231903076171875">
        <ele>3620.199951171875</ele>
        <time>2026-05-25T17:27:33.000Z</time>
        <extensions>
          <ns3:TrackPointExtension>
            <ns3:hr>87</ns3:hr>
            <ns3:cad>54</ns3:cad>
          </ns3:TrackPointExtension>
        </extensions>
      </trkpt>
      <trkpt lat="38.0585823766887187957763671875" lon="-106.93659148178994655609130859375">
        <ele>3620</ele>
        <time>2026-05-25T17:27:39.000Z</time>
        <extensions>
          <ns3:TrackPointExtension>
            <ns3:hr>86</ns3:hr>
            <ns3:cad>56</ns3:cad>
          </ns3:TrackPointExtension>
        </extensions>
      </trkpt>
      <trkpt lat="38.0585823766887187957763671875" lon="-106.93659148178994655609130859375">
        <ele>3620</ele>
        <time>2026-05-25T17:27:40.000Z</time>
        <extensions>
          <ns3:TrackPointExtension>
            <ns3:hr>86</ns3:hr>
            <ns3:cad>56</ns3:cad>
          </ns3:TrackPointExtension>
        </extensions>
      </trkpt>
      <trkpt lat="38.05855748243629932403564453125" lon="-106.93653012625873088836669921875">
        <ele>3619.39990234375</ele>
        <time>2026-05-25T17:27:44.000Z</time>
        <extensions>
          <ns3:TrackPointExtension>
            <ns3:hr>86</ns3:hr>
            <ns3:cad>56</ns3:cad>
          </ns3:TrackPointExtension>
        </extensions>
      </trkpt>
      <trkpt lat="38.05853920988738536834716796875" lon="-106.93647195585072040557861328125">
        <ele>3619</ele>
        <time>2026-05-25T17:27:47.000Z</time>
        <extensions>
          <ns3:TrackPointExtension>
            <ns3:hr>91</ns3:hr>
            <ns3:cad>56</ns3:cad>
          </ns3:TrackPointExtension>
        </extensions>
      </trkpt>
      <trkpt lat="38.05852345190942287445068359375" lon="-106.936453096568584442138671875">
        <ele>3618.39990234375</ele>
        <time>2026-05-25T17:27:49.000Z</time>
        <extensions>
          <ns3:TrackPointExtension>
            <ns3:hr>93</ns3:hr>
            <ns3:cad>0</ns3:cad>
          </ns3:TrackPointExtension>
        </extensions>
      </trkpt>
      <trkpt lat="38.05851037614047527313232421875" lon="-106.9364308007061481475830078125">
        <ele>3617.60009765625</ele>
        <time>2026-05-25T17:27:54.000Z</time>
        <extensions>
          <ns3:TrackPointExtension>
            <ns3:hr>94</ns3:hr>
            <ns3:cad>0</ns3:cad>
          </ns3:TrackPointExtension>
        </extensions>
      </trkpt>
      <trkpt lat="38.05849461816251277923583984375" lon="-106.936424262821674346923828125">
        <ele>3617.60009765625</ele>
        <time>2026-05-25T17:27:55.000Z</time>
        <extensions>
          <ns3:TrackPointExtension>
            <ns3:hr>95</ns3:hr>
            <ns3:cad>0</ns3:cad>
          </ns3:TrackPointExtension>
        </extensions>
      </trkpt>
      <trkpt lat="38.0584888346493244171142578125" lon="-106.9364073313772678375244140625">
        <ele>3617.39990234375</ele>
        <time>2026-05-25T17:27:59.000Z</time>
        <extensions>
          <ns3:TrackPointExtension>
            <ns3:hr>95</ns3:hr>
            <ns3:cad>0</ns3:cad>
          </ns3:TrackPointExtension>
        </extensions>
      </trkpt>
      <trkpt lat="38.05849512107670307159423828125" lon="-106.9363784976303577423095703125">
        <ele>3617.800048828125</ele>
        <time>2026-05-25T17:28:05.000Z</time>
        <extensions>
          <ns3:TrackPointExtension>
            <ns3:hr>95</ns3:hr>
            <ns3:cad>0</ns3:cad>
          </ns3:TrackPointExtension>
        </extensions>
      </trkpt>
      <trkpt lat="38.05849830619990825653076171875" lon="-106.93636156618595123291015625">
        <ele>3617.199951171875</ele>
        <time>2026-05-25T17:28:06.000Z</time>
        <extensions>
          <ns3:TrackPointExtension>
            <ns3:hr>94</ns3:hr>
            <ns3:cad>0</ns3:cad>
          </ns3:TrackPointExtension>
        </extensions>
      </trkpt>
      <trkpt lat="38.05846611969172954559326171875" lon="-106.936304569244384765625">
        <ele>3616.39990234375</ele>
        <time>2026-05-25T17:28:11.000Z</time>
        <extensions>
          <ns3:TrackPointExtension>
            <ns3:hr>96</ns3:hr>
            <ns3:cad>53</ns3:cad>
          </ns3:TrackPointExtension>
        </extensions>
      </trkpt>
      <trkpt lat="38.0584697239100933074951171875" lon="-106.93625452928245067596435546875">
        <ele>3616.199951171875</ele>
        <time>2026-05-25T17:28:15.000Z</time>
        <extensions>
          <ns3:TrackPointExtension>
            <ns3:hr>98</ns3:hr>
            <ns3:cad>50</ns3:cad>
          </ns3:TrackPointExtension>
        </extensions>
      </trkpt>
      <trkpt lat="38.05847818963229656219482421875" lon="-106.936178170144557952880859375">
        <ele>3615.199951171875</ele>
        <time>2026-05-25T17:28:19.000Z</time>
        <extensions>
          <ns3:TrackPointExtension>
            <ns3:hr>97</ns3:hr>
            <ns3:cad>56</ns3:cad>
          </ns3:TrackPointExtension>
        </extensions>
      </trkpt>
      <trkpt lat="38.05848531424999237060546875" lon="-106.9361642561852931976318359375">
        <ele>3615</ele>
        <time>2026-05-25T17:28:20.000Z</time>
        <extensions>
          <ns3:TrackPointExtension>
            <ns3:hr>97</ns3:hr>
            <ns3:cad>56</ns3:cad>
          </ns3:TrackPointExtension>
        </extensions>
      </trkpt>
      <trkpt lat="38.058479614555835723876953125" lon="-106.93609594367444515228271484375">
        <ele>3614</ele>
        <time>2026-05-25T17:28:24.000Z</time>
        <extensions>
          <ns3:TrackPointExtension>
            <ns3:hr>96</ns3:hr>
            <ns3:cad>56</ns3:cad>
          </ns3:TrackPointExtension>
        </extensions>
      </trkpt>
      <trkpt lat="38.05847718380391597747802734375" lon="-106.93608085624873638153076171875">
        <ele>3614</ele>
        <time>2026-05-25T17:28:25.000Z</time>
        <extensions>
          <ns3:TrackPointExtension>
            <ns3:hr>96</ns3:hr>
            <ns3:cad>56</ns3:cad>
          </ns3:TrackPointExtension>
        </extensions>
      </trkpt>
      <trkpt lat="38.0584797821938991546630859375" lon="-106.9360029883682727813720703125">
        <ele>3614</ele>
        <time>2026-05-25T17:28:31.000Z</time>
        <extensions>
          <ns3:TrackPointExtension>
            <ns3:hr>94</ns3:hr>
            <ns3:cad>0</ns3:cad>
          </ns3:TrackPointExtension>
        </extensions>
      </trkpt>
      <trkpt lat="38.0584764294326305389404296875" lon="-106.9359679520130157470703125">
        <ele>3613.199951171875</ele>
        <time>2026-05-25T17:28:34.000Z</time>
        <extensions>
          <ns3:TrackPointExtension>
            <ns3:hr>96</ns3:hr>
            <ns3:cad>53</ns3:cad>
          </ns3:TrackPointExtension>
        </extensions>
      </trkpt>
      <trkpt lat="38.05846662260591983795166015625" lon="-106.9359389506280422210693359375">
        <ele>3613</ele>
        <time>2026-05-25T17:28:35.000Z</time>
        <extensions>
          <ns3:TrackPointExtension>
            <ns3:hr>96</ns3:hr>
            <ns3:cad>0</ns3:cad>
          </ns3:TrackPointExtension>
        </extensions>
      </trkpt>
      <trkpt lat="38.05844600312411785125732421875" lon="-106.93589486181735992431640625">
        <ele>3612.60009765625</ele>
        <time>2026-05-25T17:28:38.000Z</time>
        <extensions>
          <ns3:TrackPointExtension>
            <ns3:hr>93</ns3:hr>
            <ns3:cad>0</ns3:cad>
          </ns3:TrackPointExtension>
        </extensions>
      </trkpt>
      <trkpt lat="38.058446086943149566650390625" lon="-106.9358628429472446441650390625">
        <ele>3613</ele>
        <time>2026-05-25T17:28:40.000Z</time>
        <extensions>
          <ns3:TrackPointExtension>
            <ns3:hr>90</ns3:hr>
            <ns3:cad>56</ns3:cad>
          </ns3:TrackPointExtension>
        </extensions>
      </trkpt>
      <trkpt lat="38.058446086943149566650390625" lon="-106.9358628429472446441650390625">
        <ele>3613</ele>
        <time>2026-05-25T17:28:41.000Z</time>
        <extensions>
          <ns3:TrackPointExtension>
            <ns3:hr>90</ns3:hr>
            <ns3:cad>57</ns3:cad>
          </ns3:TrackPointExtension>
        </extensions>
      </trkpt>
      <trkpt lat="38.0584361962974071502685546875" lon="-106.93575446493923664093017578125">
        <ele>3612.60009765625</ele>
        <time>2026-05-25T17:28:47.000Z</time>
        <extensions>
          <ns3:TrackPointExtension>
            <ns3:hr>89</ns3:hr>
            <ns3:cad>53</ns3:cad>
          </ns3:TrackPointExtension>
        </extensions>
      </trkpt>
      <trkpt lat="38.058425299823284149169921875" lon="-106.93569260649383068084716796875">
        <ele>3612</ele>
        <time>2026-05-25T17:28:52.000Z</time>
        <extensions>
          <ns3:TrackPointExtension>
            <ns3:hr>86</ns3:hr>
            <ns3:cad>55</ns3:cad>
          </ns3:TrackPointExtension>
        </extensions>
      </trkpt>
      <trkpt lat="38.058419935405254364013671875" lon="-106.93566377274692058563232421875">
        <ele>3612</ele>
        <time>2026-05-25T17:28:54.000Z</time>
        <extensions>
          <ns3:TrackPointExtension>
            <ns3:hr>85</ns3:hr>
            <ns3:cad>56</ns3:cad>
          </ns3:TrackPointExtension>
        </extensions>
      </trkpt>
      <trkpt lat="38.05840308777987957000732421875" lon="-106.93560375832021236419677734375">
        <ele>3611.199951171875</ele>
        <time>2026-05-25T17:28:57.000Z</time>
        <extensions>
          <ns3:TrackPointExtension>
            <ns3:hr>84</ns3:hr>
            <ns3:cad>56</ns3:cad>
          </ns3:TrackPointExtension>
        </extensions>
      </trkpt>
      <trkpt lat="38.0583679676055908203125" lon="-106.935559920966625213623046875">
        <ele>3610.800048828125</ele>
        <time>2026-05-25T17:29:01.000Z</time>
        <extensions>
          <ns3:TrackPointExtension>
            <ns3:hr>84</ns3:hr>
            <ns3:cad>0</ns3:cad>
          </ns3:TrackPointExtension>
        </extensions>
      </trkpt>
      <trkpt lat="38.05834718048572540283203125" lon="-106.9355443306267261505126953125">
        <ele>3610.39990234375</ele>
        <time>2026-05-25T17:29:03.000Z</time>
        <extensions>
          <ns3:TrackPointExtension>
            <ns3:hr>84</ns3:hr>
            <ns3:cad>0</ns3:cad>
          </ns3:TrackPointExtension>
        </extensions>
      </trkpt>
      <trkpt lat="38.058277107775211334228515625" lon="-106.9355154968798160552978515625">
        <ele>3609.60009765625</ele>
        <time>2026-05-25T17:29:09.000Z</time>
        <extensions>
          <ns3:TrackPointExtension>
            <ns3:hr>84</ns3:hr>
            <ns3:cad>0</ns3:cad>
          </ns3:TrackPointExtension>
        </extensions>
      </trkpt>
      <trkpt lat="38.05826864205300807952880859375" lon="-106.93552513606846332550048828125">
        <ele>3609.39990234375</ele>
        <time>2026-05-25T17:29:10.000Z</time>
        <extensions>
          <ns3:TrackPointExtension>
            <ns3:hr>84</ns3:hr>
            <ns3:cad>0</ns3:cad>
          </ns3:TrackPointExtension>
        </extensions>
      </trkpt>
      <trkpt lat="38.05822237394750118255615234375" lon="-106.9355500303208827972412109375">
        <ele>3608.39990234375</ele>
        <time>2026-05-25T17:29:15.000Z</time>
        <extensions>
          <ns3:TrackPointExtension>
            <ns3:hr>84</ns3:hr>
            <ns3:cad>0</ns3:cad>
          </ns3:TrackPointExtension>
        </extensions>
      </trkpt>
      <trkpt lat="38.058161102235317230224609375" lon="-106.93556888960301876068115234375">
        <ele>3607.39990234375</ele>
        <time>2026-05-25T17:29:21.000Z</time>
        <extensions>
          <ns3:TrackPointExtension>
            <ns3:hr>86</ns3:hr>
            <ns3:cad>0</ns3:cad>
          </ns3:TrackPointExtension>
        </extensions>
      </trkpt>
      <trkpt lat="38.058149702847003936767578125" lon="-106.93556855432689189910888671875">
        <ele>3607.39990234375</ele>
        <time>2026-05-25T17:29:22.000Z</time>
        <extensions>
          <ns3:TrackPointExtension>
            <ns3:hr>87</ns3:hr>
            <ns3:cad>0</ns3:cad>
          </ns3:TrackPointExtension>
        </extensions>
      </trkpt>
      <trkpt lat="38.0580742657184600830078125" lon="-106.93554307334125041961669921875">
        <ele>3606.39990234375</ele>
        <time>2026-05-25T17:29:28.000Z</time>
        <extensions>
          <ns3:TrackPointExtension>
            <ns3:hr>87</ns3:hr>
            <ns3:cad>57</ns3:cad>
          </ns3:TrackPointExtension>
        </extensions>
      </trkpt>
      <trkpt lat="38.05806412361562252044677734375" lon="-106.93554005585610866546630859375">
        <ele>3606.39990234375</ele>
        <time>2026-05-25T17:29:29.000Z</time>
        <extensions>
          <ns3:TrackPointExtension>
            <ns3:hr>86</ns3:hr>
            <ns3:cad>57</ns3:cad>
          </ns3:TrackPointExtension>
        </extensions>
      </trkpt>
      <trkpt lat="38.05805523879826068878173828125" lon="-106.93553745746612548828125">
        <ele>3606.199951171875</ele>
        <time>2026-05-25T17:29:30.000Z</time>
        <extensions>
          <ns3:TrackPointExtension>
            <ns3:hr>86</ns3:hr>
            <ns3:cad>57</ns3:cad>
          </ns3:TrackPointExtension>
        </extensions>
      </trkpt>
      <trkpt lat="38.05800712667405605316162109375" lon="-106.93554206751286983489990234375">
        <ele>3606</ele>
        <time>2026-05-25T17:29:33.000Z</time>
        <extensions>
          <ns3:TrackPointExtension>
            <ns3:hr>89</ns3:hr>
            <ns3:cad>57</ns3:cad>
          </ns3:TrackPointExtension>
        </extensions>
      </trkpt>
      <trkpt lat="38.0579815618693828582763671875" lon="-106.9355473481118679046630859375">
        <ele>3605.60009765625</ele>
        <time>2026-05-25T17:29:35.000Z</time>
        <extensions>
          <ns3:TrackPointExtension>
            <ns3:hr>90</ns3:hr>
            <ns3:cad>57</ns3:cad>
          </ns3:TrackPointExtension>
        </extensions>
      </trkpt>
      <trkpt lat="38.05795566178858280181884765625" lon="-106.9355530478060245513916015625">
        <ele>3605.199951171875</ele>
        <time>2026-05-25T17:29:39.000Z</time>
        <extensions>
          <ns3:TrackPointExtension>
            <ns3:hr>93</ns3:hr>
            <ns3:cad>0</ns3:cad>
          </ns3:TrackPointExtension>
        </extensions>
      </trkpt>
      <trkpt lat="38.05794392712414264678955078125" lon="-106.9355520419776439666748046875">
        <ele>3605.199951171875</ele>
        <time>2026-05-25T17:29:40.000Z</time>
        <extensions>
          <ns3:TrackPointExtension>
            <ns3:hr>94</ns3:hr>
            <ns3:cad>0</ns3:cad>
          </ns3:TrackPointExtension>
        </extensions>
      </trkpt>
      <trkpt lat="38.05793437175452709197998046875" lon="-106.93554877303540706634521484375">
        <ele>3605.199951171875</ele>
        <time>2026-05-25T17:29:41.000Z</time>
        <extensions>
          <ns3:TrackPointExtension>
            <ns3:hr>95</ns3:hr>
            <ns3:cad>0</ns3:cad>
          </ns3:TrackPointExtension>
        </extensions>
      </trkpt>
      <trkpt lat="38.05785541422665119171142578125" lon="-106.9355289079248905181884765625">
        <ele>3604.199951171875</ele>
        <time>2026-05-25T17:29:47.000Z</time>
        <extensions>
          <ns3:TrackPointExtension>
            <ns3:hr>94</ns3:hr>
            <ns3:cad>0</ns3:cad>
          </ns3:TrackPointExtension>
        </extensions>
      </trkpt>
      <trkpt lat="38.05779975838959217071533203125" lon="-106.93550971336662769317626953125">
        <ele>3603.800048828125</ele>
        <time>2026-05-25T17:29:53.000Z</time>
        <extensions>
          <ns3:TrackPointExtension>
            <ns3:hr>91</ns3:hr>
            <ns3:cad>0</ns3:cad>
          </ns3:TrackPointExtension>
        </extensions>
      </trkpt>
      <trkpt lat="38.0577629618346691131591796875" lon="-106.9354849867522716522216796875">
        <ele>3602.800048828125</ele>
        <time>2026-05-25T17:29:57.000Z</time>
        <extensions>
          <ns3:TrackPointExtension>
            <ns3:hr>92</ns3:hr>
            <ns3:cad>0</ns3:cad>
          </ns3:TrackPointExtension>
        </extensions>
      </trkpt>
      <trkpt lat="38.0577173642814159393310546875" lon="-106.93547735922038555145263671875">
        <ele>3602.800048828125</ele>
        <time>2026-05-25T17:29:59.000Z</time>
        <extensions>
          <ns3:TrackPointExtension>
            <ns3:hr>92</ns3:hr>
            <ns3:cad>70</ns3:cad>
          </ns3:TrackPointExtension>
        </extensions>
      </trkpt>
      <trkpt lat="38.05764771066606044769287109375" lon="-106.9354524649679660797119140625">
        <ele>3603</ele>
        <time>2026-05-25T17:30:05.000Z</time>
        <extensions>
          <ns3:TrackPointExtension>
            <ns3:hr>92</ns3:hr>
            <ns3:cad>0</ns3:cad>
          </ns3:TrackPointExtension>
        </extensions>
      </trkpt>
      <trkpt lat="38.05763949640095233917236328125" lon="-106.93544986657798290252685546875">
        <ele>3603</ele>
        <time>2026-05-25T17:30:06.000Z</time>
        <extensions>
          <ns3:TrackPointExtension>
            <ns3:hr>92</ns3:hr>
            <ns3:cad>0</ns3:cad>
          </ns3:TrackPointExtension>
        </extensions>
      </trkpt>
      <trkpt lat="38.05761720053851604461669921875" lon="-106.9354363717138767242431640625">
        <ele>3602.60009765625</ele>
        <time>2026-05-25T17:30:09.000Z</time>
        <extensions>
          <ns3:TrackPointExtension>
            <ns3:hr>88</ns3:hr>
            <ns3:cad>0</ns3:cad>
          </ns3:TrackPointExtension>
        </extensions>
      </trkpt>
      <trkpt lat="38.0575621314346790313720703125" lon="-106.93542924709618091583251953125">
        <ele>3601.800048828125</ele>
        <time>2026-05-25T17:30:13.000Z</time>
        <extensions>
          <ns3:TrackPointExtension>
            <ns3:hr>86</ns3:hr>
            <ns3:cad>0</ns3:cad>
          </ns3:TrackPointExtension>
        </extensions>
      </trkpt>
      <trkpt lat="38.0575621314346790313720703125" lon="-106.93542924709618091583251953125">
        <ele>3601.60009765625</ele>
        <time>2026-05-25T17:30:14.000Z</time>
        <extensions>
          <ns3:TrackPointExtension>
            <ns3:hr>86</ns3:hr>
            <ns3:cad>0</ns3:cad>
          </ns3:TrackPointExtension>
        </extensions>
      </trkpt>
      <trkpt lat="38.0574987642467021942138671875" lon="-106.93538230843842029571533203125">
        <ele>3601.39990234375</ele>
        <time>2026-05-25T17:30:19.000Z</time>
        <extensions>
          <ns3:TrackPointExtension>
            <ns3:hr>86</ns3:hr>
            <ns3:cad>0</ns3:cad>
          </ns3:TrackPointExtension>
        </extensions>
      </trkpt>
      <trkpt lat="38.05747755803167819976806640625" lon="-106.93538482300937175750732421875">
        <ele>3601.60009765625</ele>
        <time>2026-05-25T17:30:22.000Z</time>
        <extensions>
          <ns3:TrackPointExtension>
            <ns3:hr>86</ns3:hr>
            <ns3:cad>0</ns3:cad>
          </ns3:TrackPointExtension>
        </extensions>
      </trkpt>
      <trkpt lat="38.057445622980594635009765625" lon="-106.9353502057492733001708984375">
        <ele>3601.60009765625</ele>
        <time>2026-05-25T17:30:25.000Z</time>
        <extensions>
          <ns3:TrackPointExtension>
            <ns3:hr>85</ns3:hr>
            <ns3:cad>0</ns3:cad>
          </ns3:TrackPointExtension>
        </extensions>
      </trkpt>
      <trkpt lat="38.0574226565659046173095703125" lon="-106.9352777861058712005615234375">
        <ele>3600.60009765625</ele>
        <time>2026-05-25T17:30:30.000Z</time>
        <extensions>
          <ns3:TrackPointExtension>
            <ns3:hr>85</ns3:hr>
            <ns3:cad>56</ns3:cad>
          </ns3:TrackPointExtension>
        </extensions>
      </trkpt>
      <trkpt lat="38.05742315948009490966796875" lon="-106.93526295013725757598876953125">
        <ele>3600</ele>
        <time>2026-05-25T17:30:32.000Z</time>
        <extensions>
          <ns3:TrackPointExtension>
            <ns3:hr>84</ns3:hr>
            <ns3:cad>0</ns3:cad>
          </ns3:TrackPointExtension>
        </extensions>
      </trkpt>
      <trkpt lat="38.05742927826941013336181640625" lon="-106.9352566637098789215087890625">
        <ele>3600</ele>
        <time>2026-05-25T17:30:33.000Z</time>
        <extensions>
          <ns3:TrackPointExtension>
            <ns3:hr>85</ns3:hr>
            <ns3:cad>0</ns3:cad>
          </ns3:TrackPointExtension>
        </extensions>
      </trkpt>
      <trkpt lat="38.05739524774253368377685546875" lon="-106.93522171117365360260009765625">
        <ele>3599.39990234375</ele>
        <time>2026-05-25T17:30:37.000Z</time>
        <extensions>
          <ns3:TrackPointExtension>
            <ns3:hr>87</ns3:hr>
            <ns3:cad>19</ns3:cad>
          </ns3:TrackPointExtension>
        </extensions>
      </trkpt>
      <trkpt lat="38.05734579451382160186767578125" lon="-106.93517795763909816741943359375">
        <ele>3599.199951171875</ele>
        <time>2026-05-25T17:30:42.000Z</time>
        <extensions>
          <ns3:TrackPointExtension>
            <ns3:hr>90</ns3:hr>
            <ns3:cad>0</ns3:cad>
          </ns3:TrackPointExtension>
        </extensions>
      </trkpt>
      <trkpt lat="38.05734579451382160186767578125" lon="-106.93517795763909816741943359375">
        <ele>3599.39990234375</ele>
        <time>2026-05-25T17:30:43.000Z</time>
        <extensions>
          <ns3:TrackPointExtension>
            <ns3:hr>91</ns3:hr>
            <ns3:cad>0</ns3:cad>
          </ns3:TrackPointExtension>
        </extensions>
      </trkpt>
      <trkpt lat="38.057293407618999481201171875" lon="-106.93508978001773357391357421875">
        <ele>3600.199951171875</ele>
        <time>2026-05-25T17:30:49.000Z</time>
        <extensions>
          <ns3:TrackPointExtension>
            <ns3:hr>92</ns3:hr>
            <ns3:cad>0</ns3:cad>
          </ns3:TrackPointExtension>
        </extensions>
      </trkpt>
      <trkpt lat="38.0572950839996337890625" lon="-106.93504594266414642333984375">
        <ele>3599.800048828125</ele>
        <time>2026-05-25T17:30:54.000Z</time>
        <extensions>
          <ns3:TrackPointExtension>
            <ns3:hr>89</ns3:hr>
            <ns3:cad>0</ns3:cad>
          </ns3:TrackPointExtension>
        </extensions>
      </trkpt>
      <trkpt lat="38.05728108622133731842041015625" lon="-106.93495114333927631378173828125">
        <ele>3599</ele>
        <time>2026-05-25T17:31:00.000Z</time>
        <extensions>
          <ns3:TrackPointExtension>
            <ns3:hr>87</ns3:hr>
            <ns3:cad>0</ns3:cad>
          </ns3:TrackPointExtension>
        </extensions>
      </trkpt>
      <trkpt lat="38.0572593770921230316162109375" lon="-106.93487034179270267486572265625">
        <ele>3599</ele>
        <time>2026-05-25T17:31:06.000Z</time>
        <extensions>
          <ns3:TrackPointExtension>
            <ns3:hr>87</ns3:hr>
            <ns3:cad>57</ns3:cad>
          </ns3:TrackPointExtension>
        </extensions>
      </trkpt>
      <trkpt lat="38.05724437348544597625732421875" lon="-106.93482759408652782440185546875">
        <ele>3598.199951171875</ele>
        <time>2026-05-25T17:31:10.000Z</time>
        <extensions>
          <ns3:TrackPointExtension>
            <ns3:hr>87</ns3:hr>
            <ns3:cad>0</ns3:cad>
          </ns3:TrackPointExtension>
        </extensions>
      </trkpt>
      <trkpt lat="38.05724018253386020660400390625" lon="-106.93480328656733036041259765625">
        <ele>3597.60009765625</ele>
        <time>2026-05-25T17:31:13.000Z</time>
        <extensions>
          <ns3:TrackPointExtension>
            <ns3:hr>87</ns3:hr>
            <ns3:cad>0</ns3:cad>
          </ns3:TrackPointExtension>
        </extensions>
      </trkpt>
      <trkpt lat="38.05723766796290874481201171875" lon="-106.9347690045833587646484375">
        <ele>3597.199951171875</ele>
        <time>2026-05-25T17:31:16.000Z</time>
        <extensions>
          <ns3:TrackPointExtension>
            <ns3:hr>88</ns3:hr>
            <ns3:cad>0</ns3:cad>
          </ns3:TrackPointExtension>
        </extensions>
      </trkpt>
      <trkpt lat="38.0572181381285190582275390625" lon="-106.93471611477434635162353515625">
        <ele>3597</ele>
        <time>2026-05-25T17:31:19.000Z</time>
        <extensions>
          <ns3:TrackPointExtension>
            <ns3:hr>88</ns3:hr>
            <ns3:cad>64</ns3:cad>
          </ns3:TrackPointExtension>
        </extensions>
      </trkpt>
      <trkpt lat="38.0571946687996387481689453125" lon="-106.93462391383945941925048828125">
        <ele>3596.199951171875</ele>
        <time>2026-05-25T17:31:25.000Z</time>
        <extensions>
          <ns3:TrackPointExtension>
            <ns3:hr>87</ns3:hr>
            <ns3:cad>0</ns3:cad>
          </ns3:TrackPointExtension>
        </extensions>
      </trkpt>
      <trkpt lat="38.05719383060932159423828125" lon="-106.934612430632114410400390625">
        <ele>3596</ele>
        <time>2026-05-25T17:31:27.000Z</time>
        <extensions>
          <ns3:TrackPointExtension>
            <ns3:hr>87</ns3:hr>
            <ns3:cad>0</ns3:cad>
          </ns3:TrackPointExtension>
        </extensions>
      </trkpt>
      <trkpt lat="38.05719257332384586334228515625" lon="-106.93452567793428897857666015625">
        <ele>3596</ele>
        <time>2026-05-25T17:31:33.000Z</time>
        <extensions>
          <ns3:TrackPointExtension>
            <ns3:hr>84</ns3:hr>
            <ns3:cad>0</ns3:cad>
          </ns3:TrackPointExtension>
        </extensions>
      </trkpt>
      <trkpt lat="38.05719383060932159423828125" lon="-106.93451226688921451568603515625">
        <ele>3596</ele>
        <time>2026-05-25T17:31:34.000Z</time>
        <extensions>
          <ns3:TrackPointExtension>
            <ns3:hr>84</ns3:hr>
            <ns3:cad>0</ns3:cad>
          </ns3:TrackPointExtension>
        </extensions>
      </trkpt>
      <trkpt lat="38.05718335323035717010498046875" lon="-106.93446247838437557220458984375">
        <ele>3595</ele>
        <time>2026-05-25T17:31:39.000Z</time>
        <extensions>
          <ns3:TrackPointExtension>
            <ns3:hr>84</ns3:hr>
            <ns3:cad>62</ns3:cad>
          </ns3:TrackPointExtension>
        </extensions>
      </trkpt>
      <trkpt lat="38.05718368850648403167724609375" lon="-106.93442090414464473724365234375">
        <ele>3594.800048828125</ele>
        <time>2026-05-25T17:31:41.000Z</time>
        <extensions>
          <ns3:TrackPointExtension>
            <ns3:hr>84</ns3:hr>
            <ns3:cad>62</ns3:cad>
          </ns3:TrackPointExtension>
        </extensions>
      </trkpt>
      <trkpt lat="38.057219982147216796875" lon="-106.93434747867286205291748046875">
        <ele>3594.800048828125</ele>
        <time>2026-05-25T17:31:47.000Z</time>
        <extensions>
          <ns3:TrackPointExtension>
            <ns3:hr>85</ns3:hr>
            <ns3:cad>62</ns3:cad>
          </ns3:TrackPointExtension>
        </extensions>
      </trkpt>
      <trkpt lat="38.057227022945880889892578125" lon="-106.9343370012938976287841796875">
        <ele>3594.800048828125</ele>
        <time>2026-05-25T17:31:48.000Z</time>
        <extensions>
          <ns3:TrackPointExtension>
            <ns3:hr>85</ns3:hr>
            <ns3:cad>62</ns3:cad>
          </ns3:TrackPointExtension>
        </extensions>
      </trkpt>
      <trkpt lat="38.057246468961238861083984375" lon="-106.934328787028789520263671875">
        <ele>3594.60009765625</ele>
        <time>2026-05-25T17:31:50.000Z</time>
        <extensions>
          <ns3:TrackPointExtension>
            <ns3:hr>85</ns3:hr>
            <ns3:cad>62</ns3:cad>
          </ns3:TrackPointExtension>
        </extensions>
      </trkpt>
      <trkpt lat="38.0572597123682498931884765625" lon="-106.93430808372795581817626953125">
        <ele>3594.60009765625</ele>
        <time>2026-05-25T17:31:52.000Z</time>
        <extensions>
          <ns3:TrackPointExtension>
            <ns3:hr>85</ns3:hr>
            <ns3:cad>0</ns3:cad>
          </ns3:TrackPointExtension>
        </extensions>
      </trkpt>
      <trkpt lat="38.05726826190948486328125" lon="-106.93429584614932537078857421875">
        <ele>3594.60009765625</ele>
        <time>2026-05-25T17:31:53.000Z</time>
        <extensions>
          <ns3:TrackPointExtension>
            <ns3:hr>84</ns3:hr>
            <ns3:cad>0</ns3:cad>
          </ns3:TrackPointExtension>
        </extensions>
      </trkpt>
      <trkpt lat="38.057290725409984588623046875" lon="-106.93427941761910915374755859375">
        <ele>3594.39990234375</ele>
        <time>2026-05-25T17:31:57.000Z</time>
        <extensions>
          <ns3:TrackPointExtension>
            <ns3:hr>84</ns3:hr>
            <ns3:cad>0</ns3:cad>
          </ns3:TrackPointExtension>
        </extensions>
      </trkpt>
      <trkpt lat="38.05731276981532573699951171875" lon="-106.93426684476435184478759765625">
        <ele>3593.60009765625</ele>
        <time>2026-05-25T17:32:00.000Z</time>
        <extensions>
          <ns3:TrackPointExtension>
            <ns3:hr>84</ns3:hr>
            <ns3:cad>0</ns3:cad>
          </ns3:TrackPointExtension>
        </extensions>
      </trkpt>
      <trkpt lat="38.0573123507201671600341796875" lon="-106.93425443954765796661376953125">
        <ele>3593.39990234375</ele>
        <time>2026-05-25T17:32:01.000Z</time>
        <extensions>
          <ns3:TrackPointExtension>
            <ns3:hr>84</ns3:hr>
            <ns3:cad>0</ns3:cad>
          </ns3:TrackPointExtension>
        </extensions>
      </trkpt>
      <trkpt lat="38.0573207326233386993408203125" lon="-106.9341948442161083221435546875">
        <ele>3592.800048828125</ele>
        <time>2026-05-25T17:32:06.000Z</time>
        <extensions>
          <ns3:TrackPointExtension>
            <ns3:hr>84</ns3:hr>
            <ns3:cad>0</ns3:cad>
          </ns3:TrackPointExtension>
        </extensions>
      </trkpt>
      <trkpt lat="38.05733062326908111572265625" lon="-106.9341398589313030242919921875">
        <ele>3593.199951171875</ele>
        <time>2026-05-25T17:32:12.000Z</time>
        <extensions>
          <ns3:TrackPointExtension>
            <ns3:hr>85</ns3:hr>
            <ns3:cad>0</ns3:cad>
          </ns3:TrackPointExtension>
        </extensions>
      </trkpt>
      <trkpt lat="38.05734763853251934051513671875" lon="-106.93409317173063755035400390625">
        <ele>3592.800048828125</ele>
        <time>2026-05-25T17:32:14.000Z</time>
        <extensions>
          <ns3:TrackPointExtension>
            <ns3:hr>86</ns3:hr>
            <ns3:cad>0</ns3:cad>
          </ns3:TrackPointExtension>
        </extensions>
      </trkpt>
      <trkpt lat="38.057359121739864349365234375" lon="-106.9340758211910724639892578125">
        <ele>3592.60009765625</ele>
        <time>2026-05-25T17:32:16.000Z</time>
        <extensions>
          <ns3:TrackPointExtension>
            <ns3:hr>86</ns3:hr>
            <ns3:cad>0</ns3:cad>
          </ns3:TrackPointExtension>
        </extensions>
      </trkpt>
      <trkpt lat="38.0573800764977931976318359375" lon="-106.93404086865484714508056640625">
        <ele>3591.800048828125</ele>
        <time>2026-05-25T17:32:20.000Z</time>
        <extensions>
          <ns3:TrackPointExtension>
            <ns3:hr>87</ns3:hr>
            <ns3:cad>0</ns3:cad>
          </ns3:TrackPointExtension>
        </extensions>
      </trkpt>
      <trkpt lat="38.05738560855388641357421875" lon="-106.93402091972529888153076171875">
        <ele>3591.39990234375</ele>
        <time>2026-05-25T17:32:22.000Z</time>
        <extensions>
          <ns3:TrackPointExtension>
            <ns3:hr>86</ns3:hr>
            <ns3:cad>0</ns3:cad>
          </ns3:TrackPointExtension>
        </extensions>
      </trkpt>
      <trkpt lat="38.0574139393866062164306640625" lon="-106.93398990668356418609619140625">
        <ele>3590.199951171875</ele>
        <time>2026-05-25T17:32:27.000Z</time>
        <extensions>
          <ns3:TrackPointExtension>
            <ns3:hr>85</ns3:hr>
            <ns3:cad>51</ns3:cad>
          </ns3:TrackPointExtension>
        </extensions>
      </trkpt>
      <trkpt lat="38.05742508731782436370849609375" lon="-106.93395453505218029022216796875">
        <ele>3589.199951171875</ele>
        <time>2026-05-25T17:32:31.000Z</time>
        <extensions>
          <ns3:TrackPointExtension>
            <ns3:hr>84</ns3:hr>
            <ns3:cad>51</ns3:cad>
          </ns3:TrackPointExtension>
        </extensions>
      </trkpt>
      <trkpt lat="38.05745325051248073577880859375" lon="-106.93390005268156528472900390625">
        <ele>3588.60009765625</ele>
        <time>2026-05-25T17:32:34.000Z</time>
        <extensions>
          <ns3:TrackPointExtension>
            <ns3:hr>84</ns3:hr>
            <ns3:cad>0</ns3:cad>
          </ns3:TrackPointExtension>
        </extensions>
      </trkpt>
      <trkpt lat="38.05748795159161090850830078125" lon="-106.9338609091937541961669921875">
        <ele>3588.199951171875</ele>
        <time>2026-05-25T17:32:38.000Z</time>
        <extensions>
          <ns3:TrackPointExtension>
            <ns3:hr>83</ns3:hr>
            <ns3:cad>57</ns3:cad>
          </ns3:TrackPointExtension>
        </extensions>
      </trkpt>
      <trkpt lat="38.05749348364770412445068359375" lon="-106.933850012719631195068359375">
        <ele>3588.199951171875</ele>
        <time>2026-05-25T17:32:40.000Z</time>
        <extensions>
          <ns3:TrackPointExtension>
            <ns3:hr>83</ns3:hr>
            <ns3:cad>0</ns3:cad>
          </ns3:TrackPointExtension>
        </extensions>
      </trkpt>
      <trkpt lat="38.05753187276422977447509765625" lon="-106.93379494361579418182373046875">
        <ele>3587</ele>
        <time>2026-05-25T17:32:46.000Z</time>
        <extensions>
          <ns3:TrackPointExtension>
            <ns3:hr>84</ns3:hr>
            <ns3:cad>54</ns3:cad>
          </ns3:TrackPointExtension>
        </extensions>
      </trkpt>
      <trkpt lat="38.05753924883902072906494140625" lon="-106.93376191891729831695556640625">
        <ele>3586.60009765625</ele>
        <time>2026-05-25T17:32:48.000Z</time>
        <extensions>
          <ns3:TrackPointExtension>
            <ns3:hr>83</ns3:hr>
            <ns3:cad>52</ns3:cad>
          </ns3:TrackPointExtension>
        </extensions>
      </trkpt>
      <trkpt lat="38.05754746310412883758544921875" lon="-106.9337385334074497222900390625">
        <ele>3586</ele>
        <time>2026-05-25T17:32:52.000Z</time>
        <extensions>
          <ns3:TrackPointExtension>
            <ns3:hr>86</ns3:hr>
            <ns3:cad>52</ns3:cad>
          </ns3:TrackPointExtension>
        </extensions>
      </trkpt>
      <trkpt lat="38.05755383335053920745849609375" lon="-106.93368882872164249420166015625">
        <ele>3585.60009765625</ele>
        <time>2026-05-25T17:32:55.000Z</time>
        <extensions>
          <ns3:TrackPointExtension>
            <ns3:hr>85</ns3:hr>
            <ns3:cad>49</ns3:cad>
          </ns3:TrackPointExtension>
        </extensions>
      </trkpt>
      <trkpt lat="38.05754846893250942230224609375" lon="-106.93363836966454982757568359375">
        <ele>3584.800048828125</ele>
        <time>2026-05-25T17:32:58.000Z</time>
        <extensions>
          <ns3:TrackPointExtension>
            <ns3:hr>85</ns3:hr>
            <ns3:cad>49</ns3:cad>
          </ns3:TrackPointExtension>
        </extensions>
      </trkpt>
      <trkpt lat="38.0575554259121417999267578125" lon="-106.9336124695837497711181640625">
        <ele>3584.60009765625</ele>
        <time>2026-05-25T17:33:00.000Z</time>
        <extensions>
          <ns3:TrackPointExtension>
            <ns3:hr>85</ns3:hr>
            <ns3:cad>49</ns3:cad>
          </ns3:TrackPointExtension>
        </extensions>
      </trkpt>
      <trkpt lat="38.05756422691047191619873046875" lon="-106.93354482762515544891357421875">
        <ele>3584.39990234375</ele>
        <time>2026-05-25T17:33:05.000Z</time>
        <extensions>
          <ns3:TrackPointExtension>
            <ns3:hr>84</ns3:hr>
            <ns3:cad>0</ns3:cad>
          </ns3:TrackPointExtension>
        </extensions>
      </trkpt>
      <trkpt lat="38.057571016252040863037109375" lon="-106.9335112161934375762939453125">
        <ele>3584.60009765625</ele>
        <time>2026-05-25T17:33:07.000Z</time>
        <extensions>
          <ns3:TrackPointExtension>
            <ns3:hr>83</ns3:hr>
            <ns3:cad>0</ns3:cad>
          </ns3:TrackPointExtension>
        </extensions>
      </trkpt>
      <trkpt lat="38.05759071372449398040771484375" lon="-106.9334250502288341522216796875">
        <ele>3584.60009765625</ele>
        <time>2026-05-25T17:33:13.000Z</time>
        <extensions>
          <ns3:TrackPointExtension>
            <ns3:hr>83</ns3:hr>
            <ns3:cad>52</ns3:cad>
          </ns3:TrackPointExtension>
        </extensions>
      </trkpt>
      <trkpt lat="38.05762491188943386077880859375" lon="-106.93333930335938930511474609375">
        <ele>3584</ele>
        <time>2026-05-25T17:33:19.000Z</time>
        <extensions>
          <ns3:TrackPointExtension>
            <ns3:hr>84</ns3:hr>
            <ns3:cad>53</ns3:cad>
          </ns3:TrackPointExtension>
        </extensions>
      </trkpt>
      <trkpt lat="38.0576332099735736846923828125" lon="-106.93332840688526630401611328125">
        <ele>3583.800048828125</ele>
        <time>2026-05-25T17:33:21.000Z</time>
        <extensions>
          <ns3:TrackPointExtension>
            <ns3:hr>85</ns3:hr>
            <ns3:cad>53</ns3:cad>
          </ns3:TrackPointExtension>
        </extensions>
      </trkpt>
      <trkpt lat="38.05767537094652652740478515625" lon="-106.93326269276440143585205078125">
        <ele>3583</ele>
        <time>2026-05-25T17:33:26.000Z</time>
        <extensions>
          <ns3:TrackPointExtension>
            <ns3:hr>86</ns3:hr>
            <ns3:cad>0</ns3:cad>
          </ns3:TrackPointExtension>
        </extensions>
      </trkpt>
      <trkpt lat="38.0576804839074611663818359375" lon="-106.93322983570396900177001953125">
        <ele>3582.60009765625</ele>
        <time>2026-05-25T17:33:28.000Z</time>
        <extensions>
          <ns3:TrackPointExtension>
            <ns3:hr>86</ns3:hr>
            <ns3:cad>0</ns3:cad>
          </ns3:TrackPointExtension>
        </extensions>
      </trkpt>
      <trkpt lat="38.05768107064068317413330078125" lon="-106.93317468278110027313232421875">
        <ele>3581.800048828125</ele>
        <time>2026-05-25T17:33:33.000Z</time>
        <extensions>
          <ns3:TrackPointExtension>
            <ns3:hr>88</ns3:hr>
            <ns3:cad>0</ns3:cad>
          </ns3:TrackPointExtension>
        </extensions>
      </trkpt>
      <trkpt lat="38.05768224410712718963623046875" lon="-106.93316210992634296417236328125">
        <ele>3581.39990234375</ele>
        <time>2026-05-25T17:33:35.000Z</time>
        <extensions>
          <ns3:TrackPointExtension>
            <ns3:hr>89</ns3:hr>
            <ns3:cad>0</ns3:cad>
          </ns3:TrackPointExtension>
        </extensions>
      </trkpt>
      <trkpt lat="38.05768626742064952850341796875" lon="-106.93315389566123485565185546875">
        <ele>3581.199951171875</ele>
        <time>2026-05-25T17:33:37.000Z</time>
        <extensions>
          <ns3:TrackPointExtension>
            <ns3:hr>96</ns3:hr>
            <ns3:cad>0</ns3:cad>
          </ns3:TrackPointExtension>
        </extensions>
      </trkpt>
      <trkpt lat="38.05768023245036602020263671875" lon="-106.93315121345221996307373046875">
        <ele>3581</ele>
        <time>2026-05-25T17:33:39.000Z</time>
        <extensions>
          <ns3:TrackPointExtension>
            <ns3:hr>100</ns3:hr>
            <ns3:cad>0</ns3:cad>
          </ns3:TrackPointExtension>
        </extensions>
      </trkpt>
      <trkpt lat="38.05768023245036602020263671875" lon="-106.93315121345221996307373046875">
        <ele>3581.199951171875</ele>
        <time>2026-05-25T17:33:40.000Z</time>
        <extensions>
          <ns3:TrackPointExtension>
            <ns3:hr>101</ns3:hr>
            <ns3:cad>0</ns3:cad>
          </ns3:TrackPointExtension>
        </extensions>
      </trkpt>
      <trkpt lat="38.05768023245036602020263671875" lon="-106.93315121345221996307373046875">
        <ele>3581.39990234375</ele>
        <time>2026-05-25T17:33:46.000Z</time>
        <extensions>
          <ns3:TrackPointExtension>
            <ns3:hr>103</ns3:hr>
            <ns3:cad>0</ns3:cad>
          </ns3:TrackPointExtension>
        </extensions>
      </trkpt>
      <trkpt lat="38.05768023245036602020263671875" lon="-106.93315121345221996307373046875">
        <ele>3581.199951171875</ele>
        <time>2026-05-25T17:33:49.000Z</time>
        <extensions>
          <ns3:TrackPointExtension>
            <ns3:hr>101</ns3:hr>
            <ns3:cad>0</ns3:cad>
          </ns3:TrackPointExtension>
        </extensions>
      </trkpt>
      <trkpt lat="38.05768601596355438232421875" lon="-106.93310863338410854339599609375">
        <ele>3580.60009765625</ele>
        <time>2026-05-25T17:33:54.000Z</time>
        <extensions>
          <ns3:TrackPointExtension>
            <ns3:hr>98</ns3:hr>
            <ns3:cad>0</ns3:cad>
          </ns3:TrackPointExtension>
        </extensions>
      </trkpt>
      <trkpt lat="38.05772348307073116302490234375" lon="-106.93307678215205669403076171875">
        <ele>3580.39990234375</ele>
        <time>2026-05-25T17:33:59.000Z</time>
        <extensions>
          <ns3:TrackPointExtension>
            <ns3:hr>99</ns3:hr>
            <ns3:cad>0</ns3:cad>
          </ns3:TrackPointExtension>
        </extensions>
      </trkpt>
      <trkpt lat="38.05772650055587291717529296875" lon="-106.933094300329685211181640625">
        <ele>3580</ele>
        <time>2026-05-25T17:34:01.000Z</time>
        <extensions>
          <ns3:TrackPointExtension>
            <ns3:hr>99</ns3:hr>
            <ns3:cad>0</ns3:cad>
          </ns3:TrackPointExtension>
        </extensions>
      </trkpt>
      <trkpt lat="38.057769499719142913818359375" lon="-106.93310997448861598968505859375">
        <ele>3579.199951171875</ele>
        <time>2026-05-25T17:34:04.000Z</time>
        <extensions>
          <ns3:TrackPointExtension>
            <ns3:hr>100</ns3:hr>
            <ns3:cad>0</ns3:cad>
          </ns3:TrackPointExtension>
        </extensions>
      </trkpt>
      <trkpt lat="38.05779204703867435455322265625" lon="-106.9331051968038082122802734375">
        <ele>3579</ele>
        <time>2026-05-25T17:34:06.000Z</time>
        <extensions>
          <ns3:TrackPointExtension>
            <ns3:hr>101</ns3:hr>
            <ns3:cad>60</ns3:cad>
          </ns3:TrackPointExtension>
        </extensions>
      </trkpt>
      <trkpt lat="38.05784719996154308319091796875" lon="-106.9330619461834430694580078125">
        <ele>3578.800048828125</ele>
        <time>2026-05-25T17:34:12.000Z</time>
        <extensions>
          <ns3:TrackPointExtension>
            <ns3:hr>100</ns3:hr>
            <ns3:cad>57</ns3:cad>
          </ns3:TrackPointExtension>
        </extensions>
      </trkpt>
      <trkpt lat="38.057870753109455108642578125" lon="-106.93302783183753490447998046875">
        <ele>3578.800048828125</ele>
        <time>2026-05-25T17:34:14.000Z</time>
        <extensions>
          <ns3:TrackPointExtension>
            <ns3:hr>101</ns3:hr>
            <ns3:cad>52</ns3:cad>
          </ns3:TrackPointExtension>
        </extensions>
      </trkpt>
      <trkpt lat="38.05789053440093994140625" lon="-106.93302330560982227325439453125">
        <ele>3578.60009765625</ele>
        <time>2026-05-25T17:34:16.000Z</time>
        <extensions>
          <ns3:TrackPointExtension>
            <ns3:hr>101</ns3:hr>
            <ns3:cad>59</ns3:cad>
          </ns3:TrackPointExtension>
        </extensions>
      </trkpt>
      <trkpt lat="38.0579208768904209136962890625" lon="-106.93302095867693424224853515625">
        <ele>3578.199951171875</ele>
        <time>2026-05-25T17:34:19.000Z</time>
        <extensions>
          <ns3:TrackPointExtension>
            <ns3:hr>101</ns3:hr>
            <ns3:cad>59</ns3:cad>
          </ns3:TrackPointExtension>
        </extensions>
      </trkpt>
      <trkpt lat="38.0579309351742267608642578125" lon="-106.9330213777720928192138671875">
        <ele>3578</ele>
        <time>2026-05-25T17:34:20.000Z</time>
        <extensions>
          <ns3:TrackPointExtension>
            <ns3:hr>99</ns3:hr>
            <ns3:cad>59</ns3:cad>
          </ns3:TrackPointExtension>
        </extensions>
      </trkpt>
      <trkpt lat="38.057952225208282470703125" lon="-106.9330213777720928192138671875">
        <ele>3577.60009765625</ele>
        <time>2026-05-25T17:34:22.000Z</time>
        <extensions>
          <ns3:TrackPointExtension>
            <ns3:hr>96</ns3:hr>
            <ns3:cad>0</ns3:cad>
          </ns3:TrackPointExtension>
        </extensions>
      </trkpt>
      <trkpt lat="38.0579664744436740875244140625" lon="-106.93302414380013942718505859375">
        <ele>3577.39990234375</ele>
        <time>2026-05-25T17:34:23.000Z</time>
        <extensions>
          <ns3:TrackPointExtension>
            <ns3:hr>93</ns3:hr>
            <ns3:cad>0</ns3:cad>
          </ns3:TrackPointExtension>
        </extensions>
      </trkpt>
      <trkpt lat="38.058001510798931121826171875" lon="-106.933030597865581512451171875">
        <ele>3577.39990234375</ele>
        <time>2026-05-25T17:34:26.000Z</time>
        <extensions>
          <ns3:TrackPointExtension>
            <ns3:hr>90</ns3:hr>
            <ns3:cad>56</ns3:cad>
          </ns3:TrackPointExtension>
        </extensions>
      </trkpt>
      <trkpt lat="38.05801131762564182281494140625" lon="-106.9330351240932941436767578125">
        <ele>3577.199951171875</ele>
        <time>2026-05-25T17:34:27.000Z</time>
        <extensions>
          <ns3:TrackPointExtension>
            <ns3:hr>89</ns3:hr>
            <ns3:cad>56</ns3:cad>
          </ns3:TrackPointExtension>
        </extensions>
      </trkpt>
      <trkpt lat="38.05801131762564182281494140625" lon="-106.9330351240932941436767578125">
        <ele>3577</ele>
        <time>2026-05-25T17:34:28.000Z</time>
        <extensions>
          <ns3:TrackPointExtension>
            <ns3:hr>89</ns3:hr>
            <ns3:cad>56</ns3:cad>
          </ns3:TrackPointExtension>
        </extensions>
      </trkpt>
      <trkpt lat="38.058032691478729248046875" lon="-106.933058761060237884521484375">
        <ele>3576.199951171875</ele>
        <time>2026-05-25T17:34:30.000Z</time>
        <extensions>
          <ns3:TrackPointExtension>
            <ns3:hr>88</ns3:hr>
            <ns3:cad>54</ns3:cad>
          </ns3:TrackPointExtension>
        </extensions>
      </trkpt>
      <trkpt lat="38.05806160904467105865478515625" lon="-106.93305918015539646148681640625">
        <ele>3575.199951171875</ele>
        <time>2026-05-25T17:34:33.000Z</time>
        <extensions>
          <ns3:TrackPointExtension>
            <ns3:hr>88</ns3:hr>
            <ns3:cad>55</ns3:cad>
          </ns3:TrackPointExtension>
        </extensions>
      </trkpt>
      <trkpt lat="38.0580687336623668670654296875" lon="-106.93305867724120616912841796875">
        <ele>3575</ele>
        <time>2026-05-25T17:34:34.000Z</time>
        <extensions>
          <ns3:TrackPointExtension>
            <ns3:hr>87</ns3:hr>
            <ns3:cad>55</ns3:cad>
          </ns3:TrackPointExtension>
        </extensions>
      </trkpt>
      <trkpt lat="38.0581252276897430419921875" lon="-106.933062113821506500244140625">
        <ele>3575.60009765625</ele>
        <time>2026-05-25T17:34:40.000Z</time>
        <extensions>
          <ns3:TrackPointExtension>
            <ns3:hr>87</ns3:hr>
            <ns3:cad>0</ns3:cad>
          </ns3:TrackPointExtension>
        </extensions>
      </trkpt>
      <trkpt lat="38.05817392654716968536376953125" lon="-106.93304828368127346038818359375">
        <ele>3574.60009765625</ele>
        <time>2026-05-25T17:34:46.000Z</time>
        <extensions>
          <ns3:TrackPointExtension>
            <ns3:hr>90</ns3:hr>
            <ns3:cad>0</ns3:cad>
          </ns3:TrackPointExtension>
        </extensions>
      </trkpt>
      <trkpt lat="38.0582003295421600341796875" lon="-106.93304442800581455230712890625">
        <ele>3574.199951171875</ele>
        <time>2026-05-25T17:34:47.000Z</time>
        <extensions>
          <ns3:TrackPointExtension>
            <ns3:hr>90</ns3:hr>
            <ns3:cad>0</ns3:cad>
          </ns3:TrackPointExtension>
        </extensions>
      </trkpt>
      <trkpt lat="38.05823645554482936859130859375" lon="-106.93302464671432971954345703125">
        <ele>3573.60009765625</ele>
        <time>2026-05-25T17:34:50.000Z</time>
        <extensions>
          <ns3:TrackPointExtension>
            <ns3:hr>89</ns3:hr>
            <ns3:cad>0</ns3:cad>
          </ns3:TrackPointExtension>
        </extensions>
      </trkpt>
      <trkpt lat="38.05826713331043720245361328125" lon="-106.933011151850223541259765625">
        <ele>3573.39990234375</ele>
        <time>2026-05-25T17:34:53.000Z</time>
        <extensions>
          <ns3:TrackPointExtension>
            <ns3:hr>89</ns3:hr>
            <ns3:cad>0</ns3:cad>
          </ns3:TrackPointExtension>
        </extensions>
      </trkpt>
      <trkpt lat="38.0583211965858936309814453125" lon="-106.9330052845180034637451171875">
        <ele>3572.60009765625</ele>
        <time>2026-05-25T17:34:59.000Z</time>
        <extensions>
          <ns3:TrackPointExtension>
            <ns3:hr>87</ns3:hr>
            <ns3:cad>0</ns3:cad>
          </ns3:TrackPointExtension>
        </extensions>
      </trkpt>
      <trkpt lat="38.05837224237620830535888671875" lon="-106.9329536519944667816162109375">
        <ele>3571.60009765625</ele>
        <time>2026-05-25T17:35:04.000Z</time>
        <extensions>
          <ns3:TrackPointExtension>
            <ns3:hr>85</ns3:hr>
            <ns3:cad>57</ns3:cad>
          </ns3:TrackPointExtension>
        </extensions>
      </trkpt>
      <trkpt lat="38.05838070809841156005859375" lon="-106.93293462507426738739013671875">
        <ele>3571.199951171875</ele>
        <time>2026-05-25T17:35:05.000Z</time>
        <extensions>
          <ns3:TrackPointExtension>
            <ns3:hr>85</ns3:hr>
            <ns3:cad>0</ns3:cad>
          </ns3:TrackPointExtension>
        </extensions>
      </trkpt>
      <trkpt lat="38.0583979748189449310302734375" lon="-106.932895481586456298828125">
        <ele>3571.39990234375</ele>
        <time>2026-05-25T17:35:10.000Z</time>
        <extensions>
          <ns3:TrackPointExtension>
            <ns3:hr>85</ns3:hr>
            <ns3:cad>0</ns3:cad>
          </ns3:TrackPointExtension>
        </extensions>
      </trkpt>
      <trkpt lat="38.05841901339590549468994140625" lon="-106.93285818211734294891357421875">
        <ele>3572</ele>
        <time>2026-05-25T17:35:16.000Z</time>
        <extensions>
          <ns3:TrackPointExtension>
            <ns3:hr>85</ns3:hr>
            <ns3:cad>0</ns3:cad>
          </ns3:TrackPointExtension>
        </extensions>
      </trkpt>
      <trkpt lat="38.0584502778947353363037109375" lon="-106.93279162980616092681884765625">
        <ele>3570.39990234375</ele>
        <time>2026-05-25T17:35:21.000Z</time>
        <extensions>
          <ns3:TrackPointExtension>
            <ns3:hr>86</ns3:hr>
            <ns3:cad>54</ns3:cad>
          </ns3:TrackPointExtension>
        </extensions>
      </trkpt>
      <trkpt lat="38.058464191854000091552734375" lon="-106.9327729381620883941650390625">
        <ele>3570</ele>
        <time>2026-05-25T17:35:23.000Z</time>
        <extensions>
          <ns3:TrackPointExtension>
            <ns3:hr>87</ns3:hr>
            <ns3:cad>59</ns3:cad>
          </ns3:TrackPointExtension>
        </extensions>
      </trkpt>
      <trkpt lat="38.05849931202828884124755859375" lon="-106.93272541277110576629638671875">
        <ele>3569.800048828125</ele>
        <time>2026-05-25T17:35:29.000Z</time>
        <extensions>
          <ns3:TrackPointExtension>
            <ns3:hr>87</ns3:hr>
            <ns3:cad>0</ns3:cad>
          </ns3:TrackPointExtension>
        </extensions>
      </trkpt>
      <trkpt lat="38.058504424989223480224609375" lon="-106.9327142648398876190185546875">
        <ele>3569.800048828125</ele>
        <time>2026-05-25T17:35:30.000Z</time>
        <extensions>
          <ns3:TrackPointExtension>
            <ns3:hr>87</ns3:hr>
            <ns3:cad>0</ns3:cad>
          </ns3:TrackPointExtension>
        </extensions>
      </trkpt>
      <trkpt lat="38.0585114657878875732421875" lon="-106.932675205171108245849609375">
        <ele>3569.199951171875</ele>
        <time>2026-05-25T17:35:33.000Z</time>
        <extensions>
          <ns3:TrackPointExtension>
            <ns3:hr>90</ns3:hr>
            <ns3:cad>0</ns3:cad>
          </ns3:TrackPointExtension>
        </extensions>
      </trkpt>
      <trkpt lat="38.0585226975381374359130859375" lon="-106.93265399895608425140380859375">
        <ele>3568.800048828125</ele>
        <time>2026-05-25T17:35:35.000Z</time>
        <extensions>
          <ns3:TrackPointExtension>
            <ns3:hr>95</ns3:hr>
            <ns3:cad>54</ns3:cad>
          </ns3:TrackPointExtension>
        </extensions>
      </trkpt>
      <trkpt lat="38.0585226975381374359130859375" lon="-106.93265399895608425140380859375">
        <ele>3568.800048828125</ele>
        <time>2026-05-25T17:35:36.000Z</time>
        <extensions>
          <ns3:TrackPointExtension>
            <ns3:hr>96</ns3:hr>
            <ns3:cad>54</ns3:cad>
          </ns3:TrackPointExtension>
        </extensions>
      </trkpt>
      <trkpt lat="38.05852965451776981353759765625" lon="-106.9326391629874706268310546875">
        <ele>3568.800048828125</ele>
        <time>2026-05-25T17:35:37.000Z</time>
        <extensions>
          <ns3:TrackPointExtension>
            <ns3:hr>99</ns3:hr>
            <ns3:cad>54</ns3:cad>
          </ns3:TrackPointExtension>
        </extensions>
      </trkpt>
      <trkpt lat="38.05860333144664764404296875" lon="-106.93257772363722324371337890625">
        <ele>3568.60009765625</ele>
        <time>2026-05-25T17:35:43.000Z</time>
        <extensions>
          <ns3:TrackPointExtension>
            <ns3:hr>98</ns3:hr>
            <ns3:cad>0</ns3:cad>
          </ns3:TrackPointExtension>
        </extensions>
      </trkpt>
      <trkpt lat="38.05861481465399265289306640625" lon="-106.93257202394306659698486328125">
        <ele>3568.199951171875</ele>
        <time>2026-05-25T17:35:44.000Z</time>
        <extensions>
          <ns3:TrackPointExtension>
            <ns3:hr>97</ns3:hr>
            <ns3:cad>58</ns3:cad>
          </ns3:TrackPointExtension>
        </extensions>
      </trkpt>
      <trkpt lat="38.05863895453512668609619140625" lon="-106.932553164660930633544921875">
        <ele>3568</ele>
        <time>2026-05-25T17:35:46.000Z</time>
        <extensions>
          <ns3:TrackPointExtension>
            <ns3:hr>94</ns3:hr>
            <ns3:cad>58</ns3:cad>
          </ns3:TrackPointExtension>
        </extensions>
      </trkpt>
      <trkpt lat="38.05866108275949954986572265625" lon="-106.93252407945692539215087890625">
        <ele>3567.800048828125</ele>
        <time>2026-05-25T17:35:49.000Z</time>
        <extensions>
          <ns3:TrackPointExtension>
            <ns3:hr>91</ns3:hr>
            <ns3:cad>54</ns3:cad>
          </ns3:TrackPointExtension>
        </extensions>
      </trkpt>
      <trkpt lat="38.05868371389806270599365234375" lon="-106.93249390460550785064697265625">
        <ele>3567.39990234375</ele>
        <time>2026-05-25T17:35:52.000Z</time>
        <extensions>
          <ns3:TrackPointExtension>
            <ns3:hr>88</ns3:hr>
            <ns3:cad>54</ns3:cad>
          </ns3:TrackPointExtension>
        </extensions>
      </trkpt>
      <trkpt lat="38.05868371389806270599365234375" lon="-106.93249390460550785064697265625">
        <ele>3567.199951171875</ele>
        <time>2026-05-25T17:35:53.000Z</time>
        <extensions>
          <ns3:TrackPointExtension>
            <ns3:hr>87</ns3:hr>
            <ns3:cad>54</ns3:cad>
          </ns3:TrackPointExtension>
        </extensions>
      </trkpt>
      <trkpt lat="38.05871036835014820098876953125" lon="-106.93245970644056797027587890625">
        <ele>3567</ele>
        <time>2026-05-25T17:35:55.000Z</time>
        <extensions>
          <ns3:TrackPointExtension>
            <ns3:hr>85</ns3:hr>
            <ns3:cad>52</ns3:cad>
          </ns3:TrackPointExtension>
        </extensions>
      </trkpt>
      <trkpt lat="38.05875395424664020538330078125" lon="-106.93239667452871799468994140625">
        <ele>3566.800048828125</ele>
        <time>2026-05-25T17:36:01.000Z</time>
        <extensions>
          <ns3:TrackPointExtension>
            <ns3:hr>84</ns3:hr>
            <ns3:cad>52</ns3:cad>
          </ns3:TrackPointExtension>
        </extensions>
      </trkpt>
      <trkpt lat="38.05877272970974445343017578125" lon="-106.9323826767504215240478515625">
        <ele>3566.39990234375</ele>
        <time>2026-05-25T17:36:03.000Z</time>
        <extensions>
          <ns3:TrackPointExtension>
            <ns3:hr>88</ns3:hr>
            <ns3:cad>52</ns3:cad>
          </ns3:TrackPointExtension>
        </extensions>
      </trkpt>
      <trkpt lat="38.0587999708950519561767578125" lon="-106.93236247636377811431884765625">
        <ele>3566</ele>
        <time>2026-05-25T17:36:06.000Z</time>
        <extensions>
          <ns3:TrackPointExtension>
            <ns3:hr>90</ns3:hr>
            <ns3:cad>0</ns3:cad>
          </ns3:TrackPointExtension>
        </extensions>
      </trkpt>
      <trkpt lat="38.05881648324429988861083984375" lon="-106.93234722130000591278076171875">
        <ele>3565.39990234375</ele>
        <time>2026-05-25T17:36:08.000Z</time>
        <extensions>
          <ns3:TrackPointExtension>
            <ns3:hr>93</ns3:hr>
            <ns3:cad>0</ns3:cad>
          </ns3:TrackPointExtension>
        </extensions>
      </trkpt>
      <trkpt lat="38.0588224343955516815185546875" lon="-106.932337582111358642578125">
        <ele>3565.199951171875</ele>
        <time>2026-05-25T17:36:09.000Z</time>
        <extensions>
          <ns3:TrackPointExtension>
            <ns3:hr>95</ns3:hr>
            <ns3:cad>0</ns3:cad>
          </ns3:TrackPointExtension>
        </extensions>
      </trkpt>
      <trkpt lat="38.05884464643895626068115234375" lon="-106.93230950273573398590087890625">
        <ele>3564.800048828125</ele>
        <time>2026-05-25T17:36:12.000Z</time>
        <extensions>
          <ns3:TrackPointExtension>
            <ns3:hr>96</ns3:hr>
            <ns3:cad>0</ns3:cad>
          </ns3:TrackPointExtension>
        </extensions>
      </trkpt>
      <trkpt lat="38.058885298669338226318359375" lon="-106.9322787411510944366455078125">
        <ele>3564.60009765625</ele>
        <time>2026-05-25T17:36:16.000Z</time>
        <extensions>
          <ns3:TrackPointExtension>
            <ns3:hr>96</ns3:hr>
            <ns3:cad>54</ns3:cad>
          </ns3:TrackPointExtension>
        </extensions>
      </trkpt>
      <trkpt lat="38.0589082650840282440185546875" lon="-106.93224512971937656402587890625">
        <ele>3564.199951171875</ele>
        <time>2026-05-25T17:36:19.000Z</time>
        <extensions>
          <ns3:TrackPointExtension>
            <ns3:hr>93</ns3:hr>
            <ns3:cad>54</ns3:cad>
          </ns3:TrackPointExtension>
        </extensions>
      </trkpt>
      <trkpt lat="38.05893114767968654632568359375" lon="-106.93222333677113056182861328125">
        <ele>3564.39990234375</ele>
        <time>2026-05-25T17:36:22.000Z</time>
        <extensions>
          <ns3:TrackPointExtension>
            <ns3:hr>96</ns3:hr>
            <ns3:cad>57</ns3:cad>
          </ns3:TrackPointExtension>
        </extensions>
      </trkpt>
      <trkpt lat="38.05894422344863414764404296875" lon="-106.93221093155443668365478515625">
        <ele>3564.39990234375</ele>
        <time>2026-05-25T17:36:23.000Z</time>
        <extensions>
          <ns3:TrackPointExtension>
            <ns3:hr>97</ns3:hr>
            <ns3:cad>56</ns3:cad>
          </ns3:TrackPointExtension>
        </extensions>
      </trkpt>
      <trkpt lat="38.058991245925426483154296875" lon="-106.93218494765460491180419921875">
        <ele>3563.800048828125</ele>
        <time>2026-05-25T17:36:28.000Z</time>
        <extensions>
          <ns3:TrackPointExtension>
            <ns3:hr>95</ns3:hr>
            <ns3:cad>55</ns3:cad>
          </ns3:TrackPointExtension>
        </extensions>
      </trkpt>
      <trkpt lat="38.059024773538112640380859375" lon="-106.93216390907764434814453125">
        <ele>3563.39990234375</ele>
        <time>2026-05-25T17:36:30.000Z</time>
        <extensions>
          <ns3:TrackPointExtension>
            <ns3:hr>94</ns3:hr>
            <ns3:cad>53</ns3:cad>
          </ns3:TrackPointExtension>
        </extensions>
      </trkpt>
      <trkpt lat="38.05906064808368682861328125" lon="-106.9321399368345737457275390625">
        <ele>3562.800048828125</ele>
        <time>2026-05-25T17:36:33.000Z</time>
        <extensions>
          <ns3:TrackPointExtension>
            <ns3:hr>94</ns3:hr>
            <ns3:cad>53</ns3:cad>
          </ns3:TrackPointExtension>
        </extensions>
      </trkpt>
      <trkpt lat="38.05909149348735809326171875" lon="-106.9321124441921710968017578125">
        <ele>3562.39990234375</ele>
        <time>2026-05-25T17:36:36.000Z</time>
        <extensions>
          <ns3:TrackPointExtension>
            <ns3:hr>96</ns3:hr>
            <ns3:cad>56</ns3:cad>
          </ns3:TrackPointExtension>
        </extensions>
      </trkpt>
      <trkpt lat="38.059145472943782806396484375" lon="-106.93204547278583049774169921875">
        <ele>3561.60009765625</ele>
        <time>2026-05-25T17:36:42.000Z</time>
        <extensions>
          <ns3:TrackPointExtension>
            <ns3:hr>97</ns3:hr>
            <ns3:cad>0</ns3:cad>
          </ns3:TrackPointExtension>
        </extensions>
      </trkpt>
      <trkpt lat="38.05916550569236278533935546875" lon="-106.932025440037250518798828125">
        <ele>3561.39990234375</ele>
        <time>2026-05-25T17:36:44.000Z</time>
        <extensions>
          <ns3:TrackPointExtension>
            <ns3:hr>96</ns3:hr>
            <ns3:cad>0</ns3:cad>
          </ns3:TrackPointExtension>
        </extensions>
      </trkpt>
      <trkpt lat="38.0592019669711589813232421875" lon="-106.932018734514713287353515625">
        <ele>3561.199951171875</ele>
        <time>2026-05-25T17:36:47.000Z</time>
        <extensions>
          <ns3:TrackPointExtension>
            <ns3:hr>97</ns3:hr>
            <ns3:cad>0</ns3:cad>
          </ns3:TrackPointExtension>
        </extensions>
      </trkpt>
      <trkpt lat="38.059222586452960968017578125" lon="-106.9320383481681346893310546875">
        <ele>3560.39990234375</ele>
        <time>2026-05-25T17:36:50.000Z</time>
        <extensions>
          <ns3:TrackPointExtension>
            <ns3:hr>98</ns3:hr>
            <ns3:cad>0</ns3:cad>
          </ns3:TrackPointExtension>
        </extensions>
      </trkpt>
      <trkpt lat="38.05923088453710079193115234375" lon="-106.93204966373741626739501953125">
        <ele>3560</ele>
        <time>2026-05-25T17:36:51.000Z</time>
        <extensions>
          <ns3:TrackPointExtension>
            <ns3:hr>98</ns3:hr>
            <ns3:cad>0</ns3:cad>
          </ns3:TrackPointExtension>
        </extensions>
      </trkpt>
      <trkpt lat="38.05923365056514739990234375" lon="-106.9320680201053619384765625">
        <ele>3559.39990234375</ele>
        <time>2026-05-25T17:36:53.000Z</time>
        <extensions>
          <ns3:TrackPointExtension>
            <ns3:hr>98</ns3:hr>
            <ns3:cad>0</ns3:cad>
          </ns3:TrackPointExtension>
        </extensions>
      </trkpt>
      <trkpt lat="38.0592398531734943389892578125" lon="-106.93210582248866558074951171875">
        <ele>3558.39990234375</ele>
        <time>2026-05-25T17:36:58.000Z</time>
        <extensions>
          <ns3:TrackPointExtension>
            <ns3:hr>98</ns3:hr>
            <ns3:cad>0</ns3:cad>
          </ns3:TrackPointExtension>
        </extensions>
      </trkpt>
      <trkpt lat="38.0592445470392704010009765625" lon="-106.932174302637577056884765625">
        <ele>3558.800048828125</ele>
        <time>2026-05-25T17:37:03.000Z</time>
        <extensions>
          <ns3:TrackPointExtension>
            <ns3:hr>96</ns3:hr>
            <ns3:cad>50</ns3:cad>
          </ns3:TrackPointExtension>
        </extensions>
      </trkpt>
      <trkpt lat="38.05925846099853515625" lon="-106.93223406560719013214111328125">
        <ele>3559</ele>
        <time>2026-05-25T17:37:08.000Z</time>
        <extensions>
          <ns3:TrackPointExtension>
            <ns3:hr>93</ns3:hr>
            <ns3:cad>0</ns3:cad>
          </ns3:TrackPointExtension>
        </extensions>
      </trkpt>
      <trkpt lat="38.05926877073943614959716796875" lon="-106.9322817586362361907958984375">
        <ele>3558.800048828125</ele>
        <time>2026-05-25T17:37:10.000Z</time>
        <extensions>
          <ns3:TrackPointExtension>
            <ns3:hr>92</ns3:hr>
            <ns3:cad>0</ns3:cad>
          </ns3:TrackPointExtension>
        </extensions>
      </trkpt>
      <trkpt lat="38.05927530862390995025634765625" lon="-106.9323094189167022705078125">
        <ele>3558.39990234375</ele>
        <time>2026-05-25T17:37:12.000Z</time>
        <extensions>
          <ns3:TrackPointExtension>
            <ns3:hr>92</ns3:hr>
            <ns3:cad>0</ns3:cad>
          </ns3:TrackPointExtension>
        </extensions>
      </trkpt>
      <trkpt lat="38.05929274298250675201416015625" lon="-106.93236046470701694488525390625">
        <ele>3557.60009765625</ele>
        <time>2026-05-25T17:37:16.000Z</time>
        <extensions>
          <ns3:TrackPointExtension>
            <ns3:hr>90</ns3:hr>
            <ns3:cad>0</ns3:cad>
          </ns3:TrackPointExtension>
        </extensions>
      </trkpt>
      <trkpt lat="38.05932459421455860137939453125" lon="-106.93239516578614711761474609375">
        <ele>3557.60009765625</ele>
        <time>2026-05-25T17:37:20.000Z</time>
        <extensions>
          <ns3:TrackPointExtension>
            <ns3:hr>89</ns3:hr>
            <ns3:cad>0</ns3:cad>
          </ns3:TrackPointExtension>
        </extensions>
      </trkpt>
      <trkpt lat="38.05934404022991657257080078125" lon="-106.93237873725593090057373046875">
        <ele>3557.39990234375</ele>
        <time>2026-05-25T17:37:22.000Z</time>
        <extensions>
          <ns3:TrackPointExtension>
            <ns3:hr>88</ns3:hr>
            <ns3:cad>0</ns3:cad>
          </ns3:TrackPointExtension>
        </extensions>
      </trkpt>
      <trkpt lat="38.0593474768102169036865234375" lon="-106.93237555213272571563720703125">
        <ele>3557.199951171875</ele>
        <time>2026-05-25T17:37:23.000Z</time>
        <extensions>
          <ns3:TrackPointExtension>
            <ns3:hr>88</ns3:hr>
            <ns3:cad>0</ns3:cad>
          </ns3:TrackPointExtension>
        </extensions>
      </trkpt>
      <trkpt lat="38.05940036661922931671142578125" lon="-106.9323655776679515838623046875">
        <ele>3556.39990234375</ele>
        <time>2026-05-25T17:37:28.000Z</time>
        <extensions>
          <ns3:TrackPointExtension>
            <ns3:hr>86</ns3:hr>
            <ns3:cad>0</ns3:cad>
          </ns3:TrackPointExtension>
        </extensions>
      </trkpt>
      <trkpt lat="38.05941402912139892578125" lon="-106.93235845305025577545166015625">
        <ele>3556.199951171875</ele>
        <time>2026-05-25T17:37:29.000Z</time>
        <extensions>
          <ns3:TrackPointExtension>
            <ns3:hr>86</ns3:hr>
            <ns3:cad>55</ns3:cad>
          </ns3:TrackPointExtension>
        </extensions>
      </trkpt>
      <trkpt lat="38.05947731249034404754638671875" lon="-106.9323226623237133026123046875">
        <ele>3555.39990234375</ele>
        <time>2026-05-25T17:37:35.000Z</time>
        <extensions>
          <ns3:TrackPointExtension>
            <ns3:hr>86</ns3:hr>
            <ns3:cad>0</ns3:cad>
          </ns3:TrackPointExtension>
        </extensions>
      </trkpt>
      <trkpt lat="38.059490807354450225830078125" lon="-106.93231671117246150970458984375">
        <ele>3555.199951171875</ele>
        <time>2026-05-25T17:37:36.000Z</time>
        <extensions>
          <ns3:TrackPointExtension>
            <ns3:hr>86</ns3:hr>
            <ns3:cad>0</ns3:cad>
          </ns3:TrackPointExtension>
        </extensions>
      </trkpt>
      <trkpt lat="38.0595043860375881195068359375" lon="-106.9323085807263851165771484375">
        <ele>3555</ele>
        <time>2026-05-25T17:37:37.000Z</time>
        <extensions>
          <ns3:TrackPointExtension>
            <ns3:hr>86</ns3:hr>
            <ns3:cad>0</ns3:cad>
          </ns3:TrackPointExtension>
        </extensions>
      </trkpt>
      <trkpt lat="38.0595655739307403564453125" lon="-106.93227396346628665924072265625">
        <ele>3554.199951171875</ele>
        <time>2026-05-25T17:37:43.000Z</time>
        <extensions>
          <ns3:TrackPointExtension>
            <ns3:hr>86</ns3:hr>
            <ns3:cad>59</ns3:cad>
          </ns3:TrackPointExtension>
        </extensions>
      </trkpt>
      <trkpt lat="38.05957303382456302642822265625" lon="-106.93227656185626983642578125">
        <ele>3554</ele>
        <time>2026-05-25T17:37:44.000Z</time>
        <extensions>
          <ns3:TrackPointExtension>
            <ns3:hr>87</ns3:hr>
            <ns3:cad>59</ns3:cad>
          </ns3:TrackPointExtension>
        </extensions>
      </trkpt>
      <trkpt lat="38.059593401849269866943359375" lon="-106.9323005340993404388427734375">
        <ele>3553.60009765625</ele>
        <time>2026-05-25T17:37:46.000Z</time>
        <extensions>
          <ns3:TrackPointExtension>
            <ns3:hr>87</ns3:hr>
            <ns3:cad>58</ns3:cad>
          </ns3:TrackPointExtension>
        </extensions>
      </trkpt>
      <trkpt lat="38.059598766267299652099609375" lon="-106.9323255121707916259765625">
        <ele>3553.199951171875</ele>
        <time>2026-05-25T17:37:48.000Z</time>
        <extensions>
          <ns3:TrackPointExtension>
            <ns3:hr>88</ns3:hr>
            <ns3:cad>57</ns3:cad>
          </ns3:TrackPointExtension>
        </extensions>
      </trkpt>
      <trkpt lat="38.0595979280769824981689453125" lon="-106.9323354028165340423583984375">
        <ele>3553</ele>
        <time>2026-05-25T17:37:49.000Z</time>
        <extensions>
          <ns3:TrackPointExtension>
            <ns3:hr>88</ns3:hr>
            <ns3:cad>57</ns3:cad>
          </ns3:TrackPointExtension>
        </extensions>
      </trkpt>
      <trkpt lat="38.059591390192508697509765625" lon="-106.9323491491377353668212890625">
        <ele>3552.800048828125</ele>
        <time>2026-05-25T17:37:50.000Z</time>
        <extensions>
          <ns3:TrackPointExtension>
            <ns3:hr>88</ns3:hr>
            <ns3:cad>57</ns3:cad>
          </ns3:TrackPointExtension>
        </extensions>
      </trkpt>
      <trkpt lat="38.05960404686629772186279296875" lon="-106.93240438587963581085205078125">
        <ele>3552.199951171875</ele>
        <time>2026-05-25T17:37:55.000Z</time>
        <extensions>
          <ns3:TrackPointExtension>
            <ns3:hr>89</ns3:hr>
            <ns3:cad>57</ns3:cad>
          </ns3:TrackPointExtension>
        </extensions>
      </trkpt>
      <trkpt lat="38.05961125530302524566650390625" lon="-106.93242031149566173553466796875">
        <ele>3551.800048828125</ele>
        <time>2026-05-25T17:37:57.000Z</time>
        <extensions>
          <ns3:TrackPointExtension>
            <ns3:hr>90</ns3:hr>
            <ns3:cad>0</ns3:cad>
          </ns3:TrackPointExtension>
        </extensions>
      </trkpt>
      <trkpt lat="38.05960337631404399871826171875" lon="-106.932445205748081207275390625">
        <ele>3551.60009765625</ele>
        <time>2026-05-25T17:37:59.000Z</time>
        <extensions>
          <ns3:TrackPointExtension>
            <ns3:hr>90</ns3:hr>
            <ns3:cad>0</ns3:cad>
          </ns3:TrackPointExtension>
        </extensions>
      </trkpt>
      <trkpt lat="38.0595870316028594970703125" lon="-106.932473368942737579345703125">
        <ele>3551.39990234375</ele>
        <time>2026-05-25T17:38:01.000Z</time>
        <extensions>
          <ns3:TrackPointExtension>
            <ns3:hr>91</ns3:hr>
            <ns3:cad>0</ns3:cad>
          </ns3:TrackPointExtension>
        </extensions>
      </trkpt>
      <trkpt lat="38.059564568102359771728515625" lon="-106.932540424168109893798828125">
        <ele>3551.39990234375</ele>
        <time>2026-05-25T17:38:07.000Z</time>
        <extensions>
          <ns3:TrackPointExtension>
            <ns3:hr>91</ns3:hr>
            <ns3:cad>0</ns3:cad>
          </ns3:TrackPointExtension>
        </extensions>
      </trkpt>
      <trkpt lat="38.0595513246953487396240234375" lon="-106.93257269449532032012939453125">
        <ele>3550.800048828125</ele>
        <time>2026-05-25T17:38:10.000Z</time>
        <extensions>
          <ns3:TrackPointExtension>
            <ns3:hr>89</ns3:hr>
            <ns3:cad>0</ns3:cad>
          </ns3:TrackPointExtension>
        </extensions>
      </trkpt>
      <trkpt lat="38.05955442599952220916748046875" lon="-106.93260110914707183837890625">
        <ele>3550.60009765625</ele>
        <time>2026-05-25T17:38:11.000Z</time>
        <extensions>
          <ns3:TrackPointExtension>
            <ns3:hr>89</ns3:hr>
            <ns3:cad>0</ns3:cad>
          </ns3:TrackPointExtension>
        </extensions>
      </trkpt>
      <trkpt lat="38.05955979041755199432373046875" lon="-106.93261711858212947845458984375">
        <ele>3550.199951171875</ele>
        <time>2026-05-25T17:38:13.000Z</time>
        <extensions>
          <ns3:TrackPointExtension>
            <ns3:hr>89</ns3:hr>
            <ns3:cad>0</ns3:cad>
          </ns3:TrackPointExtension>
        </extensions>
      </trkpt>
      <trkpt lat="38.05959449149668216705322265625" lon="-106.93260957486927509307861328125">
        <ele>3550</ele>
        <time>2026-05-25T17:38:15.000Z</time>
        <extensions>
          <ns3:TrackPointExtension>
            <ns3:hr>89</ns3:hr>
            <ns3:cad>0</ns3:cad>
          </ns3:TrackPointExtension>
        </extensions>
      </trkpt>
      <trkpt lat="38.0596156977117061614990234375" lon="-106.932602114975452423095703125">
        <ele>3549.60009765625</ele>
        <time>2026-05-25T17:38:17.000Z</time>
        <extensions>
          <ns3:TrackPointExtension>
            <ns3:hr>89</ns3:hr>
            <ns3:cad>0</ns3:cad>
          </ns3:TrackPointExtension>
        </extensions>
      </trkpt>
      <trkpt lat="38.059647381305694580078125" lon="-106.93258275277912616729736328125">
        <ele>3549.39990234375</ele>
        <time>2026-05-25T17:38:20.000Z</time>
        <extensions>
          <ns3:TrackPointExtension>
            <ns3:hr>89</ns3:hr>
            <ns3:cad>0</ns3:cad>
          </ns3:TrackPointExtension>
        </extensions>
      </trkpt>
      <trkpt lat="38.059694655239582061767578125" lon="-106.9325412623584270477294921875">
        <ele>3548.39990234375</ele>
        <time>2026-05-25T17:38:26.000Z</time>
        <extensions>
          <ns3:TrackPointExtension>
            <ns3:hr>88</ns3:hr>
            <ns3:cad>55</ns3:cad>
          </ns3:TrackPointExtension>
        </extensions>
      </trkpt>
      <trkpt lat="38.05970362387597560882568359375" lon="-106.9325379095971584320068359375">
        <ele>3548</ele>
        <time>2026-05-25T17:38:27.000Z</time>
        <extensions>
          <ns3:TrackPointExtension>
            <ns3:hr>89</ns3:hr>
            <ns3:cad>55</ns3:cad>
          </ns3:TrackPointExtension>
        </extensions>
      </trkpt>
      <trkpt lat="38.0597721040248870849609375" lon="-106.9324973411858081817626953125">
        <ele>3547.60009765625</ele>
        <time>2026-05-25T17:38:32.000Z</time>
        <extensions>
          <ns3:TrackPointExtension>
            <ns3:hr>90</ns3:hr>
            <ns3:cad>61</ns3:cad>
          </ns3:TrackPointExtension>
        </extensions>
      </trkpt>
      <trkpt lat="38.05979557335376739501953125" lon="-106.932485103607177734375">
        <ele>3547.199951171875</ele>
        <time>2026-05-25T17:38:34.000Z</time>
        <extensions>
          <ns3:TrackPointExtension>
            <ns3:hr>89</ns3:hr>
            <ns3:cad>0</ns3:cad>
          </ns3:TrackPointExtension>
        </extensions>
      </trkpt>
      <trkpt lat="38.0598530732095241546630859375" lon="-106.93243942223489284515380859375">
        <ele>3546.39990234375</ele>
        <time>2026-05-25T17:38:39.000Z</time>
        <extensions>
          <ns3:TrackPointExtension>
            <ns3:hr>87</ns3:hr>
            <ns3:cad>57</ns3:cad>
          </ns3:TrackPointExtension>
        </extensions>
      </trkpt>
      <trkpt lat="38.05987511761486530303955078125" lon="-106.932406984269618988037109375">
        <ele>3546.199951171875</ele>
        <time>2026-05-25T17:38:42.000Z</time>
        <extensions>
          <ns3:TrackPointExtension>
            <ns3:hr>86</ns3:hr>
            <ns3:cad>58</ns3:cad>
          </ns3:TrackPointExtension>
        </extensions>
      </trkpt>
      <trkpt lat="38.05990680120885372161865234375" lon="-106.932360045611858367919921875">
        <ele>3545</ele>
        <time>2026-05-25T17:38:46.000Z</time>
        <extensions>
          <ns3:TrackPointExtension>
            <ns3:hr>86</ns3:hr>
            <ns3:cad>57</ns3:cad>
          </ns3:TrackPointExtension>
        </extensions>
      </trkpt>
      <trkpt lat="38.05991769768297672271728515625" lon="-106.93235157988965511322021484375">
        <ele>3545.199951171875</ele>
        <time>2026-05-25T17:38:47.000Z</time>
        <extensions>
          <ns3:TrackPointExtension>
            <ns3:hr>86</ns3:hr>
            <ns3:cad>57</ns3:cad>
          </ns3:TrackPointExtension>
        </extensions>
      </trkpt>
      <trkpt lat="38.06000017561018466949462890625" lon="-106.9323243387043476104736328125">
        <ele>3545.39990234375</ele>
        <time>2026-05-25T17:38:53.000Z</time>
        <extensions>
          <ns3:TrackPointExtension>
            <ns3:hr>85</ns3:hr>
            <ns3:cad>0</ns3:cad>
          </ns3:TrackPointExtension>
        </extensions>
      </trkpt>
      <trkpt lat="38.0600093118846416473388671875" lon="-106.9323122687637805938720703125">
        <ele>3545.199951171875</ele>
        <time>2026-05-25T17:38:54.000Z</time>
        <extensions>
          <ns3:TrackPointExtension>
            <ns3:hr>84</ns3:hr>
            <ns3:cad>0</ns3:cad>
          </ns3:TrackPointExtension>
        </extensions>
      </trkpt>
      <trkpt lat="38.06005096994340419769287109375" lon="-106.93229273892939090728759765625">
        <ele>3544</ele>
        <time>2026-05-25T17:38:58.000Z</time>
        <extensions>
          <ns3:TrackPointExtension>
            <ns3:hr>84</ns3:hr>
            <ns3:cad>0</ns3:cad>
          </ns3:TrackPointExtension>
        </extensions>
      </trkpt>
      <trkpt lat="38.06006119586527347564697265625" lon="-106.9322898052632808685302734375">
        <ele>3543.60009765625</ele>
        <time>2026-05-25T17:39:00.000Z</time>
        <extensions>
          <ns3:TrackPointExtension>
            <ns3:hr>84</ns3:hr>
            <ns3:cad>0</ns3:cad>
          </ns3:TrackPointExtension>
        </extensions>
      </trkpt>
      <trkpt lat="38.060092963278293609619140625" lon="-106.93227714858949184417724609375">
        <ele>3543</ele>
        <time>2026-05-25T17:39:03.000Z</time>
        <extensions>
          <ns3:TrackPointExtension>
            <ns3:hr>85</ns3:hr>
            <ns3:cad>0</ns3:cad>
          </ns3:TrackPointExtension>
        </extensions>
      </trkpt>
      <trkpt lat="38.0601395666599273681640625" lon="-106.93225719965994358062744140625">
        <ele>3541.800048828125</ele>
        <time>2026-05-25T17:39:07.000Z</time>
        <extensions>
          <ns3:TrackPointExtension>
            <ns3:hr>86</ns3:hr>
            <ns3:cad>0</ns3:cad>
          </ns3:TrackPointExtension>
        </extensions>
      </trkpt>
      <trkpt lat="38.06020268239080905914306640625" lon="-106.932205148041248321533203125">
        <ele>3541</ele>
        <time>2026-05-25T17:39:13.000Z</time>
        <extensions>
          <ns3:TrackPointExtension>
            <ns3:hr>88</ns3:hr>
            <ns3:cad>0</ns3:cad>
          </ns3:TrackPointExtension>
        </extensions>
      </trkpt>
      <trkpt lat="38.06022942066192626953125" lon="-106.93219450302422046661376953125">
        <ele>3540.800048828125</ele>
        <time>2026-05-25T17:39:15.000Z</time>
        <extensions>
          <ns3:TrackPointExtension>
            <ns3:hr>88</ns3:hr>
            <ns3:cad>58</ns3:cad>
          </ns3:TrackPointExtension>
        </extensions>
      </trkpt>
      <trkpt lat="38.06030645035207271575927734375" lon="-106.9321550242602825164794921875">
        <ele>3540</ele>
        <time>2026-05-25T17:39:21.000Z</time>
        <extensions>
          <ns3:TrackPointExtension>
            <ns3:hr>87</ns3:hr>
            <ns3:cad>0</ns3:cad>
          </ns3:TrackPointExtension>
        </extensions>
      </trkpt>
      <trkpt lat="38.06031114421784877777099609375" lon="-106.93215829320251941680908203125">
        <ele>3539.800048828125</ele>
        <time>2026-05-25T17:39:22.000Z</time>
        <extensions>
          <ns3:TrackPointExtension>
            <ns3:hr>88</ns3:hr>
            <ns3:cad>0</ns3:cad>
          </ns3:TrackPointExtension>
        </extensions>
      </trkpt>
      <trkpt lat="38.060313574969768524169921875" lon="-106.93217338062822818756103515625">
        <ele>3539.800048828125</ele>
        <time>2026-05-25T17:39:23.000Z</time>
        <extensions>
          <ns3:TrackPointExtension>
            <ns3:hr>88</ns3:hr>
            <ns3:cad>0</ns3:cad>
          </ns3:TrackPointExtension>
        </extensions>
      </trkpt>
      <trkpt lat="38.06029086001217365264892578125" lon="-106.93222115747630596160888671875">
        <ele>3538.800048828125</ele>
        <time>2026-05-25T17:39:27.000Z</time>
        <extensions>
          <ns3:TrackPointExtension>
            <ns3:hr>89</ns3:hr>
            <ns3:cad>0</ns3:cad>
          </ns3:TrackPointExtension>
        </extensions>
      </trkpt>
      <trkpt lat="38.0602778680622577667236328125" lon="-106.932245381176471710205078125">
        <ele>3538.39990234375</ele>
        <time>2026-05-25T17:39:28.000Z</time>
        <extensions>
          <ns3:TrackPointExtension>
            <ns3:hr>90</ns3:hr>
            <ns3:cad>0</ns3:cad>
          </ns3:TrackPointExtension>
        </extensions>
      </trkpt>
      <trkpt lat="38.0602748505771160125732421875" lon="-106.9322780705988407135009765625">
        <ele>3538</ele>
        <time>2026-05-25T17:39:30.000Z</time>
        <extensions>
          <ns3:TrackPointExtension>
            <ns3:hr>92</ns3:hr>
            <ns3:cad>0</ns3:cad>
          </ns3:TrackPointExtension>
        </extensions>
      </trkpt>
      <trkpt lat="38.0602782033383846282958984375" lon="-106.9322978518903255462646484375">
        <ele>3537.60009765625</ele>
        <time>2026-05-25T17:39:32.000Z</time>
        <extensions>
          <ns3:TrackPointExtension>
            <ns3:hr>96</ns3:hr>
            <ns3:cad>0</ns3:cad>
          </ns3:TrackPointExtension>
        </extensions>
      </trkpt>
      <trkpt lat="38.06027434766292572021484375" lon="-106.932316459715366363525390625">
        <ele>3537.39990234375</ele>
        <time>2026-05-25T17:39:33.000Z</time>
        <extensions>
          <ns3:TrackPointExtension>
            <ns3:hr>96</ns3:hr>
            <ns3:cad>0</ns3:cad>
          </ns3:TrackPointExtension>
        </extensions>
      </trkpt>
      <trkpt lat="38.06024794466793537139892578125" lon="-106.93239055573940277099609375">
        <ele>3536.199951171875</ele>
        <time>2026-05-25T17:39:38.000Z</time>
        <extensions>
          <ns3:TrackPointExtension>
            <ns3:hr>96</ns3:hr>
            <ns3:cad>0</ns3:cad>
          </ns3:TrackPointExtension>
        </extensions>
      </trkpt>
      <trkpt lat="38.06023621000349521636962890625" lon="-106.93243405781686305999755859375">
        <ele>3535.800048828125</ele>
        <time>2026-05-25T17:39:41.000Z</time>
        <extensions>
          <ns3:TrackPointExtension>
            <ns3:hr>93</ns3:hr>
            <ns3:cad>0</ns3:cad>
          </ns3:TrackPointExtension>
        </extensions>
      </trkpt>
      <trkpt lat="38.06019631214439868927001953125" lon="-106.932528018951416015625">
        <ele>3535.60009765625</ele>
        <time>2026-05-25T17:39:47.000Z</time>
        <extensions>
          <ns3:TrackPointExtension>
            <ns3:hr>94</ns3:hr>
            <ns3:cad>58</ns3:cad>
          </ns3:TrackPointExtension>
        </extensions>
      </trkpt>
      <trkpt lat="38.06018122471868991851806640625" lon="-106.93257235921919345855712890625">
        <ele>3535.39990234375</ele>
        <time>2026-05-25T17:39:50.000Z</time>
        <extensions>
          <ns3:TrackPointExtension>
            <ns3:hr>97</ns3:hr>
            <ns3:cad>58</ns3:cad>
          </ns3:TrackPointExtension>
        </extensions>
      </trkpt>
      <trkpt lat="38.06018122471868991851806640625" lon="-106.93257235921919345855712890625">
        <ele>3535.199951171875</ele>
        <time>2026-05-25T17:39:51.000Z</time>
        <extensions>
          <ns3:TrackPointExtension>
            <ns3:hr>97</ns3:hr>
            <ns3:cad>58</ns3:cad>
          </ns3:TrackPointExtension>
        </extensions>
      </trkpt>
      <trkpt lat="38.0601561628282070159912109375" lon="-106.93263639695942401885986328125">
        <ele>3534.800048828125</ele>
        <time>2026-05-25T17:39:54.000Z</time>
        <extensions>
          <ns3:TrackPointExtension>
            <ns3:hr>99</ns3:hr>
            <ns3:cad>60</ns3:cad>
          </ns3:TrackPointExtension>
        </extensions>
      </trkpt>
      <trkpt lat="38.06017451919615268707275390625" lon="-106.93267025984823703765869140625">
        <ele>3534.39990234375</ele>
        <time>2026-05-25T17:39:58.000Z</time>
        <extensions>
          <ns3:TrackPointExtension>
            <ns3:hr>100</ns3:hr>
            <ns3:cad>0</ns3:cad>
          </ns3:TrackPointExtension>
        </extensions>
      </trkpt>
      <trkpt lat="38.06018424220383167266845703125" lon="-106.93266808055341243743896484375">
        <ele>3534.199951171875</ele>
        <time>2026-05-25T17:39:59.000Z</time>
        <extensions>
          <ns3:TrackPointExtension>
            <ns3:hr>100</ns3:hr>
            <ns3:cad>0</ns3:cad>
          </ns3:TrackPointExtension>
        </extensions>
      </trkpt>
      <trkpt lat="38.06019597686827182769775390625" lon="-106.93266137503087520599365234375">
        <ele>3534</ele>
        <time>2026-05-25T17:40:00.000Z</time>
        <extensions>
          <ns3:TrackPointExtension>
            <ns3:hr>100</ns3:hr>
            <ns3:cad>0</ns3:cad>
          </ns3:TrackPointExtension>
        </extensions>
      </trkpt>
      <trkpt lat="38.06022900156676769256591796875" lon="-106.932610161602497100830078125">
        <ele>3533</ele>
        <time>2026-05-25T17:40:04.000Z</time>
        <extensions>
          <ns3:TrackPointExtension>
            <ns3:hr>100</ns3:hr>
            <ns3:cad>0</ns3:cad>
          </ns3:TrackPointExtension>
        </extensions>
      </trkpt>
      <trkpt lat="38.06023537181317806243896484375" lon="-106.93260052241384983062744140625">
        <ele>3533</ele>
        <time>2026-05-25T17:40:05.000Z</time>
        <extensions>
          <ns3:TrackPointExtension>
            <ns3:hr>99</ns3:hr>
            <ns3:cad>0</ns3:cad>
          </ns3:TrackPointExtension>
        </extensions>
      </trkpt>
      <trkpt lat="38.06026722304522991180419921875" lon="-106.9325546734035015106201171875">
        <ele>3532.60009765625</ele>
        <time>2026-05-25T17:40:09.000Z</time>
        <extensions>
          <ns3:TrackPointExtension>
            <ns3:hr>101</ns3:hr>
            <ns3:cad>57</ns3:cad>
          </ns3:TrackPointExtension>
        </extensions>
      </trkpt>
      <trkpt lat="38.06032371707260608673095703125" lon="-106.93250781856477260589599609375">
        <ele>3532.199951171875</ele>
        <time>2026-05-25T17:40:15.000Z</time>
        <extensions>
          <ns3:TrackPointExtension>
            <ns3:hr>101</ns3:hr>
            <ns3:cad>55</ns3:cad>
          </ns3:TrackPointExtension>
        </extensions>
      </trkpt>
      <trkpt lat="38.06033344008028507232666015625" lon="-106.93250262178480625152587890625">
        <ele>3532.199951171875</ele>
        <time>2026-05-25T17:40:16.000Z</time>
        <extensions>
          <ns3:TrackPointExtension>
            <ns3:hr>101</ns3:hr>
            <ns3:cad>55</ns3:cad>
          </ns3:TrackPointExtension>
        </extensions>
      </trkpt>
      <trkpt lat="38.06037065573036670684814453125" lon="-106.9324758835136890411376953125">
        <ele>3531.800048828125</ele>
        <time>2026-05-25T17:40:21.000Z</time>
        <extensions>
          <ns3:TrackPointExtension>
            <ns3:hr>101</ns3:hr>
            <ns3:cad>54</ns3:cad>
          </ns3:TrackPointExtension>
        </extensions>
      </trkpt>
      <trkpt lat="38.06038758717477321624755859375" lon="-106.9324540905654430389404296875">
        <ele>3531.60009765625</ele>
        <time>2026-05-25T17:40:23.000Z</time>
        <extensions>
          <ns3:TrackPointExtension>
            <ns3:hr>101</ns3:hr>
            <ns3:cad>54</ns3:cad>
          </ns3:TrackPointExtension>
        </extensions>
      </trkpt>
      <trkpt lat="38.06040988303720951080322265625" lon="-106.9324274361133575439453125">
        <ele>3530.800048828125</ele>
        <time>2026-05-25T17:40:26.000Z</time>
        <extensions>
          <ns3:TrackPointExtension>
            <ns3:hr>100</ns3:hr>
            <ns3:cad>55</ns3:cad>
          </ns3:TrackPointExtension>
        </extensions>
      </trkpt>
      <trkpt lat="38.060463108122348785400390625" lon="-106.93238921463489532470703125">
        <ele>3530.199951171875</ele>
        <time>2026-05-25T17:40:32.000Z</time>
        <extensions>
          <ns3:TrackPointExtension>
            <ns3:hr>100</ns3:hr>
            <ns3:cad>0</ns3:cad>
          </ns3:TrackPointExtension>
        </extensions>
      </trkpt>
      <trkpt lat="38.06049688719213008880615234375" lon="-106.93237722851336002349853515625">
        <ele>3529.60009765625</ele>
        <time>2026-05-25T17:40:35.000Z</time>
        <extensions>
          <ns3:TrackPointExtension>
            <ns3:hr>100</ns3:hr>
            <ns3:cad>79</ns3:cad>
          </ns3:TrackPointExtension>
        </extensions>
      </trkpt>
      <trkpt lat="38.06051306426525115966796875" lon="-106.93239751271903514862060546875">
        <ele>3529</ele>
        <time>2026-05-25T17:40:38.000Z</time>
        <extensions>
          <ns3:TrackPointExtension>
            <ns3:hr>100</ns3:hr>
            <ns3:cad>79</ns3:cad>
          </ns3:TrackPointExtension>
        </extensions>
      </trkpt>
      <trkpt lat="38.06050904095172882080078125" lon="-106.9324118457734584808349609375">
        <ele>3528.60009765625</ele>
        <time>2026-05-25T17:40:39.000Z</time>
        <extensions>
          <ns3:TrackPointExtension>
            <ns3:hr>100</ns3:hr>
            <ns3:cad>79</ns3:cad>
          </ns3:TrackPointExtension>
        </extensions>
      </trkpt>
      <trkpt lat="38.060508035123348236083984375" lon="-106.932424418628215789794921875">
        <ele>3528.39990234375</ele>
        <time>2026-05-25T17:40:40.000Z</time>
        <extensions>
          <ns3:TrackPointExtension>
            <ns3:hr>99</ns3:hr>
            <ns3:cad>79</ns3:cad>
          </ns3:TrackPointExtension>
        </extensions>
      </trkpt>
      <trkpt lat="38.06049454025924205780029296875" lon="-106.9324819184839725494384765625">
        <ele>3527.39990234375</ele>
        <time>2026-05-25T17:40:44.000Z</time>
        <extensions>
          <ns3:TrackPointExtension>
            <ns3:hr>96</ns3:hr>
            <ns3:cad>79</ns3:cad>
          </ns3:TrackPointExtension>
        </extensions>
      </trkpt>
      <trkpt lat="38.06047593243420124053955078125" lon="-106.93256028927862644195556640625">
        <ele>3526.39990234375</ele>
        <time>2026-05-25T17:40:49.000Z</time>
        <extensions>
          <ns3:TrackPointExtension>
            <ns3:hr>93</ns3:hr>
            <ns3:cad>0</ns3:cad>
          </ns3:TrackPointExtension>
        </extensions>
      </trkpt>
      <trkpt lat="38.06047593243420124053955078125" lon="-106.93256028927862644195556640625">
        <ele>3526.199951171875</ele>
        <time>2026-05-25T17:40:50.000Z</time>
        <extensions>
          <ns3:TrackPointExtension>
            <ns3:hr>92</ns3:hr>
            <ns3:cad>0</ns3:cad>
          </ns3:TrackPointExtension>
        </extensions>
      </trkpt>
      <trkpt lat="38.06042916141450405120849609375" lon="-106.93266472779214382171630859375">
        <ele>3525.800048828125</ele>
        <time>2026-05-25T17:40:56.000Z</time>
        <extensions>
          <ns3:TrackPointExtension>
            <ns3:hr>92</ns3:hr>
            <ns3:cad>76</ns3:cad>
          </ns3:TrackPointExtension>
        </extensions>
      </trkpt>
      <trkpt lat="38.0604180134832859039306640625" lon="-106.932712756097316741943359375">
        <ele>3525.199951171875</ele>
        <time>2026-05-25T17:41:00.000Z</time>
        <extensions>
          <ns3:TrackPointExtension>
            <ns3:hr>93</ns3:hr>
            <ns3:cad>76</ns3:cad>
          </ns3:TrackPointExtension>
        </extensions>
      </trkpt>
      <trkpt lat="38.0604019202291965484619140625" lon="-106.932750977575778961181640625">
        <ele>3524.60009765625</ele>
        <time>2026-05-25T17:41:02.000Z</time>
        <extensions>
          <ns3:TrackPointExtension>
            <ns3:hr>94</ns3:hr>
            <ns3:cad>76</ns3:cad>
          </ns3:TrackPointExtension>
        </extensions>
      </trkpt>
      <trkpt lat="38.06036612950265407562255859375" lon="-106.93281233310699462890625">
        <ele>3524.39990234375</ele>
        <time>2026-05-25T17:41:07.000Z</time>
        <extensions>
          <ns3:TrackPointExtension>
            <ns3:hr>93</ns3:hr>
            <ns3:cad>0</ns3:cad>
          </ns3:TrackPointExtension>
        </extensions>
      </trkpt>
      <trkpt lat="38.060345761477947235107421875" lon="-106.93284007720649242401123046875">
        <ele>3524.199951171875</ele>
        <time>2026-05-25T17:41:10.000Z</time>
        <extensions>
          <ns3:TrackPointExtension>
            <ns3:hr>96</ns3:hr>
            <ns3:cad>0</ns3:cad>
          </ns3:TrackPointExtension>
        </extensions>
      </trkpt>
      <trkpt lat="38.06032304652035236358642578125" lon="-106.93286254070699214935302734375">
        <ele>3524.199951171875</ele>
        <time>2026-05-25T17:41:11.000Z</time>
        <extensions>
          <ns3:TrackPointExtension>
            <ns3:hr>96</ns3:hr>
            <ns3:cad>0</ns3:cad>
          </ns3:TrackPointExtension>
        </extensions>
      </trkpt>
      <trkpt lat="38.06031583808362483978271484375" lon="-106.93287176080048084259033203125">
        <ele>3524</ele>
        <time>2026-05-25T17:41:12.000Z</time>
        <extensions>
          <ns3:TrackPointExtension>
            <ns3:hr>96</ns3:hr>
            <ns3:cad>0</ns3:cad>
          </ns3:TrackPointExtension>
        </extensions>
      </trkpt>
      <trkpt lat="38.06028130464255809783935546875" lon="-106.9329013489186763763427734375">
        <ele>3524</ele>
        <time>2026-05-25T17:41:17.000Z</time>
        <extensions>
          <ns3:TrackPointExtension>
            <ns3:hr>93</ns3:hr>
            <ns3:cad>0</ns3:cad>
          </ns3:TrackPointExtension>
        </extensions>
      </trkpt>
      <trkpt lat="38.060257919132709503173828125" lon="-106.9329439289867877960205078125">
        <ele>3524</ele>
        <time>2026-05-25T17:41:21.000Z</time>
        <extensions>
          <ns3:TrackPointExtension>
            <ns3:hr>91</ns3:hr>
            <ns3:cad>0</ns3:cad>
          </ns3:TrackPointExtension>
        </extensions>
      </trkpt>
      <trkpt lat="38.06024895049631595611572265625" lon="-106.93298508413136005401611328125">
        <ele>3523</ele>
        <time>2026-05-25T17:41:26.000Z</time>
        <extensions>
          <ns3:TrackPointExtension>
            <ns3:hr>89</ns3:hr>
            <ns3:cad>0</ns3:cad>
          </ns3:TrackPointExtension>
        </extensions>
      </trkpt>
      <trkpt lat="38.06024844758212566375732421875" lon="-106.93299681879580020904541015625">
        <ele>3521.800048828125</ele>
        <time>2026-05-25T17:41:29.000Z</time>
        <extensions>
          <ns3:TrackPointExtension>
            <ns3:hr>88</ns3:hr>
            <ns3:cad>0</ns3:cad>
          </ns3:TrackPointExtension>
        </extensions>
      </trkpt>
      <trkpt lat="38.06024861522018909454345703125" lon="-106.93301458843052387237548828125">
        <ele>3521.39990234375</ele>
        <time>2026-05-25T17:41:30.000Z</time>
        <extensions>
          <ns3:TrackPointExtension>
            <ns3:hr>89</ns3:hr>
            <ns3:cad>0</ns3:cad>
          </ns3:TrackPointExtension>
        </extensions>
      </trkpt>
      <trkpt lat="38.060239143669605255126953125" lon="-106.9330401532351970672607421875">
        <ele>3520.800048828125</ele>
        <time>2026-05-25T17:41:32.000Z</time>
        <extensions>
          <ns3:TrackPointExtension>
            <ns3:hr>89</ns3:hr>
            <ns3:cad>0</ns3:cad>
          </ns3:TrackPointExtension>
        </extensions>
      </trkpt>
      <trkpt lat="38.06021659635007381439208984375" lon="-106.9330693222582340240478515625">
        <ele>3519.39990234375</ele>
        <time>2026-05-25T17:41:35.000Z</time>
        <extensions>
          <ns3:TrackPointExtension>
            <ns3:hr>87</ns3:hr>
            <ns3:cad>0</ns3:cad>
          </ns3:TrackPointExtension>
        </extensions>
      </trkpt>
      <trkpt lat="38.060207627713680267333984375" lon="-106.93308248184621334075927734375">
        <ele>3518.800048828125</ele>
        <time>2026-05-25T17:41:37.000Z</time>
        <extensions>
          <ns3:TrackPointExtension>
            <ns3:hr>86</ns3:hr>
            <ns3:cad>0</ns3:cad>
          </ns3:TrackPointExtension>
        </extensions>
      </trkpt>
      <trkpt lat="38.06019388139247894287109375" lon="-106.93312975578010082244873046875">
        <ele>3518.39990234375</ele>
        <time>2026-05-25T17:41:39.000Z</time>
        <extensions>
          <ns3:TrackPointExtension>
            <ns3:hr>85</ns3:hr>
            <ns3:cad>0</ns3:cad>
          </ns3:TrackPointExtension>
        </extensions>
      </trkpt>
      <trkpt lat="38.06018373928964138031005859375" lon="-106.933168731629848480224609375">
        <ele>3518</ele>
        <time>2026-05-25T17:41:42.000Z</time>
        <extensions>
          <ns3:TrackPointExtension>
            <ns3:hr>86</ns3:hr>
            <ns3:cad>0</ns3:cad>
          </ns3:TrackPointExtension>
        </extensions>
      </trkpt>
      <trkpt lat="38.06018608622252941131591796875" lon="-106.93321667611598968505859375">
        <ele>3517.199951171875</ele>
        <time>2026-05-25T17:41:45.000Z</time>
        <extensions>
          <ns3:TrackPointExtension>
            <ns3:hr>87</ns3:hr>
            <ns3:cad>0</ns3:cad>
          </ns3:TrackPointExtension>
        </extensions>
      </trkpt>
      <trkpt lat="38.0601806379854679107666015625" lon="-106.93326068110764026641845703125">
        <ele>3516.39990234375</ele>
        <time>2026-05-25T17:41:48.000Z</time>
        <extensions>
          <ns3:TrackPointExtension>
            <ns3:hr>87</ns3:hr>
            <ns3:cad>0</ns3:cad>
          </ns3:TrackPointExtension>
        </extensions>
      </trkpt>
      <trkpt lat="38.06018491275608539581298828125" lon="-106.93327945657074451446533203125">
        <ele>3516.199951171875</ele>
        <time>2026-05-25T17:41:49.000Z</time>
        <extensions>
          <ns3:TrackPointExtension>
            <ns3:hr>87</ns3:hr>
            <ns3:cad>0</ns3:cad>
          </ns3:TrackPointExtension>
        </extensions>
      </trkpt>
      <trkpt lat="38.060216344892978668212890625" lon="-106.9333080388605594635009765625">
        <ele>3516</ele>
        <time>2026-05-25T17:41:52.000Z</time>
        <extensions>
          <ns3:TrackPointExtension>
            <ns3:hr>87</ns3:hr>
            <ns3:cad>0</ns3:cad>
          </ns3:TrackPointExtension>
        </extensions>
      </trkpt>
      <trkpt lat="38.06023051030933856964111328125" lon="-106.93331097252666950225830078125">
        <ele>3516</ele>
        <time>2026-05-25T17:41:54.000Z</time>
        <extensions>
          <ns3:TrackPointExtension>
            <ns3:hr>88</ns3:hr>
            <ns3:cad>0</ns3:cad>
          </ns3:TrackPointExtension>
        </extensions>
      </trkpt>
      <trkpt lat="38.06026537902653217315673828125" lon="-106.9332936219871044158935546875">
        <ele>3515.39990234375</ele>
        <time>2026-05-25T17:41:58.000Z</time>
        <extensions>
          <ns3:TrackPointExtension>
            <ns3:hr>87</ns3:hr>
            <ns3:cad>0</ns3:cad>
          </ns3:TrackPointExtension>
        </extensions>
      </trkpt>
      <trkpt lat="38.06027233600616455078125" lon="-106.93328507244586944580078125">
        <ele>3515.199951171875</ele>
        <time>2026-05-25T17:41:59.000Z</time>
        <extensions>
          <ns3:TrackPointExtension>
            <ns3:hr>87</ns3:hr>
            <ns3:cad>0</ns3:cad>
          </ns3:TrackPointExtension>
        </extensions>
      </trkpt>
      <trkpt lat="38.06027962826192378997802734375" lon="-106.9332798756659030914306640625">
        <ele>3515</ele>
        <time>2026-05-25T17:42:00.000Z</time>
        <extensions>
          <ns3:TrackPointExtension>
            <ns3:hr>87</ns3:hr>
            <ns3:cad>0</ns3:cad>
          </ns3:TrackPointExtension>
        </extensions>
      </trkpt>
      <trkpt lat="38.06028834544122219085693359375" lon="-106.93327895365655422210693359375">
        <ele>3515</ele>
        <time>2026-05-25T17:42:01.000Z</time>
        <extensions>
          <ns3:TrackPointExtension>
            <ns3:hr>86</ns3:hr>
            <ns3:cad>0</ns3:cad>
          </ns3:TrackPointExtension>
        </extensions>
      </trkpt>
      <trkpt lat="38.0603378824889659881591796875" lon="-106.93325380794703960418701171875">
        <ele>3514.60009765625</ele>
        <time>2026-05-25T17:42:06.000Z</time>
        <extensions>
          <ns3:TrackPointExtension>
            <ns3:hr>88</ns3:hr>
            <ns3:cad>0</ns3:cad>
          </ns3:TrackPointExtension>
        </extensions>
      </trkpt>
      <trkpt lat="38.0603455938398838043212890625" lon="-106.9332470186054706573486328125">
        <ele>3514.800048828125</ele>
        <time>2026-05-25T17:42:08.000Z</time>
        <extensions>
          <ns3:TrackPointExtension>
            <ns3:hr>91</ns3:hr>
            <ns3:cad>0</ns3:cad>
          </ns3:TrackPointExtension>
        </extensions>
      </trkpt>
      <trkpt lat="38.06036076508462429046630859375" lon="-106.93324877880513668060302734375">
        <ele>3514.800048828125</ele>
        <time>2026-05-25T17:42:10.000Z</time>
        <extensions>
          <ns3:TrackPointExtension>
            <ns3:hr>91</ns3:hr>
            <ns3:cad>0</ns3:cad>
          </ns3:TrackPointExtension>
        </extensions>
      </trkpt>
    </trkseg>
  </trk>
</gpx>
